<?xml version="1.0" encoding="UTF-8"?>
<gpx creator="Garmin Connect" version="1.1"
  xsi:schemaLocation="http://www.topografix.com/GPX/1/1 http://www.topografix.com/GPX/11.xsd"
  xmlns:ns3="http://www.garmin.com/xmlschemas/TrackPointExtension/v1"
  xmlns="http://www.topografix.com/GPX/1/1"
  xmlns:xsi="http://www.w3.org/2001/XMLSchema-instance" xmlns:ns2="http://www.garmin.com/xmlschemas/GpxExtensions/v3">
  <metadata>
    <link href="connect.garmin.com">
      <text>Garmin Connect</text>
    </link>
    <time>2025-04-29T19:00:51.000Z</time>
  </metadata>
  <trk>
    <name>Tenneville Autre</name>
    <type>other</type>
    <trkseg>
      <trkpt lat="50.106470994651317596435546875" lon="5.4756819270551204681396484375">
        <ele>486.79998779296875</ele>
        <time>2025-04-29T19:00:51.000Z</time>
        <extensions>
          <ns3:TrackPointExtension/>
        </extensions>
      </trkpt>
      <trkpt lat="50.106410980224609375" lon="5.47571696341037750244140625">
        <ele>486.399993896484375</ele>
        <time>2025-04-29T19:00:52.000Z</time>
        <extensions>
          <ns3:TrackPointExtension/>
        </extensions>
      </trkpt>
      <trkpt lat="50.10635691694915294647216796875" lon="5.47569491900503635406494140625">
        <ele>486.399993896484375</ele>
        <time>2025-04-29T19:00:54.000Z</time>
        <extensions>
          <ns3:TrackPointExtension/>
        </extensions>
      </trkpt>
      <trkpt lat="50.10630494914948940277099609375" lon="5.47572794370353221893310546875">
        <ele>486.399993896484375</ele>
        <time>2025-04-29T19:00:56.000Z</time>
        <extensions>
          <ns3:TrackPointExtension/>
        </extensions>
      </trkpt>
      <trkpt lat="50.10674198158085346221923828125" lon="5.47756995074450969696044921875">
        <ele>476.20001220703125</ele>
        <time>2025-04-29T19:01:05.000Z</time>
        <extensions>
          <ns3:TrackPointExtension/>
        </extensions>
      </trkpt>
      <trkpt lat="50.106810964643955230712890625" lon="5.47777396626770496368408203125">
        <ele>474</ele>
        <time>2025-04-29T19:01:14.000Z</time>
        <extensions>
          <ns3:TrackPointExtension/>
        </extensions>
      </trkpt>
      <trkpt lat="50.10685999877750873565673828125" lon="5.47785594128072261810302734375">
        <ele>473.399993896484375</ele>
        <time>2025-04-29T19:01:23.000Z</time>
        <extensions>
          <ns3:TrackPointExtension/>
        </extensions>
      </trkpt>
      <trkpt lat="50.10766097344458103179931640625" lon="5.48478492535650730133056640625">
        <ele>454.79998779296875</ele>
        <time>2025-04-29T19:01:44.000Z</time>
        <extensions>
          <ns3:TrackPointExtension/>
        </extensions>
      </trkpt>
      <trkpt lat="50.10797797702252864837646484375" lon="5.48909791745245456695556640625">
        <ele>451.399993896484375</ele>
        <time>2025-04-29T19:02:04.000Z</time>
        <extensions>
          <ns3:TrackPointExtension/>
        </extensions>
      </trkpt>
      <trkpt lat="50.1085599325597286224365234375" lon="5.4935149289667606353759765625">
        <ele>441.600006103515625</ele>
        <time>2025-04-29T19:02:24.000Z</time>
        <extensions>
          <ns3:TrackPointExtension/>
        </extensions>
      </trkpt>
      <trkpt lat="50.1092509366571903228759765625" lon="5.49450793303549289703369140625">
        <ele>441.399993896484375</ele>
        <time>2025-04-29T19:02:32.000Z</time>
        <extensions>
          <ns3:TrackPointExtension/>
        </extensions>
      </trkpt>
      <trkpt lat="50.1101179607212543487548828125" lon="5.496199987828731536865234375">
        <ele>438.20001220703125</ele>
        <time>2025-04-29T19:02:39.000Z</time>
        <extensions>
          <ns3:TrackPointExtension/>
        </extensions>
      </trkpt>
      <trkpt lat="50.110199935734272003173828125" lon="5.496419928967952728271484375">
        <ele>439.20001220703125</ele>
        <time>2025-04-29T19:02:47.000Z</time>
        <extensions>
          <ns3:TrackPointExtension/>
        </extensions>
      </trkpt>
      <trkpt lat="50.110832937061786651611328125" lon="5.500164963304996490478515625">
        <ele>452.79998779296875</ele>
        <time>2025-04-29T19:02:54.000Z</time>
        <extensions>
          <ns3:TrackPointExtension/>
        </extensions>
      </trkpt>
      <trkpt lat="50.1108609326183795928955078125" lon="5.500400997698307037353515625">
        <ele>453</ele>
        <time>2025-04-29T19:03:02.000Z</time>
        <extensions>
          <ns3:TrackPointExtension/>
        </extensions>
      </trkpt>
      <trkpt lat="50.1108629442751407623291015625" lon="5.5012289620935916900634765625">
        <ele>454.399993896484375</ele>
        <time>2025-04-29T19:03:09.000Z</time>
        <extensions>
          <ns3:TrackPointExtension/>
        </extensions>
      </trkpt>
      <trkpt lat="50.1108599267899990081787109375" lon="5.5016919784247875213623046875">
        <ele>456.600006103515625</ele>
        <time>2025-04-29T19:03:17.000Z</time>
        <extensions>
          <ns3:TrackPointExtension/>
        </extensions>
      </trkpt>
      <trkpt lat="50.11087694205343723297119140625" lon="5.50195491872727870941162109375">
        <ele>458.20001220703125</ele>
        <time>2025-04-29T19:03:25.000Z</time>
        <extensions>
          <ns3:TrackPointExtension/>
        </extensions>
      </trkpt>
      <trkpt lat="50.11090896092355251312255859375" lon="5.5022299289703369140625">
        <ele>459.399993896484375</ele>
        <time>2025-04-29T19:03:32.000Z</time>
        <extensions>
          <ns3:TrackPointExtension/>
        </extensions>
      </trkpt>
      <trkpt lat="50.11121992953121662139892578125" lon="5.5033609829843044281005859375">
        <ele>459.79998779296875</ele>
        <time>2025-04-29T19:03:40.000Z</time>
        <extensions>
          <ns3:TrackPointExtension/>
        </extensions>
      </trkpt>
      <trkpt lat="50.111296959221363067626953125" lon="5.50374797545373439788818359375">
        <ele>459.600006103515625</ele>
        <time>2025-04-29T19:03:47.000Z</time>
        <extensions>
          <ns3:TrackPointExtension/>
        </extensions>
      </trkpt>
      <trkpt lat="50.11144892312586307525634765625" lon="5.5049169994890689849853515625">
        <ele>458.600006103515625</ele>
        <time>2025-04-29T19:03:55.000Z</time>
        <extensions>
          <ns3:TrackPointExtension/>
        </extensions>
      </trkpt>
      <trkpt lat="50.11148295365273952484130859375" lon="5.5054219253361225128173828125">
        <ele>458</ele>
        <time>2025-04-29T19:04:02.000Z</time>
        <extensions>
          <ns3:TrackPointExtension/>
        </extensions>
      </trkpt>
      <trkpt lat="50.11147297918796539306640625" lon="5.505737923085689544677734375">
        <ele>457.600006103515625</ele>
        <time>2025-04-29T19:04:10.000Z</time>
        <extensions>
          <ns3:TrackPointExtension/>
        </extensions>
      </trkpt>
      <trkpt lat="50.11137298308312892913818359375" lon="5.50711096264421939849853515625">
        <ele>459.600006103515625</ele>
        <time>2025-04-29T19:04:17.000Z</time>
        <extensions>
          <ns3:TrackPointExtension/>
        </extensions>
      </trkpt>
      <trkpt lat="50.1113769225776195526123046875" lon="5.50730994902551174163818359375">
        <ele>459.600006103515625</ele>
        <time>2025-04-29T19:04:25.000Z</time>
        <extensions>
          <ns3:TrackPointExtension/>
        </extensions>
      </trkpt>
      <trkpt lat="50.111410953104496002197265625" lon="5.50745495595037937164306640625">
        <ele>459.20001220703125</ele>
        <time>2025-04-29T19:04:32.000Z</time>
        <extensions>
          <ns3:TrackPointExtension/>
        </extensions>
      </trkpt>
      <trkpt lat="50.11169292032718658447265625" lon="5.5081359855830669403076171875">
        <ele>458.79998779296875</ele>
        <time>2025-04-29T19:04:40.000Z</time>
        <extensions>
          <ns3:TrackPointExtension/>
        </extensions>
      </trkpt>
      <trkpt lat="50.11176492087543010711669921875" lon="5.50839892588555812835693359375">
        <ele>458.20001220703125</ele>
        <time>2025-04-29T19:04:47.000Z</time>
        <extensions>
          <ns3:TrackPointExtension/>
        </extensions>
      </trkpt>
      <trkpt lat="50.112047977745532989501953125" lon="5.51012098789215087890625">
        <ele>455</ele>
        <time>2025-04-29T19:04:55.000Z</time>
        <extensions>
          <ns3:TrackPointExtension/>
        </extensions>
      </trkpt>
      <trkpt lat="50.1120959222316741943359375" lon="5.51050194539129734039306640625">
        <ele>452.399993896484375</ele>
        <time>2025-04-29T19:05:02.000Z</time>
        <extensions>
          <ns3:TrackPointExtension/>
        </extensions>
      </trkpt>
      <trkpt lat="50.11211595498025417327880859375" lon="5.51086597144603729248046875">
        <ele>452</ele>
        <time>2025-04-29T19:05:10.000Z</time>
        <extensions>
          <ns3:TrackPointExtension/>
        </extensions>
      </trkpt>
      <trkpt lat="50.112159959971904754638671875" lon="5.5123829282820224761962890625">
        <ele>450.399993896484375</ele>
        <time>2025-04-29T19:05:17.000Z</time>
        <extensions>
          <ns3:TrackPointExtension/>
        </extensions>
      </trkpt>
      <trkpt lat="50.11220094747841358184814453125" lon="5.51248996518552303314208984375">
        <ele>450</ele>
        <time>2025-04-29T19:05:25.000Z</time>
        <extensions>
          <ns3:TrackPointExtension/>
        </extensions>
      </trkpt>
      <trkpt lat="50.11228292249143123626708984375" lon="5.5124959163367748260498046875">
        <ele>450</ele>
        <time>2025-04-29T19:05:29.000Z</time>
        <extensions>
          <ns3:TrackPointExtension/>
        </extensions>
      </trkpt>
      <trkpt lat="50.11291894130408763885498046875" lon="5.512069948017597198486328125">
        <ele>446.20001220703125</ele>
        <time>2025-04-29T19:05:33.000Z</time>
        <extensions>
          <ns3:TrackPointExtension/>
        </extensions>
      </trkpt>
      <trkpt lat="50.1132229529321193695068359375" lon="5.51182393915951251983642578125">
        <ele>443</ele>
        <time>2025-04-29T19:05:37.000Z</time>
        <extensions>
          <ns3:TrackPointExtension/>
        </extensions>
      </trkpt>
      <trkpt lat="50.11347399093210697174072265625" lon="5.5115789361298084259033203125">
        <ele>441.20001220703125</ele>
        <time>2025-04-29T19:05:41.000Z</time>
        <extensions>
          <ns3:TrackPointExtension/>
        </extensions>
      </trkpt>
      <trkpt lat="50.11422492563724517822265625" lon="5.51073295064270496368408203125">
        <ele>437.79998779296875</ele>
        <time>2025-04-29T19:05:45.000Z</time>
        <extensions>
          <ns3:TrackPointExtension/>
        </extensions>
      </trkpt>
      <trkpt lat="50.11510695330798625946044921875" lon="5.50994999706745147705078125">
        <ele>436.399993896484375</ele>
        <time>2025-04-29T19:05:49.000Z</time>
        <extensions>
          <ns3:TrackPointExtension/>
        </extensions>
      </trkpt>
      <trkpt lat="50.11534499935805797576904296875" lon="5.50967599265277385711669921875">
        <ele>436.399993896484375</ele>
        <time>2025-04-29T19:05:53.000Z</time>
        <extensions>
          <ns3:TrackPointExtension/>
        </extensions>
      </trkpt>
      <trkpt lat="50.1156999729573726654052734375" lon="5.50921297632157802581787109375">
        <ele>435.20001220703125</ele>
        <time>2025-04-29T19:05:57.000Z</time>
        <extensions>
          <ns3:TrackPointExtension/>
        </extensions>
      </trkpt>
      <trkpt lat="50.11588496156036853790283203125" lon="5.5089419893920421600341796875">
        <ele>434.600006103515625</ele>
        <time>2025-04-29T19:06:01.000Z</time>
        <extensions>
          <ns3:TrackPointExtension/>
        </extensions>
      </trkpt>
      <trkpt lat="50.1163579523563385009765625" lon="5.5080789886415004730224609375">
        <ele>432.79998779296875</ele>
        <time>2025-04-29T19:06:05.000Z</time>
        <extensions>
          <ns3:TrackPointExtension/>
        </extensions>
      </trkpt>
      <trkpt lat="50.11672399006783962249755859375" lon="5.50740499980747699737548828125">
        <ele>429.79998779296875</ele>
        <time>2025-04-29T19:06:09.000Z</time>
        <extensions>
          <ns3:TrackPointExtension/>
        </extensions>
      </trkpt>
      <trkpt lat="50.11686396785080432891845703125" lon="5.50722395069897174835205078125">
        <ele>429</ele>
        <time>2025-04-29T19:06:13.000Z</time>
        <extensions>
          <ns3:TrackPointExtension/>
        </extensions>
      </trkpt>
      <trkpt lat="50.11731592006981372833251953125" lon="5.50679295323789119720458984375">
        <ele>422.399993896484375</ele>
        <time>2025-04-29T19:06:17.000Z</time>
        <extensions>
          <ns3:TrackPointExtension/>
        </extensions>
      </trkpt>
      <trkpt lat="50.1181069202721118927001953125" lon="5.5062309466302394866943359375">
        <ele>410.20001220703125</ele>
        <time>2025-04-29T19:06:21.000Z</time>
        <extensions>
          <ns3:TrackPointExtension/>
        </extensions>
      </trkpt>
      <trkpt lat="50.11827698908746242523193359375" lon="5.5060279369354248046875">
        <ele>408.79998779296875</ele>
        <time>2025-04-29T19:06:25.000Z</time>
        <extensions>
          <ns3:TrackPointExtension/>
        </extensions>
      </trkpt>
      <trkpt lat="50.11864897795021533966064453125" lon="5.506150983273983001708984375">
        <ele>408</ele>
        <time>2025-04-29T19:06:30.000Z</time>
        <extensions>
          <ns3:TrackPointExtension/>
        </extensions>
      </trkpt>
      <trkpt lat="50.11864495463669300079345703125" lon="5.5064009316265583038330078125">
        <ele>408.399993896484375</ele>
        <time>2025-04-29T19:06:41.000Z</time>
        <extensions>
          <ns3:TrackPointExtension/>
        </extensions>
      </trkpt>
      <trkpt lat="50.1186849363148212432861328125" lon="5.50662397406995296478271484375">
        <ele>408.600006103515625</ele>
        <time>2025-04-29T19:06:52.000Z</time>
        <extensions>
          <ns3:TrackPointExtension/>
        </extensions>
      </trkpt>
      <trkpt lat="50.118778981268405914306640625" lon="5.50682798959314823150634765625">
        <ele>409.20001220703125</ele>
        <time>2025-04-29T19:07:02.000Z</time>
        <extensions>
          <ns3:TrackPointExtension/>
        </extensions>
      </trkpt>
      <trkpt lat="50.1216869987547397613525390625" lon="5.5106319487094879150390625">
        <ele>402.79998779296875</ele>
        <time>2025-04-29T19:07:13.000Z</time>
        <extensions>
          <ns3:TrackPointExtension/>
        </extensions>
      </trkpt>
      <trkpt lat="50.12201297096908092498779296875" lon="5.51096295006573200225830078125">
        <ele>404</ele>
        <time>2025-04-29T19:07:24.000Z</time>
        <extensions>
          <ns3:TrackPointExtension/>
        </extensions>
      </trkpt>
      <trkpt lat="50.122344978153705596923828125" lon="5.511318929493427276611328125">
        <ele>407.399993896484375</ele>
        <time>2025-04-29T19:07:28.000Z</time>
        <extensions>
          <ns3:TrackPointExtension/>
        </extensions>
      </trkpt>
      <trkpt lat="50.12267095036804676055908203125" lon="5.51170592196285724639892578125">
        <ele>409.20001220703125</ele>
        <time>2025-04-29T19:07:32.000Z</time>
        <extensions>
          <ns3:TrackPointExtension/>
        </extensions>
      </trkpt>
      <trkpt lat="50.122914947569370269775390625" lon="5.51202896051108837127685546875">
        <ele>407.600006103515625</ele>
        <time>2025-04-29T19:07:36.000Z</time>
        <extensions>
          <ns3:TrackPointExtension/>
        </extensions>
      </trkpt>
      <trkpt lat="50.12313296087086200714111328125" lon="5.512417964637279510498046875">
        <ele>406.20001220703125</ele>
        <time>2025-04-29T19:07:41.000Z</time>
        <extensions>
          <ns3:TrackPointExtension/>
        </extensions>
      </trkpt>
      <trkpt lat="50.1233129203319549560546875" lon="5.51281099207699298858642578125">
        <ele>406.399993896484375</ele>
        <time>2025-04-29T19:07:45.000Z</time>
        <extensions>
          <ns3:TrackPointExtension/>
        </extensions>
      </trkpt>
      <trkpt lat="50.1234579272568225860595703125" lon="5.51321399398148059844970703125">
        <ele>407.79998779296875</ele>
        <time>2025-04-29T19:07:49.000Z</time>
        <extensions>
          <ns3:TrackPointExtension/>
        </extensions>
      </trkpt>
      <trkpt lat="50.1236389763653278350830078125" lon="5.5138219334185123443603515625">
        <ele>408.399993896484375</ele>
        <time>2025-04-29T19:07:53.000Z</time>
        <extensions>
          <ns3:TrackPointExtension/>
        </extensions>
      </trkpt>
      <trkpt lat="50.1237509585916996002197265625" lon="5.51426298916339874267578125">
        <ele>407.79998779296875</ele>
        <time>2025-04-29T19:07:57.000Z</time>
        <extensions>
          <ns3:TrackPointExtension/>
        </extensions>
      </trkpt>
      <trkpt lat="50.1238439977169036865234375" lon="5.5147409252822399139404296875">
        <ele>407.399993896484375</ele>
        <time>2025-04-29T19:08:01.000Z</time>
        <extensions>
          <ns3:TrackPointExtension/>
        </extensions>
      </trkpt>
      <trkpt lat="50.12388892471790313720703125" lon="5.5151519738137722015380859375">
        <ele>407.20001220703125</ele>
        <time>2025-04-29T19:08:06.000Z</time>
        <extensions>
          <ns3:TrackPointExtension/>
        </extensions>
      </trkpt>
      <trkpt lat="50.12388498522341251373291015625" lon="5.5154939554631710052490234375">
        <ele>408</ele>
        <time>2025-04-29T19:08:10.000Z</time>
        <extensions>
          <ns3:TrackPointExtension/>
        </extensions>
      </trkpt>
      <trkpt lat="50.12385196052491664886474609375" lon="5.51580098457634449005126953125">
        <ele>410.20001220703125</ele>
        <time>2025-04-29T19:08:14.000Z</time>
        <extensions>
          <ns3:TrackPointExtension/>
        </extensions>
      </trkpt>
      <trkpt lat="50.123775936663150787353515625" lon="5.5160929262638092041015625">
        <ele>412</ele>
        <time>2025-04-29T19:08:18.000Z</time>
        <extensions>
          <ns3:TrackPointExtension/>
        </extensions>
      </trkpt>
      <trkpt lat="50.1234609447419643402099609375" lon="5.516848973929882049560546875">
        <ele>414.600006103515625</ele>
        <time>2025-04-29T19:08:22.000Z</time>
        <extensions>
          <ns3:TrackPointExtension/>
        </extensions>
      </trkpt>
      <trkpt lat="50.12295895256102085113525390625" lon="5.517882965505123138427734375">
        <ele>412.20001220703125</ele>
        <time>2025-04-29T19:08:26.000Z</time>
        <extensions>
          <ns3:TrackPointExtension/>
        </extensions>
      </trkpt>
      <trkpt lat="50.1229419372975826263427734375" lon="5.51823198795318603515625">
        <ele>410.399993896484375</ele>
        <time>2025-04-29T19:08:32.000Z</time>
        <extensions>
          <ns3:TrackPointExtension/>
        </extensions>
      </trkpt>
      <trkpt lat="50.12296699918806552886962890625" lon="5.5184799246490001678466796875">
        <ele>409.399993896484375</ele>
        <time>2025-04-29T19:08:37.000Z</time>
        <extensions>
          <ns3:TrackPointExtension/>
        </extensions>
      </trkpt>
      <trkpt lat="50.12305299751460552215576171875" lon="5.518739931285381317138671875">
        <ele>408.600006103515625</ele>
        <time>2025-04-29T19:08:42.000Z</time>
        <extensions>
          <ns3:TrackPointExtension/>
        </extensions>
      </trkpt>
      <trkpt lat="50.12319398112595081329345703125" lon="5.5190049670636653900146484375">
        <ele>407.20001220703125</ele>
        <time>2025-04-29T19:08:48.000Z</time>
        <extensions>
          <ns3:TrackPointExtension/>
        </extensions>
      </trkpt>
      <trkpt lat="50.12492693960666656494140625" lon="5.5218729190528392791748046875">
        <ele>392</ele>
        <time>2025-04-29T19:08:53.000Z</time>
        <extensions>
          <ns3:TrackPointExtension/>
        </extensions>
      </trkpt>
      <trkpt lat="50.125049985945224761962890625" lon="5.5220479331910610198974609375">
        <ele>391.399993896484375</ele>
        <time>2025-04-29T19:08:58.000Z</time>
        <extensions>
          <ns3:TrackPointExtension/>
        </extensions>
      </trkpt>
      <trkpt lat="50.12522399425506591796875" lon="5.5222239531576633453369140625">
        <ele>391</ele>
        <time>2025-04-29T19:09:03.000Z</time>
        <extensions>
          <ns3:TrackPointExtension/>
        </extensions>
      </trkpt>
      <trkpt lat="50.125507973134517669677734375" lon="5.52238899283111095428466796875">
        <ele>389.20001220703125</ele>
        <time>2025-04-29T19:09:09.000Z</time>
        <extensions>
          <ns3:TrackPointExtension/>
        </extensions>
      </trkpt>
      <trkpt lat="50.12603695504367351531982421875" lon="5.5226329900324344635009765625">
        <ele>387.20001220703125</ele>
        <time>2025-04-29T19:09:14.000Z</time>
        <extensions>
          <ns3:TrackPointExtension/>
        </extensions>
      </trkpt>
      <trkpt lat="50.1261679641902446746826171875" lon="5.52281093783676624298095703125">
        <ele>386.20001220703125</ele>
        <time>2025-04-29T19:09:19.000Z</time>
        <extensions>
          <ns3:TrackPointExtension/>
        </extensions>
      </trkpt>
      <trkpt lat="50.1266259513795375823974609375" lon="5.52300699055194854736328125">
        <ele>384.79998779296875</ele>
        <time>2025-04-29T19:09:25.000Z</time>
        <extensions>
          <ns3:TrackPointExtension/>
        </extensions>
      </trkpt>
      <trkpt lat="50.12693398632109165191650390625" lon="5.523170940577983856201171875">
        <ele>381.399993896484375</ele>
        <time>2025-04-29T19:09:30.000Z</time>
        <extensions>
          <ns3:TrackPointExtension/>
        </extensions>
      </trkpt>
      <trkpt lat="50.127915926277637481689453125" lon="5.52390796132385730743408203125">
        <ele>378.600006103515625</ele>
        <time>2025-04-29T19:09:38.000Z</time>
        <extensions>
          <ns3:TrackPointExtension/>
        </extensions>
      </trkpt>
      <trkpt lat="50.1285209320485591888427734375" lon="5.52439796738326549530029296875">
        <ele>379</ele>
        <time>2025-04-29T19:09:46.000Z</time>
        <extensions>
          <ns3:TrackPointExtension/>
        </extensions>
      </trkpt>
      <trkpt lat="50.128721930086612701416015625" lon="5.52465696819126605987548828125">
        <ele>378.20001220703125</ele>
        <time>2025-04-29T19:09:55.000Z</time>
        <extensions>
          <ns3:TrackPointExtension/>
        </extensions>
      </trkpt>
      <trkpt lat="50.12936892919242382049560546875" lon="5.5258539877831935882568359375">
        <ele>376</ele>
        <time>2025-04-29T19:10:03.000Z</time>
        <extensions>
          <ns3:TrackPointExtension/>
        </extensions>
      </trkpt>
      <trkpt lat="50.129708983004093170166015625" lon="5.52652093581855297088623046875">
        <ele>375.79998779296875</ele>
        <time>2025-04-29T19:10:11.000Z</time>
        <extensions>
          <ns3:TrackPointExtension/>
        </extensions>
      </trkpt>
      <trkpt lat="50.12985994108021259307861328125" lon="5.5268909968435764312744140625">
        <ele>374.600006103515625</ele>
        <time>2025-04-29T19:10:18.000Z</time>
        <extensions>
          <ns3:TrackPointExtension/>
        </extensions>
      </trkpt>
      <trkpt lat="50.13010896742343902587890625" lon="5.5275779776275157928466796875">
        <ele>373</ele>
        <time>2025-04-29T19:10:25.000Z</time>
        <extensions>
          <ns3:TrackPointExtension/>
        </extensions>
      </trkpt>
      <trkpt lat="50.130394957959651947021484375" lon="5.5282579176127910614013671875">
        <ele>373.20001220703125</ele>
        <time>2025-04-29T19:10:33.000Z</time>
        <extensions>
          <ns3:TrackPointExtension/>
        </extensions>
      </trkpt>
      <trkpt lat="50.1311739720404148101806640625" lon="5.52953791804611682891845703125">
        <ele>367</ele>
        <time>2025-04-29T19:10:40.000Z</time>
        <extensions>
          <ns3:TrackPointExtension/>
        </extensions>
      </trkpt>
      <trkpt lat="50.131605975329875946044921875" lon="5.5302839912474155426025390625">
        <ele>369.79998779296875</ele>
        <time>2025-04-29T19:10:47.000Z</time>
        <extensions>
          <ns3:TrackPointExtension/>
        </extensions>
      </trkpt>
      <trkpt lat="50.131717957556247711181640625" lon="5.53083694539964199066162109375">
        <ele>372.399993896484375</ele>
        <time>2025-04-29T19:10:55.000Z</time>
        <extensions>
          <ns3:TrackPointExtension/>
        </extensions>
      </trkpt>
      <trkpt lat="50.13178291730582714080810546875" lon="5.53109091706573963165283203125">
        <ele>372.399993896484375</ele>
        <time>2025-04-29T19:11:04.000Z</time>
        <extensions>
          <ns3:TrackPointExtension/>
        </extensions>
      </trkpt>
      <trkpt lat="50.13185198418796062469482421875" lon="5.531283952295780181884765625">
        <ele>371.399993896484375</ele>
        <time>2025-04-29T19:11:12.000Z</time>
        <extensions>
          <ns3:TrackPointExtension/>
        </extensions>
      </trkpt>
      <trkpt lat="50.1320959813892841339111328125" lon="5.5317749641835689544677734375">
        <ele>369.20001220703125</ele>
        <time>2025-04-29T19:11:21.000Z</time>
        <extensions>
          <ns3:TrackPointExtension/>
        </extensions>
      </trkpt>
      <trkpt lat="50.1323739252984523773193359375" lon="5.53227896802127361297607421875">
        <ele>368.600006103515625</ele>
        <time>2025-04-29T19:11:30.000Z</time>
        <extensions>
          <ns3:TrackPointExtension/>
        </extensions>
      </trkpt>
      <trkpt lat="50.1326069422066211700439453125" lon="5.53284591995179653167724609375">
        <ele>370</ele>
        <time>2025-04-29T19:11:38.000Z</time>
        <extensions>
          <ns3:TrackPointExtension/>
        </extensions>
      </trkpt>
      <trkpt lat="50.13365493156015872955322265625" lon="5.536060966551303863525390625">
        <ele>367.79998779296875</ele>
        <time>2025-04-29T19:11:47.000Z</time>
        <extensions>
          <ns3:TrackPointExtension/>
        </extensions>
      </trkpt>
      <trkpt lat="50.133899934589862823486328125" lon="5.53690091706812381744384765625">
        <ele>373</ele>
        <time>2025-04-29T19:11:55.000Z</time>
        <extensions>
          <ns3:TrackPointExtension/>
        </extensions>
      </trkpt>
      <trkpt lat="50.13444098643958568572998046875" lon="5.53944298066198825836181640625">
        <ele>365.399993896484375</ele>
        <time>2025-04-29T19:12:04.000Z</time>
        <extensions>
          <ns3:TrackPointExtension/>
        </extensions>
      </trkpt>
      <trkpt lat="50.1347349397838115692138671875" lon="5.54070697166025638580322265625">
        <ele>357.600006103515625</ele>
        <time>2025-04-29T19:12:12.000Z</time>
        <extensions>
          <ns3:TrackPointExtension/>
        </extensions>
      </trkpt>
      <trkpt lat="50.13440092094242572784423828125" lon="5.54113193415105342864990234375">
        <ele>359.20001220703125</ele>
        <time>2025-04-29T19:12:15.000Z</time>
        <extensions>
          <ns3:TrackPointExtension/>
        </extensions>
      </trkpt>
      <trkpt lat="50.13445892371237277984619140625" lon="5.54139294661581516265869140625">
        <ele>357.79998779296875</ele>
        <time>2025-04-29T19:12:18.000Z</time>
        <extensions>
          <ns3:TrackPointExtension/>
        </extensions>
      </trkpt>
      <trkpt lat="50.1345379650592803955078125" lon="5.54162194021046161651611328125">
        <ele>359.79998779296875</ele>
        <time>2025-04-29T19:12:22.000Z</time>
        <extensions>
          <ns3:TrackPointExtension/>
        </extensions>
      </trkpt>
      <trkpt lat="50.1346279866993427276611328125" lon="5.54171095602214336395263671875">
        <ele>360.600006103515625</ele>
        <time>2025-04-29T19:12:26.000Z</time>
        <extensions>
          <ns3:TrackPointExtension/>
        </extensions>
      </trkpt>
      <trkpt lat="50.13478598557412624359130859375" lon="5.54173794575035572052001953125">
        <ele>360</ele>
        <time>2025-04-29T19:12:29.000Z</time>
        <extensions>
          <ns3:TrackPointExtension/>
        </extensions>
      </trkpt>
      <trkpt lat="50.1350849680602550506591796875" lon="5.5416629277169704437255859375">
        <ele>356.20001220703125</ele>
        <time>2025-04-29T19:12:33.000Z</time>
        <extensions>
          <ns3:TrackPointExtension/>
        </extensions>
      </trkpt>
      <trkpt lat="50.13518496416509151458740234375" lon="5.54165697656571865081787109375">
        <ele>356</ele>
        <time>2025-04-29T19:12:36.000Z</time>
        <extensions>
          <ns3:TrackPointExtension/>
        </extensions>
      </trkpt>
      <trkpt lat="50.13530197553336620330810546875" lon="5.5417219363152980804443359375">
        <ele>357</ele>
        <time>2025-04-29T19:12:40.000Z</time>
        <extensions>
          <ns3:TrackPointExtension/>
        </extensions>
      </trkpt>
      <trkpt lat="50.13543591834604740142822265625" lon="5.5418349243700504302978515625">
        <ele>358.399993896484375</ele>
        <time>2025-04-29T19:12:43.000Z</time>
        <extensions>
          <ns3:TrackPointExtension/>
        </extensions>
      </trkpt>
      <trkpt lat="50.13557991944253444671630859375" lon="5.54202795960009098052978515625">
        <ele>360.20001220703125</ele>
        <time>2025-04-29T19:12:47.000Z</time>
        <extensions>
          <ns3:TrackPointExtension/>
        </extensions>
      </trkpt>
      <trkpt lat="50.13566893525421619415283203125" lon="5.54228394292294979095458984375">
        <ele>361.600006103515625</ele>
        <time>2025-04-29T19:12:51.000Z</time>
        <extensions>
          <ns3:TrackPointExtension/>
        </extensions>
      </trkpt>
      <trkpt lat="50.13575493358075618743896484375" lon="5.54271192289888858795166015625">
        <ele>361.600006103515625</ele>
        <time>2025-04-29T19:12:54.000Z</time>
        <extensions>
          <ns3:TrackPointExtension/>
        </extensions>
      </trkpt>
      <trkpt lat="50.13579298742115497589111328125" lon="5.54306496866047382354736328125">
        <ele>360.79998779296875</ele>
        <time>2025-04-29T19:12:58.000Z</time>
        <extensions>
          <ns3:TrackPointExtension/>
        </extensions>
      </trkpt>
      <trkpt lat="50.135802961885929107666015625" lon="5.5433929525315761566162109375">
        <ele>359.399993896484375</ele>
        <time>2025-04-29T19:13:01.000Z</time>
        <extensions>
          <ns3:TrackPointExtension/>
        </extensions>
      </trkpt>
      <trkpt lat="50.13576197437942028045654296875" lon="5.54473497904837131500244140625">
        <ele>354</ele>
        <time>2025-04-29T19:13:05.000Z</time>
        <extensions>
          <ns3:TrackPointExtension/>
        </extensions>
      </trkpt>
      <trkpt lat="50.13576398603618144989013671875" lon="5.54507796652615070343017578125">
        <ele>354.600006103515625</ele>
        <time>2025-04-29T19:13:08.000Z</time>
        <extensions>
          <ns3:TrackPointExtension/>
        </extensions>
      </trkpt>
      <trkpt lat="50.135806985199451446533203125" lon="5.54539798758924007415771484375">
        <ele>353.600006103515625</ele>
        <time>2025-04-29T19:13:12.000Z</time>
        <extensions>
          <ns3:TrackPointExtension/>
        </extensions>
      </trkpt>
      <trkpt lat="50.1358839310705661773681640625" lon="5.5457479320466518402099609375">
        <ele>353.399993896484375</ele>
        <time>2025-04-29T19:13:16.000Z</time>
        <extensions>
          <ns3:TrackPointExtension/>
        </extensions>
      </trkpt>
      <trkpt lat="50.136093981564044952392578125" lon="5.54648696444928646087646484375">
        <ele>350.600006103515625</ele>
        <time>2025-04-29T19:13:19.000Z</time>
        <extensions>
          <ns3:TrackPointExtension/>
        </extensions>
      </trkpt>
      <trkpt lat="50.1361719332635402679443359375" lon="5.546705983579158782958984375">
        <ele>347.79998779296875</ele>
        <time>2025-04-29T19:13:23.000Z</time>
        <extensions>
          <ns3:TrackPointExtension/>
        </extensions>
      </trkpt>
      <trkpt lat="50.13633898459374904632568359375" lon="5.5471019446849822998046875">
        <ele>344.20001220703125</ele>
        <time>2025-04-29T19:13:27.000Z</time>
        <extensions>
          <ns3:TrackPointExtension/>
        </extensions>
      </trkpt>
      <trkpt lat="50.1366319321095943450927734375" lon="5.54766093380749225616455078125">
        <ele>344.20001220703125</ele>
        <time>2025-04-29T19:13:32.000Z</time>
        <extensions>
          <ns3:TrackPointExtension/>
        </extensions>
      </trkpt>
      <trkpt lat="50.13716292567551136016845703125" lon="5.54849795065820217132568359375">
        <ele>343.20001220703125</ele>
        <time>2025-04-29T19:13:36.000Z</time>
        <extensions>
          <ns3:TrackPointExtension/>
        </extensions>
      </trkpt>
      <trkpt lat="50.1373209245502948760986328125" lon="5.54884596727788448333740234375">
        <ele>343.20001220703125</ele>
        <time>2025-04-29T19:13:40.000Z</time>
        <extensions>
          <ns3:TrackPointExtension/>
        </extensions>
      </trkpt>
      <trkpt lat="50.13774094171822071075439453125" lon="5.54950394667685031890869140625">
        <ele>347</ele>
        <time>2025-04-29T19:13:45.000Z</time>
        <extensions>
          <ns3:TrackPointExtension/>
        </extensions>
      </trkpt>
      <trkpt lat="50.13780497945845127105712890625" lon="5.54965297691524028778076171875">
        <ele>347.399993896484375</ele>
        <time>2025-04-29T19:13:49.000Z</time>
        <extensions>
          <ns3:TrackPointExtension/>
        </extensions>
      </trkpt>
      <trkpt lat="50.13796792365610599517822265625" lon="5.55015094578266143798828125">
        <ele>347.399993896484375</ele>
        <time>2025-04-29T19:13:53.000Z</time>
        <extensions>
          <ns3:TrackPointExtension/>
        </extensions>
      </trkpt>
      <trkpt lat="50.1381319575011730194091796875" lon="5.55055998265743255615234375">
        <ele>347.79998779296875</ele>
        <time>2025-04-29T19:13:58.000Z</time>
        <extensions>
          <ns3:TrackPointExtension/>
        </extensions>
      </trkpt>
      <trkpt lat="50.13825693167746067047119140625" lon="5.55077992379665374755859375">
        <ele>348.20001220703125</ele>
        <time>2025-04-29T19:14:02.000Z</time>
        <extensions>
          <ns3:TrackPointExtension/>
        </extensions>
      </trkpt>
      <trkpt lat="50.138618946075439453125" lon="5.5512129329144954681396484375">
        <ele>351.399993896484375</ele>
        <time>2025-04-29T19:14:07.000Z</time>
        <extensions>
          <ns3:TrackPointExtension/>
        </extensions>
      </trkpt>
      <trkpt lat="50.13878499157726764678955078125" lon="5.55137797258794307708740234375">
        <ele>353.20001220703125</ele>
        <time>2025-04-29T19:14:11.000Z</time>
        <extensions>
          <ns3:TrackPointExtension/>
        </extensions>
      </trkpt>
      <trkpt lat="50.1390009932219982147216796875" lon="5.5515289306640625">
        <ele>351.600006103515625</ele>
        <time>2025-04-29T19:14:15.000Z</time>
        <extensions>
          <ns3:TrackPointExtension/>
        </extensions>
      </trkpt>
      <trkpt lat="50.13940994627773761749267578125" lon="5.55169397033751010894775390625">
        <ele>351.20001220703125</ele>
        <time>2025-04-29T19:14:20.000Z</time>
        <extensions>
          <ns3:TrackPointExtension/>
        </extensions>
      </trkpt>
      <trkpt lat="50.1396879740059375762939453125" lon="5.55168592371046543121337890625">
        <ele>351.79998779296875</ele>
        <time>2025-04-29T19:14:24.000Z</time>
        <extensions>
          <ns3:TrackPointExtension/>
        </extensions>
      </trkpt>
      <trkpt lat="50.13983692042529582977294921875" lon="5.55163999088108539581298828125">
        <ele>351.79998779296875</ele>
        <time>2025-04-29T19:14:28.000Z</time>
        <extensions>
          <ns3:TrackPointExtension/>
        </extensions>
      </trkpt>
      <trkpt lat="50.14002199284732341766357421875" lon="5.55151895619928836822509765625">
        <ele>354.79998779296875</ele>
        <time>2025-04-29T19:14:33.000Z</time>
        <extensions>
          <ns3:TrackPointExtension/>
        </extensions>
      </trkpt>
      <trkpt lat="50.14018795453011989593505859375" lon="5.55136892013251781463623046875">
        <ele>356.20001220703125</ele>
        <time>2025-04-29T19:14:37.000Z</time>
        <extensions>
          <ns3:TrackPointExtension/>
        </extensions>
      </trkpt>
      <trkpt lat="50.14061492867767810821533203125" lon="5.55088796652853488922119140625">
        <ele>354</ele>
        <time>2025-04-29T19:14:42.000Z</time>
        <extensions>
          <ns3:TrackPointExtension/>
        </extensions>
      </trkpt>
      <trkpt lat="50.1409189403057098388671875" lon="5.55059594102203845977783203125">
        <ele>352</ele>
        <time>2025-04-29T19:14:46.000Z</time>
        <extensions>
          <ns3:TrackPointExtension/>
        </extensions>
      </trkpt>
      <trkpt lat="50.1412429846823215484619140625" lon="5.5503579787909984588623046875">
        <ele>353</ele>
        <time>2025-04-29T19:14:50.000Z</time>
        <extensions>
          <ns3:TrackPointExtension/>
        </extensions>
      </trkpt>
      <trkpt lat="50.14142596162855625152587890625" lon="5.55025395937263965606689453125">
        <ele>354.79998779296875</ele>
        <time>2025-04-29T19:14:55.000Z</time>
        <extensions>
          <ns3:TrackPointExtension/>
        </extensions>
      </trkpt>
      <trkpt lat="50.14174598269164562225341796875" lon="5.550216995179653167724609375">
        <ele>357.399993896484375</ele>
        <time>2025-04-29T19:14:59.000Z</time>
        <extensions>
          <ns3:TrackPointExtension/>
        </extensions>
      </trkpt>
      <trkpt lat="50.14207991771399974822998046875" lon="5.55030592717230319976806640625">
        <ele>358.20001220703125</ele>
        <time>2025-04-29T19:15:03.000Z</time>
        <extensions>
          <ns3:TrackPointExtension/>
        </extensions>
      </trkpt>
      <trkpt lat="50.14224596321582794189453125" lon="5.55039494298398494720458984375">
        <ele>357.600006103515625</ele>
        <time>2025-04-29T19:15:08.000Z</time>
        <extensions>
          <ns3:TrackPointExtension/>
        </extensions>
      </trkpt>
      <trkpt lat="50.143168978393077850341796875" lon="5.55116993375122547149658203125">
        <ele>351.600006103515625</ele>
        <time>2025-04-29T19:15:12.000Z</time>
        <extensions>
          <ns3:TrackPointExtension/>
        </extensions>
      </trkpt>
      <trkpt lat="50.14331993646919727325439453125" lon="5.55125693790614604949951171875">
        <ele>351.79998779296875</ele>
        <time>2025-04-29T19:15:17.000Z</time>
        <extensions>
          <ns3:TrackPointExtension/>
        </extensions>
      </trkpt>
      <trkpt lat="50.14351791702210903167724609375" lon="5.551305972039699554443359375">
        <ele>352.600006103515625</ele>
        <time>2025-04-29T19:15:21.000Z</time>
        <extensions>
          <ns3:TrackPointExtension/>
        </extensions>
      </trkpt>
      <trkpt lat="50.14398596249520778656005859375" lon="5.55134897120296955108642578125">
        <ele>347.399993896484375</ele>
        <time>2025-04-29T19:15:25.000Z</time>
        <extensions>
          <ns3:TrackPointExtension/>
        </extensions>
      </trkpt>
      <trkpt lat="50.144198946654796600341796875" lon="5.5513279326260089874267578125">
        <ele>344.79998779296875</ele>
        <time>2025-04-29T19:15:30.000Z</time>
        <extensions>
          <ns3:TrackPointExtension/>
        </extensions>
      </trkpt>
      <trkpt lat="50.14529295265674591064453125" lon="5.5509929917752742767333984375">
        <ele>341.20001220703125</ele>
        <time>2025-04-29T19:15:34.000Z</time>
        <extensions>
          <ns3:TrackPointExtension/>
        </extensions>
      </trkpt>
      <trkpt lat="50.14636994339525699615478515625" lon="5.5508149601519107818603515625">
        <ele>337.79998779296875</ele>
        <time>2025-04-29T19:15:38.000Z</time>
        <extensions>
          <ns3:TrackPointExtension/>
        </extensions>
      </trkpt>
      <trkpt lat="50.14662793837487697601318359375" lon="5.55079995654523372650146484375">
        <ele>336.79998779296875</ele>
        <time>2025-04-29T19:15:43.000Z</time>
        <extensions>
          <ns3:TrackPointExtension/>
        </extensions>
      </trkpt>
      <trkpt lat="50.146850980818271636962890625" lon="5.55083499290049076080322265625">
        <ele>337.20001220703125</ele>
        <time>2025-04-29T19:15:47.000Z</time>
        <extensions>
          <ns3:TrackPointExtension/>
        </extensions>
      </trkpt>
      <trkpt lat="50.14798396266996860504150390625" lon="5.55117395706474781036376953125">
        <ele>333.79998779296875</ele>
        <time>2025-04-29T19:15:52.000Z</time>
        <extensions>
          <ns3:TrackPointExtension/>
        </extensions>
      </trkpt>
      <trkpt lat="50.14822192490100860595703125" lon="5.5511629767715930938720703125">
        <ele>331.399993896484375</ele>
        <time>2025-04-29T19:15:56.000Z</time>
        <extensions>
          <ns3:TrackPointExtension/>
        </extensions>
      </trkpt>
      <trkpt lat="50.14841596595942974090576171875" lon="5.55112592875957489013671875">
        <ele>327.79998779296875</ele>
        <time>2025-04-29T19:16:00.000Z</time>
        <extensions>
          <ns3:TrackPointExtension/>
        </extensions>
      </trkpt>
      <trkpt lat="50.1486579515039920806884765625" lon="5.5510409362614154815673828125">
        <ele>325.79998779296875</ele>
        <time>2025-04-29T19:16:05.000Z</time>
        <extensions>
          <ns3:TrackPointExtension/>
        </extensions>
      </trkpt>
      <trkpt lat="50.149146951735019683837890625" lon="5.5508149601519107818603515625">
        <ele>324</ele>
        <time>2025-04-29T19:16:09.000Z</time>
        <extensions>
          <ns3:TrackPointExtension/>
        </extensions>
      </trkpt>
      <trkpt lat="50.149429924786090850830078125" lon="5.5506469868123531341552734375">
        <ele>324</ele>
        <time>2025-04-29T19:16:13.000Z</time>
        <extensions>
          <ns3:TrackPointExtension/>
        </extensions>
      </trkpt>
      <trkpt lat="50.15000198967754840850830078125" lon="5.5501769296824932098388671875">
        <ele>320.20001220703125</ele>
        <time>2025-04-29T19:16:18.000Z</time>
        <extensions>
          <ns3:TrackPointExtension/>
        </extensions>
      </trkpt>
      <trkpt lat="50.1501309871673583984375" lon="5.55004893802106380462646484375">
        <ele>318.600006103515625</ele>
        <time>2025-04-29T19:16:22.000Z</time>
        <extensions>
          <ns3:TrackPointExtension/>
        </extensions>
      </trkpt>
      <trkpt lat="50.15028093941509723663330078125" lon="5.54977199994027614593505859375">
        <ele>317.79998779296875</ele>
        <time>2025-04-29T19:16:27.000Z</time>
        <extensions>
          <ns3:TrackPointExtension/>
        </extensions>
      </trkpt>
      <trkpt lat="50.1504999585449695587158203125" lon="5.549231953918933868408203125">
        <ele>311.79998779296875</ele>
        <time>2025-04-29T19:16:31.000Z</time>
        <extensions>
          <ns3:TrackPointExtension/>
        </extensions>
      </trkpt>
      <trkpt lat="50.15081696212291717529296875" lon="5.54855092428624629974365234375">
        <ele>305</ele>
        <time>2025-04-29T19:16:35.000Z</time>
        <extensions>
          <ns3:TrackPointExtension/>
        </extensions>
      </trkpt>
      <trkpt lat="50.1509649865329265594482421875" lon="5.5483419634401798248291015625">
        <ele>302.79998779296875</ele>
        <time>2025-04-29T19:16:40.000Z</time>
        <extensions>
          <ns3:TrackPointExtension/>
        </extensions>
      </trkpt>
      <trkpt lat="50.1510749571025371551513671875" lon="5.5482259579002857208251953125">
        <ele>303.79998779296875</ele>
        <time>2025-04-29T19:16:44.000Z</time>
        <extensions>
          <ns3:TrackPointExtension/>
        </extensions>
      </trkpt>
      <trkpt lat="50.15123496763408184051513671875" lon="5.54809796623885631561279296875">
        <ele>306.399993896484375</ele>
        <time>2025-04-29T19:16:48.000Z</time>
        <extensions>
          <ns3:TrackPointExtension/>
        </extensions>
      </trkpt>
      <trkpt lat="50.15137494541704654693603515625" lon="5.548081956803798675537109375">
        <ele>307.79998779296875</ele>
        <time>2025-04-29T19:16:53.000Z</time>
        <extensions>
          <ns3:TrackPointExtension/>
        </extensions>
      </trkpt>
      <trkpt lat="50.1515339501202106475830078125" lon="5.54812294431030750274658203125">
        <ele>309.20001220703125</ele>
        <time>2025-04-29T19:16:57.000Z</time>
        <extensions>
          <ns3:TrackPointExtension/>
        </extensions>
      </trkpt>
      <trkpt lat="50.1516719162464141845703125" lon="5.548191927373409271240234375">
        <ele>309</ele>
        <time>2025-04-29T19:17:02.000Z</time>
        <extensions>
          <ns3:TrackPointExtension/>
        </extensions>
      </trkpt>
      <trkpt lat="50.1518869958817958831787109375" lon="5.5483349226415157318115234375">
        <ele>308.20001220703125</ele>
        <time>2025-04-29T19:17:06.000Z</time>
        <extensions>
          <ns3:TrackPointExtension/>
        </extensions>
      </trkpt>
      <trkpt lat="50.152537934482097625732421875" lon="5.548832975327968597412109375">
        <ele>309.20001220703125</ele>
        <time>2025-04-29T19:17:10.000Z</time>
        <extensions>
          <ns3:TrackPointExtension/>
        </extensions>
      </trkpt>
      <trkpt lat="50.1533739455044269561767578125" lon="5.54941895417869091033935546875">
        <ele>314.600006103515625</ele>
        <time>2025-04-29T19:17:15.000Z</time>
        <extensions>
          <ns3:TrackPointExtension/>
        </extensions>
      </trkpt>
      <trkpt lat="50.15393192879855632781982421875" lon="5.5496639572083950042724609375">
        <ele>311.79998779296875</ele>
        <time>2025-04-29T19:17:19.000Z</time>
        <extensions>
          <ns3:TrackPointExtension/>
        </extensions>
      </trkpt>
      <trkpt lat="50.154325962066650390625" lon="5.54976998828351497650146484375">
        <ele>305</ele>
        <time>2025-04-29T19:17:23.000Z</time>
        <extensions>
          <ns3:TrackPointExtension/>
        </extensions>
      </trkpt>
      <trkpt lat="50.1544649340212345123291015625" lon="5.54976093582808971405029296875">
        <ele>304.20001220703125</ele>
        <time>2025-04-29T19:17:28.000Z</time>
        <extensions>
          <ns3:TrackPointExtension/>
        </extensions>
      </trkpt>
      <trkpt lat="50.15462393872439861297607421875" lon="5.54971097968518733978271484375">
        <ele>303.399993896484375</ele>
        <time>2025-04-29T19:17:32.000Z</time>
        <extensions>
          <ns3:TrackPointExtension/>
        </extensions>
      </trkpt>
      <trkpt lat="50.15476391650736331939697265625" lon="5.5496049486100673675537109375">
        <ele>305.399993896484375</ele>
        <time>2025-04-29T19:17:37.000Z</time>
        <extensions>
          <ns3:TrackPointExtension/>
        </extensions>
      </trkpt>
      <trkpt lat="50.15491596423089504241943359375" lon="5.5493809841573238372802734375">
        <ele>305.20001220703125</ele>
        <time>2025-04-29T19:17:41.000Z</time>
        <extensions>
          <ns3:TrackPointExtension/>
        </extensions>
      </trkpt>
      <trkpt lat="50.15519692562520503997802734375" lon="5.54877899587154388427734375">
        <ele>305.20001220703125</ele>
        <time>2025-04-29T19:17:45.000Z</time>
        <extensions>
          <ns3:TrackPointExtension/>
        </extensions>
      </trkpt>
      <trkpt lat="50.15534997917711734771728515625" lon="5.548486970365047454833984375">
        <ele>305</ele>
        <time>2025-04-29T19:17:50.000Z</time>
        <extensions>
          <ns3:TrackPointExtension/>
        </extensions>
      </trkpt>
      <trkpt lat="50.15557696111500263214111328125" lon="5.54815999232232570648193359375">
        <ele>302.79998779296875</ele>
        <time>2025-04-29T19:17:54.000Z</time>
        <extensions>
          <ns3:TrackPointExtension/>
        </extensions>
      </trkpt>
      <trkpt lat="50.155708976089954376220703125" lon="5.5480539612472057342529296875">
        <ele>299.399993896484375</ele>
        <time>2025-04-29T19:17:58.000Z</time>
        <extensions>
          <ns3:TrackPointExtension/>
        </extensions>
      </trkpt>
      <trkpt lat="50.15583093278110027313232421875" lon="5.5480219423770904541015625">
        <ele>297.20001220703125</ele>
        <time>2025-04-29T19:18:03.000Z</time>
        <extensions>
          <ns3:TrackPointExtension/>
        </extensions>
      </trkpt>
      <trkpt lat="50.15627098269760608673095703125" lon="5.54807097651064395904541015625">
        <ele>294</ele>
        <time>2025-04-29T19:18:07.000Z</time>
        <extensions>
          <ns3:TrackPointExtension/>
        </extensions>
      </trkpt>
      <trkpt lat="50.156508944928646087646484375" lon="5.54812294431030750274658203125">
        <ele>294.399993896484375</ele>
        <time>2025-04-29T19:18:12.000Z</time>
        <extensions>
          <ns3:TrackPointExtension/>
        </extensions>
      </trkpt>
      <trkpt lat="50.1582619361579418182373046875" lon="5.548362918198108673095703125">
        <ele>294.79998779296875</ele>
        <time>2025-04-29T19:18:16.000Z</time>
        <extensions>
          <ns3:TrackPointExtension/>
        </extensions>
      </trkpt>
      <trkpt lat="50.15847894363105297088623046875" lon="5.54844497703015804290771484375">
        <ele>293.79998779296875</ele>
        <time>2025-04-29T19:18:20.000Z</time>
        <extensions>
          <ns3:TrackPointExtension/>
        </extensions>
      </trkpt>
      <trkpt lat="50.15871296636760234832763671875" lon="5.5485679395496845245361328125">
        <ele>291</ele>
        <time>2025-04-29T19:18:25.000Z</time>
        <extensions>
          <ns3:TrackPointExtension/>
        </extensions>
      </trkpt>
      <trkpt lat="50.1589049957692623138427734375" lon="5.54876097477972507476806640625">
        <ele>288.79998779296875</ele>
        <time>2025-04-29T19:18:29.000Z</time>
        <extensions>
          <ns3:TrackPointExtension/>
        </extensions>
      </trkpt>
      <trkpt lat="50.15908998437225818634033203125" lon="5.54900698363780975341796875">
        <ele>286.79998779296875</ele>
        <time>2025-04-29T19:18:33.000Z</time>
        <extensions>
          <ns3:TrackPointExtension/>
        </extensions>
      </trkpt>
      <trkpt lat="50.1592459715902805328369140625" lon="5.54932792671024799346923828125">
        <ele>287.20001220703125</ele>
        <time>2025-04-29T19:18:38.000Z</time>
        <extensions>
          <ns3:TrackPointExtension/>
        </extensions>
      </trkpt>
      <trkpt lat="50.1593519188463687896728515625" lon="5.5496129952371120452880859375">
        <ele>286.399993896484375</ele>
        <time>2025-04-29T19:18:42.000Z</time>
        <extensions>
          <ns3:TrackPointExtension/>
        </extensions>
      </trkpt>
      <trkpt lat="50.159451998770236968994140625" lon="5.54997098632156848907470703125">
        <ele>285.20001220703125</ele>
        <time>2025-04-29T19:18:47.000Z</time>
        <extensions>
          <ns3:TrackPointExtension/>
        </extensions>
      </trkpt>
      <trkpt lat="50.15949499793350696563720703125" lon="5.55039091967046260833740234375">
        <ele>285</ele>
        <time>2025-04-29T19:18:51.000Z</time>
        <extensions>
          <ns3:TrackPointExtension/>
        </extensions>
      </trkpt>
      <trkpt lat="50.15946599654853343963623046875" lon="5.550668947398662567138671875">
        <ele>286.600006103515625</ele>
        <time>2025-04-29T19:18:55.000Z</time>
        <extensions>
          <ns3:TrackPointExtension/>
        </extensions>
      </trkpt>
      <trkpt lat="50.15937195159494876861572265625" lon="5.55122592486441135406494140625">
        <ele>291.399993896484375</ele>
        <time>2025-04-29T19:19:00.000Z</time>
        <extensions>
          <ns3:TrackPointExtension/>
        </extensions>
      </trkpt>
      <trkpt lat="50.1590709574520587921142578125" lon="5.55272192694246768951416015625">
        <ele>298.399993896484375</ele>
        <time>2025-04-29T19:19:04.000Z</time>
        <extensions>
          <ns3:TrackPointExtension/>
        </extensions>
      </trkpt>
      <trkpt lat="50.159044973552227020263671875" lon="5.55298293940722942352294921875">
        <ele>300.20001220703125</ele>
        <time>2025-04-29T19:19:08.000Z</time>
        <extensions>
          <ns3:TrackPointExtension/>
        </extensions>
      </trkpt>
      <trkpt lat="50.15902393497526645660400390625" lon="5.5539219640195369720458984375">
        <ele>301</ele>
        <time>2025-04-29T19:19:13.000Z</time>
        <extensions>
          <ns3:TrackPointExtension/>
        </extensions>
      </trkpt>
      <trkpt lat="50.1590359210968017578125" lon="5.55516793392598628997802734375">
        <ele>296.79998779296875</ele>
        <time>2025-04-29T19:19:17.000Z</time>
        <extensions>
          <ns3:TrackPointExtension/>
        </extensions>
      </trkpt>
      <trkpt lat="50.15908696688711643218994140625" lon="5.5555899627506732940673828125">
        <ele>296.399993896484375</ele>
        <time>2025-04-29T19:19:22.000Z</time>
        <extensions>
          <ns3:TrackPointExtension/>
        </extensions>
      </trkpt>
      <trkpt lat="50.15915594995021820068359375" lon="5.555962957441806793212890625">
        <ele>293.79998779296875</ele>
        <time>2025-04-29T19:19:26.000Z</time>
        <extensions>
          <ns3:TrackPointExtension/>
        </extensions>
      </trkpt>
      <trkpt lat="50.15928394161164760589599609375" lon="5.55647299624979496002197265625">
        <ele>292.399993896484375</ele>
        <time>2025-04-29T19:19:30.000Z</time>
        <extensions>
          <ns3:TrackPointExtension/>
        </extensions>
      </trkpt>
      <trkpt lat="50.1599089801311492919921875" lon="5.557918958365917205810546875">
        <ele>289</ele>
        <time>2025-04-29T19:19:35.000Z</time>
        <extensions>
          <ns3:TrackPointExtension/>
        </extensions>
      </trkpt>
      <trkpt lat="50.16004099510610103607177734375" lon="5.55814392864704132080078125">
        <ele>286.600006103515625</ele>
        <time>2025-04-29T19:19:39.000Z</time>
        <extensions>
          <ns3:TrackPointExtension/>
        </extensions>
      </trkpt>
      <trkpt lat="50.1598159410059452056884765625" lon="5.558439977467060089111328125">
        <ele>279</ele>
        <time>2025-04-29T19:19:43.000Z</time>
        <extensions>
          <ns3:TrackPointExtension/>
        </extensions>
      </trkpt>
      <trkpt lat="50.15949097461998462677001953125" lon="5.55885194800794124603271484375">
        <ele>281.79998779296875</ele>
        <time>2025-04-29T19:19:47.000Z</time>
        <extensions>
          <ns3:TrackPointExtension/>
        </extensions>
      </trkpt>
      <trkpt lat="50.15975299291312694549560546875" lon="5.559123940765857696533203125">
        <ele>280.20001220703125</ele>
        <time>2025-04-29T19:20:15.000Z</time>
        <extensions>
          <ns3:TrackPointExtension/>
        </extensions>
      </trkpt>
      <trkpt lat="50.1599879376590251922607421875" lon="5.55925293825566768646240234375">
        <ele>280</ele>
        <time>2025-04-29T19:20:42.000Z</time>
        <extensions>
          <ns3:TrackPointExtension/>
        </extensions>
      </trkpt>
      <trkpt lat="50.16030393540859222412109375" lon="5.55957597680389881134033203125">
        <ele>284.600006103515625</ele>
        <time>2025-04-29T19:21:10.000Z</time>
        <extensions>
          <ns3:TrackPointExtension/>
        </extensions>
      </trkpt>
      <trkpt lat="50.16041499562561511993408203125" lon="5.5597919784486293792724609375">
        <ele>288.20001220703125</ele>
        <time>2025-04-29T19:21:37.000Z</time>
        <extensions>
          <ns3:TrackPointExtension/>
        </extensions>
      </trkpt>
      <trkpt lat="50.160534940659999847412109375" lon="5.56032598949968814849853515625">
        <ele>292</ele>
        <time>2025-04-29T19:22:04.000Z</time>
        <extensions>
          <ns3:TrackPointExtension/>
        </extensions>
      </trkpt>
      <trkpt lat="50.16055396758019924163818359375" lon="5.56067593395709991455078125">
        <ele>295.20001220703125</ele>
        <time>2025-04-29T19:22:38.000Z</time>
        <extensions>
          <ns3:TrackPointExtension/>
        </extensions>
      </trkpt>
      <trkpt lat="50.1605639420449733734130859375" lon="5.5618019588291645050048828125">
        <ele>313.600006103515625</ele>
        <time>2025-04-29T19:23:12.000Z</time>
        <extensions>
          <ns3:TrackPointExtension/>
        </extensions>
      </trkpt>
      <trkpt lat="50.16061197035014629364013671875" lon="5.5623219721019268035888671875">
        <ele>320.399993896484375</ele>
        <time>2025-04-29T19:23:45.000Z</time>
        <extensions>
          <ns3:TrackPointExtension/>
        </extensions>
      </trkpt>
      <trkpt lat="50.16066293232142925262451171875" lon="5.56253193877637386322021484375">
        <ele>321.399993896484375</ele>
        <time>2025-04-29T19:24:19.000Z</time>
        <extensions>
          <ns3:TrackPointExtension/>
        </extensions>
      </trkpt>
      <trkpt lat="50.16066293232142925262451171875" lon="5.56253193877637386322021484375">
        <ele>321.399993896484375</ele>
        <time>2025-04-29T19:24:19.000Z</time>
        <extensions>
          <ns3:TrackPointExtension/>
        </extensions>
      </trkpt>
      <trkpt lat="50.16099393367767333984375" lon="5.5638219974935054779052734375">
        <ele>331.79998779296875</ele>
        <time>2025-04-29T19:25:07.000Z</time>
        <extensions>
          <ns3:TrackPointExtension/>
        </extensions>
      </trkpt>
      <trkpt lat="50.16158494167029857635498046875" lon="5.56532495655119419097900390625">
        <ele>332.399993896484375</ele>
        <time>2025-04-29T19:25:54.000Z</time>
        <extensions>
          <ns3:TrackPointExtension/>
        </extensions>
      </trkpt>
      <trkpt lat="50.16167295165359973907470703125" lon="5.5657119490206241607666015625">
        <ele>338.600006103515625</ele>
        <time>2025-04-29T19:26:42.000Z</time>
        <extensions>
          <ns3:TrackPointExtension/>
        </extensions>
      </trkpt>
      <trkpt lat="50.1616579480469226837158203125" lon="5.56587296538054943084716796875">
        <ele>340</ele>
        <time>2025-04-29T19:27:30.000Z</time>
        <extensions>
          <ns3:TrackPointExtension/>
        </extensions>
      </trkpt>
      <trkpt lat="50.1615419425070285797119140625" lon="5.5661109276115894317626953125">
        <ele>342.600006103515625</ele>
        <time>2025-04-29T19:28:17.000Z</time>
        <extensions>
          <ns3:TrackPointExtension/>
        </extensions>
      </trkpt>
      <trkpt lat="50.16150698997080326080322265625" lon="5.565968938171863555908203125">
        <ele>343</ele>
        <time>2025-04-29T19:28:41.000Z</time>
        <extensions>
          <ns3:TrackPointExtension/>
        </extensions>
      </trkpt>
      <trkpt lat="50.161406993865966796875" lon="5.56587095372378826141357421875">
        <ele>345.20001220703125</ele>
        <time>2025-04-29T19:29:05.000Z</time>
        <extensions>
          <ns3:TrackPointExtension/>
        </extensions>
      </trkpt>
      <trkpt lat="50.160941965878009796142578125" lon="5.56574396789073944091796875">
        <ele>360.399993896484375</ele>
        <time>2025-04-29T19:29:29.000Z</time>
        <extensions>
          <ns3:TrackPointExtension/>
        </extensions>
      </trkpt>
      <trkpt lat="50.16065396368503570556640625" lon="5.56556199677288532257080078125">
        <ele>368.79998779296875</ele>
        <time>2025-04-29T19:29:53.000Z</time>
        <extensions>
          <ns3:TrackPointExtension/>
        </extensions>
      </trkpt>
      <trkpt lat="50.16078799031674861907958984375" lon="5.566033981740474700927734375">
        <ele>364.600006103515625</ele>
        <time>2025-04-29T19:30:12.000Z</time>
        <extensions>
          <ns3:TrackPointExtension/>
        </extensions>
      </trkpt>
      <trkpt lat="50.160824954509735107421875" lon="5.56621192954480648040771484375">
        <ele>362.600006103515625</ele>
        <time>2025-04-29T19:30:32.000Z</time>
        <extensions>
          <ns3:TrackPointExtension/>
        </extensions>
      </trkpt>
      <trkpt lat="50.16081799753010272979736328125" lon="5.56641493923962116241455078125">
        <ele>361.600006103515625</ele>
        <time>2025-04-29T19:30:52.000Z</time>
        <extensions>
          <ns3:TrackPointExtension/>
        </extensions>
      </trkpt>
      <trkpt lat="50.160715989768505096435546875" lon="5.56662197224795818328857421875">
        <ele>364.79998779296875</ele>
        <time>2025-04-29T19:31:12.000Z</time>
        <extensions>
          <ns3:TrackPointExtension/>
        </extensions>
      </trkpt>
      <trkpt lat="50.16065396368503570556640625" lon="5.5668859183788299560546875">
        <ele>365</ele>
        <time>2025-04-29T19:31:32.000Z</time>
        <extensions>
          <ns3:TrackPointExtension/>
        </extensions>
      </trkpt>
      <trkpt lat="50.160418935120105743408203125" lon="5.567297972738742828369140625">
        <ele>371.79998779296875</ele>
        <time>2025-04-29T19:31:51.000Z</time>
        <extensions>
          <ns3:TrackPointExtension/>
        </extensions>
      </trkpt>
      <trkpt lat="50.160427987575531005859375" lon="5.56741791777312755584716796875">
        <ele>371.79998779296875</ele>
        <time>2025-04-29T19:32:22.000Z</time>
        <extensions>
          <ns3:TrackPointExtension/>
        </extensions>
      </trkpt>
      <trkpt lat="50.160477943718433380126953125" lon="5.56753291748464107513427734375">
        <ele>370.79998779296875</ele>
        <time>2025-04-29T19:32:53.000Z</time>
        <extensions>
          <ns3:TrackPointExtension/>
        </extensions>
      </trkpt>
      <trkpt lat="50.160589925944805145263671875" lon="5.5676149763166904449462890625">
        <ele>368.600006103515625</ele>
        <time>2025-04-29T19:33:24.000Z</time>
        <extensions>
          <ns3:TrackPointExtension/>
        </extensions>
      </trkpt>
      <trkpt lat="50.1606759242713451385498046875" lon="5.56771798990666866302490234375">
        <ele>367.600006103515625</ele>
        <time>2025-04-29T19:33:54.000Z</time>
        <extensions>
          <ns3:TrackPointExtension/>
        </extensions>
      </trkpt>
      <trkpt lat="50.160827971994876861572265625" lon="5.5680099315941333770751953125">
        <ele>369.600006103515625</ele>
        <time>2025-04-29T19:34:25.000Z</time>
        <extensions>
          <ns3:TrackPointExtension/>
        </extensions>
      </trkpt>
      <trkpt lat="50.16120691783726215362548828125" lon="5.56894392706453800201416015625">
        <ele>371.79998779296875</ele>
        <time>2025-04-29T19:34:56.000Z</time>
        <extensions>
          <ns3:TrackPointExtension/>
        </extensions>
      </trkpt>
      <trkpt lat="50.16181091777980327606201171875" lon="5.57061192579567432403564453125">
        <ele>377.600006103515625</ele>
        <time>2025-04-29T19:35:27.000Z</time>
        <extensions>
          <ns3:TrackPointExtension/>
        </extensions>
      </trkpt>
      <trkpt lat="50.162199921905994415283203125" lon="5.571553967893123626708984375">
        <ele>386.79998779296875</ele>
        <time>2025-04-29T19:35:57.000Z</time>
        <extensions>
          <ns3:TrackPointExtension/>
        </extensions>
      </trkpt>
      <trkpt lat="50.1622869260609149932861328125" lon="5.57156997732818126678466796875">
        <ele>387.399993896484375</ele>
        <time>2025-04-29T19:36:28.000Z</time>
        <extensions>
          <ns3:TrackPointExtension/>
        </extensions>
      </trkpt>
      <trkpt lat="50.16245397739112377166748046875" lon="5.5716949515044689178466796875">
        <ele>389.399993896484375</ele>
        <time>2025-04-29T19:36:59.000Z</time>
        <extensions>
          <ns3:TrackPointExtension/>
        </extensions>
      </trkpt>
      <trkpt lat="50.162436962127685546875" lon="5.571840964257717132568359375">
        <ele>389.20001220703125</ele>
        <time>2025-04-29T19:37:29.000Z</time>
        <extensions>
          <ns3:TrackPointExtension/>
        </extensions>
      </trkpt>
      <trkpt lat="50.16373892314732074737548828125" lon="5.573045946657657623291015625">
        <ele>388.399993896484375</ele>
        <time>2025-04-29T19:39:43.000Z</time>
        <extensions>
          <ns3:TrackPointExtension/>
        </extensions>
      </trkpt>
      <trkpt lat="50.1649379543960094451904296875" lon="5.5741119571030139923095703125">
        <ele>383</ele>
        <time>2025-04-29T19:41:56.000Z</time>
        <extensions>
          <ns3:TrackPointExtension/>
        </extensions>
      </trkpt>
      <trkpt lat="50.16480895690619945526123046875" lon="5.57440691627562046051025390625">
        <ele>382.20001220703125</ele>
        <time>2025-04-29T19:42:43.000Z</time>
        <extensions>
          <ns3:TrackPointExtension/>
        </extensions>
      </trkpt>
      <trkpt lat="50.16443998552858829498291015625" lon="5.5749459564685821533203125">
        <ele>380.79998779296875</ele>
        <time>2025-04-29T19:43:29.000Z</time>
        <extensions>
          <ns3:TrackPointExtension/>
        </extensions>
      </trkpt>
      <trkpt lat="50.16411292366683483123779296875" lon="5.57547393254935741424560546875">
        <ele>380.399993896484375</ele>
        <time>2025-04-29T19:44:16.000Z</time>
        <extensions>
          <ns3:TrackPointExtension/>
        </extensions>
      </trkpt>
      <trkpt lat="50.16368192620575428009033203125" lon="5.57634196244180202484130859375">
        <ele>383.79998779296875</ele>
        <time>2025-04-29T19:45:03.000Z</time>
        <extensions>
          <ns3:TrackPointExtension/>
        </extensions>
      </trkpt>
      <trkpt lat="50.16326199285686016082763671875" lon="5.57708392851054668426513671875">
        <ele>396.20001220703125</ele>
        <time>2025-04-29T19:45:50.000Z</time>
        <extensions>
          <ns3:TrackPointExtension/>
        </extensions>
      </trkpt>
      <trkpt lat="50.16284792684018611907958984375" lon="5.57789194397628307342529296875">
        <ele>392.600006103515625</ele>
        <time>2025-04-29T19:46:36.000Z</time>
        <extensions>
          <ns3:TrackPointExtension/>
        </extensions>
      </trkpt>
      <trkpt lat="50.16271197237074375152587890625" lon="5.57835797779262065887451171875">
        <ele>385.20001220703125</ele>
        <time>2025-04-29T19:47:23.000Z</time>
        <extensions>
          <ns3:TrackPointExtension/>
        </extensions>
      </trkpt>
      <trkpt lat="50.16259898431599140167236328125" lon="5.5783159844577312469482421875">
        <ele>385</ele>
        <time>2025-04-29T19:47:30.000Z</time>
        <extensions>
          <ns3:TrackPointExtension/>
        </extensions>
      </trkpt>
      <trkpt lat="50.16207897104322910308837890625" lon="5.57820894755423069000244140625">
        <ele>383.20001220703125</ele>
        <time>2025-04-29T19:47:38.000Z</time>
        <extensions>
          <ns3:TrackPointExtension/>
        </extensions>
      </trkpt>
      <trkpt lat="50.16095797531306743621826171875" lon="5.5777339451014995574951171875">
        <ele>375.20001220703125</ele>
        <time>2025-04-29T19:47:45.000Z</time>
        <extensions>
          <ns3:TrackPointExtension/>
        </extensions>
      </trkpt>
      <trkpt lat="50.16052094288170337677001953125" lon="5.57757091708481311798095703125">
        <ele>374.79998779296875</ele>
        <time>2025-04-29T19:47:52.000Z</time>
        <extensions>
          <ns3:TrackPointExtension/>
        </extensions>
      </trkpt>
      <trkpt lat="50.15960597433149814605712890625" lon="5.57729892432689666748046875">
        <ele>378.79998779296875</ele>
        <time>2025-04-29T19:47:59.000Z</time>
        <extensions>
          <ns3:TrackPointExtension/>
        </extensions>
      </trkpt>
      <trkpt lat="50.15951796434819698333740234375" lon="5.577301941812038421630859375">
        <ele>379.20001220703125</ele>
        <time>2025-04-29T19:48:07.000Z</time>
        <extensions>
          <ns3:TrackPointExtension/>
        </extensions>
      </trkpt>
      <trkpt lat="50.15944696962833404541015625" lon="5.5773359723389148712158203125">
        <ele>379.399993896484375</ele>
        <time>2025-04-29T19:48:14.000Z</time>
        <extensions>
          <ns3:TrackPointExtension/>
        </extensions>
      </trkpt>
      <trkpt lat="50.1593009568750858306884765625" lon="5.5772779695689678192138671875">
        <ele>380.20001220703125</ele>
        <time>2025-04-29T19:48:21.000Z</time>
        <extensions>
          <ns3:TrackPointExtension/>
        </extensions>
      </trkpt>
      <trkpt lat="50.15900096856057643890380859375" lon="5.5772739462554454803466796875">
        <ele>381.600006103515625</ele>
        <time>2025-04-29T19:48:28.000Z</time>
        <extensions>
          <ns3:TrackPointExtension/>
        </extensions>
      </trkpt>
      <trkpt lat="50.1586739905178546905517578125" lon="5.5773859284818172454833984375">
        <ele>383.79998779296875</ele>
        <time>2025-04-29T19:48:36.000Z</time>
        <extensions>
          <ns3:TrackPointExtension/>
        </extensions>
      </trkpt>
      <trkpt lat="50.1583239622414112091064453125" lon="5.5775959789752960205078125">
        <ele>385.600006103515625</ele>
        <time>2025-04-29T19:48:43.000Z</time>
        <extensions>
          <ns3:TrackPointExtension/>
        </extensions>
      </trkpt>
      <trkpt lat="50.15736398287117481231689453125" lon="5.57781793177127838134765625">
        <ele>388.20001220703125</ele>
        <time>2025-04-29T19:48:50.000Z</time>
        <extensions>
          <ns3:TrackPointExtension/>
        </extensions>
      </trkpt>
      <trkpt lat="50.1572079956531524658203125" lon="5.57789797894656658172607421875">
        <ele>389</ele>
        <time>2025-04-29T19:48:58.000Z</time>
        <extensions>
          <ns3:TrackPointExtension/>
        </extensions>
      </trkpt>
      <trkpt lat="50.15704798512160778045654296875" lon="5.5780249647796154022216796875">
        <ele>388.79998779296875</ele>
        <time>2025-04-29T19:49:05.000Z</time>
        <extensions>
          <ns3:TrackPointExtension/>
        </extensions>
      </trkpt>
      <trkpt lat="50.15667892992496490478515625" lon="5.57844297029078006744384765625">
        <ele>388</ele>
        <time>2025-04-29T19:49:12.000Z</time>
        <extensions>
          <ns3:TrackPointExtension/>
        </extensions>
      </trkpt>
      <trkpt lat="50.15644398517906665802001953125" lon="5.57867598719894886016845703125">
        <ele>387.600006103515625</ele>
        <time>2025-04-29T19:49:19.000Z</time>
        <extensions>
          <ns3:TrackPointExtension/>
        </extensions>
      </trkpt>
      <trkpt lat="50.1559659652411937713623046875" lon="5.57901796884834766387939453125">
        <ele>389</ele>
        <time>2025-04-29T19:49:27.000Z</time>
        <extensions>
          <ns3:TrackPointExtension/>
        </extensions>
      </trkpt>
      <trkpt lat="50.15548392198979854583740234375" lon="5.5792389996349811553955078125">
        <ele>390</ele>
        <time>2025-04-29T19:49:34.000Z</time>
        <extensions>
          <ns3:TrackPointExtension/>
        </extensions>
      </trkpt>
      <trkpt lat="50.1552809961140155792236328125" lon="5.5792939849197864532470703125">
        <ele>390</ele>
        <time>2025-04-29T19:49:41.000Z</time>
        <extensions>
          <ns3:TrackPointExtension/>
        </extensions>
      </trkpt>
      <trkpt lat="50.15324695967137813568115234375" lon="5.5794359743595123291015625">
        <ele>398</ele>
        <time>2025-04-29T19:49:48.000Z</time>
        <extensions>
          <ns3:TrackPointExtension/>
        </extensions>
      </trkpt>
      <trkpt lat="50.15306993387639522552490234375" lon="5.57938492856919765472412109375">
        <ele>399.20001220703125</ele>
        <time>2025-04-29T19:49:56.000Z</time>
        <extensions>
          <ns3:TrackPointExtension/>
        </extensions>
      </trkpt>
      <trkpt lat="50.15283792279660701751708984375" lon="5.57924997992813587188720703125">
        <ele>400.79998779296875</ele>
        <time>2025-04-29T19:50:03.000Z</time>
        <extensions>
          <ns3:TrackPointExtension/>
        </extensions>
      </trkpt>
      <trkpt lat="50.15226191841065883636474609375" lon="5.5789959244430065155029296875">
        <ele>403</ele>
        <time>2025-04-29T19:50:10.000Z</time>
        <extensions>
          <ns3:TrackPointExtension/>
        </extensions>
      </trkpt>
      <trkpt lat="50.151965953409671783447265625" lon="5.5789469741284847259521484375">
        <ele>403</ele>
        <time>2025-04-29T19:50:17.000Z</time>
        <extensions>
          <ns3:TrackPointExtension/>
        </extensions>
      </trkpt>
      <trkpt lat="50.15172899700701236724853515625" lon="5.57896499522030353546142578125">
        <ele>402.399993896484375</ele>
        <time>2025-04-29T19:50:25.000Z</time>
        <extensions>
          <ns3:TrackPointExtension/>
        </extensions>
      </trkpt>
      <trkpt lat="50.15157393179833889007568359375" lon="5.5790309607982635498046875">
        <ele>402</ele>
        <time>2025-04-29T19:50:32.000Z</time>
        <extensions>
          <ns3:TrackPointExtension/>
        </extensions>
      </trkpt>
      <trkpt lat="50.14993996359407901763916015625" lon="5.580409951508045196533203125">
        <ele>403.600006103515625</ele>
        <time>2025-04-29T19:50:39.000Z</time>
        <extensions>
          <ns3:TrackPointExtension/>
        </extensions>
      </trkpt>
      <trkpt lat="50.14982295222580432891845703125" lon="5.58048396371304988861083984375">
        <ele>404</ele>
        <time>2025-04-29T19:50:46.000Z</time>
        <extensions>
          <ns3:TrackPointExtension/>
        </extensions>
      </trkpt>
      <trkpt lat="50.14970694668591022491455078125" lon="5.580521933734416961669921875">
        <ele>404.600006103515625</ele>
        <time>2025-04-29T19:50:54.000Z</time>
        <extensions>
          <ns3:TrackPointExtension/>
        </extensions>
      </trkpt>
      <trkpt lat="50.1495759375393390655517578125" lon="5.58052696287631988525390625">
        <ele>404.79998779296875</ele>
        <time>2025-04-29T19:51:01.000Z</time>
        <extensions>
          <ns3:TrackPointExtension/>
        </extensions>
      </trkpt>
      <trkpt lat="50.1494669727981090545654296875" lon="5.58048899285495281219482421875">
        <ele>404.399993896484375</ele>
        <time>2025-04-29T19:51:08.000Z</time>
        <extensions>
          <ns3:TrackPointExtension/>
        </extensions>
      </trkpt>
      <trkpt lat="50.14849693514406681060791015625" lon="5.57995892129838466644287109375">
        <ele>405</ele>
        <time>2025-04-29T19:51:16.000Z</time>
        <extensions>
          <ns3:TrackPointExtension/>
        </extensions>
      </trkpt>
      <trkpt lat="50.14761599712073802947998046875" lon="5.579894967377185821533203125">
        <ele>404.399993896484375</ele>
        <time>2025-04-29T19:51:23.000Z</time>
        <extensions>
          <ns3:TrackPointExtension/>
        </extensions>
      </trkpt>
      <trkpt lat="50.145643986761569976806640625" lon="5.57961593382060527801513671875">
        <ele>397.399993896484375</ele>
        <time>2025-04-29T19:51:30.000Z</time>
        <extensions>
          <ns3:TrackPointExtension/>
        </extensions>
      </trkpt>
      <trkpt lat="50.14513294212520122528076171875" lon="5.579432956874370574951171875">
        <ele>395.79998779296875</ele>
        <time>2025-04-29T19:51:37.000Z</time>
        <extensions>
          <ns3:TrackPointExtension/>
        </extensions>
      </trkpt>
      <trkpt lat="50.14392091892659664154052734375" lon="5.57884496636688709259033203125">
        <ele>392.79998779296875</ele>
        <time>2025-04-29T19:51:45.000Z</time>
        <extensions>
          <ns3:TrackPointExtension/>
        </extensions>
      </trkpt>
      <trkpt lat="50.14309094287455081939697265625" lon="5.57852293364703655242919921875">
        <ele>393</ele>
        <time>2025-04-29T19:51:52.000Z</time>
        <extensions>
          <ns3:TrackPointExtension/>
        </extensions>
      </trkpt>
      <trkpt lat="50.1430149190127849578857421875" lon="5.57867598719894886016845703125">
        <ele>393</ele>
        <time>2025-04-29T19:51:56.000Z</time>
        <extensions>
          <ns3:TrackPointExtension/>
        </extensions>
      </trkpt>
      <trkpt lat="50.14191395603120326995849609375" lon="5.57995498180389404296875">
        <ele>387.79998779296875</ele>
        <time>2025-04-29T19:52:00.000Z</time>
        <extensions>
          <ns3:TrackPointExtension/>
        </extensions>
      </trkpt>
      <trkpt lat="50.14173592440783977508544921875" lon="5.58022798039019107818603515625">
        <ele>389</ele>
        <time>2025-04-29T19:52:05.000Z</time>
        <extensions>
          <ns3:TrackPointExtension/>
        </extensions>
      </trkpt>
      <trkpt lat="50.141609944403171539306640625" lon="5.5804989673197269439697265625">
        <ele>391.79998779296875</ele>
        <time>2025-04-29T19:52:09.000Z</time>
        <extensions>
          <ns3:TrackPointExtension/>
        </extensions>
      </trkpt>
      <trkpt lat="50.14140098355710506439208984375" lon="5.5810169689357280731201171875">
        <ele>396.20001220703125</ele>
        <time>2025-04-29T19:52:13.000Z</time>
        <extensions>
          <ns3:TrackPointExtension/>
        </extensions>
      </trkpt>
      <trkpt lat="50.141040980815887451171875" lon="5.58181098662316799163818359375">
        <ele>398.399993896484375</ele>
        <time>2025-04-29T19:52:18.000Z</time>
        <extensions>
          <ns3:TrackPointExtension/>
        </extensions>
      </trkpt>
      <trkpt lat="50.14084995724260807037353515625" lon="5.58220393024384975433349609375">
        <ele>400.399993896484375</ele>
        <time>2025-04-29T19:52:22.000Z</time>
        <extensions>
          <ns3:TrackPointExtension/>
        </extensions>
      </trkpt>
      <trkpt lat="50.14067293144762516021728515625" lon="5.58249193243682384490966796875">
        <ele>403.20001220703125</ele>
        <time>2025-04-29T19:52:26.000Z</time>
        <extensions>
          <ns3:TrackPointExtension/>
        </extensions>
      </trkpt>
      <trkpt lat="50.13984597288072109222412109375" lon="5.58345794677734375">
        <ele>423.399993896484375</ele>
        <time>2025-04-29T19:52:30.000Z</time>
        <extensions>
          <ns3:TrackPointExtension/>
        </extensions>
      </trkpt>
      <trkpt lat="50.13955394737422466278076171875" lon="5.58376195840537548065185546875">
        <ele>428.79998779296875</ele>
        <time>2025-04-29T19:52:35.000Z</time>
        <extensions>
          <ns3:TrackPointExtension/>
        </extensions>
      </trkpt>
      <trkpt lat="50.13926192186772823333740234375" lon="5.58403193950653076171875">
        <ele>431.600006103515625</ele>
        <time>2025-04-29T19:52:39.000Z</time>
        <extensions>
          <ns3:TrackPointExtension/>
        </extensions>
      </trkpt>
      <trkpt lat="50.1389999873936176300048828125" lon="5.58420695364475250244140625">
        <ele>434</ele>
        <time>2025-04-29T19:52:43.000Z</time>
        <extensions>
          <ns3:TrackPointExtension/>
        </extensions>
      </trkpt>
      <trkpt lat="50.1383079774677753448486328125" lon="5.58453292585909366607666015625">
        <ele>436.20001220703125</ele>
        <time>2025-04-29T19:52:47.000Z</time>
        <extensions>
          <ns3:TrackPointExtension/>
        </extensions>
      </trkpt>
      <trkpt lat="50.1382459513843059539794921875" lon="5.584545917809009552001953125">
        <ele>435.79998779296875</ele>
        <time>2025-04-29T19:52:52.000Z</time>
        <extensions>
          <ns3:TrackPointExtension/>
        </extensions>
      </trkpt>
      <trkpt lat="50.1374379359185695648193359375" lon="5.58507196605205535888671875">
        <ele>437.600006103515625</ele>
        <time>2025-04-29T19:52:56.000Z</time>
        <extensions>
          <ns3:TrackPointExtension/>
        </extensions>
      </trkpt>
      <trkpt lat="50.13425893150269985198974609375" lon="5.5872289650142192840576171875">
        <ele>457</ele>
        <time>2025-04-29T19:53:00.000Z</time>
        <extensions>
          <ns3:TrackPointExtension/>
        </extensions>
      </trkpt>
      <trkpt lat="50.13245296664535999298095703125" lon="5.58841894380748271942138671875">
        <ele>454</ele>
        <time>2025-04-29T19:53:05.000Z</time>
        <extensions>
          <ns3:TrackPointExtension/>
        </extensions>
      </trkpt>
      <trkpt lat="50.13224693946540355682373046875" lon="5.5886149965226650238037109375">
        <ele>453.20001220703125</ele>
        <time>2025-04-29T19:53:09.000Z</time>
        <extensions>
          <ns3:TrackPointExtension/>
        </extensions>
      </trkpt>
      <trkpt lat="50.13221793808043003082275390625" lon="5.58870099484920501708984375">
        <ele>452.399993896484375</ele>
        <time>2025-04-29T19:53:13.000Z</time>
        <extensions>
          <ns3:TrackPointExtension/>
        </extensions>
      </trkpt>
      <trkpt lat="50.13224392198026180267333984375" lon="5.5889479257166385650634765625">
        <ele>449.399993896484375</ele>
        <time>2025-04-29T19:53:17.000Z</time>
        <extensions>
          <ns3:TrackPointExtension/>
        </extensions>
      </trkpt>
      <trkpt lat="50.13334195129573345184326171875" lon="5.59308297000825405120849609375">
        <ele>439.600006103515625</ele>
        <time>2025-04-29T19:53:22.000Z</time>
        <extensions>
          <ns3:TrackPointExtension/>
        </extensions>
      </trkpt>
      <trkpt lat="50.13337296433746814727783203125" lon="5.5932659469544887542724609375">
        <ele>441.600006103515625</ele>
        <time>2025-04-29T19:53:26.000Z</time>
        <extensions>
          <ns3:TrackPointExtension/>
        </extensions>
      </trkpt>
      <trkpt lat="50.1333589665591716766357421875" lon="5.5935519374907016754150390625">
        <ele>445.79998779296875</ele>
        <time>2025-04-29T19:53:30.000Z</time>
        <extensions>
          <ns3:TrackPointExtension/>
        </extensions>
      </trkpt>
      <trkpt lat="50.13329098932445049285888671875" lon="5.59380792081356048583984375">
        <ele>449.600006103515625</ele>
        <time>2025-04-29T19:53:34.000Z</time>
        <extensions>
          <ns3:TrackPointExtension/>
        </extensions>
      </trkpt>
      <trkpt lat="50.1331899873912334442138671875" lon="5.59400196187198162078857421875">
        <ele>451.20001220703125</ele>
        <time>2025-04-29T19:53:39.000Z</time>
        <extensions>
          <ns3:TrackPointExtension/>
        </extensions>
      </trkpt>
      <trkpt lat="50.13299594633281230926513671875" lon="5.59423095546662807464599609375">
        <ele>450.399993896484375</ele>
        <time>2025-04-29T19:53:43.000Z</time>
        <extensions>
          <ns3:TrackPointExtension/>
        </extensions>
      </trkpt>
      <trkpt lat="50.13196497224271297454833984375" lon="5.594960935413837432861328125">
        <ele>444</ele>
        <time>2025-04-29T19:53:47.000Z</time>
        <extensions>
          <ns3:TrackPointExtension/>
        </extensions>
      </trkpt>
      <trkpt lat="50.13178492896258831024169921875" lon="5.59515899978578090667724609375">
        <ele>444.20001220703125</ele>
        <time>2025-04-29T19:53:52.000Z</time>
        <extensions>
          <ns3:TrackPointExtension/>
        </extensions>
      </trkpt>
      <trkpt lat="50.131715945899486541748046875" lon="5.59527198784053325653076171875">
        <ele>444.20001220703125</ele>
        <time>2025-04-29T19:53:56.000Z</time>
        <extensions>
          <ns3:TrackPointExtension/>
        </extensions>
      </trkpt>
      <trkpt lat="50.13159298337996006011962890625" lon="5.59554792009294033050537109375">
        <ele>443.79998779296875</ele>
        <time>2025-04-29T19:54:00.000Z</time>
        <extensions>
          <ns3:TrackPointExtension/>
        </extensions>
      </trkpt>
      <trkpt lat="50.1275419257581233978271484375" lon="5.61013595201075077056884765625">
        <ele>418.600006103515625</ele>
        <time>2025-04-29T19:54:04.000Z</time>
        <extensions>
          <ns3:TrackPointExtension/>
        </extensions>
      </trkpt>
      <trkpt lat="50.1273699291050434112548828125" lon="5.61065596528351306915283203125">
        <ele>417.600006103515625</ele>
        <time>2025-04-29T19:54:09.000Z</time>
        <extensions>
          <ns3:TrackPointExtension/>
        </extensions>
      </trkpt>
      <trkpt lat="50.12684396468102931976318359375" lon="5.61180193908512592315673828125">
        <ele>412</ele>
        <time>2025-04-29T19:54:13.000Z</time>
        <extensions>
          <ns3:TrackPointExtension/>
        </extensions>
      </trkpt>
      <trkpt lat="50.126718990504741668701171875" lon="5.6120189465582370758056640625">
        <ele>412.79998779296875</ele>
        <time>2025-04-29T19:54:17.000Z</time>
        <extensions>
          <ns3:TrackPointExtension/>
        </extensions>
      </trkpt>
      <trkpt lat="50.1266229338943958282470703125" lon="5.612110979855060577392578125">
        <ele>413.79998779296875</ele>
        <time>2025-04-29T19:54:21.000Z</time>
        <extensions>
          <ns3:TrackPointExtension/>
        </extensions>
      </trkpt>
      <trkpt lat="50.1265099458396434783935546875" lon="5.612163953483104705810546875">
        <ele>414.600006103515625</ele>
        <time>2025-04-29T19:54:26.000Z</time>
        <extensions>
          <ns3:TrackPointExtension/>
        </extensions>
      </trkpt>
      <trkpt lat="50.1262859813868999481201171875" lon="5.6121909432113170623779296875">
        <ele>415.600006103515625</ele>
        <time>2025-04-29T19:54:30.000Z</time>
        <extensions>
          <ns3:TrackPointExtension/>
        </extensions>
      </trkpt>
      <trkpt lat="50.12594492174685001373291015625" lon="5.6121909432113170623779296875">
        <ele>416.600006103515625</ele>
        <time>2025-04-29T19:54:34.000Z</time>
        <extensions>
          <ns3:TrackPointExtension/>
        </extensions>
      </trkpt>
      <trkpt lat="50.1258149184286594390869140625" lon="5.612169988453388214111328125">
        <ele>415.600006103515625</ele>
        <time>2025-04-29T19:54:39.000Z</time>
        <extensions>
          <ns3:TrackPointExtension/>
        </extensions>
      </trkpt>
      <trkpt lat="50.12549296952784061431884765625" lon="5.61203596182167530059814453125">
        <ele>414.20001220703125</ele>
        <time>2025-04-29T19:54:43.000Z</time>
        <extensions>
          <ns3:TrackPointExtension/>
        </extensions>
      </trkpt>
      <trkpt lat="50.1253569312393665313720703125" lon="5.612043924629688262939453125">
        <ele>413.600006103515625</ele>
        <time>2025-04-29T19:54:47.000Z</time>
        <extensions>
          <ns3:TrackPointExtension/>
        </extensions>
      </trkpt>
      <trkpt lat="50.12525693513453006744384765625" lon="5.61208692379295825958251953125">
        <ele>413.399993896484375</ele>
        <time>2025-04-29T19:54:51.000Z</time>
        <extensions>
          <ns3:TrackPointExtension/>
        </extensions>
      </trkpt>
      <trkpt lat="50.12508695013821125030517578125" lon="5.61220896430313587188720703125">
        <ele>413.20001220703125</ele>
        <time>2025-04-29T19:54:56.000Z</time>
        <extensions>
          <ns3:TrackPointExtension/>
        </extensions>
      </trkpt>
      <trkpt lat="50.125157944858074188232421875" lon="5.61234994791448116302490234375">
        <ele>413.600006103515625</ele>
        <time>2025-04-29T19:54:57.000Z</time>
        <extensions>
          <ns3:TrackPointExtension/>
        </extensions>
      </trkpt>
      <trkpt lat="50.125218965113162994384765625" lon="5.61266996897757053375244140625">
        <ele>413.399993896484375</ele>
        <time>2025-04-29T19:54:59.000Z</time>
        <extensions>
          <ns3:TrackPointExtension/>
        </extensions>
      </trkpt>
      <trkpt lat="50.1252459548413753509521484375" lon="5.61291396617889404296875">
        <ele>413.600006103515625</ele>
        <time>2025-04-29T19:55:01.000Z</time>
        <extensions>
          <ns3:TrackPointExtension/>
        </extensions>
      </trkpt>
      <trkpt lat="50.12522893957793712615966796875" lon="5.6132919900119304656982421875">
        <ele>413.20001220703125</ele>
        <time>2025-04-29T19:55:03.000Z</time>
        <extensions>
          <ns3:TrackPointExtension/>
        </extensions>
      </trkpt>
      <trkpt lat="50.1251859404146671295166015625" lon="5.6134069897234439849853515625">
        <ele>413.20001220703125</ele>
        <time>2025-04-29T19:55:05.000Z</time>
        <extensions>
          <ns3:TrackPointExtension/>
        </extensions>
      </trkpt>
      <trkpt lat="50.12497999705374240875244140625" lon="5.613653920590877532958984375">
        <ele>414.79998779296875</ele>
        <time>2025-04-29T19:55:06.000Z</time>
        <extensions>
          <ns3:TrackPointExtension/>
        </extensions>
      </trkpt>
      <trkpt lat="50.12497195042669773101806640625" lon="5.61372793279588222503662109375">
        <ele>415</ele>
        <time>2025-04-29T19:55:08.000Z</time>
        <extensions>
          <ns3:TrackPointExtension/>
        </extensions>
      </trkpt>
      <trkpt lat="50.1249919831752777099609375" lon="5.6138619594275951385498046875">
        <ele>415.399993896484375</ele>
        <time>2025-04-29T19:55:10.000Z</time>
        <extensions>
          <ns3:TrackPointExtension/>
        </extensions>
      </trkpt>
      <trkpt lat="50.125098936259746551513671875" lon="5.614230930805206298828125">
        <ele>416</ele>
        <time>2025-04-29T19:55:12.000Z</time>
        <extensions>
          <ns3:TrackPointExtension/>
        </extensions>
      </trkpt>
      <trkpt lat="50.12510991655290126800537109375" lon="5.61487893573939800262451171875">
        <ele>416.600006103515625</ele>
        <time>2025-04-29T19:55:14.000Z</time>
        <extensions>
          <ns3:TrackPointExtension/>
        </extensions>
      </trkpt>
      <trkpt lat="50.12512399815022945404052734375" lon="5.61494699679315090179443359375">
        <ele>416.600006103515625</ele>
        <time>2025-04-29T19:55:15.000Z</time>
        <extensions>
          <ns3:TrackPointExtension/>
        </extensions>
      </trkpt>
      <trkpt lat="50.12509097345173358917236328125" lon="5.61496895737946033477783203125">
        <ele>416.399993896484375</ele>
        <time>2025-04-29T19:55:19.000Z</time>
        <extensions>
          <ns3:TrackPointExtension/>
        </extensions>
      </trkpt>
      <trkpt lat="50.12504898011684417724609375" lon="5.61505596153438091278076171875">
        <ele>415.79998779296875</ele>
        <time>2025-04-29T19:55:22.000Z</time>
        <extensions>
          <ns3:TrackPointExtension/>
        </extensions>
      </trkpt>
      <trkpt lat="50.1250509917736053466796875" lon="5.61516492627561092376708984375">
        <ele>416.20001220703125</ele>
        <time>2025-04-29T19:55:25.000Z</time>
        <extensions>
          <ns3:TrackPointExtension/>
        </extensions>
      </trkpt>
      <trkpt lat="50.125104971230030059814453125" lon="5.61525494791567325592041015625">
        <ele>417</ele>
        <time>2025-04-29T19:55:28.000Z</time>
        <extensions>
          <ns3:TrackPointExtension/>
        </extensions>
      </trkpt>
      <trkpt lat="50.1251839287579059600830078125" lon="5.61526198871433734893798828125">
        <ele>417.79998779296875</ele>
        <time>2025-04-29T19:55:32.000Z</time>
        <extensions>
          <ns3:TrackPointExtension/>
        </extensions>
      </trkpt>
      <trkpt lat="50.12534796260297298431396484375" lon="5.61842196621000766754150390625">
        <ele>416.399993896484375</ele>
        <time>2025-04-29T19:55:35.000Z</time>
        <extensions>
          <ns3:TrackPointExtension/>
        </extensions>
      </trkpt>
      <trkpt lat="50.12534896843135356903076171875" lon="5.62027595937252044677734375">
        <ele>418.20001220703125</ele>
        <time>2025-04-29T19:55:38.000Z</time>
        <extensions>
          <ns3:TrackPointExtension/>
        </extensions>
      </trkpt>
      <trkpt lat="50.12532197870314121246337890625" lon="5.6231799535453319549560546875">
        <ele>419.20001220703125</ele>
        <time>2025-04-29T19:55:41.000Z</time>
        <extensions>
          <ns3:TrackPointExtension/>
        </extensions>
      </trkpt>
      <trkpt lat="50.12534595094621181488037109375" lon="5.6234729848802089691162109375">
        <ele>417.79998779296875</ele>
        <time>2025-04-29T19:55:45.000Z</time>
        <extensions>
          <ns3:TrackPointExtension/>
        </extensions>
      </trkpt>
      <trkpt lat="50.12540697120130062103271484375" lon="5.62377892434597015380859375">
        <ele>415.79998779296875</ele>
        <time>2025-04-29T19:55:48.000Z</time>
        <extensions>
          <ns3:TrackPointExtension/>
        </extensions>
      </trkpt>
      <trkpt lat="50.12667599134147167205810546875" lon="5.6287059746682643890380859375">
        <ele>414.600006103515625</ele>
        <time>2025-04-29T19:55:51.000Z</time>
        <extensions>
          <ns3:TrackPointExtension/>
        </extensions>
      </trkpt>
      <trkpt lat="50.127003975212574005126953125" lon="5.629934929311275482177734375">
        <ele>417.600006103515625</ele>
        <time>2025-04-29T19:55:54.000Z</time>
        <extensions>
          <ns3:TrackPointExtension/>
        </extensions>
      </trkpt>
      <trkpt lat="50.12712794356048107147216796875" lon="5.63029694370925426483154296875">
        <ele>419.79998779296875</ele>
        <time>2025-04-29T19:55:58.000Z</time>
        <extensions>
          <ns3:TrackPointExtension/>
        </extensions>
      </trkpt>
      <trkpt lat="50.12728996574878692626953125" lon="5.63069793395698070526123046875">
        <ele>420.79998779296875</ele>
        <time>2025-04-29T19:56:01.000Z</time>
        <extensions>
          <ns3:TrackPointExtension/>
        </extensions>
      </trkpt>
      <trkpt lat="50.1274829171597957611083984375" lon="5.63110395334661006927490234375">
        <ele>422.399993896484375</ele>
        <time>2025-04-29T19:56:04.000Z</time>
        <extensions>
          <ns3:TrackPointExtension/>
        </extensions>
      </trkpt>
      <trkpt lat="50.12895293533802032470703125" lon="5.63389998860657215118408203125">
        <ele>430.20001220703125</ele>
        <time>2025-04-29T19:56:07.000Z</time>
        <extensions>
          <ns3:TrackPointExtension/>
        </extensions>
      </trkpt>
      <trkpt lat="50.12917597778141498565673828125" lon="5.634316988289356231689453125">
        <ele>430.600006103515625</ele>
        <time>2025-04-29T19:56:11.000Z</time>
        <extensions>
          <ns3:TrackPointExtension/>
        </extensions>
      </trkpt>
      <trkpt lat="50.1293559372425079345703125" lon="5.63458395190536975860595703125">
        <ele>429.600006103515625</ele>
        <time>2025-04-29T19:56:14.000Z</time>
        <extensions>
          <ns3:TrackPointExtension/>
        </extensions>
      </trkpt>
      <trkpt lat="50.1308839581906795501708984375" lon="5.6366379372775554656982421875">
        <ele>422.399993896484375</ele>
        <time>2025-04-29T19:56:17.000Z</time>
        <extensions>
          <ns3:TrackPointExtension/>
        </extensions>
      </trkpt>
      <trkpt lat="50.1310509257018566131591796875" lon="5.63691294752061367034912109375">
        <ele>423.20001220703125</ele>
        <time>2025-04-29T19:56:20.000Z</time>
        <extensions>
          <ns3:TrackPointExtension/>
        </extensions>
      </trkpt>
      <trkpt lat="50.132293961942195892333984375" lon="5.63916399143636226654052734375">
        <ele>418.399993896484375</ele>
        <time>2025-04-29T19:56:24.000Z</time>
        <extensions>
          <ns3:TrackPointExtension/>
        </extensions>
      </trkpt>
      <trkpt lat="50.132523961365222930908203125" lon="5.6395469605922698974609375">
        <ele>417.20001220703125</ele>
        <time>2025-04-29T19:56:27.000Z</time>
        <extensions>
          <ns3:TrackPointExtension/>
        </extensions>
      </trkpt>
      <trkpt lat="50.13333298265933990478515625" lon="5.6407769210636615753173828125">
        <ele>414.79998779296875</ele>
        <time>2025-04-29T19:56:30.000Z</time>
        <extensions>
          <ns3:TrackPointExtension/>
        </extensions>
      </trkpt>
      <trkpt lat="50.1336519978940486907958984375" lon="5.6413529254496097564697265625">
        <ele>412.600006103515625</ele>
        <time>2025-04-29T19:56:33.000Z</time>
        <extensions>
          <ns3:TrackPointExtension/>
        </extensions>
      </trkpt>
      <trkpt lat="50.13443696312606334686279296875" lon="5.6429059244692325592041015625">
        <ele>411.600006103515625</ele>
        <time>2025-04-29T19:56:37.000Z</time>
        <extensions>
          <ns3:TrackPointExtension/>
        </extensions>
      </trkpt>
      <trkpt lat="50.13466998003423213958740234375" lon="5.6434239260852336883544921875">
        <ele>409.399993896484375</ele>
        <time>2025-04-29T19:56:40.000Z</time>
        <extensions>
          <ns3:TrackPointExtension/>
        </extensions>
      </trkpt>
      <trkpt lat="50.13481196947395801544189453125" lon="5.64381997101008892059326171875">
        <ele>407.399993896484375</ele>
        <time>2025-04-29T19:56:43.000Z</time>
        <extensions>
          <ns3:TrackPointExtension/>
        </extensions>
      </trkpt>
      <trkpt lat="50.1350229419767856597900390625" lon="5.6446939520537853240966796875">
        <ele>405.20001220703125</ele>
        <time>2025-04-29T19:56:46.000Z</time>
        <extensions>
          <ns3:TrackPointExtension/>
        </extensions>
      </trkpt>
      <trkpt lat="50.13522394001483917236328125" lon="5.64542594365775585174560546875">
        <ele>404.600006103515625</ele>
        <time>2025-04-29T19:56:50.000Z</time>
        <extensions>
          <ns3:TrackPointExtension/>
        </extensions>
      </trkpt>
      <trkpt lat="50.13558796606957912445068359375" lon="5.646569989621639251708984375">
        <ele>402.600006103515625</ele>
        <time>2025-04-29T19:56:53.000Z</time>
        <extensions>
          <ns3:TrackPointExtension/>
        </extensions>
      </trkpt>
      <trkpt lat="50.13578494079411029815673828125" lon="5.64725093543529510498046875">
        <ele>403</ele>
        <time>2025-04-29T19:56:56.000Z</time>
        <extensions>
          <ns3:TrackPointExtension/>
        </extensions>
      </trkpt>
      <trkpt lat="50.13602097518742084503173828125" lon="5.64766399562358856201171875">
        <ele>403</ele>
        <time>2025-04-29T19:56:59.000Z</time>
        <extensions>
          <ns3:TrackPointExtension/>
        </extensions>
      </trkpt>
      <trkpt lat="50.13626396656036376953125" lon="5.64804193563759326934814453125">
        <ele>402</ele>
        <time>2025-04-29T19:57:03.000Z</time>
        <extensions>
          <ns3:TrackPointExtension/>
        </extensions>
      </trkpt>
      <trkpt lat="50.137992985546588897705078125" lon="5.6506759487092494964599609375">
        <ele>411.399993896484375</ele>
        <time>2025-04-29T19:57:06.000Z</time>
        <extensions>
          <ns3:TrackPointExtension/>
        </extensions>
      </trkpt>
      <trkpt lat="50.1381249167025089263916015625" lon="5.65094391815364360809326171875">
        <ele>412.79998779296875</ele>
        <time>2025-04-29T19:57:09.000Z</time>
        <extensions>
          <ns3:TrackPointExtension/>
        </extensions>
      </trkpt>
      <trkpt lat="50.1385299302637577056884765625" lon="5.6519119441509246826171875">
        <ele>414.600006103515625</ele>
        <time>2025-04-29T19:57:12.000Z</time>
        <extensions>
          <ns3:TrackPointExtension/>
        </extensions>
      </trkpt>
      <trkpt lat="50.14012592844665050506591796875" lon="5.65502791665494441986083984375">
        <ele>405.600006103515625</ele>
        <time>2025-04-29T19:57:16.000Z</time>
        <extensions>
          <ns3:TrackPointExtension/>
        </extensions>
      </trkpt>
      <trkpt lat="50.1402619667351245880126953125" lon="5.65518298186361789703369140625">
        <ele>405.20001220703125</ele>
        <time>2025-04-29T19:57:19.000Z</time>
        <extensions>
          <ns3:TrackPointExtension/>
        </extensions>
      </trkpt>
      <trkpt lat="50.1404269225895404815673828125" lon="5.65529999323189258575439453125">
        <ele>405</ele>
        <time>2025-04-29T19:57:22.000Z</time>
        <extensions>
          <ns3:TrackPointExtension/>
        </extensions>
      </trkpt>
      <trkpt lat="50.140579976141452789306640625" lon="5.65536193549633026123046875">
        <ele>404.20001220703125</ele>
        <time>2025-04-29T19:57:25.000Z</time>
        <extensions>
          <ns3:TrackPointExtension/>
        </extensions>
      </trkpt>
      <trkpt lat="50.14077099971473217010498046875" lon="5.65536797046661376953125">
        <ele>402.79998779296875</ele>
        <time>2025-04-29T19:57:29.000Z</time>
        <extensions>
          <ns3:TrackPointExtension/>
        </extensions>
      </trkpt>
      <trkpt lat="50.140974931418895721435546875" lon="5.6553409807384014129638671875">
        <ele>401.399993896484375</ele>
        <time>2025-04-29T19:57:32.000Z</time>
        <extensions>
          <ns3:TrackPointExtension/>
        </extensions>
      </trkpt>
      <trkpt lat="50.1416409574449062347412109375" lon="5.6551869213581085205078125">
        <ele>397.399993896484375</ele>
        <time>2025-04-29T19:57:35.000Z</time>
        <extensions>
          <ns3:TrackPointExtension/>
        </extensions>
      </trkpt>
      <trkpt lat="50.141892917454242706298828125" lon="5.655189938843250274658203125">
        <ele>395.79998779296875</ele>
        <time>2025-04-29T19:57:38.000Z</time>
        <extensions>
          <ns3:TrackPointExtension/>
        </extensions>
      </trkpt>
      <trkpt lat="50.1421029679477214813232421875" lon="5.65529999323189258575439453125">
        <ele>395</ele>
        <time>2025-04-29T19:57:41.000Z</time>
        <extensions>
          <ns3:TrackPointExtension/>
        </extensions>
      </trkpt>
      <trkpt lat="50.1422709412872791290283203125" lon="5.6554489396512508392333984375">
        <ele>394</ele>
        <time>2025-04-29T19:57:45.000Z</time>
        <extensions>
          <ns3:TrackPointExtension/>
        </extensions>
      </trkpt>
      <trkpt lat="50.142468921840190887451171875" lon="5.6557909213006496429443359375">
        <ele>392.79998779296875</ele>
        <time>2025-04-29T19:57:48.000Z</time>
        <extensions>
          <ns3:TrackPointExtension/>
        </extensions>
      </trkpt>
      <trkpt lat="50.1425649784505367279052734375" lon="5.65610096789896488189697265625">
        <ele>391.600006103515625</ele>
        <time>2025-04-29T19:57:51.000Z</time>
        <extensions>
          <ns3:TrackPointExtension/>
        </extensions>
      </trkpt>
      <trkpt lat="50.14334692619740962982177734375" lon="5.65919992513954639434814453125">
        <ele>373.600006103515625</ele>
        <time>2025-04-29T19:57:54.000Z</time>
        <extensions>
          <ns3:TrackPointExtension/>
        </extensions>
      </trkpt>
      <trkpt lat="50.143512971699237823486328125" lon="5.659799985587596893310546875">
        <ele>375.20001220703125</ele>
        <time>2025-04-29T19:57:58.000Z</time>
        <extensions>
          <ns3:TrackPointExtension/>
        </extensions>
      </trkpt>
      <trkpt lat="50.144312940537929534912109375" lon="5.6624109484255313873291015625">
        <ele>364.399993896484375</ele>
        <time>2025-04-29T19:58:01.000Z</time>
        <extensions>
          <ns3:TrackPointExtension/>
        </extensions>
      </trkpt>
      <trkpt lat="50.14444193802773952484130859375" lon="5.66277497448027133941650390625">
        <ele>364</ele>
        <time>2025-04-29T19:58:04.000Z</time>
        <extensions>
          <ns3:TrackPointExtension/>
        </extensions>
      </trkpt>
      <trkpt lat="50.14464595355093479156494140625" lon="5.663129948079586029052734375">
        <ele>361.600006103515625</ele>
        <time>2025-04-29T19:58:07.000Z</time>
        <extensions>
          <ns3:TrackPointExtension/>
        </extensions>
      </trkpt>
      <trkpt lat="50.14547693543136119842529296875" lon="5.66431992687284946441650390625">
        <ele>355.79998779296875</ele>
        <time>2025-04-29T19:58:11.000Z</time>
        <extensions>
          <ns3:TrackPointExtension/>
        </extensions>
      </trkpt>
      <trkpt lat="50.14574197120964527130126953125" lon="5.66481898538768291473388671875">
        <ele>354.600006103515625</ele>
        <time>2025-04-29T19:58:14.000Z</time>
        <extensions>
          <ns3:TrackPointExtension/>
        </extensions>
      </trkpt>
      <trkpt lat="50.14594799838960170745849609375" lon="5.66526196897029876708984375">
        <ele>353.399993896484375</ele>
        <time>2025-04-29T19:58:17.000Z</time>
        <extensions>
          <ns3:TrackPointExtension/>
        </extensions>
      </trkpt>
      <trkpt lat="50.1462479867041110992431640625" lon="5.6660979799926280975341796875">
        <ele>350</ele>
        <time>2025-04-29T19:58:20.000Z</time>
        <extensions>
          <ns3:TrackPointExtension/>
        </extensions>
      </trkpt>
      <trkpt lat="50.1464129425585269927978515625" lon="5.6664449907839298248291015625">
        <ele>345.20001220703125</ele>
        <time>2025-04-29T19:58:24.000Z</time>
        <extensions>
          <ns3:TrackPointExtension/>
        </extensions>
      </trkpt>
      <trkpt lat="50.14646499417722225189208984375" lon="5.6665489263832569122314453125">
        <ele>344</ele>
        <time>2025-04-29T19:58:27.000Z</time>
        <extensions>
          <ns3:TrackPointExtension/>
        </extensions>
      </trkpt>
      <trkpt lat="50.1491239853203296661376953125" lon="5.6707019917666912078857421875">
        <ele>323.600006103515625</ele>
        <time>2025-04-29T19:58:30.000Z</time>
        <extensions>
          <ns3:TrackPointExtension/>
        </extensions>
      </trkpt>
      <trkpt lat="50.14960192143917083740234375" lon="5.6714949198067188262939453125">
        <ele>324.20001220703125</ele>
        <time>2025-04-29T19:58:33.000Z</time>
        <extensions>
          <ns3:TrackPointExtension/>
        </extensions>
      </trkpt>
      <trkpt lat="50.14966495335102081298828125" lon="5.67166096530854701995849609375">
        <ele>322.399993896484375</ele>
        <time>2025-04-29T19:58:37.000Z</time>
        <extensions>
          <ns3:TrackPointExtension/>
        </extensions>
      </trkpt>
      <trkpt lat="50.1497579924762248992919921875" lon="5.67205198109149932861328125">
        <ele>317.399993896484375</ele>
        <time>2025-04-29T19:58:40.000Z</time>
        <extensions>
          <ns3:TrackPointExtension/>
        </extensions>
      </trkpt>
      <trkpt lat="50.14977894723415374755859375" lon="5.6722439266741275787353515625">
        <ele>315.79998779296875</ele>
        <time>2025-04-29T19:58:43.000Z</time>
        <extensions>
          <ns3:TrackPointExtension/>
        </extensions>
      </trkpt>
      <trkpt lat="50.149775929749011993408203125" lon="5.6724259816110134124755859375">
        <ele>316.399993896484375</ele>
        <time>2025-04-29T19:58:46.000Z</time>
        <extensions>
          <ns3:TrackPointExtension/>
        </extensions>
      </trkpt>
      <trkpt lat="50.1497469283640384674072265625" lon="5.6725889258086681365966796875">
        <ele>316.20001220703125</ele>
        <time>2025-04-29T19:58:50.000Z</time>
        <extensions>
          <ns3:TrackPointExtension/>
        </extensions>
      </trkpt>
      <trkpt lat="50.1496889255940914154052734375" lon="5.67274399101734161376953125">
        <ele>317</ele>
        <time>2025-04-29T19:58:53.000Z</time>
        <extensions>
          <ns3:TrackPointExtension/>
        </extensions>
      </trkpt>
      <trkpt lat="50.14962396584451198577880859375" lon="5.67284298129379749298095703125">
        <ele>317.79998779296875</ele>
        <time>2025-04-29T19:58:56.000Z</time>
        <extensions>
          <ns3:TrackPointExtension/>
        </extensions>
      </trkpt>
      <trkpt lat="50.14953796751797199249267578125" lon="5.67292193882167339324951171875">
        <ele>317.600006103515625</ele>
        <time>2025-04-29T19:58:59.000Z</time>
        <extensions>
          <ns3:TrackPointExtension/>
        </extensions>
      </trkpt>
      <trkpt lat="50.148629955947399139404296875" lon="5.67341697402298450469970703125">
        <ele>317.399993896484375</ele>
        <time>2025-04-29T19:59:03.000Z</time>
        <extensions>
          <ns3:TrackPointExtension/>
        </extensions>
      </trkpt>
      <trkpt lat="50.148397944867610931396484375" lon="5.67348897457122802734375">
        <ele>316</ele>
        <time>2025-04-29T19:59:06.000Z</time>
        <extensions>
          <ns3:TrackPointExtension/>
        </extensions>
      </trkpt>
      <trkpt lat="50.14778497628867626190185546875" lon="5.67350297234952449798583984375">
        <ele>318.20001220703125</ele>
        <time>2025-04-29T19:59:09.000Z</time>
        <extensions>
          <ns3:TrackPointExtension/>
        </extensions>
      </trkpt>
      <trkpt lat="50.14743997715413570404052734375" lon="5.67353499121963977813720703125">
        <ele>317</ele>
        <time>2025-04-29T19:59:12.000Z</time>
        <extensions>
          <ns3:TrackPointExtension/>
        </extensions>
      </trkpt>
      <trkpt lat="50.14694795943796634674072265625" lon="5.6736809201538562774658203125">
        <ele>310.79998779296875</ele>
        <time>2025-04-29T19:59:16.000Z</time>
        <extensions>
          <ns3:TrackPointExtension/>
        </extensions>
      </trkpt>
      <trkpt lat="50.1453279890120029449462890625" lon="5.67425499670207500457763671875">
        <ele>306.20001220703125</ele>
        <time>2025-04-29T19:59:19.000Z</time>
        <extensions>
          <ns3:TrackPointExtension/>
        </extensions>
      </trkpt>
      <trkpt lat="50.14507795684039592742919921875" lon="5.6743219681084156036376953125">
        <ele>303.399993896484375</ele>
        <time>2025-04-29T19:59:22.000Z</time>
        <extensions>
          <ns3:TrackPointExtension/>
        </extensions>
      </trkpt>
      <trkpt lat="50.14344298280775547027587890625" lon="5.67464592866599559783935546875">
        <ele>291</ele>
        <time>2025-04-29T19:59:25.000Z</time>
        <extensions>
          <ns3:TrackPointExtension/>
        </extensions>
      </trkpt>
      <trkpt lat="50.1429029367864131927490234375" lon="5.67470493726432323455810546875">
        <ele>294.20001220703125</ele>
        <time>2025-04-29T19:59:29.000Z</time>
        <extensions>
          <ns3:TrackPointExtension/>
        </extensions>
      </trkpt>
      <trkpt lat="50.14258299954235553741455078125" lon="5.67470191977918148040771484375">
        <ele>293.20001220703125</ele>
        <time>2025-04-29T19:59:32.000Z</time>
        <extensions>
          <ns3:TrackPointExtension/>
        </extensions>
      </trkpt>
      <trkpt lat="50.14142897911369800567626953125" lon="5.67459295503795146942138671875">
        <ele>283.20001220703125</ele>
        <time>2025-04-29T19:59:35.000Z</time>
        <extensions>
          <ns3:TrackPointExtension/>
        </extensions>
      </trkpt>
      <trkpt lat="50.14119093306362628936767578125" lon="5.6745149195194244384765625">
        <ele>282</ele>
        <time>2025-04-29T19:59:38.000Z</time>
        <extensions>
          <ns3:TrackPointExtension/>
        </extensions>
      </trkpt>
      <trkpt lat="50.140463970601558685302734375" lon="5.67401896230876445770263671875">
        <ele>276.79998779296875</ele>
        <time>2025-04-29T19:59:42.000Z</time>
        <extensions>
          <ns3:TrackPointExtension/>
        </extensions>
      </trkpt>
      <trkpt lat="50.14038492925465106964111328125" lon="5.6739109195768833160400390625">
        <ele>275.600006103515625</ele>
        <time>2025-04-29T19:59:45.000Z</time>
        <extensions>
          <ns3:TrackPointExtension/>
        </extensions>
      </trkpt>
      <trkpt lat="50.14024394564330577850341796875" lon="5.67359399981796741485595703125">
        <ele>273.20001220703125</ele>
        <time>2025-04-29T19:59:48.000Z</time>
        <extensions>
          <ns3:TrackPointExtension/>
        </extensions>
      </trkpt>
      <trkpt lat="50.14016699977219104766845703125" lon="5.6732209213078022003173828125">
        <ele>271.399993896484375</ele>
        <time>2025-04-29T19:59:51.000Z</time>
        <extensions>
          <ns3:TrackPointExtension/>
        </extensions>
      </trkpt>
      <trkpt lat="50.14016297645866870880126953125" lon="5.67289595492184162139892578125">
        <ele>268.79998779296875</ele>
        <time>2025-04-29T19:59:55.000Z</time>
        <extensions>
          <ns3:TrackPointExtension/>
        </extensions>
      </trkpt>
      <trkpt lat="50.14027294702827930450439453125" lon="5.6724209524691104888916015625">
        <ele>268</ele>
        <time>2025-04-29T19:59:58.000Z</time>
        <extensions>
          <ns3:TrackPointExtension/>
        </extensions>
      </trkpt>
      <trkpt lat="50.140288956463336944580078125" lon="5.6722999177873134613037109375">
        <ele>267.600006103515625</ele>
        <time>2025-04-29T20:00:01.000Z</time>
        <extensions>
          <ns3:TrackPointExtension/>
        </extensions>
      </trkpt>
      <trkpt lat="50.14028099365532398223876953125" lon="5.67215398885309696197509765625">
        <ele>266.600006103515625</ele>
        <time>2025-04-29T20:00:04.000Z</time>
        <extensions>
          <ns3:TrackPointExtension/>
        </extensions>
      </trkpt>
      <trkpt lat="50.14013498090207576751708984375" lon="5.671409927308559417724609375">
        <ele>270.399993896484375</ele>
        <time>2025-04-29T20:00:08.000Z</time>
        <extensions>
          <ns3:TrackPointExtension/>
        </extensions>
      </trkpt>
      <trkpt lat="50.140111930668354034423828125" lon="5.67134195007383823394775390625">
        <ele>272.399993896484375</ele>
        <time>2025-04-29T20:00:11.000Z</time>
        <extensions>
          <ns3:TrackPointExtension/>
        </extensions>
      </trkpt>
      <trkpt lat="50.14005099423229694366455078125" lon="5.67125896923243999481201171875">
        <ele>275.600006103515625</ele>
        <time>2025-04-29T20:00:14.000Z</time>
        <extensions>
          <ns3:TrackPointExtension/>
        </extensions>
      </trkpt>
      <trkpt lat="50.1399199850857257843017578125" lon="5.67125293426215648651123046875">
        <ele>278.20001220703125</ele>
        <time>2025-04-29T20:00:17.000Z</time>
        <extensions>
          <ns3:TrackPointExtension/>
        </extensions>
      </trkpt>
      <trkpt lat="50.139828957617282867431640625" lon="5.6713249348104000091552734375">
        <ele>280.20001220703125</ele>
        <time>2025-04-29T20:00:21.000Z</time>
        <extensions>
          <ns3:TrackPointExtension/>
        </extensions>
      </trkpt>
      <trkpt lat="50.13964899815618991851806640625" lon="5.6716159544885158538818359375">
        <ele>285.20001220703125</ele>
        <time>2025-04-29T20:00:24.000Z</time>
        <extensions>
          <ns3:TrackPointExtension/>
        </extensions>
      </trkpt>
      <trkpt lat="50.13955495320260524749755859375" lon="5.67182592116296291351318359375">
        <ele>290.399993896484375</ele>
        <time>2025-04-29T20:00:27.000Z</time>
        <extensions>
          <ns3:TrackPointExtension/>
        </extensions>
      </trkpt>
      <trkpt lat="50.13940692879259586334228515625" lon="5.67226295359432697296142578125">
        <ele>300.79998779296875</ele>
        <time>2025-04-29T20:00:30.000Z</time>
        <extensions>
          <ns3:TrackPointExtension/>
        </extensions>
      </trkpt>
      <trkpt lat="50.139370970427989959716796875" lon="5.67245791666209697723388671875">
        <ele>303.399993896484375</ele>
        <time>2025-04-29T20:00:34.000Z</time>
        <extensions>
          <ns3:TrackPointExtension/>
        </extensions>
      </trkpt>
      <trkpt lat="50.13935596682131290435791015625" lon="5.67268992774188518524169921875">
        <ele>302.79998779296875</ele>
        <time>2025-04-29T20:00:37.000Z</time>
        <extensions>
          <ns3:TrackPointExtension/>
        </extensions>
      </trkpt>
      <trkpt lat="50.1393659412860870361328125" lon="5.673251934349536895751953125">
        <ele>300</ele>
        <time>2025-04-29T20:00:40.000Z</time>
        <extensions>
          <ns3:TrackPointExtension/>
        </extensions>
      </trkpt>
      <trkpt lat="50.13938496820628643035888671875" lon="5.67355494014918804168701171875">
        <ele>299.79998779296875</ele>
        <time>2025-04-29T20:00:43.000Z</time>
        <extensions>
          <ns3:TrackPointExtension/>
        </extensions>
      </trkpt>
      <trkpt lat="50.139425955712795257568359375" lon="5.6738599576056003570556640625">
        <ele>296</ele>
        <time>2025-04-29T20:00:47.000Z</time>
        <extensions>
          <ns3:TrackPointExtension/>
        </extensions>
      </trkpt>
      <trkpt lat="50.1395089365541934967041015625" lon="5.674171932041645050048828125">
        <ele>291.79998779296875</ele>
        <time>2025-04-29T20:00:50.000Z</time>
        <extensions>
          <ns3:TrackPointExtension/>
        </extensions>
      </trkpt>
      <trkpt lat="50.1396339945495128631591796875" lon="5.67451198585331439971923828125">
        <ele>291</ele>
        <time>2025-04-29T20:00:53.000Z</time>
        <extensions>
          <ns3:TrackPointExtension/>
        </extensions>
      </trkpt>
      <trkpt lat="50.139946974813938140869140625" lon="5.67516292445361614227294921875">
        <ele>299.399993896484375</ele>
        <time>2025-04-29T20:00:56.000Z</time>
        <extensions>
          <ns3:TrackPointExtension/>
        </extensions>
      </trkpt>
      <trkpt lat="50.1404879428446292877197265625" lon="5.67577497102320194244384765625">
        <ele>299</ele>
        <time>2025-04-29T20:00:59.000Z</time>
        <extensions>
          <ns3:TrackPointExtension/>
        </extensions>
      </trkpt>
      <trkpt lat="50.14078793115913867950439453125" lon="5.67617093212902545928955078125">
        <ele>303.399993896484375</ele>
        <time>2025-04-29T20:01:03.000Z</time>
        <extensions>
          <ns3:TrackPointExtension/>
        </extensions>
      </trkpt>
      <trkpt lat="50.14099596999585628509521484375" lon="5.67634695209562778472900390625">
        <ele>302.600006103515625</ele>
        <time>2025-04-29T20:01:06.000Z</time>
        <extensions>
          <ns3:TrackPointExtension/>
        </extensions>
      </trkpt>
      <trkpt lat="50.14139193110167980194091796875" lon="5.67654292099177837371826171875">
        <ele>301.79998779296875</ele>
        <time>2025-04-29T20:01:09.000Z</time>
        <extensions>
          <ns3:TrackPointExtension/>
        </extensions>
      </trkpt>
      <trkpt lat="50.14190993271768093109130859375" lon="5.6771059334278106689453125">
        <ele>310.20001220703125</ele>
        <time>2025-04-29T20:01:12.000Z</time>
        <extensions>
          <ns3:TrackPointExtension/>
        </extensions>
      </trkpt>
      <trkpt lat="50.14206198044121265411376953125" lon="5.67723291926085948944091796875">
        <ele>310.20001220703125</ele>
        <time>2025-04-29T20:01:16.000Z</time>
        <extensions>
          <ns3:TrackPointExtension/>
        </extensions>
      </trkpt>
      <trkpt lat="50.14222391881048679351806640625" lon="5.67732696421444416046142578125">
        <ele>311.399993896484375</ele>
        <time>2025-04-29T20:01:19.000Z</time>
        <extensions>
          <ns3:TrackPointExtension/>
        </extensions>
      </trkpt>
      <trkpt lat="50.1423949934542179107666015625" lon="5.67738597281277179718017578125">
        <ele>312.79998779296875</ele>
        <time>2025-04-29T20:01:22.000Z</time>
        <extensions>
          <ns3:TrackPointExtension/>
        </extensions>
      </trkpt>
      <trkpt lat="50.14270596206188201904296875" lon="5.67743391729891300201416015625">
        <ele>313.600006103515625</ele>
        <time>2025-04-29T20:01:25.000Z</time>
        <extensions>
          <ns3:TrackPointExtension/>
        </extensions>
      </trkpt>
      <trkpt lat="50.14285993762314319610595703125" lon="5.67740994505584239959716796875">
        <ele>311.20001220703125</ele>
        <time>2025-04-29T20:01:29.000Z</time>
        <extensions>
          <ns3:TrackPointExtension/>
        </extensions>
      </trkpt>
      <trkpt lat="50.14320896007120609283447265625" lon="5.67729695700109004974365234375">
        <ele>305.79998779296875</ele>
        <time>2025-04-29T20:01:32.000Z</time>
        <extensions>
          <ns3:TrackPointExtension/>
        </extensions>
      </trkpt>
      <trkpt lat="50.14331893064081668853759765625" lon="5.67729595117270946502685546875">
        <ele>305</ele>
        <time>2025-04-29T20:01:35.000Z</time>
        <extensions>
          <ns3:TrackPointExtension/>
        </extensions>
      </trkpt>
      <trkpt lat="50.14341297559440135955810546875" lon="5.67732394672930240631103515625">
        <ele>304.79998779296875</ele>
        <time>2025-04-29T20:01:38.000Z</time>
        <extensions>
          <ns3:TrackPointExtension/>
        </extensions>
      </trkpt>
      <trkpt lat="50.143563933670520782470703125" lon="5.6774839572608470916748046875">
        <ele>307</ele>
        <time>2025-04-29T20:01:42.000Z</time>
        <extensions>
          <ns3:TrackPointExtension/>
        </extensions>
      </trkpt>
      <trkpt lat="50.143624953925609588623046875" lon="5.67761396057903766632080078125">
        <ele>308</ele>
        <time>2025-04-29T20:01:45.000Z</time>
        <extensions>
          <ns3:TrackPointExtension/>
        </extensions>
      </trkpt>
      <trkpt lat="50.1436579786241054534912109375" lon="5.67776399664580821990966796875">
        <ele>309</ele>
        <time>2025-04-29T20:01:48.000Z</time>
        <extensions>
          <ns3:TrackPointExtension/>
        </extensions>
      </trkpt>
      <trkpt lat="50.14366594143211841583251953125" lon="5.6779479794204235076904296875">
        <ele>309.600006103515625</ele>
        <time>2025-04-29T20:01:51.000Z</time>
        <extensions>
          <ns3:TrackPointExtension/>
        </extensions>
      </trkpt>
      <trkpt lat="50.14337492175400257110595703125" lon="5.67945295013487339019775390625">
        <ele>318.79998779296875</ele>
        <time>2025-04-29T20:01:55.000Z</time>
        <extensions>
          <ns3:TrackPointExtension/>
        </extensions>
      </trkpt>
      <trkpt lat="50.14294694177806377410888671875" lon="5.68092497996985912322998046875">
        <ele>331.79998779296875</ele>
        <time>2025-04-29T20:01:58.000Z</time>
        <extensions>
          <ns3:TrackPointExtension/>
        </extensions>
      </trkpt>
      <trkpt lat="50.1426779665052890777587890625" lon="5.6819149665534496307373046875">
        <ele>334.20001220703125</ele>
        <time>2025-04-29T20:02:01.000Z</time>
        <extensions>
          <ns3:TrackPointExtension/>
        </extensions>
      </trkpt>
      <trkpt lat="50.14256891794502735137939453125" lon="5.68235493265092372894287109375">
        <ele>334</ele>
        <time>2025-04-29T20:02:04.000Z</time>
        <extensions>
          <ns3:TrackPointExtension/>
        </extensions>
      </trkpt>
      <trkpt lat="50.1424969173967838287353515625" lon="5.6828289292752742767333984375">
        <ele>333.600006103515625</ele>
        <time>2025-04-29T20:02:08.000Z</time>
        <extensions>
          <ns3:TrackPointExtension/>
        </extensions>
      </trkpt>
      <trkpt lat="50.1424719393253326416015625" lon="5.68333092145621776580810546875">
        <ele>335.600006103515625</ele>
        <time>2025-04-29T20:02:11.000Z</time>
        <extensions>
          <ns3:TrackPointExtension/>
        </extensions>
      </trkpt>
      <trkpt lat="50.14248493127524852752685546875" lon="5.684879980981349945068359375">
        <ele>344.399993896484375</ele>
        <time>2025-04-29T20:02:14.000Z</time>
        <extensions>
          <ns3:TrackPointExtension/>
        </extensions>
      </trkpt>
      <trkpt lat="50.14251795597374439239501953125" lon="5.6856009922921657562255859375">
        <ele>344.79998779296875</ele>
        <time>2025-04-29T20:02:17.000Z</time>
        <extensions>
          <ns3:TrackPointExtension/>
        </extensions>
      </trkpt>
      <trkpt lat="50.14291492290794849395751953125" lon="5.68863398395478725433349609375">
        <ele>360.399993896484375</ele>
        <time>2025-04-29T20:02:21.000Z</time>
        <extensions>
          <ns3:TrackPointExtension/>
        </extensions>
      </trkpt>
      <trkpt lat="50.1429039426147937774658203125" lon="5.68897495977580547332763671875">
        <ele>361.399993896484375</ele>
        <time>2025-04-29T20:02:24.000Z</time>
        <extensions>
          <ns3:TrackPointExtension/>
        </extensions>
      </trkpt>
      <trkpt lat="50.1428429223597049713134765625" lon="5.68923295475542545318603515625">
        <ele>361.600006103515625</ele>
        <time>2025-04-29T20:02:27.000Z</time>
        <extensions>
          <ns3:TrackPointExtension/>
        </extensions>
      </trkpt>
      <trkpt lat="50.14148195274174213409423828125" lon="5.69340798072516918182373046875">
        <ele>376.399993896484375</ele>
        <time>2025-04-29T20:02:30.000Z</time>
        <extensions>
          <ns3:TrackPointExtension/>
        </extensions>
      </trkpt>
      <trkpt lat="50.14143199659883975982666015625" lon="5.6935949809849262237548828125">
        <ele>376.399993896484375</ele>
        <time>2025-04-29T20:02:34.000Z</time>
        <extensions>
          <ns3:TrackPointExtension/>
        </extensions>
      </trkpt>
      <trkpt lat="50.14136192388832569122314453125" lon="5.69400695152580738067626953125">
        <ele>375</ele>
        <time>2025-04-29T20:02:37.000Z</time>
        <extensions>
          <ns3:TrackPointExtension/>
        </extensions>
      </trkpt>
      <trkpt lat="50.1411829702556133270263671875" lon="5.695463977754116058349609375">
        <ele>381.399993896484375</ele>
        <time>2025-04-29T20:02:40.000Z</time>
        <extensions>
          <ns3:TrackPointExtension/>
        </extensions>
      </trkpt>
      <trkpt lat="50.141153968870639801025390625" lon="5.69602397270500659942626953125">
        <ele>382</ele>
        <time>2025-04-29T20:02:43.000Z</time>
        <extensions>
          <ns3:TrackPointExtension/>
        </extensions>
      </trkpt>
      <trkpt lat="50.14118992723524570465087890625" lon="5.69636997766792774200439453125">
        <ele>382.79998779296875</ele>
        <time>2025-04-29T20:02:47.000Z</time>
        <extensions>
          <ns3:TrackPointExtension/>
        </extensions>
      </trkpt>
      <trkpt lat="50.14122194610536098480224609375" lon="5.69653795100748538970947265625">
        <ele>383</ele>
        <time>2025-04-29T20:02:50.000Z</time>
        <extensions>
          <ns3:TrackPointExtension/>
        </extensions>
      </trkpt>
      <trkpt lat="50.14132797718048095703125" lon="5.69691195152699947357177734375">
        <ele>383.20001220703125</ele>
        <time>2025-04-29T20:02:53.000Z</time>
        <extensions>
          <ns3:TrackPointExtension/>
        </extensions>
      </trkpt>
      <trkpt lat="50.14142394997179508209228515625" lon="5.6971929967403411865234375">
        <ele>383</ele>
        <time>2025-04-29T20:02:56.000Z</time>
        <extensions>
          <ns3:TrackPointExtension/>
        </extensions>
      </trkpt>
      <trkpt lat="50.14193893410265445709228515625" lon="5.6984509527683258056640625">
        <ele>384.79998779296875</ele>
        <time>2025-04-29T20:03:00.000Z</time>
        <extensions>
          <ns3:TrackPointExtension/>
        </extensions>
      </trkpt>
      <trkpt lat="50.1427879370748996734619140625" lon="5.69981091655790805816650390625">
        <ele>391.20001220703125</ele>
        <time>2025-04-29T20:03:03.000Z</time>
        <extensions>
          <ns3:TrackPointExtension/>
        </extensions>
      </trkpt>
      <trkpt lat="50.1429099775850772857666015625" lon="5.699953995645046234130859375">
        <ele>391.399993896484375</ele>
        <time>2025-04-29T20:03:06.000Z</time>
        <extensions>
          <ns3:TrackPointExtension/>
        </extensions>
      </trkpt>
      <trkpt lat="50.14332194812595844268798828125" lon="5.700295977294445037841796875">
        <ele>392.20001220703125</ele>
        <time>2025-04-29T20:03:09.000Z</time>
        <extensions>
          <ns3:TrackPointExtension/>
        </extensions>
      </trkpt>
      <trkpt lat="50.14354792423546314239501953125" lon="5.70057299919426441192626953125">
        <ele>394.79998779296875</ele>
        <time>2025-04-29T20:03:13.000Z</time>
        <extensions>
          <ns3:TrackPointExtension/>
        </extensions>
      </trkpt>
      <trkpt lat="50.1452689804136753082275390625" lon="5.70361395366489887237548828125">
        <ele>406.79998779296875</ele>
        <time>2025-04-29T20:03:16.000Z</time>
        <extensions>
          <ns3:TrackPointExtension/>
        </extensions>
      </trkpt>
      <trkpt lat="50.1450289227068424224853515625" lon="5.70568394847214221954345703125">
        <ele>408.399993896484375</ele>
        <time>2025-04-29T20:03:21.000Z</time>
        <extensions>
          <ns3:TrackPointExtension/>
        </extensions>
      </trkpt>
      <trkpt lat="50.14498491771519184112548828125" lon="5.70597899146378040313720703125">
        <ele>408.399993896484375</ele>
        <time>2025-04-29T20:03:26.000Z</time>
        <extensions>
          <ns3:TrackPointExtension/>
        </extensions>
      </trkpt>
      <trkpt lat="50.14492792077362537384033203125" lon="5.70622491650283336639404296875">
        <ele>409</ele>
        <time>2025-04-29T20:03:31.000Z</time>
        <extensions>
          <ns3:TrackPointExtension/>
        </extensions>
      </trkpt>
      <trkpt lat="50.14460094273090362548828125" lon="5.70703594945371150970458984375">
        <ele>410.20001220703125</ele>
        <time>2025-04-29T20:03:36.000Z</time>
        <extensions>
          <ns3:TrackPointExtension/>
        </extensions>
      </trkpt>
      <trkpt lat="50.14432894997298717498779296875" lon="5.7080879621207714080810546875">
        <ele>416</ele>
        <time>2025-04-29T20:03:42.000Z</time>
        <extensions>
          <ns3:TrackPointExtension/>
        </extensions>
      </trkpt>
      <trkpt lat="50.1441179774701595306396484375" lon="5.70901692844927310943603515625">
        <ele>415.79998779296875</ele>
        <time>2025-04-29T20:03:47.000Z</time>
        <extensions>
          <ns3:TrackPointExtension/>
        </extensions>
      </trkpt>
      <trkpt lat="50.14403499662876129150390625" lon="5.7093219459056854248046875">
        <ele>415.20001220703125</ele>
        <time>2025-04-29T20:03:52.000Z</time>
        <extensions>
          <ns3:TrackPointExtension/>
        </extensions>
      </trkpt>
      <trkpt lat="50.14387498609721660614013671875" lon="5.7097779214382171630859375">
        <ele>415</ele>
        <time>2025-04-29T20:03:57.000Z</time>
        <extensions>
          <ns3:TrackPointExtension/>
        </extensions>
      </trkpt>
      <trkpt lat="50.1436589844524860382080078125" lon="5.710183940827846527099609375">
        <ele>414.600006103515625</ele>
        <time>2025-04-29T20:04:02.000Z</time>
        <extensions>
          <ns3:TrackPointExtension/>
        </extensions>
      </trkpt>
      <trkpt lat="50.14361095614731311798095703125" lon="5.7103299535810947418212890625">
        <ele>414</ele>
        <time>2025-04-29T20:04:07.000Z</time>
        <extensions>
          <ns3:TrackPointExtension/>
        </extensions>
      </trkpt>
      <trkpt lat="50.1435929350554943084716796875" lon="5.71046699769794940948486328125">
        <ele>413.79998779296875</ele>
        <time>2025-04-29T20:04:12.000Z</time>
        <extensions>
          <ns3:TrackPointExtension/>
        </extensions>
      </trkpt>
      <trkpt lat="50.1435999758541584014892578125" lon="5.71059993468225002288818359375">
        <ele>413.600006103515625</ele>
        <time>2025-04-29T20:04:17.000Z</time>
        <extensions>
          <ns3:TrackPointExtension/>
        </extensions>
      </trkpt>
      <trkpt lat="50.1436609961092472076416015625" lon="5.71085893549025058746337890625">
        <ele>412.600006103515625</ele>
        <time>2025-04-29T20:04:22.000Z</time>
        <extensions>
          <ns3:TrackPointExtension/>
        </extensions>
      </trkpt>
      <trkpt lat="50.1438339985907077789306640625" lon="5.71146695874631404876708984375">
        <ele>408.20001220703125</ele>
        <time>2025-04-29T20:04:28.000Z</time>
        <extensions>
          <ns3:TrackPointExtension/>
        </extensions>
      </trkpt>
      <trkpt lat="50.14418494887650012969970703125" lon="5.7124639861285686492919921875">
        <ele>405.600006103515625</ele>
        <time>2025-04-29T20:04:33.000Z</time>
        <extensions>
          <ns3:TrackPointExtension/>
        </extensions>
      </trkpt>
      <trkpt lat="50.1443459652364253997802734375" lon="5.71302498690783977508544921875">
        <ele>403.600006103515625</ele>
        <time>2025-04-29T20:04:38.000Z</time>
        <extensions>
          <ns3:TrackPointExtension/>
        </extensions>
      </trkpt>
      <trkpt lat="50.14447596855461597442626953125" lon="5.7136059366166591644287109375">
        <ele>401.20001220703125</ele>
        <time>2025-04-29T20:04:43.000Z</time>
        <extensions>
          <ns3:TrackPointExtension/>
        </extensions>
      </trkpt>
      <trkpt lat="50.14465098269283771514892578125" lon="5.7146449573338031768798828125">
        <ele>397.20001220703125</ele>
        <time>2025-04-29T20:04:48.000Z</time>
        <extensions>
          <ns3:TrackPointExtension/>
        </extensions>
      </trkpt>
      <trkpt lat="50.144890956580638885498046875" lon="5.71546697057783603668212890625">
        <ele>392</ele>
        <time>2025-04-29T20:04:53.000Z</time>
        <extensions>
          <ns3:TrackPointExtension/>
        </extensions>
      </trkpt>
      <trkpt lat="50.1451439224183559417724609375" lon="5.716517977416515350341796875">
        <ele>386.20001220703125</ele>
        <time>2025-04-29T20:04:58.000Z</time>
        <extensions>
          <ns3:TrackPointExtension/>
        </extensions>
      </trkpt>
      <trkpt lat="50.14522799290716648101806640625" lon="5.716920979321002960205078125">
        <ele>385.20001220703125</ele>
        <time>2025-04-29T20:05:03.000Z</time>
        <extensions>
          <ns3:TrackPointExtension/>
        </extensions>
      </trkpt>
      <trkpt lat="50.1452589221298694610595703125" lon="5.717150978744029998779296875">
        <ele>385</ele>
        <time>2025-04-29T20:05:09.000Z</time>
        <extensions>
          <ns3:TrackPointExtension/>
        </extensions>
      </trkpt>
      <trkpt lat="50.14525297097861766815185546875" lon="5.717427916824817657470703125">
        <ele>384.20001220703125</ele>
        <time>2025-04-29T20:05:14.000Z</time>
        <extensions>
          <ns3:TrackPointExtension/>
        </extensions>
      </trkpt>
      <trkpt lat="50.1452079601585865020751953125" lon="5.71756697259843349456787109375">
        <ele>384.20001220703125</ele>
        <time>2025-04-29T20:05:19.000Z</time>
        <extensions>
          <ns3:TrackPointExtension/>
        </extensions>
      </trkpt>
      <trkpt lat="50.1449249871075153350830078125" lon="5.7182069309055805206298828125">
        <ele>379.79998779296875</ele>
        <time>2025-04-29T20:05:24.000Z</time>
        <extensions>
          <ns3:TrackPointExtension/>
        </extensions>
      </trkpt>
      <trkpt lat="50.14484493993222713470458984375" lon="5.71851697750389575958251953125">
        <ele>378.600006103515625</ele>
        <time>2025-04-29T20:05:29.000Z</time>
        <extensions>
          <ns3:TrackPointExtension/>
        </extensions>
      </trkpt>
      <trkpt lat="50.1448019407689571380615234375" lon="5.7190169580280780792236328125">
        <ele>378.600006103515625</ele>
        <time>2025-04-29T20:05:34.000Z</time>
        <extensions>
          <ns3:TrackPointExtension/>
        </extensions>
      </trkpt>
      <trkpt lat="50.14424395747482776641845703125" lon="5.71905392222106456756591796875">
        <ele>375.79998779296875</ele>
        <time>2025-04-29T20:05:36.000Z</time>
        <extensions>
          <ns3:TrackPointExtension/>
        </extensions>
      </trkpt>
      <trkpt lat="50.144029967486858367919921875" lon="5.71902994997799396514892578125">
        <ele>375.20001220703125</ele>
        <time>2025-04-29T20:05:38.000Z</time>
        <extensions>
          <ns3:TrackPointExtension/>
        </extensions>
      </trkpt>
      <trkpt lat="50.14390893280506134033203125" lon="5.71897999383509159088134765625">
        <ele>374.600006103515625</ele>
        <time>2025-04-29T20:05:40.000Z</time>
        <extensions>
          <ns3:TrackPointExtension/>
        </extensions>
      </trkpt>
      <trkpt lat="50.14284099452197551727294921875" lon="5.7180919311940670013427734375">
        <ele>366.399993896484375</ele>
        <time>2025-04-29T20:05:42.000Z</time>
        <extensions>
          <ns3:TrackPointExtension/>
        </extensions>
      </trkpt>
      <trkpt lat="50.14214898459613323211669921875" lon="5.71773293428122997283935546875">
        <ele>363.79998779296875</ele>
        <time>2025-04-29T20:05:44.000Z</time>
        <extensions>
          <ns3:TrackPointExtension/>
        </extensions>
      </trkpt>
      <trkpt lat="50.141841955482959747314453125" lon="5.7176329381763935089111328125">
        <ele>361.79998779296875</ele>
        <time>2025-04-29T20:05:46.000Z</time>
        <extensions>
          <ns3:TrackPointExtension/>
        </extensions>
      </trkpt>
      <trkpt lat="50.1415769197046756744384765625" lon="5.71759295649826526641845703125">
        <ele>360.399993896484375</ele>
        <time>2025-04-29T20:05:48.000Z</time>
        <extensions>
          <ns3:TrackPointExtension/>
        </extensions>
      </trkpt>
      <trkpt lat="50.14069497585296630859375" lon="5.71755993179976940155029296875">
        <ele>354</ele>
        <time>2025-04-29T20:05:50.000Z</time>
        <extensions>
          <ns3:TrackPointExtension/>
        </extensions>
      </trkpt>
      <trkpt lat="50.14055793173611164093017578125" lon="5.71753294207155704498291015625">
        <ele>353.600006103515625</ele>
        <time>2025-04-29T20:05:52.000Z</time>
        <extensions>
          <ns3:TrackPointExtension/>
        </extensions>
      </trkpt>
      <trkpt lat="50.14044393785297870635986328125" lon="5.71747594512999057769775390625">
        <ele>352.79998779296875</ele>
        <time>2025-04-29T20:05:54.000Z</time>
        <extensions>
          <ns3:TrackPointExtension/>
        </extensions>
      </trkpt>
      <trkpt lat="50.14021092094480991363525390625" lon="5.71730394847691059112548828125">
        <ele>349.399993896484375</ele>
        <time>2025-04-29T20:05:57.000Z</time>
        <extensions>
          <ns3:TrackPointExtension/>
        </extensions>
      </trkpt>
      <trkpt lat="50.13950399123132228851318359375" lon="5.7164239324629306793212890625">
        <ele>339.399993896484375</ele>
        <time>2025-04-29T20:05:59.000Z</time>
        <extensions>
          <ns3:TrackPointExtension/>
        </extensions>
      </trkpt>
      <trkpt lat="50.13941195793449878692626953125" lon="5.71632997132837772369384765625">
        <ele>338</ele>
        <time>2025-04-29T20:06:01.000Z</time>
        <extensions>
          <ns3:TrackPointExtension/>
        </extensions>
      </trkpt>
      <trkpt lat="50.13931992463767528533935546875" lon="5.71626895107328891754150390625">
        <ele>337</ele>
        <time>2025-04-29T20:06:03.000Z</time>
        <extensions>
          <ns3:TrackPointExtension/>
        </extensions>
      </trkpt>
      <trkpt lat="50.139081962406635284423828125" lon="5.71621195413172245025634765625">
        <ele>335.79998779296875</ele>
        <time>2025-04-29T20:06:05.000Z</time>
        <extensions>
          <ns3:TrackPointExtension/>
        </extensions>
      </trkpt>
      <trkpt lat="50.1389439962804317474365234375" lon="5.71621698327362537384033203125">
        <ele>336.600006103515625</ele>
        <time>2025-04-29T20:06:07.000Z</time>
        <extensions>
          <ns3:TrackPointExtension/>
        </extensions>
      </trkpt>
      <trkpt lat="50.1386439241468906402587890625" lon="5.7162849605083465576171875">
        <ele>337.399993896484375</ele>
        <time>2025-04-29T20:06:09.000Z</time>
        <extensions>
          <ns3:TrackPointExtension/>
        </extensions>
      </trkpt>
      <trkpt lat="50.1385399885475635528564453125" lon="5.7163359224796295166015625">
        <ele>337</ele>
        <time>2025-04-29T20:06:11.000Z</time>
        <extensions>
          <ns3:TrackPointExtension/>
        </extensions>
      </trkpt>
      <trkpt lat="50.138454996049404144287109375" lon="5.71641999296844005584716796875">
        <ele>337</ele>
        <time>2025-04-29T20:06:13.000Z</time>
        <extensions>
          <ns3:TrackPointExtension/>
        </extensions>
      </trkpt>
      <trkpt lat="50.13808493502438068389892578125" lon="5.71690597571432590484619140625">
        <ele>337.399993896484375</ele>
        <time>2025-04-29T20:06:15.000Z</time>
        <extensions>
          <ns3:TrackPointExtension/>
        </extensions>
      </trkpt>
      <trkpt lat="50.13769199140369892120361328125" lon="5.71724493987858295440673828125">
        <ele>330.20001220703125</ele>
        <time>2025-04-29T20:06:17.000Z</time>
        <extensions>
          <ns3:TrackPointExtension/>
        </extensions>
      </trkpt>
      <trkpt lat="50.137644968926906585693359375" lon="5.717321969568729400634765625">
        <ele>329.20001220703125</ele>
        <time>2025-04-29T20:06:19.000Z</time>
        <extensions>
          <ns3:TrackPointExtension/>
        </extensions>
      </trkpt>
      <trkpt lat="50.1376139558851718902587890625" lon="5.71753193624317646026611328125">
        <ele>328.600006103515625</ele>
        <time>2025-04-29T20:06:21.000Z</time>
        <extensions>
          <ns3:TrackPointExtension/>
        </extensions>
      </trkpt>
      <trkpt lat="50.1376159675419330596923828125" lon="5.71762095205485820770263671875">
        <ele>328.79998779296875</ele>
        <time>2025-04-29T20:06:23.000Z</time>
        <extensions>
          <ns3:TrackPointExtension/>
        </extensions>
      </trkpt>
      <trkpt lat="50.13769199140369892120361328125" lon="5.717840977013111114501953125">
        <ele>332.600006103515625</ele>
        <time>2025-04-29T20:06:25.000Z</time>
        <extensions>
          <ns3:TrackPointExtension/>
        </extensions>
      </trkpt>
      <trkpt lat="50.13781897723674774169921875" lon="5.718061923980712890625">
        <ele>337.399993896484375</ele>
        <time>2025-04-29T20:06:27.000Z</time>
        <extensions>
          <ns3:TrackPointExtension/>
        </extensions>
      </trkpt>
      <trkpt lat="50.13794797472655773162841796875" lon="5.71834296919405460357666015625">
        <ele>339.399993896484375</ele>
        <time>2025-04-29T20:06:29.000Z</time>
        <extensions>
          <ns3:TrackPointExtension/>
        </extensions>
      </trkpt>
      <trkpt lat="50.1381309516727924346923828125" lon="5.719104968011379241943359375">
        <ele>329.20001220703125</ele>
        <time>2025-04-29T20:06:31.000Z</time>
        <extensions>
          <ns3:TrackPointExtension/>
        </extensions>
      </trkpt>
      <trkpt lat="50.13835097663104534149169921875" lon="5.71991197764873504638671875">
        <ele>329.399993896484375</ele>
        <time>2025-04-29T20:06:33.000Z</time>
        <extensions>
          <ns3:TrackPointExtension/>
        </extensions>
      </trkpt>
      <trkpt lat="50.1383949816226959228515625" lon="5.7201619260013103485107421875">
        <ele>329.20001220703125</ele>
        <time>2025-04-29T20:06:35.000Z</time>
        <extensions>
          <ns3:TrackPointExtension/>
        </extensions>
      </trkpt>
      <trkpt lat="50.1384129188954830169677734375" lon="5.72043391875922679901123046875">
        <ele>328</ele>
        <time>2025-04-29T20:06:37.000Z</time>
        <extensions>
          <ns3:TrackPointExtension/>
        </extensions>
      </trkpt>
      <trkpt lat="50.13839296996593475341796875" lon="5.72139096446335315704345703125">
        <ele>325.79998779296875</ele>
        <time>2025-04-29T20:06:39.000Z</time>
        <extensions>
          <ns3:TrackPointExtension/>
        </extensions>
      </trkpt>
      <trkpt lat="50.1383649744093418121337890625" lon="5.721573941409587860107421875">
        <ele>325</ele>
        <time>2025-04-29T20:06:41.000Z</time>
        <extensions>
          <ns3:TrackPointExtension/>
        </extensions>
      </trkpt>
      <trkpt lat="50.13821099884808063507080078125" lon="5.72225597687065601348876953125">
        <ele>324.399993896484375</ele>
        <time>2025-04-29T20:06:43.000Z</time>
        <extensions>
          <ns3:TrackPointExtension/>
        </extensions>
      </trkpt>
      <trkpt lat="50.1381589472293853759765625" lon="5.72240198962390422821044921875">
        <ele>324</ele>
        <time>2025-04-29T20:06:45.000Z</time>
        <extensions>
          <ns3:TrackPointExtension/>
        </extensions>
      </trkpt>
      <trkpt lat="50.13808895833790302276611328125" lon="5.72250894270837306976318359375">
        <ele>322.600006103515625</ele>
        <time>2025-04-29T20:06:47.000Z</time>
        <extensions>
          <ns3:TrackPointExtension/>
        </extensions>
      </trkpt>
      <trkpt lat="50.13799793086946010589599609375" lon="5.72257599793374538421630859375">
        <ele>320.20001220703125</ele>
        <time>2025-04-29T20:06:49.000Z</time>
        <extensions>
          <ns3:TrackPointExtension/>
        </extensions>
      </trkpt>
      <trkpt lat="50.13748797588050365447998046875" lon="5.722835920751094818115234375">
        <ele>309.20001220703125</ele>
        <time>2025-04-29T20:06:52.000Z</time>
        <extensions>
          <ns3:TrackPointExtension/>
        </extensions>
      </trkpt>
      <trkpt lat="50.13729192316532135009765625" lon="5.7228649221360683441162109375">
        <ele>308</ele>
        <time>2025-04-29T20:06:54.000Z</time>
        <extensions>
          <ns3:TrackPointExtension/>
        </extensions>
      </trkpt>
      <trkpt lat="50.1369759254157543182373046875" lon="5.7228129543364048004150390625">
        <ele>308.20001220703125</ele>
        <time>2025-04-29T20:06:56.000Z</time>
        <extensions>
          <ns3:TrackPointExtension/>
        </extensions>
      </trkpt>
      <trkpt lat="50.13684793375432491302490234375" lon="5.72276794351637363433837890625">
        <ele>309</ele>
        <time>2025-04-29T20:06:58.000Z</time>
        <extensions>
          <ns3:TrackPointExtension/>
        </extensions>
      </trkpt>
      <trkpt lat="50.136665962636470794677734375" lon="5.72265093214809894561767578125">
        <ele>308</ele>
        <time>2025-04-29T20:07:00.000Z</time>
        <extensions>
          <ns3:TrackPointExtension/>
        </extensions>
      </trkpt>
      <trkpt lat="50.1354299671947956085205078125" lon="5.7221749238669872283935546875">
        <ele>303</ele>
        <time>2025-04-29T20:07:02.000Z</time>
        <extensions>
          <ns3:TrackPointExtension/>
        </extensions>
      </trkpt>
      <trkpt lat="50.1350279711186885833740234375" lon="5.72205799631774425506591796875">
        <ele>305.20001220703125</ele>
        <time>2025-04-29T20:07:04.000Z</time>
        <extensions>
          <ns3:TrackPointExtension/>
        </extensions>
      </trkpt>
      <trkpt lat="50.1349429786205291748046875" lon="5.7220639474689960479736328125">
        <ele>306</ele>
        <time>2025-04-29T20:07:06.000Z</time>
        <extensions>
          <ns3:TrackPointExtension/>
        </extensions>
      </trkpt>
      <trkpt lat="50.13432799838483333587646484375" lon="5.7224149815738201141357421875">
        <ele>308.79998779296875</ele>
        <time>2025-04-29T20:07:08.000Z</time>
        <extensions>
          <ns3:TrackPointExtension/>
        </extensions>
      </trkpt>
      <trkpt lat="50.13385693542659282684326171875" lon="5.7225789315998554229736328125">
        <ele>305.600006103515625</ele>
        <time>2025-04-29T20:07:10.000Z</time>
        <extensions>
          <ns3:TrackPointExtension/>
        </extensions>
      </trkpt>
      <trkpt lat="50.1316959969699382781982421875" lon="5.7230789959430694580078125">
        <ele>308.600006103515625</ele>
        <time>2025-04-29T20:07:12.000Z</time>
        <extensions>
          <ns3:TrackPointExtension/>
        </extensions>
      </trkpt>
      <trkpt lat="50.13144093565642833709716796875" lon="5.72316893376410007476806640625">
        <ele>307.20001220703125</ele>
        <time>2025-04-29T20:07:14.000Z</time>
        <extensions>
          <ns3:TrackPointExtension/>
        </extensions>
      </trkpt>
      <trkpt lat="50.13132794760167598724365234375" lon="5.72330899536609649658203125">
        <ele>307.20001220703125</ele>
        <time>2025-04-29T20:07:16.000Z</time>
        <extensions>
          <ns3:TrackPointExtension/>
        </extensions>
      </trkpt>
      <trkpt lat="50.13121697120368480682373046875" lon="5.723596997559070587158203125">
        <ele>308.399993896484375</ele>
        <time>2025-04-29T20:07:18.000Z</time>
        <extensions>
          <ns3:TrackPointExtension/>
        </extensions>
      </trkpt>
      <trkpt lat="50.13118193484842777252197265625" lon="5.72395498864352703094482421875">
        <ele>309.600006103515625</ele>
        <time>2025-04-29T20:07:20.000Z</time>
        <extensions>
          <ns3:TrackPointExtension/>
        </extensions>
      </trkpt>
      <trkpt lat="50.1312879659235477447509765625" lon="5.724388919770717620849609375">
        <ele>312.600006103515625</ele>
        <time>2025-04-29T20:07:22.000Z</time>
        <extensions>
          <ns3:TrackPointExtension/>
        </extensions>
      </trkpt>
      <trkpt lat="50.131883919239044189453125" lon="5.72582499124109745025634765625">
        <ele>321.399993896484375</ele>
        <time>2025-04-29T20:07:24.000Z</time>
        <extensions>
          <ns3:TrackPointExtension/>
        </extensions>
      </trkpt>
      <trkpt lat="50.13201291672885417938232421875" lon="5.7263229601085186004638671875">
        <ele>322.79998779296875</ele>
        <time>2025-04-29T20:07:26.000Z</time>
        <extensions>
          <ns3:TrackPointExtension/>
        </extensions>
      </trkpt>
      <trkpt lat="50.1320899464190006256103515625" lon="5.72688597254455089569091796875">
        <ele>319.79998779296875</ele>
        <time>2025-04-29T20:07:28.000Z</time>
        <extensions>
          <ns3:TrackPointExtension/>
        </extensions>
      </trkpt>
      <trkpt lat="50.132472999393939971923828125" lon="5.73206699453294277191162109375">
        <ele>320.20001220703125</ele>
        <time>2025-04-29T20:07:30.000Z</time>
        <extensions>
          <ns3:TrackPointExtension/>
        </extensions>
      </trkpt>
      <trkpt lat="50.132519938051700592041015625" lon="5.7333349250257015228271484375">
        <ele>323.79998779296875</ele>
        <time>2025-04-29T20:07:32.000Z</time>
        <extensions>
          <ns3:TrackPointExtension/>
        </extensions>
      </trkpt>
      <trkpt lat="50.132529996335506439208984375" lon="5.7348699867725372314453125">
        <ele>321.79998779296875</ele>
        <time>2025-04-29T20:07:34.000Z</time>
        <extensions>
          <ns3:TrackPointExtension/>
        </extensions>
      </trkpt>
      <trkpt lat="50.132641978561878204345703125" lon="5.73615099303424358367919921875">
        <ele>322.20001220703125</ele>
        <time>2025-04-29T20:07:36.000Z</time>
        <extensions>
          <ns3:TrackPointExtension/>
        </extensions>
      </trkpt>
      <trkpt lat="50.132863931357860565185546875" lon="5.73772192932665348052978515625">
        <ele>325.20001220703125</ele>
        <time>2025-04-29T20:07:38.000Z</time>
        <extensions>
          <ns3:TrackPointExtension/>
        </extensions>
      </trkpt>
      <trkpt lat="50.13305193744599819183349609375" lon="5.73856296949088573455810546875">
        <ele>324.399993896484375</ele>
        <time>2025-04-29T20:07:40.000Z</time>
        <extensions>
          <ns3:TrackPointExtension/>
        </extensions>
      </trkpt>
      <trkpt lat="50.1331279613077640533447265625" lon="5.7388369739055633544921875">
        <ele>323</ele>
        <time>2025-04-29T20:07:42.000Z</time>
        <extensions>
          <ns3:TrackPointExtension/>
        </extensions>
      </trkpt>
      <trkpt lat="50.1332369260489940643310546875" lon="5.73906697332859039306640625">
        <ele>321.79998779296875</ele>
        <time>2025-04-29T20:07:44.000Z</time>
        <extensions>
          <ns3:TrackPointExtension/>
        </extensions>
      </trkpt>
      <trkpt lat="50.13339593075215816497802734375" lon="5.73925296775996685028076171875">
        <ele>321.600006103515625</ele>
        <time>2025-04-29T20:07:47.000Z</time>
        <extensions>
          <ns3:TrackPointExtension/>
        </extensions>
      </trkpt>
      <trkpt lat="50.133736990392208099365234375" lon="5.7394889183342456817626953125">
        <ele>323.399993896484375</ele>
        <time>2025-04-29T20:07:49.000Z</time>
        <extensions>
          <ns3:TrackPointExtension/>
        </extensions>
      </trkpt>
      <trkpt lat="50.1342139206826686859130859375" lon="5.7397329993546009063720703125">
        <ele>328.600006103515625</ele>
        <time>2025-04-29T20:07:51.000Z</time>
        <extensions>
          <ns3:TrackPointExtension/>
        </extensions>
      </trkpt>
      <trkpt lat="50.13465397059917449951171875" lon="5.74003298766911029815673828125">
        <ele>329.20001220703125</ele>
        <time>2025-04-29T20:07:53.000Z</time>
        <extensions>
          <ns3:TrackPointExtension/>
        </extensions>
      </trkpt>
      <trkpt lat="50.1349149830639362335205078125" lon="5.7404409348964691162109375">
        <ele>327.20001220703125</ele>
        <time>2025-04-29T20:07:55.000Z</time>
        <extensions>
          <ns3:TrackPointExtension/>
        </extensions>
      </trkpt>
      <trkpt lat="50.13504699803888797760009765625" lon="5.74073798954486846923828125">
        <ele>326.399993896484375</ele>
        <time>2025-04-29T20:07:57.000Z</time>
        <extensions>
          <ns3:TrackPointExtension/>
        </extensions>
      </trkpt>
      <trkpt lat="50.13512796722352504730224609375" lon="5.741139985620975494384765625">
        <ele>323.20001220703125</ele>
        <time>2025-04-29T20:07:59.000Z</time>
        <extensions>
          <ns3:TrackPointExtension/>
        </extensions>
      </trkpt>
      <trkpt lat="50.1351459883153438568115234375" lon="5.74172697030007839202880859375">
        <ele>322.79998779296875</ele>
        <time>2025-04-29T20:08:01.000Z</time>
        <extensions>
          <ns3:TrackPointExtension/>
        </extensions>
      </trkpt>
      <trkpt lat="50.13512897305190563201904296875" lon="5.74201296083629131317138671875">
        <ele>321.399993896484375</ele>
        <time>2025-04-29T20:08:03.000Z</time>
        <extensions>
          <ns3:TrackPointExtension/>
        </extensions>
      </trkpt>
      <trkpt lat="50.13467299751937389373779296875" lon="5.7443229295313358306884765625">
        <ele>320</ele>
        <time>2025-04-29T20:08:05.000Z</time>
        <extensions>
          <ns3:TrackPointExtension/>
        </extensions>
      </trkpt>
      <trkpt lat="50.13421199284493923187255859375" lon="5.7457019202411174774169921875">
        <ele>313</ele>
        <time>2025-04-29T20:08:07.000Z</time>
        <extensions>
          <ns3:TrackPointExtension/>
        </extensions>
      </trkpt>
      <trkpt lat="50.13409196399152278900146484375" lon="5.74597491882741451263427734375">
        <ele>310.600006103515625</ele>
        <time>2025-04-29T20:08:09.000Z</time>
        <extensions>
          <ns3:TrackPointExtension/>
        </extensions>
      </trkpt>
      <trkpt lat="50.133852995932102203369140625" lon="5.7464049942791461944580078125">
        <ele>307.79998779296875</ele>
        <time>2025-04-29T20:08:11.000Z</time>
        <extensions>
          <ns3:TrackPointExtension/>
        </extensions>
      </trkpt>
      <trkpt lat="50.13375098817050457000732421875" lon="5.7466229237616062164306640625">
        <ele>306.79998779296875</ele>
        <time>2025-04-29T20:08:13.000Z</time>
        <extensions>
          <ns3:TrackPointExtension/>
        </extensions>
      </trkpt>
      <trkpt lat="50.133726932108402252197265625" lon="5.74675393290817737579345703125">
        <ele>306.79998779296875</ele>
        <time>2025-04-29T20:08:15.000Z</time>
        <extensions>
          <ns3:TrackPointExtension/>
        </extensions>
      </trkpt>
      <trkpt lat="50.133730955421924591064453125" lon="5.746891982853412628173828125">
        <ele>307.399993896484375</ele>
        <time>2025-04-29T20:08:17.000Z</time>
        <extensions>
          <ns3:TrackPointExtension/>
        </extensions>
      </trkpt>
      <trkpt lat="50.1337629742920398712158203125" lon="5.74702198617160320281982421875">
        <ele>308</ele>
        <time>2025-04-29T20:08:19.000Z</time>
        <extensions>
          <ns3:TrackPointExtension/>
        </extensions>
      </trkpt>
      <trkpt lat="50.1338229887187480926513671875" lon="5.7471249997615814208984375">
        <ele>308.399993896484375</ele>
        <time>2025-04-29T20:08:21.000Z</time>
        <extensions>
          <ns3:TrackPointExtension/>
        </extensions>
      </trkpt>
      <trkpt lat="50.13389599509537220001220703125" lon="5.7472009398043155670166015625">
        <ele>309.20001220703125</ele>
        <time>2025-04-29T20:08:23.000Z</time>
        <extensions>
          <ns3:TrackPointExtension/>
        </extensions>
      </trkpt>
      <trkpt lat="50.13459898531436920166015625" lon="5.74761995114386081695556640625">
        <ele>315.20001220703125</ele>
        <time>2025-04-29T20:08:25.000Z</time>
        <extensions>
          <ns3:TrackPointExtension/>
        </extensions>
      </trkpt>
      <trkpt lat="50.13472798280417919158935546875" lon="5.7477219589054584503173828125">
        <ele>315.600006103515625</ele>
        <time>2025-04-29T20:08:27.000Z</time>
        <extensions>
          <ns3:TrackPointExtension/>
        </extensions>
      </trkpt>
      <trkpt lat="50.13483493588864803314208984375" lon="5.74788096360862255096435546875">
        <ele>315</ele>
        <time>2025-04-29T20:08:29.000Z</time>
        <extensions>
          <ns3:TrackPointExtension/>
        </extensions>
      </trkpt>
      <trkpt lat="50.1349129714071750640869140625" lon="5.7480689696967601776123046875">
        <ele>314.79998779296875</ele>
        <time>2025-04-29T20:08:31.000Z</time>
        <extensions>
          <ns3:TrackPointExtension/>
        </extensions>
      </trkpt>
      <trkpt lat="50.13495194725692272186279296875" lon="5.748271979391574859619140625">
        <ele>314.79998779296875</ele>
        <time>2025-04-29T20:08:33.000Z</time>
        <extensions>
          <ns3:TrackPointExtension/>
        </extensions>
      </trkpt>
      <trkpt lat="50.13495697639882564544677734375" lon="5.74850591830909252166748046875">
        <ele>314.399993896484375</ele>
        <time>2025-04-29T20:08:35.000Z</time>
        <extensions>
          <ns3:TrackPointExtension/>
        </extensions>
      </trkpt>
      <trkpt lat="50.1346169225871562957763671875" lon="5.7505909167230129241943359375">
        <ele>317.79998779296875</ele>
        <time>2025-04-29T20:08:37.000Z</time>
        <extensions>
          <ns3:TrackPointExtension/>
        </extensions>
      </trkpt>
      <trkpt lat="50.134592950344085693359375" lon="5.75086693279445171356201171875">
        <ele>318.79998779296875</ele>
        <time>2025-04-29T20:08:39.000Z</time>
        <extensions>
          <ns3:TrackPointExtension/>
        </extensions>
      </trkpt>
      <trkpt lat="50.1345969736576080322265625" lon="5.75113196857273578643798828125">
        <ele>318</ele>
        <time>2025-04-29T20:08:42.000Z</time>
        <extensions>
          <ns3:TrackPointExtension/>
        </extensions>
      </trkpt>
      <trkpt lat="50.13464399613440036773681640625" lon="5.7513439469039440155029296875">
        <ele>316.79998779296875</ele>
        <time>2025-04-29T20:08:44.000Z</time>
        <extensions>
          <ns3:TrackPointExtension/>
        </extensions>
      </trkpt>
      <trkpt lat="50.134709961712360382080078125" lon="5.7515479624271392822265625">
        <ele>315.600006103515625</ele>
        <time>2025-04-29T20:08:46.000Z</time>
        <extensions>
          <ns3:TrackPointExtension/>
        </extensions>
      </trkpt>
      <trkpt lat="50.13486091978847980499267578125" lon="5.7518109865486621856689453125">
        <ele>315.600006103515625</ele>
        <time>2025-04-29T20:08:48.000Z</time>
        <extensions>
          <ns3:TrackPointExtension/>
        </extensions>
      </trkpt>
      <trkpt lat="50.1350609958171844482421875" lon="5.75197099708020687103271484375">
        <ele>316.20001220703125</ele>
        <time>2025-04-29T20:08:50.000Z</time>
        <extensions>
          <ns3:TrackPointExtension/>
        </extensions>
      </trkpt>
      <trkpt lat="50.13526794500648975372314453125" lon="5.75207795016467571258544921875">
        <ele>317.600006103515625</ele>
        <time>2025-04-29T20:08:52.000Z</time>
        <extensions>
          <ns3:TrackPointExtension/>
        </extensions>
      </trkpt>
      <trkpt lat="50.1360099948942661285400390625" lon="5.752358995378017425537109375">
        <ele>323.79998779296875</ele>
        <time>2025-04-29T20:08:54.000Z</time>
        <extensions>
          <ns3:TrackPointExtension/>
        </extensions>
      </trkpt>
      <trkpt lat="50.136895962059497833251953125" lon="5.75279996730387210845947265625">
        <ele>330.399993896484375</ele>
        <time>2025-04-29T20:08:56.000Z</time>
        <extensions>
          <ns3:TrackPointExtension/>
        </extensions>
      </trkpt>
      <trkpt lat="50.13757095672190189361572265625" lon="5.752985961735248565673828125">
        <ele>336</ele>
        <time>2025-04-29T20:08:58.000Z</time>
        <extensions>
          <ns3:TrackPointExtension/>
        </extensions>
      </trkpt>
      <trkpt lat="50.1377899758517742156982421875" lon="5.7530759833753108978271484375">
        <ele>336</ele>
        <time>2025-04-29T20:09:00.000Z</time>
        <extensions>
          <ns3:TrackPointExtension/>
        </extensions>
      </trkpt>
      <trkpt lat="50.13788091950118541717529296875" lon="5.75316793285310268402099609375">
        <ele>334.399993896484375</ele>
        <time>2025-04-29T20:09:02.000Z</time>
        <extensions>
          <ns3:TrackPointExtension/>
        </extensions>
      </trkpt>
      <trkpt lat="50.1380489766597747802734375" lon="5.75360194779932498931884765625">
        <ele>326.79998779296875</ele>
        <time>2025-04-29T20:09:04.000Z</time>
        <extensions>
          <ns3:TrackPointExtension/>
        </extensions>
      </trkpt>
      <trkpt lat="50.13820596970617771148681640625" lon="5.75409899465739727020263671875">
        <ele>321.600006103515625</ele>
        <time>2025-04-29T20:09:06.000Z</time>
        <extensions>
          <ns3:TrackPointExtension/>
        </extensions>
      </trkpt>
      <trkpt lat="50.138224996626377105712890625" lon="5.75420896522700786590576171875">
        <ele>321</ele>
        <time>2025-04-29T20:09:08.000Z</time>
        <extensions>
          <ns3:TrackPointExtension/>
        </extensions>
      </trkpt>
      <trkpt lat="50.138213932514190673828125" lon="5.75441298075020313262939453125">
        <ele>320.79998779296875</ele>
        <time>2025-04-29T20:09:10.000Z</time>
        <extensions>
          <ns3:TrackPointExtension/>
        </extensions>
      </trkpt>
      <trkpt lat="50.1381839253008365631103515625" lon="5.7545039243996143341064453125">
        <ele>320.399993896484375</ele>
        <time>2025-04-29T20:09:12.000Z</time>
        <extensions>
          <ns3:TrackPointExtension/>
        </extensions>
      </trkpt>
      <trkpt lat="50.1381349749863147735595703125" lon="5.754589922726154327392578125">
        <ele>320.399993896484375</ele>
        <time>2025-04-29T20:09:14.000Z</time>
        <extensions>
          <ns3:TrackPointExtension/>
        </extensions>
      </trkpt>
      <trkpt lat="50.1375009678304195404052734375" lon="5.75518998317420482635498046875">
        <ele>327</ele>
        <time>2025-04-29T20:09:16.000Z</time>
        <extensions>
          <ns3:TrackPointExtension/>
        </extensions>
      </trkpt>
      <trkpt lat="50.13733995147049427032470703125" lon="5.7553149573504924774169921875">
        <ele>326.399993896484375</ele>
        <time>2025-04-29T20:09:18.000Z</time>
        <extensions>
          <ns3:TrackPointExtension/>
        </extensions>
      </trkpt>
      <trkpt lat="50.13637192547321319580078125" lon="5.75574092566967010498046875">
        <ele>328.600006103515625</ele>
        <time>2025-04-29T20:09:20.000Z</time>
        <extensions>
          <ns3:TrackPointExtension/>
        </extensions>
      </trkpt>
      <trkpt lat="50.135568939149379730224609375" lon="5.75612892396748065948486328125">
        <ele>328.600006103515625</ele>
        <time>2025-04-29T20:09:22.000Z</time>
        <extensions>
          <ns3:TrackPointExtension/>
        </extensions>
      </trkpt>
      <trkpt lat="50.1351999677717685699462890625" lon="5.75616094283759593963623046875">
        <ele>328</ele>
        <time>2025-04-29T20:09:24.000Z</time>
        <extensions>
          <ns3:TrackPointExtension/>
        </extensions>
      </trkpt>
      <trkpt lat="50.13446093536913394927978515625" lon="5.75633796863257884979248046875">
        <ele>328.600006103515625</ele>
        <time>2025-04-29T20:09:26.000Z</time>
        <extensions>
          <ns3:TrackPointExtension/>
        </extensions>
      </trkpt>
      <trkpt lat="50.1342199556529521942138671875" lon="5.75648699887096881866455078125">
        <ele>329.20001220703125</ele>
        <time>2025-04-29T20:09:28.000Z</time>
        <extensions>
          <ns3:TrackPointExtension/>
        </extensions>
      </trkpt>
      <trkpt lat="50.13400998897850513458251953125" lon="5.75670895166695117950439453125">
        <ele>328.600006103515625</ele>
        <time>2025-04-29T20:09:30.000Z</time>
        <extensions>
          <ns3:TrackPointExtension/>
        </extensions>
      </trkpt>
      <trkpt lat="50.13388794846832752227783203125" lon="5.75693492777645587921142578125">
        <ele>327.20001220703125</ele>
        <time>2025-04-29T20:09:32.000Z</time>
        <extensions>
          <ns3:TrackPointExtension/>
        </extensions>
      </trkpt>
      <trkpt lat="50.13378493487834930419921875" lon="5.7572719641029834747314453125">
        <ele>323.20001220703125</ele>
        <time>2025-04-29T20:09:34.000Z</time>
        <extensions>
          <ns3:TrackPointExtension/>
        </extensions>
      </trkpt>
      <trkpt lat="50.1337619684636592864990234375" lon="5.75757496990263462066650390625">
        <ele>322.399993896484375</ele>
        <time>2025-04-29T20:09:37.000Z</time>
        <extensions>
          <ns3:TrackPointExtension/>
        </extensions>
      </trkpt>
      <trkpt lat="50.13380798511207103729248046875" lon="5.7579059712588787078857421875">
        <ele>323.399993896484375</ele>
        <time>2025-04-29T20:09:39.000Z</time>
        <extensions>
          <ns3:TrackPointExtension/>
        </extensions>
      </trkpt>
      <trkpt lat="50.133900940418243408203125" lon="5.75814695097506046295166015625">
        <ele>324.79998779296875</ele>
        <time>2025-04-29T20:09:41.000Z</time>
        <extensions>
          <ns3:TrackPointExtension/>
        </extensions>
      </trkpt>
      <trkpt lat="50.13400998897850513458251953125" lon="5.75831995345652103424072265625">
        <ele>327.600006103515625</ele>
        <time>2025-04-29T20:09:43.000Z</time>
        <extensions>
          <ns3:TrackPointExtension/>
        </extensions>
      </trkpt>
      <trkpt lat="50.13435197062790393829345703125" lon="5.75869294814765453338623046875">
        <ele>333</ele>
        <time>2025-04-29T20:09:45.000Z</time>
        <extensions>
          <ns3:TrackPointExtension/>
        </extensions>
      </trkpt>
      <trkpt lat="50.1346739195287227630615234375" lon="5.7589359395205974578857421875">
        <ele>337.20001220703125</ele>
        <time>2025-04-29T20:09:47.000Z</time>
        <extensions>
          <ns3:TrackPointExtension/>
        </extensions>
      </trkpt>
      <trkpt lat="50.13486594893038272857666015625" lon="5.7591159828007221221923828125">
        <ele>340.79998779296875</ele>
        <time>2025-04-29T20:09:49.000Z</time>
        <extensions>
          <ns3:TrackPointExtension/>
        </extensions>
      </trkpt>
      <trkpt lat="50.13505496084690093994140625" lon="5.759375989437103271484375">
        <ele>343</ele>
        <time>2025-04-29T20:09:51.000Z</time>
        <extensions>
          <ns3:TrackPointExtension/>
        </extensions>
      </trkpt>
      <trkpt lat="50.1351989619433879852294921875" lon="5.759720988571643829345703125">
        <ele>344.399993896484375</ele>
        <time>2025-04-29T20:09:53.000Z</time>
        <extensions>
          <ns3:TrackPointExtension/>
        </extensions>
      </trkpt>
      <trkpt lat="50.13524196110665798187255859375" lon="5.76004595495760440826416015625">
        <ele>342.79998779296875</ele>
        <time>2025-04-29T20:09:55.000Z</time>
        <extensions>
          <ns3:TrackPointExtension/>
        </extensions>
      </trkpt>
      <trkpt lat="50.1352019794285297393798828125" lon="5.7604279182851314544677734375">
        <ele>337.399993896484375</ele>
        <time>2025-04-29T20:09:57.000Z</time>
        <extensions>
          <ns3:TrackPointExtension/>
        </extensions>
      </trkpt>
      <trkpt lat="50.1350899972021579742431640625" lon="5.76078792102634906768798828125">
        <ele>332.399993896484375</ele>
        <time>2025-04-29T20:09:59.000Z</time>
        <extensions>
          <ns3:TrackPointExtension/>
        </extensions>
      </trkpt>
      <trkpt lat="50.1349169947206974029541015625" lon="5.761092938482761383056640625">
        <ele>327</ele>
        <time>2025-04-29T20:10:01.000Z</time>
        <extensions>
          <ns3:TrackPointExtension/>
        </extensions>
      </trkpt>
      <trkpt lat="50.1341079734265804290771484375" lon="5.76185292564332485198974609375">
        <ele>322.79998779296875</ele>
        <time>2025-04-29T20:10:03.000Z</time>
        <extensions>
          <ns3:TrackPointExtension/>
        </extensions>
      </trkpt>
      <trkpt lat="50.13394796289503574371337890625" lon="5.76202793978154659271240234375">
        <ele>322.399993896484375</ele>
        <time>2025-04-29T20:10:05.000Z</time>
        <extensions>
          <ns3:TrackPointExtension/>
        </extensions>
      </trkpt>
      <trkpt lat="50.1338179595768451690673828125" lon="5.76220194809138774871826171875">
        <ele>320.600006103515625</ele>
        <time>2025-04-29T20:10:07.000Z</time>
        <extensions>
          <ns3:TrackPointExtension/>
        </extensions>
      </trkpt>
      <trkpt lat="50.13375098817050457000732421875" lon="5.7623599469661712646484375">
        <ele>320.20001220703125</ele>
        <time>2025-04-29T20:10:09.000Z</time>
        <extensions>
          <ns3:TrackPointExtension/>
        </extensions>
      </trkpt>
      <trkpt lat="50.1337089948356151580810546875" lon="5.762537978589534759521484375">
        <ele>321</ele>
        <time>2025-04-29T20:10:11.000Z</time>
        <extensions>
          <ns3:TrackPointExtension/>
        </extensions>
      </trkpt>
      <trkpt lat="50.13369097374379634857177734375" lon="5.7627349533140659332275390625">
        <ele>322.20001220703125</ele>
        <time>2025-04-29T20:10:13.000Z</time>
        <extensions>
          <ns3:TrackPointExtension/>
        </extensions>
      </trkpt>
      <trkpt lat="50.1337049715220928192138671875" lon="5.76318799518048763275146484375">
        <ele>326.399993896484375</ele>
        <time>2025-04-29T20:10:15.000Z</time>
        <extensions>
          <ns3:TrackPointExtension/>
        </extensions>
      </trkpt>
      <trkpt lat="50.13374193571507930755615234375" lon="5.76355294324457645416259765625">
        <ele>328</ele>
        <time>2025-04-29T20:10:17.000Z</time>
        <extensions>
          <ns3:TrackPointExtension/>
        </extensions>
      </trkpt>
      <trkpt lat="50.13414393179118633270263671875" lon="5.76505498029291629791259765625">
        <ele>331.20001220703125</ele>
        <time>2025-04-29T20:10:19.000Z</time>
        <extensions>
          <ns3:TrackPointExtension/>
        </extensions>
      </trkpt>
      <trkpt lat="50.134184919297695159912109375" lon="5.765410959720611572265625">
        <ele>332</ele>
        <time>2025-04-29T20:10:21.000Z</time>
        <extensions>
          <ns3:TrackPointExtension/>
        </extensions>
      </trkpt>
      <trkpt lat="50.1341679878532886505126953125" lon="5.766439922153949737548828125">
        <ele>334.79998779296875</ele>
        <time>2025-04-29T20:10:23.000Z</time>
        <extensions>
          <ns3:TrackPointExtension/>
        </extensions>
      </trkpt>
      <trkpt lat="50.13411392457783222198486328125" lon="5.7666519843041896820068359375">
        <ele>334.600006103515625</ele>
        <time>2025-04-29T20:10:25.000Z</time>
        <extensions>
          <ns3:TrackPointExtension/>
        </extensions>
      </trkpt>
      <trkpt lat="50.13403597287833690643310546875" lon="5.7668189518153667449951171875">
        <ele>333.600006103515625</ele>
        <time>2025-04-29T20:10:27.000Z</time>
        <extensions>
          <ns3:TrackPointExtension/>
        </extensions>
      </trkpt>
      <trkpt lat="50.13394092209637165069580078125" lon="5.7669349573552608489990234375">
        <ele>333.600006103515625</ele>
        <time>2025-04-29T20:10:29.000Z</time>
        <extensions>
          <ns3:TrackPointExtension/>
        </extensions>
      </trkpt>
      <trkpt lat="50.13368896208703517913818359375" lon="5.7670859992504119873046875">
        <ele>329</ele>
        <time>2025-04-29T20:10:32.000Z</time>
        <extensions>
          <ns3:TrackPointExtension/>
        </extensions>
      </trkpt>
      <trkpt lat="50.13333591632544994354248046875" lon="5.767186917364597320556640625">
        <ele>328.399993896484375</ele>
        <time>2025-04-29T20:10:34.000Z</time>
        <extensions>
          <ns3:TrackPointExtension/>
        </extensions>
      </trkpt>
      <trkpt lat="50.13297599740326404571533203125" lon="5.7671669684350490570068359375">
        <ele>326.79998779296875</ele>
        <time>2025-04-29T20:10:36.000Z</time>
        <extensions>
          <ns3:TrackPointExtension/>
        </extensions>
      </trkpt>
      <trkpt lat="50.1324429921805858612060546875" lon="5.7670509628951549530029296875">
        <ele>326.399993896484375</ele>
        <time>2025-04-29T20:10:38.000Z</time>
        <extensions>
          <ns3:TrackPointExtension/>
        </extensions>
      </trkpt>
      <trkpt lat="50.1322599314153194427490234375" lon="5.76703595928847789764404296875">
        <ele>326.399993896484375</ele>
        <time>2025-04-29T20:10:40.000Z</time>
        <extensions>
          <ns3:TrackPointExtension/>
        </extensions>
      </trkpt>
      <trkpt lat="50.13207796029746532440185546875" lon="5.767072923481464385986328125">
        <ele>326.79998779296875</ele>
        <time>2025-04-29T20:10:42.000Z</time>
        <extensions>
          <ns3:TrackPointExtension/>
        </extensions>
      </trkpt>
      <trkpt lat="50.13190093450248241424560546875" lon="5.767141990363597869873046875">
        <ele>327</ele>
        <time>2025-04-29T20:10:44.000Z</time>
        <extensions>
          <ns3:TrackPointExtension/>
        </extensions>
      </trkpt>
      <trkpt lat="50.13173296116292476654052734375" lon="5.76725296676158905029296875">
        <ele>329.20001220703125</ele>
        <time>2025-04-29T20:10:46.000Z</time>
        <extensions>
          <ns3:TrackPointExtension/>
        </extensions>
      </trkpt>
      <trkpt lat="50.1315779797732830047607421875" lon="5.76740694232285022735595703125">
        <ele>336.20001220703125</ele>
        <time>2025-04-29T20:10:48.000Z</time>
        <extensions>
          <ns3:TrackPointExtension/>
        </extensions>
      </trkpt>
      <trkpt lat="50.13144093565642833709716796875" lon="5.767595954239368438720703125">
        <ele>346.79998779296875</ele>
        <time>2025-04-29T20:10:50.000Z</time>
        <extensions>
          <ns3:TrackPointExtension/>
        </extensions>
      </trkpt>
      <trkpt lat="50.13132392428815364837646484375" lon="5.76781597919762134552001953125">
        <ele>356</ele>
        <time>2025-04-29T20:10:52.000Z</time>
        <extensions>
          <ns3:TrackPointExtension/>
        </extensions>
      </trkpt>
      <trkpt lat="50.1312299631536006927490234375" lon="5.76805897057056427001953125">
        <ele>358.20001220703125</ele>
        <time>2025-04-29T20:10:54.000Z</time>
        <extensions>
          <ns3:TrackPointExtension/>
        </extensions>
      </trkpt>
      <trkpt lat="50.130504928529262542724609375" lon="5.7703919894993305206298828125">
        <ele>325.20001220703125</ele>
        <time>2025-04-29T20:10:56.000Z</time>
        <extensions>
          <ns3:TrackPointExtension/>
        </extensions>
      </trkpt>
      <trkpt lat="50.1304819621145725250244140625" lon="5.770536996424198150634765625">
        <ele>324.20001220703125</ele>
        <time>2025-04-29T20:10:58.000Z</time>
        <extensions>
          <ns3:TrackPointExtension/>
        </extensions>
      </trkpt>
      <trkpt lat="50.1304779388010501861572265625" lon="5.770703963935375213623046875">
        <ele>323.600006103515625</ele>
        <time>2025-04-29T20:11:00.000Z</time>
        <extensions>
          <ns3:TrackPointExtension/>
        </extensions>
      </trkpt>
      <trkpt lat="50.130507946014404296875" lon="5.77103697694838047027587890625">
        <ele>323.600006103515625</ele>
        <time>2025-04-29T20:11:02.000Z</time>
        <extensions>
          <ns3:TrackPointExtension/>
        </extensions>
      </trkpt>
      <trkpt lat="50.13055195100605487823486328125" lon="5.77120092697441577911376953125">
        <ele>324.79998779296875</ele>
        <time>2025-04-29T20:11:04.000Z</time>
        <extensions>
          <ns3:TrackPointExtension/>
        </extensions>
      </trkpt>
      <trkpt lat="50.1306499354541301727294921875" lon="5.771399997174739837646484375">
        <ele>327</ele>
        <time>2025-04-29T20:11:06.000Z</time>
        <extensions>
          <ns3:TrackPointExtension/>
        </extensions>
      </trkpt>
      <trkpt lat="50.13098596595227718353271484375" lon="5.7719379477202892303466796875">
        <ele>325.20001220703125</ele>
        <time>2025-04-29T20:11:08.000Z</time>
        <extensions>
          <ns3:TrackPointExtension/>
        </extensions>
      </trkpt>
      <trkpt lat="50.1313399337232112884521484375" lon="5.772425942122936248779296875">
        <ele>320.399993896484375</ele>
        <time>2025-04-29T20:11:10.000Z</time>
        <extensions>
          <ns3:TrackPointExtension/>
        </extensions>
      </trkpt>
      <trkpt lat="50.13150799088180065155029296875" lon="5.77279298566281795501708984375">
        <ele>321.600006103515625</ele>
        <time>2025-04-29T20:11:12.000Z</time>
        <extensions>
          <ns3:TrackPointExtension/>
        </extensions>
      </trkpt>
      <trkpt lat="50.13161997310817241668701171875" lon="5.77329196035861968994140625">
        <ele>324.600006103515625</ele>
        <time>2025-04-29T20:11:14.000Z</time>
        <extensions>
          <ns3:TrackPointExtension/>
        </extensions>
      </trkpt>
      <trkpt lat="50.1316559314727783203125" lon="5.77370292507112026214599609375">
        <ele>327</ele>
        <time>2025-04-29T20:11:16.000Z</time>
        <extensions>
          <ns3:TrackPointExtension/>
        </extensions>
      </trkpt>
      <trkpt lat="50.1316299475729465484619140625" lon="5.7748779840767383575439453125">
        <ele>329.20001220703125</ele>
        <time>2025-04-29T20:11:18.000Z</time>
        <extensions>
          <ns3:TrackPointExtension/>
        </extensions>
      </trkpt>
      <trkpt lat="50.13162299059331417083740234375" lon="5.77667095698416233062744140625">
        <ele>335.600006103515625</ele>
        <time>2025-04-29T20:11:20.000Z</time>
        <extensions>
          <ns3:TrackPointExtension/>
        </extensions>
      </trkpt>
      <trkpt lat="50.1316009461879730224609375" lon="5.77769991941750049591064453125">
        <ele>338.79998779296875</ele>
        <time>2025-04-29T20:11:22.000Z</time>
        <extensions>
          <ns3:TrackPointExtension/>
        </extensions>
      </trkpt>
      <trkpt lat="50.1315679214894771575927734375" lon="5.7780949585139751434326171875">
        <ele>340</ele>
        <time>2025-04-29T20:11:24.000Z</time>
        <extensions>
          <ns3:TrackPointExtension/>
        </extensions>
      </trkpt>
      <trkpt lat="50.13150799088180065155029296875" lon="5.77825698070228099822998046875">
        <ele>340.20001220703125</ele>
        <time>2025-04-29T20:11:27.000Z</time>
        <extensions>
          <ns3:TrackPointExtension/>
        </extensions>
      </trkpt>
      <trkpt lat="50.131426937878131866455078125" lon="5.778417997062206268310546875">
        <ele>339.79998779296875</ele>
        <time>2025-04-29T20:11:29.000Z</time>
        <extensions>
          <ns3:TrackPointExtension/>
        </extensions>
      </trkpt>
      <trkpt lat="50.131206996738910675048828125" lon="5.778584964573383331298828125">
        <ele>336.399993896484375</ele>
        <time>2025-04-29T20:11:31.000Z</time>
        <extensions>
          <ns3:TrackPointExtension/>
        </extensions>
      </trkpt>
      <trkpt lat="50.1305379532277584075927734375" lon="5.7787269540131092071533203125">
        <ele>327.399993896484375</ele>
        <time>2025-04-29T20:11:33.000Z</time>
        <extensions>
          <ns3:TrackPointExtension/>
        </extensions>
      </trkpt>
      <trkpt lat="50.1302759349346160888671875" lon="5.7788369245827198028564453125">
        <ele>324.79998779296875</ele>
        <time>2025-04-29T20:11:35.000Z</time>
        <extensions>
          <ns3:TrackPointExtension/>
        </extensions>
      </trkpt>
      <trkpt lat="50.13017795048654079437255859375" lon="5.7789509184658527374267578125">
        <ele>324</ele>
        <time>2025-04-29T20:11:37.000Z</time>
        <extensions>
          <ns3:TrackPointExtension/>
        </extensions>
      </trkpt>
      <trkpt lat="50.13011299073696136474609375" lon="5.7790779881179332733154296875">
        <ele>324.79998779296875</ele>
        <time>2025-04-29T20:11:39.000Z</time>
        <extensions>
          <ns3:TrackPointExtension/>
        </extensions>
      </trkpt>
      <trkpt lat="50.13005197048187255859375" lon="5.77922693453729152679443359375">
        <ele>324.79998779296875</ele>
        <time>2025-04-29T20:11:41.000Z</time>
        <extensions>
          <ns3:TrackPointExtension/>
        </extensions>
      </trkpt>
      <trkpt lat="50.1297899521887302398681640625" lon="5.7807469926774501800537109375">
        <ele>323.20001220703125</ele>
        <time>2025-04-29T20:11:43.000Z</time>
        <extensions>
          <ns3:TrackPointExtension/>
        </extensions>
      </trkpt>
      <trkpt lat="50.12965693138539791107177734375" lon="5.7816099934279918670654296875">
        <ele>325.20001220703125</ele>
        <time>2025-04-29T20:11:45.000Z</time>
        <extensions>
          <ns3:TrackPointExtension/>
        </extensions>
      </trkpt>
      <trkpt lat="50.1295629702508449554443359375" lon="5.781629942357540130615234375">
        <ele>324</ele>
        <time>2025-04-29T20:12:31.000Z</time>
        <extensions>
          <ns3:TrackPointExtension/>
        </extensions>
      </trkpt>
      <trkpt lat="50.12943799607455730438232421875" lon="5.78170496039092540740966796875">
        <ele>322.79998779296875</ele>
        <time>2025-04-29T20:13:17.000Z</time>
        <extensions>
          <ns3:TrackPointExtension/>
        </extensions>
      </trkpt>
      <trkpt lat="50.12930992059409618377685546875" lon="5.7818569242954254150390625">
        <ele>322</ele>
        <time>2025-04-29T20:14:03.000Z</time>
        <extensions>
          <ns3:TrackPointExtension/>
        </extensions>
      </trkpt>
      <trkpt lat="50.12919299304485321044921875" lon="5.7819239795207977294921875">
        <ele>322</ele>
        <time>2025-04-29T20:14:49.000Z</time>
        <extensions>
          <ns3:TrackPointExtension/>
        </extensions>
      </trkpt>
      <trkpt lat="50.12903599999845027923583984375" lon="5.781804956495761871337890625">
        <ele>322.20001220703125</ele>
        <time>2025-04-29T20:15:36.000Z</time>
        <extensions>
          <ns3:TrackPointExtension/>
        </extensions>
      </trkpt>
      <trkpt lat="50.12890691868960857391357421875" lon="5.78157596290111541748046875">
        <ele>323.600006103515625</ele>
        <time>2025-04-29T20:16:22.000Z</time>
        <extensions>
          <ns3:TrackPointExtension/>
        </extensions>
      </trkpt>
      <trkpt lat="50.12863199226558208465576171875" lon="5.78120992518961429595947265625">
        <ele>325.79998779296875</ele>
        <time>2025-04-29T20:17:08.000Z</time>
        <extensions>
          <ns3:TrackPointExtension/>
        </extensions>
      </trkpt>
      <trkpt lat="50.1283529587090015411376953125" lon="5.78116692602634429931640625">
        <ele>329.20001220703125</ele>
        <time>2025-04-29T20:17:15.000Z</time>
        <extensions>
          <ns3:TrackPointExtension/>
        </extensions>
      </trkpt>
      <trkpt lat="50.12819697149097919464111328125" lon="5.78124496154487133026123046875">
        <ele>332.20001220703125</ele>
        <time>2025-04-29T20:17:22.000Z</time>
        <extensions>
          <ns3:TrackPointExtension/>
        </extensions>
      </trkpt>
      <trkpt lat="50.12810694985091686248779296875" lon="5.781517960131168365478515625">
        <ele>337.399993896484375</ele>
        <time>2025-04-29T20:17:29.000Z</time>
        <extensions>
          <ns3:TrackPointExtension/>
        </extensions>
      </trkpt>
      <trkpt lat="50.12802095152437686920166015625" lon="5.782258920371532440185546875">
        <ele>338.79998779296875</ele>
        <time>2025-04-29T20:17:36.000Z</time>
        <extensions>
          <ns3:TrackPointExtension/>
        </extensions>
      </trkpt>
      <trkpt lat="50.1278979890048503875732421875" lon="5.78366498462855815887451171875">
        <ele>340.79998779296875</ele>
        <time>2025-04-29T20:17:43.000Z</time>
        <extensions>
          <ns3:TrackPointExtension/>
        </extensions>
      </trkpt>
      <trkpt lat="50.1276089809834957122802734375" lon="5.78608299605548381805419921875">
        <ele>351.600006103515625</ele>
        <time>2025-04-29T20:17:50.000Z</time>
        <extensions>
          <ns3:TrackPointExtension/>
        </extensions>
      </trkpt>
      <trkpt lat="50.12757293879985809326171875" lon="5.78616497106850147247314453125">
        <ele>353.399993896484375</ele>
        <time>2025-04-29T20:17:57.000Z</time>
        <extensions>
          <ns3:TrackPointExtension/>
        </extensions>
      </trkpt>
      <trkpt lat="50.1276029460132122039794921875" lon="5.7875239290297031402587890625">
        <ele>353.399993896484375</ele>
        <time>2025-04-29T20:18:01.000Z</time>
        <extensions>
          <ns3:TrackPointExtension/>
        </extensions>
      </trkpt>
      <trkpt lat="50.127630941569805145263671875" lon="5.78777999617159366607666015625">
        <ele>353.600006103515625</ele>
        <time>2025-04-29T20:18:06.000Z</time>
        <extensions>
          <ns3:TrackPointExtension/>
        </extensions>
      </trkpt>
      <trkpt lat="50.127689950168132781982421875" lon="5.78806699253618717193603515625">
        <ele>352.399993896484375</ele>
        <time>2025-04-29T20:18:11.000Z</time>
        <extensions>
          <ns3:TrackPointExtension/>
        </extensions>
      </trkpt>
      <trkpt lat="50.12781794182956218719482421875" lon="5.78840998001396656036376953125">
        <ele>350.79998779296875</ele>
        <time>2025-04-29T20:18:16.000Z</time>
        <extensions>
          <ns3:TrackPointExtension/>
        </extensions>
      </trkpt>
      <trkpt lat="50.12781794182956218719482421875" lon="5.78840998001396656036376953125">
        <ele>350.79998779296875</ele>
        <time>2025-04-29T20:18:16.000Z</time>
        <extensions>
          <ns3:TrackPointExtension/>
        </extensions>
      </trkpt>
      <trkpt lat="50.1278969831764698028564453125" lon="5.788588933646678924560546875">
        <ele>349.79998779296875</ele>
        <time>2025-04-29T20:18:19.000Z</time>
        <extensions>
          <ns3:TrackPointExtension/>
        </extensions>
      </trkpt>
      <trkpt lat="50.1280139945447444915771484375" lon="5.78877895139157772064208984375">
        <ele>349.600006103515625</ele>
        <time>2025-04-29T20:18:22.000Z</time>
        <extensions>
          <ns3:TrackPointExtension/>
        </extensions>
      </trkpt>
      <trkpt lat="50.1281489431858062744140625" lon="5.788938961923122406005859375">
        <ele>350.20001220703125</ele>
        <time>2025-04-29T20:18:24.000Z</time>
        <extensions>
          <ns3:TrackPointExtension/>
        </extensions>
      </trkpt>
      <trkpt lat="50.1282919384539127349853515625" lon="5.78906695358455181121826171875">
        <ele>351.399993896484375</ele>
        <time>2025-04-29T20:18:27.000Z</time>
        <extensions>
          <ns3:TrackPointExtension/>
        </extensions>
      </trkpt>
      <trkpt lat="50.12854297645390033721923828125" lon="5.789225958287715911865234375">
        <ele>351.79998779296875</ele>
        <time>2025-04-29T20:18:30.000Z</time>
        <extensions>
          <ns3:TrackPointExtension/>
        </extensions>
      </trkpt>
      <trkpt lat="50.12882997281849384307861328125" lon="5.78935596160590648651123046875">
        <ele>349.600006103515625</ele>
        <time>2025-04-29T20:18:33.000Z</time>
        <extensions>
          <ns3:TrackPointExtension/>
        </extensions>
      </trkpt>
      <trkpt lat="50.128949917852878570556640625" lon="5.789451934397220611572265625">
        <ele>349.399993896484375</ele>
        <time>2025-04-29T20:18:35.000Z</time>
        <extensions>
          <ns3:TrackPointExtension/>
        </extensions>
      </trkpt>
      <trkpt lat="50.129071958363056182861328125" lon="5.7895949296653270721435546875">
        <ele>349.600006103515625</ele>
        <time>2025-04-29T20:18:38.000Z</time>
        <extensions>
          <ns3:TrackPointExtension/>
        </extensions>
      </trkpt>
      <trkpt lat="50.12922693975269794464111328125" lon="5.7898839376866817474365234375">
        <ele>350.20001220703125</ele>
        <time>2025-04-29T20:18:41.000Z</time>
        <extensions>
          <ns3:TrackPointExtension/>
        </extensions>
      </trkpt>
      <trkpt lat="50.129307992756366729736328125" lon="5.79013497568666934967041015625">
        <ele>349</ele>
        <time>2025-04-29T20:18:44.000Z</time>
        <extensions>
          <ns3:TrackPointExtension/>
        </extensions>
      </trkpt>
      <trkpt lat="50.1294459588825702667236328125" lon="5.7906919531524181365966796875">
        <ele>344.399993896484375</ele>
        <time>2025-04-29T20:18:46.000Z</time>
        <extensions>
          <ns3:TrackPointExtension/>
        </extensions>
      </trkpt>
      <trkpt lat="50.12982792221009731292724609375" lon="5.79044393263757228851318359375">
        <ele>342.600006103515625</ele>
        <time>2025-04-29T20:18:52.000Z</time>
        <extensions>
          <ns3:TrackPointExtension/>
        </extensions>
      </trkpt>
      <trkpt lat="50.1299639604985713958740234375" lon="5.7903139293193817138671875">
        <ele>342.79998779296875</ele>
        <time>2025-04-29T20:18:58.000Z</time>
        <extensions>
          <ns3:TrackPointExtension/>
        </extensions>
      </trkpt>
      <trkpt lat="50.13017694465816020965576171875" lon="5.79015794210135936737060546875">
        <ele>342.399993896484375</ele>
        <time>2025-04-29T20:19:03.000Z</time>
        <extensions>
          <ns3:TrackPointExtension/>
        </extensions>
      </trkpt>
      <trkpt lat="50.13049193657934665679931640625" lon="5.7900089956820011138916015625">
        <ele>341.79998779296875</ele>
        <time>2025-04-29T20:19:09.000Z</time>
        <extensions>
          <ns3:TrackPointExtension/>
        </extensions>
      </trkpt>
      <trkpt lat="50.13095495291054248809814453125" lon="5.78993598930537700653076171875">
        <ele>336</ele>
        <time>2025-04-29T20:19:15.000Z</time>
        <extensions>
          <ns3:TrackPointExtension/>
        </extensions>
      </trkpt>
      <trkpt lat="50.13123893178999423980712890625" lon="5.7898579537868499755859375">
        <ele>331.79998779296875</ele>
        <time>2025-04-29T20:19:20.000Z</time>
        <extensions>
          <ns3:TrackPointExtension/>
        </extensions>
      </trkpt>
      <trkpt lat="50.13184192590415477752685546875" lon="5.7896519266068935394287109375">
        <ele>329.399993896484375</ele>
        <time>2025-04-29T20:19:26.000Z</time>
        <extensions>
          <ns3:TrackPointExtension/>
        </extensions>
      </trkpt>
      <trkpt lat="50.1319159381091594696044921875" lon="5.7896509207785129547119140625">
        <ele>329.399993896484375</ele>
        <time>2025-04-29T20:19:31.000Z</time>
        <extensions>
          <ns3:TrackPointExtension/>
        </extensions>
      </trkpt>
      <trkpt lat="50.13216898776590824127197265625" lon="5.7897779904305934906005859375">
        <ele>329.79998779296875</ele>
        <time>2025-04-29T20:19:37.000Z</time>
        <extensions>
          <ns3:TrackPointExtension/>
        </extensions>
      </trkpt>
      <trkpt lat="50.13222799636423587799072265625" lon="5.78970397822558879852294921875">
        <ele>329.20001220703125</ele>
        <time>2025-04-29T20:19:38.000Z</time>
        <extensions>
          <ns3:TrackPointExtension/>
        </extensions>
      </trkpt>
      <trkpt lat="50.132287926971912384033203125" lon="5.7895479910075664520263671875">
        <ele>329.600006103515625</ele>
        <time>2025-04-29T20:19:40.000Z</time>
        <extensions>
          <ns3:TrackPointExtension/>
        </extensions>
      </trkpt>
      <trkpt lat="50.132296979427337646484375" lon="5.7894319854676723480224609375">
        <ele>329.600006103515625</ele>
        <time>2025-04-29T20:19:41.000Z</time>
        <extensions>
          <ns3:TrackPointExtension/>
        </extensions>
      </trkpt>
      <trkpt lat="50.1322639547288417816162109375" lon="5.78926795162260532379150390625">
        <ele>329.600006103515625</ele>
        <time>2025-04-29T20:19:42.000Z</time>
        <extensions>
          <ns3:TrackPointExtension/>
        </extensions>
      </trkpt>
      <trkpt lat="50.13217695057392120361328125" lon="5.789168961346149444580078125">
        <ele>329</ele>
        <time>2025-04-29T20:19:44.000Z</time>
        <extensions>
          <ns3:TrackPointExtension/>
        </extensions>
      </trkpt>
      <trkpt lat="50.131723992526531219482421875" lon="5.789111964404582977294921875">
        <ele>327.600006103515625</ele>
        <time>2025-04-29T20:19:46.000Z</time>
        <extensions>
          <ns3:TrackPointExtension/>
        </extensions>
      </trkpt>
      <trkpt lat="50.131599940359592437744140625" lon="5.78906896524131298065185546875">
        <ele>327.20001220703125</ele>
        <time>2025-04-29T20:19:48.000Z</time>
        <extensions>
          <ns3:TrackPointExtension/>
        </extensions>
      </trkpt>
      <trkpt lat="50.1314829289913177490234375" lon="5.78899495303630828857421875">
        <ele>326.79998779296875</ele>
        <time>2025-04-29T20:19:50.000Z</time>
        <extensions>
          <ns3:TrackPointExtension/>
        </extensions>
      </trkpt>
      <trkpt lat="50.13139399699866771697998046875" lon="5.78889093361794948577880859375">
        <ele>326.399993896484375</ele>
        <time>2025-04-29T20:19:53.000Z</time>
        <extensions>
          <ns3:TrackPointExtension/>
        </extensions>
      </trkpt>
      <trkpt lat="50.131310932338237762451171875" lon="5.78874693252146244049072265625">
        <ele>326</ele>
        <time>2025-04-29T20:19:55.000Z</time>
        <extensions>
          <ns3:TrackPointExtension/>
        </extensions>
      </trkpt>
      <trkpt lat="50.1312299631536006927490234375" lon="5.78854995779693126678466796875">
        <ele>326.79998779296875</ele>
        <time>2025-04-29T20:19:57.000Z</time>
        <extensions>
          <ns3:TrackPointExtension/>
        </extensions>
      </trkpt>
      <trkpt lat="50.13112896122038364410400390625" lon="5.78830696642398834228515625">
        <ele>328.20001220703125</ele>
        <time>2025-04-29T20:19:59.000Z</time>
        <extensions>
          <ns3:TrackPointExtension/>
        </extensions>
      </trkpt>
      <trkpt lat="50.1310269534587860107421875" lon="5.78818098641932010650634765625">
        <ele>328.79998779296875</ele>
        <time>2025-04-29T20:20:01.000Z</time>
        <extensions>
          <ns3:TrackPointExtension/>
        </extensions>
      </trkpt>
      <trkpt lat="50.13121697120368480682373046875" lon="5.78784696757793426513671875">
        <ele>332</ele>
        <time>2025-04-29T20:20:09.000Z</time>
        <extensions>
          <ns3:TrackPointExtension/>
        </extensions>
      </trkpt>
      <trkpt lat="50.13140891678631305694580078125" lon="5.78763498924672603607177734375">
        <ele>332.20001220703125</ele>
        <time>2025-04-29T20:20:17.000Z</time>
        <extensions>
          <ns3:TrackPointExtension/>
        </extensions>
      </trkpt>
      <trkpt lat="50.1316889561712741851806640625" lon="5.78723399899899959564208984375">
        <ele>334.79998779296875</ele>
        <time>2025-04-29T20:20:25.000Z</time>
        <extensions>
          <ns3:TrackPointExtension/>
        </extensions>
      </trkpt>
      <trkpt lat="50.13198592700064182281494140625" lon="5.78693493269383907318115234375">
        <ele>337.79998779296875</ele>
        <time>2025-04-29T20:20:33.000Z</time>
        <extensions>
          <ns3:TrackPointExtension/>
        </extensions>
      </trkpt>
      <trkpt lat="50.13224794529378414154052734375" lon="5.78648096881806850433349609375">
        <ele>349.600006103515625</ele>
        <time>2025-04-29T20:20:40.000Z</time>
        <extensions>
          <ns3:TrackPointExtension/>
        </extensions>
      </trkpt>
      <trkpt lat="50.13233092613518238067626953125" lon="5.78641693107783794403076171875">
        <ele>351.600006103515625</ele>
        <time>2025-04-29T20:20:48.000Z</time>
        <extensions>
          <ns3:TrackPointExtension/>
        </extensions>
      </trkpt>
      <trkpt lat="50.13253091834485530853271484375" lon="5.7863279990851879119873046875">
        <ele>354</ele>
        <time>2025-04-29T20:20:56.000Z</time>
        <extensions>
          <ns3:TrackPointExtension/>
        </extensions>
      </trkpt>
      <trkpt lat="50.1327779330313205718994140625" lon="5.78621593303978443145751953125">
        <ele>357.20001220703125</ele>
        <time>2025-04-29T20:21:04.000Z</time>
        <extensions>
          <ns3:TrackPointExtension/>
        </extensions>
      </trkpt>
      <trkpt lat="50.13316894881427288055419921875" lon="5.78613999299705028533935546875">
        <ele>361.399993896484375</ele>
        <time>2025-04-29T20:21:12.000Z</time>
        <extensions>
          <ns3:TrackPointExtension/>
        </extensions>
      </trkpt>
      <trkpt lat="50.1332399435341358184814453125" lon="5.78610093332827091217041015625">
        <ele>362.600006103515625</ele>
        <time>2025-04-29T20:21:20.000Z</time>
        <extensions>
          <ns3:TrackPointExtension/>
        </extensions>
      </trkpt>
      <trkpt lat="50.133266933262348175048828125" lon="5.78614099882543087005615234375">
        <ele>361.79998779296875</ele>
        <time>2025-04-29T20:21:26.000Z</time>
        <extensions>
          <ns3:TrackPointExtension/>
        </extensions>
      </trkpt>
      <trkpt lat="50.13331294991075992584228515625" lon="5.7861479558050632476806640625">
        <ele>361.399993896484375</ele>
        <time>2025-04-29T20:21:32.000Z</time>
        <extensions>
          <ns3:TrackPointExtension/>
        </extensions>
      </trkpt>
      <trkpt lat="50.13361394405364990234375" lon="5.78606195747852325439453125">
        <ele>362.20001220703125</ele>
        <time>2025-04-29T20:21:39.000Z</time>
        <extensions>
          <ns3:TrackPointExtension/>
        </extensions>
      </trkpt>
      <trkpt lat="50.13383598066866397857666015625" lon="5.78611199744045734405517578125">
        <ele>358.79998779296875</ele>
        <time>2025-04-29T20:21:45.000Z</time>
        <extensions>
          <ns3:TrackPointExtension/>
        </extensions>
      </trkpt>
      <trkpt lat="50.13391795568168163299560546875" lon="5.78610294498503208160400390625">
        <ele>359.399993896484375</ele>
        <time>2025-04-29T20:21:51.000Z</time>
        <extensions>
          <ns3:TrackPointExtension/>
        </extensions>
      </trkpt>
      <trkpt lat="50.134072937071323394775390625" lon="5.7860329560935497283935546875">
        <ele>362.20001220703125</ele>
        <time>2025-04-29T20:21:57.000Z</time>
        <extensions>
          <ns3:TrackPointExtension/>
        </extensions>
      </trkpt>
      <trkpt lat="50.13397394679486751556396484375" lon="5.78584092669188976287841796875">
        <ele>365.600006103515625</ele>
        <time>2025-04-29T20:22:01.000Z</time>
        <extensions>
          <ns3:TrackPointExtension/>
        </extensions>
      </trkpt>
      <trkpt lat="50.13392097316682338714599609375" lon="5.7856319658458232879638671875">
        <ele>368</ele>
        <time>2025-04-29T20:22:04.000Z</time>
        <extensions>
          <ns3:TrackPointExtension/>
        </extensions>
      </trkpt>
      <trkpt lat="50.13391099870204925537109375" lon="5.78543993644416332244873046875">
        <ele>369.20001220703125</ele>
        <time>2025-04-29T20:22:08.000Z</time>
        <extensions>
          <ns3:TrackPointExtension/>
        </extensions>
      </trkpt>
      <trkpt lat="50.1339299418032169342041015625" lon="5.78524296171963214874267578125">
        <ele>368.600006103515625</ele>
        <time>2025-04-29T20:22:11.000Z</time>
        <extensions>
          <ns3:TrackPointExtension/>
        </extensions>
      </trkpt>
      <trkpt lat="50.13397797010838985443115234375" lon="5.785079933702945709228515625">
        <ele>367</ele>
        <time>2025-04-29T20:22:15.000Z</time>
        <extensions>
          <ns3:TrackPointExtension/>
        </extensions>
      </trkpt>
      <trkpt lat="50.13408995233476161956787109375" lon="5.7848849706351757049560546875">
        <ele>364.600006103515625</ele>
        <time>2025-04-29T20:22:19.000Z</time>
        <extensions>
          <ns3:TrackPointExtension/>
        </extensions>
      </trkpt>
      <trkpt lat="50.1341569237411022186279296875" lon="5.78481397591531276702880859375">
        <ele>363.399993896484375</ele>
        <time>2025-04-29T20:22:22.000Z</time>
        <extensions>
          <ns3:TrackPointExtension/>
        </extensions>
      </trkpt>
      <trkpt lat="50.1342429220676422119140625" lon="5.7847659476101398468017578125">
        <ele>362.399993896484375</ele>
        <time>2025-04-29T20:22:26.000Z</time>
        <extensions>
          <ns3:TrackPointExtension/>
        </extensions>
      </trkpt>
      <trkpt lat="50.134424977004528045654296875" lon="5.784739963710308074951171875">
        <ele>361.399993896484375</ele>
        <time>2025-04-29T20:22:29.000Z</time>
        <extensions>
          <ns3:TrackPointExtension/>
        </extensions>
      </trkpt>
      <trkpt lat="50.13452296145260334014892578125" lon="5.7847739942371845245361328125">
        <ele>361.79998779296875</ele>
        <time>2025-04-29T20:22:33.000Z</time>
        <extensions>
          <ns3:TrackPointExtension/>
        </extensions>
      </trkpt>
      <trkpt lat="50.13461398892104625701904296875" lon="5.78483995981514453887939453125">
        <ele>362.399993896484375</ele>
        <time>2025-04-29T20:22:36.000Z</time>
        <extensions>
          <ns3:TrackPointExtension/>
        </extensions>
      </trkpt>
      <trkpt lat="50.1349349319934844970703125" lon="5.785201974213123321533203125">
        <ele>364.399993896484375</ele>
        <time>2025-04-29T20:22:40.000Z</time>
        <extensions>
          <ns3:TrackPointExtension/>
        </extensions>
      </trkpt>
      <trkpt lat="50.13627796433866024017333984375" lon="5.7868999801576137542724609375">
        <ele>366.600006103515625</ele>
        <time>2025-04-29T20:22:44.000Z</time>
        <extensions>
          <ns3:TrackPointExtension/>
        </extensions>
      </trkpt>
      <trkpt lat="50.13631291687488555908203125" lon="5.7868319191038608551025390625">
        <ele>366.399993896484375</ele>
        <time>2025-04-29T20:22:52.000Z</time>
        <extensions>
          <ns3:TrackPointExtension/>
        </extensions>
      </trkpt>
      <trkpt lat="50.1367449201643466949462890625" lon="5.78627896495163440704345703125">
        <ele>367.20001220703125</ele>
        <time>2025-04-29T20:23:00.000Z</time>
        <extensions>
          <ns3:TrackPointExtension/>
        </extensions>
      </trkpt>
      <trkpt lat="50.1368599198758602142333984375" lon="5.786174945533275604248046875">
        <ele>369.20001220703125</ele>
        <time>2025-04-29T20:23:08.000Z</time>
        <extensions>
          <ns3:TrackPointExtension/>
        </extensions>
      </trkpt>
      <trkpt lat="50.1364029385149478912353515625" lon="5.78415893018245697021484375">
        <ele>371</ele>
        <time>2025-04-29T20:23:17.000Z</time>
        <extensions>
          <ns3:TrackPointExtension/>
        </extensions>
      </trkpt>
      <trkpt lat="50.13635792769491672515869140625" lon="5.7838189601898193359375">
        <ele>372.79998779296875</ele>
        <time>2025-04-29T20:23:26.000Z</time>
        <extensions>
          <ns3:TrackPointExtension/>
        </extensions>
      </trkpt>
      <trkpt lat="50.13624594546854496002197265625" lon="5.783295929431915283203125">
        <ele>373</ele>
        <time>2025-04-29T20:23:35.000Z</time>
        <extensions>
          <ns3:TrackPointExtension/>
        </extensions>
      </trkpt>
      <trkpt lat="50.1362349651753902435302734375" lon="5.78295595943927764892578125">
        <ele>373.600006103515625</ele>
        <time>2025-04-29T20:23:44.000Z</time>
        <extensions>
          <ns3:TrackPointExtension/>
        </extensions>
      </trkpt>
      <trkpt lat="50.1362919621169567108154296875" lon="5.78259293921291828155517578125">
        <ele>375</ele>
        <time>2025-04-29T20:23:53.000Z</time>
        <extensions>
          <ns3:TrackPointExtension/>
        </extensions>
      </trkpt>
      <trkpt lat="50.1366929523646831512451171875" lon="5.781118981540203094482421875">
        <ele>384</ele>
        <time>2025-04-29T20:24:01.000Z</time>
        <extensions>
          <ns3:TrackPointExtension/>
        </extensions>
      </trkpt>
      <trkpt lat="50.13677098788321018218994140625" lon="5.78089292161166667938232421875">
        <ele>383.399993896484375</ele>
        <time>2025-04-29T20:24:09.000Z</time>
        <extensions>
          <ns3:TrackPointExtension/>
        </extensions>
      </trkpt>
      <trkpt lat="50.13694399036467075347900390625" lon="5.78052294440567493438720703125">
        <ele>383.20001220703125</ele>
        <time>2025-04-29T20:24:17.000Z</time>
        <extensions>
          <ns3:TrackPointExtension/>
        </extensions>
      </trkpt>
      <trkpt lat="50.13716393150389194488525390625" lon="5.7802169211208820343017578125">
        <ele>383.399993896484375</ele>
        <time>2025-04-29T20:24:25.000Z</time>
        <extensions>
          <ns3:TrackPointExtension/>
        </extensions>
      </trkpt>
      <trkpt lat="50.13771998696029186248779296875" lon="5.7795899547636508941650390625">
        <ele>381.79998779296875</ele>
        <time>2025-04-29T20:24:34.000Z</time>
        <extensions>
          <ns3:TrackPointExtension/>
        </extensions>
      </trkpt>
      <trkpt lat="50.13780296780169010162353515625" lon="5.7794739492237567901611328125">
        <ele>381.600006103515625</ele>
        <time>2025-04-29T20:24:42.000Z</time>
        <extensions>
          <ns3:TrackPointExtension/>
        </extensions>
      </trkpt>
      <trkpt lat="50.13842691667377948760986328125" lon="5.77830794267356395721435546875">
        <ele>386.79998779296875</ele>
        <time>2025-04-29T20:24:50.000Z</time>
        <extensions>
          <ns3:TrackPointExtension/>
        </extensions>
      </trkpt>
      <trkpt lat="50.1384829916059970855712890625" lon="5.77810795046389102935791015625">
        <ele>386.600006103515625</ele>
        <time>2025-04-29T20:24:58.000Z</time>
        <extensions>
          <ns3:TrackPointExtension/>
        </extensions>
      </trkpt>
      <trkpt lat="50.1382539980113506317138671875" lon="5.77788398601114749908447265625">
        <ele>383.399993896484375</ele>
        <time>2025-04-29T20:25:01.000Z</time>
        <extensions>
          <ns3:TrackPointExtension/>
        </extensions>
      </trkpt>
      <trkpt lat="50.137992985546588897705078125" lon="5.777601934969425201416015625">
        <ele>379.600006103515625</ele>
        <time>2025-04-29T20:25:09.000Z</time>
        <extensions>
          <ns3:TrackPointExtension/>
        </extensions>
      </trkpt>
      <trkpt lat="50.1379539258778095245361328125" lon="5.77749498188495635986328125">
        <ele>379.600006103515625</ele>
        <time>2025-04-29T20:25:17.000Z</time>
        <extensions>
          <ns3:TrackPointExtension/>
        </extensions>
      </trkpt>
      <trkpt lat="50.13796892948448657989501953125" lon="5.77739599160850048065185546875">
        <ele>380.600006103515625</ele>
        <time>2025-04-29T20:25:25.000Z</time>
        <extensions>
          <ns3:TrackPointExtension/>
        </extensions>
      </trkpt>
      <trkpt lat="50.13800798915326595306396484375" lon="5.7772959955036640167236328125">
        <ele>381.399993896484375</ele>
        <time>2025-04-29T20:25:33.000Z</time>
        <extensions>
          <ns3:TrackPointExtension/>
        </extensions>
      </trkpt>
      <trkpt lat="50.13828693889081478118896484375" lon="5.7766829431056976318359375">
        <ele>382.600006103515625</ele>
        <time>2025-04-29T20:25:41.000Z</time>
        <extensions>
          <ns3:TrackPointExtension/>
        </extensions>
      </trkpt>
      <trkpt lat="50.13838198967278003692626953125" lon="5.77653097920119762420654296875">
        <ele>381.79998779296875</ele>
        <time>2025-04-29T20:25:49.000Z</time>
        <extensions>
          <ns3:TrackPointExtension/>
        </extensions>
      </trkpt>
      <trkpt lat="50.13843093998730182647705078125" lon="5.7764879800379276275634765625">
        <ele>381.79998779296875</ele>
        <time>2025-04-29T20:25:57.000Z</time>
        <extensions>
          <ns3:TrackPointExtension/>
        </extensions>
      </trkpt>
      <trkpt lat="50.13849497772753238677978515625" lon="5.77646392397582530975341796875">
        <ele>382</ele>
        <time>2025-04-29T20:26:05.000Z</time>
        <extensions>
          <ns3:TrackPointExtension/>
        </extensions>
      </trkpt>
      <trkpt lat="50.1387069560587406158447265625" lon="5.77650792896747589111328125">
        <ele>383.600006103515625</ele>
        <time>2025-04-29T20:26:13.000Z</time>
        <extensions>
          <ns3:TrackPointExtension/>
        </extensions>
      </trkpt>
      <trkpt lat="50.1388239674270153045654296875" lon="5.77649795450270175933837890625">
        <ele>384.600006103515625</ele>
        <time>2025-04-29T20:26:21.000Z</time>
        <extensions>
          <ns3:TrackPointExtension/>
        </extensions>
      </trkpt>
      <trkpt lat="50.13892094604671001434326171875" lon="5.776457972824573516845703125">
        <ele>386</ele>
        <time>2025-04-29T20:26:29.000Z</time>
        <extensions>
          <ns3:TrackPointExtension/>
        </extensions>
      </trkpt>
      <trkpt lat="50.139659978449344635009765625" lon="5.77600593678653240203857421875">
        <ele>392.600006103515625</ele>
        <time>2025-04-29T20:26:37.000Z</time>
        <extensions>
          <ns3:TrackPointExtension/>
        </extensions>
      </trkpt>
      <trkpt lat="50.1406599394977092742919921875" lon="5.77519993297755718231201171875">
        <ele>403.79998779296875</ele>
        <time>2025-04-29T20:26:45.000Z</time>
        <extensions>
          <ns3:TrackPointExtension/>
        </extensions>
      </trkpt>
      <trkpt lat="50.1408339478075504302978515625" lon="5.77503799460828304290771484375">
        <ele>404.399993896484375</ele>
        <time>2025-04-29T20:26:53.000Z</time>
        <extensions>
          <ns3:TrackPointExtension/>
        </extensions>
      </trkpt>
      <trkpt lat="50.1412429846823215484619140625" lon="5.7745869643986225128173828125">
        <ele>405.79998779296875</ele>
        <time>2025-04-29T20:27:01.000Z</time>
        <extensions>
          <ns3:TrackPointExtension/>
        </extensions>
      </trkpt>
      <trkpt lat="50.141320936381816864013671875" lon="5.77452099882066249847412109375">
        <ele>406</ele>
        <time>2025-04-29T20:27:09.000Z</time>
        <extensions>
          <ns3:TrackPointExtension/>
        </extensions>
      </trkpt>
      <trkpt lat="50.14168395660817623138427734375" lon="5.7743029855191707611083984375">
        <ele>404.20001220703125</ele>
        <time>2025-04-29T20:27:17.000Z</time>
        <extensions>
          <ns3:TrackPointExtension/>
        </extensions>
      </trkpt>
      <trkpt lat="50.14185595326125621795654296875" lon="5.7742469944059848785400390625">
        <ele>403</ele>
        <time>2025-04-29T20:27:25.000Z</time>
        <extensions>
          <ns3:TrackPointExtension/>
        </extensions>
      </trkpt>
      <trkpt lat="50.14228594489395618438720703125" lon="5.774094946682453155517578125">
        <ele>400</ele>
        <time>2025-04-29T20:27:32.000Z</time>
        <extensions>
          <ns3:TrackPointExtension/>
        </extensions>
      </trkpt>
      <trkpt lat="50.14378597028553485870361328125" lon="5.77347795478999614715576171875">
        <ele>386.79998779296875</ele>
        <time>2025-04-29T20:27:40.000Z</time>
        <extensions>
          <ns3:TrackPointExtension/>
        </extensions>
      </trkpt>
      <trkpt lat="50.143858976662158966064453125" lon="5.77342799864709377288818359375">
        <ele>385.20001220703125</ele>
        <time>2025-04-29T20:27:48.000Z</time>
        <extensions>
          <ns3:TrackPointExtension/>
        </extensions>
      </trkpt>
      <trkpt lat="50.1443459652364253997802734375" lon="5.77307998202741146087646484375">
        <ele>377.20001220703125</ele>
        <time>2025-04-29T20:27:56.000Z</time>
        <extensions>
          <ns3:TrackPointExtension/>
        </extensions>
      </trkpt>
      <trkpt lat="50.144538916647434234619140625" lon="5.7728029601275920867919921875">
        <ele>378.20001220703125</ele>
        <time>2025-04-29T20:28:04.000Z</time>
        <extensions>
          <ns3:TrackPointExtension/>
        </extensions>
      </trkpt>
      <trkpt lat="50.1446329616010189056396484375" lon="5.77261093072593212127685546875">
        <ele>379</ele>
        <time>2025-04-29T20:28:12.000Z</time>
        <extensions>
          <ns3:TrackPointExtension/>
        </extensions>
      </trkpt>
      <trkpt lat="50.14472692273557186126708984375" lon="5.77238897792994976043701171875">
        <ele>380.399993896484375</ele>
        <time>2025-04-29T20:28:20.000Z</time>
        <extensions>
          <ns3:TrackPointExtension/>
        </extensions>
      </trkpt>
      <trkpt lat="50.14478492550551891326904296875" lon="5.7721709646284580230712890625">
        <ele>382.600006103515625</ele>
        <time>2025-04-29T20:28:28.000Z</time>
        <extensions>
          <ns3:TrackPointExtension/>
        </extensions>
      </trkpt>
      <trkpt lat="50.1448079757392406463623046875" lon="5.77192495577037334442138671875">
        <ele>385</ele>
        <time>2025-04-29T20:28:36.000Z</time>
        <extensions>
          <ns3:TrackPointExtension/>
        </extensions>
      </trkpt>
      <trkpt lat="50.14470797963440418243408203125" lon="5.77014396898448467254638671875">
        <ele>386.79998779296875</ele>
        <time>2025-04-29T20:28:44.000Z</time>
        <extensions>
          <ns3:TrackPointExtension/>
        </extensions>
      </trkpt>
      <trkpt lat="50.14473999850451946258544921875" lon="5.7695789448916912078857421875">
        <ele>385.20001220703125</ele>
        <time>2025-04-29T20:28:52.000Z</time>
        <extensions>
          <ns3:TrackPointExtension/>
        </extensions>
      </trkpt>
      <trkpt lat="50.1448109932243824005126953125" lon="5.76927493326365947723388671875">
        <ele>384.20001220703125</ele>
        <time>2025-04-29T20:29:00.000Z</time>
        <extensions>
          <ns3:TrackPointExtension/>
        </extensions>
      </trkpt>
      <trkpt lat="50.14493797905743122100830078125" lon="5.76893798075616359710693359375">
        <ele>385.20001220703125</ele>
        <time>2025-04-29T20:29:08.000Z</time>
        <extensions>
          <ns3:TrackPointExtension/>
        </extensions>
      </trkpt>
      <trkpt lat="50.14504996128380298614501953125" lon="5.76833699829876422882080078125">
        <ele>384.79998779296875</ele>
        <time>2025-04-29T20:29:16.000Z</time>
        <extensions>
          <ns3:TrackPointExtension/>
        </extensions>
      </trkpt>
      <trkpt lat="50.1450869254767894744873046875" lon="5.76796299777925014495849609375">
        <ele>385.600006103515625</ele>
        <time>2025-04-29T20:29:24.000Z</time>
        <extensions>
          <ns3:TrackPointExtension/>
        </extensions>
      </trkpt>
      <trkpt lat="50.14507795684039592742919921875" lon="5.7675059325993061065673828125">
        <ele>386.600006103515625</ele>
        <time>2025-04-29T20:29:32.000Z</time>
        <extensions>
          <ns3:TrackPointExtension/>
        </extensions>
      </trkpt>
      <trkpt lat="50.14500796794891357421875" lon="5.76683395542204380035400390625">
        <ele>386.79998779296875</ele>
        <time>2025-04-29T20:29:40.000Z</time>
        <extensions>
          <ns3:TrackPointExtension/>
        </extensions>
      </trkpt>
      <trkpt lat="50.14498994685709476470947265625" lon="5.76649297960102558135986328125">
        <ele>387.399993896484375</ele>
        <time>2025-04-29T20:29:48.000Z</time>
        <extensions>
          <ns3:TrackPointExtension/>
        </extensions>
      </trkpt>
      <trkpt lat="50.14499296434223651885986328125" lon="5.7660699449479579925537109375">
        <ele>386.600006103515625</ele>
        <time>2025-04-29T20:29:56.000Z</time>
        <extensions>
          <ns3:TrackPointExtension/>
        </extensions>
      </trkpt>
      <trkpt lat="50.1449709199368953704833984375" lon="5.7658399455249309539794921875">
        <ele>387</ele>
        <time>2025-04-29T20:30:04.000Z</time>
        <extensions>
          <ns3:TrackPointExtension/>
        </extensions>
      </trkpt>
      <trkpt lat="50.14488299377262592315673828125" lon="5.76550492085516452789306640625">
        <ele>388.79998779296875</ele>
        <time>2025-04-29T20:30:12.000Z</time>
        <extensions>
          <ns3:TrackPointExtension/>
        </extensions>
      </trkpt>
      <trkpt lat="50.14481895603239536285400390625" lon="5.765120945870876312255859375">
        <ele>390.79998779296875</ele>
        <time>2025-04-29T20:30:20.000Z</time>
        <extensions>
          <ns3:TrackPointExtension/>
        </extensions>
      </trkpt>
      <trkpt lat="50.1447989232838153839111328125" lon="5.7647519744932651519775390625">
        <ele>392.20001220703125</ele>
        <time>2025-04-29T20:30:27.000Z</time>
        <extensions>
          <ns3:TrackPointExtension/>
        </extensions>
      </trkpt>
      <trkpt lat="50.1448099873960018157958984375" lon="5.764428935945034027099609375">
        <ele>393</ele>
        <time>2025-04-29T20:30:35.000Z</time>
        <extensions>
          <ns3:TrackPointExtension/>
        </extensions>
      </trkpt>
      <trkpt lat="50.1448639668524265289306640625" lon="5.76401998288929462432861328125">
        <ele>394.600006103515625</ele>
        <time>2025-04-29T20:30:43.000Z</time>
        <extensions>
          <ns3:TrackPointExtension/>
        </extensions>
      </trkpt>
      <trkpt lat="50.144941918551921844482421875" lon="5.76372594572603702545166015625">
        <ele>397.20001220703125</ele>
        <time>2025-04-29T20:30:51.000Z</time>
        <extensions>
          <ns3:TrackPointExtension/>
        </extensions>
      </trkpt>
      <trkpt lat="50.14499497599899768829345703125" lon="5.76340198516845703125">
        <ele>399.399993896484375</ele>
        <time>2025-04-29T20:30:59.000Z</time>
        <extensions>
          <ns3:TrackPointExtension/>
        </extensions>
      </trkpt>
      <trkpt lat="50.1450389809906482696533203125" lon="5.76247997581958770751953125">
        <ele>402</ele>
        <time>2025-04-29T20:31:07.000Z</time>
        <extensions>
          <ns3:TrackPointExtension/>
        </extensions>
      </trkpt>
      <trkpt lat="50.145120956003665924072265625" lon="5.76134498231112957000732421875">
        <ele>398.399993896484375</ele>
        <time>2025-04-29T20:31:15.000Z</time>
        <extensions>
          <ns3:TrackPointExtension/>
        </extensions>
      </trkpt>
      <trkpt lat="50.14515892602503299713134765625" lon="5.7610089518129825592041015625">
        <ele>397</ele>
        <time>2025-04-29T20:31:23.000Z</time>
        <extensions>
          <ns3:TrackPointExtension/>
        </extensions>
      </trkpt>
      <trkpt lat="50.14522992074489593505859375" lon="5.7605459354817867279052734375">
        <ele>395.79998779296875</ele>
        <time>2025-04-29T20:31:31.000Z</time>
        <extensions>
          <ns3:TrackPointExtension/>
        </extensions>
      </trkpt>
      <trkpt lat="50.14531097374856472015380859375" lon="5.7604099810123443603515625">
        <ele>394.20001220703125</ele>
        <time>2025-04-29T20:31:39.000Z</time>
        <extensions>
          <ns3:TrackPointExtension/>
        </extensions>
      </trkpt>
      <trkpt lat="50.14528096653521060943603515625" lon="5.76010999269783496856689453125">
        <ele>392.79998779296875</ele>
        <time>2025-04-29T20:31:42.000Z</time>
        <extensions>
          <ns3:TrackPointExtension/>
        </extensions>
      </trkpt>
      <trkpt lat="50.1453229598701000213623046875" lon="5.759364925324916839599609375">
        <ele>386.79998779296875</ele>
        <time>2025-04-29T20:31:44.000Z</time>
        <extensions>
          <ns3:TrackPointExtension/>
        </extensions>
      </trkpt>
      <trkpt lat="50.1456729881465435028076171875" lon="5.75510096736252307891845703125">
        <ele>366.399993896484375</ele>
        <time>2025-04-29T20:31:47.000Z</time>
        <extensions>
          <ns3:TrackPointExtension/>
        </extensions>
      </trkpt>
      <trkpt lat="50.14571296982467174530029296875" lon="5.75478798709809780120849609375">
        <ele>366.20001220703125</ele>
        <time>2025-04-29T20:31:49.000Z</time>
        <extensions>
          <ns3:TrackPointExtension/>
        </extensions>
      </trkpt>
      <trkpt lat="50.145757980644702911376953125" lon="5.7545709796249866485595703125">
        <ele>366.399993896484375</ele>
        <time>2025-04-29T20:31:52.000Z</time>
        <extensions>
          <ns3:TrackPointExtension/>
        </extensions>
      </trkpt>
      <trkpt lat="50.14582595787942409515380859375" lon="5.75435497798025608062744140625">
        <ele>366.20001220703125</ele>
        <time>2025-04-29T20:31:54.000Z</time>
        <extensions>
          <ns3:TrackPointExtension/>
        </extensions>
      </trkpt>
      <trkpt lat="50.1459529437124729156494140625" lon="5.7540999166667461395263671875">
        <ele>367</ele>
        <time>2025-04-29T20:31:57.000Z</time>
        <extensions>
          <ns3:TrackPointExtension/>
        </extensions>
      </trkpt>
      <trkpt lat="50.14662793837487697601318359375" lon="5.7533639855682849884033203125">
        <ele>363.600006103515625</ele>
        <time>2025-04-29T20:31:59.000Z</time>
        <extensions>
          <ns3:TrackPointExtension/>
        </extensions>
      </trkpt>
      <trkpt lat="50.14678694307804107666015625" lon="5.7531299628317356109619140625">
        <ele>362.399993896484375</ele>
        <time>2025-04-29T20:32:02.000Z</time>
        <extensions>
          <ns3:TrackPointExtension/>
        </extensions>
      </trkpt>
      <trkpt lat="50.14691292308270931243896484375" lon="5.75285193510353565216064453125">
        <ele>361.20001220703125</ele>
        <time>2025-04-29T20:32:04.000Z</time>
        <extensions>
          <ns3:TrackPointExtension/>
        </extensions>
      </trkpt>
      <trkpt lat="50.147013925015926361083984375" lon="5.75241792015731334686279296875">
        <ele>360</ele>
        <time>2025-04-29T20:32:07.000Z</time>
        <extensions>
          <ns3:TrackPointExtension/>
        </extensions>
      </trkpt>
      <trkpt lat="50.1471119932830333709716796875" lon="5.7515179552137851715087890625">
        <ele>355.399993896484375</ele>
        <time>2025-04-29T20:32:09.000Z</time>
        <extensions>
          <ns3:TrackPointExtension/>
        </extensions>
      </trkpt>
      <trkpt lat="50.147306956350803375244140625" lon="5.7500269822776317596435546875">
        <ele>350.79998779296875</ele>
        <time>2025-04-29T20:32:12.000Z</time>
        <extensions>
          <ns3:TrackPointExtension/>
        </extensions>
      </trkpt>
      <trkpt lat="50.1473919488489627838134765625" lon="5.74968994595110416412353515625">
        <ele>351.399993896484375</ele>
        <time>2025-04-29T20:32:14.000Z</time>
        <extensions>
          <ns3:TrackPointExtension/>
        </extensions>
      </trkpt>
      <trkpt lat="50.14761096797883510589599609375" lon="5.74914495460689067840576171875">
        <ele>351.399993896484375</ele>
        <time>2025-04-29T20:32:17.000Z</time>
        <extensions>
          <ns3:TrackPointExtension/>
        </extensions>
      </trkpt>
      <trkpt lat="50.147937946021556854248046875" lon="5.74877095408737659454345703125">
        <ele>348.79998779296875</ele>
        <time>2025-04-29T20:32:19.000Z</time>
        <extensions>
          <ns3:TrackPointExtension/>
        </extensions>
      </trkpt>
      <trkpt lat="50.148346982896327972412109375" lon="5.74842696078121662139892578125">
        <ele>342.20001220703125</ele>
        <time>2025-04-29T20:32:22.000Z</time>
        <extensions>
          <ns3:TrackPointExtension/>
        </extensions>
      </trkpt>
      <trkpt lat="50.1484859548509120941162109375" lon="5.74808196164667606353759765625">
        <ele>339</ele>
        <time>2025-04-29T20:32:24.000Z</time>
        <extensions>
          <ns3:TrackPointExtension/>
        </extensions>
      </trkpt>
      <trkpt lat="50.14851294457912445068359375" lon="5.747976936399936676025390625">
        <ele>338</ele>
        <time>2025-04-29T20:32:27.000Z</time>
        <extensions>
          <ns3:TrackPointExtension/>
        </extensions>
      </trkpt>
      <trkpt lat="50.148625932633876800537109375" lon="5.7476079650223255157470703125">
        <ele>335.399993896484375</ele>
        <time>2025-04-29T20:32:29.000Z</time>
        <extensions>
          <ns3:TrackPointExtension/>
        </extensions>
      </trkpt>
      <trkpt lat="50.14875593595206737518310546875" lon="5.7473699189722537994384765625">
        <ele>330.600006103515625</ele>
        <time>2025-04-29T20:32:31.000Z</time>
        <extensions>
          <ns3:TrackPointExtension/>
        </extensions>
      </trkpt>
      <trkpt lat="50.14884092845022678375244140625" lon="5.7472639717161655426025390625">
        <ele>328.399993896484375</ele>
        <time>2025-04-29T20:32:34.000Z</time>
        <extensions>
          <ns3:TrackPointExtension/>
        </extensions>
      </trkpt>
      <trkpt lat="50.149321965873241424560546875" lon="5.7468809187412261962890625">
        <ele>325.399993896484375</ele>
        <time>2025-04-29T20:32:36.000Z</time>
        <extensions>
          <ns3:TrackPointExtension/>
        </extensions>
      </trkpt>
      <trkpt lat="50.14943897724151611328125" lon="5.74669894762337207794189453125">
        <ele>325.20001220703125</ele>
        <time>2025-04-29T20:32:39.000Z</time>
        <extensions>
          <ns3:TrackPointExtension/>
        </extensions>
      </trkpt>
      <trkpt lat="50.1495219580829143524169921875" lon="5.74647498317062854766845703125">
        <ele>325.20001220703125</ele>
        <time>2025-04-29T20:32:41.000Z</time>
        <extensions>
          <ns3:TrackPointExtension/>
        </extensions>
      </trkpt>
      <trkpt lat="50.1495779491961002349853515625" lon="5.74621397070586681365966796875">
        <ele>326.600006103515625</ele>
        <time>2025-04-29T20:32:44.000Z</time>
        <extensions>
          <ns3:TrackPointExtension/>
        </extensions>
      </trkpt>
      <trkpt lat="50.14982999302446842193603515625" lon="5.74511292390525341033935546875">
        <ele>329.20001220703125</ele>
        <time>2025-04-29T20:32:46.000Z</time>
        <extensions>
          <ns3:TrackPointExtension/>
        </extensions>
      </trkpt>
      <trkpt lat="50.1499249599874019622802734375" lon="5.7450749538838863372802734375">
        <ele>329</ele>
        <time>2025-04-29T20:32:49.000Z</time>
        <extensions>
          <ns3:TrackPointExtension/>
        </extensions>
      </trkpt>
      <trkpt lat="50.1500329189002513885498046875" lon="5.745098926126956939697265625">
        <ele>329.399993896484375</ele>
        <time>2025-04-29T20:32:51.000Z</time>
        <extensions>
          <ns3:TrackPointExtension/>
        </extensions>
      </trkpt>
      <trkpt lat="50.150414966046810150146484375" lon="5.7453699968755245208740234375">
        <ele>331.600006103515625</ele>
        <time>2025-04-29T20:32:54.000Z</time>
        <extensions>
          <ns3:TrackPointExtension/>
        </extensions>
      </trkpt>
      <trkpt lat="50.15053893439471721649169921875" lon="5.745393969118595123291015625">
        <ele>332.20001220703125</ele>
        <time>2025-04-29T20:32:56.000Z</time>
        <extensions>
          <ns3:TrackPointExtension/>
        </extensions>
      </trkpt>
      <trkpt lat="50.15065896324813365936279296875" lon="5.74534191749989986419677734375">
        <ele>333.399993896484375</ele>
        <time>2025-04-29T20:32:59.000Z</time>
        <extensions>
          <ns3:TrackPointExtension/>
        </extensions>
      </trkpt>
      <trkpt lat="50.1507269404828548431396484375" lon="5.74520193971693515777587890625">
        <ele>335</ele>
        <time>2025-04-29T20:33:01.000Z</time>
        <extensions>
          <ns3:TrackPointExtension/>
        </extensions>
      </trkpt>
      <trkpt lat="50.1507519185543060302734375" lon="5.7450249977409839630126953125">
        <ele>336.20001220703125</ele>
        <time>2025-04-29T20:33:04.000Z</time>
        <extensions>
          <ns3:TrackPointExtension/>
        </extensions>
      </trkpt>
      <trkpt lat="50.1507239229977130889892578125" lon="5.74466398917138576507568359375">
        <ele>338.20001220703125</ele>
        <time>2025-04-29T20:33:06.000Z</time>
        <extensions>
          <ns3:TrackPointExtension/>
        </extensions>
      </trkpt>
      <trkpt lat="50.15071596018970012664794921875" lon="5.74425998143851757049560546875">
        <ele>340.79998779296875</ele>
        <time>2025-04-29T20:33:09.000Z</time>
        <extensions>
          <ns3:TrackPointExtension/>
        </extensions>
      </trkpt>
      <trkpt lat="50.1507369987666606903076171875" lon="5.74390592984855175018310546875">
        <ele>342</ele>
        <time>2025-04-29T20:33:11.000Z</time>
        <extensions>
          <ns3:TrackPointExtension/>
        </extensions>
      </trkpt>
      <trkpt lat="50.15079894103109836578369140625" lon="5.74368095956742763519287109375">
        <ele>342.600006103515625</ele>
        <time>2025-04-29T20:33:14.000Z</time>
        <extensions>
          <ns3:TrackPointExtension/>
        </extensions>
      </trkpt>
      <trkpt lat="50.1508699357509613037109375" lon="5.74350594542920589447021484375">
        <ele>344</ele>
        <time>2025-04-29T20:33:16.000Z</time>
        <extensions>
          <ns3:TrackPointExtension/>
        </extensions>
      </trkpt>
      <trkpt lat="50.15096792019903659820556640625" lon="5.7434029318392276763916015625">
        <ele>345.399993896484375</ele>
        <time>2025-04-29T20:33:19.000Z</time>
        <extensions>
          <ns3:TrackPointExtension/>
        </extensions>
      </trkpt>
      <trkpt lat="50.151043944060802459716796875" lon="5.743376947939395904541015625">
        <ele>346.399993896484375</ele>
        <time>2025-04-29T20:33:21.000Z</time>
        <extensions>
          <ns3:TrackPointExtension/>
        </extensions>
      </trkpt>
      <trkpt lat="50.15116992406547069549560546875" lon="5.7434129901230335235595703125">
        <ele>347.600006103515625</ele>
        <time>2025-04-29T20:33:24.000Z</time>
        <extensions>
          <ns3:TrackPointExtension/>
        </extensions>
      </trkpt>
      <trkpt lat="50.15155297704041004180908203125" lon="5.7436319254338741302490234375">
        <ele>351</ele>
        <time>2025-04-29T20:33:26.000Z</time>
        <extensions>
          <ns3:TrackPointExtension/>
        </extensions>
      </trkpt>
      <trkpt lat="50.15175296925008296966552734375" lon="5.74371197260916233062744140625">
        <ele>352.20001220703125</ele>
        <time>2025-04-29T20:33:29.000Z</time>
        <extensions>
          <ns3:TrackPointExtension/>
        </extensions>
      </trkpt>
      <trkpt lat="50.15192597173154354095458984375" lon="5.74368397705256938934326171875">
        <ele>353.600006103515625</ele>
        <time>2025-04-29T20:33:31.000Z</time>
        <extensions>
          <ns3:TrackPointExtension/>
        </extensions>
      </trkpt>
      <trkpt lat="50.1524019800126552581787109375" lon="5.743486918509006500244140625">
        <ele>357</ele>
        <time>2025-04-29T20:33:33.000Z</time>
        <extensions>
          <ns3:TrackPointExtension/>
        </extensions>
      </trkpt>
      <trkpt lat="50.1525659300386905670166015625" lon="5.74322196654975414276123046875">
        <ele>359.399993896484375</ele>
        <time>2025-04-29T20:33:36.000Z</time>
        <extensions>
          <ns3:TrackPointExtension/>
        </extensions>
      </trkpt>
      <trkpt lat="50.15265695750713348388671875" lon="5.74295793659985065460205078125">
        <ele>362.600006103515625</ele>
        <time>2025-04-29T20:33:38.000Z</time>
        <extensions>
          <ns3:TrackPointExtension/>
        </extensions>
      </trkpt>
      <trkpt lat="50.15270297415554523468017578125" lon="5.7426019571721553802490234375">
        <ele>366.600006103515625</ele>
        <time>2025-04-29T20:33:41.000Z</time>
        <extensions>
          <ns3:TrackPointExtension/>
        </extensions>
      </trkpt>
      <trkpt lat="50.1527429558336734771728515625" lon="5.74209694750607013702392578125">
        <ele>371.399993896484375</ele>
        <time>2025-04-29T20:33:43.000Z</time>
        <extensions>
          <ns3:TrackPointExtension/>
        </extensions>
      </trkpt>
      <trkpt lat="50.15278897248208522796630859375" lon="5.74181095696985721588134765625">
        <ele>372.20001220703125</ele>
        <time>2025-04-29T20:33:46.000Z</time>
        <extensions>
          <ns3:TrackPointExtension/>
        </extensions>
      </trkpt>
      <trkpt lat="50.1529139466583728790283203125" lon="5.74152396060526371002197265625">
        <ele>374.20001220703125</ele>
        <time>2025-04-29T20:33:48.000Z</time>
        <extensions>
          <ns3:TrackPointExtension/>
        </extensions>
      </trkpt>
      <trkpt lat="50.1531409285962581634521484375" lon="5.7411689870059490203857421875">
        <ele>375.600006103515625</ele>
        <time>2025-04-29T20:33:51.000Z</time>
        <extensions>
          <ns3:TrackPointExtension/>
        </extensions>
      </trkpt>
      <trkpt lat="50.15361492522060871124267578125" lon="5.74027799069881439208984375">
        <ele>385</ele>
        <time>2025-04-29T20:33:53.000Z</time>
        <extensions>
          <ns3:TrackPointExtension/>
        </extensions>
      </trkpt>
      <trkpt lat="50.1542349345982074737548828125" lon="5.739460922777652740478515625">
        <ele>387.20001220703125</ele>
        <time>2025-04-29T20:33:56.000Z</time>
        <extensions>
          <ns3:TrackPointExtension/>
        </extensions>
      </trkpt>
      <trkpt lat="50.1546389423310756683349609375" lon="5.73913997970521450042724609375">
        <ele>392</ele>
        <time>2025-04-29T20:33:58.000Z</time>
        <extensions>
          <ns3:TrackPointExtension/>
        </extensions>
      </trkpt>
      <trkpt lat="50.1553599536418914794921875" lon="5.73871292173862457275390625">
        <ele>390</ele>
        <time>2025-04-29T20:34:01.000Z</time>
        <extensions>
          <ns3:TrackPointExtension/>
        </extensions>
      </trkpt>
      <trkpt lat="50.15549699775874614715576171875" lon="5.738597922027111053466796875">
        <ele>387.79998779296875</ele>
        <time>2025-04-29T20:34:03.000Z</time>
        <extensions>
          <ns3:TrackPointExtension/>
        </extensions>
      </trkpt>
      <trkpt lat="50.155649967491626739501953125" lon="5.738424919545650482177734375">
        <ele>386.20001220703125</ele>
        <time>2025-04-29T20:34:06.000Z</time>
        <extensions>
          <ns3:TrackPointExtension/>
        </extensions>
      </trkpt>
      <trkpt lat="50.15571794472634792327880859375" lon="5.738317966461181640625">
        <ele>385.600006103515625</ele>
        <time>2025-04-29T20:34:08.000Z</time>
        <extensions>
          <ns3:TrackPointExtension/>
        </extensions>
      </trkpt>
      <trkpt lat="50.15580293722450733184814453125" lon="5.73810799978673458099365234375">
        <ele>385</ele>
        <time>2025-04-29T20:34:11.000Z</time>
        <extensions>
          <ns3:TrackPointExtension/>
        </extensions>
      </trkpt>
      <trkpt lat="50.1558529771864414215087890625" lon="5.73794991709291934967041015625">
        <ele>383.79998779296875</ele>
        <time>2025-04-29T20:34:13.000Z</time>
        <extensions>
          <ns3:TrackPointExtension/>
        </extensions>
      </trkpt>
      <trkpt lat="50.15600192360579967498779296875" lon="5.7373109646141529083251953125">
        <ele>379.20001220703125</ele>
        <time>2025-04-29T20:34:15.000Z</time>
        <extensions>
          <ns3:TrackPointExtension/>
        </extensions>
      </trkpt>
      <trkpt lat="50.15623695217072963714599609375" lon="5.73634193278849124908447265625">
        <ele>375.399993896484375</ele>
        <time>2025-04-29T20:34:18.000Z</time>
        <extensions>
          <ns3:TrackPointExtension/>
        </extensions>
      </trkpt>
      <trkpt lat="50.15737496316432952880859375" lon="5.733716972172260284423828125">
        <ele>385.600006103515625</ele>
        <time>2025-04-29T20:34:20.000Z</time>
        <extensions>
          <ns3:TrackPointExtension/>
        </extensions>
      </trkpt>
      <trkpt lat="50.15840895473957061767578125" lon="5.731412954628467559814453125">
        <ele>395</ele>
        <time>2025-04-29T20:34:23.000Z</time>
        <extensions>
          <ns3:TrackPointExtension/>
        </extensions>
      </trkpt>
      <trkpt lat="50.15891497023403644561767578125" lon="5.73076394386589527130126953125">
        <ele>397</ele>
        <time>2025-04-29T20:34:25.000Z</time>
        <extensions>
          <ns3:TrackPointExtension/>
        </extensions>
      </trkpt>
      <trkpt lat="50.15919794328510761260986328125" lon="5.73047895915806293487548828125">
        <ele>398.600006103515625</ele>
        <time>2025-04-29T20:34:28.000Z</time>
        <extensions>
          <ns3:TrackPointExtension/>
        </extensions>
      </trkpt>
      <trkpt lat="50.15939692966639995574951171875" lon="5.73039798997342586517333984375">
        <ele>398.79998779296875</ele>
        <time>2025-04-29T20:34:30.000Z</time>
        <extensions>
          <ns3:TrackPointExtension/>
        </extensions>
      </trkpt>
      <trkpt lat="50.1595959998667240142822265625" lon="5.7304089702665805816650390625">
        <ele>398.20001220703125</ele>
        <time>2025-04-29T20:34:33.000Z</time>
        <extensions>
          <ns3:TrackPointExtension/>
        </extensions>
      </trkpt>
      <trkpt lat="50.160942971706390380859375" lon="5.73087492026388645172119140625">
        <ele>395.600006103515625</ele>
        <time>2025-04-29T20:34:35.000Z</time>
        <extensions>
          <ns3:TrackPointExtension/>
        </extensions>
      </trkpt>
      <trkpt lat="50.16160991974174976348876953125" lon="5.731067955493927001953125">
        <ele>400.20001220703125</ele>
        <time>2025-04-29T20:34:38.000Z</time>
        <extensions>
          <ns3:TrackPointExtension/>
        </extensions>
      </trkpt>
      <trkpt lat="50.1620579324662685394287109375" lon="5.73103199712932109832763671875">
        <ele>400.600006103515625</ele>
        <time>2025-04-29T20:34:40.000Z</time>
        <extensions>
          <ns3:TrackPointExtension/>
        </extensions>
      </trkpt>
      <trkpt lat="50.16215591691434383392333984375" lon="5.730948932468891143798828125">
        <ele>401</ele>
        <time>2025-04-29T20:34:43.000Z</time>
        <extensions>
          <ns3:TrackPointExtension/>
        </extensions>
      </trkpt>
      <trkpt lat="50.162431932985782623291015625" lon="5.73062698356807231903076171875">
        <ele>404.20001220703125</ele>
        <time>2025-04-29T20:34:45.000Z</time>
        <extensions>
          <ns3:TrackPointExtension/>
        </extensions>
      </trkpt>
      <trkpt lat="50.16349098645150661468505859375" lon="5.7283629477024078369140625">
        <ele>419</ele>
        <time>2025-04-29T20:34:48.000Z</time>
        <extensions>
          <ns3:TrackPointExtension/>
        </extensions>
      </trkpt>
      <trkpt lat="50.16363398171961307525634765625" lon="5.7281109876930713653564453125">
        <ele>421</ele>
        <time>2025-04-29T20:34:50.000Z</time>
        <extensions>
          <ns3:TrackPointExtension/>
        </extensions>
      </trkpt>
      <trkpt lat="50.16383397392928600311279296875" lon="5.72785399854183197021484375">
        <ele>420.79998779296875</ele>
        <time>2025-04-29T20:34:53.000Z</time>
        <extensions>
          <ns3:TrackPointExtension/>
        </extensions>
      </trkpt>
      <trkpt lat="50.16466294415295124053955078125" lon="5.72722099721431732177734375">
        <ele>416</ele>
        <time>2025-04-29T20:34:55.000Z</time>
        <extensions>
          <ns3:TrackPointExtension/>
        </extensions>
      </trkpt>
      <trkpt lat="50.16477693803608417510986328125" lon="5.7270079292356967926025390625">
        <ele>415.399993896484375</ele>
        <time>2025-04-29T20:34:58.000Z</time>
        <extensions>
          <ns3:TrackPointExtension/>
        </extensions>
      </trkpt>
      <trkpt lat="50.16484499908983707427978515625" lon="5.7268059253692626953125">
        <ele>415.20001220703125</ele>
        <time>2025-04-29T20:35:00.000Z</time>
        <extensions>
          <ns3:TrackPointExtension/>
        </extensions>
      </trkpt>
      <trkpt lat="50.16486897133290767669677734375" lon="5.72668296284973621368408203125">
        <ele>415.20001220703125</ele>
        <time>2025-04-29T20:35:02.000Z</time>
        <extensions>
          <ns3:TrackPointExtension/>
        </extensions>
      </trkpt>
      <trkpt lat="50.16492093913257122039794921875" lon="5.72610897012054920196533203125">
        <ele>413.79998779296875</ele>
        <time>2025-04-29T20:35:05.000Z</time>
        <extensions>
          <ns3:TrackPointExtension/>
        </extensions>
      </trkpt>
      <trkpt lat="50.164908953011035919189453125" lon="5.72584695182740688323974609375">
        <ele>412.79998779296875</ele>
        <time>2025-04-29T20:35:07.000Z</time>
        <extensions>
          <ns3:TrackPointExtension/>
        </extensions>
      </trkpt>
      <trkpt lat="50.16485698521137237548828125" lon="5.7255199737846851348876953125">
        <ele>412</ele>
        <time>2025-04-29T20:35:10.000Z</time>
        <extensions>
          <ns3:TrackPointExtension/>
        </extensions>
      </trkpt>
      <trkpt lat="50.16458398662507534027099609375" lon="5.72446896694600582122802734375">
        <ele>408</ele>
        <time>2025-04-29T20:35:12.000Z</time>
        <extensions>
          <ns3:TrackPointExtension/>
        </extensions>
      </trkpt>
      <trkpt lat="50.16443395055830478668212890625" lon="5.72398097254335880279541015625">
        <ele>406.79998779296875</ele>
        <time>2025-04-29T20:35:15.000Z</time>
        <extensions>
          <ns3:TrackPointExtension/>
        </extensions>
      </trkpt>
      <trkpt lat="50.16440897248685359954833984375" lon="5.72380193509161472320556640625">
        <ele>406.20001220703125</ele>
        <time>2025-04-29T20:35:17.000Z</time>
        <extensions>
          <ns3:TrackPointExtension/>
        </extensions>
      </trkpt>
      <trkpt lat="50.1644249819219112396240234375" lon="5.72358299978077411651611328125">
        <ele>405</ele>
        <time>2025-04-29T20:35:20.000Z</time>
        <extensions>
          <ns3:TrackPointExtension/>
        </extensions>
      </trkpt>
      <trkpt lat="50.164446942508220672607421875" lon="5.72346397675573825836181640625">
        <ele>404.20001220703125</ele>
        <time>2025-04-29T20:35:22.000Z</time>
        <extensions>
          <ns3:TrackPointExtension/>
        </extensions>
      </trkpt>
      <trkpt lat="50.1645389758050441741943359375" lon="5.72326398454606533050537109375">
        <ele>402.600006103515625</ele>
        <time>2025-04-29T20:35:25.000Z</time>
        <extensions>
          <ns3:TrackPointExtension/>
        </extensions>
      </trkpt>
      <trkpt lat="50.1649419777095317840576171875" lon="5.72277498431503772735595703125">
        <ele>403.20001220703125</ele>
        <time>2025-04-29T20:35:27.000Z</time>
        <extensions>
          <ns3:TrackPointExtension/>
        </extensions>
      </trkpt>
      <trkpt lat="50.16502797603607177734375" lon="5.72257298044860363006591796875">
        <ele>403.79998779296875</ele>
        <time>2025-04-29T20:35:30.000Z</time>
        <extensions>
          <ns3:TrackPointExtension/>
        </extensions>
      </trkpt>
      <trkpt lat="50.16507298685610294342041015625" lon="5.7224059291183948516845703125">
        <ele>403.600006103515625</ele>
        <time>2025-04-29T20:35:32.000Z</time>
        <extensions>
          <ns3:TrackPointExtension/>
        </extensions>
      </trkpt>
      <trkpt lat="50.165081955492496490478515625" lon="5.72227098047733306884765625">
        <ele>402.79998779296875</ele>
        <time>2025-04-29T20:35:35.000Z</time>
        <extensions>
          <ns3:TrackPointExtension/>
        </extensions>
      </trkpt>
      <trkpt lat="50.1650569774210453033447265625" lon="5.722031928598880767822265625">
        <ele>401.20001220703125</ele>
        <time>2025-04-29T20:35:37.000Z</time>
        <extensions>
          <ns3:TrackPointExtension/>
        </extensions>
      </trkpt>
      <trkpt lat="50.16506896354258060455322265625" lon="5.72187795303761959075927734375">
        <ele>400.79998779296875</ele>
        <time>2025-04-29T20:35:40.000Z</time>
        <extensions>
          <ns3:TrackPointExtension/>
        </extensions>
      </trkpt>
      <trkpt lat="50.1651119627058506011962890625" lon="5.7216639630496501922607421875">
        <ele>400</ele>
        <time>2025-04-29T20:35:42.000Z</time>
        <extensions>
          <ns3:TrackPointExtension/>
        </extensions>
      </trkpt>
      <trkpt lat="50.16520592384040355682373046875" lon="5.721463970839977264404296875">
        <ele>399.20001220703125</ele>
        <time>2025-04-29T20:35:44.000Z</time>
        <extensions>
          <ns3:TrackPointExtension/>
        </extensions>
      </trkpt>
      <trkpt lat="50.1653939299285411834716796875" lon="5.72121393866837024688720703125">
        <ele>399.600006103515625</ele>
        <time>2025-04-29T20:35:47.000Z</time>
        <extensions>
          <ns3:TrackPointExtension/>
        </extensions>
      </trkpt>
      <trkpt lat="50.16552695073187351226806640625" lon="5.7210819236934185028076171875">
        <ele>400.20001220703125</ele>
        <time>2025-04-29T20:35:49.000Z</time>
        <extensions>
          <ns3:TrackPointExtension/>
        </extensions>
      </trkpt>
      <trkpt lat="50.1658039726316928863525390625" lon="5.7207119464874267578125">
        <ele>402.20001220703125</ele>
        <time>2025-04-29T20:35:52.000Z</time>
        <extensions>
          <ns3:TrackPointExtension/>
        </extensions>
      </trkpt>
      <trkpt lat="50.16593498177826404571533203125" lon="5.72034792043268680572509765625">
        <ele>402.20001220703125</ele>
        <time>2025-04-29T20:35:54.000Z</time>
        <extensions>
          <ns3:TrackPointExtension/>
        </extensions>
      </trkpt>
      <trkpt lat="50.16599298454821109771728515625" lon="5.72003795765340328216552734375">
        <ele>402</ele>
        <time>2025-04-29T20:35:57.000Z</time>
        <extensions>
          <ns3:TrackPointExtension/>
        </extensions>
      </trkpt>
      <trkpt lat="50.16607395373284816741943359375" lon="5.71898795664310455322265625">
        <ele>404.600006103515625</ele>
        <time>2025-04-29T20:35:59.000Z</time>
        <extensions>
          <ns3:TrackPointExtension/>
        </extensions>
      </trkpt>
      <trkpt lat="50.16615794040262699127197265625" lon="5.71873691864311695098876953125">
        <ele>404.79998779296875</ele>
        <time>2025-04-29T20:36:02.000Z</time>
        <extensions>
          <ns3:TrackPointExtension/>
        </extensions>
      </trkpt>
      <trkpt lat="50.1662579365074634552001953125" lon="5.71859895251691341400146484375">
        <ele>405.20001220703125</ele>
        <time>2025-04-29T20:36:04.000Z</time>
        <extensions>
          <ns3:TrackPointExtension/>
        </extensions>
      </trkpt>
      <trkpt lat="50.1662899553775787353515625" lon="5.71851798333227634429931640625">
        <ele>405.600006103515625</ele>
        <time>2025-04-29T20:36:07.000Z</time>
        <extensions>
          <ns3:TrackPointExtension/>
        </extensions>
      </trkpt>
      <trkpt lat="50.16630093567073345184326171875" lon="5.71842595003545284271240234375">
        <ele>405.79998779296875</ele>
        <time>2025-04-29T20:36:09.000Z</time>
        <extensions>
          <ns3:TrackPointExtension/>
        </extensions>
      </trkpt>
      <trkpt lat="50.16605299897491931915283203125" lon="5.71745297871530055999755859375">
        <ele>409.20001220703125</ele>
        <time>2025-04-29T20:36:12.000Z</time>
        <extensions>
          <ns3:TrackPointExtension/>
        </extensions>
      </trkpt>
      <trkpt lat="50.1662629656493663787841796875" lon="5.71738592348992824554443359375">
        <ele>410.79998779296875</ele>
        <time>2025-04-29T20:36:17.000Z</time>
        <extensions>
          <ns3:TrackPointExtension/>
        </extensions>
      </trkpt>
      <trkpt lat="50.1664299331605434417724609375" lon="5.7172359712421894073486328125">
        <ele>412.20001220703125</ele>
        <time>2025-04-29T20:36:22.000Z</time>
        <extensions>
          <ns3:TrackPointExtension/>
        </extensions>
      </trkpt>
      <trkpt lat="50.1671889983117580413818359375" lon="5.71636098437011241912841796875">
        <ele>417.20001220703125</ele>
        <time>2025-04-29T20:36:26.000Z</time>
        <extensions>
          <ns3:TrackPointExtension/>
        </extensions>
      </trkpt>
      <trkpt lat="50.16760298050940036773681640625" lon="5.71592093445360660552978515625">
        <ele>419</ele>
        <time>2025-04-29T20:36:31.000Z</time>
        <extensions>
          <ns3:TrackPointExtension/>
        </extensions>
      </trkpt>
      <trkpt lat="50.16852096654474735260009765625" lon="5.71524493396282196044921875">
        <ele>417.600006103515625</ele>
        <time>2025-04-29T20:36:36.000Z</time>
        <extensions>
          <ns3:TrackPointExtension/>
        </extensions>
      </trkpt>
      <trkpt lat="50.16876697540283203125" lon="5.71501099504530429840087890625">
        <ele>416.600006103515625</ele>
        <time>2025-04-29T20:36:41.000Z</time>
        <extensions>
          <ns3:TrackPointExtension/>
        </extensions>
      </trkpt>
      <trkpt lat="50.16904097981750965118408203125" lon="5.7147069834172725677490234375">
        <ele>414.79998779296875</ele>
        <time>2025-04-29T20:36:46.000Z</time>
        <extensions>
          <ns3:TrackPointExtension/>
        </extensions>
      </trkpt>
      <trkpt lat="50.16927198506891727447509765625" lon="5.71437497623264789581298828125">
        <ele>414.600006103515625</ele>
        <time>2025-04-29T20:36:51.000Z</time>
        <extensions>
          <ns3:TrackPointExtension/>
        </extensions>
      </trkpt>
      <trkpt lat="50.16950793564319610595703125" lon="5.714099965989589691162109375">
        <ele>415.79998779296875</ele>
        <time>2025-04-29T20:36:56.000Z</time>
        <extensions>
          <ns3:TrackPointExtension/>
        </extensions>
      </trkpt>
      <trkpt lat="50.170198939740657806396484375" lon="5.71361993439495563507080078125">
        <ele>420.399993896484375</ele>
        <time>2025-04-29T20:37:01.000Z</time>
        <extensions>
          <ns3:TrackPointExtension/>
        </extensions>
      </trkpt>
      <trkpt lat="50.1704619638621807098388671875" lon="5.71350795216858386993408203125">
        <ele>419.600006103515625</ele>
        <time>2025-04-29T20:37:06.000Z</time>
        <extensions>
          <ns3:TrackPointExtension/>
        </extensions>
      </trkpt>
      <trkpt lat="50.1706619560718536376953125" lon="5.713460929691791534423828125">
        <ele>418.399993896484375</ele>
        <time>2025-04-29T20:37:11.000Z</time>
        <extensions>
          <ns3:TrackPointExtension/>
        </extensions>
      </trkpt>
      <trkpt lat="50.17091399990022182464599609375" lon="5.71353896521031856536865234375">
        <ele>417.399993896484375</ele>
        <time>2025-04-29T20:37:16.000Z</time>
        <extensions>
          <ns3:TrackPointExtension/>
        </extensions>
      </trkpt>
      <trkpt lat="50.17208998091518878936767578125" lon="5.71417498402297496795654296875">
        <ele>421</ele>
        <time>2025-04-29T20:37:21.000Z</time>
        <extensions>
          <ns3:TrackPointExtension/>
        </extensions>
      </trkpt>
      <trkpt lat="50.1727039553225040435791015625" lon="5.71439794264733791351318359375">
        <ele>426.600006103515625</ele>
        <time>2025-04-29T20:37:25.000Z</time>
        <extensions>
          <ns3:TrackPointExtension/>
        </extensions>
      </trkpt>
      <trkpt lat="50.17335598357021808624267578125" lon="5.71454999037086963653564453125">
        <ele>427.79998779296875</ele>
        <time>2025-04-29T20:37:30.000Z</time>
        <extensions>
          <ns3:TrackPointExtension/>
        </extensions>
      </trkpt>
      <trkpt lat="50.17364599741995334625244140625" lon="5.71454697288572788238525390625">
        <ele>429.20001220703125</ele>
        <time>2025-04-29T20:37:35.000Z</time>
        <extensions>
          <ns3:TrackPointExtension/>
        </extensions>
      </trkpt>
      <trkpt lat="50.17386795021593570709228515625" lon="5.71448092348873615264892578125">
        <ele>429</ele>
        <time>2025-04-29T20:37:40.000Z</time>
        <extensions>
          <ns3:TrackPointExtension/>
        </extensions>
      </trkpt>
      <trkpt lat="50.175264962017536163330078125" lon="5.713411979377269744873046875">
        <ele>431</ele>
        <time>2025-04-29T20:37:45.000Z</time>
        <extensions>
          <ns3:TrackPointExtension/>
        </extensions>
      </trkpt>
      <trkpt lat="50.1755239628255367279052734375" lon="5.71329496800899505615234375">
        <ele>433.20001220703125</ele>
        <time>2025-04-29T20:37:50.000Z</time>
        <extensions>
          <ns3:TrackPointExtension/>
        </extensions>
      </trkpt>
      <trkpt lat="50.1759829558432102203369140625" lon="5.71330695413053035736083984375">
        <ele>436.600006103515625</ele>
        <time>2025-04-29T20:37:55.000Z</time>
        <extensions>
          <ns3:TrackPointExtension/>
        </extensions>
      </trkpt>
      <trkpt lat="50.176937989890575408935546875" lon="5.7134389691054821014404296875">
        <ele>445.79998779296875</ele>
        <time>2025-04-29T20:38:00.000Z</time>
        <extensions>
          <ns3:TrackPointExtension/>
        </extensions>
      </trkpt>
      <trkpt lat="50.17877094447612762451171875" lon="5.71400298736989498138427734375">
        <ele>470.20001220703125</ele>
        <time>2025-04-29T20:38:05.000Z</time>
        <extensions>
          <ns3:TrackPointExtension/>
        </extensions>
      </trkpt>
      <trkpt lat="50.17910898663103580474853515625" lon="5.714154951274394989013671875">
        <ele>471.600006103515625</ele>
        <time>2025-04-29T20:38:10.000Z</time>
        <extensions>
          <ns3:TrackPointExtension/>
        </extensions>
      </trkpt>
      <trkpt lat="50.1793469488620758056640625" lon="5.7143069989979267120361328125">
        <ele>469.79998779296875</ele>
        <time>2025-04-29T20:38:15.000Z</time>
        <extensions>
          <ns3:TrackPointExtension/>
        </extensions>
      </trkpt>
      <trkpt lat="50.17996997572481632232666015625" lon="5.71508592925965785980224609375">
        <ele>464.20001220703125</ele>
        <time>2025-04-29T20:38:19.000Z</time>
        <extensions>
          <ns3:TrackPointExtension/>
        </extensions>
      </trkpt>
      <trkpt lat="50.1803619973361492156982421875" lon="5.71563393808901309967041015625">
        <ele>460.20001220703125</ele>
        <time>2025-04-29T20:38:24.000Z</time>
        <extensions>
          <ns3:TrackPointExtension/>
        </extensions>
      </trkpt>
      <trkpt lat="50.181934945285320281982421875" lon="5.71768498979508876800537109375">
        <ele>456</ele>
        <time>2025-04-29T20:38:29.000Z</time>
        <extensions>
          <ns3:TrackPointExtension/>
        </extensions>
      </trkpt>
      <trkpt lat="50.18215094693005084991455078125" lon="5.717781968414783477783203125">
        <ele>453.79998779296875</ele>
        <time>2025-04-29T20:38:34.000Z</time>
        <extensions>
          <ns3:TrackPointExtension/>
        </extensions>
      </trkpt>
      <trkpt lat="50.1824259571731090545654296875" lon="5.7178689725697040557861328125">
        <ele>454.20001220703125</ele>
        <time>2025-04-29T20:38:39.000Z</time>
        <extensions>
          <ns3:TrackPointExtension/>
        </extensions>
      </trkpt>
      <trkpt lat="50.184749923646450042724609375" lon="5.71819393895566463470458984375">
        <ele>437.79998779296875</ele>
        <time>2025-04-29T20:38:44.000Z</time>
        <extensions>
          <ns3:TrackPointExtension/>
        </extensions>
      </trkpt>
      <trkpt lat="50.1849039830267429351806640625" lon="5.7181499339640140533447265625">
        <ele>434.399993896484375</ele>
        <time>2025-04-29T20:38:49.000Z</time>
        <extensions>
          <ns3:TrackPointExtension/>
        </extensions>
      </trkpt>
      <trkpt lat="50.18504597246646881103515625" lon="5.718007944524288177490234375">
        <ele>434.600006103515625</ele>
        <time>2025-04-29T20:38:54.000Z</time>
        <extensions>
          <ns3:TrackPointExtension/>
        </extensions>
      </trkpt>
      <trkpt lat="50.1855919696390628814697265625" lon="5.71731199510395526885986328125">
        <ele>440.399993896484375</ele>
        <time>2025-04-29T20:38:59.000Z</time>
        <extensions>
          <ns3:TrackPointExtension/>
        </extensions>
      </trkpt>
      <trkpt lat="50.187460966408252716064453125" lon="5.7147059775888919830322265625">
        <ele>441.20001220703125</ele>
        <time>2025-04-29T20:39:04.000Z</time>
        <extensions>
          <ns3:TrackPointExtension/>
        </extensions>
      </trkpt>
      <trkpt lat="50.18785298801958560943603515625" lon="5.71440196596086025238037109375">
        <ele>448.600006103515625</ele>
        <time>2025-04-29T20:39:09.000Z</time>
        <extensions>
          <ns3:TrackPointExtension/>
        </extensions>
      </trkpt>
      <trkpt lat="50.18813696689903736114501953125" lon="5.71446298621594905853271484375">
        <ele>452</ele>
        <time>2025-04-29T20:39:13.000Z</time>
        <extensions>
          <ns3:TrackPointExtension/>
        </extensions>
      </trkpt>
      <trkpt lat="50.188322961330413818359375" lon="5.71457698009908199310302734375">
        <ele>453</ele>
        <time>2025-04-29T20:39:18.000Z</time>
        <extensions>
          <ns3:TrackPointExtension/>
        </extensions>
      </trkpt>
      <trkpt lat="50.18894598819315433502197265625" lon="5.7148109190165996551513671875">
        <ele>453.399993896484375</ele>
        <time>2025-04-29T20:39:23.000Z</time>
        <extensions>
          <ns3:TrackPointExtension/>
        </extensions>
      </trkpt>
      <trkpt lat="50.18969692289829254150390625" lon="5.715019963681697845458984375">
        <ele>458</ele>
        <time>2025-04-29T20:39:28.000Z</time>
        <extensions>
          <ns3:TrackPointExtension/>
        </extensions>
      </trkpt>
      <trkpt lat="50.19054492004215717315673828125" lon="5.71501694619655609130859375">
        <ele>460.399993896484375</ele>
        <time>2025-04-29T20:39:33.000Z</time>
        <extensions>
          <ns3:TrackPointExtension/>
        </extensions>
      </trkpt>
      <trkpt lat="50.19080894999206066131591796875" lon="5.71505692787468433380126953125">
        <ele>461.20001220703125</ele>
        <time>2025-04-29T20:39:38.000Z</time>
        <extensions>
          <ns3:TrackPointExtension/>
        </extensions>
      </trkpt>
      <trkpt lat="50.19153599627315998077392578125" lon="5.7153379730880260467529296875">
        <ele>460.600006103515625</ele>
        <time>2025-04-29T20:39:43.000Z</time>
        <extensions>
          <ns3:TrackPointExtension/>
        </extensions>
      </trkpt>
      <trkpt lat="50.19199297763407230377197265625" lon="5.715655982494354248046875">
        <ele>458</ele>
        <time>2025-04-29T20:39:48.000Z</time>
        <extensions>
          <ns3:TrackPointExtension/>
        </extensions>
      </trkpt>
      <trkpt lat="50.1922669820487499237060546875" lon="5.71569596417248249053955078125">
        <ele>459.399993896484375</ele>
        <time>2025-04-29T20:39:53.000Z</time>
        <extensions>
          <ns3:TrackPointExtension/>
        </extensions>
      </trkpt>
      <trkpt lat="50.192526988685131072998046875" lon="5.71567299775779247283935546875">
        <ele>460</ele>
        <time>2025-04-29T20:39:58.000Z</time>
        <extensions>
          <ns3:TrackPointExtension/>
        </extensions>
      </trkpt>
      <trkpt lat="50.19285799004137516021728515625" lon="5.71555095724761486053466796875">
        <ele>464</ele>
        <time>2025-04-29T20:40:03.000Z</time>
        <extensions>
          <ns3:TrackPointExtension/>
        </extensions>
      </trkpt>
      <trkpt lat="50.193558968603610992431640625" lon="5.715242922306060791015625">
        <ele>462</ele>
        <time>2025-04-29T20:40:08.000Z</time>
        <extensions>
          <ns3:TrackPointExtension/>
        </extensions>
      </trkpt>
      <trkpt lat="50.1956509239971637725830078125" lon="5.71425293572247028350830078125">
        <ele>474.79998779296875</ele>
        <time>2025-04-29T20:40:12.000Z</time>
        <extensions>
          <ns3:TrackPointExtension/>
        </extensions>
      </trkpt>
      <trkpt lat="50.196031965315341949462890625" lon="5.71411798708140850067138671875">
        <ele>475.20001220703125</ele>
        <time>2025-04-29T20:40:17.000Z</time>
        <extensions>
          <ns3:TrackPointExtension/>
        </extensions>
      </trkpt>
      <trkpt lat="50.196377970278263092041015625" lon="5.7140689529478549957275390625">
        <ele>473.600006103515625</ele>
        <time>2025-04-29T20:40:22.000Z</time>
        <extensions>
          <ns3:TrackPointExtension/>
        </extensions>
      </trkpt>
      <trkpt lat="50.19781194627285003662109375" lon="5.71397599764168262481689453125">
        <ele>479.600006103515625</ele>
        <time>2025-04-29T20:40:27.000Z</time>
        <extensions>
          <ns3:TrackPointExtension/>
        </extensions>
      </trkpt>
      <trkpt lat="50.199540965259075164794921875" lon="5.71393492631614208221435546875">
        <ele>492.79998779296875</ele>
        <time>2025-04-29T20:40:32.000Z</time>
        <extensions>
          <ns3:TrackPointExtension/>
        </extensions>
      </trkpt>
      <trkpt lat="50.20041695795953273773193359375" lon="5.7133269868791103363037109375">
        <ele>501</ele>
        <time>2025-04-29T20:40:37.000Z</time>
        <extensions>
          <ns3:TrackPointExtension/>
        </extensions>
      </trkpt>
      <trkpt lat="50.2006639726459980010986328125" lon="5.7129729352891445159912109375">
        <ele>502.399993896484375</ele>
        <time>2025-04-29T20:40:42.000Z</time>
        <extensions>
          <ns3:TrackPointExtension/>
        </extensions>
      </trkpt>
      <trkpt lat="50.2020929194986820220947265625" lon="5.7104979269206523895263671875">
        <ele>497</ele>
        <time>2025-04-29T20:40:47.000Z</time>
        <extensions>
          <ns3:TrackPointExtension/>
        </extensions>
      </trkpt>
      <trkpt lat="50.20277696661651134490966796875" lon="5.7086669839918613433837890625">
        <ele>498.79998779296875</ele>
        <time>2025-04-29T20:40:52.000Z</time>
        <extensions>
          <ns3:TrackPointExtension/>
        </extensions>
      </trkpt>
      <trkpt lat="50.20363594405353069305419921875" lon="5.706273950636386871337890625">
        <ele>504</ele>
        <time>2025-04-29T20:40:57.000Z</time>
        <extensions>
          <ns3:TrackPointExtension/>
        </extensions>
      </trkpt>
      <trkpt lat="50.2041099406778812408447265625" lon="5.705009959638118743896484375">
        <ele>506.20001220703125</ele>
        <time>2025-04-29T20:41:02.000Z</time>
        <extensions>
          <ns3:TrackPointExtension/>
        </extensions>
      </trkpt>
      <trkpt lat="50.20447698421776294708251953125" lon="5.70404998026788234710693359375">
        <ele>508.20001220703125</ele>
        <time>2025-04-29T20:41:06.000Z</time>
        <extensions>
          <ns3:TrackPointExtension/>
        </extensions>
      </trkpt>
      <trkpt lat="50.20501099526882171630859375" lon="5.70301397703588008880615234375">
        <ele>511.79998779296875</ele>
        <time>2025-04-29T20:41:11.000Z</time>
        <extensions>
          <ns3:TrackPointExtension/>
        </extensions>
      </trkpt>
      <trkpt lat="50.20513295195996761322021484375" lon="5.70286092348396778106689453125">
        <ele>512.20001220703125</ele>
        <time>2025-04-29T20:41:16.000Z</time>
        <extensions>
          <ns3:TrackPointExtension/>
        </extensions>
      </trkpt>
      <trkpt lat="50.20544593222439289093017578125" lon="5.7026839815080165863037109375">
        <ele>513</ele>
        <time>2025-04-29T20:41:21.000Z</time>
        <extensions>
          <ns3:TrackPointExtension/>
        </extensions>
      </trkpt>
      <trkpt lat="50.20558792166411876678466796875" lon="5.70266897790133953094482421875">
        <ele>512.5999755859375</ele>
        <time>2025-04-29T20:41:26.000Z</time>
        <extensions>
          <ns3:TrackPointExtension/>
        </extensions>
      </trkpt>
      <trkpt lat="50.20565598271787166595458984375" lon="5.70268792100250720977783203125">
        <ele>512.4000244140625</ele>
        <time>2025-04-29T20:41:31.000Z</time>
        <extensions>
          <ns3:TrackPointExtension/>
        </extensions>
      </trkpt>
      <trkpt lat="50.2058329246938228607177734375" lon="5.70281297899782657623291015625">
        <ele>511.79998779296875</ele>
        <time>2025-04-29T20:41:36.000Z</time>
        <extensions>
          <ns3:TrackPointExtension/>
        </extensions>
      </trkpt>
      <trkpt lat="50.2066489867866039276123046875" lon="5.70363993756473064422607421875">
        <ele>520.20001220703125</ele>
        <time>2025-04-29T20:41:41.000Z</time>
        <extensions>
          <ns3:TrackPointExtension/>
        </extensions>
      </trkpt>
      <trkpt lat="50.20685493014752864837646484375" lon="5.70373096503317356109619140625">
        <ele>522.4000244140625</ele>
        <time>2025-04-29T20:41:46.000Z</time>
        <extensions>
          <ns3:TrackPointExtension/>
        </extensions>
      </trkpt>
      <trkpt lat="50.2088869549334049224853515625" lon="5.703971944749355316162109375">
        <ele>534.4000244140625</ele>
        <time>2025-04-29T20:41:51.000Z</time>
        <extensions>
          <ns3:TrackPointExtension/>
        </extensions>
      </trkpt>
      <trkpt lat="50.20918996073305606842041015625" lon="5.70408199913799762725830078125">
        <ele>536</ele>
        <time>2025-04-29T20:41:56.000Z</time>
        <extensions>
          <ns3:TrackPointExtension/>
        </extensions>
      </trkpt>
      <trkpt lat="50.20982799120247364044189453125" lon="5.70465599186718463897705078125">
        <ele>540.4000244140625</ele>
        <time>2025-04-29T20:42:00.000Z</time>
        <extensions>
          <ns3:TrackPointExtension/>
        </extensions>
      </trkpt>
      <trkpt lat="50.21249695681035518646240234375" lon="5.7066489569842815399169921875">
        <ele>538.5999755859375</ele>
        <time>2025-04-29T20:42:05.000Z</time>
        <extensions>
          <ns3:TrackPointExtension/>
        </extensions>
      </trkpt>
      <trkpt lat="50.21749491803348064422607421875" lon="5.71024395525455474853515625">
        <ele>572.79998779296875</ele>
        <time>2025-04-29T20:42:10.000Z</time>
        <extensions>
          <ns3:TrackPointExtension/>
        </extensions>
      </trkpt>
      <trkpt lat="50.21885798312723636627197265625" lon="5.71117795072495937347412109375">
        <ele>575.79998779296875</ele>
        <time>2025-04-29T20:42:15.000Z</time>
        <extensions>
          <ns3:TrackPointExtension/>
        </extensions>
      </trkpt>
      <trkpt lat="50.21920298226177692413330078125" lon="5.711455978453159332275390625">
        <ele>580.5999755859375</ele>
        <time>2025-04-29T20:42:20.000Z</time>
        <extensions>
          <ns3:TrackPointExtension/>
        </extensions>
      </trkpt>
      <trkpt lat="50.2224079705774784088134765625" lon="5.71376594714820384979248046875">
        <ele>601.20001220703125</ele>
        <time>2025-04-29T20:42:25.000Z</time>
        <extensions>
          <ns3:TrackPointExtension/>
        </extensions>
      </trkpt>
      <trkpt lat="50.2225769497454166412353515625" lon="5.71382696740329265594482421875">
        <ele>599.4000244140625</ele>
        <time>2025-04-29T20:42:30.000Z</time>
        <extensions>
          <ns3:TrackPointExtension/>
        </extensions>
      </trkpt>
      <trkpt lat="50.22288699634373188018798828125" lon="5.71371699683368206024169921875">
        <ele>597.4000244140625</ele>
        <time>2025-04-29T20:42:35.000Z</time>
        <extensions>
          <ns3:TrackPointExtension/>
        </extensions>
      </trkpt>
      <trkpt lat="50.223240964114665985107421875" lon="5.71364097297191619873046875">
        <ele>596.79998779296875</ele>
        <time>2025-04-29T20:42:42.000Z</time>
        <extensions>
          <ns3:TrackPointExtension/>
        </extensions>
      </trkpt>
      <trkpt lat="50.22359292022883892059326171875" lon="5.713633932173252105712890625">
        <ele>594.79998779296875</ele>
        <time>2025-04-29T20:42:48.000Z</time>
        <extensions>
          <ns3:TrackPointExtension/>
        </extensions>
      </trkpt>
      <trkpt lat="50.2240209840238094329833984375" lon="5.713690929114818572998046875">
        <ele>595.5999755859375</ele>
        <time>2025-04-29T20:42:55.000Z</time>
        <extensions>
          <ns3:TrackPointExtension/>
        </extensions>
      </trkpt>
      <trkpt lat="50.22471592761576175689697265625" lon="5.713869966566562652587890625">
        <ele>595.5999755859375</ele>
        <time>2025-04-29T20:43:02.000Z</time>
        <extensions>
          <ns3:TrackPointExtension/>
        </extensions>
      </trkpt>
      <trkpt lat="50.225538946688175201416015625" lon="5.71390592493116855621337890625">
        <ele>595.4000244140625</ele>
        <time>2025-04-29T20:43:09.000Z</time>
        <extensions>
          <ns3:TrackPointExtension/>
        </extensions>
      </trkpt>
      <trkpt lat="50.22578897885978221893310546875" lon="5.713983960449695587158203125">
        <ele>596</ele>
        <time>2025-04-29T20:43:16.000Z</time>
        <extensions>
          <ns3:TrackPointExtension/>
        </extensions>
      </trkpt>
      <trkpt lat="50.22636699490249156951904296875" lon="5.7143019698560237884521484375">
        <ele>597.5999755859375</ele>
        <time>2025-04-29T20:43:22.000Z</time>
        <extensions>
          <ns3:TrackPointExtension/>
        </extensions>
      </trkpt>
      <trkpt lat="50.22656195797026157379150390625" lon="5.71437296457588672637939453125">
        <ele>600</ele>
        <time>2025-04-29T20:43:29.000Z</time>
        <extensions>
          <ns3:TrackPointExtension/>
        </extensions>
      </trkpt>
      <trkpt lat="50.2268309332430362701416015625" lon="5.7144079171121120452880859375">
        <ele>600.20001220703125</ele>
        <time>2025-04-29T20:43:36.000Z</time>
        <extensions>
          <ns3:TrackPointExtension/>
        </extensions>
      </trkpt>
      <trkpt lat="50.227203927934169769287109375" lon="5.71269993670284748077392578125">
        <ele>602.20001220703125</ele>
        <time>2025-04-29T20:43:45.000Z</time>
        <extensions>
          <ns3:TrackPointExtension/>
        </extensions>
      </trkpt>
      <trkpt lat="50.22725991904735565185546875" lon="5.71255291812121868133544921875">
        <ele>602.4000244140625</ele>
        <time>2025-04-29T20:43:53.000Z</time>
        <extensions>
          <ns3:TrackPointExtension/>
        </extensions>
      </trkpt>
      <trkpt lat="50.227324962615966796875" lon="5.71244697086513042449951171875">
        <ele>603</ele>
        <time>2025-04-29T20:44:02.000Z</time>
        <extensions>
          <ns3:TrackPointExtension/>
        </extensions>
      </trkpt>
      <trkpt lat="50.22753995843231678009033203125" lon="5.7122289575636386871337890625">
        <ele>605</ele>
        <time>2025-04-29T20:44:10.000Z</time>
        <extensions>
          <ns3:TrackPointExtension/>
        </extensions>
      </trkpt>
      <trkpt lat="50.2306289412081241607666015625" lon="5.7097619958221912384033203125">
        <ele>626.20001220703125</ele>
        <time>2025-04-29T20:44:19.000Z</time>
        <extensions>
          <ns3:TrackPointExtension/>
        </extensions>
      </trkpt>
      <trkpt lat="50.2340809442102909088134765625" lon="5.70701994001865386962890625">
        <ele>637.79998779296875</ele>
        <time>2025-04-29T20:44:28.000Z</time>
        <extensions>
          <ns3:TrackPointExtension/>
        </extensions>
      </trkpt>
      <trkpt lat="50.23825697600841522216796875" lon="5.7138949446380138397216796875">
        <ele>627.20001220703125</ele>
        <time>2025-04-29T20:44:38.000Z</time>
        <extensions>
          <ns3:TrackPointExtension/>
        </extensions>
      </trkpt>
      <trkpt lat="50.24694791994988918304443359375" lon="5.7282769493758678436279296875">
        <ele>647.20001220703125</ele>
        <time>2025-04-29T20:44:48.000Z</time>
        <extensions>
          <ns3:TrackPointExtension/>
        </extensions>
      </trkpt>
      <trkpt lat="50.24761092849075794219970703125" lon="5.7295989431440830230712890625">
        <ele>646.4000244140625</ele>
        <time>2025-04-29T20:44:59.000Z</time>
        <extensions>
          <ns3:TrackPointExtension/>
        </extensions>
      </trkpt>
      <trkpt lat="50.247862972319126129150390625" lon="5.73016497306525707244873046875">
        <ele>647.5999755859375</ele>
        <time>2025-04-29T20:45:09.000Z</time>
        <extensions>
          <ns3:TrackPointExtension/>
        </extensions>
      </trkpt>
      <trkpt lat="50.24809892289340496063232421875" lon="5.73077299632132053375244140625">
        <ele>648</ele>
        <time>2025-04-29T20:45:20.000Z</time>
        <extensions>
          <ns3:TrackPointExtension/>
        </extensions>
      </trkpt>
      <trkpt lat="50.2482279203832149505615234375" lon="5.73113299906253814697265625">
        <ele>647.20001220703125</ele>
        <time>2025-04-29T20:45:30.000Z</time>
        <extensions>
          <ns3:TrackPointExtension/>
        </extensions>
      </trkpt>
      <trkpt lat="50.248495973646640777587890625" lon="5.73203396983444690704345703125">
        <ele>648.5999755859375</ele>
        <time>2025-04-29T20:45:40.000Z</time>
        <extensions>
          <ns3:TrackPointExtension/>
        </extensions>
      </trkpt>
      <trkpt lat="50.24881993420422077178955078125" lon="5.733421929180622100830078125">
        <ele>650</ele>
        <time>2025-04-29T20:45:51.000Z</time>
        <extensions>
          <ns3:TrackPointExtension/>
        </extensions>
      </trkpt>
      <trkpt lat="50.24895094335079193115234375" lon="5.73424193076789379119873046875">
        <ele>649.4000244140625</ele>
        <time>2025-04-29T20:46:01.000Z</time>
        <extensions>
          <ns3:TrackPointExtension/>
        </extensions>
      </trkpt>
      <trkpt lat="50.249063931405544281005859375" lon="5.7352319173514842987060546875">
        <ele>646.5999755859375</ele>
        <time>2025-04-29T20:46:12.000Z</time>
        <extensions>
          <ns3:TrackPointExtension/>
        </extensions>
      </trkpt>
      <trkpt lat="50.24912796914577484130859375" lon="5.736246965825557708740234375">
        <ele>641</ele>
        <time>2025-04-29T20:46:22.000Z</time>
        <extensions>
          <ns3:TrackPointExtension/>
        </extensions>
      </trkpt>
      <trkpt lat="50.24913693778216838836669921875" lon="5.7374769262969493865966796875">
        <ele>639.20001220703125</ele>
        <time>2025-04-29T20:46:32.000Z</time>
        <extensions>
          <ns3:TrackPointExtension/>
        </extensions>
      </trkpt>
      <trkpt lat="50.24916996248066425323486328125" lon="5.7376599870622158050537109375">
        <ele>638.5999755859375</ele>
        <time>2025-04-29T20:46:43.000Z</time>
        <extensions>
          <ns3:TrackPointExtension/>
        </extensions>
      </trkpt>
      <trkpt lat="50.24916694499552249908447265625" lon="5.7377709634602069854736328125">
        <ele>638.20001220703125</ele>
        <time>2025-04-29T20:46:53.000Z</time>
        <extensions>
          <ns3:TrackPointExtension/>
        </extensions>
      </trkpt>
      <trkpt lat="50.24914096109569072723388671875" lon="5.73804295621812343597412109375">
        <ele>637.20001220703125</ele>
        <time>2025-04-29T20:46:55.000Z</time>
        <extensions>
          <ns3:TrackPointExtension/>
        </extensions>
      </trkpt>
      <trkpt lat="50.24911195971071720123291015625" lon="5.7381709478795528411865234375">
        <ele>636.79998779296875</ele>
        <time>2025-04-29T20:46:56.000Z</time>
        <extensions>
          <ns3:TrackPointExtension/>
        </extensions>
      </trkpt>
      <trkpt lat="50.24899293668568134307861328125" lon="5.73844796977937221527099609375">
        <ele>636.4000244140625</ele>
        <time>2025-04-29T20:46:58.000Z</time>
        <extensions>
          <ns3:TrackPointExtension/>
        </extensions>
      </trkpt>
      <trkpt lat="50.24897399358451366424560546875" lon="5.73853396810591220855712890625">
        <ele>636.4000244140625</ele>
        <time>2025-04-29T20:46:59.000Z</time>
        <extensions>
          <ns3:TrackPointExtension/>
        </extensions>
      </trkpt>
      <trkpt lat="50.2489869855344295501708984375" lon="5.73861594311892986297607421875">
        <ele>636.4000244140625</ele>
        <time>2025-04-29T20:47:00.000Z</time>
        <extensions>
          <ns3:TrackPointExtension/>
        </extensions>
      </trkpt>
      <trkpt lat="50.24902093224227428436279296875" lon="5.73867897503077983856201171875">
        <ele>636.20001220703125</ele>
        <time>2025-04-29T20:47:02.000Z</time>
        <extensions>
          <ns3:TrackPointExtension/>
        </extensions>
      </trkpt>
      <trkpt lat="50.249067954719066619873046875" lon="5.73870697058737277984619140625">
        <ele>636.20001220703125</ele>
        <time>2025-04-29T20:47:03.000Z</time>
        <extensions>
          <ns3:TrackPointExtension/>
        </extensions>
      </trkpt>
      <trkpt lat="50.2491589821875095367431640625" lon="5.738660953938961029052734375">
        <ele>635.79998779296875</ele>
        <time>2025-04-29T20:47:05.000Z</time>
        <extensions>
          <ns3:TrackPointExtension/>
        </extensions>
      </trkpt>
      <trkpt lat="50.24918295443058013916015625" lon="5.7385749556124210357666015625">
        <ele>635.5999755859375</ele>
        <time>2025-04-29T20:47:06.000Z</time>
        <extensions>
          <ns3:TrackPointExtension/>
        </extensions>
      </trkpt>
      <trkpt lat="50.24919192306697368621826171875" lon="5.7384099997580051422119140625">
        <ele>636</ele>
        <time>2025-04-29T20:47:08.000Z</time>
        <extensions>
          <ns3:TrackPointExtension/>
        </extensions>
      </trkpt>
      <trkpt lat="50.249235928058624267578125" lon="5.738196931779384613037109375">
        <ele>636.79998779296875</ele>
        <time>2025-04-29T20:47:09.000Z</time>
        <extensions>
          <ns3:TrackPointExtension/>
        </extensions>
      </trkpt>
      <trkpt lat="50.24936492554843425750732421875" lon="5.73790297843515872955322265625">
        <ele>637.79998779296875</ele>
        <time>2025-04-29T20:47:11.000Z</time>
        <extensions>
          <ns3:TrackPointExtension/>
        </extensions>
      </trkpt>
      <trkpt lat="50.249362997710704803466796875" lon="5.73781496845185756683349609375">
        <ele>638</ele>
        <time>2025-04-29T20:47:12.000Z</time>
        <extensions>
          <ns3:TrackPointExtension/>
        </extensions>
      </trkpt>
      <trkpt lat="50.2493279613554477691650390625" lon="5.737734921276569366455078125">
        <ele>638.20001220703125</ele>
        <time>2025-04-29T20:47:14.000Z</time>
        <extensions>
          <ns3:TrackPointExtension/>
        </extensions>
      </trkpt>
      <trkpt lat="50.2492739818990230560302734375" lon="5.73769896291196346282958984375">
        <ele>638.4000244140625</ele>
        <time>2025-04-29T20:47:15.000Z</time>
        <extensions>
          <ns3:TrackPointExtension/>
        </extensions>
      </trkpt>
      <trkpt lat="50.2492069266736507415771484375" lon="5.73753098957240581512451171875">
        <ele>638.79998779296875</ele>
        <time>2025-04-29T20:47:17.000Z</time>
        <extensions>
          <ns3:TrackPointExtension/>
        </extensions>
      </trkpt>
      <trkpt lat="50.24919494055211544036865234375" lon="5.7363839261233806610107421875">
        <ele>641</ele>
        <time>2025-04-29T20:47:18.000Z</time>
        <extensions>
          <ns3:TrackPointExtension/>
        </extensions>
      </trkpt>
      <trkpt lat="50.24917499162256717681884765625" lon="5.7359289564192295074462890625">
        <ele>642.79998779296875</ele>
        <time>2025-04-29T20:47:20.000Z</time>
        <extensions>
          <ns3:TrackPointExtension/>
        </extensions>
      </trkpt>
      <trkpt lat="50.24907994084060192108154296875" lon="5.73476999066770076751708984375">
        <ele>648.79998779296875</ele>
        <time>2025-04-29T20:47:21.000Z</time>
        <extensions>
          <ns3:TrackPointExtension/>
        </extensions>
      </trkpt>
      <trkpt lat="50.248947925865650177001953125" lon="5.73378394357860088348388671875">
        <ele>650.4000244140625</ele>
        <time>2025-04-29T20:47:23.000Z</time>
        <extensions>
          <ns3:TrackPointExtension/>
        </extensions>
      </trkpt>
      <trkpt lat="50.24876696057617664337158203125" lon="5.732855983078479766845703125">
        <ele>649.79998779296875</ele>
        <time>2025-04-29T20:47:24.000Z</time>
        <extensions>
          <ns3:TrackPointExtension/>
        </extensions>
      </trkpt>
      <trkpt lat="50.2486429922282695770263671875" lon="5.73235298506915569305419921875">
        <ele>649.4000244140625</ele>
        <time>2025-04-29T20:47:26.000Z</time>
        <extensions>
          <ns3:TrackPointExtension/>
        </extensions>
      </trkpt>
      <trkpt lat="50.248784981667995452880859375" lon="5.73245893232524394989013671875">
        <ele>649.79998779296875</ele>
        <time>2025-04-29T20:47:27.000Z</time>
        <extensions>
          <ns3:TrackPointExtension/>
        </extensions>
      </trkpt>
      <trkpt lat="50.24893996305763721466064453125" lon="5.7324829883873462677001953125">
        <ele>650.4000244140625</ele>
        <time>2025-04-29T20:47:29.000Z</time>
        <extensions>
          <ns3:TrackPointExtension/>
        </extensions>
      </trkpt>
      <trkpt lat="50.249071978032588958740234375" lon="5.7324219681322574615478515625">
        <ele>651</ele>
        <time>2025-04-29T20:47:30.000Z</time>
        <extensions>
          <ns3:TrackPointExtension/>
        </extensions>
      </trkpt>
      <trkpt lat="50.2492069266736507415771484375" lon="5.73225592263042926788330078125">
        <ele>651.20001220703125</ele>
        <time>2025-04-29T20:47:32.000Z</time>
        <extensions>
          <ns3:TrackPointExtension/>
        </extensions>
      </trkpt>
      <trkpt lat="50.249297954142093658447265625" lon="5.73193497955799102783203125">
        <ele>651.4000244140625</ele>
        <time>2025-04-29T20:47:33.000Z</time>
        <extensions>
          <ns3:TrackPointExtension/>
        </extensions>
      </trkpt>
      <trkpt lat="50.249297954142093658447265625" lon="5.73193497955799102783203125">
        <ele>651.4000244140625</ele>
        <time>2025-04-29T20:47:33.000Z</time>
        <extensions>
          <ns3:TrackPointExtension/>
        </extensions>
      </trkpt>
      <trkpt lat="50.2496789954602718353271484375" lon="5.7305829785764217376708984375">
        <ele>649.20001220703125</ele>
        <time>2025-04-29T20:47:40.000Z</time>
        <extensions>
          <ns3:TrackPointExtension/>
        </extensions>
      </trkpt>
      <trkpt lat="50.24988795630633831024169921875" lon="5.729975961148738861083984375">
        <ele>647.5999755859375</ele>
        <time>2025-04-29T20:47:46.000Z</time>
        <extensions>
          <ns3:TrackPointExtension/>
        </extensions>
      </trkpt>
      <trkpt lat="50.25012298487126827239990234375" lon="5.7294819317758083343505859375">
        <ele>648.4000244140625</ele>
        <time>2025-04-29T20:47:52.000Z</time>
        <extensions>
          <ns3:TrackPointExtension/>
        </extensions>
      </trkpt>
      <trkpt lat="50.250276960432529449462890625" lon="5.729226954281330108642578125">
        <ele>648.20001220703125</ele>
        <time>2025-04-29T20:47:58.000Z</time>
        <extensions>
          <ns3:TrackPointExtension/>
        </extensions>
      </trkpt>
      <trkpt lat="50.2505349554121494293212890625" lon="5.72886896319687366485595703125">
        <ele>647.79998779296875</ele>
        <time>2025-04-29T20:48:04.000Z</time>
        <extensions>
          <ns3:TrackPointExtension/>
        </extensions>
      </trkpt>
      <trkpt lat="50.2506439201533794403076171875" lon="5.7286739163100719451904296875">
        <ele>647</ele>
        <time>2025-04-29T20:48:10.000Z</time>
        <extensions>
          <ns3:TrackPointExtension/>
        </extensions>
      </trkpt>
      <trkpt lat="50.25118597783148288726806640625" lon="5.72812096215784549713134765625">
        <ele>645</ele>
        <time>2025-04-29T20:48:16.000Z</time>
        <extensions>
          <ns3:TrackPointExtension/>
        </extensions>
      </trkpt>
      <trkpt lat="50.2520249225199222564697265625" lon="5.727386958897113800048828125">
        <ele>642.4000244140625</ele>
        <time>2025-04-29T20:48:22.000Z</time>
        <extensions>
          <ns3:TrackPointExtension/>
        </extensions>
      </trkpt>
      <trkpt lat="50.25296495296061038970947265625" lon="5.72671498171985149383544921875">
        <ele>640.20001220703125</ele>
        <time>2025-04-29T20:48:28.000Z</time>
        <extensions>
          <ns3:TrackPointExtension/>
        </extensions>
      </trkpt>
      <trkpt lat="50.2534729801118373870849609375" lon="5.72639294900000095367431640625">
        <ele>638.4000244140625</ele>
        <time>2025-04-29T20:48:34.000Z</time>
        <extensions>
          <ns3:TrackPointExtension/>
        </extensions>
      </trkpt>
      <trkpt lat="50.25409198366105556488037109375" lon="5.72605398483574390411376953125">
        <ele>639</ele>
        <time>2025-04-29T20:48:41.000Z</time>
        <extensions>
          <ns3:TrackPointExtension/>
        </extensions>
      </trkpt>
      <trkpt lat="50.254876948893070220947265625" lon="5.72571099735796451568603515625">
        <ele>636.79998779296875</ele>
        <time>2025-04-29T20:48:47.000Z</time>
        <extensions>
          <ns3:TrackPointExtension/>
        </extensions>
      </trkpt>
      <trkpt lat="50.2556499280035495758056640625" lon="5.72544495575129985809326171875">
        <ele>634.20001220703125</ele>
        <time>2025-04-29T20:48:53.000Z</time>
        <extensions>
          <ns3:TrackPointExtension/>
        </extensions>
      </trkpt>
      <trkpt lat="50.2565229870378971099853515625" lon="5.7252279482781887054443359375">
        <ele>630.5999755859375</ele>
        <time>2025-04-29T20:48:59.000Z</time>
        <extensions>
          <ns3:TrackPointExtension/>
        </extensions>
      </trkpt>
      <trkpt lat="50.25745597667992115020751953125" lon="5.72509794495999813079833984375">
        <ele>628.5999755859375</ele>
        <time>2025-04-29T20:49:05.000Z</time>
        <extensions>
          <ns3:TrackPointExtension/>
        </extensions>
      </trkpt>
      <trkpt lat="50.25832199491560459136962890625" lon="5.7250559516251087188720703125">
        <ele>622.79998779296875</ele>
        <time>2025-04-29T20:49:11.000Z</time>
        <extensions>
          <ns3:TrackPointExtension/>
        </extensions>
      </trkpt>
      <trkpt lat="50.2592279948294162750244140625" lon="5.72508193552494049072265625">
        <ele>621</ele>
        <time>2025-04-29T20:49:17.000Z</time>
        <extensions>
          <ns3:TrackPointExtension/>
        </extensions>
      </trkpt>
      <trkpt lat="50.259934924542903900146484375" lon="5.72512795217335224151611328125">
        <ele>618</ele>
        <time>2025-04-29T20:49:23.000Z</time>
        <extensions>
          <ns3:TrackPointExtension/>
        </extensions>
      </trkpt>
      <trkpt lat="50.261499993503093719482421875" lon="5.72532895021140575408935546875">
        <ele>616.79998779296875</ele>
        <time>2025-04-29T20:49:29.000Z</time>
        <extensions>
          <ns3:TrackPointExtension/>
        </extensions>
      </trkpt>
      <trkpt lat="50.27441994287073612213134765625" lon="5.72743398137390613555908203125">
        <ele>552.79998779296875</ele>
        <time>2025-04-29T20:49:36.000Z</time>
        <extensions>
          <ns3:TrackPointExtension/>
        </extensions>
      </trkpt>
      <trkpt lat="50.27738898061215877532958984375" lon="5.72784192860126495361328125">
        <ele>536.20001220703125</ele>
        <time>2025-04-29T20:49:42.000Z</time>
        <extensions>
          <ns3:TrackPointExtension/>
        </extensions>
      </trkpt>
      <trkpt lat="50.2787239663302898406982421875" lon="5.72798299603164196014404296875">
        <ele>530.4000244140625</ele>
        <time>2025-04-29T20:49:48.000Z</time>
        <extensions>
          <ns3:TrackPointExtension/>
        </extensions>
      </trkpt>
      <trkpt lat="50.27965695597231388092041015625" lon="5.7280539907515048980712890625">
        <ele>523</ele>
        <time>2025-04-29T20:49:54.000Z</time>
        <extensions>
          <ns3:TrackPointExtension/>
        </extensions>
      </trkpt>
      <trkpt lat="50.28149795718491077423095703125" lon="5.728127919137477874755859375">
        <ele>509.79998779296875</ele>
        <time>2025-04-29T20:50:00.000Z</time>
        <extensions>
          <ns3:TrackPointExtension/>
        </extensions>
      </trkpt>
      <trkpt lat="50.283298976719379425048828125" lon="5.72809598408639430999755859375">
        <ele>497</ele>
        <time>2025-04-29T20:50:06.000Z</time>
        <extensions>
          <ns3:TrackPointExtension/>
        </extensions>
      </trkpt>
      <trkpt lat="50.28462893329560756683349609375" lon="5.7279839180409908294677734375">
        <ele>485.79998779296875</ele>
        <time>2025-04-29T20:50:12.000Z</time>
        <extensions>
          <ns3:TrackPointExtension/>
        </extensions>
      </trkpt>
      <trkpt lat="50.28601395897567272186279296875" lon="5.727785937488079071044921875">
        <ele>475.399993896484375</ele>
        <time>2025-04-29T20:50:18.000Z</time>
        <extensions>
          <ns3:TrackPointExtension/>
        </extensions>
      </trkpt>
      <trkpt lat="50.287318937480449676513671875" lon="5.7275359891355037689208984375">
        <ele>458</ele>
        <time>2025-04-29T20:50:24.000Z</time>
        <extensions>
          <ns3:TrackPointExtension/>
        </extensions>
      </trkpt>
      <trkpt lat="50.28865794651210308074951171875" lon="5.72721697390079498291015625">
        <ele>449.399993896484375</ele>
        <time>2025-04-29T20:50:30.000Z</time>
        <extensions>
          <ns3:TrackPointExtension/>
        </extensions>
      </trkpt>
      <trkpt lat="50.2899449877440929412841796875" lon="5.72685596533119678497314453125">
        <ele>445</ele>
        <time>2025-04-29T20:50:37.000Z</time>
        <extensions>
          <ns3:TrackPointExtension/>
        </extensions>
      </trkpt>
      <trkpt lat="50.2912609465420246124267578125" lon="5.72645497508347034454345703125">
        <ele>437.20001220703125</ele>
        <time>2025-04-29T20:50:43.000Z</time>
        <extensions>
          <ns3:TrackPointExtension/>
        </extensions>
      </trkpt>
      <trkpt lat="50.293011926114559173583984375" lon="5.7258569262921810150146484375">
        <ele>426.79998779296875</ele>
        <time>2025-04-29T20:50:49.000Z</time>
        <extensions>
          <ns3:TrackPointExtension/>
        </extensions>
      </trkpt>
      <trkpt lat="50.29694597236812114715576171875" lon="5.72441197000443935394287109375">
        <ele>413.399993896484375</ele>
        <time>2025-04-29T20:50:55.000Z</time>
        <extensions>
          <ns3:TrackPointExtension/>
        </extensions>
      </trkpt>
      <trkpt lat="50.29777896590530872344970703125" lon="5.72402992285788059234619140625">
        <ele>409.600006103515625</ele>
        <time>2025-04-29T20:51:01.000Z</time>
        <extensions>
          <ns3:TrackPointExtension/>
        </extensions>
      </trkpt>
      <trkpt lat="50.29866493307054042816162109375" lon="5.72357294149696826934814453125">
        <ele>407.79998779296875</ele>
        <time>2025-04-29T20:51:07.000Z</time>
        <extensions>
          <ns3:TrackPointExtension/>
        </extensions>
      </trkpt>
      <trkpt lat="50.29950094409286975860595703125" lon="5.723077990114688873291015625">
        <ele>412.20001220703125</ele>
        <time>2025-04-29T20:51:13.000Z</time>
        <extensions>
          <ns3:TrackPointExtension/>
        </extensions>
      </trkpt>
      <trkpt lat="50.30033796094357967376708984375" lon="5.7225259579718112945556640625">
        <ele>413.20001220703125</ele>
        <time>2025-04-29T20:51:19.000Z</time>
        <extensions>
          <ns3:TrackPointExtension/>
        </extensions>
      </trkpt>
      <trkpt lat="50.3011219203472137451171875" lon="5.7219499535858631134033203125">
        <ele>409.600006103515625</ele>
        <time>2025-04-29T20:51:25.000Z</time>
        <extensions>
          <ns3:TrackPointExtension/>
        </extensions>
      </trkpt>
      <trkpt lat="50.30185894109308719635009765625" lon="5.7213489711284637451171875">
        <ele>412.399993896484375</ele>
        <time>2025-04-29T20:51:32.000Z</time>
        <extensions>
          <ns3:TrackPointExtension/>
        </extensions>
      </trkpt>
      <trkpt lat="50.30280492268502712249755859375" lon="5.7205109484493732452392578125">
        <ele>408.399993896484375</ele>
        <time>2025-04-29T20:51:38.000Z</time>
        <extensions>
          <ns3:TrackPointExtension/>
        </extensions>
      </trkpt>
      <trkpt lat="50.304177962243556976318359375" lon="5.71909599937498569488525390625">
        <ele>406.399993896484375</ele>
        <time>2025-04-29T20:51:44.000Z</time>
        <extensions>
          <ns3:TrackPointExtension/>
        </extensions>
      </trkpt>
      <trkpt lat="50.3046329319477081298828125" lon="5.71857891976833343505859375">
        <ele>402</ele>
        <time>2025-04-29T20:51:50.000Z</time>
        <extensions>
          <ns3:TrackPointExtension/>
        </extensions>
      </trkpt>
      <trkpt lat="50.30474097467958927154541015625" lon="5.71854497306048870086669921875">
        <ele>401.79998779296875</ele>
        <time>2025-04-29T20:52:00.000Z</time>
        <extensions>
          <ns3:TrackPointExtension/>
        </extensions>
      </trkpt>
      <trkpt lat="50.30521295964717864990234375" lon="5.718131996691226959228515625">
        <ele>401</ele>
        <time>2025-04-29T20:52:11.000Z</time>
        <extensions>
          <ns3:TrackPointExtension/>
        </extensions>
      </trkpt>
      <trkpt lat="50.3077779896557331085205078125" lon="5.716334916651248931884765625">
        <ele>393.600006103515625</ele>
        <time>2025-04-29T20:52:22.000Z</time>
        <extensions>
          <ns3:TrackPointExtension/>
        </extensions>
      </trkpt>
      <trkpt lat="50.30786993913352489471435546875" lon="5.7162049971520900726318359375">
        <ele>393.600006103515625</ele>
        <time>2025-04-29T20:52:23.000Z</time>
        <extensions>
          <ns3:TrackPointExtension/>
        </extensions>
      </trkpt>
      <trkpt lat="50.307912938296794891357421875" lon="5.7160799391567707061767578125">
        <ele>393</ele>
        <time>2025-04-29T20:52:24.000Z</time>
        <extensions>
          <ns3:TrackPointExtension/>
        </extensions>
      </trkpt>
      <trkpt lat="50.30792199075222015380859375" lon="5.71583795361220836639404296875">
        <ele>392</ele>
        <time>2025-04-29T20:52:25.000Z</time>
        <extensions>
          <ns3:TrackPointExtension/>
        </extensions>
      </trkpt>
      <trkpt lat="50.30709193088114261627197265625" lon="5.71414195932447910308837890625">
        <ele>392</ele>
        <time>2025-04-29T20:52:30.000Z</time>
        <extensions>
          <ns3:TrackPointExtension/>
        </extensions>
      </trkpt>
      <trkpt lat="50.30701498501002788543701171875" lon="5.7140139676630496978759765625">
        <ele>392</ele>
        <time>2025-04-29T20:52:35.000Z</time>
        <extensions>
          <ns3:TrackPointExtension/>
        </extensions>
      </trkpt>
      <trkpt lat="50.3066849894821643829345703125" lon="5.71323998272418975830078125">
        <ele>390</ele>
        <time>2025-04-29T20:52:40.000Z</time>
        <extensions>
          <ns3:TrackPointExtension/>
        </extensions>
      </trkpt>
      <trkpt lat="50.30660293065011501312255859375" lon="5.71294896304607391357421875">
        <ele>390</ele>
        <time>2025-04-29T20:52:45.000Z</time>
        <extensions>
          <ns3:TrackPointExtension/>
        </extensions>
      </trkpt>
      <trkpt lat="50.30614997260272502899169921875" lon="5.7098719663918018341064453125">
        <ele>390.399993896484375</ele>
        <time>2025-04-29T20:52:50.000Z</time>
        <extensions>
          <ns3:TrackPointExtension/>
        </extensions>
      </trkpt>
      <trkpt lat="50.3056399337947368621826171875" lon="5.709961988031864166259765625">
        <ele>394</ele>
        <time>2025-04-29T20:52:58.000Z</time>
        <extensions>
          <ns3:TrackPointExtension/>
        </extensions>
      </trkpt>
      <trkpt lat="50.3044919483363628387451171875" lon="5.710077993571758270263671875">
        <ele>399</ele>
        <time>2025-04-29T20:53:06.000Z</time>
        <extensions>
          <ns3:TrackPointExtension/>
        </extensions>
      </trkpt>
      <trkpt lat="50.3042599372565746307373046875" lon="5.71014395914971828460693359375">
        <ele>400.79998779296875</ele>
        <time>2025-04-29T20:53:15.000Z</time>
        <extensions>
          <ns3:TrackPointExtension/>
        </extensions>
      </trkpt>
      <trkpt lat="50.3040979988873004913330078125" lon="5.71022593416273593902587890625">
        <ele>402.399993896484375</ele>
        <time>2025-04-29T20:53:23.000Z</time>
        <extensions>
          <ns3:TrackPointExtension/>
        </extensions>
      </trkpt>
      <trkpt lat="50.30391099862754344940185546875" lon="5.71036892943084239959716796875">
        <ele>404</ele>
        <time>2025-04-29T20:53:31.000Z</time>
        <extensions>
          <ns3:TrackPointExtension/>
        </extensions>
      </trkpt>
      <trkpt lat="50.303487963974475860595703125" lon="5.70918993093073368072509765625">
        <ele>416.399993896484375</ele>
        <time>2025-04-29T20:53:36.000Z</time>
        <extensions>
          <ns3:TrackPointExtension/>
        </extensions>
      </trkpt>
      <trkpt lat="50.30342996120452880859375" lon="5.70890293456614017486572265625">
        <ele>418.79998779296875</ele>
        <time>2025-04-29T20:53:41.000Z</time>
        <extensions>
          <ns3:TrackPointExtension/>
        </extensions>
      </trkpt>
      <trkpt lat="50.30341898091137409210205078125" lon="5.7085989229381084442138671875">
        <ele>420.20001220703125</ele>
        <time>2025-04-29T20:53:46.000Z</time>
        <extensions>
          <ns3:TrackPointExtension/>
        </extensions>
      </trkpt>
      <trkpt lat="50.3035699389874935150146484375" lon="5.7085539959371089935302734375">
        <ele>419.20001220703125</ele>
        <time>2025-04-29T20:53:48.000Z</time>
        <extensions>
          <ns3:TrackPointExtension/>
        </extensions>
      </trkpt>
      <trkpt lat="50.3037439472973346710205078125" lon="5.7083819992840290069580078125">
        <ele>417.20001220703125</ele>
        <time>2025-04-29T20:53:50.000Z</time>
        <extensions>
          <ns3:TrackPointExtension/>
        </extensions>
      </trkpt>
      <trkpt lat="50.30388794839382171630859375" lon="5.7080309651792049407958984375">
        <ele>413.79998779296875</ele>
        <time>2025-04-29T20:53:53.000Z</time>
        <extensions>
          <ns3:TrackPointExtension/>
        </extensions>
      </trkpt>
      <trkpt lat="50.303951986134052276611328125" lon="5.707944966852664947509765625">
        <ele>411.399993896484375</ele>
        <time>2025-04-29T20:53:55.000Z</time>
        <extensions>
          <ns3:TrackPointExtension/>
        </extensions>
      </trkpt>
      <trkpt lat="50.3040399961173534393310546875" lon="5.707889981567859649658203125">
        <ele>408.399993896484375</ele>
        <time>2025-04-29T20:53:58.000Z</time>
        <extensions>
          <ns3:TrackPointExtension/>
        </extensions>
      </trkpt>
      <trkpt lat="50.30416497029364109039306640625" lon="5.70789995603263378143310546875">
        <ele>405.20001220703125</ele>
        <time>2025-04-29T20:54:00.000Z</time>
        <extensions>
          <ns3:TrackPointExtension/>
        </extensions>
      </trkpt>
      <trkpt lat="50.304238982498645782470703125" lon="5.70795192383229732513427734375">
        <ele>403.79998779296875</ele>
        <time>2025-04-29T20:54:02.000Z</time>
        <extensions>
          <ns3:TrackPointExtension/>
        </extensions>
      </trkpt>
      <trkpt lat="50.30428893864154815673828125" lon="5.70800992660224437713623046875">
        <ele>402.79998779296875</ele>
        <time>2025-04-29T20:54:05.000Z</time>
        <extensions>
          <ns3:TrackPointExtension/>
        </extensions>
      </trkpt>
      <trkpt lat="50.30455891974270343780517578125" lon="5.7085449434816837310791015625">
        <ele>400.20001220703125</ele>
        <time>2025-04-29T20:54:07.000Z</time>
        <extensions>
          <ns3:TrackPointExtension/>
        </extensions>
      </trkpt>
      <trkpt lat="50.3046719916164875030517578125" lon="5.7089509628713130950927734375">
        <ele>399</ele>
        <time>2025-04-29T20:54:10.000Z</time>
        <extensions>
          <ns3:TrackPointExtension/>
        </extensions>
      </trkpt>
      <trkpt lat="50.30473594553768634796142578125" lon="5.7093179225921630859375">
        <ele>398</ele>
        <time>2025-04-29T20:54:12.000Z</time>
        <extensions>
          <ns3:TrackPointExtension/>
        </extensions>
      </trkpt>
      <trkpt lat="50.30478992499411106109619140625" lon="5.7100439630448818206787109375">
        <ele>396.600006103515625</ele>
        <time>2025-04-29T20:54:15.000Z</time>
        <extensions>
          <ns3:TrackPointExtension/>
        </extensions>
      </trkpt>
      <trkpt lat="50.3056399337947368621826171875" lon="5.709961988031864166259765625">
        <ele>394</ele>
        <time>2025-04-29T20:54:22.000Z</time>
        <extensions>
          <ns3:TrackPointExtension/>
        </extensions>
      </trkpt>
      <trkpt lat="50.30614997260272502899169921875" lon="5.7098719663918018341064453125">
        <ele>390.399993896484375</ele>
        <time>2025-04-29T20:54:30.000Z</time>
        <extensions>
          <ns3:TrackPointExtension/>
        </extensions>
      </trkpt>
      <trkpt lat="50.30660293065011501312255859375" lon="5.71294896304607391357421875">
        <ele>390</ele>
        <time>2025-04-29T20:54:34.000Z</time>
        <extensions>
          <ns3:TrackPointExtension/>
        </extensions>
      </trkpt>
      <trkpt lat="50.3066849894821643829345703125" lon="5.71323998272418975830078125">
        <ele>390</ele>
        <time>2025-04-29T20:54:38.000Z</time>
        <extensions>
          <ns3:TrackPointExtension/>
        </extensions>
      </trkpt>
      <trkpt lat="50.30701498501002788543701171875" lon="5.7140139676630496978759765625">
        <ele>392</ele>
        <time>2025-04-29T20:54:42.000Z</time>
        <extensions>
          <ns3:TrackPointExtension/>
        </extensions>
      </trkpt>
      <trkpt lat="50.30709193088114261627197265625" lon="5.71414195932447910308837890625">
        <ele>392</ele>
        <time>2025-04-29T20:54:46.000Z</time>
        <extensions>
          <ns3:TrackPointExtension/>
        </extensions>
      </trkpt>
      <trkpt lat="50.30868398956954479217529296875" lon="5.71741693653166294097900390625">
        <ele>394</ele>
        <time>2025-04-29T20:54:50.000Z</time>
        <extensions>
          <ns3:TrackPointExtension/>
        </extensions>
      </trkpt>
      <trkpt lat="50.30879597179591655731201171875" lon="5.717606954276561737060546875">
        <ele>394.399993896484375</ele>
        <time>2025-04-29T20:54:55.000Z</time>
        <extensions>
          <ns3:TrackPointExtension/>
        </extensions>
      </trkpt>
      <trkpt lat="50.3102419339120388031005859375" lon="5.71961198933422565460205078125">
        <ele>398</ele>
        <time>2025-04-29T20:54:59.000Z</time>
        <extensions>
          <ns3:TrackPointExtension/>
        </extensions>
      </trkpt>
      <trkpt lat="50.310613922774791717529296875" lon="5.72031296789646148681640625">
        <ele>400</ele>
        <time>2025-04-29T20:55:03.000Z</time>
        <extensions>
          <ns3:TrackPointExtension/>
        </extensions>
      </trkpt>
      <trkpt lat="50.31088893301784992218017578125" lon="5.72113799862563610076904296875">
        <ele>400</ele>
        <time>2025-04-29T20:55:07.000Z</time>
        <extensions>
          <ns3:TrackPointExtension/>
        </extensions>
      </trkpt>
      <trkpt lat="50.31138597987592220306396484375" lon="5.72319692932069301605224609375">
        <ele>397</ele>
        <time>2025-04-29T20:55:11.000Z</time>
        <extensions>
          <ns3:TrackPointExtension/>
        </extensions>
      </trkpt>
      <trkpt lat="50.31154992990195751190185546875" lon="5.7236129231750965118408203125">
        <ele>396.399993896484375</ele>
        <time>2025-04-29T20:55:15.000Z</time>
        <extensions>
          <ns3:TrackPointExtension/>
        </extensions>
      </trkpt>
      <trkpt lat="50.31175092794001102447509765625" lon="5.7239629514515399932861328125">
        <ele>396.600006103515625</ele>
        <time>2025-04-29T20:55:19.000Z</time>
        <extensions>
          <ns3:TrackPointExtension/>
        </extensions>
      </trkpt>
      <trkpt lat="50.31240396201610565185546875" lon="5.72490893304347991943359375">
        <ele>398.600006103515625</ele>
        <time>2025-04-29T20:55:23.000Z</time>
        <extensions>
          <ns3:TrackPointExtension/>
        </extensions>
      </trkpt>
      <trkpt lat="50.3126039542257785797119140625" lon="5.72515393607318401336669921875">
        <ele>399.399993896484375</ele>
        <time>2025-04-29T20:55:27.000Z</time>
        <extensions>
          <ns3:TrackPointExtension/>
        </extensions>
      </trkpt>
      <trkpt lat="50.31278693117201328277587890625" lon="5.72533196769654750823974609375">
        <ele>400</ele>
        <time>2025-04-29T20:55:31.000Z</time>
        <extensions>
          <ns3:TrackPointExtension/>
        </extensions>
      </trkpt>
      <trkpt lat="50.3129499591886997222900390625" lon="5.72544495575129985809326171875">
        <ele>400.79998779296875</ele>
        <time>2025-04-29T20:55:35.000Z</time>
        <extensions>
          <ns3:TrackPointExtension/>
        </extensions>
      </trkpt>
      <trkpt lat="50.31437094323337078094482421875" lon="5.7261459343135356903076171875">
        <ele>403</ele>
        <time>2025-04-29T20:55:39.000Z</time>
        <extensions>
          <ns3:TrackPointExtension/>
        </extensions>
      </trkpt>
      <trkpt lat="50.31492498703300952911376953125" lon="5.726472996175289154052734375">
        <ele>404</ele>
        <time>2025-04-29T20:55:43.000Z</time>
        <extensions>
          <ns3:TrackPointExtension/>
        </extensions>
      </trkpt>
      <trkpt lat="50.31670195050537586212158203125" lon="5.7276469655334949493408203125">
        <ele>389.79998779296875</ele>
        <time>2025-04-29T20:55:47.000Z</time>
        <extensions>
          <ns3:TrackPointExtension/>
        </extensions>
      </trkpt>
      <trkpt lat="50.31715993769466876983642578125" lon="5.7279939763247966766357421875">
        <ele>386.399993896484375</ele>
        <time>2025-04-29T20:55:51.000Z</time>
        <extensions>
          <ns3:TrackPointExtension/>
        </extensions>
      </trkpt>
      <trkpt lat="50.31788195483386516571044921875" lon="5.7286249659955501556396484375">
        <ele>382.600006103515625</ele>
        <time>2025-04-29T20:55:55.000Z</time>
        <extensions>
          <ns3:TrackPointExtension/>
        </extensions>
      </trkpt>
      <trkpt lat="50.31906497664749622344970703125" lon="5.7297109253704547882080078125">
        <ele>378.600006103515625</ele>
        <time>2025-04-29T20:55:59.000Z</time>
        <extensions>
          <ns3:TrackPointExtension/>
        </extensions>
      </trkpt>
      <trkpt lat="50.32001799903810024261474609375" lon="5.73045398108661174774169921875">
        <ele>379.399993896484375</ele>
        <time>2025-04-29T20:56:03.000Z</time>
        <extensions>
          <ns3:TrackPointExtension/>
        </extensions>
      </trkpt>
      <trkpt lat="50.32029594294726848602294921875" lon="5.73062698356807231903076171875">
        <ele>381.399993896484375</ele>
        <time>2025-04-29T20:56:07.000Z</time>
        <extensions>
          <ns3:TrackPointExtension/>
        </extensions>
      </trkpt>
      <trkpt lat="50.32089591957628726959228515625" lon="5.73094096966087818145751953125">
        <ele>382.399993896484375</ele>
        <time>2025-04-29T20:56:11.000Z</time>
        <extensions>
          <ns3:TrackPointExtension/>
        </extensions>
      </trkpt>
      <trkpt lat="50.32129892148077487945556640625" lon="5.73119594715535640716552734375">
        <ele>385.20001220703125</ele>
        <time>2025-04-29T20:56:15.000Z</time>
        <extensions>
          <ns3:TrackPointExtension/>
        </extensions>
      </trkpt>
      <trkpt lat="50.32185296528041362762451171875" lon="5.73160598985850811004638671875">
        <ele>387.20001220703125</ele>
        <time>2025-04-29T20:56:19.000Z</time>
        <extensions>
          <ns3:TrackPointExtension/>
        </extensions>
      </trkpt>
      <trkpt lat="50.32248697243630886077880859375" lon="5.73183397762477397918701171875">
        <ele>388.20001220703125</ele>
        <time>2025-04-29T20:56:24.000Z</time>
        <extensions>
          <ns3:TrackPointExtension/>
        </extensions>
      </trkpt>
      <trkpt lat="50.322927944362163543701171875" lon="5.73190991766750812530517578125">
        <ele>387.399993896484375</ele>
        <time>2025-04-29T20:56:28.000Z</time>
        <extensions>
          <ns3:TrackPointExtension/>
        </extensions>
      </trkpt>
      <trkpt lat="50.3230169601738452911376953125" lon="5.73196892626583576202392578125">
        <ele>386.399993896484375</ele>
        <time>2025-04-29T20:56:32.000Z</time>
        <extensions>
          <ns3:TrackPointExtension/>
        </extensions>
      </trkpt>
      <trkpt lat="50.3233009390532970428466796875" lon="5.732281990349292755126953125">
        <ele>383.20001220703125</ele>
        <time>2025-04-29T20:56:36.000Z</time>
        <extensions>
          <ns3:TrackPointExtension/>
        </extensions>
      </trkpt>
      <trkpt lat="50.32334092073142528533935546875" lon="5.73233596980571746826171875">
        <ele>383.20001220703125</ele>
        <time>2025-04-29T20:56:40.000Z</time>
        <extensions>
          <ns3:TrackPointExtension/>
        </extensions>
      </trkpt>
      <trkpt lat="50.32337897457182407379150390625" lon="5.73245792649686336517333984375">
        <ele>382.79998779296875</ele>
        <time>2025-04-29T20:56:44.000Z</time>
        <extensions>
          <ns3:TrackPointExtension/>
        </extensions>
      </trkpt>
      <trkpt lat="50.32342893071472644805908203125" lon="5.73297592811286449432373046875">
        <ele>380.600006103515625</ele>
        <time>2025-04-29T20:56:48.000Z</time>
        <extensions>
          <ns3:TrackPointExtension/>
        </extensions>
      </trkpt>
      <trkpt lat="50.3234249912202358245849609375" lon="5.73335596360266208648681640625">
        <ele>380.20001220703125</ele>
        <time>2025-04-29T20:56:52.000Z</time>
        <extensions>
          <ns3:TrackPointExtension/>
        </extensions>
      </trkpt>
      <trkpt lat="50.32337293960154056549072265625" lon="5.73413598351180553436279296875">
        <ele>379.399993896484375</ele>
        <time>2025-04-29T20:56:56.000Z</time>
        <extensions>
          <ns3:TrackPointExtension/>
        </extensions>
      </trkpt>
      <trkpt lat="50.32328694127500057220458984375" lon="5.73435894213616847991943359375">
        <ele>377.600006103515625</ele>
        <time>2025-04-29T20:57:00.000Z</time>
        <extensions>
          <ns3:TrackPointExtension/>
        </extensions>
      </trkpt>
      <trkpt lat="50.32303498126566410064697265625" lon="5.734862945973873138427734375">
        <ele>373.79998779296875</ele>
        <time>2025-04-29T20:57:04.000Z</time>
        <extensions>
          <ns3:TrackPointExtension/>
        </extensions>
      </trkpt>
      <trkpt lat="50.322980917990207672119140625" lon="5.73510694317519664764404296875">
        <ele>373</ele>
        <time>2025-04-29T20:57:08.000Z</time>
        <extensions>
          <ns3:TrackPointExtension/>
        </extensions>
      </trkpt>
      <trkpt lat="50.32293791882693767547607421875" lon="5.73549695312976837158203125">
        <ele>372.399993896484375</ele>
        <time>2025-04-29T20:57:12.000Z</time>
        <extensions>
          <ns3:TrackPointExtension/>
        </extensions>
      </trkpt>
      <trkpt lat="50.32274496741592884063720703125" lon="5.73619592003524303436279296875">
        <ele>366</ele>
        <time>2025-04-29T20:57:16.000Z</time>
        <extensions>
          <ns3:TrackPointExtension/>
        </extensions>
      </trkpt>
      <trkpt lat="50.32268495298922061920166015625" lon="5.73633992113173007965087890625">
        <ele>366.399993896484375</ele>
        <time>2025-04-29T20:57:20.000Z</time>
        <extensions>
          <ns3:TrackPointExtension/>
        </extensions>
      </trkpt>
      <trkpt lat="50.32260197214782238006591796875" lon="5.73646196164190769195556640625">
        <ele>366.399993896484375</ele>
        <time>2025-04-29T20:57:24.000Z</time>
        <extensions>
          <ns3:TrackPointExtension/>
        </extensions>
      </trkpt>
      <trkpt lat="50.322471968829631805419921875" lon="5.73660696856677532196044921875">
        <ele>366.399993896484375</ele>
        <time>2025-04-29T20:57:28.000Z</time>
        <extensions>
          <ns3:TrackPointExtension/>
        </extensions>
      </trkpt>
      <trkpt lat="50.3222049213945865631103515625" lon="5.7368499599397182464599609375">
        <ele>365.20001220703125</ele>
        <time>2025-04-29T20:57:32.000Z</time>
        <extensions>
          <ns3:TrackPointExtension/>
        </extensions>
      </trkpt>
      <trkpt lat="50.3220319189131259918212890625" lon="5.737046934664249420166015625">
        <ele>362.79998779296875</ele>
        <time>2025-04-29T20:57:36.000Z</time>
        <extensions>
          <ns3:TrackPointExtension/>
        </extensions>
      </trkpt>
      <trkpt lat="50.3219009935855865478515625" lon="5.7372459210455417633056640625">
        <ele>360.399993896484375</ele>
        <time>2025-04-29T20:57:40.000Z</time>
        <extensions>
          <ns3:TrackPointExtension/>
        </extensions>
      </trkpt>
      <trkpt lat="50.3216649591922760009765625" lon="5.737628974020481109619140625">
        <ele>357.79998779296875</ele>
        <time>2025-04-29T20:57:44.000Z</time>
        <extensions>
          <ns3:TrackPointExtension/>
        </extensions>
      </trkpt>
      <trkpt lat="50.32155792228877544403076171875" lon="5.73783592320978641510009765625">
        <ele>356</ele>
        <time>2025-04-29T20:57:48.000Z</time>
        <extensions>
          <ns3:TrackPointExtension/>
        </extensions>
      </trkpt>
      <trkpt lat="50.32147795893251895904541015625" lon="5.73803792707622051239013671875">
        <ele>355.399993896484375</ele>
        <time>2025-04-29T20:57:53.000Z</time>
        <extensions>
          <ns3:TrackPointExtension/>
        </extensions>
      </trkpt>
      <trkpt lat="50.32136899419128894805908203125" lon="5.73842592537403106689453125">
        <ele>354.600006103515625</ele>
        <time>2025-04-29T20:57:57.000Z</time>
        <extensions>
          <ns3:TrackPointExtension/>
        </extensions>
      </trkpt>
      <trkpt lat="50.32132096588611602783203125" lon="5.7388079725205898284912109375">
        <ele>353.79998779296875</ele>
        <time>2025-04-29T20:58:01.000Z</time>
        <extensions>
          <ns3:TrackPointExtension/>
        </extensions>
      </trkpt>
      <trkpt lat="50.321322977542877197265625" lon="5.739635936915874481201171875">
        <ele>351</ele>
        <time>2025-04-29T20:58:05.000Z</time>
        <extensions>
          <ns3:TrackPointExtension/>
        </extensions>
      </trkpt>
      <trkpt lat="50.32136396504938602447509765625" lon="5.74011697433888912200927734375">
        <ele>350</ele>
        <time>2025-04-29T20:58:09.000Z</time>
        <extensions>
          <ns3:TrackPointExtension/>
        </extensions>
      </trkpt>
      <trkpt lat="50.32147393561899662017822265625" lon="5.740502960979938507080078125">
        <ele>349.600006103515625</ele>
        <time>2025-04-29T20:58:13.000Z</time>
        <extensions>
          <ns3:TrackPointExtension/>
        </extensions>
      </trkpt>
      <trkpt lat="50.32153998501598834991455078125" lon="5.7406459562480449676513671875">
        <ele>349.20001220703125</ele>
        <time>2025-04-29T20:58:17.000Z</time>
        <extensions>
          <ns3:TrackPointExtension/>
        </extensions>
      </trkpt>
      <trkpt lat="50.32205999828875064849853515625" lon="5.7413429953157901763916015625">
        <ele>348.399993896484375</ele>
        <time>2025-04-29T20:58:21.000Z</time>
        <extensions>
          <ns3:TrackPointExtension/>
        </extensions>
      </trkpt>
      <trkpt lat="50.3252029605209827423095703125" lon="5.74526698328554630279541015625">
        <ele>347</ele>
        <time>2025-04-29T20:58:25.000Z</time>
        <extensions>
          <ns3:TrackPointExtension/>
        </extensions>
      </trkpt>
      <trkpt lat="50.32533396966755390167236328125" lon="5.745499916374683380126953125">
        <ele>345.79998779296875</ele>
        <time>2025-04-29T20:58:29.000Z</time>
        <extensions>
          <ns3:TrackPointExtension/>
        </extensions>
      </trkpt>
      <trkpt lat="50.3254279308021068572998046875" lon="5.74575196020305156707763671875">
        <ele>343.79998779296875</ele>
        <time>2025-04-29T20:58:33.000Z</time>
        <extensions>
          <ns3:TrackPointExtension/>
        </extensions>
      </trkpt>
      <trkpt lat="50.32604299485683441162109375" lon="5.7483549602329730987548828125">
        <ele>333.20001220703125</ele>
        <time>2025-04-29T20:58:37.000Z</time>
        <extensions>
          <ns3:TrackPointExtension/>
        </extensions>
      </trkpt>
      <trkpt lat="50.326386988162994384765625" lon="5.74983495287597179412841796875">
        <ele>323</ele>
        <time>2025-04-29T20:58:41.000Z</time>
        <extensions>
          <ns3:TrackPointExtension/>
        </extensions>
      </trkpt>
      <trkpt lat="50.32662293873727321624755859375" lon="5.7507159747183322906494140625">
        <ele>312.399993896484375</ele>
        <time>2025-04-29T20:58:45.000Z</time>
        <extensions>
          <ns3:TrackPointExtension/>
        </extensions>
      </trkpt>
      <trkpt lat="50.327075980603694915771484375" lon="5.75204492546617984771728515625">
        <ele>312.600006103515625</ele>
        <time>2025-04-29T20:58:49.000Z</time>
        <extensions>
          <ns3:TrackPointExtension/>
        </extensions>
      </trkpt>
      <trkpt lat="50.32740195281803607940673828125" lon="5.7530129514634609222412109375">
        <ele>315</ele>
        <time>2025-04-29T20:58:53.000Z</time>
        <extensions>
          <ns3:TrackPointExtension/>
        </extensions>
      </trkpt>
      <trkpt lat="50.32858698628842830657958984375" lon="5.75658791698515415191650390625">
        <ele>333.600006103515625</ele>
        <time>2025-04-29T20:58:57.000Z</time>
        <extensions>
          <ns3:TrackPointExtension/>
        </extensions>
      </trkpt>
      <trkpt lat="50.32873299904167652130126953125" lon="5.7569819502532482147216796875">
        <ele>335.399993896484375</ele>
        <time>2025-04-29T20:59:01.000Z</time>
        <extensions>
          <ns3:TrackPointExtension/>
        </extensions>
      </trkpt>
      <trkpt lat="50.3288229368627071380615234375" lon="5.7571509294211864471435546875">
        <ele>336</ele>
        <time>2025-04-29T20:59:05.000Z</time>
        <extensions>
          <ns3:TrackPointExtension/>
        </extensions>
      </trkpt>
      <trkpt lat="50.32909995876252651214599609375" lon="5.7575079984962940216064453125">
        <ele>337</ele>
        <time>2025-04-29T20:59:09.000Z</time>
        <extensions>
          <ns3:TrackPointExtension/>
        </extensions>
      </trkpt>
      <trkpt lat="50.32916097901761531829833984375" lon="5.75763196684420108795166015625">
        <ele>337.79998779296875</ele>
        <time>2025-04-29T20:59:13.000Z</time>
        <extensions>
          <ns3:TrackPointExtension/>
        </extensions>
      </trkpt>
      <trkpt lat="50.3292309679090976715087890625" lon="5.75785894878208637237548828125">
        <ele>340.20001220703125</ele>
        <time>2025-04-29T20:59:18.000Z</time>
        <extensions>
          <ns3:TrackPointExtension/>
        </extensions>
      </trkpt>
      <trkpt lat="50.3292609751224517822265625" lon="5.75804293155670166015625">
        <ele>341.20001220703125</ele>
        <time>2025-04-29T20:59:22.000Z</time>
        <extensions>
          <ns3:TrackPointExtension/>
        </extensions>
      </trkpt>
      <trkpt lat="50.329315960407257080078125" lon="5.758621953427791595458984375">
        <ele>343.20001220703125</ele>
        <time>2025-04-29T20:59:26.000Z</time>
        <extensions>
          <ns3:TrackPointExtension/>
        </extensions>
      </trkpt>
      <trkpt lat="50.3294089995324611663818359375" lon="5.75896896421909332275390625">
        <ele>345.20001220703125</ele>
        <time>2025-04-29T20:59:30.000Z</time>
        <extensions>
          <ns3:TrackPointExtension/>
        </extensions>
      </trkpt>
      <trkpt lat="50.32949994318187236785888671875" lon="5.7591179944574832916259765625">
        <ele>346.399993896484375</ele>
        <time>2025-04-29T20:59:34.000Z</time>
        <extensions>
          <ns3:TrackPointExtension/>
        </extensions>
      </trkpt>
      <trkpt lat="50.32970999367535114288330078125" lon="5.75932594947516918182373046875">
        <ele>348.600006103515625</ele>
        <time>2025-04-29T20:59:38.000Z</time>
        <extensions>
          <ns3:TrackPointExtension/>
        </extensions>
      </trkpt>
      <trkpt lat="50.32982499338686466217041015625" lon="5.759478919208049774169921875">
        <ele>350</ele>
        <time>2025-04-29T20:59:42.000Z</time>
        <extensions>
          <ns3:TrackPointExtension/>
        </extensions>
      </trkpt>
      <trkpt lat="50.329884923994541168212890625" lon="5.7595999538898468017578125">
        <ele>351.20001220703125</ele>
        <time>2025-04-29T20:59:46.000Z</time>
        <extensions>
          <ns3:TrackPointExtension/>
        </extensions>
      </trkpt>
      <trkpt lat="50.32994292676448822021484375" lon="5.7598049752414226531982421875">
        <ele>353</ele>
        <time>2025-04-29T20:59:50.000Z</time>
        <extensions>
          <ns3:TrackPointExtension/>
        </extensions>
      </trkpt>
      <trkpt lat="50.329948961734771728515625" lon="5.76001695357263088226318359375">
        <ele>354.600006103515625</ele>
        <time>2025-04-29T20:59:54.000Z</time>
        <extensions>
          <ns3:TrackPointExtension/>
        </extensions>
      </trkpt>
      <trkpt lat="50.32993596978485584259033203125" lon="5.7602039538323879241943359375">
        <ele>355.79998779296875</ele>
        <time>2025-04-29T20:59:58.000Z</time>
        <extensions>
          <ns3:TrackPointExtension/>
        </extensions>
      </trkpt>
      <trkpt lat="50.329723991453647613525390625" lon="5.7610709778964519500732421875">
        <ele>358</ele>
        <time>2025-04-29T21:00:02.000Z</time>
        <extensions>
          <ns3:TrackPointExtension/>
        </extensions>
      </trkpt>
      <trkpt lat="50.3296879492700099945068359375" lon="5.761275999248027801513671875">
        <ele>358.399993896484375</ele>
        <time>2025-04-29T21:00:06.000Z</time>
        <extensions>
          <ns3:TrackPointExtension/>
        </extensions>
      </trkpt>
      <trkpt lat="50.32967596314847469329833984375" lon="5.76151194982230663299560546875">
        <ele>359</ele>
        <time>2025-04-29T21:00:10.000Z</time>
        <extensions>
          <ns3:TrackPointExtension/>
        </extensions>
      </trkpt>
      <trkpt lat="50.3296959958970546722412109375" lon="5.76171998865902423858642578125">
        <ele>359.20001220703125</ele>
        <time>2025-04-29T21:00:14.000Z</time>
        <extensions>
          <ns3:TrackPointExtension/>
        </extensions>
      </trkpt>
      <trkpt lat="50.329827927052974700927734375" lon="5.76225693337619304656982421875">
        <ele>362.79998779296875</ele>
        <time>2025-04-29T21:00:18.000Z</time>
        <extensions>
          <ns3:TrackPointExtension/>
        </extensions>
      </trkpt>
      <trkpt lat="50.32984091900289058685302734375" lon="5.762358941137790679931640625">
        <ele>363.600006103515625</ele>
        <time>2025-04-29T21:00:22.000Z</time>
        <extensions>
          <ns3:TrackPointExtension/>
        </extensions>
      </trkpt>
      <trkpt lat="50.32981895841658115386962890625" lon="5.762650966644287109375">
        <ele>365.600006103515625</ele>
        <time>2025-04-29T21:00:26.000Z</time>
        <extensions>
          <ns3:TrackPointExtension/>
        </extensions>
      </trkpt>
      <trkpt lat="50.32978693954646587371826171875" lon="5.76275892555713653564453125">
        <ele>366.20001220703125</ele>
        <time>2025-04-29T21:00:30.000Z</time>
        <extensions>
          <ns3:TrackPointExtension/>
        </extensions>
      </trkpt>
      <trkpt lat="50.32973698340356349945068359375" lon="5.7628559879958629608154296875">
        <ele>366.399993896484375</ele>
        <time>2025-04-29T21:00:34.000Z</time>
        <extensions>
          <ns3:TrackPointExtension/>
        </extensions>
      </trkpt>
      <trkpt lat="50.32964595593512058258056640625" lon="5.76297492720186710357666015625">
        <ele>367.399993896484375</ele>
        <time>2025-04-29T21:00:38.000Z</time>
        <extensions>
          <ns3:TrackPointExtension/>
        </extensions>
      </trkpt>
      <trkpt lat="50.32952793873846530914306640625" lon="5.76306193135678768157958984375">
        <ele>368.600006103515625</ele>
        <time>2025-04-29T21:00:42.000Z</time>
        <extensions>
          <ns3:TrackPointExtension/>
        </extensions>
      </trkpt>
      <trkpt lat="50.3289929218590259552001953125" lon="5.76312898658215999603271484375">
        <ele>370.600006103515625</ele>
        <time>2025-04-29T21:00:47.000Z</time>
        <extensions>
          <ns3:TrackPointExtension/>
        </extensions>
      </trkpt>
      <trkpt lat="50.32884699292480945587158203125" lon="5.76317693106830120086669921875">
        <ele>370.399993896484375</ele>
        <time>2025-04-29T21:00:51.000Z</time>
        <extensions>
          <ns3:TrackPointExtension/>
        </extensions>
      </trkpt>
      <trkpt lat="50.3286869823932647705078125" lon="5.76326594687998294830322265625">
        <ele>371</ele>
        <time>2025-04-29T21:00:55.000Z</time>
        <extensions>
          <ns3:TrackPointExtension/>
        </extensions>
      </trkpt>
      <trkpt lat="50.328508950769901275634765625" lon="5.7634329982101917266845703125">
        <ele>372</ele>
        <time>2025-04-29T21:00:59.000Z</time>
        <extensions>
          <ns3:TrackPointExtension/>
        </extensions>
      </trkpt>
      <trkpt lat="50.32826696522533893585205078125" lon="5.76374597847461700439453125">
        <ele>373.399993896484375</ele>
        <time>2025-04-29T21:01:03.000Z</time>
        <extensions>
          <ns3:TrackPointExtension/>
        </extensions>
      </trkpt>
      <trkpt lat="50.32817392610013484954833984375" lon="5.7639369182288646697998046875">
        <ele>374</ele>
        <time>2025-04-29T21:01:07.000Z</time>
        <extensions>
          <ns3:TrackPointExtension/>
        </extensions>
      </trkpt>
      <trkpt lat="50.32812899909913539886474609375" lon="5.76413699425756931304931640625">
        <ele>375</ele>
        <time>2025-04-29T21:01:11.000Z</time>
        <extensions>
          <ns3:TrackPointExtension/>
        </extensions>
      </trkpt>
      <trkpt lat="50.32812195830047130584716796875" lon="5.76446891762316226959228515625">
        <ele>376.79998779296875</ele>
        <time>2025-04-29T21:01:15.000Z</time>
        <extensions>
          <ns3:TrackPointExtension/>
        </extensions>
      </trkpt>
      <trkpt lat="50.32829093746840953826904296875" lon="5.76508197002112865447998046875">
        <ele>380</ele>
        <time>2025-04-29T21:01:19.000Z</time>
        <extensions>
          <ns3:TrackPointExtension/>
        </extensions>
      </trkpt>
      <trkpt lat="50.32846092246472835540771484375" lon="5.7655569724738597869873046875">
        <ele>381.20001220703125</ele>
        <time>2025-04-29T21:01:23.000Z</time>
        <extensions>
          <ns3:TrackPointExtension/>
        </extensions>
      </trkpt>
      <trkpt lat="50.32858296297490596771240234375" lon="5.76602895744144916534423828125">
        <ele>383.20001220703125</ele>
        <time>2025-04-29T21:01:27.000Z</time>
        <extensions>
          <ns3:TrackPointExtension/>
        </extensions>
      </trkpt>
      <trkpt lat="50.32889493741095066070556640625" lon="5.7673899270594120025634765625">
        <ele>386.600006103515625</ele>
        <time>2025-04-29T21:01:31.000Z</time>
        <extensions>
          <ns3:TrackPointExtension/>
        </extensions>
      </trkpt>
      <trkpt lat="50.32932694070041179656982421875" lon="5.76924894936382770538330078125">
        <ele>392</ele>
        <time>2025-04-29T21:01:35.000Z</time>
        <extensions>
          <ns3:TrackPointExtension/>
        </extensions>
      </trkpt>
      <trkpt lat="50.3295129351317882537841796875" lon="5.7698119617998600006103515625">
        <ele>393.79998779296875</ele>
        <time>2025-04-29T21:01:39.000Z</time>
        <extensions>
          <ns3:TrackPointExtension/>
        </extensions>
      </trkpt>
      <trkpt lat="50.32976296730339527130126953125" lon="5.7703239284455776214599609375">
        <ele>398.20001220703125</ele>
        <time>2025-04-29T21:01:43.000Z</time>
        <extensions>
          <ns3:TrackPointExtension/>
        </extensions>
      </trkpt>
      <trkpt lat="50.32999397255480289459228515625" lon="5.770701952278614044189453125">
        <ele>399.20001220703125</ele>
        <time>2025-04-29T21:01:47.000Z</time>
        <extensions>
          <ns3:TrackPointExtension/>
        </extensions>
      </trkpt>
      <trkpt lat="50.33028893172740936279296875" lon="5.77110998332500457763671875">
        <ele>401.600006103515625</ele>
        <time>2025-04-29T21:01:51.000Z</time>
        <extensions>
          <ns3:TrackPointExtension/>
        </extensions>
      </trkpt>
      <trkpt lat="50.3306129761040210723876953125" lon="5.7714269869029521942138671875">
        <ele>404.399993896484375</ele>
        <time>2025-04-29T21:01:55.000Z</time>
        <extensions>
          <ns3:TrackPointExtension/>
        </extensions>
      </trkpt>
      <trkpt lat="50.3311309777200222015380859375" lon="5.77186695300042629241943359375">
        <ele>409.20001220703125</ele>
        <time>2025-04-29T21:01:59.000Z</time>
        <extensions>
          <ns3:TrackPointExtension/>
        </extensions>
      </trkpt>
      <trkpt lat="50.33174897544085979461669921875" lon="5.7724049873650074005126953125">
        <ele>416</ele>
        <time>2025-04-29T21:02:03.000Z</time>
        <extensions>
          <ns3:TrackPointExtension/>
        </extensions>
      </trkpt>
      <trkpt lat="50.3318739496171474456787109375" lon="5.77255594544112682342529296875">
        <ele>416.79998779296875</ele>
        <time>2025-04-29T21:02:07.000Z</time>
        <extensions>
          <ns3:TrackPointExtension/>
        </extensions>
      </trkpt>
      <trkpt lat="50.33196992240846157073974609375" lon="5.77273196540772914886474609375">
        <ele>417.20001220703125</ele>
        <time>2025-04-29T21:02:11.000Z</time>
        <extensions>
          <ns3:TrackPointExtension/>
        </extensions>
      </trkpt>
      <trkpt lat="50.33206497319042682647705078125" lon="5.7729689218103885650634765625">
        <ele>417.600006103515625</ele>
        <time>2025-04-29T21:02:16.000Z</time>
        <extensions>
          <ns3:TrackPointExtension/>
        </extensions>
      </trkpt>
      <trkpt lat="50.332135967910289764404296875" lon="5.7732699997723102569580078125">
        <ele>417.79998779296875</ele>
        <time>2025-04-29T21:02:20.000Z</time>
        <extensions>
          <ns3:TrackPointExtension/>
        </extensions>
      </trkpt>
      <trkpt lat="50.3321629576385021209716796875" lon="5.773518942296504974365234375">
        <ele>417.79998779296875</ele>
        <time>2025-04-29T21:02:24.000Z</time>
        <extensions>
          <ns3:TrackPointExtension/>
        </extensions>
      </trkpt>
      <trkpt lat="50.3321569226682186126708984375" lon="5.77381893061101436614990234375">
        <ele>418.20001220703125</ele>
        <time>2025-04-29T21:02:28.000Z</time>
        <extensions>
          <ns3:TrackPointExtension/>
        </extensions>
      </trkpt>
      <trkpt lat="50.33212398178875446319580078125" lon="5.77408597804605960845947265625">
        <ele>418.600006103515625</ele>
        <time>2025-04-29T21:02:32.000Z</time>
        <extensions>
          <ns3:TrackPointExtension/>
        </extensions>
      </trkpt>
      <trkpt lat="50.3320449404418468475341796875" lon="5.77436392195522785186767578125">
        <ele>417.600006103515625</ele>
        <time>2025-04-29T21:02:36.000Z</time>
        <extensions>
          <ns3:TrackPointExtension/>
        </extensions>
      </trkpt>
      <trkpt lat="50.33146399073302745819091796875" lon="5.77566194348037242889404296875">
        <ele>424.600006103515625</ele>
        <time>2025-04-29T21:02:40.000Z</time>
        <extensions>
          <ns3:TrackPointExtension/>
        </extensions>
      </trkpt>
      <trkpt lat="50.33137497492134571075439453125" lon="5.77595698647201061248779296875">
        <ele>425.20001220703125</ele>
        <time>2025-04-29T21:02:44.000Z</time>
        <extensions>
          <ns3:TrackPointExtension/>
        </extensions>
      </trkpt>
      <trkpt lat="50.331329964101314544677734375" lon="5.7761999778449535369873046875">
        <ele>425</ele>
        <time>2025-04-29T21:02:48.000Z</time>
        <extensions>
          <ns3:TrackPointExtension/>
        </extensions>
      </trkpt>
      <trkpt lat="50.33129299990832805633544921875" lon="5.7765419594943523406982421875">
        <ele>425.79998779296875</ele>
        <time>2025-04-29T21:02:52.000Z</time>
        <extensions>
          <ns3:TrackPointExtension/>
        </extensions>
      </trkpt>
      <trkpt lat="50.3312949277460575103759765625" lon="5.7769409380853176116943359375">
        <ele>427.20001220703125</ele>
        <time>2025-04-29T21:02:56.000Z</time>
        <extensions>
          <ns3:TrackPointExtension/>
        </extensions>
      </trkpt>
      <trkpt lat="50.33134195022284984588623046875" lon="5.77731099911034107208251953125">
        <ele>428</ele>
        <time>2025-04-29T21:03:00.000Z</time>
        <extensions>
          <ns3:TrackPointExtension/>
        </extensions>
      </trkpt>
      <trkpt lat="50.331441946327686309814453125" lon="5.77766798436641693115234375">
        <ele>427.399993896484375</ele>
        <time>2025-04-29T21:03:04.000Z</time>
        <extensions>
          <ns3:TrackPointExtension/>
        </extensions>
      </trkpt>
      <trkpt lat="50.33222892321646213531494140625" lon="5.78003997914493083953857421875">
        <ele>429.399993896484375</ele>
        <time>2025-04-29T21:03:08.000Z</time>
        <extensions>
          <ns3:TrackPointExtension/>
        </extensions>
      </trkpt>
      <trkpt lat="50.33286594785749912261962890625" lon="5.781861953437328338623046875">
        <ele>434.399993896484375</ele>
        <time>2025-04-29T21:03:12.000Z</time>
        <extensions>
          <ns3:TrackPointExtension/>
        </extensions>
      </trkpt>
      <trkpt lat="50.33324095420539379119873046875" lon="5.78291798941791057586669921875">
        <ele>436</ele>
        <time>2025-04-29T21:03:16.000Z</time>
        <extensions>
          <ns3:TrackPointExtension/>
        </extensions>
      </trkpt>
      <trkpt lat="50.3333089314401149749755859375" lon="5.78308696858584880828857421875">
        <ele>436.79998779296875</ele>
        <time>2025-04-29T21:03:20.000Z</time>
        <extensions>
          <ns3:TrackPointExtension/>
        </extensions>
      </trkpt>
      <trkpt lat="50.33353096805512905120849609375" lon="5.78351193107664585113525390625">
        <ele>435.20001220703125</ele>
        <time>2025-04-29T21:03:24.000Z</time>
        <extensions>
          <ns3:TrackPointExtension/>
        </extensions>
      </trkpt>
      <trkpt lat="50.3368169255554676055908203125" lon="5.787035934627056121826171875">
        <ele>418.600006103515625</ele>
        <time>2025-04-29T21:03:28.000Z</time>
        <extensions>
          <ns3:TrackPointExtension/>
        </extensions>
      </trkpt>
      <trkpt lat="50.33742092549800872802734375" lon="5.78771294094622135162353515625">
        <ele>417.399993896484375</ele>
        <time>2025-04-29T21:03:32.000Z</time>
        <extensions>
          <ns3:TrackPointExtension/>
        </extensions>
      </trkpt>
      <trkpt lat="50.337596945464611053466796875" lon="5.787959955632686614990234375">
        <ele>417</ele>
        <time>2025-04-29T21:03:36.000Z</time>
        <extensions>
          <ns3:TrackPointExtension/>
        </extensions>
      </trkpt>
      <trkpt lat="50.3376849554479122161865234375" lon="5.78811594285070896148681640625">
        <ele>416.600006103515625</ele>
        <time>2025-04-29T21:03:40.000Z</time>
        <extensions>
          <ns3:TrackPointExtension/>
        </extensions>
      </trkpt>
      <trkpt lat="50.33796499483287334442138671875" lon="5.788710974156856536865234375">
        <ele>415.79998779296875</ele>
        <time>2025-04-29T21:03:45.000Z</time>
        <extensions>
          <ns3:TrackPointExtension/>
        </extensions>
      </trkpt>
      <trkpt lat="50.34000799991190433502197265625" lon="5.79372997395694255828857421875">
        <ele>403.20001220703125</ele>
        <time>2025-04-29T21:03:49.000Z</time>
        <extensions>
          <ns3:TrackPointExtension/>
        </extensions>
      </trkpt>
      <trkpt lat="50.34041292965412139892578125" lon="5.7947239838540554046630859375">
        <ele>401</ele>
        <time>2025-04-29T21:03:53.000Z</time>
        <extensions>
          <ns3:TrackPointExtension/>
        </extensions>
      </trkpt>
      <trkpt lat="50.34064091742038726806640625" lon="5.79556695185601711273193359375">
        <ele>396</ele>
        <time>2025-04-29T21:03:57.000Z</time>
        <extensions>
          <ns3:TrackPointExtension/>
        </extensions>
      </trkpt>
      <trkpt lat="50.34104593098163604736328125" lon="5.7988889515399932861328125">
        <ele>391.79998779296875</ele>
        <time>2025-04-29T21:04:01.000Z</time>
        <extensions>
          <ns3:TrackPointExtension/>
        </extensions>
      </trkpt>
      <trkpt lat="50.3413119725883007049560546875" lon="5.79997097142040729522705078125">
        <ele>388.399993896484375</ele>
        <time>2025-04-29T21:04:05.000Z</time>
        <extensions>
          <ns3:TrackPointExtension/>
        </extensions>
      </trkpt>
      <trkpt lat="50.34226692281663417816162109375" lon="5.8024349994957447052001953125">
        <ele>390</ele>
        <time>2025-04-29T21:04:09.000Z</time>
        <extensions>
          <ns3:TrackPointExtension/>
        </extensions>
      </trkpt>
      <trkpt lat="50.34239298664033412933349609375" lon="5.80293799750506877899169921875">
        <ele>391</ele>
        <time>2025-04-29T21:04:13.000Z</time>
        <extensions>
          <ns3:TrackPointExtension/>
        </extensions>
      </trkpt>
      <trkpt lat="50.34289799630641937255859375" lon="5.80548693425953388214111328125">
        <ele>389.600006103515625</ele>
        <time>2025-04-29T21:04:17.000Z</time>
        <extensions>
          <ns3:TrackPointExtension/>
        </extensions>
      </trkpt>
      <trkpt lat="50.3429749421775341033935546875" lon="5.8057109825313091278076171875">
        <ele>389.399993896484375</ele>
        <time>2025-04-29T21:04:21.000Z</time>
        <extensions>
          <ns3:TrackPointExtension/>
        </extensions>
      </trkpt>
      <trkpt lat="50.343182981014251708984375" lon="5.806135945022106170654296875">
        <ele>390.600006103515625</ele>
        <time>2025-04-29T21:04:25.000Z</time>
        <extensions>
          <ns3:TrackPointExtension/>
        </extensions>
      </trkpt>
      <trkpt lat="50.343293957412242889404296875" lon="5.80629092641174793243408203125">
        <ele>391.399993896484375</ele>
        <time>2025-04-29T21:04:29.000Z</time>
        <extensions>
          <ns3:TrackPointExtension/>
        </extensions>
      </trkpt>
      <trkpt lat="50.3435499407351016998291015625" lon="5.8065179921686649322509765625">
        <ele>393.20001220703125</ele>
        <time>2025-04-29T21:04:33.000Z</time>
        <extensions>
          <ns3:TrackPointExtension/>
        </extensions>
      </trkpt>
      <trkpt lat="50.3438469953835010528564453125" lon="5.8066799305379390716552734375">
        <ele>395.79998779296875</ele>
        <time>2025-04-29T21:04:37.000Z</time>
        <extensions>
          <ns3:TrackPointExtension/>
        </extensions>
      </trkpt>
      <trkpt lat="50.34380299039185047149658203125" lon="5.80684698186814785003662109375">
        <ele>393.79998779296875</ele>
        <time>2025-04-29T21:04:39.000Z</time>
        <extensions>
          <ns3:TrackPointExtension/>
        </extensions>
      </trkpt>
      <trkpt lat="50.34374398179352283477783203125" lon="5.8069779910147190093994140625">
        <ele>392.399993896484375</ele>
        <time>2025-04-29T21:04:41.000Z</time>
        <extensions>
          <ns3:TrackPointExtension/>
        </extensions>
      </trkpt>
      <trkpt lat="50.34353393130004405975341796875" lon="5.80717094242572784423828125">
        <ele>389</ele>
        <time>2025-04-29T21:04:43.000Z</time>
        <extensions>
          <ns3:TrackPointExtension/>
        </extensions>
      </trkpt>
      <trkpt lat="50.3429199568927288055419921875" lon="5.8076669834554195404052734375">
        <ele>382</ele>
        <time>2025-04-29T21:04:46.000Z</time>
        <extensions>
          <ns3:TrackPointExtension/>
        </extensions>
      </trkpt>
      <trkpt lat="50.34273899160325527191162109375" lon="5.807745940983295440673828125">
        <ele>379.79998779296875</ele>
        <time>2025-04-29T21:04:48.000Z</time>
        <extensions>
          <ns3:TrackPointExtension/>
        </extensions>
      </trkpt>
      <trkpt lat="50.34250496886670589447021484375" lon="5.8077509701251983642578125">
        <ele>377.20001220703125</ele>
        <time>2025-04-29T21:04:50.000Z</time>
        <extensions>
          <ns3:TrackPointExtension/>
        </extensions>
      </trkpt>
      <trkpt lat="50.3422839380800724029541015625" lon="5.80768994987010955810546875">
        <ele>375.79998779296875</ele>
        <time>2025-04-29T21:04:52.000Z</time>
        <extensions>
          <ns3:TrackPointExtension/>
        </extensions>
      </trkpt>
      <trkpt lat="50.34099899232387542724609375" lon="5.807283930480480194091796875">
        <ele>383.20001220703125</ele>
        <time>2025-04-29T21:04:54.000Z</time>
        <extensions>
          <ns3:TrackPointExtension/>
        </extensions>
      </trkpt>
      <trkpt lat="50.3407939709722995758056640625" lon="5.80727797932922840118408203125">
        <ele>383.79998779296875</ele>
        <time>2025-04-29T21:04:56.000Z</time>
        <extensions>
          <ns3:TrackPointExtension/>
        </extensions>
      </trkpt>
      <trkpt lat="50.34046498127281665802001953125" lon="5.80732592381536960601806640625">
        <ele>385.399993896484375</ele>
        <time>2025-04-29T21:04:58.000Z</time>
        <extensions>
          <ns3:TrackPointExtension/>
        </extensions>
      </trkpt>
      <trkpt lat="50.34061199985444545745849609375" lon="5.80825698561966419219970703125">
        <ele>385.600006103515625</ele>
        <time>2025-04-29T21:05:01.000Z</time>
        <extensions>
          <ns3:TrackPointExtension/>
        </extensions>
      </trkpt>
      <trkpt lat="50.3411929495632648468017578125" lon="5.81242698244750499725341796875">
        <ele>394</ele>
        <time>2025-04-29T21:05:04.000Z</time>
        <extensions>
          <ns3:TrackPointExtension/>
        </extensions>
      </trkpt>
      <trkpt lat="50.34141398034989833831787109375" lon="5.81503593362867832183837890625">
        <ele>398.600006103515625</ele>
        <time>2025-04-29T21:05:07.000Z</time>
        <extensions>
          <ns3:TrackPointExtension/>
        </extensions>
      </trkpt>
      <trkpt lat="50.34141398034989833831787109375" lon="5.81527699716389179229736328125">
        <ele>398.79998779296875</ele>
        <time>2025-04-29T21:05:10.000Z</time>
        <extensions>
          <ns3:TrackPointExtension/>
        </extensions>
      </trkpt>
      <trkpt lat="50.341390930116176605224609375" lon="5.8155159652233123779296875">
        <ele>398.79998779296875</ele>
        <time>2025-04-29T21:05:13.000Z</time>
        <extensions>
          <ns3:TrackPointExtension/>
        </extensions>
      </trkpt>
      <trkpt lat="50.34135698340833187103271484375" lon="5.8157479763031005859375">
        <ele>399</ele>
        <time>2025-04-29T21:05:16.000Z</time>
        <extensions>
          <ns3:TrackPointExtension/>
        </extensions>
      </trkpt>
      <trkpt lat="50.34129596315324306488037109375" lon="5.815976969897747039794921875">
        <ele>399</ele>
        <time>2025-04-29T21:05:19.000Z</time>
        <extensions>
          <ns3:TrackPointExtension/>
        </extensions>
      </trkpt>
      <trkpt lat="50.34066597931087017059326171875" lon="5.81768193282186985015869140625">
        <ele>404</ele>
        <time>2025-04-29T21:05:22.000Z</time>
        <extensions>
          <ns3:TrackPointExtension/>
        </extensions>
      </trkpt>
      <trkpt lat="50.34057092852890491485595703125" lon="5.817985944449901580810546875">
        <ele>404.79998779296875</ele>
        <time>2025-04-29T21:05:25.000Z</time>
        <extensions>
          <ns3:TrackPointExtension/>
        </extensions>
      </trkpt>
      <trkpt lat="50.340303964912891387939453125" lon="5.819021947681903839111328125">
        <ele>403.20001220703125</ele>
        <time>2025-04-29T21:05:28.000Z</time>
        <extensions>
          <ns3:TrackPointExtension/>
        </extensions>
      </trkpt>
      <trkpt lat="50.34025199711322784423828125" lon="5.8193139731884002685546875">
        <ele>403.79998779296875</ele>
        <time>2025-04-29T21:05:31.000Z</time>
        <extensions>
          <ns3:TrackPointExtension/>
        </extensions>
      </trkpt>
      <trkpt lat="50.340246967971324920654296875" lon="5.81967799924314022064208984375">
        <ele>403.79998779296875</ele>
        <time>2025-04-29T21:05:34.000Z</time>
        <extensions>
          <ns3:TrackPointExtension/>
        </extensions>
      </trkpt>
      <trkpt lat="50.3402709402143955230712890625" lon="5.82004495896399021148681640625">
        <ele>403.600006103515625</ele>
        <time>2025-04-29T21:05:37.000Z</time>
        <extensions>
          <ns3:TrackPointExtension/>
        </extensions>
      </trkpt>
      <trkpt lat="50.34034796990454196929931640625" lon="5.82110191695392131805419921875">
        <ele>404</ele>
        <time>2025-04-29T21:05:40.000Z</time>
        <extensions>
          <ns3:TrackPointExtension/>
        </extensions>
      </trkpt>
      <trkpt lat="50.34045391716063022613525390625" lon="5.82214999012649059295654296875">
        <ele>404.20001220703125</ele>
        <time>2025-04-29T21:05:43.000Z</time>
        <extensions>
          <ns3:TrackPointExtension/>
        </extensions>
      </trkpt>
      <trkpt lat="50.340470932424068450927734375" lon="5.822364985942840576171875">
        <ele>404</ele>
        <time>2025-04-29T21:05:46.000Z</time>
        <extensions>
          <ns3:TrackPointExtension/>
        </extensions>
      </trkpt>
      <trkpt lat="50.34052298404276371002197265625" lon="5.82327492535114288330078125">
        <ele>405.399993896484375</ele>
        <time>2025-04-29T21:05:49.000Z</time>
        <extensions>
          <ns3:TrackPointExtension/>
        </extensions>
      </trkpt>
      <trkpt lat="50.34048291854560375213623046875" lon="5.82430397160351276397705078125">
        <ele>409.20001220703125</ele>
        <time>2025-04-29T21:05:52.000Z</time>
        <extensions>
          <ns3:TrackPointExtension/>
        </extensions>
      </trkpt>
      <trkpt lat="50.34042994491755962371826171875" lon="5.82476195879280567169189453125">
        <ele>408.79998779296875</ele>
        <time>2025-04-29T21:05:55.000Z</time>
        <extensions>
          <ns3:TrackPointExtension/>
        </extensions>
      </trkpt>
      <trkpt lat="50.34018494188785552978515625" lon="5.82628092728555202484130859375">
        <ele>413.20001220703125</ele>
        <time>2025-04-29T21:05:58.000Z</time>
        <extensions>
          <ns3:TrackPointExtension/>
        </extensions>
      </trkpt>
      <trkpt lat="50.34005896188318729400634765625" lon="5.8267099969089031219482421875">
        <ele>416.600006103515625</ele>
        <time>2025-04-29T21:06:01.000Z</time>
        <extensions>
          <ns3:TrackPointExtension/>
        </extensions>
      </trkpt>
      <trkpt lat="50.33997396938502788543701171875" lon="5.82691795192658901214599609375">
        <ele>418.600006103515625</ele>
        <time>2025-04-29T21:06:04.000Z</time>
        <extensions>
          <ns3:TrackPointExtension/>
        </extensions>
      </trkpt>
      <trkpt lat="50.3398109413683414459228515625" lon="5.827197991311550140380859375">
        <ele>420</ele>
        <time>2025-04-29T21:06:07.000Z</time>
        <extensions>
          <ns3:TrackPointExtension/>
        </extensions>
      </trkpt>
      <trkpt lat="50.33962092362344264984130859375" lon="5.82742991857230663299560546875">
        <ele>422.20001220703125</ele>
        <time>2025-04-29T21:06:10.000Z</time>
        <extensions>
          <ns3:TrackPointExtension/>
        </extensions>
      </trkpt>
      <trkpt lat="50.3384949825704097747802734375" lon="5.8286059834063053131103515625">
        <ele>434.20001220703125</ele>
        <time>2025-04-29T21:06:13.000Z</time>
        <extensions>
          <ns3:TrackPointExtension/>
        </extensions>
      </trkpt>
      <trkpt lat="50.3380239196121692657470703125" lon="5.82913194783031940460205078125">
        <ele>430.600006103515625</ele>
        <time>2025-04-29T21:06:16.000Z</time>
        <extensions>
          <ns3:TrackPointExtension/>
        </extensions>
      </trkpt>
      <trkpt lat="50.33787094987928867340087890625" lon="5.82939396612346172332763671875">
        <ele>430</ele>
        <time>2025-04-29T21:06:19.000Z</time>
        <extensions>
          <ns3:TrackPointExtension/>
        </extensions>
      </trkpt>
      <trkpt lat="50.337771959602832794189453125" lon="5.8296339400112628936767578125">
        <ele>431.79998779296875</ele>
        <time>2025-04-29T21:06:22.000Z</time>
        <extensions>
          <ns3:TrackPointExtension/>
        </extensions>
      </trkpt>
      <trkpt lat="50.337708927690982818603515625" lon="5.8299179188907146453857421875">
        <ele>432.79998779296875</ele>
        <time>2025-04-29T21:06:25.000Z</time>
        <extensions>
          <ns3:TrackPointExtension/>
        </extensions>
      </trkpt>
      <trkpt lat="50.33754698932170867919921875" lon="5.831506960093975067138671875">
        <ele>436.79998779296875</ele>
        <time>2025-04-29T21:06:28.000Z</time>
        <extensions>
          <ns3:TrackPointExtension/>
        </extensions>
      </trkpt>
      <trkpt lat="50.3373909182846546173095703125" lon="5.83335399627685546875">
        <ele>443</ele>
        <time>2025-04-29T21:06:31.000Z</time>
        <extensions>
          <ns3:TrackPointExtension/>
        </extensions>
      </trkpt>
      <trkpt lat="50.3372259624302387237548828125" lon="5.83502392284572124481201171875">
        <ele>447.20001220703125</ele>
        <time>2025-04-29T21:06:34.000Z</time>
        <extensions>
          <ns3:TrackPointExtension/>
        </extensions>
      </trkpt>
      <trkpt lat="50.33720794133841991424560546875" lon="5.83528392948210239410400390625">
        <ele>448.20001220703125</ele>
        <time>2025-04-29T21:06:37.000Z</time>
        <extensions>
          <ns3:TrackPointExtension/>
        </extensions>
      </trkpt>
      <trkpt lat="50.33721095882356166839599609375" lon="5.83555198274552822113037109375">
        <ele>448.600006103515625</ele>
        <time>2025-04-29T21:06:40.000Z</time>
        <extensions>
          <ns3:TrackPointExtension/>
        </extensions>
      </trkpt>
      <trkpt lat="50.33727097325026988983154296875" lon="5.83582498133182525634765625">
        <ele>448.399993896484375</ele>
        <time>2025-04-29T21:06:43.000Z</time>
        <extensions>
          <ns3:TrackPointExtension/>
        </extensions>
      </trkpt>
      <trkpt lat="50.337316989898681640625" lon="5.835935957729816436767578125">
        <ele>448</ele>
        <time>2025-04-29T21:06:46.000Z</time>
        <extensions>
          <ns3:TrackPointExtension/>
        </extensions>
      </trkpt>
      <trkpt lat="50.337602980434894561767578125" lon="5.83635396324098110198974609375">
        <ele>447.399993896484375</ele>
        <time>2025-04-29T21:06:49.000Z</time>
        <extensions>
          <ns3:TrackPointExtension/>
        </extensions>
      </trkpt>
      <trkpt lat="50.33795795403420925140380859375" lon="5.8367939293384552001953125">
        <ele>446.79998779296875</ele>
        <time>2025-04-29T21:06:52.000Z</time>
        <extensions>
          <ns3:TrackPointExtension/>
        </extensions>
      </trkpt>
      <trkpt lat="50.33884693868458271026611328125" lon="5.83781492896378040313720703125">
        <ele>443</ele>
        <time>2025-04-29T21:06:55.000Z</time>
        <extensions>
          <ns3:TrackPointExtension/>
        </extensions>
      </trkpt>
      <trkpt lat="50.33997899852693080902099609375" lon="5.83928494714200496673583984375">
        <ele>439</ele>
        <time>2025-04-29T21:06:58.000Z</time>
        <extensions>
          <ns3:TrackPointExtension/>
        </extensions>
      </trkpt>
      <trkpt lat="50.3403919748961925506591796875" lon="5.8397619612514972686767578125">
        <ele>436.79998779296875</ele>
        <time>2025-04-29T21:07:01.000Z</time>
        <extensions>
          <ns3:TrackPointExtension/>
        </extensions>
      </trkpt>
      <trkpt lat="50.34112698398530483245849609375" lon="5.8411449752748012542724609375">
        <ele>430.79998779296875</ele>
        <time>2025-04-29T21:07:04.000Z</time>
        <extensions>
          <ns3:TrackPointExtension/>
        </extensions>
      </trkpt>
      <trkpt lat="50.34120694734156131744384765625" lon="5.8412009663879871368408203125">
        <ele>430</ele>
        <time>2025-04-29T21:07:07.000Z</time>
        <extensions>
          <ns3:TrackPointExtension/>
        </extensions>
      </trkpt>
      <trkpt lat="50.34140895120799541473388671875" lon="5.84118797443807125091552734375">
        <ele>428.600006103515625</ele>
        <time>2025-04-29T21:07:10.000Z</time>
        <extensions>
          <ns3:TrackPointExtension/>
        </extensions>
      </trkpt>
      <trkpt lat="50.34156099893152713775634765625" lon="5.84123692475259304046630859375">
        <ele>427.399993896484375</ele>
        <time>2025-04-29T21:07:13.000Z</time>
        <extensions>
          <ns3:TrackPointExtension/>
        </extensions>
      </trkpt>
      <trkpt lat="50.34168295562267303466796875" lon="5.8413429558277130126953125">
        <ele>426.79998779296875</ele>
        <time>2025-04-29T21:07:16.000Z</time>
        <extensions>
          <ns3:TrackPointExtension/>
        </extensions>
      </trkpt>
      <trkpt lat="50.3417709656059741973876953125" lon="5.841520987451076507568359375">
        <ele>426.399993896484375</ele>
        <time>2025-04-29T21:07:19.000Z</time>
        <extensions>
          <ns3:TrackPointExtension/>
        </extensions>
      </trkpt>
      <trkpt lat="50.3418779186904430389404296875" lon="5.841858945786952972412109375">
        <ele>425.20001220703125</ele>
        <time>2025-04-29T21:07:22.000Z</time>
        <extensions>
          <ns3:TrackPointExtension/>
        </extensions>
      </trkpt>
      <trkpt lat="50.341972969472408294677734375" lon="5.842267982661724090576171875">
        <ele>424</ele>
        <time>2025-04-29T21:07:25.000Z</time>
        <extensions>
          <ns3:TrackPointExtension/>
        </extensions>
      </trkpt>
      <trkpt lat="50.3419929184019565582275390625" lon="5.8425269834697246551513671875">
        <ele>423</ele>
        <time>2025-04-29T21:07:28.000Z</time>
        <extensions>
          <ns3:TrackPointExtension/>
        </extensions>
      </trkpt>
      <trkpt lat="50.3419959358870983123779296875" lon="5.84287592209875583648681640625">
        <ele>421.600006103515625</ele>
        <time>2025-04-29T21:07:31.000Z</time>
        <extensions>
          <ns3:TrackPointExtension/>
        </extensions>
      </trkpt>
      <trkpt lat="50.342031978070735931396484375" lon="5.84300198592245578765869140625">
        <ele>420.600006103515625</ele>
        <time>2025-04-29T21:07:34.000Z</time>
        <extensions>
          <ns3:TrackPointExtension/>
        </extensions>
      </trkpt>
      <trkpt lat="50.3421209938824176788330078125" lon="5.84313391707837581634521484375">
        <ele>419.20001220703125</ele>
        <time>2025-04-29T21:07:37.000Z</time>
        <extensions>
          <ns3:TrackPointExtension/>
        </extensions>
      </trkpt>
      <trkpt lat="50.34281895495951175689697265625" lon="5.84395199082791805267333984375">
        <ele>411.20001220703125</ele>
        <time>2025-04-29T21:07:40.000Z</time>
        <extensions>
          <ns3:TrackPointExtension/>
        </extensions>
      </trkpt>
      <trkpt lat="50.3434339351952075958251953125" lon="5.844567976891994476318359375">
        <ele>405.20001220703125</ele>
        <time>2025-04-29T21:07:43.000Z</time>
        <extensions>
          <ns3:TrackPointExtension/>
        </extensions>
      </trkpt>
      <trkpt lat="50.3439009748399257659912109375" lon="5.8451169915497303009033203125">
        <ele>403.399993896484375</ele>
        <time>2025-04-29T21:07:46.000Z</time>
        <extensions>
          <ns3:TrackPointExtension/>
        </extensions>
      </trkpt>
      <trkpt lat="50.344099961221218109130859375" lon="5.84538898430764675140380859375">
        <ele>404.79998779296875</ele>
        <time>2025-04-29T21:07:49.000Z</time>
        <extensions>
          <ns3:TrackPointExtension/>
        </extensions>
      </trkpt>
      <trkpt lat="50.34448091872036457061767578125" lon="5.846057943999767303466796875">
        <ele>405</ele>
        <time>2025-04-29T21:07:52.000Z</time>
        <extensions>
          <ns3:TrackPointExtension/>
        </extensions>
      </trkpt>
      <trkpt lat="50.34462592564523220062255859375" lon="5.8462619595229625701904296875">
        <ele>403</ele>
        <time>2025-04-29T21:07:55.000Z</time>
        <extensions>
          <ns3:TrackPointExtension/>
        </extensions>
      </trkpt>
      <trkpt lat="50.34489096142351627349853515625" lon="5.84650796838104724884033203125">
        <ele>400</ele>
        <time>2025-04-29T21:07:58.000Z</time>
        <extensions>
          <ns3:TrackPointExtension/>
        </extensions>
      </trkpt>
      <trkpt lat="50.3449909575283527374267578125" lon="5.8466619439423084259033203125">
        <ele>398</ele>
        <time>2025-04-29T21:08:01.000Z</time>
        <extensions>
          <ns3:TrackPointExtension/>
        </extensions>
      </trkpt>
      <trkpt lat="50.34505893476307392120361328125" lon="5.846867971122264862060546875">
        <ele>395.79998779296875</ele>
        <time>2025-04-29T21:08:04.000Z</time>
        <extensions>
          <ns3:TrackPointExtension/>
        </extensions>
      </trkpt>
      <trkpt lat="50.3450999222695827484130859375" lon="5.848015956580638885498046875">
        <ele>389</ele>
        <time>2025-04-29T21:08:07.000Z</time>
        <extensions>
          <ns3:TrackPointExtension/>
        </extensions>
      </trkpt>
      <trkpt lat="50.345139987766742706298828125" lon="5.84832298569381237030029296875">
        <ele>388.600006103515625</ele>
        <time>2025-04-29T21:08:10.000Z</time>
        <extensions>
          <ns3:TrackPointExtension/>
        </extensions>
      </trkpt>
      <trkpt lat="50.34519396722316741943359375" lon="5.8485559187829494476318359375">
        <ele>388.79998779296875</ele>
        <time>2025-04-29T21:08:13.000Z</time>
        <extensions>
          <ns3:TrackPointExtension/>
        </extensions>
      </trkpt>
      <trkpt lat="50.34695592708885669708251953125" lon="5.8535639382898807525634765625">
        <ele>396</ele>
        <time>2025-04-29T21:08:16.000Z</time>
        <extensions>
          <ns3:TrackPointExtension/>
        </extensions>
      </trkpt>
      <trkpt lat="50.3471809811890125274658203125" lon="5.85429592989385128021240234375">
        <ele>398.399993896484375</ele>
        <time>2025-04-29T21:08:19.000Z</time>
        <extensions>
          <ns3:TrackPointExtension/>
        </extensions>
      </trkpt>
      <trkpt lat="50.34727293066680431365966796875" lon="5.85498793981969356536865234375">
        <ele>402</ele>
        <time>2025-04-29T21:08:22.000Z</time>
        <extensions>
          <ns3:TrackPointExtension/>
        </extensions>
      </trkpt>
      <trkpt lat="50.34732498228549957275390625" lon="5.85758398286998271942138671875">
        <ele>409.399993896484375</ele>
        <time>2025-04-29T21:08:25.000Z</time>
        <extensions>
          <ns3:TrackPointExtension/>
        </extensions>
      </trkpt>
      <trkpt lat="50.34733395092189311981201171875" lon="5.85870397277176380157470703125">
        <ele>412.79998779296875</ele>
        <time>2025-04-29T21:08:28.000Z</time>
        <extensions>
          <ns3:TrackPointExtension/>
        </extensions>
      </trkpt>
      <trkpt lat="50.3473449312150478363037109375" lon="5.858949981629848480224609375">
        <ele>414.600006103515625</ele>
        <time>2025-04-29T21:08:31.000Z</time>
        <extensions>
          <ns3:TrackPointExtension/>
        </extensions>
      </trkpt>
      <trkpt lat="50.34737996757030487060546875" lon="5.85916397161781787872314453125">
        <ele>416.399993896484375</ele>
        <time>2025-04-29T21:08:34.000Z</time>
        <extensions>
          <ns3:TrackPointExtension/>
        </extensions>
      </trkpt>
      <trkpt lat="50.34744794480502605438232421875" lon="5.85936295799911022186279296875">
        <ele>417.79998779296875</ele>
        <time>2025-04-29T21:08:37.000Z</time>
        <extensions>
          <ns3:TrackPointExtension/>
        </extensions>
      </trkpt>
      <trkpt lat="50.34756696783006191253662109375" lon="5.85953193716704845428466796875">
        <ele>418.600006103515625</ele>
        <time>2025-04-29T21:08:40.000Z</time>
        <extensions>
          <ns3:TrackPointExtension/>
        </extensions>
      </trkpt>
      <trkpt lat="50.3480959497392177581787109375" lon="5.86017298512160778045654296875">
        <ele>420.79998779296875</ele>
        <time>2025-04-29T21:08:43.000Z</time>
        <extensions>
          <ns3:TrackPointExtension/>
        </extensions>
      </trkpt>
      <trkpt lat="50.3482179902493953704833984375" lon="5.8604669384658336639404296875">
        <ele>423.399993896484375</ele>
        <time>2025-04-29T21:08:46.000Z</time>
        <extensions>
          <ns3:TrackPointExtension/>
        </extensions>
      </trkpt>
      <trkpt lat="50.34826098941266536712646484375" lon="5.8608739636838436126708984375">
        <ele>425.600006103515625</ele>
        <time>2025-04-29T21:08:49.000Z</time>
        <extensions>
          <ns3:TrackPointExtension/>
        </extensions>
      </trkpt>
      <trkpt lat="50.34829996526241302490234375" lon="5.8610389195382595062255859375">
        <ele>426.399993896484375</ele>
        <time>2025-04-29T21:08:52.000Z</time>
        <extensions>
          <ns3:TrackPointExtension/>
        </extensions>
      </trkpt>
      <trkpt lat="50.3483609855175018310546875" lon="5.86111997254192829132080078125">
        <ele>427</ele>
        <time>2025-04-29T21:08:55.000Z</time>
        <extensions>
          <ns3:TrackPointExtension/>
        </extensions>
      </trkpt>
      <trkpt lat="50.34845494665205478668212890625" lon="5.86118996143341064453125">
        <ele>427.600006103515625</ele>
        <time>2025-04-29T21:08:58.000Z</time>
        <extensions>
          <ns3:TrackPointExtension/>
        </extensions>
      </trkpt>
      <trkpt lat="50.348638929426670074462890625" lon="5.86120697669684886932373046875">
        <ele>428.20001220703125</ele>
        <time>2025-04-29T21:09:01.000Z</time>
        <extensions>
          <ns3:TrackPointExtension/>
        </extensions>
      </trkpt>
      <trkpt lat="50.348754934966564178466796875" lon="5.861245952546596527099609375">
        <ele>429</ele>
        <time>2025-04-29T21:09:04.000Z</time>
        <extensions>
          <ns3:TrackPointExtension/>
        </extensions>
      </trkpt>
      <trkpt lat="50.3488519974052906036376953125" lon="5.86132298223674297332763671875">
        <ele>429.79998779296875</ele>
        <time>2025-04-29T21:09:07.000Z</time>
        <extensions>
          <ns3:TrackPointExtension/>
        </extensions>
      </trkpt>
      <trkpt lat="50.348697938024997711181640625" lon="5.8615129999816417694091796875">
        <ele>430.600006103515625</ele>
        <time>2025-04-29T21:09:11.000Z</time>
        <extensions>
          <ns3:TrackPointExtension/>
        </extensions>
      </trkpt>
      <trkpt lat="50.3485069982707500457763671875" lon="5.86169597692787647247314453125">
        <ele>431</ele>
        <time>2025-04-29T21:09:16.000Z</time>
        <extensions>
          <ns3:TrackPointExtension/>
        </extensions>
      </trkpt>
      <trkpt lat="50.348184965550899505615234375" lon="5.86186696775257587432861328125">
        <ele>430.399993896484375</ele>
        <time>2025-04-29T21:09:20.000Z</time>
        <extensions>
          <ns3:TrackPointExtension/>
        </extensions>
      </trkpt>
      <trkpt lat="50.3479769267141819000244140625" lon="5.861880965530872344970703125">
        <ele>429.79998779296875</ele>
        <time>2025-04-29T21:09:24.000Z</time>
        <extensions>
          <ns3:TrackPointExtension/>
        </extensions>
      </trkpt>
      <trkpt lat="50.34779093228280544281005859375" lon="5.86180494166910648345947265625">
        <ele>429.20001220703125</ele>
        <time>2025-04-29T21:09:28.000Z</time>
        <extensions>
          <ns3:TrackPointExtension/>
        </extensions>
      </trkpt>
      <trkpt lat="50.346972942352294921875" lon="5.86137897334992885589599609375">
        <ele>431.600006103515625</ele>
        <time>2025-04-29T21:09:33.000Z</time>
        <extensions>
          <ns3:TrackPointExtension/>
        </extensions>
      </trkpt>
      <trkpt lat="50.346808992326259613037109375" lon="5.86132499389350414276123046875">
        <ele>432.399993896484375</ele>
        <time>2025-04-29T21:09:37.000Z</time>
        <extensions>
          <ns3:TrackPointExtension/>
        </extensions>
      </trkpt>
      <trkpt lat="50.34663791768252849578857421875" lon="5.86131795309484004974365234375">
        <ele>433.399993896484375</ele>
        <time>2025-04-29T21:09:41.000Z</time>
        <extensions>
          <ns3:TrackPointExtension/>
        </extensions>
      </trkpt>
      <trkpt lat="50.3463189862668514251708984375" lon="5.8614539913833141326904296875">
        <ele>436.20001220703125</ele>
        <time>2025-04-29T21:09:46.000Z</time>
        <extensions>
          <ns3:TrackPointExtension/>
        </extensions>
      </trkpt>
      <trkpt lat="50.345650948584079742431640625" lon="5.86181298829615116119384765625">
        <ele>443</ele>
        <time>2025-04-29T21:09:50.000Z</time>
        <extensions>
          <ns3:TrackPointExtension/>
        </extensions>
      </trkpt>
      <trkpt lat="50.3452809713780879974365234375" lon="5.86195497773587703704833984375">
        <ele>445.79998779296875</ele>
        <time>2025-04-29T21:09:54.000Z</time>
        <extensions>
          <ns3:TrackPointExtension/>
        </extensions>
      </trkpt>
      <trkpt lat="50.34505792893469333648681640625" lon="5.862000994384288787841796875">
        <ele>447.20001220703125</ele>
        <time>2025-04-29T21:09:58.000Z</time>
        <extensions>
          <ns3:TrackPointExtension/>
        </extensions>
      </trkpt>
      <trkpt lat="50.34335799515247344970703125" lon="5.8619609288871288299560546875">
        <ele>459.600006103515625</ele>
        <time>2025-04-29T21:10:03.000Z</time>
        <extensions>
          <ns3:TrackPointExtension/>
        </extensions>
      </trkpt>
      <trkpt lat="50.3430339507758617401123046875" lon="5.86192698217928409576416015625">
        <ele>461.79998779296875</ele>
        <time>2025-04-29T21:10:07.000Z</time>
        <extensions>
          <ns3:TrackPointExtension/>
        </extensions>
      </trkpt>
      <trkpt lat="50.34279196523129940032958984375" lon="5.86195598356425762176513671875">
        <ele>462.79998779296875</ele>
        <time>2025-04-29T21:10:11.000Z</time>
        <extensions>
          <ns3:TrackPointExtension/>
        </extensions>
      </trkpt>
      <trkpt lat="50.3426269255578517913818359375" lon="5.8620199374854564666748046875">
        <ele>463.79998779296875</ele>
        <time>2025-04-29T21:10:15.000Z</time>
        <extensions>
          <ns3:TrackPointExtension/>
        </extensions>
      </trkpt>
      <trkpt lat="50.3423179686069488525390625" lon="5.8621959574520587921142578125">
        <ele>467</ele>
        <time>2025-04-29T21:10:20.000Z</time>
        <extensions>
          <ns3:TrackPointExtension/>
        </extensions>
      </trkpt>
      <trkpt lat="50.34204597584903240203857421875" lon="5.8624249510467052459716796875">
        <ele>469.600006103515625</ele>
        <time>2025-04-29T21:10:24.000Z</time>
        <extensions>
          <ns3:TrackPointExtension/>
        </extensions>
      </trkpt>
      <trkpt lat="50.3415669500827789306640625" lon="5.8628909848630428314208984375">
        <ele>472.20001220703125</ele>
        <time>2025-04-29T21:10:28.000Z</time>
        <extensions>
          <ns3:TrackPointExtension/>
        </extensions>
      </trkpt>
      <trkpt lat="50.34055198542773723602294921875" lon="5.86402799002826213836669921875">
        <ele>473.79998779296875</ele>
        <time>2025-04-29T21:10:33.000Z</time>
        <extensions>
          <ns3:TrackPointExtension/>
        </extensions>
      </trkpt>
      <trkpt lat="50.34030295908451080322265625" lon="5.86436192505061626434326171875">
        <ele>474.399993896484375</ele>
        <time>2025-04-29T21:10:37.000Z</time>
        <extensions>
          <ns3:TrackPointExtension/>
        </extensions>
      </trkpt>
      <trkpt lat="50.340069942176342010498046875" lon="5.86471899412572383880615234375">
        <ele>475.600006103515625</ele>
        <time>2025-04-29T21:10:41.000Z</time>
        <extensions>
          <ns3:TrackPointExtension/>
        </extensions>
      </trkpt>
      <trkpt lat="50.33986098133027553558349609375" lon="5.86512199603021144866943359375">
        <ele>478.79998779296875</ele>
        <time>2025-04-29T21:10:45.000Z</time>
        <extensions>
          <ns3:TrackPointExtension/>
        </extensions>
      </trkpt>
      <trkpt lat="50.339039973914623260498046875" lon="5.86707296781241893768310546875">
        <ele>486.79998779296875</ele>
        <time>2025-04-29T21:10:50.000Z</time>
        <extensions>
          <ns3:TrackPointExtension/>
        </extensions>
      </trkpt>
      <trkpt lat="50.33896495588123798370361328125" lon="5.86734294891357421875">
        <ele>487</ele>
        <time>2025-04-29T21:10:54.000Z</time>
        <extensions>
          <ns3:TrackPointExtension/>
        </extensions>
      </trkpt>
      <trkpt lat="50.33892095088958740234375" lon="5.86762298829853534698486328125">
        <ele>485.79998779296875</ele>
        <time>2025-04-29T21:10:58.000Z</time>
        <extensions>
          <ns3:TrackPointExtension/>
        </extensions>
      </trkpt>
      <trkpt lat="50.3388879261910915374755859375" lon="5.86805096827447414398193359375">
        <ele>481.79998779296875</ele>
        <time>2025-04-29T21:11:03.000Z</time>
        <extensions>
          <ns3:TrackPointExtension/>
        </extensions>
      </trkpt>
      <trkpt lat="50.33890393562614917755126953125" lon="5.87037292309105396270751953125">
        <ele>498.600006103515625</ele>
        <time>2025-04-29T21:11:07.000Z</time>
        <extensions>
          <ns3:TrackPointExtension/>
        </extensions>
      </trkpt>
      <trkpt lat="50.3388979844748973846435546875" lon="5.8720869384706020355224609375">
        <ele>497.20001220703125</ele>
        <time>2025-04-29T21:11:11.000Z</time>
        <extensions>
          <ns3:TrackPointExtension/>
        </extensions>
      </trkpt>
      <trkpt lat="50.33891097642481327056884765625" lon="5.87383992969989776611328125">
        <ele>493.600006103515625</ele>
        <time>2025-04-29T21:11:15.000Z</time>
        <extensions>
          <ns3:TrackPointExtension/>
        </extensions>
      </trkpt>
      <trkpt lat="50.33896495588123798370361328125" lon="5.87432197295129299163818359375">
        <ele>489.399993896484375</ele>
        <time>2025-04-29T21:11:20.000Z</time>
        <extensions>
          <ns3:TrackPointExtension/>
        </extensions>
      </trkpt>
      <trkpt lat="50.3390669636428356170654296875" lon="5.87472296319901943206787109375">
        <ele>486.399993896484375</ele>
        <time>2025-04-29T21:11:24.000Z</time>
        <extensions>
          <ns3:TrackPointExtension/>
        </extensions>
      </trkpt>
      <trkpt lat="50.33983298577368259429931640625" lon="5.87665398605167865753173828125">
        <ele>476.399993896484375</ele>
        <time>2025-04-29T21:11:28.000Z</time>
        <extensions>
          <ns3:TrackPointExtension/>
        </extensions>
      </trkpt>
      <trkpt lat="50.3402729518711566925048828125" lon="5.877809934318065643310546875">
        <ele>471</ele>
        <time>2025-04-29T21:11:32.000Z</time>
        <extensions>
          <ns3:TrackPointExtension/>
        </extensions>
      </trkpt>
      <trkpt lat="50.34029499627649784088134765625" lon="5.8779619820415973663330078125">
        <ele>469.600006103515625</ele>
        <time>2025-04-29T21:11:37.000Z</time>
        <extensions>
          <ns3:TrackPointExtension/>
        </extensions>
      </trkpt>
      <trkpt lat="50.3402709402143955230712890625" lon="5.878106988966464996337890625">
        <ele>467.79998779296875</ele>
        <time>2025-04-29T21:11:41.000Z</time>
        <extensions>
          <ns3:TrackPointExtension/>
        </extensions>
      </trkpt>
      <trkpt lat="50.3402199782431125640869140625" lon="5.87823296897113323211669921875">
        <ele>466.399993896484375</ele>
        <time>2025-04-29T21:11:45.000Z</time>
        <extensions>
          <ns3:TrackPointExtension/>
        </extensions>
      </trkpt>
      <trkpt lat="50.340130962431430816650390625" lon="5.87832994759082794189453125">
        <ele>465.79998779296875</ele>
        <time>2025-04-29T21:11:50.000Z</time>
        <extensions>
          <ns3:TrackPointExtension/>
        </extensions>
      </trkpt>
      <trkpt lat="50.340010933578014373779296875" lon="5.87839893065392971038818359375">
        <ele>466.600006103515625</ele>
        <time>2025-04-29T21:11:54.000Z</time>
        <extensions>
          <ns3:TrackPointExtension/>
        </extensions>
      </trkpt>
      <trkpt lat="50.339548923075199127197265625" lon="5.8785309456288814544677734375">
        <ele>468.20001220703125</ele>
        <time>2025-04-29T21:11:58.000Z</time>
        <extensions>
          <ns3:TrackPointExtension/>
        </extensions>
      </trkpt>
      <trkpt lat="50.33892991952598094940185546875" lon="5.878670923411846160888671875">
        <ele>463.79998779296875</ele>
        <time>2025-04-29T21:12:02.000Z</time>
        <extensions>
          <ns3:TrackPointExtension/>
        </extensions>
      </trkpt>
      <trkpt lat="50.338463969528675079345703125" lon="5.8788429200649261474609375">
        <ele>457.600006103515625</ele>
        <time>2025-04-29T21:12:07.000Z</time>
        <extensions>
          <ns3:TrackPointExtension/>
        </extensions>
      </trkpt>
      <trkpt lat="50.33766995184123516082763671875" lon="5.8785849250853061676025390625">
        <ele>449</ele>
        <time>2025-04-29T21:12:11.000Z</time>
        <extensions>
          <ns3:TrackPointExtension/>
        </extensions>
      </trkpt>
      <trkpt lat="50.33703996799886226654052734375" lon="5.8788429200649261474609375">
        <ele>443.20001220703125</ele>
        <time>2025-04-29T21:12:15.000Z</time>
        <extensions>
          <ns3:TrackPointExtension/>
        </extensions>
      </trkpt>
      <trkpt lat="50.33660092391073703765869140625" lon="5.87897099554538726806640625">
        <ele>440</ele>
        <time>2025-04-29T21:12:20.000Z</time>
        <extensions>
          <ns3:TrackPointExtension/>
        </extensions>
      </trkpt>
      <trkpt lat="50.33594395034015178680419921875" lon="5.8792289905250072479248046875">
        <ele>436.600006103515625</ele>
        <time>2025-04-29T21:12:24.000Z</time>
        <extensions>
          <ns3:TrackPointExtension/>
        </extensions>
      </trkpt>
      <trkpt lat="50.33483795821666717529296875" lon="5.8797399513423442840576171875">
        <ele>427.399993896484375</ele>
        <time>2025-04-29T21:12:28.000Z</time>
        <extensions>
          <ns3:TrackPointExtension/>
        </extensions>
      </trkpt>
      <trkpt lat="50.33438198268413543701171875" lon="5.88021595962345600128173828125">
        <ele>423.79998779296875</ele>
        <time>2025-04-29T21:12:32.000Z</time>
        <extensions>
          <ns3:TrackPointExtension/>
        </extensions>
      </trkpt>
      <trkpt lat="50.333450920879840850830078125" lon="5.88098793290555477142333984375">
        <ele>413.20001220703125</ele>
        <time>2025-04-29T21:12:37.000Z</time>
        <extensions>
          <ns3:TrackPointExtension/>
        </extensions>
      </trkpt>
      <trkpt lat="50.33139693550765514373779296875" lon="5.88356293737888336181640625">
        <ele>397.399993896484375</ele>
        <time>2025-04-29T21:12:41.000Z</time>
        <extensions>
          <ns3:TrackPointExtension/>
        </extensions>
      </trkpt>
      <trkpt lat="50.3309029899537563323974609375" lon="5.88429291732609272003173828125">
        <ele>391.399993896484375</ele>
        <time>2025-04-29T21:12:45.000Z</time>
        <extensions>
          <ns3:TrackPointExtension/>
        </extensions>
      </trkpt>
      <trkpt lat="50.33013596199452877044677734375" lon="5.884721986949443817138671875">
        <ele>385</ele>
        <time>2025-04-29T21:12:49.000Z</time>
        <extensions>
          <ns3:TrackPointExtension/>
        </extensions>
      </trkpt>
      <trkpt lat="50.32945099286735057830810546875" lon="5.88545096106827259063720703125">
        <ele>383</ele>
        <time>2025-04-29T21:12:54.000Z</time>
        <extensions>
          <ns3:TrackPointExtension/>
        </extensions>
      </trkpt>
      <trkpt lat="50.32862998545169830322265625" lon="5.886437930166721343994140625">
        <ele>375.79998779296875</ele>
        <time>2025-04-29T21:12:58.000Z</time>
        <extensions>
          <ns3:TrackPointExtension/>
        </extensions>
      </trkpt>
      <trkpt lat="50.32791693694889545440673828125" lon="5.88759697973728179931640625">
        <ele>368.399993896484375</ele>
        <time>2025-04-29T21:13:02.000Z</time>
        <extensions>
          <ns3:TrackPointExtension/>
        </extensions>
      </trkpt>
      <trkpt lat="50.3275859355926513671875" lon="5.88798698969185352325439453125">
        <ele>366.399993896484375</ele>
        <time>2025-04-29T21:13:07.000Z</time>
        <extensions>
          <ns3:TrackPointExtension/>
        </extensions>
      </trkpt>
      <trkpt lat="50.3271059878170490264892578125" lon="5.8882199227809906005859375">
        <ele>360.399993896484375</ele>
        <time>2025-04-29T21:13:11.000Z</time>
        <extensions>
          <ns3:TrackPointExtension/>
        </extensions>
      </trkpt>
      <trkpt lat="50.32685897313058376312255859375" lon="5.88844497688114643096923828125">
        <ele>357.79998779296875</ele>
        <time>2025-04-29T21:13:15.000Z</time>
        <extensions>
          <ns3:TrackPointExtension/>
        </extensions>
      </trkpt>
      <trkpt lat="50.3266959451138973236083984375" lon="5.88867799378931522369384765625">
        <ele>357.600006103515625</ele>
        <time>2025-04-29T21:13:19.000Z</time>
        <extensions>
          <ns3:TrackPointExtension/>
        </extensions>
      </trkpt>
      <trkpt lat="50.32657499425113201141357421875" lon="5.8889709413051605224609375">
        <ele>356.79998779296875</ele>
        <time>2025-04-29T21:13:24.000Z</time>
        <extensions>
          <ns3:TrackPointExtension/>
        </extensions>
      </trkpt>
      <trkpt lat="50.326385982334613800048828125" lon="5.8896299265325069427490234375">
        <ele>353.399993896484375</ele>
        <time>2025-04-29T21:13:28.000Z</time>
        <extensions>
          <ns3:TrackPointExtension/>
        </extensions>
      </trkpt>
      <trkpt lat="50.3262959606945514678955078125" lon="5.89007793925702571868896484375">
        <ele>352.79998779296875</ele>
        <time>2025-04-29T21:13:32.000Z</time>
        <extensions>
          <ns3:TrackPointExtension/>
        </extensions>
      </trkpt>
      <trkpt lat="50.32625296153128147125244140625" lon="5.89065997861325740814208984375">
        <ele>350.600006103515625</ele>
        <time>2025-04-29T21:13:37.000Z</time>
        <extensions>
          <ns3:TrackPointExtension/>
        </extensions>
      </trkpt>
      <trkpt lat="50.32619093544781208038330078125" lon="5.89120195247232913970947265625">
        <ele>350</ele>
        <time>2025-04-29T21:13:41.000Z</time>
        <extensions>
          <ns3:TrackPointExtension/>
        </extensions>
      </trkpt>
      <trkpt lat="50.3259449265897274017333984375" lon="5.89223192073404788970947265625">
        <ele>347.600006103515625</ele>
        <time>2025-04-29T21:13:45.000Z</time>
        <extensions>
          <ns3:TrackPointExtension/>
        </extensions>
      </trkpt>
      <trkpt lat="50.3257269971072673797607421875" lon="5.8933709375560283660888671875">
        <ele>342.79998779296875</ele>
        <time>2025-04-29T21:13:49.000Z</time>
        <extensions>
          <ns3:TrackPointExtension/>
        </extensions>
      </trkpt>
      <trkpt lat="50.325458943843841552734375" lon="5.8951629884541034698486328125">
        <ele>339.399993896484375</ele>
        <time>2025-04-29T21:13:54.000Z</time>
        <extensions>
          <ns3:TrackPointExtension/>
        </extensions>
      </trkpt>
      <trkpt lat="50.32530798576772212982177734375" lon="5.8957839198410511016845703125">
        <ele>336.600006103515625</ele>
        <time>2025-04-29T21:13:58.000Z</time>
        <extensions>
          <ns3:TrackPointExtension/>
        </extensions>
      </trkpt>
      <trkpt lat="50.3251499868929386138916015625" lon="5.8966519497334957122802734375">
        <ele>333.79998779296875</ele>
        <time>2025-04-29T21:14:02.000Z</time>
        <extensions>
          <ns3:TrackPointExtension/>
        </extensions>
      </trkpt>
      <trkpt lat="50.3250879608094692230224609375" lon="5.89830092154443264007568359375">
        <ele>330</ele>
        <time>2025-04-29T21:14:06.000Z</time>
        <extensions>
          <ns3:TrackPointExtension/>
        </extensions>
      </trkpt>
      <trkpt lat="50.32493499107658863067626953125" lon="5.9001579321920871734619140625">
        <ele>322.79998779296875</ele>
        <time>2025-04-29T21:14:11.000Z</time>
        <extensions>
          <ns3:TrackPointExtension/>
        </extensions>
      </trkpt>
      <trkpt lat="50.32495594583451747894287109375" lon="5.9006189368665218353271484375">
        <ele>321.20001220703125</ele>
        <time>2025-04-29T21:14:15.000Z</time>
        <extensions>
          <ns3:TrackPointExtension/>
        </extensions>
      </trkpt>
      <trkpt lat="50.32516297884285449981689453125" lon="5.90133198536932468414306640625">
        <ele>319.399993896484375</ele>
        <time>2025-04-29T21:14:19.000Z</time>
        <extensions>
          <ns3:TrackPointExtension/>
        </extensions>
      </trkpt>
      <trkpt lat="50.3253149427473545074462890625" lon="5.90179399587213993072509765625">
        <ele>318.20001220703125</ele>
        <time>2025-04-29T21:14:24.000Z</time>
        <extensions>
          <ns3:TrackPointExtension/>
        </extensions>
      </trkpt>
      <trkpt lat="50.3255529887974262237548828125" lon="5.90236295945942401885986328125">
        <ele>315.20001220703125</ele>
        <time>2025-04-29T21:14:28.000Z</time>
        <extensions>
          <ns3:TrackPointExtension/>
        </extensions>
      </trkpt>
      <trkpt lat="50.3256049565970897674560546875" lon="5.9026379697024822235107421875">
        <ele>314.20001220703125</ele>
        <time>2025-04-29T21:14:32.000Z</time>
        <extensions>
          <ns3:TrackPointExtension/>
        </extensions>
      </trkpt>
      <trkpt lat="50.32564694993197917938232421875" lon="5.90299998410046100616455078125">
        <ele>311.79998779296875</ele>
        <time>2025-04-29T21:14:36.000Z</time>
        <extensions>
          <ns3:TrackPointExtension/>
        </extensions>
      </trkpt>
      <trkpt lat="50.32567293383181095123291015625" lon="5.90325697325170040130615234375">
        <ele>310.399993896484375</ele>
        <time>2025-04-29T21:14:41.000Z</time>
        <extensions>
          <ns3:TrackPointExtension/>
        </extensions>
      </trkpt>
      <trkpt lat="50.32572892494499683380126953125" lon="5.9037929959595203399658203125">
        <ele>308</ele>
        <time>2025-04-29T21:14:45.000Z</time>
        <extensions>
          <ns3:TrackPointExtension/>
        </extensions>
      </trkpt>
      <trkpt lat="50.32576396130025386810302734375" lon="5.9043029509484767913818359375">
        <ele>308</ele>
        <time>2025-04-29T21:14:49.000Z</time>
        <extensions>
          <ns3:TrackPointExtension/>
        </extensions>
      </trkpt>
      <trkpt lat="50.32593796961009502410888671875" lon="5.90594597160816192626953125">
        <ele>308.399993896484375</ele>
        <time>2025-04-29T21:14:54.000Z</time>
        <extensions>
          <ns3:TrackPointExtension/>
        </extensions>
      </trkpt>
      <trkpt lat="50.325982980430126190185546875" lon="5.90664393268525600433349609375">
        <ele>311.20001220703125</ele>
        <time>2025-04-29T21:14:58.000Z</time>
        <extensions>
          <ns3:TrackPointExtension/>
        </extensions>
      </trkpt>
      <trkpt lat="50.3258389793336391448974609375" lon="5.90684493072330951690673828125">
        <ele>311.600006103515625</ele>
        <time>2025-04-29T21:15:05.000Z</time>
        <extensions>
          <ns3:TrackPointExtension/>
        </extensions>
      </trkpt>
      <trkpt lat="50.32528392970561981201171875" lon="5.90794798918068408966064453125">
        <ele>313.600006103515625</ele>
        <time>2025-04-29T21:15:12.000Z</time>
        <extensions>
          <ns3:TrackPointExtension/>
        </extensions>
      </trkpt>
      <trkpt lat="50.32541192136704921722412109375" lon="5.90806298889219760894775390625">
        <ele>315</ele>
        <time>2025-04-29T21:15:17.000Z</time>
        <extensions>
          <ns3:TrackPointExtension/>
        </extensions>
      </trkpt>
      <trkpt lat="50.325638987123966217041015625" lon="5.9080999530851840972900390625">
        <ele>317.600006103515625</ele>
        <time>2025-04-29T21:15:22.000Z</time>
        <extensions>
          <ns3:TrackPointExtension/>
        </extensions>
      </trkpt>
      <trkpt lat="50.32575197517871856689453125" lon="5.908069945871829986572265625">
        <ele>319</ele>
        <time>2025-04-29T21:15:27.000Z</time>
        <extensions>
          <ns3:TrackPointExtension/>
        </extensions>
      </trkpt>
      <trkpt lat="50.32607392407953739166259765625" lon="5.907846987247467041015625">
        <ele>322.600006103515625</ele>
        <time>2025-04-29T21:15:31.000Z</time>
        <extensions>
          <ns3:TrackPointExtension/>
        </extensions>
      </trkpt>
      <trkpt lat="50.32613494433462619781494140625" lon="5.90784992091357707977294921875">
        <ele>323.399993896484375</ele>
        <time>2025-04-29T21:15:36.000Z</time>
        <extensions>
          <ns3:TrackPointExtension/>
        </extensions>
      </trkpt>
      <trkpt lat="50.3261839784681797027587890625" lon="5.90787892229855060577392578125">
        <ele>324.20001220703125</ele>
        <time>2025-04-29T21:15:41.000Z</time>
        <extensions>
          <ns3:TrackPointExtension/>
        </extensions>
      </trkpt>
      <trkpt lat="50.3262439928948879241943359375" lon="5.907963998615741729736328125">
        <ele>325.399993896484375</ele>
        <time>2025-04-29T21:15:46.000Z</time>
        <extensions>
          <ns3:TrackPointExtension/>
        </extensions>
      </trkpt>
      <trkpt lat="50.32627391628921031951904296875" lon="5.9085079841315746307373046875">
        <ele>329.20001220703125</ele>
        <time>2025-04-29T21:15:51.000Z</time>
        <extensions>
          <ns3:TrackPointExtension/>
        </extensions>
      </trkpt>
      <trkpt lat="50.32628095708787441253662109375" lon="5.90911491774022579193115234375">
        <ele>329.399993896484375</ele>
        <time>2025-04-29T21:15:55.000Z</time>
        <extensions>
          <ns3:TrackPointExtension/>
        </extensions>
      </trkpt>
      <trkpt lat="50.32645094208419322967529296875" lon="5.9105679206550121307373046875">
        <ele>331.20001220703125</ele>
        <time>2025-04-29T21:16:00.000Z</time>
        <extensions>
          <ns3:TrackPointExtension/>
        </extensions>
      </trkpt>
      <trkpt lat="50.32654498703777790069580078125" lon="5.9113759361207485198974609375">
        <ele>333</ele>
        <time>2025-04-29T21:16:05.000Z</time>
        <extensions>
          <ns3:TrackPointExtension/>
        </extensions>
      </trkpt>
      <trkpt lat="50.3266469947993755340576171875" lon="5.9119199216365814208984375">
        <ele>335.79998779296875</ele>
        <time>2025-04-29T21:16:10.000Z</time>
        <extensions>
          <ns3:TrackPointExtension/>
        </extensions>
      </trkpt>
      <trkpt lat="50.32677297480404376983642578125" lon="5.91240598820149898529052734375">
        <ele>337.600006103515625</ele>
        <time>2025-04-29T21:16:15.000Z</time>
        <extensions>
          <ns3:TrackPointExtension/>
        </extensions>
      </trkpt>
      <trkpt lat="50.32700699754059314727783203125" lon="5.913772992789745330810546875">
        <ele>346.20001220703125</ele>
        <time>2025-04-29T21:16:19.000Z</time>
        <extensions>
          <ns3:TrackPointExtension/>
        </extensions>
      </trkpt>
      <trkpt lat="50.32763496972620487213134765625" lon="5.9148269332945346832275390625">
        <ele>357</ele>
        <time>2025-04-29T21:16:24.000Z</time>
        <extensions>
          <ns3:TrackPointExtension/>
        </extensions>
      </trkpt>
      <trkpt lat="50.32801098190248012542724609375" lon="5.9159779362380504608154296875">
        <ele>366.20001220703125</ele>
        <time>2025-04-29T21:16:29.000Z</time>
        <extensions>
          <ns3:TrackPointExtension/>
        </extensions>
      </trkpt>
      <trkpt lat="50.32840291969478130340576171875" lon="5.9165579639375209808349609375">
        <ele>367.79998779296875</ele>
        <time>2025-04-29T21:16:34.000Z</time>
        <extensions>
          <ns3:TrackPointExtension/>
        </extensions>
      </trkpt>
      <trkpt lat="50.32892293296754360198974609375" lon="5.91703397221863269805908203125">
        <ele>364.600006103515625</ele>
        <time>2025-04-29T21:16:38.000Z</time>
        <extensions>
          <ns3:TrackPointExtension/>
        </extensions>
      </trkpt>
      <trkpt lat="50.32924697734415531158447265625" lon="5.91723597608506679534912109375">
        <ele>360.79998779296875</ele>
        <time>2025-04-29T21:16:43.000Z</time>
        <extensions>
          <ns3:TrackPointExtension/>
        </extensions>
      </trkpt>
      <trkpt lat="50.33030594699084758758544921875" lon="5.91815094463527202606201171875">
        <ele>351.600006103515625</ele>
        <time>2025-04-29T21:16:48.000Z</time>
        <extensions>
          <ns3:TrackPointExtension/>
        </extensions>
      </trkpt>
      <trkpt lat="50.33134396187961101531982421875" lon="5.91889299452304840087890625">
        <ele>345</ele>
        <time>2025-04-29T21:16:53.000Z</time>
        <extensions>
          <ns3:TrackPointExtension/>
        </extensions>
      </trkpt>
      <trkpt lat="50.3322809748351573944091796875" lon="5.919402949512004852294921875">
        <ele>334.20001220703125</ele>
        <time>2025-04-29T21:16:58.000Z</time>
        <extensions>
          <ns3:TrackPointExtension/>
        </extensions>
      </trkpt>
      <trkpt lat="50.33286594785749912261962890625" lon="5.91964594088494777679443359375">
        <ele>329</ele>
        <time>2025-04-29T21:17:02.000Z</time>
        <extensions>
          <ns3:TrackPointExtension/>
        </extensions>
      </trkpt>
      <trkpt lat="50.33341999165713787078857421875" lon="5.9200039319694042205810546875">
        <ele>327.20001220703125</ele>
        <time>2025-04-29T21:17:07.000Z</time>
        <extensions>
          <ns3:TrackPointExtension/>
        </extensions>
      </trkpt>
      <trkpt lat="50.33358494751155376434326171875" lon="5.92010795138776302337646484375">
        <ele>327</ele>
        <time>2025-04-29T21:17:12.000Z</time>
        <extensions>
          <ns3:TrackPointExtension/>
        </extensions>
      </trkpt>
      <trkpt lat="50.333741940557956695556640625" lon="5.92013594694435596466064453125">
        <ele>327.20001220703125</ele>
        <time>2025-04-29T21:17:17.000Z</time>
        <extensions>
          <ns3:TrackPointExtension/>
        </extensions>
      </trkpt>
      <trkpt lat="50.33404092304408550262451171875" lon="5.92004592530429363250732421875">
        <ele>327.20001220703125</ele>
        <time>2025-04-29T21:17:22.000Z</time>
        <extensions>
          <ns3:TrackPointExtension/>
        </extensions>
      </trkpt>
      <trkpt lat="50.334205962717533111572265625" lon="5.92002497054636478424072265625">
        <ele>328.20001220703125</ele>
        <time>2025-04-29T21:17:26.000Z</time>
        <extensions>
          <ns3:TrackPointExtension/>
        </extensions>
      </trkpt>
      <trkpt lat="50.33436597324907779693603515625" lon="5.9200979769229888916015625">
        <ele>330.600006103515625</ele>
        <time>2025-04-29T21:17:31.000Z</time>
        <extensions>
          <ns3:TrackPointExtension/>
        </extensions>
      </trkpt>
      <trkpt lat="50.3379099257290363311767578125" lon="5.92198692262172698974609375">
        <ele>364.79998779296875</ele>
        <time>2025-04-29T21:17:36.000Z</time>
        <extensions>
          <ns3:TrackPointExtension/>
        </extensions>
      </trkpt>
      <trkpt lat="50.3385499678552150726318359375" lon="5.9224219433963298797607421875">
        <ele>371.20001220703125</ele>
        <time>2025-04-29T21:17:41.000Z</time>
        <extensions>
          <ns3:TrackPointExtension/>
        </extensions>
      </trkpt>
      <trkpt lat="50.33872892148792743682861328125" lon="5.92255094088613986968994140625">
        <ele>373</ele>
        <time>2025-04-29T21:17:46.000Z</time>
        <extensions>
          <ns3:TrackPointExtension/>
        </extensions>
      </trkpt>
      <trkpt lat="50.3388579189777374267578125" lon="5.9225749969482421875">
        <ele>373.600006103515625</ele>
        <time>2025-04-29T21:17:50.000Z</time>
        <extensions>
          <ns3:TrackPointExtension/>
        </extensions>
      </trkpt>
      <trkpt lat="50.33916193060576915740966796875" lon="5.92254892922937870025634765625">
        <ele>373.600006103515625</ele>
        <time>2025-04-29T21:17:55.000Z</time>
        <extensions>
          <ns3:TrackPointExtension/>
        </extensions>
      </trkpt>
      <trkpt lat="50.33988495357334613800048828125" lon="5.92225992120802402496337890625">
        <ele>377</ele>
        <time>2025-04-29T21:18:00.000Z</time>
        <extensions>
          <ns3:TrackPointExtension/>
        </extensions>
      </trkpt>
      <trkpt lat="50.34039792604744434356689453125" lon="5.92227199114859104156494140625">
        <ele>384.399993896484375</ele>
        <time>2025-04-29T21:18:05.000Z</time>
        <extensions>
          <ns3:TrackPointExtension/>
        </extensions>
      </trkpt>
      <trkpt lat="50.3406779654324054718017578125" lon="5.922280959784984588623046875">
        <ele>387.79998779296875</ele>
        <time>2025-04-29T21:18:10.000Z</time>
        <extensions>
          <ns3:TrackPointExtension/>
        </extensions>
      </trkpt>
      <trkpt lat="50.341503918170928955078125" lon="5.92206596396863460540771484375">
        <ele>396.79998779296875</ele>
        <time>2025-04-29T21:18:14.000Z</time>
        <extensions>
          <ns3:TrackPointExtension/>
        </extensions>
      </trkpt>
      <trkpt lat="50.3418789245188236236572265625" lon="5.92230199836194515228271484375">
        <ele>400.79998779296875</ele>
        <time>2025-04-29T21:18:20.000Z</time>
        <extensions>
          <ns3:TrackPointExtension/>
        </extensions>
      </trkpt>
      <trkpt lat="50.34253992140293121337890625" lon="5.92261598445475101470947265625">
        <ele>413.20001220703125</ele>
        <time>2025-04-29T21:18:26.000Z</time>
        <extensions>
          <ns3:TrackPointExtension/>
        </extensions>
      </trkpt>
      <trkpt lat="50.34302799962460994720458984375" lon="5.92264196835458278656005859375">
        <ele>418.399993896484375</ele>
        <time>2025-04-29T21:18:31.000Z</time>
        <extensions>
          <ns3:TrackPointExtension/>
        </extensions>
      </trkpt>
      <trkpt lat="50.3432719968259334564208984375" lon="5.9225459955632686614990234375">
        <ele>422.600006103515625</ele>
        <time>2025-04-29T21:18:37.000Z</time>
        <extensions>
          <ns3:TrackPointExtension/>
        </extensions>
      </trkpt>
      <trkpt lat="50.3443039767444133758544921875" lon="5.9217099845409393310546875">
        <ele>438.399993896484375</ele>
        <time>2025-04-29T21:18:43.000Z</time>
        <extensions>
          <ns3:TrackPointExtension/>
        </extensions>
      </trkpt>
      <trkpt lat="50.34494192339479923248291015625" lon="5.92123297043144702911376953125">
        <ele>445.79998779296875</ele>
        <time>2025-04-29T21:18:48.000Z</time>
        <extensions>
          <ns3:TrackPointExtension/>
        </extensions>
      </trkpt>
      <trkpt lat="50.3455599211156368255615234375" lon="5.921077989041805267333984375">
        <ele>454.600006103515625</ele>
        <time>2025-04-29T21:18:54.000Z</time>
        <extensions>
          <ns3:TrackPointExtension/>
        </extensions>
      </trkpt>
      <trkpt lat="50.3456199355423450469970703125" lon="5.92140496708452701568603515625">
        <ele>458.399993896484375</ele>
        <time>2025-04-29T21:18:57.000Z</time>
        <extensions>
          <ns3:TrackPointExtension/>
        </extensions>
      </trkpt>
      <trkpt lat="50.34580693580210208892822265625" lon="5.922797955572605133056640625">
        <ele>470.79998779296875</ele>
        <time>2025-04-29T21:18:59.000Z</time>
        <extensions>
          <ns3:TrackPointExtension/>
        </extensions>
      </trkpt>
      <trkpt lat="50.34595697186887264251708984375" lon="5.92342198826372623443603515625">
        <ele>473.79998779296875</ele>
        <time>2025-04-29T21:19:02.000Z</time>
        <extensions>
          <ns3:TrackPointExtension/>
        </extensions>
      </trkpt>
      <trkpt lat="50.34607197158038616180419921875" lon="5.92368098907172679901123046875">
        <ele>475</ele>
        <time>2025-04-29T21:19:04.000Z</time>
        <extensions>
          <ns3:TrackPointExtension/>
        </extensions>
      </trkpt>
      <trkpt lat="50.3462049923837184906005859375" lon="5.92369993217289447784423828125">
        <ele>477</ele>
        <time>2025-04-29T21:19:08.000Z</time>
        <extensions>
          <ns3:TrackPointExtension/>
        </extensions>
      </trkpt>
      <trkpt lat="50.3463199920952320098876953125" lon="5.92365399934351444244384765625">
        <ele>478.600006103515625</ele>
        <time>2025-04-29T21:19:11.000Z</time>
        <extensions>
          <ns3:TrackPointExtension/>
        </extensions>
      </trkpt>
      <trkpt lat="50.3471829928457736968994140625" lon="5.92240995727479457855224609375">
        <ele>485.20001220703125</ele>
        <time>2025-04-29T21:19:15.000Z</time>
        <extensions>
          <ns3:TrackPointExtension/>
        </extensions>
      </trkpt>
      <trkpt lat="50.34732892177999019622802734375" lon="5.922111980617046356201171875">
        <ele>484.79998779296875</ele>
        <time>2025-04-29T21:19:19.000Z</time>
        <extensions>
          <ns3:TrackPointExtension/>
        </extensions>
      </trkpt>
      <trkpt lat="50.34770895726978778839111328125" lon="5.92077992856502532958984375">
        <ele>484.79998779296875</ele>
        <time>2025-04-29T21:19:22.000Z</time>
        <extensions>
          <ns3:TrackPointExtension/>
        </extensions>
      </trkpt>
      <trkpt lat="50.34793593920767307281494140625" lon="5.92050994746387004852294921875">
        <ele>488.20001220703125</ele>
        <time>2025-04-29T21:19:26.000Z</time>
        <extensions>
          <ns3:TrackPointExtension/>
        </extensions>
      </trkpt>
      <trkpt lat="50.34877999685704708099365234375" lon="5.91993997804820537567138671875">
        <ele>496.79998779296875</ele>
        <time>2025-04-29T21:19:29.000Z</time>
        <extensions>
          <ns3:TrackPointExtension/>
        </extensions>
      </trkpt>
      <trkpt lat="50.34942992962896823883056640625" lon="5.91953999362885951995849609375">
        <ele>502.20001220703125</ele>
        <time>2025-04-29T21:19:33.000Z</time>
        <extensions>
          <ns3:TrackPointExtension/>
        </extensions>
      </trkpt>
      <trkpt lat="50.35013593733310699462890625" lon="5.91964594088494777679443359375">
        <ele>498.20001220703125</ele>
        <time>2025-04-29T21:19:36.000Z</time>
        <extensions>
          <ns3:TrackPointExtension/>
        </extensions>
      </trkpt>
      <trkpt lat="50.35116196610033512115478515625" lon="5.91984995640814304351806640625">
        <ele>489.600006103515625</ele>
        <time>2025-04-29T21:19:40.000Z</time>
        <extensions>
          <ns3:TrackPointExtension/>
        </extensions>
      </trkpt>
      <trkpt lat="50.35128098912537097930908203125" lon="5.91987392865121364593505859375">
        <ele>489.20001220703125</ele>
        <time>2025-04-29T21:19:44.000Z</time>
        <extensions>
          <ns3:TrackPointExtension/>
        </extensions>
      </trkpt>
      <trkpt lat="50.35205095075070858001708984375" lon="5.920031927525997161865234375">
        <ele>481.399993896484375</ele>
        <time>2025-04-29T21:19:47.000Z</time>
        <extensions>
          <ns3:TrackPointExtension/>
        </extensions>
      </trkpt>
      <trkpt lat="50.3522449918091297149658203125" lon="5.92005296610295772552490234375">
        <ele>480.79998779296875</ele>
        <time>2025-04-29T21:19:51.000Z</time>
        <extensions>
          <ns3:TrackPointExtension/>
        </extensions>
      </trkpt>
      <trkpt lat="50.3525209240615367889404296875" lon="5.91999395750463008880615234375">
        <ele>480</ele>
        <time>2025-04-29T21:19:54.000Z</time>
        <extensions>
          <ns3:TrackPointExtension/>
        </extensions>
      </trkpt>
      <trkpt lat="50.3531889617443084716796875" lon="5.91975792311131954193115234375">
        <ele>479</ele>
        <time>2025-04-29T21:19:58.000Z</time>
        <extensions>
          <ns3:TrackPointExtension/>
        </extensions>
      </trkpt>
      <trkpt lat="50.3533259220421314239501953125" lon="5.9197519719600677490234375">
        <ele>479.20001220703125</ele>
        <time>2025-04-29T21:20:01.000Z</time>
        <extensions>
          <ns3:TrackPointExtension/>
        </extensions>
      </trkpt>
      <trkpt lat="50.3537869267165660858154296875" lon="5.919806957244873046875">
        <ele>480.79998779296875</ele>
        <time>2025-04-29T21:20:05.000Z</time>
        <extensions>
          <ns3:TrackPointExtension/>
        </extensions>
      </trkpt>
      <trkpt lat="50.3542779386043548583984375" lon="5.91998792253434658050537109375">
        <ele>481</ele>
        <time>2025-04-29T21:20:09.000Z</time>
        <extensions>
          <ns3:TrackPointExtension/>
        </extensions>
      </trkpt>
      <trkpt lat="50.3546829521656036376953125" lon="5.92016494832932949066162109375">
        <ele>480.79998779296875</ele>
        <time>2025-04-29T21:20:12.000Z</time>
        <extensions>
          <ns3:TrackPointExtension/>
        </extensions>
      </trkpt>
      <trkpt lat="50.35532693378627300262451171875" lon="5.920330993831157684326171875">
        <ele>477</ele>
        <time>2025-04-29T21:20:16.000Z</time>
        <extensions>
          <ns3:TrackPointExtension/>
        </extensions>
      </trkpt>
      <trkpt lat="50.35532995127141475677490234375" lon="5.9204119630157947540283203125">
        <ele>476.600006103515625</ele>
        <time>2025-04-29T21:20:18.000Z</time>
        <extensions>
          <ns3:TrackPointExtension/>
        </extensions>
      </trkpt>
      <trkpt lat="50.355369932949542999267578125" lon="5.9204639308154582977294921875">
        <ele>476.20001220703125</ele>
        <time>2025-04-29T21:20:20.000Z</time>
        <extensions>
          <ns3:TrackPointExtension/>
        </extensions>
      </trkpt>
      <trkpt lat="50.355429947376251220703125" lon="5.9204399585723876953125">
        <ele>476.20001220703125</ele>
        <time>2025-04-29T21:20:23.000Z</time>
        <extensions>
          <ns3:TrackPointExtension/>
        </extensions>
      </trkpt>
      <trkpt lat="50.35544897429645061492919921875" lon="5.92034599743783473968505859375">
        <ele>476.399993896484375</ele>
        <time>2025-04-29T21:20:25.000Z</time>
        <extensions>
          <ns3:TrackPointExtension/>
        </extensions>
      </trkpt>
      <trkpt lat="50.3562659583985805511474609375" lon="5.92031196691095829010009765625">
        <ele>468.79998779296875</ele>
        <time>2025-04-29T21:20:27.000Z</time>
        <extensions>
          <ns3:TrackPointExtension/>
        </extensions>
      </trkpt>
      <trkpt lat="50.3573329746723175048828125" lon="5.91993595473468303680419921875">
        <ele>460.399993896484375</ele>
        <time>2025-04-29T21:20:30.000Z</time>
        <extensions>
          <ns3:TrackPointExtension/>
        </extensions>
      </trkpt>
      <trkpt lat="50.3575899638235569000244140625" lon="5.91986797749996185302734375">
        <ele>457</ele>
        <time>2025-04-29T21:20:32.000Z</time>
        <extensions>
          <ns3:TrackPointExtension/>
        </extensions>
      </trkpt>
      <trkpt lat="50.35779498517513275146484375" lon="5.91985699720680713653564453125">
        <ele>454.399993896484375</ele>
        <time>2025-04-29T21:20:35.000Z</time>
        <extensions>
          <ns3:TrackPointExtension/>
        </extensions>
      </trkpt>
      <trkpt lat="50.35895797424018383026123046875" lon="5.92002798803150653839111328125">
        <ele>444</ele>
        <time>2025-04-29T21:20:37.000Z</time>
        <extensions>
          <ns3:TrackPointExtension/>
        </extensions>
      </trkpt>
      <trkpt lat="50.3591479919850826263427734375" lon="5.92002497054636478424072265625">
        <ele>443.600006103515625</ele>
        <time>2025-04-29T21:20:39.000Z</time>
        <extensions>
          <ns3:TrackPointExtension/>
        </extensions>
      </trkpt>
      <trkpt lat="50.35924798808991909027099609375" lon="5.91999395750463008880615234375">
        <ele>443.600006103515625</ele>
        <time>2025-04-29T21:20:42.000Z</time>
        <extensions>
          <ns3:TrackPointExtension/>
        </extensions>
      </trkpt>
      <trkpt lat="50.3603469394147396087646484375" lon="5.91935592703521251678466796875">
        <ele>441.600006103515625</ele>
        <time>2025-04-29T21:20:44.000Z</time>
        <extensions>
          <ns3:TrackPointExtension/>
        </extensions>
      </trkpt>
      <trkpt lat="50.3612659312784671783447265625" lon="5.9187949262559413909912109375">
        <ele>421</ele>
        <time>2025-04-29T21:20:46.000Z</time>
        <extensions>
          <ns3:TrackPointExtension/>
        </extensions>
      </trkpt>
      <trkpt lat="50.3613829426467418670654296875" lon="5.918659977614879608154296875">
        <ele>417.600006103515625</ele>
        <time>2025-04-29T21:20:49.000Z</time>
        <extensions>
          <ns3:TrackPointExtension/>
        </extensions>
      </trkpt>
      <trkpt lat="50.361532978713512420654296875" lon="5.9183959476649761199951171875">
        <ele>413.79998779296875</ele>
        <time>2025-04-29T21:20:51.000Z</time>
        <extensions>
          <ns3:TrackPointExtension/>
        </extensions>
      </trkpt>
      <trkpt lat="50.36160397343337535858154296875" lon="5.918309949338436126708984375">
        <ele>411.20001220703125</ele>
        <time>2025-04-29T21:20:53.000Z</time>
        <extensions>
          <ns3:TrackPointExtension/>
        </extensions>
      </trkpt>
      <trkpt lat="50.36168997175991535186767578125" lon="5.91829595156013965606689453125">
        <ele>408.600006103515625</ele>
        <time>2025-04-29T21:20:56.000Z</time>
        <extensions>
          <ns3:TrackPointExtension/>
        </extensions>
      </trkpt>
      <trkpt lat="50.361754931509494781494140625" lon="5.9184019826352596282958984375">
        <ele>407.20001220703125</ele>
        <time>2025-04-29T21:20:58.000Z</time>
        <extensions>
          <ns3:TrackPointExtension/>
        </extensions>
      </trkpt>
      <trkpt lat="50.3617849387228488922119140625" lon="5.91853399761021137237548828125">
        <ele>406.399993896484375</ele>
        <time>2025-04-29T21:21:00.000Z</time>
        <extensions>
          <ns3:TrackPointExtension/>
        </extensions>
      </trkpt>
      <trkpt lat="50.3617339767515659332275390625" lon="5.9201189316809177398681640625">
        <ele>398</ele>
        <time>2025-04-29T21:21:03.000Z</time>
        <extensions>
          <ns3:TrackPointExtension/>
        </extensions>
      </trkpt>
      <trkpt lat="50.36176599562168121337890625" lon="5.92037298716604709625244140625">
        <ele>397</ele>
        <time>2025-04-29T21:21:05.000Z</time>
        <extensions>
          <ns3:TrackPointExtension/>
        </extensions>
      </trkpt>
      <trkpt lat="50.36188191734254360198974609375" lon="5.92079694382846355438232421875">
        <ele>394.399993896484375</ele>
        <time>2025-04-29T21:21:08.000Z</time>
        <extensions>
          <ns3:TrackPointExtension/>
        </extensions>
      </trkpt>
      <trkpt lat="50.36193095147609710693359375" lon="5.9209309704601764678955078125">
        <ele>392.600006103515625</ele>
        <time>2025-04-29T21:21:10.000Z</time>
        <extensions>
          <ns3:TrackPointExtension/>
        </extensions>
      </trkpt>
      <trkpt lat="50.36200395785272121429443359375" lon="5.92105695046484470367431640625">
        <ele>390.20001220703125</ele>
        <time>2025-04-29T21:21:12.000Z</time>
        <extensions>
          <ns3:TrackPointExtension/>
        </extensions>
      </trkpt>
      <trkpt lat="50.3620709292590618133544921875" lon="5.92113398015499114990234375">
        <ele>388.20001220703125</ele>
        <time>2025-04-29T21:21:15.000Z</time>
        <extensions>
          <ns3:TrackPointExtension/>
        </extensions>
      </trkpt>
      <trkpt lat="50.362155921757221221923828125" lon="5.9211649931967258453369140625">
        <ele>386</ele>
        <time>2025-04-29T21:21:17.000Z</time>
        <extensions>
          <ns3:TrackPointExtension/>
        </extensions>
      </trkpt>
      <trkpt lat="50.36228097975254058837890625" lon="5.9211549349129199981689453125">
        <ele>383.399993896484375</ele>
        <time>2025-04-29T21:21:19.000Z</time>
        <extensions>
          <ns3:TrackPointExtension/>
        </extensions>
      </trkpt>
      <trkpt lat="50.3629449941217899322509765625" lon="5.92099593020975589752197265625">
        <ele>376</ele>
        <time>2025-04-29T21:21:22.000Z</time>
        <extensions>
          <ns3:TrackPointExtension/>
        </extensions>
      </trkpt>
      <trkpt lat="50.36358796991407871246337890625" lon="5.9209229238331317901611328125">
        <ele>368.79998779296875</ele>
        <time>2025-04-29T21:21:24.000Z</time>
        <extensions>
          <ns3:TrackPointExtension/>
        </extensions>
      </trkpt>
      <trkpt lat="50.3639769740402698516845703125" lon="5.9209319762885570526123046875">
        <ele>364.20001220703125</ele>
        <time>2025-04-29T21:21:26.000Z</time>
        <extensions>
          <ns3:TrackPointExtension/>
        </extensions>
      </trkpt>
      <trkpt lat="50.36445197649300098419189453125" lon="5.92105695046484470367431640625">
        <ele>360.20001220703125</ele>
        <time>2025-04-29T21:21:29.000Z</time>
        <extensions>
          <ns3:TrackPointExtension/>
        </extensions>
      </trkpt>
      <trkpt lat="50.36464492790400981903076171875" lon="5.921181924641132354736328125">
        <ele>357.600006103515625</ele>
        <time>2025-04-29T21:21:31.000Z</time>
        <extensions>
          <ns3:TrackPointExtension/>
        </extensions>
      </trkpt>
      <trkpt lat="50.36522998474538326263427734375" lon="5.92205791734158992767333984375">
        <ele>348</ele>
        <time>2025-04-29T21:21:33.000Z</time>
        <extensions>
          <ns3:TrackPointExtension/>
        </extensions>
      </trkpt>
      <trkpt lat="50.36530793644487857818603515625" lon="5.9222759306430816650390625">
        <ele>346.399993896484375</ele>
        <time>2025-04-29T21:21:36.000Z</time>
        <extensions>
          <ns3:TrackPointExtension/>
        </extensions>
      </trkpt>
      <trkpt lat="50.36533492617309093475341796875" lon="5.922504924237728118896484375">
        <ele>343.20001220703125</ele>
        <time>2025-04-29T21:21:38.000Z</time>
        <extensions>
          <ns3:TrackPointExtension/>
        </extensions>
      </trkpt>
      <trkpt lat="50.36533492617309093475341796875" lon="5.92274598777294158935546875">
        <ele>340.20001220703125</ele>
        <time>2025-04-29T21:21:40.000Z</time>
        <extensions>
          <ns3:TrackPointExtension/>
        </extensions>
      </trkpt>
      <trkpt lat="50.3652959503233432769775390625" lon="5.92361996881663799285888671875">
        <ele>336.399993896484375</ele>
        <time>2025-04-29T21:21:43.000Z</time>
        <extensions>
          <ns3:TrackPointExtension/>
        </extensions>
      </trkpt>
      <trkpt lat="50.365321934223175048828125" lon="5.9237459488213062286376953125">
        <ele>336</ele>
        <time>2025-04-29T21:21:45.000Z</time>
        <extensions>
          <ns3:TrackPointExtension/>
        </extensions>
      </trkpt>
      <trkpt lat="50.3653599880635738372802734375" lon="5.92381694354116916656494140625">
        <ele>335.399993896484375</ele>
        <time>2025-04-29T21:21:48.000Z</time>
        <extensions>
          <ns3:TrackPointExtension/>
        </extensions>
      </trkpt>
      <trkpt lat="50.36545797251164913177490234375" lon="5.92384192161262035369873046875">
        <ele>334.20001220703125</ele>
        <time>2025-04-29T21:21:51.000Z</time>
        <extensions>
          <ns3:TrackPointExtension/>
        </extensions>
      </trkpt>
      <trkpt lat="50.36554698832333087921142578125" lon="5.92378894798457622528076171875">
        <ele>333.399993896484375</ele>
        <time>2025-04-29T21:21:54.000Z</time>
        <extensions>
          <ns3:TrackPointExtension/>
        </extensions>
      </trkpt>
      <trkpt lat="50.36565394140779972076416015625" lon="5.92364997602999210357666015625">
        <ele>332.399993896484375</ele>
        <time>2025-04-29T21:21:57.000Z</time>
        <extensions>
          <ns3:TrackPointExtension/>
        </extensions>
      </trkpt>
      <trkpt lat="50.3660099208354949951171875" lon="5.92296995222568511962890625">
        <ele>333.399993896484375</ele>
        <time>2025-04-29T21:22:00.000Z</time>
        <extensions>
          <ns3:TrackPointExtension/>
        </extensions>
      </trkpt>
      <trkpt lat="50.36612592637538909912109375" lon="5.92284698970615863800048828125">
        <ele>332.20001220703125</ele>
        <time>2025-04-29T21:22:03.000Z</time>
        <extensions>
          <ns3:TrackPointExtension/>
        </extensions>
      </trkpt>
      <trkpt lat="50.366240926086902618408203125" lon="5.9227649308741092681884765625">
        <ele>330.399993896484375</ele>
        <time>2025-04-29T21:22:06.000Z</time>
        <extensions>
          <ns3:TrackPointExtension/>
        </extensions>
      </trkpt>
      <trkpt lat="50.36666697822511196136474609375" lon="5.922620929777622222900390625">
        <ele>326.20001220703125</ele>
        <time>2025-04-29T21:22:09.000Z</time>
        <extensions>
          <ns3:TrackPointExtension/>
        </extensions>
      </trkpt>
      <trkpt lat="50.3669049404561519622802734375" lon="5.92249092645943164825439453125">
        <ele>326.600006103515625</ele>
        <time>2025-04-29T21:22:12.000Z</time>
        <extensions>
          <ns3:TrackPointExtension/>
        </extensions>
      </trkpt>
      <trkpt lat="50.36738597787916660308837890625" lon="5.92208691872656345367431640625">
        <ele>329</ele>
        <time>2025-04-29T21:22:15.000Z</time>
        <extensions>
          <ns3:TrackPointExtension/>
        </extensions>
      </trkpt>
      <trkpt lat="50.3675709664821624755859375" lon="5.92195398174226284027099609375">
        <ele>328.20001220703125</ele>
        <time>2025-04-29T21:22:18.000Z</time>
        <extensions>
          <ns3:TrackPointExtension/>
        </extensions>
      </trkpt>
      <trkpt lat="50.3684569336473941802978515625" lon="5.9215049631893634796142578125">
        <ele>331.20001220703125</ele>
        <time>2025-04-29T21:22:21.000Z</time>
        <extensions>
          <ns3:TrackPointExtension/>
        </extensions>
      </trkpt>
      <trkpt lat="50.368949957191944122314453125" lon="5.92129197902977466583251953125">
        <ele>331.79998779296875</ele>
        <time>2025-04-29T21:22:25.000Z</time>
        <extensions>
          <ns3:TrackPointExtension/>
        </extensions>
      </trkpt>
      <trkpt lat="50.3694929368793964385986328125" lon="5.92109299264848232269287109375">
        <ele>331.20001220703125</ele>
        <time>2025-04-29T21:22:28.000Z</time>
        <extensions>
          <ns3:TrackPointExtension/>
        </extensions>
      </trkpt>
      <trkpt lat="50.36965697072446346282958984375" lon="5.92099693603813648223876953125">
        <ele>332.399993896484375</ele>
        <time>2025-04-29T21:22:31.000Z</time>
        <extensions>
          <ns3:TrackPointExtension/>
        </extensions>
      </trkpt>
      <trkpt lat="50.3697879798710346221923828125" lon="5.9208699502050876617431640625">
        <ele>332.20001220703125</ele>
        <time>2025-04-29T21:22:34.000Z</time>
        <extensions>
          <ns3:TrackPointExtension/>
        </extensions>
      </trkpt>
      <trkpt lat="50.36999492906033992767333984375" lon="5.92061991803348064422607421875">
        <ele>332.79998779296875</ele>
        <time>2025-04-29T21:22:37.000Z</time>
        <extensions>
          <ns3:TrackPointExtension/>
        </extensions>
      </trkpt>
      <trkpt lat="50.37025895901024341583251953125" lon="5.92027894221246242523193359375">
        <ele>335</ele>
        <time>2025-04-29T21:22:40.000Z</time>
        <extensions>
          <ns3:TrackPointExtension/>
        </extensions>
      </trkpt>
      <trkpt lat="50.370386950671672821044921875" lon="5.92008196748793125152587890625">
        <ele>337.20001220703125</ele>
        <time>2025-04-29T21:22:43.000Z</time>
        <extensions>
          <ns3:TrackPointExtension/>
        </extensions>
      </trkpt>
      <trkpt lat="50.37049197591841220855712890625" lon="5.9198899380862712860107421875">
        <ele>338</ele>
        <time>2025-04-29T21:22:46.000Z</time>
        <extensions>
          <ns3:TrackPointExtension/>
        </extensions>
      </trkpt>
      <trkpt lat="50.370622985064983367919921875" lon="5.91956798918545246124267578125">
        <ele>338.79998779296875</ele>
        <time>2025-04-29T21:22:49.000Z</time>
        <extensions>
          <ns3:TrackPointExtension/>
        </extensions>
      </trkpt>
      <trkpt lat="50.3707039542496204376220703125" lon="5.91930295340716838836669921875">
        <ele>340.399993896484375</ele>
        <time>2025-04-29T21:22:52.000Z</time>
        <extensions>
          <ns3:TrackPointExtension/>
        </extensions>
      </trkpt>
      <trkpt lat="50.370785929262638092041015625" lon="5.91913799755275249481201171875">
        <ele>342.600006103515625</ele>
        <time>2025-04-29T21:22:55.000Z</time>
        <extensions>
          <ns3:TrackPointExtension/>
        </extensions>
      </trkpt>
      <trkpt lat="50.37100293673574924468994140625" lon="5.91881294734776020050048828125">
        <ele>344.600006103515625</ele>
        <time>2025-04-29T21:22:58.000Z</time>
        <extensions>
          <ns3:TrackPointExtension/>
        </extensions>
      </trkpt>
      <trkpt lat="50.3711649589240550994873046875" lon="5.91859392821788787841796875">
        <ele>344.600006103515625</ele>
        <time>2025-04-29T21:23:02.000Z</time>
        <extensions>
          <ns3:TrackPointExtension/>
        </extensions>
      </trkpt>
      <trkpt lat="50.3713409788906574249267578125" lon="5.91841296292841434478759765625">
        <ele>344</ele>
        <time>2025-04-29T21:23:05.000Z</time>
        <extensions>
          <ns3:TrackPointExtension/>
        </extensions>
      </trkpt>
      <trkpt lat="50.37151892669498920440673828125" lon="5.9182789362967014312744140625">
        <ele>344.600006103515625</ele>
        <time>2025-04-29T21:23:08.000Z</time>
        <extensions>
          <ns3:TrackPointExtension/>
        </extensions>
      </trkpt>
      <trkpt lat="50.3716799430549144744873046875" lon="5.918194949626922607421875">
        <ele>345.20001220703125</ele>
        <time>2025-04-29T21:23:11.000Z</time>
        <extensions>
          <ns3:TrackPointExtension/>
        </extensions>
      </trkpt>
      <trkpt lat="50.3718529455363750457763671875" lon="5.9181399643421173095703125">
        <ele>346.600006103515625</ele>
        <time>2025-04-29T21:23:14.000Z</time>
        <extensions>
          <ns3:TrackPointExtension/>
        </extensions>
      </trkpt>
      <trkpt lat="50.37255794741213321685791015625" lon="5.91801398433744907379150390625">
        <ele>344.399993896484375</ele>
        <time>2025-04-29T21:23:17.000Z</time>
        <extensions>
          <ns3:TrackPointExtension/>
        </extensions>
      </trkpt>
      <trkpt lat="50.37388798780739307403564453125" lon="5.9181629307568073272705078125">
        <ele>343.79998779296875</ele>
        <time>2025-04-29T21:23:20.000Z</time>
        <extensions>
          <ns3:TrackPointExtension/>
        </extensions>
      </trkpt>
      <trkpt lat="50.37493991665542125701904296875" lon="5.9181399643421173095703125">
        <ele>343.20001220703125</ele>
        <time>2025-04-29T21:23:23.000Z</time>
        <extensions>
          <ns3:TrackPointExtension/>
        </extensions>
      </trkpt>
      <trkpt lat="50.37522892467677593231201171875" lon="5.91824792325496673583984375">
        <ele>345</ele>
        <time>2025-04-29T21:23:26.000Z</time>
        <extensions>
          <ns3:TrackPointExtension/>
        </extensions>
      </trkpt>
      <trkpt lat="50.3758889995515346527099609375" lon="5.91855796985328197479248046875">
        <ele>350.20001220703125</ele>
        <time>2025-04-29T21:23:29.000Z</time>
        <extensions>
          <ns3:TrackPointExtension/>
        </extensions>
      </trkpt>
      <trkpt lat="50.37670296616852283477783203125" lon="5.91925098560750484466552734375">
        <ele>342.79998779296875</ele>
        <time>2025-04-29T21:23:32.000Z</time>
        <extensions>
          <ns3:TrackPointExtension/>
        </extensions>
      </trkpt>
      <trkpt lat="50.3769179619848728179931640625" lon="5.91964895837008953094482421875">
        <ele>342.399993896484375</ele>
        <time>2025-04-29T21:23:35.000Z</time>
        <extensions>
          <ns3:TrackPointExtension/>
        </extensions>
      </trkpt>
      <trkpt lat="50.37801892496645450592041015625" lon="5.92192296870052814483642578125">
        <ele>344</ele>
        <time>2025-04-29T21:23:38.000Z</time>
        <extensions>
          <ns3:TrackPointExtension/>
        </extensions>
      </trkpt>
      <trkpt lat="50.3782989643514156341552734375" lon="5.9223119728267192840576171875">
        <ele>343</ele>
        <time>2025-04-29T21:23:42.000Z</time>
        <extensions>
          <ns3:TrackPointExtension/>
        </extensions>
      </trkpt>
      <trkpt lat="50.378556959331035614013671875" lon="5.92260492034256458282470703125">
        <ele>342.20001220703125</ele>
        <time>2025-04-29T21:23:45.000Z</time>
        <extensions>
          <ns3:TrackPointExtension/>
        </extensions>
      </trkpt>
      <trkpt lat="50.38170193322002887725830078125" lon="5.92538796365261077880859375">
        <ele>342.20001220703125</ele>
        <time>2025-04-29T21:23:48.000Z</time>
        <extensions>
          <ns3:TrackPointExtension/>
        </extensions>
      </trkpt>
      <trkpt lat="50.38216193206608295440673828125" lon="5.92601291835308074951171875">
        <ele>342.399993896484375</ele>
        <time>2025-04-29T21:23:51.000Z</time>
        <extensions>
          <ns3:TrackPointExtension/>
        </extensions>
      </trkpt>
      <trkpt lat="50.38305393420159816741943359375" lon="5.92773598618805408477783203125">
        <ele>342.20001220703125</ele>
        <time>2025-04-29T21:23:54.000Z</time>
        <extensions>
          <ns3:TrackPointExtension/>
        </extensions>
      </trkpt>
      <trkpt lat="50.383394993841648101806640625" lon="5.92850293032824993133544921875">
        <ele>336.600006103515625</ele>
        <time>2025-04-29T21:23:57.000Z</time>
        <extensions>
          <ns3:TrackPointExtension/>
        </extensions>
      </trkpt>
      <trkpt lat="50.383504964411258697509765625" lon="5.9286319278180599212646484375">
        <ele>333.79998779296875</ele>
        <time>2025-04-29T21:24:00.000Z</time>
        <extensions>
          <ns3:TrackPointExtension/>
        </extensions>
      </trkpt>
      <trkpt lat="50.38372398354113101959228515625" lon="5.92878992669284343719482421875">
        <ele>328.79998779296875</ele>
        <time>2025-04-29T21:24:03.000Z</time>
        <extensions>
          <ns3:TrackPointExtension/>
        </extensions>
      </trkpt>
      <trkpt lat="50.38383697159588336944580078125" lon="5.92889897525310516357421875">
        <ele>326.399993896484375</ele>
        <time>2025-04-29T21:24:06.000Z</time>
        <extensions>
          <ns3:TrackPointExtension/>
        </extensions>
      </trkpt>
      <trkpt lat="50.38400192745029926300048828125" lon="5.92925495468080043792724609375">
        <ele>323.399993896484375</ele>
        <time>2025-04-29T21:24:09.000Z</time>
        <extensions>
          <ns3:TrackPointExtension/>
        </extensions>
      </trkpt>
      <trkpt lat="50.38417895324528217315673828125" lon="5.92968896962702274322509765625">
        <ele>317.399993896484375</ele>
        <time>2025-04-29T21:24:12.000Z</time>
        <extensions>
          <ns3:TrackPointExtension/>
        </extensions>
      </trkpt>
      <trkpt lat="50.38430593907833099365234375" lon="5.93020998872816562652587890625">
        <ele>311.600006103515625</ele>
        <time>2025-04-29T21:24:15.000Z</time>
        <extensions>
          <ns3:TrackPointExtension/>
        </extensions>
      </trkpt>
      <trkpt lat="50.3844549693167209625244140625" lon="5.930564962327480316162109375">
        <ele>309.79998779296875</ele>
        <time>2025-04-29T21:24:19.000Z</time>
        <extensions>
          <ns3:TrackPointExtension/>
        </extensions>
      </trkpt>
      <trkpt lat="50.38472595624625682830810546875" lon="5.930971987545490264892578125">
        <ele>307.600006103515625</ele>
        <time>2025-04-29T21:24:22.000Z</time>
        <extensions>
          <ns3:TrackPointExtension/>
        </extensions>
      </trkpt>
      <trkpt lat="50.38480893708765506744384765625" lon="5.931020937860012054443359375">
        <ele>306.600006103515625</ele>
        <time>2025-04-29T21:24:25.000Z</time>
        <extensions>
          <ns3:TrackPointExtension/>
        </extensions>
      </trkpt>
      <trkpt lat="50.38489292375743389129638671875" lon="5.931020937860012054443359375">
        <ele>304.79998779296875</ele>
        <time>2025-04-29T21:24:28.000Z</time>
        <extensions>
          <ns3:TrackPointExtension/>
        </extensions>
      </trkpt>
      <trkpt lat="50.3853179700672626495361328125" lon="5.93079395592212677001953125">
        <ele>296.79998779296875</ele>
        <time>2025-04-29T21:24:31.000Z</time>
        <extensions>
          <ns3:TrackPointExtension/>
        </extensions>
      </trkpt>
      <trkpt lat="50.38541293703019618988037109375" lon="5.9307689778506755828857421875">
        <ele>295.79998779296875</ele>
        <time>2025-04-29T21:24:34.000Z</time>
        <extensions>
          <ns3:TrackPointExtension/>
        </extensions>
      </trkpt>
      <trkpt lat="50.38553799502551555633544921875" lon="5.93078096397221088409423828125">
        <ele>295</ele>
        <time>2025-04-29T21:24:37.000Z</time>
        <extensions>
          <ns3:TrackPointExtension/>
        </extensions>
      </trkpt>
      <trkpt lat="50.38565299473702907562255859375" lon="5.9308809600770473480224609375">
        <ele>294.20001220703125</ele>
        <time>2025-04-29T21:24:40.000Z</time>
        <extensions>
          <ns3:TrackPointExtension/>
        </extensions>
      </trkpt>
      <trkpt lat="50.38575592450797557830810546875" lon="5.931024961173534393310546875">
        <ele>294.399993896484375</ele>
        <time>2025-04-29T21:24:43.000Z</time>
        <extensions>
          <ns3:TrackPointExtension/>
        </extensions>
      </trkpt>
      <trkpt lat="50.386148951947689056396484375" lon="5.9315639175474643707275390625">
        <ele>291.600006103515625</ele>
        <time>2025-04-29T21:24:46.000Z</time>
        <extensions>
          <ns3:TrackPointExtension/>
        </extensions>
      </trkpt>
      <trkpt lat="50.386328995227813720703125" lon="5.93173298053443431854248046875">
        <ele>291.20001220703125</ele>
        <time>2025-04-29T21:24:49.000Z</time>
        <extensions>
          <ns3:TrackPointExtension/>
        </extensions>
      </trkpt>
      <trkpt lat="50.38662797771394252777099609375" lon="5.93184697441756725311279296875">
        <ele>292</ele>
        <time>2025-04-29T21:24:52.000Z</time>
        <extensions>
          <ns3:TrackPointExtension/>
        </extensions>
      </trkpt>
      <trkpt lat="50.3870969451963901519775390625" lon="5.9319129399955272674560546875">
        <ele>292.79998779296875</ele>
        <time>2025-04-29T21:24:55.000Z</time>
        <extensions>
          <ns3:TrackPointExtension/>
        </extensions>
      </trkpt>
      <trkpt lat="50.3873879648745059967041015625" lon="5.931885950267314910888671875">
        <ele>291</ele>
        <time>2025-04-29T21:24:59.000Z</time>
        <extensions>
          <ns3:TrackPointExtension/>
        </extensions>
      </trkpt>
      <trkpt lat="50.38869394920766353607177734375" lon="5.93163591809570789337158203125">
        <ele>288.20001220703125</ele>
        <time>2025-04-29T21:25:02.000Z</time>
        <extensions>
          <ns3:TrackPointExtension/>
        </extensions>
      </trkpt>
      <trkpt lat="50.38921697996556758880615234375" lon="5.93167095445096492767333984375">
        <ele>289.20001220703125</ele>
        <time>2025-04-29T21:25:05.000Z</time>
        <extensions>
          <ns3:TrackPointExtension/>
        </extensions>
      </trkpt>
      <trkpt lat="50.3900259174406528472900390625" lon="5.931771956384181976318359375">
        <ele>289.399993896484375</ele>
        <time>2025-04-29T21:25:08.000Z</time>
        <extensions>
          <ns3:TrackPointExtension/>
        </extensions>
      </trkpt>
      <trkpt lat="50.3901519812643527984619140625" lon="5.93175393529236316680908203125">
        <ele>288.399993896484375</ele>
        <time>2025-04-29T21:25:11.000Z</time>
        <extensions>
          <ns3:TrackPointExtension/>
        </extensions>
      </trkpt>
      <trkpt lat="50.39047493599355220794677734375" lon="5.9318069927394390106201171875">
        <ele>283.399993896484375</ele>
        <time>2025-04-29T21:25:14.000Z</time>
        <extensions>
          <ns3:TrackPointExtension/>
        </extensions>
      </trkpt>
      <trkpt lat="50.3907829709351062774658203125" lon="5.93192492611706256866455078125">
        <ele>278.399993896484375</ele>
        <time>2025-04-29T21:25:17.000Z</time>
        <extensions>
          <ns3:TrackPointExtension/>
        </extensions>
      </trkpt>
      <trkpt lat="50.39103199727833271026611328125" lon="5.93208099715411663055419921875">
        <ele>277.399993896484375</ele>
        <time>2025-04-29T21:25:20.000Z</time>
        <extensions>
          <ns3:TrackPointExtension/>
        </extensions>
      </trkpt>
      <trkpt lat="50.39125696755945682525634765625" lon="5.93227696605026721954345703125">
        <ele>277.79998779296875</ele>
        <time>2025-04-29T21:25:23.000Z</time>
        <extensions>
          <ns3:TrackPointExtension/>
        </extensions>
      </trkpt>
      <trkpt lat="50.391379930078983306884765625" lon="5.93235592357814311981201171875">
        <ele>277.79998779296875</ele>
        <time>2025-04-29T21:25:26.000Z</time>
        <extensions>
          <ns3:TrackPointExtension/>
        </extensions>
      </trkpt>
      <trkpt lat="50.3915239311754703521728515625" lon="5.93250093050301074981689453125">
        <ele>277.399993896484375</ele>
        <time>2025-04-29T21:25:29.000Z</time>
        <extensions>
          <ns3:TrackPointExtension/>
        </extensions>
      </trkpt>
      <trkpt lat="50.391446985304355621337890625" lon="5.932748951017856597900390625">
        <ele>279</ele>
        <time>2025-04-29T21:25:36.000Z</time>
        <extensions>
          <ns3:TrackPointExtension/>
        </extensions>
      </trkpt>
      <trkpt lat="50.39142393507063388824462890625" lon="5.9328969754278659820556640625">
        <ele>280.20001220703125</ele>
        <time>2025-04-29T21:25:43.000Z</time>
        <extensions>
          <ns3:TrackPointExtension/>
        </extensions>
      </trkpt>
      <trkpt lat="50.3915299661457538604736328125" lon="5.934069938957691192626953125">
        <ele>283.600006103515625</ele>
        <time>2025-04-29T21:25:50.000Z</time>
        <extensions>
          <ns3:TrackPointExtension/>
        </extensions>
      </trkpt>
      <trkpt lat="50.3915279544889926910400390625" lon="5.93466597609221935272216796875">
        <ele>285.600006103515625</ele>
        <time>2025-04-29T21:25:56.000Z</time>
        <extensions>
          <ns3:TrackPointExtension/>
        </extensions>
      </trkpt>
      <trkpt lat="50.39148998446762561798095703125" lon="5.9350239671766757965087890625">
        <ele>288.20001220703125</ele>
        <time>2025-04-29T21:26:03.000Z</time>
        <extensions>
          <ns3:TrackPointExtension/>
        </extensions>
      </trkpt>
      <trkpt lat="50.391157977283000946044921875" lon="5.93722295947372913360595703125">
        <ele>303.79998779296875</ele>
        <time>2025-04-29T21:26:10.000Z</time>
        <extensions>
          <ns3:TrackPointExtension/>
        </extensions>
      </trkpt>
      <trkpt lat="50.3909839689731597900390625" lon="5.9385839290916919708251953125">
        <ele>313.399993896484375</ele>
        <time>2025-04-29T21:26:16.000Z</time>
        <extensions>
          <ns3:TrackPointExtension/>
        </extensions>
      </trkpt>
      <trkpt lat="50.3909489326179027557373046875" lon="5.938734970986843109130859375">
        <ele>315</ele>
        <time>2025-04-29T21:26:23.000Z</time>
        <extensions>
          <ns3:TrackPointExtension/>
        </extensions>
      </trkpt>
      <trkpt lat="50.390927977859973907470703125" lon="5.9389579296112060546875">
        <ele>316.79998779296875</ele>
        <time>2025-04-29T21:26:28.000Z</time>
        <extensions>
          <ns3:TrackPointExtension/>
        </extensions>
      </trkpt>
      <trkpt lat="50.3906639479100704193115234375" lon="5.94003793783485889434814453125">
        <ele>323.20001220703125</ele>
        <time>2025-04-29T21:26:33.000Z</time>
        <extensions>
          <ns3:TrackPointExtension/>
        </extensions>
      </trkpt>
      <trkpt lat="50.39048499427735805511474609375" lon="5.94069994054734706878662109375">
        <ele>330.600006103515625</ele>
        <time>2025-04-29T21:26:38.000Z</time>
        <extensions>
          <ns3:TrackPointExtension/>
        </extensions>
      </trkpt>
      <trkpt lat="50.3904309310019016265869140625" lon="5.9410649724304676055908203125">
        <ele>332.399993896484375</ele>
        <time>2025-04-29T21:26:43.000Z</time>
        <extensions>
          <ns3:TrackPointExtension/>
        </extensions>
      </trkpt>
      <trkpt lat="50.39042296819388866424560546875" lon="5.94138993881642818450927734375">
        <ele>333</ele>
        <time>2025-04-29T21:26:48.000Z</time>
        <extensions>
          <ns3:TrackPointExtension/>
        </extensions>
      </trkpt>
      <trkpt lat="50.39045297540724277496337890625" lon="5.942066945135593414306640625">
        <ele>336</ele>
        <time>2025-04-29T21:26:53.000Z</time>
        <extensions>
          <ns3:TrackPointExtension/>
        </extensions>
      </trkpt>
      <trkpt lat="50.3904359601438045501708984375" lon="5.9427919797599315643310546875">
        <ele>337.20001220703125</ele>
        <time>2025-04-29T21:26:58.000Z</time>
        <extensions>
          <ns3:TrackPointExtension/>
        </extensions>
      </trkpt>
      <trkpt lat="50.390467979013919830322265625" lon="5.94363595359027385711669921875">
        <ele>338.600006103515625</ele>
        <time>2025-04-29T21:27:03.000Z</time>
        <extensions>
          <ns3:TrackPointExtension/>
        </extensions>
      </trkpt>
      <trkpt lat="50.39051198400557041168212890625" lon="5.944376997649669647216796875">
        <ele>341</ele>
        <time>2025-04-29T21:27:08.000Z</time>
        <extensions>
          <ns3:TrackPointExtension/>
        </extensions>
      </trkpt>
      <trkpt lat="50.39053796790540218353271484375" lon="5.94453399069607257843017578125">
        <ele>341.399993896484375</ele>
        <time>2025-04-29T21:27:13.000Z</time>
        <extensions>
          <ns3:TrackPointExtension/>
        </extensions>
      </trkpt>
      <trkpt lat="50.3904979862272739410400390625" lon="5.9447419457137584686279296875">
        <ele>344.600006103515625</ele>
        <time>2025-04-29T21:27:20.000Z</time>
        <extensions>
          <ns3:TrackPointExtension/>
        </extensions>
      </trkpt>
      <trkpt lat="50.3904139995574951171875" lon="5.9474449418485164642333984375">
        <ele>368.20001220703125</ele>
        <time>2025-04-29T21:27:26.000Z</time>
        <extensions>
          <ns3:TrackPointExtension/>
        </extensions>
      </trkpt>
      <trkpt lat="50.390469990670680999755859375" lon="5.9479609318077564239501953125">
        <ele>374.600006103515625</ele>
        <time>2025-04-29T21:27:33.000Z</time>
        <extensions>
          <ns3:TrackPointExtension/>
        </extensions>
      </trkpt>
      <trkpt lat="50.39045297540724277496337890625" lon="5.94806897453963756561279296875">
        <ele>375.399993896484375</ele>
        <time>2025-04-29T21:27:39.000Z</time>
        <extensions>
          <ns3:TrackPointExtension/>
        </extensions>
      </trkpt>
      <trkpt lat="50.39042296819388866424560546875" lon="5.9481309168040752410888671875">
        <ele>376.20001220703125</ele>
        <time>2025-04-29T21:27:46.000Z</time>
        <extensions>
          <ns3:TrackPointExtension/>
        </extensions>
      </trkpt>
      <trkpt lat="50.39027192629873752593994140625" lon="5.94834792427718639373779296875">
        <ele>379</ele>
        <time>2025-04-29T21:27:52.000Z</time>
        <extensions>
          <ns3:TrackPointExtension/>
        </extensions>
      </trkpt>
      <trkpt lat="50.3902039490640163421630859375" lon="5.94849393703043460845947265625">
        <ele>381.20001220703125</ele>
        <time>2025-04-29T21:27:59.000Z</time>
        <extensions>
          <ns3:TrackPointExtension/>
        </extensions>
      </trkpt>
      <trkpt lat="50.3902559168636798858642578125" lon="5.94881194643676280975341796875">
        <ele>385.20001220703125</ele>
        <time>2025-04-29T21:28:02.000Z</time>
        <extensions>
          <ns3:TrackPointExtension/>
        </extensions>
      </trkpt>
      <trkpt lat="50.3903849981725215911865234375" lon="5.9492819197475910186767578125">
        <ele>389.79998779296875</ele>
        <time>2025-04-29T21:28:06.000Z</time>
        <extensions>
          <ns3:TrackPointExtension/>
        </extensions>
      </trkpt>
      <trkpt lat="50.3904139995574951171875" lon="5.949607975780963897705078125">
        <ele>394.20001220703125</ele>
        <time>2025-04-29T21:28:09.000Z</time>
        <extensions>
          <ns3:TrackPointExtension/>
        </extensions>
      </trkpt>
      <trkpt lat="50.3903789632022380828857421875" lon="5.949780978262424468994140625">
        <ele>396.79998779296875</ele>
        <time>2025-04-29T21:28:13.000Z</time>
        <extensions>
          <ns3:TrackPointExtension/>
        </extensions>
      </trkpt>
      <trkpt lat="50.39028198458254337310791015625" lon="5.9499509632587432861328125">
        <ele>400.600006103515625</ele>
        <time>2025-04-29T21:28:16.000Z</time>
        <extensions>
          <ns3:TrackPointExtension/>
        </extensions>
      </trkpt>
      <trkpt lat="50.39016899652779102325439453125" lon="5.95004391856491565704345703125">
        <ele>403.600006103515625</ele>
        <time>2025-04-29T21:28:20.000Z</time>
        <extensions>
          <ns3:TrackPointExtension/>
        </extensions>
      </trkpt>
      <trkpt lat="50.38999197073280811309814453125" lon="5.950124971568584442138671875">
        <ele>408.399993896484375</ele>
        <time>2025-04-29T21:28:23.000Z</time>
        <extensions>
          <ns3:TrackPointExtension/>
        </extensions>
      </trkpt>
      <trkpt lat="50.3898549266159534454345703125" lon="5.95022999681532382965087890625">
        <ele>408.79998779296875</ele>
        <time>2025-04-29T21:28:26.000Z</time>
        <extensions>
          <ns3:TrackPointExtension/>
        </extensions>
      </trkpt>
      <trkpt lat="50.38953096605837345123291015625" lon="5.9507309831678867340087890625">
        <ele>405.600006103515625</ele>
        <time>2025-04-29T21:28:30.000Z</time>
        <extensions>
          <ns3:TrackPointExtension/>
        </extensions>
      </trkpt>
      <trkpt lat="50.3890769183635711669921875" lon="5.95151997171342372894287109375">
        <ele>394</ele>
        <time>2025-04-29T21:28:33.000Z</time>
        <extensions>
          <ns3:TrackPointExtension/>
        </extensions>
      </trkpt>
      <trkpt lat="50.38862697780132293701171875" lon="5.952186919748783111572265625">
        <ele>388.20001220703125</ele>
        <time>2025-04-29T21:28:37.000Z</time>
        <extensions>
          <ns3:TrackPointExtension/>
        </extensions>
      </trkpt>
      <trkpt lat="50.3884169273078441619873046875" lon="5.9525339305400848388671875">
        <ele>389.20001220703125</ele>
        <time>2025-04-29T21:28:40.000Z</time>
        <extensions>
          <ns3:TrackPointExtension/>
        </extensions>
      </trkpt>
      <trkpt lat="50.38823093287646770477294921875" lon="5.95292394049465656280517578125">
        <ele>389.600006103515625</ele>
        <time>2025-04-29T21:28:44.000Z</time>
        <extensions>
          <ns3:TrackPointExtension/>
        </extensions>
      </trkpt>
      <trkpt lat="50.38792298175394535064697265625" lon="5.9539459459483623504638671875">
        <ele>384.79998779296875</ele>
        <time>2025-04-29T21:28:47.000Z</time>
        <extensions>
          <ns3:TrackPointExtension/>
        </extensions>
      </trkpt>
      <trkpt lat="50.3878999315202236175537109375" lon="5.9541149251163005828857421875">
        <ele>383.600006103515625</ele>
        <time>2025-04-29T21:28:50.000Z</time>
        <extensions>
          <ns3:TrackPointExtension/>
        </extensions>
      </trkpt>
      <trkpt lat="50.3878999315202236175537109375" lon="5.95424694009125232696533203125">
        <ele>382.20001220703125</ele>
        <time>2025-04-29T21:28:54.000Z</time>
        <extensions>
          <ns3:TrackPointExtension/>
        </extensions>
      </trkpt>
      <trkpt lat="50.38774495013058185577392578125" lon="5.95465195365250110626220703125">
        <ele>381.20001220703125</ele>
        <time>2025-04-29T21:28:58.000Z</time>
        <extensions>
          <ns3:TrackPointExtension/>
        </extensions>
      </trkpt>
      <trkpt lat="50.3875539265573024749755859375" lon="5.95502997748553752899169921875">
        <ele>380.399993896484375</ele>
        <time>2025-04-29T21:29:02.000Z</time>
        <extensions>
          <ns3:TrackPointExtension/>
        </extensions>
      </trkpt>
      <trkpt lat="50.38734496571123600006103515625" lon="5.95534899272024631500244140625">
        <ele>379</ele>
        <time>2025-04-29T21:29:05.000Z</time>
        <extensions>
          <ns3:TrackPointExtension/>
        </extensions>
      </trkpt>
      <trkpt lat="50.38713298738002777099609375" lon="5.95585693605244159698486328125">
        <ele>377.399993896484375</ele>
        <time>2025-04-29T21:29:09.000Z</time>
        <extensions>
          <ns3:TrackPointExtension/>
        </extensions>
      </trkpt>
      <trkpt lat="50.38651599548757076263427734375" lon="5.9575079195201396942138671875">
        <ele>380.20001220703125</ele>
        <time>2025-04-29T21:29:13.000Z</time>
        <extensions>
          <ns3:TrackPointExtension/>
        </extensions>
      </trkpt>
      <trkpt lat="50.3864109702408313751220703125" lon="5.95806992612779140472412109375">
        <ele>381.20001220703125</ele>
        <time>2025-04-29T21:29:17.000Z</time>
        <extensions>
          <ns3:TrackPointExtension/>
        </extensions>
      </trkpt>
      <trkpt lat="50.38639294914901256561279296875" lon="5.95836195163428783416748046875">
        <ele>381.399993896484375</ele>
        <time>2025-04-29T21:29:20.000Z</time>
        <extensions>
          <ns3:TrackPointExtension/>
        </extensions>
      </trkpt>
      <trkpt lat="50.386433936655521392822265625" lon="5.95888498239219188690185546875">
        <ele>379</ele>
        <time>2025-04-29T21:29:24.000Z</time>
        <extensions>
          <ns3:TrackPointExtension/>
        </extensions>
      </trkpt>
      <trkpt lat="50.386431924998760223388671875" lon="5.959205925464630126953125">
        <ele>379.20001220703125</ele>
        <time>2025-04-29T21:29:28.000Z</time>
        <extensions>
          <ns3:TrackPointExtension/>
        </extensions>
      </trkpt>
      <trkpt lat="50.38636696524918079376220703125" lon="5.95977899618446826934814453125">
        <ele>378.399993896484375</ele>
        <time>2025-04-29T21:29:32.000Z</time>
        <extensions>
          <ns3:TrackPointExtension/>
        </extensions>
      </trkpt>
      <trkpt lat="50.3862929530441761016845703125" lon="5.96025592647492885589599609375">
        <ele>379.79998779296875</ele>
        <time>2025-04-29T21:29:36.000Z</time>
        <extensions>
          <ns3:TrackPointExtension/>
        </extensions>
      </trkpt>
      <trkpt lat="50.3861849941313266754150390625" lon="5.96232793293893337249755859375">
        <ele>382.600006103515625</ele>
        <time>2025-04-29T21:29:39.000Z</time>
        <extensions>
          <ns3:TrackPointExtension/>
        </extensions>
      </trkpt>
      <trkpt lat="50.3861209563910961151123046875" lon="5.96281894482672214508056640625">
        <ele>382</ele>
        <time>2025-04-29T21:29:43.000Z</time>
        <extensions>
          <ns3:TrackPointExtension/>
        </extensions>
      </trkpt>
      <trkpt lat="50.3860059566795825958251953125" lon="5.96333392895758152008056640625">
        <ele>383.399993896484375</ele>
        <time>2025-04-29T21:29:47.000Z</time>
        <extensions>
          <ns3:TrackPointExtension/>
        </extensions>
      </trkpt>
      <trkpt lat="50.38587293587625026702880859375" lon="5.963816978037357330322265625">
        <ele>381.399993896484375</ele>
        <time>2025-04-29T21:29:51.000Z</time>
        <extensions>
          <ns3:TrackPointExtension/>
        </extensions>
      </trkpt>
      <trkpt lat="50.385636985301971435546875" lon="5.9644239954650402069091796875">
        <ele>379.79998779296875</ele>
        <time>2025-04-29T21:29:55.000Z</time>
        <extensions>
          <ns3:TrackPointExtension/>
        </extensions>
      </trkpt>
      <trkpt lat="50.38550497032701969146728515625" lon="5.9649349562823772430419921875">
        <ele>379</ele>
        <time>2025-04-29T21:29:58.000Z</time>
        <extensions>
          <ns3:TrackPointExtension/>
        </extensions>
      </trkpt>
      <trkpt lat="50.38532794453203678131103515625" lon="5.9652169235050678253173828125">
        <ele>380.20001220703125</ele>
        <time>2025-04-29T21:30:02.000Z</time>
        <extensions>
          <ns3:TrackPointExtension/>
        </extensions>
      </trkpt>
      <trkpt lat="50.385234989225864410400390625" lon="5.96547097899019718170166015625">
        <ele>379.600006103515625</ele>
        <time>2025-04-29T21:30:06.000Z</time>
        <extensions>
          <ns3:TrackPointExtension/>
        </extensions>
      </trkpt>
      <trkpt lat="50.38517992012202739715576171875" lon="5.96569594927132129669189453125">
        <ele>379</ele>
        <time>2025-04-29T21:30:10.000Z</time>
        <extensions>
          <ns3:TrackPointExtension/>
        </extensions>
      </trkpt>
      <trkpt lat="50.3851379267871379852294921875" lon="5.9662009589374065399169921875">
        <ele>378.399993896484375</ele>
        <time>2025-04-29T21:30:14.000Z</time>
        <extensions>
          <ns3:TrackPointExtension/>
        </extensions>
      </trkpt>
      <trkpt lat="50.3851099312305450439453125" lon="5.96701492555439472198486328125">
        <ele>377.20001220703125</ele>
        <time>2025-04-29T21:30:17.000Z</time>
        <extensions>
          <ns3:TrackPointExtension/>
        </extensions>
      </trkpt>
      <trkpt lat="50.3852049820125102996826171875" lon="5.9679799340665340423583984375">
        <ele>373</ele>
        <time>2025-04-29T21:30:21.000Z</time>
        <extensions>
          <ns3:TrackPointExtension/>
        </extensions>
      </trkpt>
      <trkpt lat="50.38527798838913440704345703125" lon="5.968131981790065765380859375">
        <ele>371</ele>
        <time>2025-04-29T21:30:25.000Z</time>
        <extensions>
          <ns3:TrackPointExtension/>
        </extensions>
      </trkpt>
      <trkpt lat="50.38535493426024913787841796875" lon="5.96819199621677398681640625">
        <ele>369.79998779296875</ele>
        <time>2025-04-29T21:30:29.000Z</time>
        <extensions>
          <ns3:TrackPointExtension/>
        </extensions>
      </trkpt>
      <trkpt lat="50.38550195284187793731689453125" lon="5.96822493709623813629150390625">
        <ele>367.79998779296875</ele>
        <time>2025-04-29T21:30:33.000Z</time>
        <extensions>
          <ns3:TrackPointExtension/>
        </extensions>
      </trkpt>
      <trkpt lat="50.3858279250562191009521484375" lon="5.96822292543947696685791015625">
        <ele>364.600006103515625</ele>
        <time>2025-04-29T21:30:36.000Z</time>
        <extensions>
          <ns3:TrackPointExtension/>
        </extensions>
      </trkpt>
      <trkpt lat="50.38587293587625026702880859375" lon="5.968245975673198699951171875">
        <ele>364</ele>
        <time>2025-04-29T21:30:40.000Z</time>
        <extensions>
          <ns3:TrackPointExtension/>
        </extensions>
      </trkpt>
      <trkpt lat="50.38592792116105556488037109375" lon="5.96836592070758342742919921875">
        <ele>362.79998779296875</ele>
        <time>2025-04-29T21:30:44.000Z</time>
        <extensions>
          <ns3:TrackPointExtension/>
        </extensions>
      </trkpt>
      <trkpt lat="50.385915935039520263671875" lon="5.96856893040239810943603515625">
        <ele>361.79998779296875</ele>
        <time>2025-04-29T21:30:48.000Z</time>
        <extensions>
          <ns3:TrackPointExtension/>
        </extensions>
      </trkpt>
      <trkpt lat="50.38579498417675495147705078125" lon="5.96928893588483333587646484375">
        <ele>361</ele>
        <time>2025-04-29T21:30:52.000Z</time>
        <extensions>
          <ns3:TrackPointExtension/>
        </extensions>
      </trkpt>
      <trkpt lat="50.3856919705867767333984375" lon="5.96958599053323268890380859375">
        <ele>360.79998779296875</ele>
        <time>2025-04-29T21:30:55.000Z</time>
        <extensions>
          <ns3:TrackPointExtension/>
        </extensions>
      </trkpt>
      <trkpt lat="50.3846219368278980255126953125" lon="5.97156194038689136505126953125">
        <ele>351.20001220703125</ele>
        <time>2025-04-29T21:30:59.000Z</time>
        <extensions>
          <ns3:TrackPointExtension/>
        </extensions>
      </trkpt>
      <trkpt lat="50.38446494378149509429931640625" lon="5.97176595591008663177490234375">
        <ele>350.79998779296875</ele>
        <time>2025-04-29T21:31:03.000Z</time>
        <extensions>
          <ns3:TrackPointExtension/>
        </extensions>
      </trkpt>
      <trkpt lat="50.38244892843067646026611328125" lon="5.97398699261248111724853515625">
        <ele>352.600006103515625</ele>
        <time>2025-04-29T21:31:07.000Z</time>
        <extensions>
          <ns3:TrackPointExtension/>
        </extensions>
      </trkpt>
      <trkpt lat="50.382346920669078826904296875" lon="5.974170975387096405029296875">
        <ele>354.20001220703125</ele>
        <time>2025-04-29T21:31:11.000Z</time>
        <extensions>
          <ns3:TrackPointExtension/>
        </extensions>
      </trkpt>
      <trkpt lat="50.3823289833962917327880859375" lon="5.974278934299945831298828125">
        <ele>354</ele>
        <time>2025-04-29T21:31:14.000Z</time>
        <extensions>
          <ns3:TrackPointExtension/>
        </extensions>
      </trkpt>
      <trkpt lat="50.38234298117458820343017578125" lon="5.9743669442832469940185546875">
        <ele>354.79998779296875</ele>
        <time>2025-04-29T21:31:18.000Z</time>
        <extensions>
          <ns3:TrackPointExtension/>
        </extensions>
      </trkpt>
      <trkpt lat="50.38236795924603939056396484375" lon="5.97446794621646404266357421875">
        <ele>356.20001220703125</ele>
        <time>2025-04-29T21:31:22.000Z</time>
        <extensions>
          <ns3:TrackPointExtension/>
        </extensions>
      </trkpt>
      <trkpt lat="50.38241095840930938720703125" lon="5.9745469875633716583251953125">
        <ele>356.79998779296875</ele>
        <time>2025-04-29T21:31:26.000Z</time>
        <extensions>
          <ns3:TrackPointExtension/>
        </extensions>
      </trkpt>
      <trkpt lat="50.3825499303638935089111328125" lon="5.9746629931032657623291015625">
        <ele>358.600006103515625</ele>
        <time>2025-04-29T21:31:30.000Z</time>
        <extensions>
          <ns3:TrackPointExtension/>
        </extensions>
      </trkpt>
      <trkpt lat="50.38317899219691753387451171875" lon="5.975029952824115753173828125">
        <ele>363.600006103515625</ele>
        <time>2025-04-29T21:31:33.000Z</time>
        <extensions>
          <ns3:TrackPointExtension/>
        </extensions>
      </trkpt>
      <trkpt lat="50.38331092335283756256103515625" lon="5.975088961422443389892578125">
        <ele>365</ele>
        <time>2025-04-29T21:31:37.000Z</time>
        <extensions>
          <ns3:TrackPointExtension/>
        </extensions>
      </trkpt>
      <trkpt lat="50.383449979126453399658203125" lon="5.97510597668588161468505859375">
        <ele>367</ele>
        <time>2025-04-29T21:31:41.000Z</time>
        <extensions>
          <ns3:TrackPointExtension/>
        </extensions>
      </trkpt>
      <trkpt lat="50.3835959918797016143798828125" lon="5.9750649891793727874755859375">
        <ele>367.20001220703125</ele>
        <time>2025-04-29T21:31:45.000Z</time>
        <extensions>
          <ns3:TrackPointExtension/>
        </extensions>
      </trkpt>
      <trkpt lat="50.38372599519789218902587890625" lon="5.9749759733676910400390625">
        <ele>366.20001220703125</ele>
        <time>2025-04-29T21:31:48.000Z</time>
        <extensions>
          <ns3:TrackPointExtension/>
        </extensions>
      </trkpt>
      <trkpt lat="50.3838229738175868988037109375" lon="5.9748809225857257843017578125">
        <ele>366</ele>
        <time>2025-04-29T21:31:52.000Z</time>
        <extensions>
          <ns3:TrackPointExtension/>
        </extensions>
      </trkpt>
      <trkpt lat="50.38397192023694515228271484375" lon="5.974679924547672271728515625">
        <ele>363.20001220703125</ele>
        <time>2025-04-29T21:31:56.000Z</time>
        <extensions>
          <ns3:TrackPointExtension/>
        </extensions>
      </trkpt>
      <trkpt lat="50.38423092104494571685791015625" lon="5.97444497980177402496337890625">
        <ele>361</ele>
        <time>2025-04-29T21:32:00.000Z</time>
        <extensions>
          <ns3:TrackPointExtension/>
        </extensions>
      </trkpt>
      <trkpt lat="50.38443694822490215301513671875" lon="5.97435797564685344696044921875">
        <ele>360.79998779296875</ele>
        <time>2025-04-29T21:32:04.000Z</time>
        <extensions>
          <ns3:TrackPointExtension/>
        </extensions>
      </trkpt>
      <trkpt lat="50.38452093489468097686767578125" lon="5.974337942898273468017578125">
        <ele>360.399993896484375</ele>
        <time>2025-04-29T21:32:07.000Z</time>
        <extensions>
          <ns3:TrackPointExtension/>
        </extensions>
      </trkpt>
      <trkpt lat="50.3845989704132080078125" lon="5.97434992901980876922607421875">
        <ele>360.600006103515625</ele>
        <time>2025-04-29T21:32:11.000Z</time>
        <extensions>
          <ns3:TrackPointExtension/>
        </extensions>
      </trkpt>
      <trkpt lat="50.38467097096145153045654296875" lon="5.97438295371830463409423828125">
        <ele>361</ele>
        <time>2025-04-29T21:32:15.000Z</time>
        <extensions>
          <ns3:TrackPointExtension/>
        </extensions>
      </trkpt>
      <trkpt lat="50.38472796790301799774169921875" lon="5.9744489192962646484375">
        <ele>361.399993896484375</ele>
        <time>2025-04-29T21:32:19.000Z</time>
        <extensions>
          <ns3:TrackPointExtension/>
        </extensions>
      </trkpt>
      <trkpt lat="50.38475797511637210845947265625" lon="5.97450197674334049224853515625">
        <ele>361.79998779296875</ele>
        <time>2025-04-29T21:32:23.000Z</time>
        <extensions>
          <ns3:TrackPointExtension/>
        </extensions>
      </trkpt>
      <trkpt lat="50.38477599620819091796875" lon="5.9745989553630352020263671875">
        <ele>362.600006103515625</ele>
        <time>2025-04-29T21:32:26.000Z</time>
        <extensions>
          <ns3:TrackPointExtension/>
        </extensions>
      </trkpt>
      <trkpt lat="50.38478094153106212615966796875" lon="5.9747749753296375274658203125">
        <ele>364.600006103515625</ele>
        <time>2025-04-29T21:32:30.000Z</time>
        <extensions>
          <ns3:TrackPointExtension/>
        </extensions>
      </trkpt>
      <trkpt lat="50.38472193293273448944091796875" lon="5.9755769558250904083251953125">
        <ele>374.79998779296875</ele>
        <time>2025-04-29T21:32:34.000Z</time>
        <extensions>
          <ns3:TrackPointExtension/>
        </extensions>
      </trkpt>
      <trkpt lat="50.38452696986496448516845703125" lon="5.97841297276318073272705078125">
        <ele>379.79998779296875</ele>
        <time>2025-04-29T21:32:38.000Z</time>
        <extensions>
          <ns3:TrackPointExtension/>
        </extensions>
      </trkpt>
      <trkpt lat="50.3844569809734821319580078125" lon="5.9789699502289295196533203125">
        <ele>382</ele>
        <time>2025-04-29T21:32:42.000Z</time>
        <extensions>
          <ns3:TrackPointExtension/>
        </extensions>
      </trkpt>
      <trkpt lat="50.38372398354113101959228515625" lon="5.98234794102609157562255859375">
        <ele>389</ele>
        <time>2025-04-29T21:32:45.000Z</time>
        <extensions>
          <ns3:TrackPointExtension/>
        </extensions>
      </trkpt>
      <trkpt lat="50.38363597355782985687255859375" lon="5.98267299123108386993408203125">
        <ele>388.79998779296875</ele>
        <time>2025-04-29T21:32:49.000Z</time>
        <extensions>
          <ns3:TrackPointExtension/>
        </extensions>
      </trkpt>
      <trkpt lat="50.3834699280560016632080078125" lon="5.9830869734287261962890625">
        <ele>389.600006103515625</ele>
        <time>2025-04-29T21:32:53.000Z</time>
        <extensions>
          <ns3:TrackPointExtension/>
        </extensions>
      </trkpt>
      <trkpt lat="50.38240299560129642486572265625" lon="5.9855219163000583648681640625">
        <ele>394</ele>
        <time>2025-04-29T21:32:57.000Z</time>
        <extensions>
          <ns3:TrackPointExtension/>
        </extensions>
      </trkpt>
      <trkpt lat="50.3822129778563976287841796875" lon="5.9858809970319271087646484375">
        <ele>395.600006103515625</ele>
        <time>2025-04-29T21:33:01.000Z</time>
        <extensions>
          <ns3:TrackPointExtension/>
        </extensions>
      </trkpt>
      <trkpt lat="50.38148199208080768585205078125" lon="5.98701096139848232269287109375">
        <ele>399</ele>
        <time>2025-04-29T21:33:04.000Z</time>
        <extensions>
          <ns3:TrackPointExtension/>
        </extensions>
      </trkpt>
      <trkpt lat="50.381323993206024169921875" lon="5.987286977469921112060546875">
        <ele>400</ele>
        <time>2025-04-29T21:33:08.000Z</time>
        <extensions>
          <ns3:TrackPointExtension/>
        </extensions>
      </trkpt>
      <trkpt lat="50.38124796934425830841064453125" lon="5.987457968294620513916015625">
        <ele>400.20001220703125</ele>
        <time>2025-04-29T21:33:12.000Z</time>
        <extensions>
          <ns3:TrackPointExtension/>
        </extensions>
      </trkpt>
      <trkpt lat="50.38114495575428009033203125" lon="5.98781093023717403411865234375">
        <ele>399.399993896484375</ele>
        <time>2025-04-29T21:33:16.000Z</time>
        <extensions>
          <ns3:TrackPointExtension/>
        </extensions>
      </trkpt>
      <trkpt lat="50.3811119310557842254638671875" lon="5.9879439510405063629150390625">
        <ele>399.600006103515625</ele>
        <time>2025-04-29T21:33:20.000Z</time>
        <extensions>
          <ns3:TrackPointExtension/>
        </extensions>
      </trkpt>
      <trkpt lat="50.38051597774028778076171875" lon="5.99290695972740650177001953125">
        <ele>392.20001220703125</ele>
        <time>2025-04-29T21:33:23.000Z</time>
        <extensions>
          <ns3:TrackPointExtension/>
        </extensions>
      </trkpt>
      <trkpt lat="50.38037893362343311309814453125" lon="5.99396894685924053192138671875">
        <ele>391.600006103515625</ele>
        <time>2025-04-29T21:33:27.000Z</time>
        <extensions>
          <ns3:TrackPointExtension/>
        </extensions>
      </trkpt>
      <trkpt lat="50.38030098192393779754638671875" lon="5.99470295011997222900390625">
        <ele>390.600006103515625</ele>
        <time>2025-04-29T21:33:31.000Z</time>
        <extensions>
          <ns3:TrackPointExtension/>
        </extensions>
      </trkpt>
      <trkpt lat="50.380280949175357818603515625" lon="5.99514995701611042022705078125">
        <ele>387.600006103515625</ele>
        <time>2025-04-29T21:33:35.000Z</time>
        <extensions>
          <ns3:TrackPointExtension/>
        </extensions>
      </trkpt>
      <trkpt lat="50.3803109563887119293212890625" lon="5.9954249672591686248779296875">
        <ele>384.399993896484375</ele>
        <time>2025-04-29T21:33:39.000Z</time>
        <extensions>
          <ns3:TrackPointExtension/>
        </extensions>
      </trkpt>
      <trkpt lat="50.3803669475018978118896484375" lon="5.99567097611725330352783203125">
        <ele>381.79998779296875</ele>
        <time>2025-04-29T21:33:42.000Z</time>
        <extensions>
          <ns3:TrackPointExtension/>
        </extensions>
      </trkpt>
      <trkpt lat="50.38041195832192897796630859375" lon="5.995796956121921539306640625">
        <ele>380.600006103515625</ele>
        <time>2025-04-29T21:33:46.000Z</time>
        <extensions>
          <ns3:TrackPointExtension/>
        </extensions>
      </trkpt>
      <trkpt lat="50.3807109408080577850341796875" lon="5.996366925537586212158203125">
        <ele>377.399993896484375</ele>
        <time>2025-04-29T21:33:50.000Z</time>
        <extensions>
          <ns3:TrackPointExtension/>
        </extensions>
      </trkpt>
      <trkpt lat="50.380851924419403076171875" lon="5.99670295603573322296142578125">
        <ele>376.20001220703125</ele>
        <time>2025-04-29T21:33:54.000Z</time>
        <extensions>
          <ns3:TrackPointExtension/>
        </extensions>
      </trkpt>
      <trkpt lat="50.38101294077932834625244140625" lon="5.99715993739664554595947265625">
        <ele>375</ele>
        <time>2025-04-29T21:33:58.000Z</time>
        <extensions>
          <ns3:TrackPointExtension/>
        </extensions>
      </trkpt>
      <trkpt lat="50.382008962333202362060546875" lon="5.9993959777057170867919921875">
        <ele>362.20001220703125</ele>
        <time>2025-04-29T21:34:01.000Z</time>
        <extensions>
          <ns3:TrackPointExtension/>
        </extensions>
      </trkpt>
      <trkpt lat="50.3825499303638935089111328125" lon="6.0006029717624187469482421875">
        <ele>359</ele>
        <time>2025-04-29T21:34:05.000Z</time>
        <extensions>
          <ns3:TrackPointExtension/>
        </extensions>
      </trkpt>
      <trkpt lat="50.38259292952716350555419921875" lon="6.0007199831306934356689453125">
        <ele>359.399993896484375</ele>
        <time>2025-04-29T21:34:09.000Z</time>
        <extensions>
          <ns3:TrackPointExtension/>
        </extensions>
      </trkpt>
      <trkpt lat="50.382753945887088775634765625" lon="6.00144694559276103973388671875">
        <ele>359.20001220703125</ele>
        <time>2025-04-29T21:34:13.000Z</time>
        <extensions>
          <ns3:TrackPointExtension/>
        </extensions>
      </trkpt>
      <trkpt lat="50.38306399248540401458740234375" lon="6.0053209774196147918701171875">
        <ele>343.600006103515625</ele>
        <time>2025-04-29T21:34:16.000Z</time>
        <extensions>
          <ns3:TrackPointExtension/>
        </extensions>
      </trkpt>
      <trkpt lat="50.38308494724333286285400390625" lon="6.00578692741692066192626953125">
        <ele>341.600006103515625</ele>
        <time>2025-04-29T21:34:20.000Z</time>
        <extensions>
          <ns3:TrackPointExtension/>
        </extensions>
      </trkpt>
      <trkpt lat="50.38302694447338581085205078125" lon="6.00650995038449764251708984375">
        <ele>339</ele>
        <time>2025-04-29T21:34:24.000Z</time>
        <extensions>
          <ns3:TrackPointExtension/>
        </extensions>
      </trkpt>
      <trkpt lat="50.38292099721729755401611328125" lon="6.0069849528372287750244140625">
        <ele>336.399993896484375</ele>
        <time>2025-04-29T21:34:28.000Z</time>
        <extensions>
          <ns3:TrackPointExtension/>
        </extensions>
      </trkpt>
      <trkpt lat="50.382244996726512908935546875" lon="6.00926198065280914306640625">
        <ele>328</ele>
        <time>2025-04-29T21:34:32.000Z</time>
        <extensions>
          <ns3:TrackPointExtension/>
        </extensions>
      </trkpt>
      <trkpt lat="50.38222596980631351470947265625" lon="6.00949994288384914398193359375">
        <ele>327.79998779296875</ele>
        <time>2025-04-29T21:34:35.000Z</time>
        <extensions>
          <ns3:TrackPointExtension/>
        </extensions>
      </trkpt>
      <trkpt lat="50.38223795592784881591796875" lon="6.00970295257866382598876953125">
        <ele>327.600006103515625</ele>
        <time>2025-04-29T21:34:39.000Z</time>
        <extensions>
          <ns3:TrackPointExtension/>
        </extensions>
      </trkpt>
      <trkpt lat="50.38233694620430469512939453125" lon="6.0101799666881561279296875">
        <ele>325.20001220703125</ele>
        <time>2025-04-29T21:34:43.000Z</time>
        <extensions>
          <ns3:TrackPointExtension/>
        </extensions>
      </trkpt>
      <trkpt lat="50.38239293731749057769775390625" lon="6.01036294363439083099365234375">
        <ele>323.399993896484375</ele>
        <time>2025-04-29T21:34:47.000Z</time>
        <extensions>
          <ns3:TrackPointExtension/>
        </extensions>
      </trkpt>
      <trkpt lat="50.3824949450790882110595703125" lon="6.01055991835892200469970703125">
        <ele>321.399993896484375</ele>
        <time>2025-04-29T21:34:51.000Z</time>
        <extensions>
          <ns3:TrackPointExtension/>
        </extensions>
      </trkpt>
      <trkpt lat="50.38260298781096935272216796875" lon="6.0106609202921390533447265625">
        <ele>320.399993896484375</ele>
        <time>2025-04-29T21:34:54.000Z</time>
        <extensions>
          <ns3:TrackPointExtension/>
        </extensions>
      </trkpt>
      <trkpt lat="50.38271899335086345672607421875" lon="6.01069696247577667236328125">
        <ele>320</ele>
        <time>2025-04-29T21:34:58.000Z</time>
        <extensions>
          <ns3:TrackPointExtension/>
        </extensions>
      </trkpt>
      <trkpt lat="50.383095927536487579345703125" lon="6.0106699727475643157958984375">
        <ele>318.600006103515625</ele>
        <time>2025-04-29T21:35:02.000Z</time>
        <extensions>
          <ns3:TrackPointExtension/>
        </extensions>
      </trkpt>
      <trkpt lat="50.38363094441592693328857421875" lon="6.0104919411242008209228515625">
        <ele>318.20001220703125</ele>
        <time>2025-04-29T21:35:06.000Z</time>
        <extensions>
          <ns3:TrackPointExtension/>
        </extensions>
      </trkpt>
      <trkpt lat="50.38400092162191867828369140625" lon="6.010410971939563751220703125">
        <ele>317.600006103515625</ele>
        <time>2025-04-29T21:35:10.000Z</time>
        <extensions>
          <ns3:TrackPointExtension/>
        </extensions>
      </trkpt>
      <trkpt lat="50.38447894155979156494140625" lon="6.01035992614924907684326171875">
        <ele>315.399993896484375</ele>
        <time>2025-04-29T21:35:13.000Z</time>
        <extensions>
          <ns3:TrackPointExtension/>
        </extensions>
      </trkpt>
      <trkpt lat="50.3847399540245532989501953125" lon="6.01030393503606319427490234375">
        <ele>313</ele>
        <time>2025-04-29T21:35:17.000Z</time>
        <extensions>
          <ns3:TrackPointExtension/>
        </extensions>
      </trkpt>
      <trkpt lat="50.38507799617946147918701171875" lon="6.010174937546253204345703125">
        <ele>312.20001220703125</ele>
        <time>2025-04-29T21:35:21.000Z</time>
        <extensions>
          <ns3:TrackPointExtension/>
        </extensions>
      </trkpt>
      <trkpt lat="50.385226942598819732666015625" lon="6.01016295142471790313720703125">
        <ele>312.79998779296875</ele>
        <time>2025-04-29T21:35:25.000Z</time>
        <extensions>
          <ns3:TrackPointExtension/>
        </extensions>
      </trkpt>
      <trkpt lat="50.3854309581220149993896484375" lon="6.01021693088114261627197265625">
        <ele>313.399993896484375</ele>
        <time>2025-04-29T21:35:29.000Z</time>
        <extensions>
          <ns3:TrackPointExtension/>
        </extensions>
      </trkpt>
      <trkpt lat="50.385519973933696746826171875" lon="6.0102649591863155364990234375">
        <ele>313.600006103515625</ele>
        <time>2025-04-29T21:35:32.000Z</time>
        <extensions>
          <ns3:TrackPointExtension/>
        </extensions>
      </trkpt>
      <trkpt lat="50.3857189603149890899658203125" lon="6.0104879178106784820556640625">
        <ele>314</ele>
        <time>2025-04-29T21:35:36.000Z</time>
        <extensions>
          <ns3:TrackPointExtension/>
        </extensions>
      </trkpt>
      <trkpt lat="50.3858349658548831939697265625" lon="6.01064993999898433685302734375">
        <ele>315</ele>
        <time>2025-04-29T21:35:40.000Z</time>
        <extensions>
          <ns3:TrackPointExtension/>
        </extensions>
      </trkpt>
      <trkpt lat="50.3863449208438396453857421875" lon="6.01137195713818073272705078125">
        <ele>317</ele>
        <time>2025-04-29T21:35:44.000Z</time>
        <extensions>
          <ns3:TrackPointExtension/>
        </extensions>
      </trkpt>
      <trkpt lat="50.3865239582955837249755859375" lon="6.01157396100461483001708984375">
        <ele>316.79998779296875</ele>
        <time>2025-04-29T21:35:48.000Z</time>
        <extensions>
          <ns3:TrackPointExtension/>
        </extensions>
      </trkpt>
      <trkpt lat="50.38676493801176548004150390625" lon="6.0116519965231418609619140625">
        <ele>316.79998779296875</ele>
        <time>2025-04-29T21:35:51.000Z</time>
        <extensions>
          <ns3:TrackPointExtension/>
        </extensions>
      </trkpt>
      <trkpt lat="50.38690994493663311004638671875" lon="6.01166498847305774688720703125">
        <ele>317</ele>
        <time>2025-04-29T21:35:55.000Z</time>
        <extensions>
          <ns3:TrackPointExtension/>
        </extensions>
      </trkpt>
      <trkpt lat="50.38737899623811244964599609375" lon="6.0111299715936183929443359375">
        <ele>316</ele>
        <time>2025-04-29T21:35:59.000Z</time>
        <extensions>
          <ns3:TrackPointExtension/>
        </extensions>
      </trkpt>
      <trkpt lat="50.38791795261204242706298828125" lon="6.01033293642103672027587890625">
        <ele>315</ele>
        <time>2025-04-29T21:36:03.000Z</time>
        <extensions>
          <ns3:TrackPointExtension/>
        </extensions>
      </trkpt>
      <trkpt lat="50.38800596259534358978271484375" lon="6.01024593226611614227294921875">
        <ele>315.20001220703125</ele>
        <time>2025-04-29T21:36:06.000Z</time>
        <extensions>
          <ns3:TrackPointExtension/>
        </extensions>
      </trkpt>
      <trkpt lat="50.38806597702205181121826171875" lon="6.0102139972150325775146484375">
        <ele>315.600006103515625</ele>
        <time>2025-04-29T21:36:10.000Z</time>
        <extensions>
          <ns3:TrackPointExtension/>
        </extensions>
      </trkpt>
      <trkpt lat="50.38817192427814006805419921875" lon="6.01018197834491729736328125">
        <ele>316.20001220703125</ele>
        <time>2025-04-29T21:36:14.000Z</time>
        <extensions>
          <ns3:TrackPointExtension/>
        </extensions>
      </trkpt>
      <trkpt lat="50.388271920382976531982421875" lon="6.01018197834491729736328125">
        <ele>317</ele>
        <time>2025-04-29T21:36:18.000Z</time>
        <extensions>
          <ns3:TrackPointExtension/>
        </extensions>
      </trkpt>
      <trkpt lat="50.3883929550647735595703125" lon="6.01022196002304553985595703125">
        <ele>317.600006103515625</ele>
        <time>2025-04-29T21:36:21.000Z</time>
        <extensions>
          <ns3:TrackPointExtension/>
        </extensions>
      </trkpt>
      <trkpt lat="50.38921295665204524993896484375" lon="6.0107889957726001739501953125">
        <ele>323.79998779296875</ele>
        <time>2025-04-29T21:36:25.000Z</time>
        <extensions>
          <ns3:TrackPointExtension/>
        </extensions>
      </trkpt>
      <trkpt lat="50.3896849416196346282958984375" lon="6.01122695021331310272216796875">
        <ele>327.79998779296875</ele>
        <time>2025-04-29T21:36:29.000Z</time>
        <extensions>
          <ns3:TrackPointExtension/>
        </extensions>
      </trkpt>
      <trkpt lat="50.38982399739325046539306640625" lon="6.01145192049443721771240234375">
        <ele>330.399993896484375</ele>
        <time>2025-04-29T21:36:33.000Z</time>
        <extensions>
          <ns3:TrackPointExtension/>
        </extensions>
      </trkpt>
      <trkpt lat="50.38989298045635223388671875" lon="6.011621989309787750244140625">
        <ele>331.79998779296875</ele>
        <time>2025-04-29T21:36:36.000Z</time>
        <extensions>
          <ns3:TrackPointExtension/>
        </extensions>
      </trkpt>
      <trkpt lat="50.38995492272078990936279296875" lon="6.01186397485435009002685546875">
        <ele>333.20001220703125</ele>
        <time>2025-04-29T21:36:40.000Z</time>
        <extensions>
          <ns3:TrackPointExtension/>
        </extensions>
      </trkpt>
      <trkpt lat="50.39007394574582576751708984375" lon="6.01246998645365238189697265625">
        <ele>338.20001220703125</ele>
        <time>2025-04-29T21:36:44.000Z</time>
        <extensions>
          <ns3:TrackPointExtension/>
        </extensions>
      </trkpt>
      <trkpt lat="50.3901549987494945526123046875" lon="6.01278397254645824432373046875">
        <ele>340.600006103515625</ele>
        <time>2025-04-29T21:36:48.000Z</time>
        <extensions>
          <ns3:TrackPointExtension/>
        </extensions>
      </trkpt>
      <trkpt lat="50.39055892266333103179931640625" lon="6.01379499770700931549072265625">
        <ele>345.399993896484375</ele>
        <time>2025-04-29T21:36:51.000Z</time>
        <extensions>
          <ns3:TrackPointExtension/>
        </extensions>
      </trkpt>
      <trkpt lat="50.39062497206032276153564453125" lon="6.0138939879834651947021484375">
        <ele>346</ele>
        <time>2025-04-29T21:36:55.000Z</time>
        <extensions>
          <ns3:TrackPointExtension/>
        </extensions>
      </trkpt>
      <trkpt lat="50.39074592292308807373046875" lon="6.01398895494639873504638671875">
        <ele>347.399993896484375</ele>
        <time>2025-04-29T21:36:59.000Z</time>
        <extensions>
          <ns3:TrackPointExtension/>
        </extensions>
      </trkpt>
      <trkpt lat="50.39079898037016391754150390625" lon="6.0140069760382175445556640625">
        <ele>348</ele>
        <time>2025-04-29T21:37:03.000Z</time>
        <extensions>
          <ns3:TrackPointExtension/>
        </extensions>
      </trkpt>
      <trkpt lat="50.39090693928301334381103515625" lon="6.013976968824863433837890625">
        <ele>349.399993896484375</ele>
        <time>2025-04-29T21:37:06.000Z</time>
        <extensions>
          <ns3:TrackPointExtension/>
        </extensions>
      </trkpt>
      <trkpt lat="50.39102696813642978668212890625" lon="6.01387194357812404632568359375">
        <ele>351.20001220703125</ele>
        <time>2025-04-29T21:37:10.000Z</time>
        <extensions>
          <ns3:TrackPointExtension/>
        </extensions>
      </trkpt>
      <trkpt lat="50.39128697477281093597412109375" lon="6.01343994028866291046142578125">
        <ele>353.20001220703125</ele>
        <time>2025-04-29T21:37:14.000Z</time>
        <extensions>
          <ns3:TrackPointExtension/>
        </extensions>
      </trkpt>
      <trkpt lat="50.39144991897046566009521484375" lon="6.01326593197882175445556640625">
        <ele>354.600006103515625</ele>
        <time>2025-04-29T21:37:18.000Z</time>
        <extensions>
          <ns3:TrackPointExtension/>
        </extensions>
      </trkpt>
      <trkpt lat="50.39162292145192623138427734375" lon="6.01426698267459869384765625">
        <ele>361.600006103515625</ele>
        <time>2025-04-29T21:37:22.000Z</time>
        <extensions>
          <ns3:TrackPointExtension/>
        </extensions>
      </trkpt>
      <trkpt lat="50.391788966953754425048828125" lon="6.01482999511063098907470703125">
        <ele>364.399993896484375</ele>
        <time>2025-04-29T21:37:27.000Z</time>
        <extensions>
          <ns3:TrackPointExtension/>
        </extensions>
      </trkpt>
      <trkpt lat="50.39203598164021968841552734375" lon="6.015408933162689208984375">
        <ele>371</ele>
        <time>2025-04-29T21:37:32.000Z</time>
        <extensions>
          <ns3:TrackPointExtension/>
        </extensions>
      </trkpt>
      <trkpt lat="50.39226799272000789642333984375" lon="6.01588192395865917205810546875">
        <ele>375.600006103515625</ele>
        <time>2025-04-29T21:37:36.000Z</time>
        <extensions>
          <ns3:TrackPointExtension/>
        </extensions>
      </trkpt>
      <trkpt lat="50.39231493137776851654052734375" lon="6.015930958092212677001953125">
        <ele>376.399993896484375</ele>
        <time>2025-04-29T21:37:41.000Z</time>
        <extensions>
          <ns3:TrackPointExtension/>
        </extensions>
      </trkpt>
      <trkpt lat="50.392363965511322021484375" lon="6.01593892090022563934326171875">
        <ele>377.600006103515625</ele>
        <time>2025-04-29T21:37:46.000Z</time>
        <extensions>
          <ns3:TrackPointExtension/>
        </extensions>
      </trkpt>
      <trkpt lat="50.39240394718945026397705078125" lon="6.0159019567072391510009765625">
        <ele>378.79998779296875</ele>
        <time>2025-04-29T21:37:50.000Z</time>
        <extensions>
          <ns3:TrackPointExtension/>
        </extensions>
      </trkpt>
      <trkpt lat="50.39240998215973377227783203125" lon="6.0157859511673450469970703125">
        <ele>379.79998779296875</ele>
        <time>2025-04-29T21:37:55.000Z</time>
        <extensions>
          <ns3:TrackPointExtension/>
        </extensions>
      </trkpt>
      <trkpt lat="50.3923879377543926239013671875" lon="6.0154929198324680328369140625">
        <ele>380.600006103515625</ele>
        <time>2025-04-29T21:38:00.000Z</time>
        <extensions>
          <ns3:TrackPointExtension/>
        </extensions>
      </trkpt>
      <trkpt lat="50.39246295578777790069580078125" lon="6.01516493596136569976806640625">
        <ele>382.79998779296875</ele>
        <time>2025-04-29T21:38:04.000Z</time>
        <extensions>
          <ns3:TrackPointExtension/>
        </extensions>
      </trkpt>
      <trkpt lat="50.392537973821163177490234375" lon="6.015006937086582183837890625">
        <ele>384.399993896484375</ele>
        <time>2025-04-29T21:38:09.000Z</time>
        <extensions>
          <ns3:TrackPointExtension/>
        </extensions>
      </trkpt>
      <trkpt lat="50.392592959105968475341796875" lon="6.0150079429149627685546875">
        <ele>385.600006103515625</ele>
        <time>2025-04-29T21:38:14.000Z</time>
        <extensions>
          <ns3:TrackPointExtension/>
        </extensions>
      </trkpt>
      <trkpt lat="50.39263595826923847198486328125" lon="6.01507692597806453704833984375">
        <ele>386.600006103515625</ele>
        <time>2025-04-29T21:38:18.000Z</time>
        <extensions>
          <ns3:TrackPointExtension/>
        </extensions>
      </trkpt>
      <trkpt lat="50.392714999616146087646484375" lon="6.01559995673596858978271484375">
        <ele>387</ele>
        <time>2025-04-29T21:38:23.000Z</time>
        <extensions>
          <ns3:TrackPointExtension/>
        </extensions>
      </trkpt>
      <trkpt lat="50.3927949629724025726318359375" lon="6.01575292646884918212890625">
        <ele>387.20001220703125</ele>
        <time>2025-04-29T21:38:28.000Z</time>
        <extensions>
          <ns3:TrackPointExtension/>
        </extensions>
      </trkpt>
      <trkpt lat="50.39283997379243373870849609375" lon="6.0157889686524868011474609375">
        <ele>387.600006103515625</ele>
        <time>2025-04-29T21:38:32.000Z</time>
        <extensions>
          <ns3:TrackPointExtension/>
        </extensions>
      </trkpt>
      <trkpt lat="50.392883978784084320068359375" lon="6.01577195338904857635498046875">
        <ele>388.399993896484375</ele>
        <time>2025-04-29T21:38:37.000Z</time>
        <extensions>
          <ns3:TrackPointExtension/>
        </extensions>
      </trkpt>
      <trkpt lat="50.39306997321546077728271484375" lon="6.01539795286953449249267578125">
        <ele>392.600006103515625</ele>
        <time>2025-04-29T21:38:42.000Z</time>
        <extensions>
          <ns3:TrackPointExtension/>
        </extensions>
      </trkpt>
      <trkpt lat="50.39322696626186370849609375" lon="6.01518094539642333984375">
        <ele>395.600006103515625</ele>
        <time>2025-04-29T21:38:46.000Z</time>
        <extensions>
          <ns3:TrackPointExtension/>
        </extensions>
      </trkpt>
      <trkpt lat="50.39333199150860309600830078125" lon="6.0150909237563610076904296875">
        <ele>397.20001220703125</ele>
        <time>2025-04-29T21:38:51.000Z</time>
        <extensions>
          <ns3:TrackPointExtension/>
        </extensions>
      </trkpt>
      <trkpt lat="50.39344296790659427642822265625" lon="6.0150399617850780487060546875">
        <ele>398.600006103515625</ele>
        <time>2025-04-29T21:38:56.000Z</time>
        <extensions>
          <ns3:TrackPointExtension/>
        </extensions>
      </trkpt>
      <trkpt lat="50.39358596317470073699951171875" lon="6.015011966228485107421875">
        <ele>400.600006103515625</ele>
        <time>2025-04-29T21:39:00.000Z</time>
        <extensions>
          <ns3:TrackPointExtension/>
        </extensions>
      </trkpt>
      <trkpt lat="50.3937079198658466339111328125" lon="6.01502093486487865447998046875">
        <ele>401.399993896484375</ele>
        <time>2025-04-29T21:39:05.000Z</time>
        <extensions>
          <ns3:TrackPointExtension/>
        </extensions>
      </trkpt>
      <trkpt lat="50.393913947045803070068359375" lon="6.01513593457639217376708984375">
        <ele>402.79998779296875</ele>
        <time>2025-04-29T21:39:10.000Z</time>
        <extensions>
          <ns3:TrackPointExtension/>
        </extensions>
      </trkpt>
      <trkpt lat="50.39407798089087009429931640625" lon="6.01525998674333095550537109375">
        <ele>402.20001220703125</ele>
        <time>2025-04-29T21:39:14.000Z</time>
        <extensions>
          <ns3:TrackPointExtension/>
        </extensions>
      </trkpt>
      <trkpt lat="50.3942279331386089324951171875" lon="6.0153259523212909698486328125">
        <ele>402</ele>
        <time>2025-04-29T21:39:19.000Z</time>
        <extensions>
          <ns3:TrackPointExtension/>
        </extensions>
      </trkpt>
      <trkpt lat="50.39433597587049007415771484375" lon="6.0153289698064327239990234375">
        <ele>402</ele>
        <time>2025-04-29T21:39:24.000Z</time>
        <extensions>
          <ns3:TrackPointExtension/>
        </extensions>
      </trkpt>
      <trkpt lat="50.3948079608380794525146484375" lon="6.01523098535835742950439453125">
        <ele>404</ele>
        <time>2025-04-29T21:39:28.000Z</time>
        <extensions>
          <ns3:TrackPointExtension/>
        </extensions>
      </trkpt>
      <trkpt lat="50.39505095221102237701416015625" lon="6.01520298980176448822021484375">
        <ele>406.600006103515625</ele>
        <time>2025-04-29T21:39:33.000Z</time>
        <extensions>
          <ns3:TrackPointExtension/>
        </extensions>
      </trkpt>
      <trkpt lat="50.39525999687612056732177734375" lon="6.015244983136653900146484375">
        <ele>408.79998779296875</ele>
        <time>2025-04-29T21:39:38.000Z</time>
        <extensions>
          <ns3:TrackPointExtension/>
        </extensions>
      </trkpt>
      <trkpt lat="50.39556995965540409088134765625" lon="6.01539996452629566192626953125">
        <ele>411.600006103515625</ele>
        <time>2025-04-29T21:39:42.000Z</time>
        <extensions>
          <ns3:TrackPointExtension/>
        </extensions>
      </trkpt>
      <trkpt lat="50.39594496600329875946044921875" lon="6.01565091870725154876708984375">
        <ele>412.79998779296875</ele>
        <time>2025-04-29T21:39:47.000Z</time>
        <extensions>
          <ns3:TrackPointExtension/>
        </extensions>
      </trkpt>
      <trkpt lat="50.39706696756184101104736328125" lon="6.01666194386780261993408203125">
        <ele>409.600006103515625</ele>
        <time>2025-04-29T21:39:52.000Z</time>
        <extensions>
          <ns3:TrackPointExtension/>
        </extensions>
      </trkpt>
      <trkpt lat="50.397133938968181610107421875" lon="6.01675699464976787567138671875">
        <ele>409.20001220703125</ele>
        <time>2025-04-29T21:39:56.000Z</time>
        <extensions>
          <ns3:TrackPointExtension/>
        </extensions>
      </trkpt>
      <trkpt lat="50.3971879184246063232421875" lon="6.0168769396841526031494140625">
        <ele>408.79998779296875</ele>
        <time>2025-04-29T21:40:01.000Z</time>
        <extensions>
          <ns3:TrackPointExtension/>
        </extensions>
      </trkpt>
      <trkpt lat="50.39761698804795742034912109375" lon="6.01829297840595245361328125">
        <ele>413.20001220703125</ele>
        <time>2025-04-29T21:40:06.000Z</time>
        <extensions>
          <ns3:TrackPointExtension/>
        </extensions>
      </trkpt>
      <trkpt lat="50.3976839594542980194091796875" lon="6.018464975059032440185546875">
        <ele>413.600006103515625</ele>
        <time>2025-04-29T21:40:10.000Z</time>
        <extensions>
          <ns3:TrackPointExtension/>
        </extensions>
      </trkpt>
      <trkpt lat="50.39775897748768329620361328125" lon="6.01856597699224948883056640625">
        <ele>414</ele>
        <time>2025-04-29T21:40:15.000Z</time>
        <extensions>
          <ns3:TrackPointExtension/>
        </extensions>
      </trkpt>
      <trkpt lat="50.39839298464357852935791015625" lon="6.01899898611009120941162109375">
        <ele>417.79998779296875</ele>
        <time>2025-04-29T21:40:20.000Z</time>
        <extensions>
          <ns3:TrackPointExtension/>
        </extensions>
      </trkpt>
      <trkpt lat="50.3985419310629367828369140625" lon="6.01916092447936534881591796875">
        <ele>418.79998779296875</ele>
        <time>2025-04-29T21:40:24.000Z</time>
        <extensions>
          <ns3:TrackPointExtension/>
        </extensions>
      </trkpt>
      <trkpt lat="50.399097986519336700439453125" lon="6.01988595910370349884033203125">
        <ele>423.399993896484375</ele>
        <time>2025-04-29T21:40:29.000Z</time>
        <extensions>
          <ns3:TrackPointExtension/>
        </extensions>
      </trkpt>
      <trkpt lat="50.39940099231898784637451171875" lon="6.020361967384815216064453125">
        <ele>425.79998779296875</ele>
        <time>2025-04-29T21:40:34.000Z</time>
        <extensions>
          <ns3:TrackPointExtension/>
        </extensions>
      </trkpt>
      <trkpt lat="50.39948799647390842437744140625" lon="6.02042893879115581512451171875">
        <ele>426.79998779296875</ele>
        <time>2025-04-29T21:40:38.000Z</time>
        <extensions>
          <ns3:TrackPointExtension/>
        </extensions>
      </trkpt>
      <trkpt lat="50.39988496340811252593994140625" lon="6.02054494433104991912841796875">
        <ele>430.20001220703125</ele>
        <time>2025-04-29T21:40:43.000Z</time>
        <extensions>
          <ns3:TrackPointExtension/>
        </extensions>
      </trkpt>
      <trkpt lat="50.40064193308353424072265625" lon="6.0209119878709316253662109375">
        <ele>436.600006103515625</ele>
        <time>2025-04-29T21:40:48.000Z</time>
        <extensions>
          <ns3:TrackPointExtension/>
        </extensions>
      </trkpt>
      <trkpt lat="50.40086396969854831695556640625" lon="6.02103997953236103057861328125">
        <ele>438.20001220703125</ele>
        <time>2025-04-29T21:40:52.000Z</time>
        <extensions>
          <ns3:TrackPointExtension/>
        </extensions>
      </trkpt>
      <trkpt lat="50.40099799633026123046875" lon="6.0211879201233386993408203125">
        <ele>438.600006103515625</ele>
        <time>2025-04-29T21:40:57.000Z</time>
        <extensions>
          <ns3:TrackPointExtension/>
        </extensions>
      </trkpt>
      <trkpt lat="50.40157391689717769622802734375" lon="6.02204899303615093231201171875">
        <ele>444.20001220703125</ele>
        <time>2025-04-29T21:41:02.000Z</time>
        <extensions>
          <ns3:TrackPointExtension/>
        </extensions>
      </trkpt>
      <trkpt lat="50.40220892988145351409912109375" lon="6.0232029296457767486572265625">
        <ele>453.20001220703125</ele>
        <time>2025-04-29T21:41:06.000Z</time>
        <extensions>
          <ns3:TrackPointExtension/>
        </extensions>
      </trkpt>
      <trkpt lat="50.40248997509479522705078125" lon="6.02397297509014606475830078125">
        <ele>458</ele>
        <time>2025-04-29T21:41:11.000Z</time>
        <extensions>
          <ns3:TrackPointExtension/>
        </extensions>
      </trkpt>
      <trkpt lat="50.40405596606433391571044921875" lon="6.0272939689457416534423828125">
        <ele>479.20001220703125</ele>
        <time>2025-04-29T21:41:16.000Z</time>
        <extensions>
          <ns3:TrackPointExtension/>
        </extensions>
      </trkpt>
      <trkpt lat="50.404617972671985626220703125" lon="6.02799595333635807037353515625">
        <ele>486.399993896484375</ele>
        <time>2025-04-29T21:41:20.000Z</time>
        <extensions>
          <ns3:TrackPointExtension/>
        </extensions>
      </trkpt>
      <trkpt lat="50.4049019515514373779296875" lon="6.0301079414784908294677734375">
        <ele>488.399993896484375</ele>
        <time>2025-04-29T21:41:25.000Z</time>
        <extensions>
          <ns3:TrackPointExtension/>
        </extensions>
      </trkpt>
      <trkpt lat="50.4056249745190143585205078125" lon="6.0303469933569431304931640625">
        <ele>493.600006103515625</ele>
        <time>2025-04-29T21:41:33.000Z</time>
        <extensions>
          <ns3:TrackPointExtension/>
        </extensions>
      </trkpt>
      <trkpt lat="50.40653499774634838104248046875" lon="6.03078394196927547454833984375">
        <ele>492.399993896484375</ele>
        <time>2025-04-29T21:41:40.000Z</time>
        <extensions>
          <ns3:TrackPointExtension/>
        </extensions>
      </trkpt>
      <trkpt lat="50.40699097327888011932373046875" lon="6.03081193752586841583251953125">
        <ele>492</ele>
        <time>2025-04-29T21:41:48.000Z</time>
        <extensions>
          <ns3:TrackPointExtension/>
        </extensions>
      </trkpt>
      <trkpt lat="50.4076659679412841796875" lon="6.03099592030048370361328125">
        <ele>494.399993896484375</ele>
        <time>2025-04-29T21:41:55.000Z</time>
        <extensions>
          <ns3:TrackPointExtension/>
        </extensions>
      </trkpt>
      <trkpt lat="50.40806293487548828125" lon="6.0313249938189983367919921875">
        <ele>497.79998779296875</ele>
        <time>2025-04-29T21:42:03.000Z</time>
        <extensions>
          <ns3:TrackPointExtension/>
        </extensions>
      </trkpt>
      <trkpt lat="50.408405922353267669677734375" lon="6.0315249860286712646484375">
        <ele>496.399993896484375</ele>
        <time>2025-04-29T21:42:10.000Z</time>
        <extensions>
          <ns3:TrackPointExtension/>
        </extensions>
      </trkpt>
      <trkpt lat="50.40900296531617641448974609375" lon="6.0316079668700695037841796875">
        <ele>493.399993896484375</ele>
        <time>2025-04-29T21:42:18.000Z</time>
        <extensions>
          <ns3:TrackPointExtension/>
        </extensions>
      </trkpt>
      <trkpt lat="50.4098789580166339874267578125" lon="6.0316079668700695037841796875">
        <ele>487</ele>
        <time>2025-04-29T21:42:25.000Z</time>
        <extensions>
          <ns3:TrackPointExtension/>
        </extensions>
      </trkpt>
      <trkpt lat="50.410603992640972137451171875" lon="6.03140495717525482177734375">
        <ele>480.79998779296875</ele>
        <time>2025-04-29T21:42:33.000Z</time>
        <extensions>
          <ns3:TrackPointExtension/>
        </extensions>
      </trkpt>
      <trkpt lat="50.410591922700405120849609375" lon="6.03267791680991649627685546875">
        <ele>473.600006103515625</ele>
        <time>2025-04-29T21:42:38.000Z</time>
        <extensions>
          <ns3:TrackPointExtension/>
        </extensions>
      </trkpt>
      <trkpt lat="50.41060499846935272216796875" lon="6.03279593400657176971435546875">
        <ele>472.600006103515625</ele>
        <time>2025-04-29T21:42:43.000Z</time>
        <extensions>
          <ns3:TrackPointExtension/>
        </extensions>
      </trkpt>
      <trkpt lat="50.41113297455012798309326171875" lon="6.03222194127738475799560546875">
        <ele>468.20001220703125</ele>
        <time>2025-04-29T21:42:47.000Z</time>
        <extensions>
          <ns3:TrackPointExtension/>
        </extensions>
      </trkpt>
      <trkpt lat="50.41135199368000030517578125" lon="6.03208095766603946685791015625">
        <ele>468.20001220703125</ele>
        <time>2025-04-29T21:42:51.000Z</time>
        <extensions>
          <ns3:TrackPointExtension/>
        </extensions>
      </trkpt>
      <trkpt lat="50.41159297339618206024169921875" lon="6.032040975987911224365234375">
        <ele>468.399993896484375</ele>
        <time>2025-04-29T21:42:55.000Z</time>
        <extensions>
          <ns3:TrackPointExtension/>
        </extensions>
      </trkpt>
      <trkpt lat="50.4121749289333820343017578125" lon="6.03202094323933124542236328125">
        <ele>465.600006103515625</ele>
        <time>2025-04-29T21:43:00.000Z</time>
        <extensions>
          <ns3:TrackPointExtension/>
        </extensions>
      </trkpt>
      <trkpt lat="50.41272796690464019775390625" lon="6.0318979807198047637939453125">
        <ele>464.399993896484375</ele>
        <time>2025-04-29T21:43:04.000Z</time>
        <extensions>
          <ns3:TrackPointExtension/>
        </extensions>
      </trkpt>
      <trkpt lat="50.4130719602108001708984375" lon="6.0318979807198047637939453125">
        <ele>464</ele>
        <time>2025-04-29T21:43:08.000Z</time>
        <extensions>
          <ns3:TrackPointExtension/>
        </extensions>
      </trkpt>
      <trkpt lat="50.41423897258937358856201171875" lon="6.0320629365742206573486328125">
        <ele>461</ele>
        <time>2025-04-29T21:43:12.000Z</time>
        <extensions>
          <ns3:TrackPointExtension/>
        </extensions>
      </trkpt>
      <trkpt lat="50.41443695314228534698486328125" lon="6.03202094323933124542236328125">
        <ele>461.20001220703125</ele>
        <time>2025-04-29T21:43:16.000Z</time>
        <extensions>
          <ns3:TrackPointExtension/>
        </extensions>
      </trkpt>
      <trkpt lat="50.41513499803841114044189453125" lon="6.031804941594600677490234375">
        <ele>464.20001220703125</ele>
        <time>2025-04-29T21:43:20.000Z</time>
        <extensions>
          <ns3:TrackPointExtension/>
        </extensions>
      </trkpt>
      <trkpt lat="50.415781997144222259521484375" lon="6.03196897543966770172119140625">
        <ele>462.79998779296875</ele>
        <time>2025-04-29T21:43:25.000Z</time>
        <extensions>
          <ns3:TrackPointExtension/>
        </extensions>
      </trkpt>
      <trkpt lat="50.41595198214054107666015625" lon="6.0320659540593624114990234375">
        <ele>461.20001220703125</ele>
        <time>2025-04-29T21:43:29.000Z</time>
        <extensions>
          <ns3:TrackPointExtension/>
        </extensions>
      </trkpt>
      <trkpt lat="50.41606597602367401123046875" lon="6.032207943499088287353515625">
        <ele>459.399993896484375</ele>
        <time>2025-04-29T21:43:33.000Z</time>
        <extensions>
          <ns3:TrackPointExtension/>
        </extensions>
      </trkpt>
      <trkpt lat="50.41651398874819278717041015625" lon="6.03302492760121822357177734375">
        <ele>458.600006103515625</ele>
        <time>2025-04-29T21:43:37.000Z</time>
        <extensions>
          <ns3:TrackPointExtension/>
        </extensions>
      </trkpt>
      <trkpt lat="50.4167199321091175079345703125" lon="6.03351694531738758087158203125">
        <ele>457.399993896484375</ele>
        <time>2025-04-29T21:43:41.000Z</time>
        <extensions>
          <ns3:TrackPointExtension/>
        </extensions>
      </trkpt>
      <trkpt lat="50.416923947632312774658203125" lon="6.03388792835175991058349609375">
        <ele>454.600006103515625</ele>
        <time>2025-04-29T21:43:46.000Z</time>
        <extensions>
          <ns3:TrackPointExtension/>
        </extensions>
      </trkpt>
      <trkpt lat="50.41806095279753208160400390625" lon="6.03578693233430385589599609375">
        <ele>432.79998779296875</ele>
        <time>2025-04-29T21:43:50.000Z</time>
        <extensions>
          <ns3:TrackPointExtension/>
        </extensions>
      </trkpt>
      <trkpt lat="50.4185649566352367401123046875" lon="6.03686593472957611083984375">
        <ele>423</ele>
        <time>2025-04-29T21:43:54.000Z</time>
        <extensions>
          <ns3:TrackPointExtension/>
        </extensions>
      </trkpt>
      <trkpt lat="50.418657995760440826416015625" lon="6.03709392249584197998046875">
        <ele>421.399993896484375</ele>
        <time>2025-04-29T21:43:58.000Z</time>
        <extensions>
          <ns3:TrackPointExtension/>
        </extensions>
      </trkpt>
      <trkpt lat="50.41872396133840084075927734375" lon="6.03739793412387371063232421875">
        <ele>419.79998779296875</ele>
        <time>2025-04-29T21:44:02.000Z</time>
        <extensions>
          <ns3:TrackPointExtension/>
        </extensions>
      </trkpt>
      <trkpt lat="50.41895094327628612518310546875" lon="6.038826964795589447021484375">
        <ele>407</ele>
        <time>2025-04-29T21:44:07.000Z</time>
        <extensions>
          <ns3:TrackPointExtension/>
        </extensions>
      </trkpt>
      <trkpt lat="50.41927398182451725006103515625" lon="6.03952392004430294036865234375">
        <ele>398.20001220703125</ele>
        <time>2025-04-29T21:44:11.000Z</time>
        <extensions>
          <ns3:TrackPointExtension/>
        </extensions>
      </trkpt>
      <trkpt lat="50.41937892325222492218017578125" lon="6.03955593891441822052001953125">
        <ele>396.79998779296875</ele>
        <time>2025-04-29T21:44:15.000Z</time>
        <extensions>
          <ns3:TrackPointExtension/>
        </extensions>
      </trkpt>
      <trkpt lat="50.4199529998004436492919921875" lon="6.039284951984882354736328125">
        <ele>392.399993896484375</ele>
        <time>2025-04-29T21:44:19.000Z</time>
        <extensions>
          <ns3:TrackPointExtension/>
        </extensions>
      </trkpt>
      <trkpt lat="50.4201169498264789581298828125" lon="6.03930297307670116424560546875">
        <ele>391.600006103515625</ele>
        <time>2025-04-29T21:44:23.000Z</time>
        <extensions>
          <ns3:TrackPointExtension/>
        </extensions>
      </trkpt>
      <trkpt lat="50.42015793733298778533935546875" lon="6.039349995553493499755859375">
        <ele>391.399993896484375</ele>
        <time>2025-04-29T21:44:27.000Z</time>
        <extensions>
          <ns3:TrackPointExtension/>
        </extensions>
      </trkpt>
      <trkpt lat="50.42024695314466953277587890625" lon="6.03953699581325054168701171875">
        <ele>391</ele>
        <time>2025-04-29T21:44:32.000Z</time>
        <extensions>
          <ns3:TrackPointExtension/>
        </extensions>
      </trkpt>
      <trkpt lat="50.420312918722629547119140625" lon="6.03963397443294525146484375">
        <ele>390.399993896484375</ele>
        <time>2025-04-29T21:44:36.000Z</time>
        <extensions>
          <ns3:TrackPointExtension/>
        </extensions>
      </trkpt>
      <trkpt lat="50.42038592509925365447998046875" lon="6.0395729541778564453125">
        <ele>390</ele>
        <time>2025-04-29T21:44:40.000Z</time>
        <extensions>
          <ns3:TrackPointExtension/>
        </extensions>
      </trkpt>
      <trkpt lat="50.4204689897596836090087890625" lon="6.039292998611927032470703125">
        <ele>388.600006103515625</ele>
        <time>2025-04-29T21:44:44.000Z</time>
        <extensions>
          <ns3:TrackPointExtension/>
        </extensions>
      </trkpt>
      <trkpt lat="50.4205159284174442291259765625" lon="6.0390269570052623748779296875">
        <ele>387.20001220703125</ele>
        <time>2025-04-29T21:44:48.000Z</time>
        <extensions>
          <ns3:TrackPointExtension/>
        </extensions>
      </trkpt>
      <trkpt lat="50.42057099752128124237060546875" lon="6.03854591958224773406982421875">
        <ele>384.20001220703125</ele>
        <time>2025-04-29T21:44:53.000Z</time>
        <extensions>
          <ns3:TrackPointExtension/>
        </extensions>
      </trkpt>
      <trkpt lat="50.42059899307787418365478515625" lon="6.0378149338066577911376953125">
        <ele>378.399993896484375</ele>
        <time>2025-04-29T21:44:57.000Z</time>
        <extensions>
          <ns3:TrackPointExtension/>
        </extensions>
      </trkpt>
      <trkpt lat="50.42066194117069244384765625" lon="6.03751393966376781463623046875">
        <ele>375.79998779296875</ele>
        <time>2025-04-29T21:45:01.000Z</time>
        <extensions>
          <ns3:TrackPointExtension/>
        </extensions>
      </trkpt>
      <trkpt lat="50.420900993049144744873046875" lon="6.036760993301868438720703125">
        <ele>370.79998779296875</ele>
        <time>2025-04-29T21:45:05.000Z</time>
        <extensions>
          <ns3:TrackPointExtension/>
        </extensions>
      </trkpt>
      <trkpt lat="50.42107793502509593963623046875" lon="6.03647994808852672576904296875">
        <ele>368.399993896484375</ele>
        <time>2025-04-29T21:45:09.000Z</time>
        <extensions>
          <ns3:TrackPointExtension/>
        </extensions>
      </trkpt>
      <trkpt lat="50.4212679527699947357177734375" lon="6.0362349450588226318359375">
        <ele>365.79998779296875</ele>
        <time>2025-04-29T21:45:14.000Z</time>
        <extensions>
          <ns3:TrackPointExtension/>
        </extensions>
      </trkpt>
      <trkpt lat="50.4218399338424205780029296875" lon="6.03572993539273738861083984375">
        <ele>360</ele>
        <time>2025-04-29T21:45:18.000Z</time>
        <extensions>
          <ns3:TrackPointExtension/>
        </extensions>
      </trkpt>
      <trkpt lat="50.421981923282146453857421875" lon="6.035546958446502685546875">
        <ele>358.79998779296875</ele>
        <time>2025-04-29T21:45:22.000Z</time>
        <extensions>
          <ns3:TrackPointExtension/>
        </extensions>
      </trkpt>
      <trkpt lat="50.42205895297229290008544921875" lon="6.03550295345485210418701171875">
        <ele>357.600006103515625</ele>
        <time>2025-04-29T21:45:26.000Z</time>
        <extensions>
          <ns3:TrackPointExtension/>
        </extensions>
      </trkpt>
      <trkpt lat="50.422216951847076416015625" lon="6.03550898842513561248779296875">
        <ele>354.79998779296875</ele>
        <time>2025-04-29T21:45:30.000Z</time>
        <extensions>
          <ns3:TrackPointExtension/>
        </extensions>
      </trkpt>
      <trkpt lat="50.42240998707711696624755859375" lon="6.03571794927120208740234375">
        <ele>352.600006103515625</ele>
        <time>2025-04-29T21:45:34.000Z</time>
        <extensions>
          <ns3:TrackPointExtension/>
        </extensions>
      </trkpt>
      <trkpt lat="50.42255499400198459625244140625" lon="6.0357439331710338592529296875">
        <ele>351.399993896484375</ele>
        <time>2025-04-29T21:45:39.000Z</time>
        <extensions>
          <ns3:TrackPointExtension/>
        </extensions>
      </trkpt>
      <trkpt lat="50.42260796763002872467041015625" lon="6.03572197258472442626953125">
        <ele>351</ele>
        <time>2025-04-29T21:45:43.000Z</time>
        <extensions>
          <ns3:TrackPointExtension/>
        </extensions>
      </trkpt>
      <trkpt lat="50.42263998650014400482177734375" lon="6.03562599979341030120849609375">
        <ele>350.79998779296875</ele>
        <time>2025-04-29T21:45:47.000Z</time>
        <extensions>
          <ns3:TrackPointExtension/>
        </extensions>
      </trkpt>
      <trkpt lat="50.42266094125807285308837890625" lon="6.0347729735076427459716796875">
        <ele>350</ele>
        <time>2025-04-29T21:45:51.000Z</time>
        <extensions>
          <ns3:TrackPointExtension/>
        </extensions>
      </trkpt>
      <trkpt lat="50.4227019287645816802978515625" lon="6.03470298461616039276123046875">
        <ele>349.600006103515625</ele>
        <time>2025-04-29T21:45:55.000Z</time>
        <extensions>
          <ns3:TrackPointExtension/>
        </extensions>
      </trkpt>
      <trkpt lat="50.4228729195892810821533203125" lon="6.034690998494625091552734375">
        <ele>348.600006103515625</ele>
        <time>2025-04-29T21:46:00.000Z</time>
        <extensions>
          <ns3:TrackPointExtension/>
        </extensions>
      </trkpt>
      <trkpt lat="50.42288792319595813751220703125" lon="6.03478797711431980133056640625">
        <ele>348.79998779296875</ele>
        <time>2025-04-29T21:46:01.000Z</time>
        <extensions>
          <ns3:TrackPointExtension/>
        </extensions>
      </trkpt>
      <trkpt lat="50.422909967601299285888671875" lon="6.0348259471356868743896484375">
        <ele>348.79998779296875</ele>
        <time>2025-04-29T21:46:03.000Z</time>
        <extensions>
          <ns3:TrackPointExtension/>
        </extensions>
      </trkpt>
      <trkpt lat="50.422967970371246337890625" lon="6.034862995147705078125">
        <ele>348.399993896484375</ele>
        <time>2025-04-29T21:46:04.000Z</time>
        <extensions>
          <ns3:TrackPointExtension/>
        </extensions>
      </trkpt>
      <trkpt lat="50.423029996454715728759765625" lon="6.03483793325722217559814453125">
        <ele>348.20001220703125</ele>
        <time>2025-04-29T21:46:06.000Z</time>
        <extensions>
          <ns3:TrackPointExtension/>
        </extensions>
      </trkpt>
      <trkpt lat="50.42305991984903812408447265625" lon="6.0347919166088104248046875">
        <ele>348.20001220703125</ele>
        <time>2025-04-29T21:46:08.000Z</time>
        <extensions>
          <ns3:TrackPointExtension/>
        </extensions>
      </trkpt>
      <trkpt lat="50.4230739176273345947265625" lon="6.03466493077576160430908203125">
        <ele>348.600006103515625</ele>
        <time>2025-04-29T21:46:09.000Z</time>
        <extensions>
          <ns3:TrackPointExtension/>
        </extensions>
      </trkpt>
      <trkpt lat="50.4231329262256622314453125" lon="6.0346569679677486419677734375">
        <ele>348.399993896484375</ele>
        <time>2025-04-29T21:46:11.000Z</time>
        <extensions>
          <ns3:TrackPointExtension/>
        </extensions>
      </trkpt>
      <trkpt lat="50.42318992316722869873046875" lon="6.03461698628962039947509765625">
        <ele>348.399993896484375</ele>
        <time>2025-04-29T21:46:13.000Z</time>
        <extensions>
          <ns3:TrackPointExtension/>
        </extensions>
      </trkpt>
      <trkpt lat="50.4232199303805828094482421875" lon="6.03455898351967334747314453125">
        <ele>348.399993896484375</ele>
        <time>2025-04-29T21:46:14.000Z</time>
        <extensions>
          <ns3:TrackPointExtension/>
        </extensions>
      </trkpt>
      <trkpt lat="50.423542968928813934326171875" lon="6.033536978065967559814453125">
        <ele>346.399993896484375</ele>
        <time>2025-04-29T21:46:16.000Z</time>
        <extensions>
          <ns3:TrackPointExtension/>
        </extensions>
      </trkpt>
      <trkpt lat="50.42361195199191570281982421875" lon="6.0333919711410999298095703125">
        <ele>345.600006103515625</ele>
        <time>2025-04-29T21:46:17.000Z</time>
        <extensions>
          <ns3:TrackPointExtension/>
        </extensions>
      </trkpt>
      <trkpt lat="50.423659980297088623046875" lon="6.0334439389407634735107421875">
        <ele>345.399993896484375</ele>
        <time>2025-04-29T21:46:22.000Z</time>
        <extensions>
          <ns3:TrackPointExtension/>
        </extensions>
      </trkpt>
      <trkpt lat="50.423718988895416259765625" lon="6.03343497030436992645263671875">
        <ele>345</ele>
        <time>2025-04-29T21:46:26.000Z</time>
        <extensions>
          <ns3:TrackPointExtension/>
        </extensions>
      </trkpt>
      <trkpt lat="50.4237659275531768798828125" lon="6.03334394283592700958251953125">
        <ele>344.20001220703125</ele>
        <time>2025-04-29T21:46:30.000Z</time>
        <extensions>
          <ns3:TrackPointExtension/>
        </extensions>
      </trkpt>
      <trkpt lat="50.42376399971544742584228515625" lon="6.0332709364593029022216796875">
        <ele>344</ele>
        <time>2025-04-29T21:46:34.000Z</time>
        <extensions>
          <ns3:TrackPointExtension/>
        </extensions>
      </trkpt>
      <trkpt lat="50.4239169694483280181884765625" lon="6.03316993452608585357666015625">
        <ele>343</ele>
        <time>2025-04-29T21:46:39.000Z</time>
        <extensions>
          <ns3:TrackPointExtension/>
        </extensions>
      </trkpt>
      <trkpt lat="50.424110926687717437744140625" lon="6.03313992731273174285888671875">
        <ele>342.79998779296875</ele>
        <time>2025-04-29T21:46:43.000Z</time>
        <extensions>
          <ns3:TrackPointExtension/>
        </extensions>
      </trkpt>
      <trkpt lat="50.4247249849140644073486328125" lon="6.03318192064762115478515625">
        <ele>345.20001220703125</ele>
        <time>2025-04-29T21:46:47.000Z</time>
        <extensions>
          <ns3:TrackPointExtension/>
        </extensions>
      </trkpt>
      <trkpt lat="50.42510594241321086883544921875" lon="6.0333369858562946319580078125">
        <ele>348</ele>
        <time>2025-04-29T21:46:51.000Z</time>
        <extensions>
          <ns3:TrackPointExtension/>
        </extensions>
      </trkpt>
      <trkpt lat="50.425152964890003204345703125" lon="6.0333389975130558013916015625">
        <ele>348.20001220703125</ele>
        <time>2025-04-29T21:46:56.000Z</time>
        <extensions>
          <ns3:TrackPointExtension/>
        </extensions>
      </trkpt>
      <trkpt lat="50.4252319224178791046142578125" lon="6.03328996337950229644775390625">
        <ele>348.20001220703125</ele>
        <time>2025-04-29T21:47:00.000Z</time>
        <extensions>
          <ns3:TrackPointExtension/>
        </extensions>
      </trkpt>
      <trkpt lat="50.42528598569333553314208984375" lon="6.0331559367477893829345703125">
        <ele>348</ele>
        <time>2025-04-29T21:47:04.000Z</time>
        <extensions>
          <ns3:TrackPointExtension/>
        </extensions>
      </trkpt>
      <trkpt lat="50.42530492879450321197509765625" lon="6.03306096978485584259033203125">
        <ele>347.600006103515625</ele>
        <time>2025-04-29T21:47:08.000Z</time>
        <extensions>
          <ns3:TrackPointExtension/>
        </extensions>
      </trkpt>
      <trkpt lat="50.4252419807016849517822265625" lon="6.0327319800853729248046875">
        <ele>347</ele>
        <time>2025-04-29T21:47:13.000Z</time>
        <extensions>
          <ns3:TrackPointExtension/>
        </extensions>
      </trkpt>
      <trkpt lat="50.425205938518047332763671875" lon="6.03255294263362884521484375">
        <ele>346.399993896484375</ele>
        <time>2025-04-29T21:47:17.000Z</time>
        <extensions>
          <ns3:TrackPointExtension/>
        </extensions>
      </trkpt>
      <trkpt lat="50.42516696266829967498779296875" lon="6.03216494433581829071044921875">
        <ele>343.600006103515625</ele>
        <time>2025-04-29T21:47:21.000Z</time>
        <extensions>
          <ns3:TrackPointExtension/>
        </extensions>
      </trkpt>
      <trkpt lat="50.425154976546764373779296875" lon="6.03182497434318065643310546875">
        <ele>342</ele>
        <time>2025-04-29T21:47:25.000Z</time>
        <extensions>
          <ns3:TrackPointExtension/>
        </extensions>
      </trkpt>
      <trkpt lat="50.42516092769801616668701171875" lon="6.031570918858051300048828125">
        <ele>341.20001220703125</ele>
        <time>2025-04-29T21:47:29.000Z</time>
        <extensions>
          <ns3:TrackPointExtension/>
        </extensions>
      </trkpt>
      <trkpt lat="50.42522697709500789642333984375" lon="6.030937917530536651611328125">
        <ele>342</ele>
        <time>2025-04-29T21:47:34.000Z</time>
        <extensions>
          <ns3:TrackPointExtension/>
        </extensions>
      </trkpt>
      <trkpt lat="50.42533694766461849212646484375" lon="6.0301049239933490753173828125">
        <ele>342</ele>
        <time>2025-04-29T21:47:38.000Z</time>
        <extensions>
          <ns3:TrackPointExtension/>
        </extensions>
      </trkpt>
      <trkpt lat="50.4254629276692867279052734375" lon="6.02928894571959972381591796875">
        <ele>340</ele>
        <time>2025-04-29T21:47:42.000Z</time>
        <extensions>
          <ns3:TrackPointExtension/>
        </extensions>
      </trkpt>
      <trkpt lat="50.42548991739749908447265625" lon="6.02922893129289150238037109375">
        <ele>339.600006103515625</ele>
        <time>2025-04-29T21:47:46.000Z</time>
        <extensions>
          <ns3:TrackPointExtension/>
        </extensions>
      </trkpt>
      <trkpt lat="50.4255769215524196624755859375" lon="6.02914293296635150909423828125">
        <ele>339.399993896484375</ele>
        <time>2025-04-29T21:47:51.000Z</time>
        <extensions>
          <ns3:TrackPointExtension/>
        </extensions>
      </trkpt>
      <trkpt lat="50.42562193237245082855224609375" lon="6.02914092130959033966064453125">
        <ele>339.399993896484375</ele>
        <time>2025-04-29T21:47:55.000Z</time>
        <extensions>
          <ns3:TrackPointExtension/>
        </extensions>
      </trkpt>
      <trkpt lat="50.42568597011268138885498046875" lon="6.02906799875199794769287109375">
        <ele>339.600006103515625</ele>
        <time>2025-04-29T21:47:59.000Z</time>
        <extensions>
          <ns3:TrackPointExtension/>
        </extensions>
      </trkpt>
      <trkpt lat="50.42585193179547786712646484375" lon="6.0285879671573638916015625">
        <ele>340.20001220703125</ele>
        <time>2025-04-29T21:48:03.000Z</time>
        <extensions>
          <ns3:TrackPointExtension/>
        </extensions>
      </trkpt>
      <trkpt lat="50.42597497813403606414794921875" lon="6.0283799283206462860107421875">
        <ele>339.600006103515625</ele>
        <time>2025-04-29T21:48:08.000Z</time>
        <extensions>
          <ns3:TrackPointExtension/>
        </extensions>
      </trkpt>
      <trkpt lat="50.4261609725654125213623046875" lon="6.02820499800145626068115234375">
        <ele>339.20001220703125</ele>
        <time>2025-04-29T21:48:12.000Z</time>
        <extensions>
          <ns3:TrackPointExtension/>
        </extensions>
      </trkpt>
      <trkpt lat="50.42626599781215190887451171875" lon="6.02811698801815509796142578125">
        <ele>339.399993896484375</ele>
        <time>2025-04-29T21:48:16.000Z</time>
        <extensions>
          <ns3:TrackPointExtension/>
        </extensions>
      </trkpt>
      <trkpt lat="50.42636096477508544921875" lon="6.0279469192028045654296875">
        <ele>340</ele>
        <time>2025-04-29T21:48:20.000Z</time>
        <extensions>
          <ns3:TrackPointExtension/>
        </extensions>
      </trkpt>
      <trkpt lat="50.426414944231510162353515625" lon="6.02770392782986164093017578125">
        <ele>339.79998779296875</ele>
        <time>2025-04-29T21:48:25.000Z</time>
        <extensions>
          <ns3:TrackPointExtension/>
        </extensions>
      </trkpt>
      <trkpt lat="50.4264159500598907470703125" lon="6.02756093256175518035888671875">
        <ele>339</ele>
        <time>2025-04-29T21:48:29.000Z</time>
        <extensions>
          <ns3:TrackPointExtension/>
        </extensions>
      </trkpt>
      <trkpt lat="50.4265029542148113250732421875" lon="6.02753394283354282379150390625">
        <ele>339.600006103515625</ele>
        <time>2025-04-29T21:53:31.000Z</time>
        <extensions>
          <ns3:TrackPointExtension/>
        </extensions>
      </trkpt>
      <trkpt lat="50.4265029542148113250732421875" lon="6.02753394283354282379150390625">
        <ele>339.600006103515625</ele>
        <time>2025-04-29T21:53:31.000Z</time>
        <extensions>
          <ns3:TrackPointExtension/>
        </extensions>
      </trkpt>
      <trkpt lat="50.4264159500598907470703125" lon="6.02756093256175518035888671875">
        <ele>339</ele>
        <time>2025-04-29T21:53:34.000Z</time>
        <extensions>
          <ns3:TrackPointExtension/>
        </extensions>
      </trkpt>
      <trkpt lat="50.42634294368326663970947265625" lon="6.02732799947261810302734375">
        <ele>338</ele>
        <time>2025-04-29T21:53:45.000Z</time>
        <extensions>
          <ns3:TrackPointExtension/>
        </extensions>
      </trkpt>
      <trkpt lat="50.4259919933974742889404296875" lon="6.02618093602359294891357421875">
        <ele>336.399993896484375</ele>
        <time>2025-04-29T21:53:57.000Z</time>
        <extensions>
          <ns3:TrackPointExtension/>
        </extensions>
      </trkpt>
      <trkpt lat="50.42593692429363727569580078125" lon="6.02617196738719940185546875">
        <ele>336.600006103515625</ele>
        <time>2025-04-29T21:54:01.000Z</time>
        <extensions>
          <ns3:TrackPointExtension/>
        </extensions>
      </trkpt>
      <trkpt lat="50.4258729703724384307861328125" lon="6.0261939279735088348388671875">
        <ele>336.79998779296875</ele>
        <time>2025-04-29T21:54:05.000Z</time>
        <extensions>
          <ns3:TrackPointExtension/>
        </extensions>
      </trkpt>
      <trkpt lat="50.42560198344290256500244140625" lon="6.02676196955144405364990234375">
        <ele>337.79998779296875</ele>
        <time>2025-04-29T21:54:09.000Z</time>
        <extensions>
          <ns3:TrackPointExtension/>
        </extensions>
      </trkpt>
      <trkpt lat="50.4254679568111896514892578125" lon="6.0269429348409175872802734375">
        <ele>338.20001220703125</ele>
        <time>2025-04-29T21:54:13.000Z</time>
        <extensions>
          <ns3:TrackPointExtension/>
        </extensions>
      </trkpt>
      <trkpt lat="50.42536796070635318756103515625" lon="6.027039997279644012451171875">
        <ele>339</ele>
        <time>2025-04-29T21:54:17.000Z</time>
        <extensions>
          <ns3:TrackPointExtension/>
        </extensions>
      </trkpt>
      <trkpt lat="50.42533292435109615325927734375" lon="6.0271159373223781585693359375">
        <ele>339.600006103515625</ele>
        <time>2025-04-29T21:54:21.000Z</time>
        <extensions>
          <ns3:TrackPointExtension/>
        </extensions>
      </trkpt>
      <trkpt lat="50.42531096376478672027587890625" lon="6.02722196839749813079833984375">
        <ele>340</ele>
        <time>2025-04-29T21:54:25.000Z</time>
        <extensions>
          <ns3:TrackPointExtension/>
        </extensions>
      </trkpt>
      <trkpt lat="50.42533895932137966156005859375" lon="6.0278149880468845367431640625">
        <ele>340.79998779296875</ele>
        <time>2025-04-29T21:54:29.000Z</time>
        <extensions>
          <ns3:TrackPointExtension/>
        </extensions>
      </trkpt>
      <trkpt lat="50.42537198401987552642822265625" lon="6.0281499288976192474365234375">
        <ele>340.20001220703125</ele>
        <time>2025-04-29T21:54:33.000Z</time>
        <extensions>
          <ns3:TrackPointExtension/>
        </extensions>
      </trkpt>
      <trkpt lat="50.42521499097347259521484375" lon="6.02820399217307567596435546875">
        <ele>340</ele>
        <time>2025-04-29T21:55:20.000Z</time>
        <extensions>
          <ns3:TrackPointExtension/>
        </extensions>
      </trkpt>
      <trkpt lat="50.4249509610235691070556640625" lon="6.02819091640412807464599609375">
        <ele>340</ele>
        <time>2025-04-29T21:56:07.000Z</time>
        <extensions>
          <ns3:TrackPointExtension/>
        </extensions>
      </trkpt>
      <trkpt lat="50.42485297657549381256103515625" lon="6.0282159782946109771728515625">
        <ele>340</ele>
        <time>2025-04-29T21:56:54.000Z</time>
        <extensions>
          <ns3:TrackPointExtension/>
        </extensions>
      </trkpt>
      <trkpt lat="50.42467896826565265655517578125" lon="6.0283319838345050811767578125">
        <ele>340.600006103515625</ele>
        <time>2025-04-29T21:57:42.000Z</time>
        <extensions>
          <ns3:TrackPointExtension/>
        </extensions>
      </trkpt>
      <trkpt lat="50.42448299936950206756591796875" lon="6.02842292748391628265380859375">
        <ele>341</ele>
        <time>2025-04-29T21:58:29.000Z</time>
        <extensions>
          <ns3:TrackPointExtension/>
        </extensions>
      </trkpt>
      <trkpt lat="50.42430396191775798797607421875" lon="6.02842896245419979095458984375">
        <ele>341</ele>
        <time>2025-04-29T21:59:16.000Z</time>
        <extensions>
          <ns3:TrackPointExtension/>
        </extensions>
      </trkpt>
      <trkpt lat="50.42412894777953624725341796875" lon="6.02839493192732334136962890625">
        <ele>341</ele>
        <time>2025-04-29T22:00:03.000Z</time>
        <extensions>
          <ns3:TrackPointExtension/>
        </extensions>
      </trkpt>
      <trkpt lat="50.4240869544446468353271484375" lon="6.02843399159610271453857421875">
        <ele>341</ele>
        <time>2025-04-29T22:00:07.000Z</time>
        <extensions>
          <ns3:TrackPointExtension/>
        </extensions>
      </trkpt>
      <trkpt lat="50.42372393421828746795654296875" lon="6.028466932475566864013671875">
        <ele>341.399993896484375</ele>
        <time>2025-04-29T22:00:10.000Z</time>
        <extensions>
          <ns3:TrackPointExtension/>
        </extensions>
      </trkpt>
      <trkpt lat="50.42355998419225215911865234375" lon="6.02851998992264270782470703125">
        <ele>342.20001220703125</ele>
        <time>2025-04-29T22:00:14.000Z</time>
        <extensions>
          <ns3:TrackPointExtension/>
        </extensions>
      </trkpt>
      <trkpt lat="50.42360298335552215576171875" lon="6.02889399044215679168701171875">
        <ele>342</ele>
        <time>2025-04-29T22:00:27.000Z</time>
        <extensions>
          <ns3:TrackPointExtension/>
        </extensions>
      </trkpt>
      <trkpt lat="50.42358093895018100738525390625" lon="6.03278495371341705322265625">
        <ele>344</ele>
        <time>2025-04-29T22:00:41.000Z</time>
        <extensions>
          <ns3:TrackPointExtension/>
        </extensions>
      </trkpt>
      <trkpt lat="50.42363894172012805938720703125" lon="6.033194996416568756103515625">
        <ele>344.600006103515625</ele>
        <time>2025-04-29T22:00:54.000Z</time>
        <extensions>
          <ns3:TrackPointExtension/>
        </extensions>
      </trkpt>
      <trkpt lat="50.42360792867839336395263671875" lon="6.03324092924594879150390625">
        <ele>345</ele>
        <time>2025-04-29T22:00:58.000Z</time>
        <extensions>
          <ns3:TrackPointExtension/>
        </extensions>
      </trkpt>
      <trkpt lat="50.423595942556858062744140625" lon="6.03331695310771465301513671875">
        <ele>345.399993896484375</ele>
        <time>2025-04-29T22:01:02.000Z</time>
        <extensions>
          <ns3:TrackPointExtension/>
        </extensions>
      </trkpt>
      <trkpt lat="50.42361195199191570281982421875" lon="6.0333919711410999298095703125">
        <ele>345.600006103515625</ele>
        <time>2025-04-29T22:01:06.000Z</time>
        <extensions>
          <ns3:TrackPointExtension/>
        </extensions>
      </trkpt>
      <trkpt lat="50.423659980297088623046875" lon="6.0334439389407634735107421875">
        <ele>345.399993896484375</ele>
        <time>2025-04-29T22:01:10.000Z</time>
        <extensions>
          <ns3:TrackPointExtension/>
        </extensions>
      </trkpt>
      <trkpt lat="50.423718988895416259765625" lon="6.03343497030436992645263671875">
        <ele>345</ele>
        <time>2025-04-29T22:01:15.000Z</time>
        <extensions>
          <ns3:TrackPointExtension/>
        </extensions>
      </trkpt>
      <trkpt lat="50.4237429611384868621826171875" lon="6.03340798057615756988525390625">
        <ele>344.600006103515625</ele>
        <time>2025-04-29T22:01:19.000Z</time>
        <extensions>
          <ns3:TrackPointExtension/>
        </extensions>
      </trkpt>
      <trkpt lat="50.4239159636199474334716796875" lon="6.03380897082388401031494140625">
        <ele>343.600006103515625</ele>
        <time>2025-04-29T22:01:23.000Z</time>
        <extensions>
          <ns3:TrackPointExtension/>
        </extensions>
      </trkpt>
      <trkpt lat="50.42398896999657154083251953125" lon="6.03438296355307102203369140625">
        <ele>344.20001220703125</ele>
        <time>2025-04-29T22:01:27.000Z</time>
        <extensions>
          <ns3:TrackPointExtension/>
        </extensions>
      </trkpt>
      <trkpt lat="50.4239699430763721466064453125" lon="6.03542692959308624267578125">
        <ele>345</ele>
        <time>2025-04-29T22:01:32.000Z</time>
        <extensions>
          <ns3:TrackPointExtension/>
        </extensions>
      </trkpt>
      <trkpt lat="50.42398293502628803253173828125" lon="6.03559699840843677520751953125">
        <ele>345.20001220703125</ele>
        <time>2025-04-29T22:01:36.000Z</time>
        <extensions>
          <ns3:TrackPointExtension/>
        </extensions>
      </trkpt>
      <trkpt lat="50.4240339808166027069091796875" lon="6.03581291623413562774658203125">
        <ele>345.399993896484375</ele>
        <time>2025-04-29T22:01:40.000Z</time>
        <extensions>
          <ns3:TrackPointExtension/>
        </extensions>
      </trkpt>
      <trkpt lat="50.4244879446923732757568359375" lon="6.03688898496329784393310546875">
        <ele>348.399993896484375</ele>
        <time>2025-04-29T22:01:44.000Z</time>
        <extensions>
          <ns3:TrackPointExtension/>
        </extensions>
      </trkpt>
      <trkpt lat="50.42449993081390857696533203125" lon="6.03699996136128902435302734375">
        <ele>349.399993896484375</ele>
        <time>2025-04-29T22:01:48.000Z</time>
        <extensions>
          <ns3:TrackPointExtension/>
        </extensions>
      </trkpt>
      <trkpt lat="50.42448199354112148284912109375" lon="6.03719794191420078277587890625">
        <ele>350.79998779296875</ele>
        <time>2025-04-29T22:01:53.000Z</time>
        <extensions>
          <ns3:TrackPointExtension/>
        </extensions>
      </trkpt>
      <trkpt lat="50.42372795753180980682373046875" lon="6.03926693089306354522705078125">
        <ele>357.20001220703125</ele>
        <time>2025-04-29T22:01:57.000Z</time>
        <extensions>
          <ns3:TrackPointExtension/>
        </extensions>
      </trkpt>
      <trkpt lat="50.423659980297088623046875" lon="6.0394839383661746978759765625">
        <ele>358.399993896484375</ele>
        <time>2025-04-29T22:02:01.000Z</time>
        <extensions>
          <ns3:TrackPointExtension/>
        </extensions>
      </trkpt>
      <trkpt lat="50.42327198199927806854248046875" lon="6.04096292518079280853271484375">
        <ele>363</ele>
        <time>2025-04-29T22:02:05.000Z</time>
        <extensions>
          <ns3:TrackPointExtension/>
        </extensions>
      </trkpt>
      <trkpt lat="50.4230519570410251617431640625" lon="6.041867919266223907470703125">
        <ele>359.399993896484375</ele>
        <time>2025-04-29T22:02:09.000Z</time>
        <extensions>
          <ns3:TrackPointExtension/>
        </extensions>
      </trkpt>
      <trkpt lat="50.42304097674787044525146484375" lon="6.042048968374729156494140625">
        <ele>360</ele>
        <time>2025-04-29T22:02:14.000Z</time>
        <extensions>
          <ns3:TrackPointExtension/>
        </extensions>
      </trkpt>
      <trkpt lat="50.42305991984903812408447265625" lon="6.0421399958431720733642578125">
        <ele>360.20001220703125</ele>
        <time>2025-04-29T22:02:18.000Z</time>
        <extensions>
          <ns3:TrackPointExtension/>
        </extensions>
      </trkpt>
      <trkpt lat="50.42292396537959575653076171875" lon="6.042329929769039154052734375">
        <ele>358.79998779296875</ele>
        <time>2025-04-29T22:02:49.000Z</time>
        <extensions>
          <ns3:TrackPointExtension/>
        </extensions>
      </trkpt>
      <trkpt lat="50.422675944864749908447265625" lon="6.0428769327700138092041015625">
        <ele>361.600006103515625</ele>
        <time>2025-04-29T22:03:20.000Z</time>
        <extensions>
          <ns3:TrackPointExtension/>
        </extensions>
      </trkpt>
      <trkpt lat="50.42246698401868343353271484375" lon="6.0431389510631561279296875">
        <ele>366.79998779296875</ele>
        <time>2025-04-29T22:03:50.000Z</time>
        <extensions>
          <ns3:TrackPointExtension/>
        </extensions>
      </trkpt>
      <trkpt lat="50.42188092134892940521240234375" lon="6.0433929227292537689208984375">
        <ele>372.600006103515625</ele>
        <time>2025-04-29T22:04:21.000Z</time>
        <extensions>
          <ns3:TrackPointExtension/>
        </extensions>
      </trkpt>
      <trkpt lat="50.42157297022640705108642578125" lon="6.04350297711789608001708984375">
        <ele>374</ele>
        <time>2025-04-29T22:04:52.000Z</time>
        <extensions>
          <ns3:TrackPointExtension/>
        </extensions>
      </trkpt>
      <trkpt lat="50.42136794887483119964599609375" lon="6.04370799846947193145751953125">
        <ele>375.20001220703125</ele>
        <time>2025-04-29T22:05:23.000Z</time>
        <extensions>
          <ns3:TrackPointExtension/>
        </extensions>
      </trkpt>
      <trkpt lat="50.42122294194996356964111328125" lon="6.0439699329435825347900390625">
        <ele>378</ele>
        <time>2025-04-29T22:05:54.000Z</time>
        <extensions>
          <ns3:TrackPointExtension/>
        </extensions>
      </trkpt>
      <trkpt lat="50.42088196612894535064697265625" lon="6.0445149242877960205078125">
        <ele>379.399993896484375</ele>
        <time>2025-04-29T22:06:25.000Z</time>
        <extensions>
          <ns3:TrackPointExtension/>
        </extensions>
      </trkpt>
      <trkpt lat="50.4207529686391353607177734375" lon="6.04479194618761539459228515625">
        <ele>380</ele>
        <time>2025-04-29T22:06:56.000Z</time>
        <extensions>
          <ns3:TrackPointExtension/>
        </extensions>
      </trkpt>
      <trkpt lat="50.420662946999073028564453125" lon="6.0451209358870983123779296875">
        <ele>381.399993896484375</ele>
        <time>2025-04-29T22:07:27.000Z</time>
        <extensions>
          <ns3:TrackPointExtension/>
        </extensions>
      </trkpt>
      <trkpt lat="50.4205769486725330352783203125" lon="6.0455339960753917694091796875">
        <ele>381.399993896484375</ele>
        <time>2025-04-29T22:07:57.000Z</time>
        <extensions>
          <ns3:TrackPointExtension/>
        </extensions>
      </trkpt>
      <trkpt lat="50.420613996684551239013671875" lon="6.04605996049940586090087890625">
        <ele>381.399993896484375</ele>
        <time>2025-04-29T22:08:28.000Z</time>
        <extensions>
          <ns3:TrackPointExtension/>
        </extensions>
      </trkpt>
      <trkpt lat="50.42102697305381298065185546875" lon="6.0460409335792064666748046875">
        <ele>388.20001220703125</ele>
        <time>2025-04-29T22:08:32.000Z</time>
        <extensions>
          <ns3:TrackPointExtension/>
        </extensions>
      </trkpt>
      <trkpt lat="50.42114499025046825408935546875" lon="6.04600396938621997833251953125">
        <ele>389.600006103515625</ele>
        <time>2025-04-29T22:08:36.000Z</time>
        <extensions>
          <ns3:TrackPointExtension/>
        </extensions>
      </trkpt>
      <trkpt lat="50.421238951385021209716796875" lon="6.0459319688379764556884765625">
        <ele>390.399993896484375</ele>
        <time>2025-04-29T22:08:40.000Z</time>
        <extensions>
          <ns3:TrackPointExtension/>
        </extensions>
      </trkpt>
      <trkpt lat="50.42137599550187587738037109375" lon="6.046066917479038238525390625">
        <ele>392.399993896484375</ele>
        <time>2025-04-29T22:08:53.000Z</time>
        <extensions>
          <ns3:TrackPointExtension/>
        </extensions>
      </trkpt>
      <trkpt lat="50.4220129363238811492919921875" lon="6.04735094122588634490966796875">
        <ele>402.600006103515625</ele>
        <time>2025-04-29T22:09:05.000Z</time>
        <extensions>
          <ns3:TrackPointExtension/>
        </extensions>
      </trkpt>
      <trkpt lat="50.422216951847076416015625" lon="6.04761497117578983306884765625">
        <ele>405</ele>
        <time>2025-04-29T22:09:18.000Z</time>
        <extensions>
          <ns3:TrackPointExtension/>
        </extensions>
      </trkpt>
      <trkpt lat="50.42264199815690517425537109375" lon="6.04803792200982570648193359375">
        <ele>408.600006103515625</ele>
        <time>2025-04-29T22:09:30.000Z</time>
        <extensions>
          <ns3:TrackPointExtension/>
        </extensions>
      </trkpt>
      <trkpt lat="50.42286395095288753509521484375" lon="6.0483489744365215301513671875">
        <ele>411.20001220703125</ele>
        <time>2025-04-29T22:09:43.000Z</time>
        <extensions>
          <ns3:TrackPointExtension/>
        </extensions>
      </trkpt>
      <trkpt lat="50.42298397980630397796630859375" lon="6.04870797134935855865478515625">
        <ele>412.600006103515625</ele>
        <time>2025-04-29T22:09:56.000Z</time>
        <extensions>
          <ns3:TrackPointExtension/>
        </extensions>
      </trkpt>
      <trkpt lat="50.42311691679060459136962890625" lon="6.04891198687255382537841796875">
        <ele>413.79998779296875</ele>
        <time>2025-04-29T22:10:08.000Z</time>
        <extensions>
          <ns3:TrackPointExtension/>
        </extensions>
      </trkpt>
      <trkpt lat="50.4232879914343357086181640625" lon="6.04895993135869503021240234375">
        <ele>415.79998779296875</ele>
        <time>2025-04-29T22:10:21.000Z</time>
        <extensions>
          <ns3:TrackPointExtension/>
        </extensions>
      </trkpt>
      <trkpt lat="50.4238539375364780426025390625" lon="6.04905799962580204010009765625">
        <ele>423.79998779296875</ele>
        <time>2025-04-29T22:10:33.000Z</time>
        <extensions>
          <ns3:TrackPointExtension/>
        </extensions>
      </trkpt>
      <trkpt lat="50.4244029521942138671875" lon="6.04888197965919971466064453125">
        <ele>431.79998779296875</ele>
        <time>2025-04-29T22:10:46.000Z</time>
        <extensions>
          <ns3:TrackPointExtension/>
        </extensions>
      </trkpt>
      <trkpt lat="50.42467695660889148712158203125" lon="6.04891198687255382537841796875">
        <ele>438.399993896484375</ele>
        <time>2025-04-29T22:10:58.000Z</time>
        <extensions>
          <ns3:TrackPointExtension/>
        </extensions>
      </trkpt>
      <trkpt lat="50.4251849837601184844970703125" lon="6.04904693551361560821533203125">
        <ele>447.20001220703125</ele>
        <time>2025-04-29T22:11:11.000Z</time>
        <extensions>
          <ns3:TrackPointExtension/>
        </extensions>
      </trkpt>
      <trkpt lat="50.4256469942629337310791015625" lon="6.04937299154698848724365234375">
        <ele>452.399993896484375</ele>
        <time>2025-04-29T22:11:24.000Z</time>
        <extensions>
          <ns3:TrackPointExtension/>
        </extensions>
      </trkpt>
      <trkpt lat="50.42601294815540313720703125" lon="6.04951296932995319366455078125">
        <ele>458.600006103515625</ele>
        <time>2025-04-29T22:11:36.000Z</time>
        <extensions>
          <ns3:TrackPointExtension/>
        </extensions>
      </trkpt>
      <trkpt lat="50.42618192732334136962890625" lon="6.04968597181141376495361328125">
        <ele>461.600006103515625</ele>
        <time>2025-04-29T22:11:49.000Z</time>
        <extensions>
          <ns3:TrackPointExtension/>
        </extensions>
      </trkpt>
      <trkpt lat="50.42640999890863895416259765625" lon="6.04996894486248493194580078125">
        <ele>465.399993896484375</ele>
        <time>2025-04-29T22:12:01.000Z</time>
        <extensions>
          <ns3:TrackPointExtension/>
        </extensions>
      </trkpt>
      <trkpt lat="50.42651594616472721099853515625" lon="6.05031796731054782867431640625">
        <ele>467.20001220703125</ele>
        <time>2025-04-29T22:12:14.000Z</time>
        <extensions>
          <ns3:TrackPointExtension/>
        </extensions>
      </trkpt>
      <trkpt lat="50.42659096419811248779296875" lon="6.05068492703139781951904296875">
        <ele>470</ele>
        <time>2025-04-29T22:12:26.000Z</time>
        <extensions>
          <ns3:TrackPointExtension/>
        </extensions>
      </trkpt>
      <trkpt lat="50.4267889447510242462158203125" lon="6.051197983324527740478515625">
        <ele>475.79998779296875</ele>
        <time>2025-04-29T22:12:39.000Z</time>
        <extensions>
          <ns3:TrackPointExtension/>
        </extensions>
      </trkpt>
      <trkpt lat="50.42700192891061305999755859375" lon="6.0515729896724224090576171875">
        <ele>477.79998779296875</ele>
        <time>2025-04-29T22:12:52.000Z</time>
        <extensions>
          <ns3:TrackPointExtension/>
        </extensions>
      </trkpt>
      <trkpt lat="50.42720393277704715728759765625" lon="6.05189292691648006439208984375">
        <ele>480</ele>
        <time>2025-04-29T22:13:04.000Z</time>
        <extensions>
          <ns3:TrackPointExtension/>
        </extensions>
      </trkpt>
      <trkpt lat="50.4274259693920612335205078125" lon="6.0522029735147953033447265625">
        <ele>482</ele>
        <time>2025-04-29T22:13:17.000Z</time>
        <extensions>
          <ns3:TrackPointExtension/>
        </extensions>
      </trkpt>
      <trkpt lat="50.427854955196380615234375" lon="6.05292893014848232269287109375">
        <ele>490.600006103515625</ele>
        <time>2025-04-29T22:13:29.000Z</time>
        <extensions>
          <ns3:TrackPointExtension/>
        </extensions>
      </trkpt>
      <trkpt lat="50.42858493514358997344970703125" lon="6.0538139753043651580810546875">
        <ele>497.399993896484375</ele>
        <time>2025-04-29T22:13:42.000Z</time>
        <extensions>
          <ns3:TrackPointExtension/>
        </extensions>
      </trkpt>
      <trkpt lat="50.42882398702204227447509765625" lon="6.05420599691569805145263671875">
        <ele>499.399993896484375</ele>
        <time>2025-04-29T22:13:54.000Z</time>
        <extensions>
          <ns3:TrackPointExtension/>
        </extensions>
      </trkpt>
      <trkpt lat="50.42974197305738925933837890625" lon="6.0557319223880767822265625">
        <ele>500.79998779296875</ele>
        <time>2025-04-29T22:14:07.000Z</time>
        <extensions>
          <ns3:TrackPointExtension/>
        </extensions>
      </trkpt>
      <trkpt lat="50.430680997669696807861328125" lon="6.05704595334827899932861328125">
        <ele>500</ele>
        <time>2025-04-29T22:14:20.000Z</time>
        <extensions>
          <ns3:TrackPointExtension/>
        </extensions>
      </trkpt>
      <trkpt lat="50.4309059679508209228515625" lon="6.05727293528616428375244140625">
        <ele>499.79998779296875</ele>
        <time>2025-04-29T22:14:32.000Z</time>
        <extensions>
          <ns3:TrackPointExtension/>
        </extensions>
      </trkpt>
      <trkpt lat="50.431993938982486724853515625" lon="6.0578939504921436309814453125">
        <ele>494.399993896484375</ele>
        <time>2025-04-29T22:14:45.000Z</time>
        <extensions>
          <ns3:TrackPointExtension/>
        </extensions>
      </trkpt>
      <trkpt lat="50.4322819411754608154296875" lon="6.0581859759986400604248046875">
        <ele>490.600006103515625</ele>
        <time>2025-04-29T22:14:57.000Z</time>
        <extensions>
          <ns3:TrackPointExtension/>
        </extensions>
      </trkpt>
      <trkpt lat="50.4323999583721160888671875" lon="6.05822595767676830291748046875">
        <ele>489.600006103515625</ele>
        <time>2025-04-29T22:15:10.000Z</time>
        <extensions>
          <ns3:TrackPointExtension/>
        </extensions>
      </trkpt>
      <trkpt lat="50.4335779510438442230224609375" lon="6.05810995213687419891357421875">
        <ele>489.20001220703125</ele>
        <time>2025-04-29T22:15:23.000Z</time>
        <extensions>
          <ns3:TrackPointExtension/>
        </extensions>
      </trkpt>
      <trkpt lat="50.43379093520343303680419921875" lon="6.0581759177148342132568359375">
        <ele>490.600006103515625</ele>
        <time>2025-04-29T22:15:35.000Z</time>
        <extensions>
          <ns3:TrackPointExtension/>
        </extensions>
      </trkpt>
      <trkpt lat="50.43393594212830066680908203125" lon="6.05860792100429534912109375">
        <ele>488.399993896484375</ele>
        <time>2025-04-29T22:15:42.000Z</time>
        <extensions>
          <ns3:TrackPointExtension/>
        </extensions>
      </trkpt>
      <trkpt lat="50.43411196209490299224853515625" lon="6.05900497175753116607666015625">
        <ele>486.20001220703125</ele>
        <time>2025-04-29T22:15:48.000Z</time>
        <extensions>
          <ns3:TrackPointExtension/>
        </extensions>
      </trkpt>
      <trkpt lat="50.434354953467845916748046875" lon="6.05949698947370052337646484375">
        <ele>484</ele>
        <time>2025-04-29T22:15:54.000Z</time>
        <extensions>
          <ns3:TrackPointExtension/>
        </extensions>
      </trkpt>
      <trkpt lat="50.43494294397532939910888671875" lon="6.0605989582836627960205078125">
        <ele>482.20001220703125</ele>
        <time>2025-04-29T22:16:01.000Z</time>
        <extensions>
          <ns3:TrackPointExtension/>
        </extensions>
      </trkpt>
      <trkpt lat="50.43502491898834705352783203125" lon="6.06078294105827808380126953125">
        <ele>482.399993896484375</ele>
        <time>2025-04-29T22:16:07.000Z</time>
        <extensions>
          <ns3:TrackPointExtension/>
        </extensions>
      </trkpt>
      <trkpt lat="50.43538198806345462799072265625" lon="6.06168399564921855926513671875">
        <ele>484.399993896484375</ele>
        <time>2025-04-29T22:16:14.000Z</time>
        <extensions>
          <ns3:TrackPointExtension/>
        </extensions>
      </trkpt>
      <trkpt lat="50.435616932809352874755859375" lon="6.0626069270074367523193359375">
        <ele>486</ele>
        <time>2025-04-29T22:16:20.000Z</time>
        <extensions>
          <ns3:TrackPointExtension/>
        </extensions>
      </trkpt>
      <trkpt lat="50.43580695055425167083740234375" lon="6.06311093084514141082763671875">
        <ele>487</ele>
        <time>2025-04-29T22:16:27.000Z</time>
        <extensions>
          <ns3:TrackPointExtension/>
        </extensions>
      </trkpt>
      <trkpt lat="50.43603493832051753997802734375" lon="6.06363194994628429412841796875">
        <ele>488.600006103515625</ele>
        <time>2025-04-29T22:16:33.000Z</time>
        <extensions>
          <ns3:TrackPointExtension/>
        </extensions>
      </trkpt>
      <trkpt lat="50.43655897490680217742919921875" lon="6.06446796096861362457275390625">
        <ele>488.600006103515625</ele>
        <time>2025-04-29T22:16:40.000Z</time>
        <extensions>
          <ns3:TrackPointExtension/>
        </extensions>
      </trkpt>
      <trkpt lat="50.43641899712383747100830078125" lon="6.0649139620363712310791015625">
        <ele>486.600006103515625</ele>
        <time>2025-04-29T22:16:43.000Z</time>
        <extensions>
          <ns3:TrackPointExtension/>
        </extensions>
      </trkpt>
      <trkpt lat="50.43621598742902278900146484375" lon="6.06515997089445590972900390625">
        <ele>485.399993896484375</ele>
        <time>2025-04-29T22:16:46.000Z</time>
        <extensions>
          <ns3:TrackPointExtension/>
        </extensions>
      </trkpt>
      <trkpt lat="50.4355349577963352203369140625" lon="6.0657729394733905792236328125">
        <ele>484.20001220703125</ele>
        <time>2025-04-29T22:16:50.000Z</time>
        <extensions>
          <ns3:TrackPointExtension/>
        </extensions>
      </trkpt>
      <trkpt lat="50.43529096059501171112060546875" lon="6.0662349499762058258056640625">
        <ele>485.20001220703125</ele>
        <time>2025-04-29T22:16:53.000Z</time>
        <extensions>
          <ns3:TrackPointExtension/>
        </extensions>
      </trkpt>
      <trkpt lat="50.4347279481589794158935546875" lon="6.067191995680332183837890625">
        <ele>486.399993896484375</ele>
        <time>2025-04-29T22:16:56.000Z</time>
        <extensions>
          <ns3:TrackPointExtension/>
        </extensions>
      </trkpt>
      <trkpt lat="50.43385296128690242767333984375" lon="6.068221963942050933837890625">
        <ele>486</ele>
        <time>2025-04-29T22:17:00.000Z</time>
        <extensions>
          <ns3:TrackPointExtension/>
        </extensions>
      </trkpt>
      <trkpt lat="50.4334119893610477447509765625" lon="6.0690559633076190948486328125">
        <ele>485.79998779296875</ele>
        <time>2025-04-29T22:17:03.000Z</time>
        <extensions>
          <ns3:TrackPointExtension/>
        </extensions>
      </trkpt>
      <trkpt lat="50.43279298581182956695556640625" lon="6.07126199640333652496337890625">
        <ele>494</ele>
        <time>2025-04-29T22:17:07.000Z</time>
        <extensions>
          <ns3:TrackPointExtension/>
        </extensions>
      </trkpt>
      <trkpt lat="50.432634986937046051025390625" lon="6.07169098220765590667724609375">
        <ele>494.600006103515625</ele>
        <time>2025-04-29T22:17:10.000Z</time>
        <extensions>
          <ns3:TrackPointExtension/>
        </extensions>
      </trkpt>
      <trkpt lat="50.4320199228823184967041015625" lon="6.07286897487938404083251953125">
        <ele>493.79998779296875</ele>
        <time>2025-04-29T22:17:13.000Z</time>
        <extensions>
          <ns3:TrackPointExtension/>
        </extensions>
      </trkpt>
      <trkpt lat="50.43181196786463260650634765625" lon="6.07337892986834049224853515625">
        <ele>493.399993896484375</ele>
        <time>2025-04-29T22:17:17.000Z</time>
        <extensions>
          <ns3:TrackPointExtension/>
        </extensions>
      </trkpt>
      <trkpt lat="50.43161599896848201751708984375" lon="6.0741159506142139434814453125">
        <ele>494.399993896484375</ele>
        <time>2025-04-29T22:17:20.000Z</time>
        <extensions>
          <ns3:TrackPointExtension/>
        </extensions>
      </trkpt>
      <trkpt lat="50.43159596621990203857421875" lon="6.07435491867363452911376953125">
        <ele>494.20001220703125</ele>
        <time>2025-04-29T22:17:23.000Z</time>
        <extensions>
          <ns3:TrackPointExtension/>
        </extensions>
      </trkpt>
      <trkpt lat="50.431590937077999114990234375" lon="6.07519797049462795257568359375">
        <ele>496.20001220703125</ele>
        <time>2025-04-29T22:17:27.000Z</time>
        <extensions>
          <ns3:TrackPointExtension/>
        </extensions>
      </trkpt>
      <trkpt lat="50.43160594068467617034912109375" lon="6.07827899046242237091064453125">
        <ele>512.79998779296875</ele>
        <time>2025-04-29T22:17:30.000Z</time>
        <extensions>
          <ns3:TrackPointExtension/>
        </extensions>
      </trkpt>
      <trkpt lat="50.43166595511138439178466796875" lon="6.07881291769444942474365234375">
        <ele>516.4000244140625</ele>
        <time>2025-04-29T22:17:34.000Z</time>
        <extensions>
          <ns3:TrackPointExtension/>
        </extensions>
      </trkpt>
      <trkpt lat="50.431826971471309661865234375" lon="6.07963099144399166107177734375">
        <ele>521</ele>
        <time>2025-04-29T22:17:37.000Z</time>
        <extensions>
          <ns3:TrackPointExtension/>
        </extensions>
      </trkpt>
      <trkpt lat="50.43184599839150905609130859375" lon="6.079949922859668731689453125">
        <ele>523</ele>
        <time>2025-04-29T22:17:40.000Z</time>
        <extensions>
          <ns3:TrackPointExtension/>
        </extensions>
      </trkpt>
      <trkpt lat="50.4317999817430973052978515625" lon="6.08049499802291393280029296875">
        <ele>527.5999755859375</ele>
        <time>2025-04-29T22:17:44.000Z</time>
        <extensions>
          <ns3:TrackPointExtension/>
        </extensions>
      </trkpt>
      <trkpt lat="50.4317349381744861602783203125" lon="6.0808529891073703765869140625">
        <ele>529.79998779296875</ele>
        <time>2025-04-29T22:17:47.000Z</time>
        <extensions>
          <ns3:TrackPointExtension/>
        </extensions>
      </trkpt>
      <trkpt lat="50.4315029270946979522705078125" lon="6.0816589929163455963134765625">
        <ele>530</ele>
        <time>2025-04-29T22:17:50.000Z</time>
        <extensions>
          <ns3:TrackPointExtension/>
        </extensions>
      </trkpt>
      <trkpt lat="50.43149597011506557464599609375" lon="6.08186795376241207122802734375">
        <ele>531.79998779296875</ele>
        <time>2025-04-29T22:17:54.000Z</time>
        <extensions>
          <ns3:TrackPointExtension/>
        </extensions>
      </trkpt>
      <trkpt lat="50.431529916822910308837890625" lon="6.0821189917623996734619140625">
        <ele>534</ele>
        <time>2025-04-29T22:17:57.000Z</time>
        <extensions>
          <ns3:TrackPointExtension/>
        </extensions>
      </trkpt>
      <trkpt lat="50.4316209442913532257080078125" lon="6.0825199820101261138916015625">
        <ele>536</ele>
        <time>2025-04-29T22:18:00.000Z</time>
        <extensions>
          <ns3:TrackPointExtension/>
        </extensions>
      </trkpt>
      <trkpt lat="50.4317159950733184814453125" lon="6.08304494060575962066650390625">
        <ele>535.5999755859375</ele>
        <time>2025-04-29T22:18:04.000Z</time>
        <extensions>
          <ns3:TrackPointExtension/>
        </extensions>
      </trkpt>
      <trkpt lat="50.43198999948799610137939453125" lon="6.08423198573291301727294921875">
        <ele>537.5999755859375</ele>
        <time>2025-04-29T22:18:07.000Z</time>
        <extensions>
          <ns3:TrackPointExtension/>
        </extensions>
      </trkpt>
      <trkpt lat="50.43211899697780609130859375" lon="6.0846509970724582672119140625">
        <ele>541</ele>
        <time>2025-04-29T22:18:11.000Z</time>
        <extensions>
          <ns3:TrackPointExtension/>
        </extensions>
      </trkpt>
      <trkpt lat="50.4321399517357349395751953125" lon="6.0847549326717853546142578125">
        <ele>541.4000244140625</ele>
        <time>2025-04-29T22:18:14.000Z</time>
        <extensions>
          <ns3:TrackPointExtension/>
        </extensions>
      </trkpt>
      <trkpt lat="50.4321449808776378631591796875" lon="6.08495199121534824371337890625">
        <ele>542</ele>
        <time>2025-04-29T22:18:17.000Z</time>
        <extensions>
          <ns3:TrackPointExtension/>
        </extensions>
      </trkpt>
      <trkpt lat="50.43210499919950962066650390625" lon="6.08508593402802944183349609375">
        <ele>542.4000244140625</ele>
        <time>2025-04-29T22:18:21.000Z</time>
        <extensions>
          <ns3:TrackPointExtension/>
        </extensions>
      </trkpt>
      <trkpt lat="50.431999973952770233154296875" lon="6.0852169431746006011962890625">
        <ele>542.4000244140625</ele>
        <time>2025-04-29T22:18:24.000Z</time>
        <extensions>
          <ns3:TrackPointExtension/>
        </extensions>
      </trkpt>
      <trkpt lat="50.43187893927097320556640625" lon="6.0852829925715923309326171875">
        <ele>543</ele>
        <time>2025-04-29T22:18:27.000Z</time>
        <extensions>
          <ns3:TrackPointExtension/>
        </extensions>
      </trkpt>
      <trkpt lat="50.43171993456780910491943359375" lon="6.0853059589862823486328125">
        <ele>543.5999755859375</ele>
        <time>2025-04-29T22:18:31.000Z</time>
        <extensions>
          <ns3:TrackPointExtension/>
        </extensions>
      </trkpt>
      <trkpt lat="50.4312839917838573455810546875" lon="6.0852769576013088226318359375">
        <ele>543.20001220703125</ele>
        <time>2025-04-29T22:18:34.000Z</time>
        <extensions>
          <ns3:TrackPointExtension/>
        </extensions>
      </trkpt>
      <trkpt lat="50.43059793300926685333251953125" lon="6.0852759517729282379150390625">
        <ele>546.4000244140625</ele>
        <time>2025-04-29T22:18:38.000Z</time>
        <extensions>
          <ns3:TrackPointExtension/>
        </extensions>
      </trkpt>
      <trkpt lat="50.43054495938122272491455078125" lon="6.08529095537960529327392578125">
        <ele>546.79998779296875</ele>
        <time>2025-04-29T22:18:41.000Z</time>
        <extensions>
          <ns3:TrackPointExtension/>
        </extensions>
      </trkpt>
      <trkpt lat="50.43049491941928863525390625" lon="6.0853409953415393829345703125">
        <ele>547.20001220703125</ele>
        <time>2025-04-29T22:18:44.000Z</time>
        <extensions>
          <ns3:TrackPointExtension/>
        </extensions>
      </trkpt>
      <trkpt lat="50.43042794801294803619384765625" lon="6.0855109803378582000732421875">
        <ele>548.5999755859375</ele>
        <time>2025-04-29T22:18:48.000Z</time>
        <extensions>
          <ns3:TrackPointExtension/>
        </extensions>
      </trkpt>
      <trkpt lat="50.430334992706775665283203125" lon="6.08638496138155460357666015625">
        <ele>556.5999755859375</ele>
        <time>2025-04-29T22:18:51.000Z</time>
        <extensions>
          <ns3:TrackPointExtension/>
        </extensions>
      </trkpt>
      <trkpt lat="50.43028696440160274505615234375" lon="6.08655092306435108184814453125">
        <ele>558.5999755859375</ele>
        <time>2025-04-29T22:18:54.000Z</time>
        <extensions>
          <ns3:TrackPointExtension/>
        </extensions>
      </trkpt>
      <trkpt lat="50.43003098107874393463134765625" lon="6.0871729440987110137939453125">
        <ele>566</ele>
        <time>2025-04-29T22:18:58.000Z</time>
        <extensions>
          <ns3:TrackPointExtension/>
        </extensions>
      </trkpt>
      <trkpt lat="50.42986191809177398681640625" lon="6.0875729285180568695068359375">
        <ele>568.79998779296875</ele>
        <time>2025-04-29T22:19:01.000Z</time>
        <extensions>
          <ns3:TrackPointExtension/>
        </extensions>
      </trkpt>
      <trkpt lat="50.42948699556291103363037109375" lon="6.08829192817211151123046875">
        <ele>570.5999755859375</ele>
        <time>2025-04-29T22:19:04.000Z</time>
        <extensions>
          <ns3:TrackPointExtension/>
        </extensions>
      </trkpt>
      <trkpt lat="50.429184995591640472412109375" lon="6.088581942021846771240234375">
        <ele>570.20001220703125</ele>
        <time>2025-04-29T22:19:08.000Z</time>
        <extensions>
          <ns3:TrackPointExtension/>
        </extensions>
      </trkpt>
      <trkpt lat="50.42912296950817108154296875" lon="6.0886649228632450103759765625">
        <ele>569.79998779296875</ele>
        <time>2025-04-29T22:19:11.000Z</time>
        <extensions>
          <ns3:TrackPointExtension/>
        </extensions>
      </trkpt>
      <trkpt lat="50.4290869273245334625244140625" lon="6.08874597586691379547119140625">
        <ele>568.79998779296875</ele>
        <time>2025-04-29T22:19:15.000Z</time>
        <extensions>
          <ns3:TrackPointExtension/>
        </extensions>
      </trkpt>
      <trkpt lat="50.429061949253082275390625" lon="6.08888293616473674774169921875">
        <ele>567.20001220703125</ele>
        <time>2025-04-29T22:19:18.000Z</time>
        <extensions>
          <ns3:TrackPointExtension/>
        </extensions>
      </trkpt>
      <trkpt lat="50.429061949253082275390625" lon="6.0890169627964496612548828125">
        <ele>565.79998779296875</ele>
        <time>2025-04-29T22:19:21.000Z</time>
        <extensions>
          <ns3:TrackPointExtension/>
        </extensions>
      </trkpt>
      <trkpt lat="50.4290859214961528778076171875" lon="6.0891269333660602569580078125">
        <ele>564.79998779296875</ele>
        <time>2025-04-29T22:19:25.000Z</time>
        <extensions>
          <ns3:TrackPointExtension/>
        </extensions>
      </trkpt>
      <trkpt lat="50.42922891676425933837890625" lon="6.08952398411929607391357421875">
        <ele>560.79998779296875</ele>
        <time>2025-04-29T22:19:28.000Z</time>
        <extensions>
          <ns3:TrackPointExtension/>
        </extensions>
      </trkpt>
      <trkpt lat="50.4293289966881275177001953125" lon="6.08986898325383663177490234375">
        <ele>557.4000244140625</ele>
        <time>2025-04-29T22:19:31.000Z</time>
        <extensions>
          <ns3:TrackPointExtension/>
        </extensions>
      </trkpt>
      <trkpt lat="50.42934693396091461181640625" lon="6.0899889282882213592529296875">
        <ele>556.5999755859375</ele>
        <time>2025-04-29T22:19:35.000Z</time>
        <extensions>
          <ns3:TrackPointExtension/>
        </extensions>
      </trkpt>
      <trkpt lat="50.429343916475772857666015625" lon="6.09017492271959781646728515625">
        <ele>555</ele>
        <time>2025-04-29T22:19:38.000Z</time>
        <extensions>
          <ns3:TrackPointExtension/>
        </extensions>
      </trkpt>
      <trkpt lat="50.42924492619931697845458984375" lon="6.09075495041906833648681640625">
        <ele>552.5999755859375</ele>
        <time>2025-04-29T22:19:41.000Z</time>
        <extensions>
          <ns3:TrackPointExtension/>
        </extensions>
      </trkpt>
      <trkpt lat="50.429182983934879302978515625" lon="6.09092191793024539947509765625">
        <ele>552.20001220703125</ele>
        <time>2025-04-29T22:19:45.000Z</time>
        <extensions>
          <ns3:TrackPointExtension/>
        </extensions>
      </trkpt>
      <trkpt lat="50.429066978394985198974609375" lon="6.09113297425210475921630859375">
        <ele>550.79998779296875</ele>
        <time>2025-04-29T22:19:48.000Z</time>
        <extensions>
          <ns3:TrackPointExtension/>
        </extensions>
      </trkpt>
      <trkpt lat="50.42864193208515644073486328125" lon="6.09168894588947296142578125">
        <ele>544.4000244140625</ele>
        <time>2025-04-29T22:19:52.000Z</time>
        <extensions>
          <ns3:TrackPointExtension/>
        </extensions>
      </trkpt>
      <trkpt lat="50.4285719431936740875244140625" lon="6.09190293587744235992431640625">
        <ele>543.5999755859375</ele>
        <time>2025-04-29T22:19:55.000Z</time>
        <extensions>
          <ns3:TrackPointExtension/>
        </extensions>
      </trkpt>
      <trkpt lat="50.42852994985878467559814453125" lon="6.09215699136257171630859375">
        <ele>542.79998779296875</ele>
        <time>2025-04-29T22:19:58.000Z</time>
        <extensions>
          <ns3:TrackPointExtension/>
        </extensions>
      </trkpt>
      <trkpt lat="50.428543947637081146240234375" lon="6.09276995994150638580322265625">
        <ele>540.4000244140625</ele>
        <time>2025-04-29T22:20:02.000Z</time>
        <extensions>
          <ns3:TrackPointExtension/>
        </extensions>
      </trkpt>
      <trkpt lat="50.42862298898398876190185546875" lon="6.0940849967300891876220703125">
        <ele>535.4000244140625</ele>
        <time>2025-04-29T22:20:05.000Z</time>
        <extensions>
          <ns3:TrackPointExtension/>
        </extensions>
      </trkpt>
      <trkpt lat="50.42861393652856349945068359375" lon="6.09432899393141269683837890625">
        <ele>533.4000244140625</ele>
        <time>2025-04-29T22:20:08.000Z</time>
        <extensions>
          <ns3:TrackPointExtension/>
        </extensions>
      </trkpt>
      <trkpt lat="50.42849591933190822601318359375" lon="6.094968952238559722900390625">
        <ele>529.4000244140625</ele>
        <time>2025-04-29T22:20:12.000Z</time>
        <extensions>
          <ns3:TrackPointExtension/>
        </extensions>
      </trkpt>
      <trkpt lat="50.42827396653592586517333984375" lon="6.09593194909393787384033203125">
        <ele>524.5999755859375</ele>
        <time>2025-04-29T22:20:15.000Z</time>
        <extensions>
          <ns3:TrackPointExtension/>
        </extensions>
      </trkpt>
      <trkpt lat="50.428205989301204681396484375" lon="6.0961459390819072723388671875">
        <ele>524</ele>
        <time>2025-04-29T22:20:19.000Z</time>
        <extensions>
          <ns3:TrackPointExtension/>
        </extensions>
      </trkpt>
      <trkpt lat="50.4279959388077259063720703125" lon="6.0970099456608295440673828125">
        <ele>522.79998779296875</ele>
        <time>2025-04-29T22:20:22.000Z</time>
        <extensions>
          <ns3:TrackPointExtension/>
        </extensions>
      </trkpt>
      <trkpt lat="50.4277679510414600372314453125" lon="6.097551919519901275634765625">
        <ele>521.4000244140625</ele>
        <time>2025-04-29T22:20:25.000Z</time>
        <extensions>
          <ns3:TrackPointExtension/>
        </extensions>
      </trkpt>
      <trkpt lat="50.4271939583122730255126953125" lon="6.09878598712384700775146484375">
        <ele>519</ele>
        <time>2025-04-29T22:20:29.000Z</time>
        <extensions>
          <ns3:TrackPointExtension/>
        </extensions>
      </trkpt>
      <trkpt lat="50.4270789586007595062255859375" lon="6.09906996600329875946044921875">
        <ele>518.79998779296875</ele>
        <time>2025-04-29T22:20:32.000Z</time>
        <extensions>
          <ns3:TrackPointExtension/>
        </extensions>
      </trkpt>
      <trkpt lat="50.4270849935710430145263671875" lon="6.09926794655621051788330078125">
        <ele>520.20001220703125</ele>
        <time>2025-04-29T22:20:36.000Z</time>
        <extensions>
          <ns3:TrackPointExtension/>
        </extensions>
      </trkpt>
      <trkpt lat="50.42702992446720600128173828125" lon="6.0995369218289852142333984375">
        <ele>521.5999755859375</ele>
        <time>2025-04-29T22:20:41.000Z</time>
        <extensions>
          <ns3:TrackPointExtension/>
        </extensions>
      </trkpt>
      <trkpt lat="50.42677695862948894500732421875" lon="6.10037393867969512939453125">
        <ele>527.4000244140625</ele>
        <time>2025-04-29T22:20:45.000Z</time>
        <extensions>
          <ns3:TrackPointExtension/>
        </extensions>
      </trkpt>
      <trkpt lat="50.4265659861266613006591796875" lon="6.10119997523725032806396484375">
        <ele>534.20001220703125</ele>
        <time>2025-04-29T22:20:50.000Z</time>
        <extensions>
          <ns3:TrackPointExtension/>
        </extensions>
      </trkpt>
      <trkpt lat="50.42652399279177188873291015625" lon="6.10176793299615383148193359375">
        <ele>536.5999755859375</ele>
        <time>2025-04-29T22:20:54.000Z</time>
        <extensions>
          <ns3:TrackPointExtension/>
        </extensions>
      </trkpt>
      <trkpt lat="50.42654293589293956756591796875" lon="6.10294491983950138092041015625">
        <ele>543.20001220703125</ele>
        <time>2025-04-29T22:20:59.000Z</time>
        <extensions>
          <ns3:TrackPointExtension/>
        </extensions>
      </trkpt>
      <trkpt lat="50.42651795782148838043212890625" lon="6.10525195486843585968017578125">
        <ele>545.4000244140625</ele>
        <time>2025-04-29T22:21:03.000Z</time>
        <extensions>
          <ns3:TrackPointExtension/>
        </extensions>
      </trkpt>
      <trkpt lat="50.42643598280847072601318359375" lon="6.10815091989934444427490234375">
        <ele>555.5999755859375</ele>
        <time>2025-04-29T22:21:08.000Z</time>
        <extensions>
          <ns3:TrackPointExtension/>
        </extensions>
      </trkpt>
      <trkpt lat="50.42648392729461193084716796875" lon="6.1084629781544208526611328125">
        <ele>554.20001220703125</ele>
        <time>2025-04-29T22:21:12.000Z</time>
        <extensions>
          <ns3:TrackPointExtension/>
        </extensions>
      </trkpt>
      <trkpt lat="50.4266819916665554046630859375" lon="6.1089129187166690826416015625">
        <ele>553.20001220703125</ele>
        <time>2025-04-29T22:21:17.000Z</time>
        <extensions>
          <ns3:TrackPointExtension/>
        </extensions>
      </trkpt>
      <trkpt lat="50.42700997553765773773193359375" lon="6.10948196612298488616943359375">
        <ele>555</ele>
        <time>2025-04-29T22:21:21.000Z</time>
        <extensions>
          <ns3:TrackPointExtension/>
        </extensions>
      </trkpt>
      <trkpt lat="50.42724198661744594573974609375" lon="6.10979293473064899444580078125">
        <ele>555.4000244140625</ele>
        <time>2025-04-29T22:21:26.000Z</time>
        <extensions>
          <ns3:TrackPointExtension/>
        </extensions>
      </trkpt>
      <trkpt lat="50.42882096953690052032470703125" lon="6.11103798262774944305419921875">
        <ele>553.79998779296875</ele>
        <time>2025-04-29T22:21:30.000Z</time>
        <extensions>
          <ns3:TrackPointExtension/>
        </extensions>
      </trkpt>
      <trkpt lat="50.42916295118629932403564453125" lon="6.11118399538099765777587890625">
        <ele>552.4000244140625</ele>
        <time>2025-04-29T22:21:34.000Z</time>
        <extensions>
          <ns3:TrackPointExtension/>
        </extensions>
      </trkpt>
      <trkpt lat="50.42987993918359279632568359375" lon="6.11158498562872409820556640625">
        <ele>555.5999755859375</ele>
        <time>2025-04-29T22:21:39.000Z</time>
        <extensions>
          <ns3:TrackPointExtension/>
        </extensions>
      </trkpt>
      <trkpt lat="50.430563986301422119140625" lon="6.11210994422435760498046875">
        <ele>556.20001220703125</ele>
        <time>2025-04-29T22:21:43.000Z</time>
        <extensions>
          <ns3:TrackPointExtension/>
        </extensions>
      </trkpt>
      <trkpt lat="50.4309299401938915252685546875" lon="6.11246994696557521820068359375">
        <ele>557.79998779296875</ele>
        <time>2025-04-29T22:21:48.000Z</time>
        <extensions>
          <ns3:TrackPointExtension/>
        </extensions>
      </trkpt>
      <trkpt lat="50.431083999574184417724609375" lon="6.112515963613986968994140625">
        <ele>557.5999755859375</ele>
        <time>2025-04-29T22:21:52.000Z</time>
        <extensions>
          <ns3:TrackPointExtension/>
        </extensions>
      </trkpt>
      <trkpt lat="50.431020967662334442138671875" lon="6.112689971923828125">
        <ele>557.20001220703125</ele>
        <time>2025-04-29T22:21:59.000Z</time>
        <extensions>
          <ns3:TrackPointExtension/>
        </extensions>
      </trkpt>
      <trkpt lat="50.43079398572444915771484375" lon="6.1131719313561916351318359375">
        <ele>557</ele>
        <time>2025-04-29T22:22:06.000Z</time>
        <extensions>
          <ns3:TrackPointExtension/>
        </extensions>
      </trkpt>
      <trkpt lat="50.43073891662061214447021484375" lon="6.11338893882930278778076171875">
        <ele>557.20001220703125</ele>
        <time>2025-04-29T22:22:14.000Z</time>
        <extensions>
          <ns3:TrackPointExtension/>
        </extensions>
      </trkpt>
      <trkpt lat="50.4307099990546703338623046875" lon="6.11367291770875453948974609375">
        <ele>556.4000244140625</ele>
        <time>2025-04-29T22:22:21.000Z</time>
        <extensions>
          <ns3:TrackPointExtension/>
        </extensions>
      </trkpt>
      <trkpt lat="50.43071896769106388092041015625" lon="6.11407893709838390350341796875">
        <ele>555.4000244140625</ele>
        <time>2025-04-29T22:22:28.000Z</time>
        <extensions>
          <ns3:TrackPointExtension/>
        </extensions>
      </trkpt>
      <trkpt lat="50.43099892325699329376220703125" lon="6.11537293531000614166259765625">
        <ele>555</ele>
        <time>2025-04-29T22:22:35.000Z</time>
        <extensions>
          <ns3:TrackPointExtension/>
        </extensions>
      </trkpt>
      <trkpt lat="50.43107092380523681640625" lon="6.11581399105489253997802734375">
        <ele>554.5999755859375</ele>
        <time>2025-04-29T22:22:42.000Z</time>
        <extensions>
          <ns3:TrackPointExtension/>
        </extensions>
      </trkpt>
      <trkpt lat="50.43123998679220676422119140625" lon="6.11638094298541545867919921875">
        <ele>552</ele>
        <time>2025-04-29T22:22:49.000Z</time>
        <extensions>
          <ns3:TrackPointExtension/>
        </extensions>
      </trkpt>
      <trkpt lat="50.43125398457050323486328125" lon="6.11661194823682308197021484375">
        <ele>551.4000244140625</ele>
        <time>2025-04-29T22:22:56.000Z</time>
        <extensions>
          <ns3:TrackPointExtension/>
        </extensions>
      </trkpt>
      <trkpt lat="50.43118198402225971221923828125" lon="6.11683599650859832763671875">
        <ele>551.5999755859375</ele>
        <time>2025-04-29T22:23:03.000Z</time>
        <extensions>
          <ns3:TrackPointExtension/>
        </extensions>
      </trkpt>
      <trkpt lat="50.43071595020592212677001953125" lon="6.11767695285379886627197265625">
        <ele>552.5999755859375</ele>
        <time>2025-04-29T22:23:10.000Z</time>
        <extensions>
          <ns3:TrackPointExtension/>
        </extensions>
      </trkpt>
      <trkpt lat="50.43008496053516864776611328125" lon="6.118782944977283477783203125">
        <ele>554.5999755859375</ele>
        <time>2025-04-29T22:23:17.000Z</time>
        <extensions>
          <ns3:TrackPointExtension/>
        </extensions>
      </trkpt>
      <trkpt lat="50.42979896999895572662353515625" lon="6.11991793848574161529541015625">
        <ele>553.79998779296875</ele>
        <time>2025-04-29T22:23:24.000Z</time>
        <extensions>
          <ns3:TrackPointExtension/>
        </extensions>
      </trkpt>
      <trkpt lat="50.42962295003235340118408203125" lon="6.1208239383995532989501953125">
        <ele>555.5999755859375</ele>
        <time>2025-04-29T22:23:31.000Z</time>
        <extensions>
          <ns3:TrackPointExtension/>
        </extensions>
      </trkpt>
      <trkpt lat="50.4292629472911357879638671875" lon="6.12230795435607433319091796875">
        <ele>555.5999755859375</ele>
        <time>2025-04-29T22:23:38.000Z</time>
        <extensions>
          <ns3:TrackPointExtension/>
        </extensions>
      </trkpt>
      <trkpt lat="50.4290309362113475799560546875" lon="6.12288597039878368377685546875">
        <ele>560</ele>
        <time>2025-04-29T22:23:45.000Z</time>
        <extensions>
          <ns3:TrackPointExtension/>
        </extensions>
      </trkpt>
      <trkpt lat="50.4285769723355770111083984375" lon="6.12392499111592769622802734375">
        <ele>561.5999755859375</ele>
        <time>2025-04-29T22:23:52.000Z</time>
        <extensions>
          <ns3:TrackPointExtension/>
        </extensions>
      </trkpt>
      <trkpt lat="50.4283479787409305572509765625" lon="6.124764941632747650146484375">
        <ele>563.79998779296875</ele>
        <time>2025-04-29T22:23:59.000Z</time>
        <extensions>
          <ns3:TrackPointExtension/>
        </extensions>
      </trkpt>
      <trkpt lat="50.42789694853127002716064453125" lon="6.1277259327471256256103515625">
        <ele>570</ele>
        <time>2025-04-29T22:24:06.000Z</time>
        <extensions>
          <ns3:TrackPointExtension/>
        </extensions>
      </trkpt>
      <trkpt lat="50.4277749918401241302490234375" lon="6.12794897519052028656005859375">
        <ele>569</ele>
        <time>2025-04-29T22:24:14.000Z</time>
        <extensions>
          <ns3:TrackPointExtension/>
        </extensions>
      </trkpt>
      <trkpt lat="50.427792929112911224365234375" lon="6.1279639787971973419189453125">
        <ele>569</ele>
        <time>2025-04-29T22:24:19.000Z</time>
        <extensions>
          <ns3:TrackPointExtension/>
        </extensions>
      </trkpt>
      <trkpt lat="50.4283739626407623291015625" lon="6.12903694622218608856201171875">
        <ele>565.79998779296875</ele>
        <time>2025-04-29T22:24:24.000Z</time>
        <extensions>
          <ns3:TrackPointExtension/>
        </extensions>
      </trkpt>
      <trkpt lat="50.42883194983005523681640625" lon="6.12960398197174072265625">
        <ele>564</ele>
        <time>2025-04-29T22:24:29.000Z</time>
        <extensions>
          <ns3:TrackPointExtension/>
        </extensions>
      </trkpt>
      <trkpt lat="50.42954499833285808563232421875" lon="6.13038391806185245513916015625">
        <ele>562.20001220703125</ele>
        <time>2025-04-29T22:24:34.000Z</time>
        <extensions>
          <ns3:TrackPointExtension/>
        </extensions>
      </trkpt>
      <trkpt lat="50.43006299994885921478271484375" lon="6.13070092163980007171630859375">
        <ele>559.5999755859375</ele>
        <time>2025-04-29T22:24:40.000Z</time>
        <extensions>
          <ns3:TrackPointExtension/>
        </extensions>
      </trkpt>
      <trkpt lat="50.4304119385778903961181640625" lon="6.13090996630489826202392578125">
        <ele>556.79998779296875</ele>
        <time>2025-04-29T22:24:45.000Z</time>
        <extensions>
          <ns3:TrackPointExtension/>
        </extensions>
      </trkpt>
      <trkpt lat="50.4311059601604938507080078125" lon="6.13121791742742061614990234375">
        <ele>558.4000244140625</ele>
        <time>2025-04-29T22:24:50.000Z</time>
        <extensions>
          <ns3:TrackPointExtension/>
        </extensions>
      </trkpt>
      <trkpt lat="50.43149999342858791351318359375" lon="6.13159694708883762359619140625">
        <ele>558.4000244140625</ele>
        <time>2025-04-29T22:24:55.000Z</time>
        <extensions>
          <ns3:TrackPointExtension/>
        </extensions>
      </trkpt>
      <trkpt lat="50.43189897201955318450927734375" lon="6.13257695920765399932861328125">
        <ele>555.4000244140625</ele>
        <time>2025-04-29T22:25:01.000Z</time>
        <extensions>
          <ns3:TrackPointExtension/>
        </extensions>
      </trkpt>
      <trkpt lat="50.43201799504458904266357421875" lon="6.13263697363436222076416015625">
        <ele>555.4000244140625</ele>
        <time>2025-04-29T22:25:06.000Z</time>
        <extensions>
          <ns3:TrackPointExtension/>
        </extensions>
      </trkpt>
      <trkpt lat="50.43264697305858135223388671875" lon="6.133504919707775115966796875">
        <ele>553.4000244140625</ele>
        <time>2025-04-29T22:25:11.000Z</time>
        <extensions>
          <ns3:TrackPointExtension/>
        </extensions>
      </trkpt>
      <trkpt lat="50.43278695084154605865478515625" lon="6.13375897519290447235107421875">
        <ele>552.79998779296875</ele>
        <time>2025-04-29T22:25:16.000Z</time>
        <extensions>
          <ns3:TrackPointExtension/>
        </extensions>
      </trkpt>
      <trkpt lat="50.433027930557727813720703125" lon="6.134379990398883819580078125">
        <ele>554.20001220703125</ele>
        <time>2025-04-29T22:25:21.000Z</time>
        <extensions>
          <ns3:TrackPointExtension/>
        </extensions>
      </trkpt>
      <trkpt lat="50.4334659688174724578857421875" lon="6.13521692343056201934814453125">
        <ele>557.20001220703125</ele>
        <time>2025-04-29T22:25:25.000Z</time>
        <extensions>
          <ns3:TrackPointExtension/>
        </extensions>
      </trkpt>
      <trkpt lat="50.43382798321545124053955078125" lon="6.13585998304188251495361328125">
        <ele>558.4000244140625</ele>
        <time>2025-04-29T22:25:30.000Z</time>
        <extensions>
          <ns3:TrackPointExtension/>
        </extensions>
      </trkpt>
      <trkpt lat="50.4341539554297924041748046875" lon="6.13660496659576892852783203125">
        <ele>560.20001220703125</ele>
        <time>2025-04-29T22:25:35.000Z</time>
        <extensions>
          <ns3:TrackPointExtension/>
        </extensions>
      </trkpt>
      <trkpt lat="50.43482995592057704925537109375" lon="6.13827195949852466583251953125">
        <ele>555</ele>
        <time>2025-04-29T22:25:40.000Z</time>
        <extensions>
          <ns3:TrackPointExtension/>
        </extensions>
      </trkpt>
      <trkpt lat="50.435273945331573486328125" lon="6.139087937772274017333984375">
        <ele>551.79998779296875</ele>
        <time>2025-04-29T22:25:45.000Z</time>
        <extensions>
          <ns3:TrackPointExtension/>
        </extensions>
      </trkpt>
      <trkpt lat="50.43548894114792346954345703125" lon="6.13942597992718219757080078125">
        <ele>549.20001220703125</ele>
        <time>2025-04-29T22:25:50.000Z</time>
        <extensions>
          <ns3:TrackPointExtension/>
        </extensions>
      </trkpt>
      <trkpt lat="50.435791946947574615478515625" lon="6.1398129723966121673583984375">
        <ele>547</ele>
        <time>2025-04-29T22:25:55.000Z</time>
        <extensions>
          <ns3:TrackPointExtension/>
        </extensions>
      </trkpt>
      <trkpt lat="50.436249934136867523193359375" lon="6.14026299677789211273193359375">
        <ele>546.79998779296875</ele>
        <time>2025-04-29T22:26:00.000Z</time>
        <extensions>
          <ns3:TrackPointExtension/>
        </extensions>
      </trkpt>
      <trkpt lat="50.43724595569074153900146484375" lon="6.14109699614346027374267578125">
        <ele>541.5999755859375</ele>
        <time>2025-04-29T22:26:05.000Z</time>
        <extensions>
          <ns3:TrackPointExtension/>
        </extensions>
      </trkpt>
      <trkpt lat="50.4374959878623485565185546875" lon="6.141226999461650848388671875">
        <ele>541.20001220703125</ele>
        <time>2025-04-29T22:26:10.000Z</time>
        <extensions>
          <ns3:TrackPointExtension/>
        </extensions>
      </trkpt>
      <trkpt lat="50.437628924846649169921875" lon="6.14169194363057613372802734375">
        <ele>542</ele>
        <time>2025-04-29T22:26:16.000Z</time>
        <extensions>
          <ns3:TrackPointExtension/>
        </extensions>
      </trkpt>
      <trkpt lat="50.4377269931137561798095703125" lon="6.14214599132537841796875">
        <ele>542.20001220703125</ele>
        <time>2025-04-29T22:26:22.000Z</time>
        <extensions>
          <ns3:TrackPointExtension/>
        </extensions>
      </trkpt>
      <trkpt lat="50.43782397173345088958740234375" lon="6.1426349915564060211181640625">
        <ele>542.5999755859375</ele>
        <time>2025-04-29T22:26:28.000Z</time>
        <extensions>
          <ns3:TrackPointExtension/>
        </extensions>
      </trkpt>
      <trkpt lat="50.43810895644128322601318359375" lon="6.1436119861900806427001953125">
        <ele>545.79998779296875</ele>
        <time>2025-04-29T22:26:34.000Z</time>
        <extensions>
          <ns3:TrackPointExtension/>
        </extensions>
      </trkpt>
      <trkpt lat="50.43830492533743381500244140625" lon="6.14419193007051944732666015625">
        <ele>546.5999755859375</ele>
        <time>2025-04-29T22:26:40.000Z</time>
        <extensions>
          <ns3:TrackPointExtension/>
        </extensions>
      </trkpt>
      <trkpt lat="50.438835918903350830078125" lon="6.14557494409382343292236328125">
        <ele>543.20001220703125</ele>
        <time>2025-04-29T22:26:47.000Z</time>
        <extensions>
          <ns3:TrackPointExtension/>
        </extensions>
      </trkpt>
      <trkpt lat="50.43902392499148845672607421875" lon="6.1460579931735992431640625">
        <ele>542.5999755859375</ele>
        <time>2025-04-29T22:26:53.000Z</time>
        <extensions>
          <ns3:TrackPointExtension/>
        </extensions>
      </trkpt>
      <trkpt lat="50.438669957220554351806640625" lon="6.1470009572803974151611328125">
        <ele>546.79998779296875</ele>
        <time>2025-04-29T22:26:55.000Z</time>
        <extensions>
          <ns3:TrackPointExtension/>
        </extensions>
      </trkpt>
      <trkpt lat="50.43836594559252262115478515625" lon="6.14773496054112911224365234375">
        <ele>544.5999755859375</ele>
        <time>2025-04-29T22:26:57.000Z</time>
        <extensions>
          <ns3:TrackPointExtension/>
        </extensions>
      </trkpt>
      <trkpt lat="50.438270978629589080810546875" lon="6.1478029377758502960205078125">
        <ele>544.4000244140625</ele>
        <time>2025-04-29T22:27:00.000Z</time>
        <extensions>
          <ns3:TrackPointExtension/>
        </extensions>
      </trkpt>
      <trkpt lat="50.43790494091808795928955078125" lon="6.1479179374873638153076171875">
        <ele>543.5999755859375</ele>
        <time>2025-04-29T22:27:02.000Z</time>
        <extensions>
          <ns3:TrackPointExtension/>
        </extensions>
      </trkpt>
      <trkpt lat="50.43775892816483974456787109375" lon="6.1480299197137355804443359375">
        <ele>542.79998779296875</ele>
        <time>2025-04-29T22:27:04.000Z</time>
        <extensions>
          <ns3:TrackPointExtension/>
        </extensions>
      </trkpt>
      <trkpt lat="50.4373729415237903594970703125" lon="6.14856191910803318023681640625">
        <ele>538.5999755859375</ele>
        <time>2025-04-29T22:27:06.000Z</time>
        <extensions>
          <ns3:TrackPointExtension/>
        </extensions>
      </trkpt>
      <trkpt lat="50.437226928770542144775390625" lon="6.14890993572771549224853515625">
        <ele>537.5999755859375</ele>
        <time>2025-04-29T22:27:09.000Z</time>
        <extensions>
          <ns3:TrackPointExtension/>
        </extensions>
      </trkpt>
      <trkpt lat="50.43698091991245746612548828125" lon="6.149681992828845977783203125">
        <ele>534.79998779296875</ele>
        <time>2025-04-29T22:27:11.000Z</time>
        <extensions>
          <ns3:TrackPointExtension/>
        </extensions>
      </trkpt>
      <trkpt lat="50.4367499984800815582275390625" lon="6.15055798552930355072021484375">
        <ele>527</ele>
        <time>2025-04-29T22:27:13.000Z</time>
        <extensions>
          <ns3:TrackPointExtension/>
        </extensions>
      </trkpt>
      <trkpt lat="50.43669694103300571441650390625" lon="6.1509729735553264617919921875">
        <ele>523.79998779296875</ele>
        <time>2025-04-29T22:27:16.000Z</time>
        <extensions>
          <ns3:TrackPointExtension/>
        </extensions>
      </trkpt>
      <trkpt lat="50.43669794686138629913330078125" lon="6.15196698345243930816650390625">
        <ele>519.5999755859375</ele>
        <time>2025-04-29T22:27:18.000Z</time>
        <extensions>
          <ns3:TrackPointExtension/>
        </extensions>
      </trkpt>
      <trkpt lat="50.4367449693381786346435546875" lon="6.15254198201000690460205078125">
        <ele>517.20001220703125</ele>
        <time>2025-04-29T22:27:20.000Z</time>
        <extensions>
          <ns3:TrackPointExtension/>
        </extensions>
      </trkpt>
      <trkpt lat="50.43687799014151096343994140625" lon="6.15305495448410511016845703125">
        <ele>517.79998779296875</ele>
        <time>2025-04-29T22:27:22.000Z</time>
        <extensions>
          <ns3:TrackPointExtension/>
        </extensions>
      </trkpt>
      <trkpt lat="50.43696298263967037200927734375" lon="6.15336491726338863372802734375">
        <ele>518.4000244140625</ele>
        <time>2025-04-29T22:27:25.000Z</time>
        <extensions>
          <ns3:TrackPointExtension/>
        </extensions>
      </trkpt>
      <trkpt lat="50.437006987631320953369140625" lon="6.1536719463765621185302734375">
        <ele>520</ele>
        <time>2025-04-29T22:27:27.000Z</time>
        <extensions>
          <ns3:TrackPointExtension/>
        </extensions>
      </trkpt>
      <trkpt lat="50.4370079934597015380859375" lon="6.153933964669704437255859375">
        <ele>522.4000244140625</ele>
        <time>2025-04-29T22:27:29.000Z</time>
        <extensions>
          <ns3:TrackPointExtension/>
        </extensions>
      </trkpt>
      <trkpt lat="50.436886958777904510498046875" lon="6.15487399511039257049560546875">
        <ele>530.4000244140625</ele>
        <time>2025-04-29T22:27:32.000Z</time>
        <extensions>
          <ns3:TrackPointExtension/>
        </extensions>
      </trkpt>
      <trkpt lat="50.43673398904502391815185546875" lon="6.15627796389162540435791015625">
        <ele>537</ele>
        <time>2025-04-29T22:27:34.000Z</time>
        <extensions>
          <ns3:TrackPointExtension/>
        </extensions>
      </trkpt>
      <trkpt lat="50.43650298379361629486083984375" lon="6.15697793662548065185546875">
        <ele>540</ele>
        <time>2025-04-29T22:27:36.000Z</time>
        <extensions>
          <ns3:TrackPointExtension/>
        </extensions>
      </trkpt>
      <trkpt lat="50.43615697883069515228271484375" lon="6.157844960689544677734375">
        <ele>545</ele>
        <time>2025-04-29T22:27:39.000Z</time>
        <extensions>
          <ns3:TrackPointExtension/>
        </extensions>
      </trkpt>
      <trkpt lat="50.43606796301901340484619140625" lon="6.1581539176404476165771484375">
        <ele>546.5999755859375</ele>
        <time>2025-04-29T22:27:41.000Z</time>
        <extensions>
          <ns3:TrackPointExtension/>
        </extensions>
      </trkpt>
      <trkpt lat="50.43601096607744693756103515625" lon="6.15847997367382049560546875">
        <ele>547.79998779296875</ele>
        <time>2025-04-29T22:27:43.000Z</time>
        <extensions>
          <ns3:TrackPointExtension/>
        </extensions>
      </trkpt>
      <trkpt lat="50.4359369538724422454833984375" lon="6.15932797081768512725830078125">
        <ele>551</ele>
        <time>2025-04-29T22:27:45.000Z</time>
        <extensions>
          <ns3:TrackPointExtension/>
        </extensions>
      </trkpt>
      <trkpt lat="50.43592094443738460540771484375" lon="6.159736923873424530029296875">
        <ele>553</ele>
        <time>2025-04-29T22:27:48.000Z</time>
        <extensions>
          <ns3:TrackPointExtension/>
        </extensions>
      </trkpt>
      <trkpt lat="50.43584592640399932861328125" lon="6.1601179651916027069091796875">
        <ele>553</ele>
        <time>2025-04-29T22:27:50.000Z</time>
        <extensions>
          <ns3:TrackPointExtension/>
        </extensions>
      </trkpt>
      <trkpt lat="50.43549296446144580841064453125" lon="6.16154397837817668914794921875">
        <ele>556.79998779296875</ele>
        <time>2025-04-29T22:27:52.000Z</time>
        <extensions>
          <ns3:TrackPointExtension/>
        </extensions>
      </trkpt>
      <trkpt lat="50.4353629611432552337646484375" lon="6.16222492419183254241943359375">
        <ele>559.79998779296875</ele>
        <time>2025-04-29T22:27:55.000Z</time>
        <extensions>
          <ns3:TrackPointExtension/>
        </extensions>
      </trkpt>
      <trkpt lat="50.43531392700970172882080078125" lon="6.16256497800350189208984375">
        <ele>560.20001220703125</ele>
        <time>2025-04-29T22:27:57.000Z</time>
        <extensions>
          <ns3:TrackPointExtension/>
        </extensions>
      </trkpt>
      <trkpt lat="50.4353119991719722747802734375" lon="6.1628159321844577789306640625">
        <ele>560.20001220703125</ele>
        <time>2025-04-29T22:27:59.000Z</time>
        <extensions>
          <ns3:TrackPointExtension/>
        </extensions>
      </trkpt>
      <trkpt lat="50.43534896336495876312255859375" lon="6.1630459316074848175048828125">
        <ele>560.4000244140625</ele>
        <time>2025-04-29T22:28:02.000Z</time>
        <extensions>
          <ns3:TrackPointExtension/>
        </extensions>
      </trkpt>
      <trkpt lat="50.4355369694530963897705078125" lon="6.16352294571697711944580078125">
        <ele>561</ele>
        <time>2025-04-29T22:28:04.000Z</time>
        <extensions>
          <ns3:TrackPointExtension/>
        </extensions>
      </trkpt>
      <trkpt lat="50.43563897721469402313232421875" lon="6.1638589762151241302490234375">
        <ele>561</ele>
        <time>2025-04-29T22:28:06.000Z</time>
        <extensions>
          <ns3:TrackPointExtension/>
        </extensions>
      </trkpt>
      <trkpt lat="50.43543295003473758697509765625" lon="6.16427195258438587188720703125">
        <ele>561.4000244140625</ele>
        <time>2025-04-29T22:28:10.000Z</time>
        <extensions>
          <ns3:TrackPointExtension/>
        </extensions>
      </trkpt>
      <trkpt lat="50.4352979175746440887451171875" lon="6.1648289300501346588134765625">
        <ele>562</ele>
        <time>2025-04-29T22:28:13.000Z</time>
        <extensions>
          <ns3:TrackPointExtension/>
        </extensions>
      </trkpt>
      <trkpt lat="50.4354239813983440399169921875" lon="6.1650659702718257904052734375">
        <ele>562.5999755859375</ele>
        <time>2025-04-29T22:28:16.000Z</time>
        <extensions>
          <ns3:TrackPointExtension/>
        </extensions>
      </trkpt>
      <trkpt lat="50.4353689961135387420654296875" lon="6.165144927799701690673828125">
        <ele>562.79998779296875</ele>
        <time>2025-04-29T22:28:19.000Z</time>
        <extensions>
          <ns3:TrackPointExtension/>
        </extensions>
      </trkpt>
      <trkpt lat="50.43497596867382526397705078125" lon="6.16606098599731922149658203125">
        <ele>559.79998779296875</ele>
        <time>2025-04-29T22:28:22.000Z</time>
        <extensions>
          <ns3:TrackPointExtension/>
        </extensions>
      </trkpt>
      <trkpt lat="50.43477396480739116668701171875" lon="6.16663497872650623321533203125">
        <ele>556.79998779296875</ele>
        <time>2025-04-29T22:28:25.000Z</time>
        <extensions>
          <ns3:TrackPointExtension/>
        </extensions>
      </trkpt>
      <trkpt lat="50.43476499617099761962890625" lon="6.16692398674786090850830078125">
        <ele>555.79998779296875</ele>
        <time>2025-04-29T22:28:27.000Z</time>
        <extensions>
          <ns3:TrackPointExtension/>
        </extensions>
      </trkpt>
      <trkpt lat="50.4346959292888641357421875" lon="6.167221963405609130859375">
        <ele>553.5999755859375</ele>
        <time>2025-04-29T22:28:30.000Z</time>
        <extensions>
          <ns3:TrackPointExtension/>
        </extensions>
      </trkpt>
      <trkpt lat="50.43447892181575298309326171875" lon="6.16790793836116790771484375">
        <ele>547.79998779296875</ele>
        <time>2025-04-29T22:28:33.000Z</time>
        <extensions>
          <ns3:TrackPointExtension/>
        </extensions>
      </trkpt>
      <trkpt lat="50.434409938752651214599609375" lon="6.1680869758129119873046875">
        <ele>546</ele>
        <time>2025-04-29T22:28:36.000Z</time>
        <extensions>
          <ns3:TrackPointExtension/>
        </extensions>
      </trkpt>
      <trkpt lat="50.434356965124607086181640625" lon="6.16878493689000606536865234375">
        <ele>542</ele>
        <time>2025-04-29T22:28:39.000Z</time>
        <extensions>
          <ns3:TrackPointExtension/>
        </extensions>
      </trkpt>
      <trkpt lat="50.4343869723379611968994140625" lon="6.16887596435844898223876953125">
        <ele>541.79998779296875</ele>
        <time>2025-04-29T22:28:42.000Z</time>
        <extensions>
          <ns3:TrackPointExtension/>
        </extensions>
      </trkpt>
      <trkpt lat="50.4344399459660053253173828125" lon="6.16896498017013072967529296875">
        <ele>541.4000244140625</ele>
        <time>2025-04-29T22:28:45.000Z</time>
        <extensions>
          <ns3:TrackPointExtension/>
        </extensions>
      </trkpt>
      <trkpt lat="50.43431899510324001312255859375" lon="6.16910998709499835968017578125">
        <ele>541.20001220703125</ele>
        <time>2025-04-29T22:28:50.000Z</time>
        <extensions>
          <ns3:TrackPointExtension/>
        </extensions>
      </trkpt>
      <trkpt lat="50.434242971241474151611328125" lon="6.16938893683254718780517578125">
        <ele>541.4000244140625</ele>
        <time>2025-04-29T22:28:56.000Z</time>
        <extensions>
          <ns3:TrackPointExtension/>
        </extensions>
      </trkpt>
      <trkpt lat="50.43401892296969890594482421875" lon="6.1699009872972965240478515625">
        <ele>545</ele>
        <time>2025-04-29T22:29:01.000Z</time>
        <extensions>
          <ns3:TrackPointExtension/>
        </extensions>
      </trkpt>
      <trkpt lat="50.4337249696254730224609375" lon="6.17019795812666416168212890625">
        <ele>547.5999755859375</ele>
        <time>2025-04-29T22:29:07.000Z</time>
        <extensions>
          <ns3:TrackPointExtension/>
        </extensions>
      </trkpt>
      <trkpt lat="50.43356495909392833709716796875" lon="6.17043198086321353912353515625">
        <ele>549.20001220703125</ele>
        <time>2025-04-29T22:29:13.000Z</time>
        <extensions>
          <ns3:TrackPointExtension/>
        </extensions>
      </trkpt>
      <trkpt lat="50.43343193829059600830078125" lon="6.17069198749959468841552734375">
        <ele>550.4000244140625</ele>
        <time>2025-04-29T22:29:18.000Z</time>
        <extensions>
          <ns3:TrackPointExtension/>
        </extensions>
      </trkpt>
      <trkpt lat="50.43332397937774658203125" lon="6.170849986374378204345703125">
        <ele>550.5999755859375</ele>
        <time>2025-04-29T22:29:24.000Z</time>
        <extensions>
          <ns3:TrackPointExtension/>
        </extensions>
      </trkpt>
      <trkpt lat="50.43310797773301601409912109375" lon="6.1711019463837146759033203125">
        <ele>551.20001220703125</ele>
        <time>2025-04-29T22:29:29.000Z</time>
        <extensions>
          <ns3:TrackPointExtension/>
        </extensions>
      </trkpt>
      <trkpt lat="50.43299297802150249481201171875" lon="6.171362958848476409912109375">
        <ele>550.79998779296875</ele>
        <time>2025-04-29T22:29:34.000Z</time>
        <extensions>
          <ns3:TrackPointExtension/>
        </extensions>
      </trkpt>
      <trkpt lat="50.4328879527747631072998046875" lon="6.17152598686516284942626953125">
        <ele>550.79998779296875</ele>
        <time>2025-04-29T22:29:38.000Z</time>
        <extensions>
          <ns3:TrackPointExtension/>
        </extensions>
      </trkpt>
      <trkpt lat="50.4323189891874790191650390625" lon="6.1722899973392486572265625">
        <ele>548.4000244140625</ele>
        <time>2025-04-29T22:29:43.000Z</time>
        <extensions>
          <ns3:TrackPointExtension/>
        </extensions>
      </trkpt>
      <trkpt lat="50.4320189170539379119873046875" lon="6.17257095873355865478515625">
        <ele>547</ele>
        <time>2025-04-29T22:29:47.000Z</time>
        <extensions>
          <ns3:TrackPointExtension/>
        </extensions>
      </trkpt>
      <trkpt lat="50.43161398731172084808349609375" lon="6.17286692373454570770263671875">
        <ele>546.4000244140625</ele>
        <time>2025-04-29T22:29:51.000Z</time>
        <extensions>
          <ns3:TrackPointExtension/>
        </extensions>
      </trkpt>
      <trkpt lat="50.43103597126901149749755859375" lon="6.173375956714153289794921875">
        <ele>547.4000244140625</ele>
        <time>2025-04-29T22:29:56.000Z</time>
        <extensions>
          <ns3:TrackPointExtension/>
        </extensions>
      </trkpt>
      <trkpt lat="50.431019961833953857421875" lon="6.1734589375555515289306640625">
        <ele>547</ele>
        <time>2025-04-29T22:30:00.000Z</time>
        <extensions>
          <ns3:TrackPointExtension/>
        </extensions>
      </trkpt>
      <trkpt lat="50.431020967662334442138671875" lon="6.17375993169844150543212890625">
        <ele>545.79998779296875</ele>
        <time>2025-04-29T22:30:05.000Z</time>
        <extensions>
          <ns3:TrackPointExtension/>
        </extensions>
      </trkpt>
      <trkpt lat="50.43095399625599384307861328125" lon="6.1739749275147914886474609375">
        <ele>544.79998779296875</ele>
        <time>2025-04-29T22:30:09.000Z</time>
        <extensions>
          <ns3:TrackPointExtension/>
        </extensions>
      </trkpt>
      <trkpt lat="50.4308699257671833038330078125" lon="6.17434398271143436431884765625">
        <ele>544</ele>
        <time>2025-04-29T22:30:13.000Z</time>
        <extensions>
          <ns3:TrackPointExtension/>
        </extensions>
      </trkpt>
      <trkpt lat="50.4307639785110950469970703125" lon="6.1746159754693508148193359375">
        <ele>543.79998779296875</ele>
        <time>2025-04-29T22:30:18.000Z</time>
        <extensions>
          <ns3:TrackPointExtension/>
        </extensions>
      </trkpt>
      <trkpt lat="50.43020197190344333648681640625" lon="6.17543396539986133575439453125">
        <ele>539</ele>
        <time>2025-04-29T22:30:22.000Z</time>
        <extensions>
          <ns3:TrackPointExtension/>
        </extensions>
      </trkpt>
      <trkpt lat="50.43011295609176158905029296875" lon="6.17563898675143718719482421875">
        <ele>537.79998779296875</ele>
        <time>2025-04-29T22:30:27.000Z</time>
        <extensions>
          <ns3:TrackPointExtension/>
        </extensions>
      </trkpt>
      <trkpt lat="50.430098958313465118408203125" lon="6.17588692344725131988525390625">
        <ele>537</ele>
        <time>2025-04-29T22:30:31.000Z</time>
        <extensions>
          <ns3:TrackPointExtension/>
        </extensions>
      </trkpt>
      <trkpt lat="50.4301309771835803985595703125" lon="6.1763449944555759429931640625">
        <ele>539.4000244140625</ele>
        <time>2025-04-29T22:30:35.000Z</time>
        <extensions>
          <ns3:TrackPointExtension/>
        </extensions>
      </trkpt>
      <trkpt lat="50.43002595193684101104736328125" lon="6.176481954753398895263671875">
        <ele>541</ele>
        <time>2025-04-29T22:30:39.000Z</time>
        <extensions>
          <ns3:TrackPointExtension/>
        </extensions>
      </trkpt>
      <trkpt lat="50.42985898442566394805908203125" lon="6.17653098888695240020751953125">
        <ele>541.5999755859375</ele>
        <time>2025-04-29T22:30:43.000Z</time>
        <extensions>
          <ns3:TrackPointExtension/>
        </extensions>
      </trkpt>
      <trkpt lat="50.42959897778928279876708984375" lon="6.1765689589083194732666015625">
        <ele>542</ele>
        <time>2025-04-29T22:30:46.000Z</time>
        <extensions>
          <ns3:TrackPointExtension/>
        </extensions>
      </trkpt>
      <trkpt lat="50.4289769567549228668212890625" lon="6.176595948636531829833984375">
        <ele>543.79998779296875</ele>
        <time>2025-04-29T22:30:50.000Z</time>
        <extensions>
          <ns3:TrackPointExtension/>
        </extensions>
      </trkpt>
      <trkpt lat="50.42771891690790653228759765625" lon="6.1763919331133365631103515625">
        <ele>554</ele>
        <time>2025-04-29T22:30:54.000Z</time>
        <extensions>
          <ns3:TrackPointExtension/>
        </extensions>
      </trkpt>
      <trkpt lat="50.42749696411192417144775390625" lon="6.176306940615177154541015625">
        <ele>555.79998779296875</ele>
        <time>2025-04-29T22:30:58.000Z</time>
        <extensions>
          <ns3:TrackPointExtension/>
        </extensions>
      </trkpt>
      <trkpt lat="50.42729596607387065887451171875" lon="6.17609999142587184906005859375">
        <ele>557.4000244140625</ele>
        <time>2025-04-29T22:31:01.000Z</time>
        <extensions>
          <ns3:TrackPointExtension/>
        </extensions>
      </trkpt>
      <trkpt lat="50.42720896191895008087158203125" lon="6.17606394924223423004150390625">
        <ele>558</ele>
        <time>2025-04-29T22:31:05.000Z</time>
        <extensions>
          <ns3:TrackPointExtension/>
        </extensions>
      </trkpt>
      <trkpt lat="50.4270749352872371673583984375" lon="6.17611994035542011260986328125">
        <ele>558.79998779296875</ele>
        <time>2025-04-29T22:31:09.000Z</time>
        <extensions>
          <ns3:TrackPointExtension/>
        </extensions>
      </trkpt>
      <trkpt lat="50.4270199500024318695068359375" lon="6.17620694451034069061279296875">
        <ele>559.4000244140625</ele>
        <time>2025-04-29T22:31:13.000Z</time>
        <extensions>
          <ns3:TrackPointExtension/>
        </extensions>
      </trkpt>
      <trkpt lat="50.4269899427890777587890625" lon="6.17652797140181064605712890625">
        <ele>561.4000244140625</ele>
        <time>2025-04-29T22:31:15.000Z</time>
        <extensions>
          <ns3:TrackPointExtension/>
        </extensions>
      </trkpt>
      <trkpt lat="50.426933951675891876220703125" lon="6.17658597417175769805908203125">
        <ele>562</ele>
        <time>2025-04-29T22:31:20.000Z</time>
        <extensions>
          <ns3:TrackPointExtension/>
        </extensions>
      </trkpt>
      <trkpt lat="50.426701940596103668212890625" lon="6.176654957234859466552734375">
        <ele>563.4000244140625</ele>
        <time>2025-04-29T22:31:24.000Z</time>
        <extensions>
          <ns3:TrackPointExtension/>
        </extensions>
      </trkpt>
      <trkpt lat="50.426127947866916656494140625" lon="6.1766329966485500335693359375">
        <ele>564.4000244140625</ele>
        <time>2025-04-29T22:31:29.000Z</time>
        <extensions>
          <ns3:TrackPointExtension/>
        </extensions>
      </trkpt>
      <trkpt lat="50.42536293156445026397705078125" lon="6.17678294889628887176513671875">
        <ele>571.4000244140625</ele>
        <time>2025-04-29T22:31:34.000Z</time>
        <extensions>
          <ns3:TrackPointExtension/>
        </extensions>
      </trkpt>
      <trkpt lat="50.424979962408542633056640625" lon="6.176825948059558868408203125">
        <ele>572.79998779296875</ele>
        <time>2025-04-29T22:31:38.000Z</time>
        <extensions>
          <ns3:TrackPointExtension/>
        </extensions>
      </trkpt>
      <trkpt lat="50.42455592192709445953369140625" lon="6.17704094387590885162353515625">
        <ele>575.20001220703125</ele>
        <time>2025-04-29T22:31:43.000Z</time>
        <extensions>
          <ns3:TrackPointExtension/>
        </extensions>
      </trkpt>
      <trkpt lat="50.42395493946969509124755859375" lon="6.17764192633330821990966796875">
        <ele>576.5999755859375</ele>
        <time>2025-04-29T22:31:48.000Z</time>
        <extensions>
          <ns3:TrackPointExtension/>
        </extensions>
      </trkpt>
      <trkpt lat="50.4233449883759021759033203125" lon="6.1780109815299510955810546875">
        <ele>580.79998779296875</ele>
        <time>2025-04-29T22:31:53.000Z</time>
        <extensions>
          <ns3:TrackPointExtension/>
        </extensions>
      </trkpt>
      <trkpt lat="50.4230519570410251617431640625" lon="6.17813494987785816192626953125">
        <ele>582.20001220703125</ele>
        <time>2025-04-29T22:31:57.000Z</time>
        <extensions>
          <ns3:TrackPointExtension/>
        </extensions>
      </trkpt>
      <trkpt lat="50.422099940478801727294921875" lon="6.179245971143245697021484375">
        <ele>581</ele>
        <time>2025-04-29T22:32:02.000Z</time>
        <extensions>
          <ns3:TrackPointExtension/>
        </extensions>
      </trkpt>
      <trkpt lat="50.42156492359936237335205078125" lon="6.179764978587627410888671875">
        <ele>581</ele>
        <time>2025-04-29T22:32:07.000Z</time>
        <extensions>
          <ns3:TrackPointExtension/>
        </extensions>
      </trkpt>
      <trkpt lat="50.42134297080338001251220703125" lon="6.17989498190581798553466796875">
        <ele>581</ele>
        <time>2025-04-29T22:32:11.000Z</time>
        <extensions>
          <ns3:TrackPointExtension/>
        </extensions>
      </trkpt>
      <trkpt lat="50.42101599276065826416015625" lon="6.1800229735672473907470703125">
        <ele>580.4000244140625</ele>
        <time>2025-04-29T22:32:16.000Z</time>
        <extensions>
          <ns3:TrackPointExtension/>
        </extensions>
      </trkpt>
      <trkpt lat="50.420658923685550689697265625" lon="6.180452965199947357177734375">
        <ele>581</ele>
        <time>2025-04-29T22:32:21.000Z</time>
        <extensions>
          <ns3:TrackPointExtension/>
        </extensions>
      </trkpt>
      <trkpt lat="50.419802963733673095703125" lon="6.18167999200522899627685546875">
        <ele>583</ele>
        <time>2025-04-29T22:32:25.000Z</time>
        <extensions>
          <ns3:TrackPointExtension/>
        </extensions>
      </trkpt>
      <trkpt lat="50.4193679429590702056884765625" lon="6.18236496113240718841552734375">
        <ele>584.4000244140625</ele>
        <time>2025-04-29T22:32:30.000Z</time>
        <extensions>
          <ns3:TrackPointExtension/>
        </extensions>
      </trkpt>
      <trkpt lat="50.41904599405825138092041015625" lon="6.18296393193304538726806640625">
        <ele>583.4000244140625</ele>
        <time>2025-04-29T22:32:35.000Z</time>
        <extensions>
          <ns3:TrackPointExtension/>
        </extensions>
      </trkpt>
      <trkpt lat="50.41870392858982086181640625" lon="6.18369298987090587615966796875">
        <ele>583.5999755859375</ele>
        <time>2025-04-29T22:32:40.000Z</time>
        <extensions>
          <ns3:TrackPointExtension/>
        </extensions>
      </trkpt>
      <trkpt lat="50.418252982199192047119140625" lon="6.18457292206585407257080078125">
        <ele>582</ele>
        <time>2025-04-29T22:32:44.000Z</time>
        <extensions>
          <ns3:TrackPointExtension/>
        </extensions>
      </trkpt>
      <trkpt lat="50.4176519997417926788330078125" lon="6.186139918863773345947265625">
        <ele>579.4000244140625</ele>
        <time>2025-04-29T22:32:49.000Z</time>
        <extensions>
          <ns3:TrackPointExtension/>
        </extensions>
      </trkpt>
      <trkpt lat="50.41715092957019805908203125" lon="6.1887679807841777801513671875">
        <ele>580.20001220703125</ele>
        <time>2025-04-29T22:32:54.000Z</time>
        <extensions>
          <ns3:TrackPointExtension/>
        </extensions>
      </trkpt>
      <trkpt lat="50.41715897619724273681640625" lon="6.1898509226739406585693359375">
        <ele>578.5999755859375</ele>
        <time>2025-04-29T22:32:58.000Z</time>
        <extensions>
          <ns3:TrackPointExtension/>
        </extensions>
      </trkpt>
      <trkpt lat="50.4172409512102603912353515625" lon="6.19047394953668117523193359375">
        <ele>579</ele>
        <time>2025-04-29T22:33:03.000Z</time>
        <extensions>
          <ns3:TrackPointExtension/>
        </extensions>
      </trkpt>
      <trkpt lat="50.41734999977052211761474609375" lon="6.19102899916470050811767578125">
        <ele>579</ele>
        <time>2025-04-29T22:33:08.000Z</time>
        <extensions>
          <ns3:TrackPointExtension/>
        </extensions>
      </trkpt>
      <trkpt lat="50.41736491955816745758056640625" lon="6.19118792004883289337158203125">
        <ele>579</ele>
        <time>2025-04-29T22:33:12.000Z</time>
        <extensions>
          <ns3:TrackPointExtension/>
        </extensions>
      </trkpt>
      <trkpt lat="50.41737196035683155059814453125" lon="6.19268392212688922882080078125">
        <ele>582.4000244140625</ele>
        <time>2025-04-29T22:33:17.000Z</time>
        <extensions>
          <ns3:TrackPointExtension/>
        </extensions>
      </trkpt>
      <trkpt lat="50.4174199886620044708251953125" lon="6.193045936524868011474609375">
        <ele>583.4000244140625</ele>
        <time>2025-04-29T22:33:22.000Z</time>
        <extensions>
          <ns3:TrackPointExtension/>
        </extensions>
      </trkpt>
      <trkpt lat="50.41725696064531803131103515625" lon="6.19310796260833740234375">
        <ele>584.20001220703125</ele>
        <time>2025-04-29T22:33:27.000Z</time>
        <extensions>
          <ns3:TrackPointExtension/>
        </extensions>
      </trkpt>
      <trkpt lat="50.41715897619724273681640625" lon="6.1931989900767803192138671875">
        <ele>585</ele>
        <time>2025-04-29T22:33:33.000Z</time>
        <extensions>
          <ns3:TrackPointExtension/>
        </extensions>
      </trkpt>
      <trkpt lat="50.41702293790876865386962890625" lon="6.193389929831027984619140625">
        <ele>585</ele>
        <time>2025-04-29T22:33:39.000Z</time>
        <extensions>
          <ns3:TrackPointExtension/>
        </extensions>
      </trkpt>
      <trkpt lat="50.4167519509792327880859375" lon="6.19426491670310497283935546875">
        <ele>582.79998779296875</ele>
        <time>2025-04-29T22:33:44.000Z</time>
        <extensions>
          <ns3:TrackPointExtension/>
        </extensions>
      </trkpt>
      <trkpt lat="50.4166729934513568878173828125" lon="6.19462198577821254730224609375">
        <ele>582.20001220703125</ele>
        <time>2025-04-29T22:33:50.000Z</time>
        <extensions>
          <ns3:TrackPointExtension/>
        </extensions>
      </trkpt>
      <trkpt lat="50.41663594543933868408203125" lon="6.195066981017589569091796875">
        <ele>582.4000244140625</ele>
        <time>2025-04-29T22:33:55.000Z</time>
        <extensions>
          <ns3:TrackPointExtension/>
        </extensions>
      </trkpt>
      <trkpt lat="50.4165829718112945556640625" lon="6.19570392183959484100341796875">
        <ele>580.5999755859375</ele>
        <time>2025-04-29T22:34:03.000Z</time>
        <extensions>
          <ns3:TrackPointExtension/>
        </extensions>
      </trkpt>
      <trkpt lat="50.4162659682333469390869140625" lon="6.19725398719310760498046875">
        <ele>579.20001220703125</ele>
        <time>2025-04-29T22:34:11.000Z</time>
        <extensions>
          <ns3:TrackPointExtension/>
        </extensions>
      </trkpt>
      <trkpt lat="50.41615893132984638214111328125" lon="6.197597980499267578125">
        <ele>579</ele>
        <time>2025-04-29T22:34:18.000Z</time>
        <extensions>
          <ns3:TrackPointExtension/>
        </extensions>
      </trkpt>
      <trkpt lat="50.41544496081769466400146484375" lon="6.199255920946598052978515625">
        <ele>578</ele>
        <time>2025-04-29T22:34:26.000Z</time>
        <extensions>
          <ns3:TrackPointExtension/>
        </extensions>
      </trkpt>
      <trkpt lat="50.41498194448649883270263671875" lon="6.20083498768508434295654296875">
        <ele>578</ele>
        <time>2025-04-29T22:34:33.000Z</time>
        <extensions>
          <ns3:TrackPointExtension/>
        </extensions>
      </trkpt>
      <trkpt lat="50.41493299417197704315185546875" lon="6.2012999318540096282958984375">
        <ele>578</ele>
        <time>2025-04-29T22:34:41.000Z</time>
        <extensions>
          <ns3:TrackPointExtension/>
        </extensions>
      </trkpt>
      <trkpt lat="50.41492193005979061126708984375" lon="6.20169597677886486053466796875">
        <ele>578.79998779296875</ele>
        <time>2025-04-29T22:34:49.000Z</time>
        <extensions>
          <ns3:TrackPointExtension/>
        </extensions>
      </trkpt>
      <trkpt lat="50.414796955883502960205078125" lon="6.20252997614443302154541015625">
        <ele>580.5999755859375</ele>
        <time>2025-04-29T22:35:03.000Z</time>
        <extensions>
          <ns3:TrackPointExtension/>
        </extensions>
      </trkpt>
      <trkpt lat="50.4142439179122447967529296875" lon="6.20557797141373157501220703125">
        <ele>574.79998779296875</ele>
        <time>2025-04-29T22:35:18.000Z</time>
        <extensions>
          <ns3:TrackPointExtension/>
        </extensions>
      </trkpt>
      <trkpt lat="50.41379992850124835968017578125" lon="6.20609999634325504302978515625">
        <ele>574.79998779296875</ele>
        <time>2025-04-29T22:35:27.000Z</time>
        <extensions>
          <ns3:TrackPointExtension/>
        </extensions>
      </trkpt>
      <trkpt lat="50.413076989352703094482421875" lon="6.20709895156323909759521484375">
        <ele>574.5999755859375</ele>
        <time>2025-04-29T22:35:36.000Z</time>
        <extensions>
          <ns3:TrackPointExtension/>
        </extensions>
      </trkpt>
      <trkpt lat="50.41198893450200557708740234375" lon="6.20893894694745540618896484375">
        <ele>579.4000244140625</ele>
        <time>2025-04-29T22:35:46.000Z</time>
        <extensions>
          <ns3:TrackPointExtension/>
        </extensions>
      </trkpt>
      <trkpt lat="50.41196898557245731353759765625" lon="6.20896694250404834747314453125">
        <ele>579.5999755859375</ele>
        <time>2025-04-29T22:35:55.000Z</time>
        <extensions>
          <ns3:TrackPointExtension/>
        </extensions>
      </trkpt>
      <trkpt lat="50.41299593634903430938720703125" lon="6.20980194769799709320068359375">
        <ele>578.79998779296875</ele>
        <time>2025-04-29T22:35:59.000Z</time>
        <extensions>
          <ns3:TrackPointExtension/>
        </extensions>
      </trkpt>
      <trkpt lat="50.4131899774074554443359375" lon="6.2097669951617717742919921875">
        <ele>579</ele>
        <time>2025-04-29T22:36:04.000Z</time>
        <extensions>
          <ns3:TrackPointExtension/>
        </extensions>
      </trkpt>
      <trkpt lat="50.41328896768391132354736328125" lon="6.20979893021285533905029296875">
        <ele>579</ele>
        <time>2025-04-29T22:36:08.000Z</time>
        <extensions>
          <ns3:TrackPointExtension/>
        </extensions>
      </trkpt>
      <trkpt lat="50.41357294656336307525634765625" lon="6.21015097014605998992919921875">
        <ele>579</ele>
        <time>2025-04-29T22:36:12.000Z</time>
        <extensions>
          <ns3:TrackPointExtension/>
        </extensions>
      </trkpt>
      <trkpt lat="50.4142199456691741943359375" lon="6.21086393482983112335205078125">
        <ele>579.79998779296875</ele>
        <time>2025-04-29T22:36:16.000Z</time>
        <extensions>
          <ns3:TrackPointExtension/>
        </extensions>
      </trkpt>
      <trkpt lat="50.41455698199570178985595703125" lon="6.21109192259609699249267578125">
        <ele>577.79998779296875</ele>
        <time>2025-04-29T22:36:20.000Z</time>
        <extensions>
          <ns3:TrackPointExtension/>
        </extensions>
      </trkpt>
      <trkpt lat="50.41486895643174648284912109375" lon="6.2111969478428363800048828125">
        <ele>575.20001220703125</ele>
        <time>2025-04-29T22:36:24.000Z</time>
        <extensions>
          <ns3:TrackPointExtension/>
        </extensions>
      </trkpt>
      <trkpt lat="50.415135920047760009765625" lon="6.21122896671295166015625">
        <ele>574.79998779296875</ele>
        <time>2025-04-29T22:36:28.000Z</time>
        <extensions>
          <ns3:TrackPointExtension/>
        </extensions>
      </trkpt>
      <trkpt lat="50.41562098078429698944091796875" lon="6.211459971964359283447265625">
        <ele>577.5999755859375</ele>
        <time>2025-04-29T22:36:33.000Z</time>
        <extensions>
          <ns3:TrackPointExtension/>
        </extensions>
      </trkpt>
      <trkpt lat="50.4160269163548946380615234375" lon="6.2117189727723598480224609375">
        <ele>575.79998779296875</ele>
        <time>2025-04-29T22:36:37.000Z</time>
        <extensions>
          <ns3:TrackPointExtension/>
        </extensions>
      </trkpt>
      <trkpt lat="50.41644793935120105743408203125" lon="6.2120019458234310150146484375">
        <ele>574.5999755859375</ele>
        <time>2025-04-29T22:36:41.000Z</time>
        <extensions>
          <ns3:TrackPointExtension/>
        </extensions>
      </trkpt>
      <trkpt lat="50.4170119576156139373779296875" lon="6.212440989911556243896484375">
        <ele>573.5999755859375</ele>
        <time>2025-04-29T22:36:45.000Z</time>
        <extensions>
          <ns3:TrackPointExtension/>
        </extensions>
      </trkpt>
      <trkpt lat="50.4176509939134120941162109375" lon="6.21302797459065914154052734375">
        <ele>571.20001220703125</ele>
        <time>2025-04-29T22:36:49.000Z</time>
        <extensions>
          <ns3:TrackPointExtension/>
        </extensions>
      </trkpt>
      <trkpt lat="50.41809598915278911590576171875" lon="6.21339594013988971710205078125">
        <ele>568.5999755859375</ele>
        <time>2025-04-29T22:36:53.000Z</time>
        <extensions>
          <ns3:TrackPointExtension/>
        </extensions>
      </trkpt>
      <trkpt lat="50.41870099492371082305908203125" lon="6.2138419412076473236083984375">
        <ele>564</ele>
        <time>2025-04-29T22:36:57.000Z</time>
        <extensions>
          <ns3:TrackPointExtension/>
        </extensions>
      </trkpt>
      <trkpt lat="50.4193709604442119598388671875" lon="6.2141929753124713897705078125">
        <ele>561.79998779296875</ele>
        <time>2025-04-29T22:37:02.000Z</time>
        <extensions>
          <ns3:TrackPointExtension/>
        </extensions>
      </trkpt>
      <trkpt lat="50.4194839484989643096923828125" lon="6.21431895531713962554931640625">
        <ele>561</ele>
        <time>2025-04-29T22:37:06.000Z</time>
        <extensions>
          <ns3:TrackPointExtension/>
        </extensions>
      </trkpt>
      <trkpt lat="50.41968293488025665283203125" lon="6.2144769541919231414794921875">
        <ele>559.5999755859375</ele>
        <time>2025-04-29T22:37:10.000Z</time>
        <extensions>
          <ns3:TrackPointExtension/>
        </extensions>
      </trkpt>
      <trkpt lat="50.4199429415166378021240234375" lon="6.214734949171543121337890625">
        <ele>557.5999755859375</ele>
        <time>2025-04-29T22:37:14.000Z</time>
        <extensions>
          <ns3:TrackPointExtension/>
        </extensions>
      </trkpt>
      <trkpt lat="50.42014695703983306884765625" lon="6.2149679660797119140625">
        <ele>557</ele>
        <time>2025-04-29T22:37:18.000Z</time>
        <extensions>
          <ns3:TrackPointExtension/>
        </extensions>
      </trkpt>
      <trkpt lat="50.4203219711780548095703125" lon="6.21521799825131893157958984375">
        <ele>556.5999755859375</ele>
        <time>2025-04-29T22:37:22.000Z</time>
        <extensions>
          <ns3:TrackPointExtension/>
        </extensions>
      </trkpt>
      <trkpt lat="50.4205499589443206787109375" lon="6.21549393050372600555419921875">
        <ele>555</ele>
        <time>2025-04-29T22:37:26.000Z</time>
        <extensions>
          <ns3:TrackPointExtension/>
        </extensions>
      </trkpt>
      <trkpt lat="50.4206679761409759521484375" lon="6.21558194048702716827392578125">
        <ele>555.20001220703125</ele>
        <time>2025-04-29T22:37:31.000Z</time>
        <extensions>
          <ns3:TrackPointExtension/>
        </extensions>
      </trkpt>
      <trkpt lat="50.42082698084414005279541015625" lon="6.21564899571239948272705078125">
        <ele>555.5999755859375</ele>
        <time>2025-04-29T22:37:35.000Z</time>
        <extensions>
          <ns3:TrackPointExtension/>
        </extensions>
      </trkpt>
      <trkpt lat="50.420949943363666534423828125" lon="6.2156279571354389190673828125">
        <ele>557</ele>
        <time>2025-04-29T22:37:39.000Z</time>
        <extensions>
          <ns3:TrackPointExtension/>
        </extensions>
      </trkpt>
      <trkpt lat="50.42133492417633533477783203125" lon="6.21540592052042484283447265625">
        <ele>561.5999755859375</ele>
        <time>2025-04-29T22:37:43.000Z</time>
        <extensions>
          <ns3:TrackPointExtension/>
        </extensions>
      </trkpt>
      <trkpt lat="50.4205159284174442291259765625" lon="6.21774799190461635589599609375">
        <ele>553</ele>
        <time>2025-04-29T22:37:46.000Z</time>
        <extensions>
          <ns3:TrackPointExtension/>
        </extensions>
      </trkpt>
      <trkpt lat="50.420379973948001861572265625" lon="6.21818594634532928466796875">
        <ele>552</ele>
        <time>2025-04-29T22:37:48.000Z</time>
        <extensions>
          <ns3:TrackPointExtension/>
        </extensions>
      </trkpt>
      <trkpt lat="50.42030093260109424591064453125" lon="6.2186729349195957183837890625">
        <ele>552.4000244140625</ele>
        <time>2025-04-29T22:37:51.000Z</time>
        <extensions>
          <ns3:TrackPointExtension/>
        </extensions>
      </trkpt>
      <trkpt lat="50.42033395729959011077880859375" lon="6.21895096264779567718505859375">
        <ele>553.79998779296875</ele>
        <time>2025-04-29T22:37:53.000Z</time>
        <extensions>
          <ns3:TrackPointExtension/>
        </extensions>
      </trkpt>
      <trkpt lat="50.4205209575593471527099609375" lon="6.2198839522898197174072265625">
        <ele>562.79998779296875</ele>
        <time>2025-04-29T22:37:56.000Z</time>
        <extensions>
          <ns3:TrackPointExtension/>
        </extensions>
      </trkpt>
      <trkpt lat="50.42071097530424594879150390625" lon="6.22093697078526020050048828125">
        <ele>566.20001220703125</ele>
        <time>2025-04-29T22:37:58.000Z</time>
        <extensions>
          <ns3:TrackPointExtension/>
        </extensions>
      </trkpt>
      <trkpt lat="50.42076596058905124664306640625" lon="6.2212059460580348968505859375">
        <ele>566.4000244140625</ele>
        <time>2025-04-29T22:38:01.000Z</time>
        <extensions>
          <ns3:TrackPointExtension/>
        </extensions>
      </trkpt>
      <trkpt lat="50.42099596001207828521728515625" lon="6.22177298180758953094482421875">
        <ele>561.5999755859375</ele>
        <time>2025-04-29T22:38:03.000Z</time>
        <extensions>
          <ns3:TrackPointExtension/>
        </extensions>
      </trkpt>
      <trkpt lat="50.421127974987030029296875" lon="6.22219794429838657379150390625">
        <ele>560.4000244140625</ele>
        <time>2025-04-29T22:38:06.000Z</time>
        <extensions>
          <ns3:TrackPointExtension/>
        </extensions>
      </trkpt>
      <trkpt lat="50.42182291857898235321044921875" lon="6.2239629216492176055908203125">
        <ele>561.79998779296875</ele>
        <time>2025-04-29T22:38:09.000Z</time>
        <extensions>
          <ns3:TrackPointExtension/>
        </extensions>
      </trkpt>
      <trkpt lat="50.42212198488414287567138671875" lon="6.2248599529266357421875">
        <ele>559.4000244140625</ele>
        <time>2025-04-29T22:38:11.000Z</time>
        <extensions>
          <ns3:TrackPointExtension/>
        </extensions>
      </trkpt>
      <trkpt lat="50.422276966273784637451171875" lon="6.22539999894797801971435546875">
        <ele>560.20001220703125</ele>
        <time>2025-04-29T22:38:14.000Z</time>
        <extensions>
          <ns3:TrackPointExtension/>
        </extensions>
      </trkpt>
      <trkpt lat="50.4225329495966434478759765625" lon="6.22656592167913913726806640625">
        <ele>560.5999755859375</ele>
        <time>2025-04-29T22:38:16.000Z</time>
        <extensions>
          <ns3:TrackPointExtension/>
        </extensions>
      </trkpt>
      <trkpt lat="50.42273394763469696044921875" lon="6.228308938443660736083984375">
        <ele>570</ele>
        <time>2025-04-29T22:38:19.000Z</time>
        <extensions>
          <ns3:TrackPointExtension/>
        </extensions>
      </trkpt>
      <trkpt lat="50.42286696843802928924560546875" lon="6.22913598082959651947021484375">
        <ele>570.20001220703125</ele>
        <time>2025-04-29T22:38:21.000Z</time>
        <extensions>
          <ns3:TrackPointExtension/>
        </extensions>
      </trkpt>
      <trkpt lat="50.423143990337848663330078125" lon="6.23019897378981113433837890625">
        <ele>577.5999755859375</ele>
        <time>2025-04-29T22:38:24.000Z</time>
        <extensions>
          <ns3:TrackPointExtension/>
        </extensions>
      </trkpt>
      <trkpt lat="50.42366492561995983123779296875" lon="6.2318449281156063079833984375">
        <ele>587</ele>
        <time>2025-04-29T22:38:27.000Z</time>
        <extensions>
          <ns3:TrackPointExtension/>
        </extensions>
      </trkpt>
      <trkpt lat="50.42412794195115566253662109375" lon="6.2331729568541049957275390625">
        <ele>586.79998779296875</ele>
        <time>2025-04-29T22:38:29.000Z</time>
        <extensions>
          <ns3:TrackPointExtension/>
        </extensions>
      </trkpt>
      <trkpt lat="50.42427797801792621612548828125" lon="6.2338029406964778900146484375">
        <ele>588.20001220703125</ele>
        <time>2025-04-29T22:38:32.000Z</time>
        <extensions>
          <ns3:TrackPointExtension/>
        </extensions>
      </trkpt>
      <trkpt lat="50.42441493831574916839599609375" lon="6.23452998697757720947265625">
        <ele>583.79998779296875</ele>
        <time>2025-04-29T22:38:34.000Z</time>
        <extensions>
          <ns3:TrackPointExtension/>
        </extensions>
      </trkpt>
      <trkpt lat="50.4245169460773468017578125" lon="6.23517598025500774383544921875">
        <ele>585.79998779296875</ele>
        <time>2025-04-29T22:38:37.000Z</time>
        <extensions>
          <ns3:TrackPointExtension/>
        </extensions>
      </trkpt>
      <trkpt lat="50.4245509766042232513427734375" lon="6.23573698103427886962890625">
        <ele>586.4000244140625</ele>
        <time>2025-04-29T22:38:39.000Z</time>
        <extensions>
          <ns3:TrackPointExtension/>
        </extensions>
      </trkpt>
      <trkpt lat="50.42453194968402385711669921875" lon="6.23655396513640880584716796875">
        <ele>583.4000244140625</ele>
        <time>2025-04-29T22:38:42.000Z</time>
        <extensions>
          <ns3:TrackPointExtension/>
        </extensions>
      </trkpt>
      <trkpt lat="50.42445994913578033447265625" lon="6.23727497644722461700439453125">
        <ele>581.79998779296875</ele>
        <time>2025-04-29T22:38:44.000Z</time>
        <extensions>
          <ns3:TrackPointExtension/>
        </extensions>
      </trkpt>
      <trkpt lat="50.42381295002996921539306640625" lon="6.24103895388543605804443359375">
        <ele>568.5999755859375</ele>
        <time>2025-04-29T22:38:47.000Z</time>
        <extensions>
          <ns3:TrackPointExtension/>
        </extensions>
      </trkpt>
      <trkpt lat="50.4237929172813892364501953125" lon="6.2412319891154766082763671875">
        <ele>569.20001220703125</ele>
        <time>2025-04-29T22:38:50.000Z</time>
        <extensions>
          <ns3:TrackPointExtension/>
        </extensions>
      </trkpt>
      <trkpt lat="50.42381898500025272369384765625" lon="6.2413469888269901275634765625">
        <ele>568</ele>
        <time>2025-04-29T22:38:52.000Z</time>
        <extensions>
          <ns3:TrackPointExtension/>
        </extensions>
      </trkpt>
      <trkpt lat="50.4238589666783809661865234375" lon="6.24140893109142780303955078125">
        <ele>567.20001220703125</ele>
        <time>2025-04-29T22:38:55.000Z</time>
        <extensions>
          <ns3:TrackPointExtension/>
        </extensions>
      </trkpt>
      <trkpt lat="50.4240369983017444610595703125" lon="6.24149492941796779632568359375">
        <ele>565.20001220703125</ele>
        <time>2025-04-29T22:38:57.000Z</time>
        <extensions>
          <ns3:TrackPointExtension/>
        </extensions>
      </trkpt>
      <trkpt lat="50.42410799302160739898681640625" lon="6.24155494384467601776123046875">
        <ele>564.4000244140625</ele>
        <time>2025-04-29T22:39:00.000Z</time>
        <extensions>
          <ns3:TrackPointExtension/>
        </extensions>
      </trkpt>
      <trkpt lat="50.42413397692143917083740234375" lon="6.2416249327361583709716796875">
        <ele>564.20001220703125</ele>
        <time>2025-04-29T22:39:02.000Z</time>
        <extensions>
          <ns3:TrackPointExtension/>
        </extensions>
      </trkpt>
      <trkpt lat="50.42427294887602329254150390625" lon="6.24241299927234649658203125">
        <ele>567</ele>
        <time>2025-04-29T22:39:05.000Z</time>
        <extensions>
          <ns3:TrackPointExtension/>
        </extensions>
      </trkpt>
      <trkpt lat="50.424348972737789154052734375" lon="6.24259899370372295379638671875">
        <ele>568.20001220703125</ele>
        <time>2025-04-29T22:39:08.000Z</time>
        <extensions>
          <ns3:TrackPointExtension/>
        </extensions>
      </trkpt>
      <trkpt lat="50.42441694997251033782958984375" lon="6.24268197454512119293212890625">
        <ele>568.79998779296875</ele>
        <time>2025-04-29T22:39:10.000Z</time>
        <extensions>
          <ns3:TrackPointExtension/>
        </extensions>
      </trkpt>
      <trkpt lat="50.42511197738349437713623046875" lon="6.24326594173908233642578125">
        <ele>558.20001220703125</ele>
        <time>2025-04-29T22:39:13.000Z</time>
        <extensions>
          <ns3:TrackPointExtension/>
        </extensions>
      </trkpt>
      <trkpt lat="50.42528397403657436370849609375" lon="6.243437938392162322998046875">
        <ele>552.5999755859375</ele>
        <time>2025-04-29T22:39:15.000Z</time>
        <extensions>
          <ns3:TrackPointExtension/>
        </extensions>
      </trkpt>
      <trkpt lat="50.42539495043456554412841796875" lon="6.24365796335041522979736328125">
        <ele>549.5999755859375</ele>
        <time>2025-04-29T22:39:18.000Z</time>
        <extensions>
          <ns3:TrackPointExtension/>
        </extensions>
      </trkpt>
      <trkpt lat="50.42543493211269378662109375" lon="6.24379894696176052093505859375">
        <ele>548.20001220703125</ele>
        <time>2025-04-29T22:39:20.000Z</time>
        <extensions>
          <ns3:TrackPointExtension/>
        </extensions>
      </trkpt>
      <trkpt lat="50.425437949597835540771484375" lon="6.24411393888294696807861328125">
        <ele>546</ele>
        <time>2025-04-29T22:39:23.000Z</time>
        <extensions>
          <ns3:TrackPointExtension/>
        </extensions>
      </trkpt>
      <trkpt lat="50.42539796791970729827880859375" lon="6.2442749552428722381591796875">
        <ele>546</ele>
        <time>2025-04-29T22:39:25.000Z</time>
        <extensions>
          <ns3:TrackPointExtension/>
        </extensions>
      </trkpt>
      <trkpt lat="50.42533996514976024627685546875" lon="6.2443889491260051727294921875">
        <ele>546</ele>
        <time>2025-04-29T22:39:28.000Z</time>
        <extensions>
          <ns3:TrackPointExtension/>
        </extensions>
      </trkpt>
      <trkpt lat="50.4252359457314014434814453125" lon="6.244533956050872802734375">
        <ele>546.4000244140625</ele>
        <time>2025-04-29T22:39:31.000Z</time>
        <extensions>
          <ns3:TrackPointExtension/>
        </extensions>
      </trkpt>
      <trkpt lat="50.42349594645202159881591796875" lon="6.24659095890820026397705078125">
        <ele>554.79998779296875</ele>
        <time>2025-04-29T22:39:33.000Z</time>
        <extensions>
          <ns3:TrackPointExtension/>
        </extensions>
      </trkpt>
      <trkpt lat="50.423420928418636322021484375" lon="6.2466949783265590667724609375">
        <ele>555</ele>
        <time>2025-04-29T22:39:36.000Z</time>
        <extensions>
          <ns3:TrackPointExtension/>
        </extensions>
      </trkpt>
      <trkpt lat="50.42337097227573394775390625" lon="6.24681794084608554840087890625">
        <ele>553.4000244140625</ele>
        <time>2025-04-29T22:39:38.000Z</time>
        <extensions>
          <ns3:TrackPointExtension/>
        </extensions>
      </trkpt>
      <trkpt lat="50.4233389534056186676025390625" lon="6.246950961649417877197265625">
        <ele>552.4000244140625</ele>
        <time>2025-04-29T22:39:41.000Z</time>
        <extensions>
          <ns3:TrackPointExtension/>
        </extensions>
      </trkpt>
      <trkpt lat="50.4233389534056186676025390625" lon="6.247183978557586669921875">
        <ele>551.5999755859375</ele>
        <time>2025-04-29T22:39:43.000Z</time>
        <extensions>
          <ns3:TrackPointExtension/>
        </extensions>
      </trkpt>
      <trkpt lat="50.423656962811946868896484375" lon="6.24828192405402660369873046875">
        <ele>547.79998779296875</ele>
        <time>2025-04-29T22:39:46.000Z</time>
        <extensions>
          <ns3:TrackPointExtension/>
        </extensions>
      </trkpt>
      <trkpt lat="50.4237989522516727447509765625" lon="6.2488269992172718048095703125">
        <ele>551.79998779296875</ele>
        <time>2025-04-29T22:39:49.000Z</time>
        <extensions>
          <ns3:TrackPointExtension/>
        </extensions>
      </trkpt>
      <trkpt lat="50.4237969405949115753173828125" lon="6.24895499087870121002197265625">
        <ele>553.20001220703125</ele>
        <time>2025-04-29T22:39:51.000Z</time>
        <extensions>
          <ns3:TrackPointExtension/>
        </extensions>
      </trkpt>
      <trkpt lat="50.42374991811811923980712890625" lon="6.24911592341959476470947265625">
        <ele>554.20001220703125</ele>
        <time>2025-04-29T22:39:54.000Z</time>
        <extensions>
          <ns3:TrackPointExtension/>
        </extensions>
      </trkpt>
      <trkpt lat="50.42347599752247333526611328125" lon="6.2496769241988658905029296875">
        <ele>555</ele>
        <time>2025-04-29T22:39:56.000Z</time>
        <extensions>
          <ns3:TrackPointExtension/>
        </extensions>
      </trkpt>
      <trkpt lat="50.42338396422564983367919921875" lon="6.24992595054209232330322265625">
        <ele>555</ele>
        <time>2025-04-29T22:39:59.000Z</time>
        <extensions>
          <ns3:TrackPointExtension/>
        </extensions>
      </trkpt>
      <trkpt lat="50.423314981162548065185546875" lon="6.250174976885318756103515625">
        <ele>555.79998779296875</ele>
        <time>2025-04-29T22:40:01.000Z</time>
        <extensions>
          <ns3:TrackPointExtension/>
        </extensions>
      </trkpt>
      <trkpt lat="50.42324599809944629669189453125" lon="6.25058594159781932830810546875">
        <ele>559.79998779296875</ele>
        <time>2025-04-29T22:40:04.000Z</time>
        <extensions>
          <ns3:TrackPointExtension/>
        </extensions>
      </trkpt>
      <trkpt lat="50.4231919348239898681640625" lon="6.25136294402182102203369140625">
        <ele>562.5999755859375</ele>
        <time>2025-04-29T22:40:06.000Z</time>
        <extensions>
          <ns3:TrackPointExtension/>
        </extensions>
      </trkpt>
      <trkpt lat="50.423257984220981597900390625" lon="6.25234295614063739776611328125">
        <ele>561.4000244140625</ele>
        <time>2025-04-29T22:40:09.000Z</time>
        <extensions>
          <ns3:TrackPointExtension/>
        </extensions>
      </trkpt>
      <trkpt lat="50.42321397922933101654052734375" lon="6.25339396297931671142578125">
        <ele>560.79998779296875</ele>
        <time>2025-04-29T22:40:12.000Z</time>
        <extensions>
          <ns3:TrackPointExtension/>
        </extensions>
      </trkpt>
      <trkpt lat="50.42326091788709163665771484375" lon="6.2536469288170337677001953125">
        <ele>562.4000244140625</ele>
        <time>2025-04-29T22:40:14.000Z</time>
        <extensions>
          <ns3:TrackPointExtension/>
        </extensions>
      </trkpt>
      <trkpt lat="50.42334691621363162994384765625" lon="6.25385798513889312744140625">
        <ele>563.20001220703125</ele>
        <time>2025-04-29T22:40:17.000Z</time>
        <extensions>
          <ns3:TrackPointExtension/>
        </extensions>
      </trkpt>
      <trkpt lat="50.423477925360202789306640625" lon="6.25398195348680019378662109375">
        <ele>564.20001220703125</ele>
        <time>2025-04-29T22:40:19.000Z</time>
        <extensions>
          <ns3:TrackPointExtension/>
        </extensions>
      </trkpt>
      <trkpt lat="50.42357892729341983795166015625" lon="6.25404599122703075408935546875">
        <ele>565</ele>
        <time>2025-04-29T22:40:22.000Z</time>
        <extensions>
          <ns3:TrackPointExtension/>
        </extensions>
      </trkpt>
      <trkpt lat="50.42370599694550037384033203125" lon="6.25403995625674724578857421875">
        <ele>565.79998779296875</ele>
        <time>2025-04-29T22:40:24.000Z</time>
        <extensions>
          <ns3:TrackPointExtension/>
        </extensions>
      </trkpt>
      <trkpt lat="50.42386491782963275909423828125" lon="6.25420893542468547821044921875">
        <ele>567</ele>
        <time>2025-04-29T22:40:27.000Z</time>
        <extensions>
          <ns3:TrackPointExtension/>
        </extensions>
      </trkpt>
      <trkpt lat="50.42395493946969509124755859375" lon="6.2544299662113189697265625">
        <ele>566.4000244140625</ele>
        <time>2025-04-29T22:40:30.000Z</time>
        <extensions>
          <ns3:TrackPointExtension/>
        </extensions>
      </trkpt>
      <trkpt lat="50.423945970833301544189453125" lon="6.254888959228992462158203125">
        <ele>565</ele>
        <time>2025-04-29T22:40:32.000Z</time>
        <extensions>
          <ns3:TrackPointExtension/>
        </extensions>
      </trkpt>
      <trkpt lat="50.424061976373195648193359375" lon="6.2552579306066036224365234375">
        <ele>561.5999755859375</ele>
        <time>2025-04-29T22:40:35.000Z</time>
        <extensions>
          <ns3:TrackPointExtension/>
        </extensions>
      </trkpt>
      <trkpt lat="50.42467595078051090240478515625" lon="6.25645293854176998138427734375">
        <ele>549.20001220703125</ele>
        <time>2025-04-29T22:40:37.000Z</time>
        <extensions>
          <ns3:TrackPointExtension/>
        </extensions>
      </trkpt>
      <trkpt lat="50.424808971583843231201171875" lon="6.2566399388015270233154296875">
        <ele>549</ele>
        <time>2025-04-29T22:40:40.000Z</time>
        <extensions>
          <ns3:TrackPointExtension/>
        </extensions>
      </trkpt>
      <trkpt lat="50.42490595020353794097900390625" lon="6.25682593323290348052978515625">
        <ele>549</ele>
        <time>2025-04-29T22:40:42.000Z</time>
        <extensions>
          <ns3:TrackPointExtension/>
        </extensions>
      </trkpt>
      <trkpt lat="50.4249549843370914459228515625" lon="6.2569619715213775634765625">
        <ele>549.4000244140625</ele>
        <time>2025-04-29T22:40:45.000Z</time>
        <extensions>
          <ns3:TrackPointExtension/>
        </extensions>
      </trkpt>
      <trkpt lat="50.425439961254596710205078125" lon="6.2590649910271167755126953125">
        <ele>551.79998779296875</ele>
        <time>2025-04-29T22:40:47.000Z</time>
        <extensions>
          <ns3:TrackPointExtension/>
        </extensions>
      </trkpt>
      <trkpt lat="50.42542194016277790069580078125" lon="6.25915492884814739227294921875">
        <ele>551.5999755859375</ele>
        <time>2025-04-29T22:40:52.000Z</time>
        <extensions>
          <ns3:TrackPointExtension/>
        </extensions>
      </trkpt>
      <trkpt lat="50.42528699152171611785888671875" lon="6.2592869438230991363525390625">
        <ele>551.20001220703125</ele>
        <time>2025-04-29T22:40:56.000Z</time>
        <extensions>
          <ns3:TrackPointExtension/>
        </extensions>
      </trkpt>
      <trkpt lat="50.4250719957053661346435546875" lon="6.2594109959900379180908203125">
        <ele>549.5999755859375</ele>
        <time>2025-04-29T22:41:00.000Z</time>
        <extensions>
          <ns3:TrackPointExtension/>
        </extensions>
      </trkpt>
      <trkpt lat="50.4245989210903644561767578125" lon="6.25956094823777675628662109375">
        <ele>551.4000244140625</ele>
        <time>2025-04-29T22:41:04.000Z</time>
        <extensions>
          <ns3:TrackPointExtension/>
        </extensions>
      </trkpt>
      <trkpt lat="50.42426993139088153839111328125" lon="6.25961693935096263885498046875">
        <ele>554.5999755859375</ele>
        <time>2025-04-29T22:41:08.000Z</time>
        <extensions>
          <ns3:TrackPointExtension/>
        </extensions>
      </trkpt>
      <trkpt lat="50.42409793473780155181884765625" lon="6.2596969865262508392333984375">
        <ele>557.4000244140625</ele>
        <time>2025-04-29T22:41:12.000Z</time>
        <extensions>
          <ns3:TrackPointExtension/>
        </extensions>
      </trkpt>
      <trkpt lat="50.4240359924733638763427734375" lon="6.25984199345111846923828125">
        <ele>559.79998779296875</ele>
        <time>2025-04-29T22:41:16.000Z</time>
        <extensions>
          <ns3:TrackPointExtension/>
        </extensions>
      </trkpt>
      <trkpt lat="50.4240229167044162750244140625" lon="6.260007955133914947509765625">
        <ele>561.20001220703125</ele>
        <time>2025-04-29T22:41:20.000Z</time>
        <extensions>
          <ns3:TrackPointExtension/>
        </extensions>
      </trkpt>
      <trkpt lat="50.42407496832311153411865234375" lon="6.26097497530281543731689453125">
        <ele>566.79998779296875</ele>
        <time>2025-04-29T22:41:24.000Z</time>
        <extensions>
          <ns3:TrackPointExtension/>
        </extensions>
      </trkpt>
      <trkpt lat="50.424055941402912139892578125" lon="6.2611319683492183685302734375">
        <ele>566.5999755859375</ele>
        <time>2025-04-29T22:41:28.000Z</time>
        <extensions>
          <ns3:TrackPointExtension/>
        </extensions>
      </trkpt>
      <trkpt lat="50.423997938632965087890625" lon="6.26133891753852367401123046875">
        <ele>567.20001220703125</ele>
        <time>2025-04-29T22:41:32.000Z</time>
        <extensions>
          <ns3:TrackPointExtension/>
        </extensions>
      </trkpt>
      <trkpt lat="50.42335093952715396881103515625" lon="6.26039695926010608673095703125">
        <ele>573.79998779296875</ele>
        <time>2025-04-29T22:41:35.000Z</time>
        <extensions>
          <ns3:TrackPointExtension/>
        </extensions>
      </trkpt>
      <trkpt lat="50.42320895008742809295654296875" lon="6.26022999174892902374267578125">
        <ele>574.79998779296875</ele>
        <time>2025-04-29T22:41:38.000Z</time>
        <extensions>
          <ns3:TrackPointExtension/>
        </extensions>
      </trkpt>
      <trkpt lat="50.4230489395558834075927734375" lon="6.26013494096696376800537109375">
        <ele>575.5999755859375</ele>
        <time>2025-04-29T22:41:40.000Z</time>
        <extensions>
          <ns3:TrackPointExtension/>
        </extensions>
      </trkpt>
      <trkpt lat="50.422683991491794586181640625" lon="6.26005799509584903717041015625">
        <ele>577.20001220703125</ele>
        <time>2025-04-29T22:41:43.000Z</time>
        <extensions>
          <ns3:TrackPointExtension/>
        </extensions>
      </trkpt>
      <trkpt lat="50.42254694737493991851806640625" lon="6.2600599229335784912109375">
        <ele>578.79998779296875</ele>
        <time>2025-04-29T22:41:46.000Z</time>
        <extensions>
          <ns3:TrackPointExtension/>
        </extensions>
      </trkpt>
      <trkpt lat="50.4223589412868022918701171875" lon="6.26012094318866729736328125">
        <ele>581.20001220703125</ele>
        <time>2025-04-29T22:41:48.000Z</time>
        <extensions>
          <ns3:TrackPointExtension/>
        </extensions>
      </trkpt>
      <trkpt lat="50.42221896350383758544921875" lon="6.260237954556941986083984375">
        <ele>582.79998779296875</ele>
        <time>2025-04-29T22:41:51.000Z</time>
        <extensions>
          <ns3:TrackPointExtension/>
        </extensions>
      </trkpt>
      <trkpt lat="50.4220749624073505401611328125" lon="6.2604329176247119903564453125">
        <ele>584.20001220703125</ele>
        <time>2025-04-29T22:41:54.000Z</time>
        <extensions>
          <ns3:TrackPointExtension/>
        </extensions>
      </trkpt>
      <trkpt lat="50.421582944691181182861328125" lon="6.26137697137892246246337890625">
        <ele>584</ele>
        <time>2025-04-29T22:41:56.000Z</time>
        <extensions>
          <ns3:TrackPointExtension/>
        </extensions>
      </trkpt>
      <trkpt lat="50.421244986355304718017578125" lon="6.26198499463498592376708984375">
        <ele>585.79998779296875</ele>
        <time>2025-04-29T22:41:59.000Z</time>
        <extensions>
          <ns3:TrackPointExtension/>
        </extensions>
      </trkpt>
      <trkpt lat="50.42110593058168888092041015625" lon="6.2625139765441417694091796875">
        <ele>587.20001220703125</ele>
        <time>2025-04-29T22:42:02.000Z</time>
        <extensions>
          <ns3:TrackPointExtension/>
        </extensions>
      </trkpt>
      <trkpt lat="50.42102194391191005706787109375" lon="6.263343952596187591552734375">
        <ele>588.5999755859375</ele>
        <time>2025-04-29T22:42:04.000Z</time>
        <extensions>
          <ns3:TrackPointExtension/>
        </extensions>
      </trkpt>
      <trkpt lat="50.42093896307051181793212890625" lon="6.26365299336612224578857421875">
        <ele>589.4000244140625</ele>
        <time>2025-04-29T22:42:07.000Z</time>
        <extensions>
          <ns3:TrackPointExtension/>
        </extensions>
      </trkpt>
      <trkpt lat="50.42072899639606475830078125" lon="6.26391199417412281036376953125">
        <ele>589.5999755859375</ele>
        <time>2025-04-29T22:42:10.000Z</time>
        <extensions>
          <ns3:TrackPointExtension/>
        </extensions>
      </trkpt>
      <trkpt lat="50.42019498534500598907470703125" lon="6.26410796307027339935302734375">
        <ele>591</ele>
        <time>2025-04-29T22:42:12.000Z</time>
        <extensions>
          <ns3:TrackPointExtension/>
        </extensions>
      </trkpt>
      <trkpt lat="50.41928596794605255126953125" lon="6.264552958309650421142578125">
        <ele>587.5999755859375</ele>
        <time>2025-04-29T22:42:15.000Z</time>
        <extensions>
          <ns3:TrackPointExtension/>
        </extensions>
      </trkpt>
      <trkpt lat="50.41765795089304447174072265625" lon="6.26528595574200153350830078125">
        <ele>584.4000244140625</ele>
        <time>2025-04-29T22:42:18.000Z</time>
        <extensions>
          <ns3:TrackPointExtension/>
        </extensions>
      </trkpt>
      <trkpt lat="50.41754093952476978302001953125" lon="6.2654419429600238800048828125">
        <ele>584.4000244140625</ele>
        <time>2025-04-29T22:42:20.000Z</time>
        <extensions>
          <ns3:TrackPointExtension/>
        </extensions>
      </trkpt>
      <trkpt lat="50.41723399423062801361083984375" lon="6.26545694656670093536376953125">
        <ele>582.20001220703125</ele>
        <time>2025-04-29T22:42:22.000Z</time>
        <extensions>
          <ns3:TrackPointExtension/>
        </extensions>
      </trkpt>
      <trkpt lat="50.41694498620927333831787109375" lon="6.26533892937004566192626953125">
        <ele>583.5999755859375</ele>
        <time>2025-04-29T22:42:24.000Z</time>
        <extensions>
          <ns3:TrackPointExtension/>
        </extensions>
      </trkpt>
      <trkpt lat="50.41676393710076808929443359375" lon="6.2651029787957668304443359375">
        <ele>583.4000244140625</ele>
        <time>2025-04-29T22:42:25.000Z</time>
        <extensions>
          <ns3:TrackPointExtension/>
        </extensions>
      </trkpt>
      <trkpt lat="50.4166119731962680816650390625" lon="6.26510892994701862335205078125">
        <ele>584.4000244140625</ele>
        <time>2025-04-29T22:42:32.000Z</time>
        <extensions>
          <ns3:TrackPointExtension/>
        </extensions>
      </trkpt>
      <trkpt lat="50.41496492922306060791015625" lon="6.2642349489033222198486328125">
        <ele>589</ele>
        <time>2025-04-29T22:42:40.000Z</time>
        <extensions>
          <ns3:TrackPointExtension/>
        </extensions>
      </trkpt>
      <trkpt lat="50.41460794396698474884033203125" lon="6.264147944748401641845703125">
        <ele>587.79998779296875</ele>
        <time>2025-04-29T22:42:47.000Z</time>
        <extensions>
          <ns3:TrackPointExtension/>
        </extensions>
      </trkpt>
      <trkpt lat="50.41418197564780712127685546875" lon="6.26408994197845458984375">
        <ele>586</ele>
        <time>2025-04-29T22:42:54.000Z</time>
        <extensions>
          <ns3:TrackPointExtension/>
        </extensions>
      </trkpt>
      <trkpt lat="50.413296930491924285888671875" lon="6.26396094448864459991455078125">
        <ele>579.4000244140625</ele>
        <time>2025-04-29T22:43:02.000Z</time>
        <extensions>
          <ns3:TrackPointExtension/>
        </extensions>
      </trkpt>
      <trkpt lat="50.4126949422061443328857421875" lon="6.263799928128719329833984375">
        <ele>574.20001220703125</ele>
        <time>2025-04-29T22:43:09.000Z</time>
        <extensions>
          <ns3:TrackPointExtension/>
        </extensions>
      </trkpt>
      <trkpt lat="50.4124899208545684814453125" lon="6.263805963099002838134765625">
        <ele>572</ele>
        <time>2025-04-29T22:43:16.000Z</time>
        <extensions>
          <ns3:TrackPointExtension/>
        </extensions>
      </trkpt>
      <trkpt lat="50.4117749445140361785888671875" lon="6.26407896168529987335205078125">
        <ele>566.20001220703125</ele>
        <time>2025-04-29T22:43:24.000Z</time>
        <extensions>
          <ns3:TrackPointExtension/>
        </extensions>
      </trkpt>
      <trkpt lat="50.41164594702422618865966796875" lon="6.2640629522502422332763671875">
        <ele>564.79998779296875</ele>
        <time>2025-04-29T22:43:31.000Z</time>
        <extensions>
          <ns3:TrackPointExtension/>
        </extensions>
      </trkpt>
      <trkpt lat="50.41155894286930561065673828125" lon="6.26402598805725574493408203125">
        <ele>563.79998779296875</ele>
        <time>2025-04-29T22:43:38.000Z</time>
        <extensions>
          <ns3:TrackPointExtension/>
        </extensions>
      </trkpt>
      <trkpt lat="50.41138594038784503936767578125" lon="6.2641279958188533782958984375">
        <ele>564.20001220703125</ele>
        <time>2025-04-29T22:43:42.000Z</time>
        <extensions>
          <ns3:TrackPointExtension/>
        </extensions>
      </trkpt>
      <trkpt lat="50.4110869579017162322998046875" lon="6.26409597694873809814453125">
        <ele>563</ele>
        <time>2025-04-29T22:43:46.000Z</time>
        <extensions>
          <ns3:TrackPointExtension/>
        </extensions>
      </trkpt>
      <trkpt lat="50.41017894633114337921142578125" lon="6.26385097391903400421142578125">
        <ele>559.20001220703125</ele>
        <time>2025-04-29T22:43:50.000Z</time>
        <extensions>
          <ns3:TrackPointExtension/>
        </extensions>
      </trkpt>
      <trkpt lat="50.410082973539829254150390625" lon="6.263797916471958160400390625">
        <ele>559</ele>
        <time>2025-04-29T22:43:54.000Z</time>
        <extensions>
          <ns3:TrackPointExtension/>
        </extensions>
      </trkpt>
      <trkpt lat="50.4100559838116168975830078125" lon="6.264035962522029876708984375">
        <ele>560.79998779296875</ele>
        <time>2025-04-29T22:43:56.000Z</time>
        <extensions>
          <ns3:TrackPointExtension/>
        </extensions>
      </trkpt>
      <trkpt lat="50.41006193496286869049072265625" lon="6.264214999973773956298828125">
        <ele>562.5999755859375</ele>
        <time>2025-04-29T22:43:58.000Z</time>
        <extensions>
          <ns3:TrackPointExtension/>
        </extensions>
      </trkpt>
      <trkpt lat="50.410135947167873382568359375" lon="6.26434198580682277679443359375">
        <ele>564.20001220703125</ele>
        <time>2025-04-29T22:44:00.000Z</time>
        <extensions>
          <ns3:TrackPointExtension/>
        </extensions>
      </trkpt>
      <trkpt lat="50.41031397879123687744140625" lon="6.26442094333469867706298828125">
        <ele>565.20001220703125</ele>
        <time>2025-04-29T22:44:02.000Z</time>
        <extensions>
          <ns3:TrackPointExtension/>
        </extensions>
      </trkpt>
      <trkpt lat="50.41041296906769275665283203125" lon="6.26450392417609691619873046875">
        <ele>565.4000244140625</ele>
        <time>2025-04-29T22:44:04.000Z</time>
        <extensions>
          <ns3:TrackPointExtension/>
        </extensions>
      </trkpt>
      <trkpt lat="50.41046795435249805450439453125" lon="6.26462898217141628265380859375">
        <ele>566</ele>
        <time>2025-04-29T22:44:06.000Z</time>
        <extensions>
          <ns3:TrackPointExtension/>
        </extensions>
      </trkpt>
      <trkpt lat="50.410484969615936279296875" lon="6.2647859752178192138671875">
        <ele>567</ele>
        <time>2025-04-29T22:44:08.000Z</time>
        <extensions>
          <ns3:TrackPointExtension/>
        </extensions>
      </trkpt>
      <trkpt lat="50.41043593548238277435302734375" lon="6.26494196243584156036376953125">
        <ele>568</ele>
        <time>2025-04-29T22:44:10.000Z</time>
        <extensions>
          <ns3:TrackPointExtension/>
        </extensions>
      </trkpt>
      <trkpt lat="50.41032093577086925506591796875" lon="6.2651019729673862457275390625">
        <ele>569</ele>
        <time>2025-04-29T22:44:13.000Z</time>
        <extensions>
          <ns3:TrackPointExtension/>
        </extensions>
      </trkpt>
      <trkpt lat="50.41026092134416103363037109375" lon="6.26528595574200153350830078125">
        <ele>570.79998779296875</ele>
        <time>2025-04-29T22:44:15.000Z</time>
        <extensions>
          <ns3:TrackPointExtension/>
        </extensions>
      </trkpt>
      <trkpt lat="50.41026997379958629608154296875" lon="6.26542693935334682464599609375">
        <ele>572.20001220703125</ele>
        <time>2025-04-29T22:44:17.000Z</time>
        <extensions>
          <ns3:TrackPointExtension/>
        </extensions>
      </trkpt>
      <trkpt lat="50.41058094240725040435791015625" lon="6.26697692088782787322998046875">
        <ele>581.79998779296875</ele>
        <time>2025-04-29T22:44:19.000Z</time>
        <extensions>
          <ns3:TrackPointExtension/>
        </extensions>
      </trkpt>
      <trkpt lat="50.4105909168720245361328125" lon="6.26724095083773136138916015625">
        <ele>583.5999755859375</ele>
        <time>2025-04-29T22:44:21.000Z</time>
        <extensions>
          <ns3:TrackPointExtension/>
        </extensions>
      </trkpt>
      <trkpt lat="50.41084798984229564666748046875" lon="6.26851198263466358184814453125">
        <ele>588</ele>
        <time>2025-04-29T22:44:23.000Z</time>
        <extensions>
          <ns3:TrackPointExtension/>
        </extensions>
      </trkpt>
      <trkpt lat="50.411116965115070343017578125" lon="6.26996599137783050537109375">
        <ele>594.20001220703125</ele>
        <time>2025-04-29T22:44:25.000Z</time>
        <extensions>
          <ns3:TrackPointExtension/>
        </extensions>
      </trkpt>
      <trkpt lat="50.411175973713397979736328125" lon="6.27037997357547283172607421875">
        <ele>595</ele>
        <time>2025-04-29T22:44:27.000Z</time>
        <extensions>
          <ns3:TrackPointExtension/>
        </extensions>
      </trkpt>
      <trkpt lat="50.4112019576132297515869140625" lon="6.27220094203948974609375">
        <ele>599.79998779296875</ele>
        <time>2025-04-29T22:44:29.000Z</time>
        <extensions>
          <ns3:TrackPointExtension/>
        </extensions>
      </trkpt>
      <trkpt lat="50.41129893623292446136474609375" lon="6.273007951676845550537109375">
        <ele>604.79998779296875</ele>
        <time>2025-04-29T22:44:31.000Z</time>
        <extensions>
          <ns3:TrackPointExtension/>
        </extensions>
      </trkpt>
      <trkpt lat="50.41145391762256622314453125" lon="6.2738479860126972198486328125">
        <ele>609.20001220703125</ele>
        <time>2025-04-29T22:44:33.000Z</time>
        <extensions>
          <ns3:TrackPointExtension/>
        </extensions>
      </trkpt>
      <trkpt lat="50.41136096231639385223388671875" lon="6.273935995995998382568359375">
        <ele>609.4000244140625</ele>
        <time>2025-04-29T22:44:41.000Z</time>
        <extensions>
          <ns3:TrackPointExtension/>
        </extensions>
      </trkpt>
      <trkpt lat="50.4110269434750080108642578125" lon="6.2739549390971660614013671875">
        <ele>610.5999755859375</ele>
        <time>2025-04-29T22:44:49.000Z</time>
        <extensions>
          <ns3:TrackPointExtension/>
        </extensions>
      </trkpt>
      <trkpt lat="50.41058496572077274322509765625" lon="6.27388193272054195404052734375">
        <ele>609.79998779296875</ele>
        <time>2025-04-29T22:44:57.000Z</time>
        <extensions>
          <ns3:TrackPointExtension/>
        </extensions>
      </trkpt>
      <trkpt lat="50.40994492359459400177001953125" lon="6.2736199982464313507080078125">
        <ele>605</ele>
        <time>2025-04-29T22:45:05.000Z</time>
        <extensions>
          <ns3:TrackPointExtension/>
        </extensions>
      </trkpt>
      <trkpt lat="50.4090779833495616912841796875" lon="6.2730899266898632049560546875">
        <ele>598</ele>
        <time>2025-04-29T22:45:12.000Z</time>
        <extensions>
          <ns3:TrackPointExtension/>
        </extensions>
      </trkpt>
      <trkpt lat="50.40807995013892650604248046875" lon="6.272378973662853240966796875">
        <ele>586.79998779296875</ele>
        <time>2025-04-29T22:45:20.000Z</time>
        <extensions>
          <ns3:TrackPointExtension/>
        </extensions>
      </trkpt>
      <trkpt lat="50.407489947974681854248046875" lon="6.27156198956072330474853515625">
        <ele>578.79998779296875</ele>
        <time>2025-04-29T22:45:28.000Z</time>
        <extensions>
          <ns3:TrackPointExtension/>
        </extensions>
      </trkpt>
      <trkpt lat="50.40684596635401248931884765625" lon="6.2713109515607357025146484375">
        <ele>578.4000244140625</ele>
        <time>2025-04-29T22:45:36.000Z</time>
        <extensions>
          <ns3:TrackPointExtension/>
        </extensions>
      </trkpt>
      <trkpt lat="50.4064899869263172149658203125" lon="6.27126795239746570587158203125">
        <ele>575.20001220703125</ele>
        <time>2025-04-29T22:45:43.000Z</time>
        <extensions>
          <ns3:TrackPointExtension/>
        </extensions>
      </trkpt>
      <trkpt lat="50.40612797252833843231201171875" lon="6.2713689543306827545166015625">
        <ele>571.5999755859375</ele>
        <time>2025-04-29T22:45:51.000Z</time>
        <extensions>
          <ns3:TrackPointExtension/>
        </extensions>
      </trkpt>
      <trkpt lat="50.40552296675741672515869140625" lon="6.27184194512665271759033203125">
        <ele>568.79998779296875</ele>
        <time>2025-04-29T22:45:59.000Z</time>
        <extensions>
          <ns3:TrackPointExtension/>
        </extensions>
      </trkpt>
      <trkpt lat="50.40456793271005153656005859375" lon="6.2717669270932674407958984375">
        <ele>558.5999755859375</ele>
        <time>2025-04-29T22:46:07.000Z</time>
        <extensions>
          <ns3:TrackPointExtension/>
        </extensions>
      </trkpt>
      <trkpt lat="50.404493920505046844482421875" lon="6.27178695984184741973876953125">
        <ele>558.20001220703125</ele>
        <time>2025-04-29T22:46:14.000Z</time>
        <extensions>
          <ns3:TrackPointExtension/>
        </extensions>
      </trkpt>
      <trkpt lat="50.4048799909651279449462890625" lon="6.27495297230780124664306640625">
        <ele>571.4000244140625</ele>
        <time>2025-04-29T22:46:22.000Z</time>
        <extensions>
          <ns3:TrackPointExtension/>
        </extensions>
      </trkpt>
      <trkpt lat="50.405012927949428558349609375" lon="6.27552696503698825836181640625">
        <ele>574.79998779296875</ele>
        <time>2025-04-29T22:46:30.000Z</time>
        <extensions>
          <ns3:TrackPointExtension/>
        </extensions>
      </trkpt>
      <trkpt lat="50.4051669873297214508056640625" lon="6.276003979146480560302734375">
        <ele>577.20001220703125</ele>
        <time>2025-04-29T22:46:37.000Z</time>
        <extensions>
          <ns3:TrackPointExtension/>
        </extensions>
      </trkpt>
      <trkpt lat="50.405419953167438507080078125" lon="6.2765999324619770050048828125">
        <ele>577.4000244140625</ele>
        <time>2025-04-29T22:46:45.000Z</time>
        <extensions>
          <ns3:TrackPointExtension/>
        </extensions>
      </trkpt>
      <trkpt lat="50.4058579914271831512451171875" lon="6.27745295874774456024169921875">
        <ele>579.5999755859375</ele>
        <time>2025-04-29T22:46:52.000Z</time>
        <extensions>
          <ns3:TrackPointExtension/>
        </extensions>
      </trkpt>
      <trkpt lat="50.40611095726490020751953125" lon="6.2781019695103168487548828125">
        <ele>577.5999755859375</ele>
        <time>2025-04-29T22:47:00.000Z</time>
        <extensions>
          <ns3:TrackPointExtension/>
        </extensions>
      </trkpt>
      <trkpt lat="50.40626795031130313873291015625" lon="6.27863799221813678741455078125">
        <ele>580.4000244140625</ele>
        <time>2025-04-29T22:47:08.000Z</time>
        <extensions>
          <ns3:TrackPointExtension/>
        </extensions>
      </trkpt>
      <trkpt lat="50.40635394863784313201904296875" lon="6.27914794720709323883056640625">
        <ele>582.79998779296875</ele>
        <time>2025-04-29T22:47:15.000Z</time>
        <extensions>
          <ns3:TrackPointExtension/>
        </extensions>
      </trkpt>
      <trkpt lat="50.4064309783279895782470703125" lon="6.280027963221073150634765625">
        <ele>584.5999755859375</ele>
        <time>2025-04-29T22:47:23.000Z</time>
        <extensions>
          <ns3:TrackPointExtension/>
        </extensions>
      </trkpt>
      <trkpt lat="50.40638093836605548858642578125" lon="6.28055694513022899627685546875">
        <ele>583.5999755859375</ele>
        <time>2025-04-29T22:47:30.000Z</time>
        <extensions>
          <ns3:TrackPointExtension/>
        </extensions>
      </trkpt>
      <trkpt lat="50.40624196641147136688232421875" lon="6.2811219692230224609375">
        <ele>584</ele>
        <time>2025-04-29T22:47:38.000Z</time>
        <extensions>
          <ns3:TrackPointExtension/>
        </extensions>
      </trkpt>
      <trkpt lat="50.40618094615638256072998046875" lon="6.28130494616925716400146484375">
        <ele>584.79998779296875</ele>
        <time>2025-04-29T22:47:46.000Z</time>
        <extensions>
          <ns3:TrackPointExtension/>
        </extensions>
      </trkpt>
      <trkpt lat="50.405997969210147857666015625" lon="6.2817289866507053375244140625">
        <ele>587.5999755859375</ele>
        <time>2025-04-29T22:47:53.000Z</time>
        <extensions>
          <ns3:TrackPointExtension/>
        </extensions>
      </trkpt>
      <trkpt lat="50.40552497841417789459228515625" lon="6.28260992467403411865234375">
        <ele>589.5999755859375</ele>
        <time>2025-04-29T22:48:01.000Z</time>
        <extensions>
          <ns3:TrackPointExtension/>
        </extensions>
      </trkpt>
      <trkpt lat="50.40106798522174358367919921875" lon="6.29038992337882518768310546875">
        <ele>601.20001220703125</ele>
        <time>2025-04-29T22:48:08.000Z</time>
        <extensions>
          <ns3:TrackPointExtension/>
        </extensions>
      </trkpt>
      <trkpt lat="50.40078199468553066253662109375" lon="6.29091597162187099456787109375">
        <ele>604.20001220703125</ele>
        <time>2025-04-29T22:48:16.000Z</time>
        <extensions>
          <ns3:TrackPointExtension/>
        </extensions>
      </trkpt>
      <trkpt lat="50.400697924196720123291015625" lon="6.2910999543964862823486328125">
        <ele>605.20001220703125</ele>
        <time>2025-04-29T22:48:24.000Z</time>
        <extensions>
          <ns3:TrackPointExtension/>
        </extensions>
      </trkpt>
      <trkpt lat="50.40060094557702541351318359375" lon="6.29151293076574802398681640625">
        <ele>605.5999755859375</ele>
        <time>2025-04-29T22:48:31.000Z</time>
        <extensions>
          <ns3:TrackPointExtension/>
        </extensions>
      </trkpt>
      <trkpt lat="50.4005619697272777557373046875" lon="6.29174997098743915557861328125">
        <ele>605.4000244140625</ele>
        <time>2025-04-29T22:48:39.000Z</time>
        <extensions>
          <ns3:TrackPointExtension/>
        </extensions>
      </trkpt>
      <trkpt lat="50.40052793920040130615234375" lon="6.29252194426953792572021484375">
        <ele>608.20001220703125</ele>
        <time>2025-04-29T22:48:46.000Z</time>
        <extensions>
          <ns3:TrackPointExtension/>
        </extensions>
      </trkpt>
      <trkpt lat="50.40054394863545894622802734375" lon="6.292802989482879638671875">
        <ele>609.20001220703125</ele>
        <time>2025-04-29T22:48:54.000Z</time>
        <extensions>
          <ns3:TrackPointExtension/>
        </extensions>
      </trkpt>
      <trkpt lat="50.40058694779872894287109375" lon="6.29315192811191082000732421875">
        <ele>609.4000244140625</ele>
        <time>2025-04-29T22:49:02.000Z</time>
        <extensions>
          <ns3:TrackPointExtension/>
        </extensions>
      </trkpt>
      <trkpt lat="50.40092892944812774658203125" lon="6.2957009486854076385498046875">
        <ele>614.79998779296875</ele>
        <time>2025-04-29T22:49:09.000Z</time>
        <extensions>
          <ns3:TrackPointExtension/>
        </extensions>
      </trkpt>
      <trkpt lat="50.4009559191763401031494140625" lon="6.29602993838489055633544921875">
        <ele>616</ele>
        <time>2025-04-29T22:49:17.000Z</time>
        <extensions>
          <ns3:TrackPointExtension/>
        </extensions>
      </trkpt>
      <trkpt lat="50.40096991695463657379150390625" lon="6.29649697802960872650146484375">
        <ele>616.4000244140625</ele>
        <time>2025-04-29T22:49:24.000Z</time>
        <extensions>
          <ns3:TrackPointExtension/>
        </extensions>
      </trkpt>
      <trkpt lat="50.40088794194161891937255859375" lon="6.29706694744527339935302734375">
        <ele>616.79998779296875</ele>
        <time>2025-04-29T22:49:32.000Z</time>
        <extensions>
          <ns3:TrackPointExtension/>
        </extensions>
      </trkpt>
      <trkpt lat="50.39889891631901264190673828125" lon="6.30879792384803295135498046875">
        <ele>636.79998779296875</ele>
        <time>2025-04-29T22:49:40.000Z</time>
        <extensions>
          <ns3:TrackPointExtension/>
        </extensions>
      </trkpt>
      <trkpt lat="50.39740392006933689117431640625" lon="6.317362971603870391845703125">
        <ele>648</ele>
        <time>2025-04-29T22:49:47.000Z</time>
        <extensions>
          <ns3:TrackPointExtension/>
        </extensions>
      </trkpt>
      <trkpt lat="50.397373996675014495849609375" lon="6.3174779713153839111328125">
        <ele>648.20001220703125</ele>
        <time>2025-04-29T22:49:55.000Z</time>
        <extensions>
          <ns3:TrackPointExtension/>
        </extensions>
      </trkpt>
      <trkpt lat="50.397253967821598052978515625" lon="6.31784099154174327850341796875">
        <ele>648.5999755859375</ele>
        <time>2025-04-29T22:50:02.000Z</time>
        <extensions>
          <ns3:TrackPointExtension/>
        </extensions>
      </trkpt>
      <trkpt lat="50.397080965340137481689453125" lon="6.31814994849264621734619140625">
        <ele>649</ele>
        <time>2025-04-29T22:50:10.000Z</time>
        <extensions>
          <ns3:TrackPointExtension/>
        </extensions>
      </trkpt>
      <trkpt lat="50.3969979844987392425537109375" lon="6.3182589970529079437255859375">
        <ele>649.5999755859375</ele>
        <time>2025-04-29T22:50:18.000Z</time>
        <extensions>
          <ns3:TrackPointExtension/>
        </extensions>
      </trkpt>
      <trkpt lat="50.390923954546451568603515625" lon="6.3233129493892192840576171875">
        <ele>656.4000244140625</ele>
        <time>2025-04-29T22:50:25.000Z</time>
        <extensions>
          <ns3:TrackPointExtension/>
        </extensions>
      </trkpt>
      <trkpt lat="50.39067593403160572052001953125" lon="6.32357798516750335693359375">
        <ele>657.4000244140625</ele>
        <time>2025-04-29T22:50:33.000Z</time>
        <extensions>
          <ns3:TrackPointExtension/>
        </extensions>
      </trkpt>
      <trkpt lat="50.390457920730113983154296875" lon="6.323922984302043914794921875">
        <ele>658</ele>
        <time>2025-04-29T22:50:40.000Z</time>
        <extensions>
          <ns3:TrackPointExtension/>
        </extensions>
      </trkpt>
      <trkpt lat="50.390176959335803985595703125" lon="6.324545927345752716064453125">
        <ele>660.5999755859375</ele>
        <time>2025-04-29T22:50:48.000Z</time>
        <extensions>
          <ns3:TrackPointExtension/>
        </extensions>
      </trkpt>
      <trkpt lat="50.3900399990379810333251953125" lon="6.3249479234218597412109375">
        <ele>663.20001220703125</ele>
        <time>2025-04-29T22:50:56.000Z</time>
        <extensions>
          <ns3:TrackPointExtension/>
        </extensions>
      </trkpt>
      <trkpt lat="50.389944948256015777587890625" lon="6.3252149708569049835205078125">
        <ele>666.20001220703125</ele>
        <time>2025-04-29T22:51:03.000Z</time>
        <extensions>
          <ns3:TrackPointExtension/>
        </extensions>
      </trkpt>
      <trkpt lat="50.38923592306673526763916015625" lon="6.32735193707048892974853515625">
        <ele>680.5999755859375</ele>
        <time>2025-04-29T22:51:11.000Z</time>
        <extensions>
          <ns3:TrackPointExtension/>
        </extensions>
      </trkpt>
      <trkpt lat="50.38901799358427524566650390625" lon="6.3279109261929988861083984375">
        <ele>682.4000244140625</ele>
        <time>2025-04-29T22:51:18.000Z</time>
        <extensions>
          <ns3:TrackPointExtension/>
        </extensions>
      </trkpt>
      <trkpt lat="50.3888489305973052978515625" lon="6.328227929770946502685546875">
        <ele>683</ele>
        <time>2025-04-29T22:51:26.000Z</time>
        <extensions>
          <ns3:TrackPointExtension/>
        </extensions>
      </trkpt>
      <trkpt lat="50.386210978031158447265625" lon="6.33238996379077434539794921875">
        <ele>666.5999755859375</ele>
        <time>2025-04-29T22:51:34.000Z</time>
        <extensions>
          <ns3:TrackPointExtension/>
        </extensions>
      </trkpt>
      <trkpt lat="50.38213896565139293670654296875" lon="6.3387849368155002593994140625">
        <ele>673.79998779296875</ele>
        <time>2025-04-29T22:51:41.000Z</time>
        <extensions>
          <ns3:TrackPointExtension/>
        </extensions>
      </trkpt>
      <trkpt lat="50.3803089447319507598876953125" lon="6.3416589237749576568603515625">
        <ele>678.20001220703125</ele>
        <time>2025-04-29T22:51:49.000Z</time>
        <extensions>
          <ns3:TrackPointExtension/>
        </extensions>
      </trkpt>
      <trkpt lat="50.38006494753062725067138671875" lon="6.34205195121467113494873046875">
        <ele>674.4000244140625</ele>
        <time>2025-04-29T22:51:56.000Z</time>
        <extensions>
          <ns3:TrackPointExtension/>
        </extensions>
      </trkpt>
      <trkpt lat="50.37986294366419315338134765625" lon="6.34224792011082172393798828125">
        <ele>673.79998779296875</ele>
        <time>2025-04-29T22:52:04.000Z</time>
        <extensions>
          <ns3:TrackPointExtension/>
        </extensions>
      </trkpt>
      <trkpt lat="50.3797949664294719696044921875" lon="6.3422419689595699310302734375">
        <ele>673.79998779296875</ele>
        <time>2025-04-29T22:52:05.000Z</time>
        <extensions>
          <ns3:TrackPointExtension/>
        </extensions>
      </trkpt>
      <trkpt lat="50.3797329403460025787353515625" lon="6.34228195063769817352294921875">
        <ele>673.4000244140625</ele>
        <time>2025-04-29T22:52:06.000Z</time>
        <extensions>
          <ns3:TrackPointExtension/>
        </extensions>
      </trkpt>
      <trkpt lat="50.3796799667179584503173828125" lon="6.34238697588443756103515625">
        <ele>672.5999755859375</ele>
        <time>2025-04-29T22:52:07.000Z</time>
        <extensions>
          <ns3:TrackPointExtension/>
        </extensions>
      </trkpt>
      <trkpt lat="50.3796719200909137725830078125" lon="6.34251999668776988983154296875">
        <ele>671.79998779296875</ele>
        <time>2025-04-29T22:52:08.000Z</time>
        <extensions>
          <ns3:TrackPointExtension/>
        </extensions>
      </trkpt>
      <trkpt lat="50.37969094701111316680908203125" lon="6.34259794838726520538330078125">
        <ele>671.5999755859375</ele>
        <time>2025-04-29T22:52:09.000Z</time>
        <extensions>
          <ns3:TrackPointExtension/>
        </extensions>
      </trkpt>
      <trkpt lat="50.37972698919475078582763671875" lon="6.34266098029911518096923828125">
        <ele>671.5999755859375</ele>
        <time>2025-04-29T22:52:10.000Z</time>
        <extensions>
          <ns3:TrackPointExtension/>
        </extensions>
      </trkpt>
      <trkpt lat="50.37977493368089199066162109375" lon="6.3427009619772434234619140625">
        <ele>671.79998779296875</ele>
        <time>2025-04-29T22:52:11.000Z</time>
        <extensions>
          <ns3:TrackPointExtension/>
        </extensions>
      </trkpt>
      <trkpt lat="50.3798849880695343017578125" lon="6.34268897585570812225341796875">
        <ele>672.5999755859375</ele>
        <time>2025-04-29T22:52:12.000Z</time>
        <extensions>
          <ns3:TrackPointExtension/>
        </extensions>
      </trkpt>
      <trkpt lat="50.38003091700375080108642578125" lon="6.34271797724068164825439453125">
        <ele>673.20001220703125</ele>
        <time>2025-04-29T22:52:13.000Z</time>
        <extensions>
          <ns3:TrackPointExtension/>
        </extensions>
      </trkpt>
      <trkpt lat="50.380231998860836029052734375" lon="6.3428119383752346038818359375">
        <ele>673.5999755859375</ele>
        <time>2025-04-29T22:52:14.000Z</time>
        <extensions>
          <ns3:TrackPointExtension/>
        </extensions>
      </trkpt>
      <trkpt lat="50.380160920321941375732421875" lon="6.34274094365537166595458984375">
        <ele>673.5999755859375</ele>
        <time>2025-04-29T22:52:15.000Z</time>
        <extensions>
          <ns3:TrackPointExtension/>
        </extensions>
      </trkpt>
      <trkpt lat="50.380160920321941375732421875" lon="6.34274094365537166595458984375">
        <ele>673.5999755859375</ele>
        <time>2025-04-29T22:52:15.000Z</time>
        <extensions>
          <ns3:TrackPointExtension/>
        </extensions>
      </trkpt>
      <trkpt lat="50.38003091700375080108642578125" lon="6.342608928680419921875">
        <ele>673.20001220703125</ele>
        <time>2025-04-29T22:52:16.000Z</time>
        <extensions>
          <ns3:TrackPointExtension/>
        </extensions>
      </trkpt>
      <trkpt lat="50.3799709863960742950439453125" lon="6.3424649275839328765869140625">
        <ele>673</ele>
        <time>2025-04-29T22:52:17.000Z</time>
        <extensions>
          <ns3:TrackPointExtension/>
        </extensions>
      </trkpt>
      <trkpt lat="50.3799359500408172607421875" lon="6.342322938144207000732421875">
        <ele>673.4000244140625</ele>
        <time>2025-04-29T22:52:20.000Z</time>
        <extensions>
          <ns3:TrackPointExtension/>
        </extensions>
      </trkpt>
      <trkpt lat="50.37986294366419315338134765625" lon="6.34224792011082172393798828125">
        <ele>673.79998779296875</ele>
        <time>2025-04-29T22:52:24.000Z</time>
        <extensions>
          <ns3:TrackPointExtension/>
        </extensions>
      </trkpt>
      <trkpt lat="50.3797949664294719696044921875" lon="6.3422419689595699310302734375">
        <ele>673.79998779296875</ele>
        <time>2025-04-29T22:52:27.000Z</time>
        <extensions>
          <ns3:TrackPointExtension/>
        </extensions>
      </trkpt>
      <trkpt lat="50.3797329403460025787353515625" lon="6.34228195063769817352294921875">
        <ele>673.4000244140625</ele>
        <time>2025-04-29T22:52:30.000Z</time>
        <extensions>
          <ns3:TrackPointExtension/>
        </extensions>
      </trkpt>
      <trkpt lat="50.37960796616971492767333984375" lon="6.34228697977960109710693359375">
        <ele>673.5999755859375</ele>
        <time>2025-04-29T22:52:33.000Z</time>
        <extensions>
          <ns3:TrackPointExtension/>
        </extensions>
      </trkpt>
      <trkpt lat="50.3793299384415149688720703125" lon="6.3421829603612422943115234375">
        <ele>675</ele>
        <time>2025-04-29T22:52:37.000Z</time>
        <extensions>
          <ns3:TrackPointExtension/>
        </extensions>
      </trkpt>
      <trkpt lat="50.3789369948208332061767578125" lon="6.34193292818963527679443359375">
        <ele>677.4000244140625</ele>
        <time>2025-04-29T22:52:40.000Z</time>
        <extensions>
          <ns3:TrackPointExtension/>
        </extensions>
      </trkpt>
      <trkpt lat="50.3784759901463985443115234375" lon="6.341579966247081756591796875">
        <ele>682.4000244140625</ele>
        <time>2025-04-29T22:52:43.000Z</time>
        <extensions>
          <ns3:TrackPointExtension/>
        </extensions>
      </trkpt>
      <trkpt lat="50.37820994853973388671875" lon="6.341349966824054718017578125">
        <ele>683</ele>
        <time>2025-04-29T22:52:46.000Z</time>
        <extensions>
          <ns3:TrackPointExtension/>
        </extensions>
      </trkpt>
      <trkpt lat="50.37647397257387638092041015625" lon="6.33974592201411724090576171875">
        <ele>676.4000244140625</ele>
        <time>2025-04-29T22:52:49.000Z</time>
        <extensions>
          <ns3:TrackPointExtension/>
        </extensions>
      </trkpt>
      <trkpt lat="50.375857986509799957275390625" lon="6.339334957301616668701171875">
        <ele>671.20001220703125</ele>
        <time>2025-04-29T22:52:53.000Z</time>
        <extensions>
          <ns3:TrackPointExtension/>
        </extensions>
      </trkpt>
      <trkpt lat="50.37345799617469310760498046875" lon="6.337783969938755035400390625">
        <ele>656.79998779296875</ele>
        <time>2025-04-29T22:52:56.000Z</time>
        <extensions>
          <ns3:TrackPointExtension/>
        </extensions>
      </trkpt>
      <trkpt lat="50.37321592681109905242919921875" lon="6.337602920830249786376953125">
        <ele>654.79998779296875</ele>
        <time>2025-04-29T22:52:59.000Z</time>
        <extensions>
          <ns3:TrackPointExtension/>
        </extensions>
      </trkpt>
      <trkpt lat="50.37293194793164730072021484375" lon="6.33730092085897922515869140625">
        <ele>652.5999755859375</ele>
        <time>2025-04-29T22:53:02.000Z</time>
        <extensions>
          <ns3:TrackPointExtension/>
        </extensions>
      </trkpt>
      <trkpt lat="50.3725499846041202545166015625" lon="6.3367179594933986663818359375">
        <ele>654.20001220703125</ele>
        <time>2025-04-29T22:53:05.000Z</time>
        <extensions>
          <ns3:TrackPointExtension/>
        </extensions>
      </trkpt>
      <trkpt lat="50.3721749782562255859375" lon="6.33623692207038402557373046875">
        <ele>657.79998779296875</ele>
        <time>2025-04-29T22:53:09.000Z</time>
        <extensions>
          <ns3:TrackPointExtension/>
        </extensions>
      </trkpt>
      <trkpt lat="50.371831990778446197509765625" lon="6.335830986499786376953125">
        <ele>658</ele>
        <time>2025-04-29T22:53:12.000Z</time>
        <extensions>
          <ns3:TrackPointExtension/>
        </extensions>
      </trkpt>
      <trkpt lat="50.37172595970332622528076171875" lon="6.3357399590313434600830078125">
        <ele>656.79998779296875</ele>
        <time>2025-04-29T22:53:15.000Z</time>
        <extensions>
          <ns3:TrackPointExtension/>
        </extensions>
      </trkpt>
      <trkpt lat="50.37149093113839626312255859375" lon="6.33558497764170169830322265625">
        <ele>654.4000244140625</ele>
        <time>2025-04-29T22:53:18.000Z</time>
        <extensions>
          <ns3:TrackPointExtension/>
        </extensions>
      </trkpt>
      <trkpt lat="50.37097795866429805755615234375" lon="6.33529999293386936187744140625">
        <ele>651.4000244140625</ele>
        <time>2025-04-29T22:53:22.000Z</time>
        <extensions>
          <ns3:TrackPointExtension/>
        </extensions>
      </trkpt>
      <trkpt lat="50.37039591930806636810302734375" lon="6.33500394411385059356689453125">
        <ele>648.4000244140625</ele>
        <time>2025-04-29T22:53:25.000Z</time>
        <extensions>
          <ns3:TrackPointExtension/>
        </extensions>
      </trkpt>
      <trkpt lat="50.369812957942485809326171875" lon="6.33483094163239002227783203125">
        <ele>649.79998779296875</ele>
        <time>2025-04-29T22:53:28.000Z</time>
        <extensions>
          <ns3:TrackPointExtension/>
        </extensions>
      </trkpt>
      <trkpt lat="50.36939193494617938995361328125" lon="6.3345889560878276824951171875">
        <ele>650.79998779296875</ele>
        <time>2025-04-29T22:53:31.000Z</time>
        <extensions>
          <ns3:TrackPointExtension/>
        </extensions>
      </trkpt>
      <trkpt lat="50.3692639432847499847412109375" lon="6.33448493666946887969970703125">
        <ele>649.20001220703125</ele>
        <time>2025-04-29T22:53:34.000Z</time>
        <extensions>
          <ns3:TrackPointExtension/>
        </extensions>
      </trkpt>
      <trkpt lat="50.369119942188262939453125" lon="6.334328949451446533203125">
        <ele>647.20001220703125</ele>
        <time>2025-04-29T22:53:38.000Z</time>
        <extensions>
          <ns3:TrackPointExtension/>
        </extensions>
      </trkpt>
      <trkpt lat="50.36882598884403705596923828125" lon="6.33388797752559185028076171875">
        <ele>640.79998779296875</ele>
        <time>2025-04-29T22:53:41.000Z</time>
        <extensions>
          <ns3:TrackPointExtension/>
        </extensions>
      </trkpt>
      <trkpt lat="50.36844997666776180267333984375" lon="6.3332669623196125030517578125">
        <ele>645</ele>
        <time>2025-04-29T22:53:44.000Z</time>
        <extensions>
          <ns3:TrackPointExtension/>
        </extensions>
      </trkpt>
      <trkpt lat="50.3681159578263759613037109375" lon="6.33273496292531490325927734375">
        <ele>657.79998779296875</ele>
        <time>2025-04-29T22:53:47.000Z</time>
        <extensions>
          <ns3:TrackPointExtension/>
        </extensions>
      </trkpt>
      <trkpt lat="50.3679469786584377288818359375" lon="6.332493983209133148193359375">
        <ele>660.4000244140625</ele>
        <time>2025-04-29T22:53:50.000Z</time>
        <extensions>
          <ns3:TrackPointExtension/>
        </extensions>
      </trkpt>
      <trkpt lat="50.3678299672901630401611328125" lon="6.332367919385433197021484375">
        <ele>662</ele>
        <time>2025-04-29T22:53:54.000Z</time>
        <extensions>
          <ns3:TrackPointExtension/>
        </extensions>
      </trkpt>
      <trkpt lat="50.36744196899235248565673828125" lon="6.33207899518311023712158203125">
        <ele>662.4000244140625</ele>
        <time>2025-04-29T22:53:57.000Z</time>
        <extensions>
          <ns3:TrackPointExtension/>
        </extensions>
      </trkpt>
      <trkpt lat="50.3670739196240901947021484375" lon="6.33184195496141910552978515625">
        <ele>661.20001220703125</ele>
        <time>2025-04-29T22:54:00.000Z</time>
        <extensions>
          <ns3:TrackPointExtension/>
        </extensions>
      </trkpt>
      <trkpt lat="50.366767980158329010009765625" lon="6.33175595663487911224365234375">
        <ele>661.5999755859375</ele>
        <time>2025-04-29T22:54:03.000Z</time>
        <extensions>
          <ns3:TrackPointExtension/>
        </extensions>
      </trkpt>
      <trkpt lat="50.364862941205501556396484375" lon="6.33164699189364910125732421875">
        <ele>659.5999755859375</ele>
        <time>2025-04-29T22:54:07.000Z</time>
        <extensions>
          <ns3:TrackPointExtension/>
        </extensions>
      </trkpt>
      <trkpt lat="50.36436597816646099090576171875" lon="6.3316579721868038177490234375">
        <ele>656.79998779296875</ele>
        <time>2025-04-29T22:54:10.000Z</time>
        <extensions>
          <ns3:TrackPointExtension/>
        </extensions>
      </trkpt>
      <trkpt lat="50.363486967980861663818359375" lon="6.331734918057918548583984375">
        <ele>653.20001220703125</ele>
        <time>2025-04-29T22:54:13.000Z</time>
        <extensions>
          <ns3:TrackPointExtension/>
        </extensions>
      </trkpt>
      <trkpt lat="50.363606996834278106689453125" lon="6.33139394223690032958984375">
        <ele>653.20001220703125</ele>
        <time>2025-04-29T22:54:22.000Z</time>
        <extensions>
          <ns3:TrackPointExtension/>
        </extensions>
      </trkpt>
      <trkpt lat="50.36398996599018573760986328125" lon="6.3304539956152439117431640625">
        <ele>655.4000244140625</ele>
        <time>2025-04-29T22:54:32.000Z</time>
        <extensions>
          <ns3:TrackPointExtension/>
        </extensions>
      </trkpt>
      <trkpt lat="50.3647269867360591888427734375" lon="6.3287149183452129364013671875">
        <ele>656.20001220703125</ele>
        <time>2025-04-29T22:54:41.000Z</time>
        <extensions>
          <ns3:TrackPointExtension/>
        </extensions>
      </trkpt>
      <trkpt lat="50.36491499282419681549072265625" lon="6.3282069750130176544189453125">
        <ele>656</ele>
        <time>2025-04-29T22:54:51.000Z</time>
        <extensions>
          <ns3:TrackPointExtension/>
        </extensions>
      </trkpt>
      <trkpt lat="50.36508095450699329376220703125" lon="6.32794193923473358154296875">
        <ele>656</ele>
        <time>2025-04-29T22:55:00.000Z</time>
        <extensions>
          <ns3:TrackPointExtension/>
        </extensions>
      </trkpt>
      <trkpt lat="50.36563198082149028778076171875" lon="6.3273999653756618499755859375">
        <ele>657.20001220703125</ele>
        <time>2025-04-29T22:55:10.000Z</time>
        <extensions>
          <ns3:TrackPointExtension/>
        </extensions>
      </trkpt>
      <trkpt lat="50.36609298549592494964599609375" lon="6.32689193822443485260009765625">
        <ele>657</ele>
        <time>2025-04-29T22:55:19.000Z</time>
        <extensions>
          <ns3:TrackPointExtension/>
        </extensions>
      </trkpt>
      <trkpt lat="50.36651493050158023834228515625" lon="6.32628592662513256072998046875">
        <ele>657</ele>
        <time>2025-04-29T22:55:29.000Z</time>
        <extensions>
          <ns3:TrackPointExtension/>
        </extensions>
      </trkpt>
      <trkpt lat="50.36687292158603668212890625" lon="6.3256689347326755523681640625">
        <ele>649.79998779296875</ele>
        <time>2025-04-29T22:55:38.000Z</time>
        <extensions>
          <ns3:TrackPointExtension/>
        </extensions>
      </trkpt>
      <trkpt lat="50.36721498705446720123291015625" lon="6.32513794116675853729248046875">
        <ele>645.79998779296875</ele>
        <time>2025-04-29T22:55:48.000Z</time>
        <extensions>
          <ns3:TrackPointExtension/>
        </extensions>
      </trkpt>
      <trkpt lat="50.36795997060835361480712890625" lon="6.32419891655445098876953125">
        <ele>641.4000244140625</ele>
        <time>2025-04-29T22:55:57.000Z</time>
        <extensions>
          <ns3:TrackPointExtension/>
        </extensions>
      </trkpt>
      <trkpt lat="50.368145965039730072021484375" lon="6.32393899373710155487060546875">
        <ele>639</ele>
        <time>2025-04-29T22:56:07.000Z</time>
        <extensions>
          <ns3:TrackPointExtension/>
        </extensions>
      </trkpt>
      <trkpt lat="50.36916797049343585968017578125" lon="6.3227699697017669677734375">
        <ele>635.20001220703125</ele>
        <time>2025-04-29T22:56:16.000Z</time>
        <extensions>
          <ns3:TrackPointExtension/>
        </extensions>
      </trkpt>
      <trkpt lat="50.36953392438590526580810546875" lon="6.322479955852031707763671875">
        <ele>635.5999755859375</ele>
        <time>2025-04-29T22:56:26.000Z</time>
        <extensions>
          <ns3:TrackPointExtension/>
        </extensions>
      </trkpt>
      <trkpt lat="50.37086295895278453826904296875" lon="6.32183698005974292755126953125">
        <ele>633</ele>
        <time>2025-04-29T22:56:35.000Z</time>
        <extensions>
          <ns3:TrackPointExtension/>
        </extensions>
      </trkpt>
      <trkpt lat="50.37115297280251979827880859375" lon="6.32163698785006999969482421875">
        <ele>630.4000244140625</ele>
        <time>2025-04-29T22:56:45.000Z</time>
        <extensions>
          <ns3:TrackPointExtension/>
        </extensions>
      </trkpt>
      <trkpt lat="50.3724249266088008880615234375" lon="6.31976396776735782623291015625">
        <ele>623.20001220703125</ele>
        <time>2025-04-29T22:56:54.000Z</time>
        <extensions>
          <ns3:TrackPointExtension/>
        </extensions>
      </trkpt>
      <trkpt lat="50.37313093431293964385986328125" lon="6.31833292543888092041015625">
        <ele>618.5999755859375</ele>
        <time>2025-04-29T22:57:04.000Z</time>
        <extensions>
          <ns3:TrackPointExtension/>
        </extensions>
      </trkpt>
      <trkpt lat="50.3734699822962284088134765625" lon="6.3180189393460750579833984375">
        <ele>617</ele>
        <time>2025-04-29T22:57:14.000Z</time>
        <extensions>
          <ns3:TrackPointExtension/>
        </extensions>
      </trkpt>
      <trkpt lat="50.37456792779266834259033203125" lon="6.3162449933588504791259765625">
        <ele>610.20001220703125</ele>
        <time>2025-04-29T22:57:24.000Z</time>
        <extensions>
          <ns3:TrackPointExtension/>
        </extensions>
      </trkpt>
      <trkpt lat="50.37563695572316646575927734375" lon="6.3144589774310588836669921875">
        <ele>620.4000244140625</ele>
        <time>2025-04-29T22:57:34.000Z</time>
        <extensions>
          <ns3:TrackPointExtension/>
        </extensions>
      </trkpt>
      <trkpt lat="50.37572798319160938262939453125" lon="6.31414792500436305999755859375">
        <ele>621.79998779296875</ele>
        <time>2025-04-29T22:57:44.000Z</time>
        <extensions>
          <ns3:TrackPointExtension/>
        </extensions>
      </trkpt>
      <trkpt lat="50.375739969313144683837890625" lon="6.31374894641339778900146484375">
        <ele>623.4000244140625</ele>
        <time>2025-04-29T22:57:53.000Z</time>
        <extensions>
          <ns3:TrackPointExtension/>
        </extensions>
      </trkpt>
      <trkpt lat="50.3756499476730823516845703125" lon="6.31337192840874195098876953125">
        <ele>624.5999755859375</ele>
        <time>2025-04-29T22:58:03.000Z</time>
        <extensions>
          <ns3:TrackPointExtension/>
        </extensions>
      </trkpt>
      <trkpt lat="50.37500194273889064788818359375" lon="6.31132297217845916748046875">
        <ele>628.79998779296875</ele>
        <time>2025-04-29T22:58:13.000Z</time>
        <extensions>
          <ns3:TrackPointExtension/>
        </extensions>
      </trkpt>
      <trkpt lat="50.37468695081770420074462890625" lon="6.310228966176509857177734375">
        <ele>627</ele>
        <time>2025-04-29T22:58:23.000Z</time>
        <extensions>
          <ns3:TrackPointExtension/>
        </extensions>
      </trkpt>
      <trkpt lat="50.37462492473423480987548828125" lon="6.3099109567701816558837890625">
        <ele>626.20001220703125</ele>
        <time>2025-04-29T22:58:33.000Z</time>
        <extensions>
          <ns3:TrackPointExtension/>
        </extensions>
      </trkpt>
      <trkpt lat="50.3746179677546024322509765625" lon="6.30958397872745990753173828125">
        <ele>625.5999755859375</ele>
        <time>2025-04-29T22:58:43.000Z</time>
        <extensions>
          <ns3:TrackPointExtension/>
        </extensions>
      </trkpt>
      <trkpt lat="50.37489498965442180633544921875" lon="6.30693496204912662506103515625">
        <ele>628.79998779296875</ele>
        <time>2025-04-29T22:58:53.000Z</time>
        <extensions>
          <ns3:TrackPointExtension/>
        </extensions>
      </trkpt>
      <trkpt lat="50.37535599432885646820068359375" lon="6.30396793596446514129638671875">
        <ele>630.79998779296875</ele>
        <time>2025-04-29T22:59:03.000Z</time>
        <extensions>
          <ns3:TrackPointExtension/>
        </extensions>
      </trkpt>
      <trkpt lat="50.375393964350223541259765625" lon="6.30379199981689453125">
        <ele>630.4000244140625</ele>
        <time>2025-04-29T22:59:12.000Z</time>
        <extensions>
          <ns3:TrackPointExtension/>
        </extensions>
      </trkpt>
      <trkpt lat="50.37546596489846706390380859375" lon="6.30357599817216396331787109375">
        <ele>630.4000244140625</ele>
        <time>2025-04-29T22:59:22.000Z</time>
        <extensions>
          <ns3:TrackPointExtension/>
        </extensions>
      </trkpt>
      <trkpt lat="50.37696397863328456878662109375" lon="6.30039892159402370452880859375">
        <ele>619</ele>
        <time>2025-04-29T22:59:28.000Z</time>
        <extensions>
          <ns3:TrackPointExtension/>
        </extensions>
      </trkpt>
      <trkpt lat="50.37707696668803691864013671875" lon="6.30008996464312076568603515625">
        <ele>615.5999755859375</ele>
        <time>2025-04-29T22:59:34.000Z</time>
        <extensions>
          <ns3:TrackPointExtension/>
        </extensions>
      </trkpt>
      <trkpt lat="50.37732792086899280548095703125" lon="6.2989809550344944000244140625">
        <ele>610</ele>
        <time>2025-04-29T22:59:40.000Z</time>
        <extensions>
          <ns3:TrackPointExtension/>
        </extensions>
      </trkpt>
      <trkpt lat="50.3774119913578033447265625" lon="6.29849396646022796630859375">
        <ele>609.79998779296875</ele>
        <time>2025-04-29T22:59:46.000Z</time>
        <extensions>
          <ns3:TrackPointExtension/>
        </extensions>
      </trkpt>
      <trkpt lat="50.37745499052107334136962890625" lon="6.29792693071067333221435546875">
        <ele>611</ele>
        <time>2025-04-29T22:59:51.000Z</time>
        <extensions>
          <ns3:TrackPointExtension/>
        </extensions>
      </trkpt>
      <trkpt lat="50.37745599634945392608642578125" lon="6.29769894294440746307373046875">
        <ele>611</ele>
        <time>2025-04-29T22:59:57.000Z</time>
        <extensions>
          <ns3:TrackPointExtension/>
        </extensions>
      </trkpt>
      <trkpt lat="50.37725399248301982879638671875" lon="6.295790970325469970703125">
        <ele>609.4000244140625</ele>
        <time>2025-04-29T23:00:03.000Z</time>
        <extensions>
          <ns3:TrackPointExtension/>
        </extensions>
      </trkpt>
      <trkpt lat="50.37725097499787807464599609375" lon="6.29557094536721706390380859375">
        <ele>609.4000244140625</ele>
        <time>2025-04-29T23:00:09.000Z</time>
        <extensions>
          <ns3:TrackPointExtension/>
        </extensions>
      </trkpt>
      <trkpt lat="50.37734694778919219970703125" lon="6.294347941875457763671875">
        <ele>603.4000244140625</ele>
        <time>2025-04-29T23:00:15.000Z</time>
        <extensions>
          <ns3:TrackPointExtension/>
        </extensions>
      </trkpt>
      <trkpt lat="50.37735591642558574676513671875" lon="6.2940609455108642578125">
        <ele>602.4000244140625</ele>
        <time>2025-04-29T23:00:20.000Z</time>
        <extensions>
          <ns3:TrackPointExtension/>
        </extensions>
      </trkpt>
      <trkpt lat="50.37731098942458629608154296875" lon="6.293204985558986663818359375">
        <ele>602.20001220703125</ele>
        <time>2025-04-29T23:00:26.000Z</time>
        <extensions>
          <ns3:TrackPointExtension/>
        </extensions>
      </trkpt>
      <trkpt lat="50.3773159347474575042724609375" lon="6.29304195754230022430419921875">
        <ele>602.4000244140625</ele>
        <time>2025-04-29T23:00:32.000Z</time>
        <extensions>
          <ns3:TrackPointExtension/>
        </extensions>
      </trkpt>
      <trkpt lat="50.37736295722424983978271484375" lon="6.29280894063413143157958984375">
        <ele>602.5999755859375</ele>
        <time>2025-04-29T23:00:38.000Z</time>
        <extensions>
          <ns3:TrackPointExtension/>
        </extensions>
      </trkpt>
      <trkpt lat="50.3774709999561309814453125" lon="6.2925449945032596588134765625">
        <ele>603</ele>
        <time>2025-04-29T23:00:44.000Z</time>
        <extensions>
          <ns3:TrackPointExtension/>
        </extensions>
      </trkpt>
      <trkpt lat="50.37776394747197628021240234375" lon="6.291938982903957366943359375">
        <ele>602</ele>
        <time>2025-04-29T23:00:50.000Z</time>
        <extensions>
          <ns3:TrackPointExtension/>
        </extensions>
      </trkpt>
      <trkpt lat="50.37848596461117267608642578125" lon="6.2907549552619457244873046875">
        <ele>603.4000244140625</ele>
        <time>2025-04-29T23:00:55.000Z</time>
        <extensions>
          <ns3:TrackPointExtension/>
        </extensions>
      </trkpt>
      <trkpt lat="50.3788699395954608917236328125" lon="6.2900069542229175567626953125">
        <ele>604.79998779296875</ele>
        <time>2025-04-29T23:01:01.000Z</time>
        <extensions>
          <ns3:TrackPointExtension/>
        </extensions>
      </trkpt>
      <trkpt lat="50.3790159523487091064453125" lon="6.28958693705499172210693359375">
        <ele>604.79998779296875</ele>
        <time>2025-04-29T23:01:07.000Z</time>
        <extensions>
          <ns3:TrackPointExtension/>
        </extensions>
      </trkpt>
      <trkpt lat="50.3791579417884349822998046875" lon="6.28910397179424762725830078125">
        <ele>603.79998779296875</ele>
        <time>2025-04-29T23:01:13.000Z</time>
        <extensions>
          <ns3:TrackPointExtension/>
        </extensions>
      </trkpt>
      <trkpt lat="50.37920999340713024139404296875" lon="6.28886693157255649566650390625">
        <ele>603.20001220703125</ele>
        <time>2025-04-29T23:01:19.000Z</time>
        <extensions>
          <ns3:TrackPointExtension/>
        </extensions>
      </trkpt>
      <trkpt lat="50.37931191734969615936279296875" lon="6.2882779352366924285888671875">
        <ele>599</ele>
        <time>2025-04-29T23:01:24.000Z</time>
        <extensions>
          <ns3:TrackPointExtension/>
        </extensions>
      </trkpt>
      <trkpt lat="50.37935097701847553253173828125" lon="6.2875879369676113128662109375">
        <ele>594.79998779296875</ele>
        <time>2025-04-29T23:01:30.000Z</time>
        <extensions>
          <ns3:TrackPointExtension/>
        </extensions>
      </trkpt>
      <trkpt lat="50.3793939761817455291748046875" lon="6.2873639725148677825927734375">
        <ele>592.79998779296875</ele>
        <time>2025-04-29T23:01:36.000Z</time>
        <extensions>
          <ns3:TrackPointExtension/>
        </extensions>
      </trkpt>
      <trkpt lat="50.37909197621047496795654296875" lon="6.286351941525936126708984375">
        <ele>590.4000244140625</ele>
        <time>2025-04-29T23:01:39.000Z</time>
        <extensions>
          <ns3:TrackPointExtension/>
        </extensions>
      </trkpt>
      <trkpt lat="50.379077978432178497314453125" lon="6.286241970956325531005859375">
        <ele>589.79998779296875</ele>
        <time>2025-04-29T23:01:42.000Z</time>
        <extensions>
          <ns3:TrackPointExtension/>
        </extensions>
      </trkpt>
      <trkpt lat="50.37908292375504970550537109375" lon="6.28614096902310848236083984375">
        <ele>589.5999755859375</ele>
        <time>2025-04-29T23:01:45.000Z</time>
        <extensions>
          <ns3:TrackPointExtension/>
        </extensions>
      </trkpt>
      <trkpt lat="50.379138998687267303466796875" lon="6.28591599874198436737060546875">
        <ele>588</ele>
        <time>2025-04-29T23:01:48.000Z</time>
        <extensions>
          <ns3:TrackPointExtension/>
        </extensions>
      </trkpt>
      <trkpt lat="50.37925994955003261566162109375" lon="6.285783983767032623291015625">
        <ele>586.5999755859375</ele>
        <time>2025-04-29T23:01:50.000Z</time>
        <extensions>
          <ns3:TrackPointExtension/>
        </extensions>
      </trkpt>
      <trkpt lat="50.37945591844618320465087890625" lon="6.28568097017705440521240234375">
        <ele>585.5999755859375</ele>
        <time>2025-04-29T23:01:53.000Z</time>
        <extensions>
          <ns3:TrackPointExtension/>
        </extensions>
      </trkpt>
      <trkpt lat="50.380284972488880157470703125" lon="6.28541794605553150177001953125">
        <ele>583.4000244140625</ele>
        <time>2025-04-29T23:01:56.000Z</time>
        <extensions>
          <ns3:TrackPointExtension/>
        </extensions>
      </trkpt>
      <trkpt lat="50.38047499023377895355224609375" lon="6.28530395217239856719970703125">
        <ele>584.5999755859375</ele>
        <time>2025-04-29T23:01:59.000Z</time>
        <extensions>
          <ns3:TrackPointExtension/>
        </extensions>
      </trkpt>
      <trkpt lat="50.380632989108562469482421875" lon="6.28516498021781444549560546875">
        <ele>585.5999755859375</ele>
        <time>2025-04-29T23:02:02.000Z</time>
        <extensions>
          <ns3:TrackPointExtension/>
        </extensions>
      </trkpt>
      <trkpt lat="50.38070096634328365325927734375" lon="6.28507194109261035919189453125">
        <ele>586.4000244140625</ele>
        <time>2025-04-29T23:02:05.000Z</time>
        <extensions>
          <ns3:TrackPointExtension/>
        </extensions>
      </trkpt>
      <trkpt lat="50.38074396550655364990234375" lon="6.2848349846899509429931640625">
        <ele>588.20001220703125</ele>
        <time>2025-04-29T23:02:08.000Z</time>
        <extensions>
          <ns3:TrackPointExtension/>
        </extensions>
      </trkpt>
      <trkpt lat="50.38077992387115955352783203125" lon="6.28381691873073577880859375">
        <ele>592</ele>
        <time>2025-04-29T23:02:12.000Z</time>
        <extensions>
          <ns3:TrackPointExtension/>
        </extensions>
      </trkpt>
      <trkpt lat="50.3807759843766689300537109375" lon="6.28341592848300933837890625">
        <ele>592.79998779296875</ele>
        <time>2025-04-29T23:02:16.000Z</time>
        <extensions>
          <ns3:TrackPointExtension/>
        </extensions>
      </trkpt>
      <trkpt lat="50.38072493858635425567626953125" lon="6.28288694657385349273681640625">
        <ele>591.79998779296875</ele>
        <time>2025-04-29T23:02:19.000Z</time>
        <extensions>
          <ns3:TrackPointExtension/>
        </extensions>
      </trkpt>
      <trkpt lat="50.3807459771633148193359375" lon="6.2827049754559993743896484375">
        <ele>591.79998779296875</ele>
        <time>2025-04-29T23:02:23.000Z</time>
        <extensions>
          <ns3:TrackPointExtension/>
        </extensions>
      </trkpt>
      <trkpt lat="50.38081898353993892669677734375" lon="6.28251898102462291717529296875">
        <ele>592</ele>
        <time>2025-04-29T23:02:27.000Z</time>
        <extensions>
          <ns3:TrackPointExtension/>
        </extensions>
      </trkpt>
      <trkpt lat="50.381146967411041259765625" lon="6.28257094882428646087646484375">
        <ele>593</ele>
        <time>2025-04-29T23:02:32.000Z</time>
        <extensions>
          <ns3:TrackPointExtension/>
        </extensions>
      </trkpt>
      <trkpt lat="50.381314940750598907470703125" lon="6.28256591968238353729248046875">
        <ele>593.4000244140625</ele>
        <time>2025-04-29T23:02:38.000Z</time>
        <extensions>
          <ns3:TrackPointExtension/>
        </extensions>
      </trkpt>
      <trkpt lat="50.38147897459566593170166015625" lon="6.2821519374847412109375">
        <ele>594</ele>
        <time>2025-04-29T23:02:43.000Z</time>
        <extensions>
          <ns3:TrackPointExtension/>
        </extensions>
      </trkpt>
      <trkpt lat="50.38159598596394062042236328125" lon="6.28176695667207241058349609375">
        <ele>593.5999755859375</ele>
        <time>2025-04-29T23:02:48.000Z</time>
        <extensions>
          <ns3:TrackPointExtension/>
        </extensions>
      </trkpt>
      <trkpt lat="50.38161794655025005340576171875" lon="6.28150996752083301544189453125">
        <ele>593</ele>
        <time>2025-04-29T23:02:52.000Z</time>
        <extensions>
          <ns3:TrackPointExtension/>
        </extensions>
      </trkpt>
      <trkpt lat="50.3816069662570953369140625" lon="6.28121492452919483184814453125">
        <ele>593</ele>
        <time>2025-04-29T23:02:57.000Z</time>
        <extensions>
          <ns3:TrackPointExtension/>
        </extensions>
      </trkpt>
      <trkpt lat="50.38144494406878948211669921875" lon="6.28041897900402545928955078125">
        <ele>592.5999755859375</ele>
        <time>2025-04-29T23:03:02.000Z</time>
        <extensions>
          <ns3:TrackPointExtension/>
        </extensions>
      </trkpt>
      <trkpt lat="50.381436981260776519775390625" lon="6.28026693128049373626708984375">
        <ele>592.5999755859375</ele>
        <time>2025-04-29T23:03:07.000Z</time>
        <extensions>
          <ns3:TrackPointExtension/>
        </extensions>
      </trkpt>
      <trkpt lat="50.38165591657161712646484375" lon="6.27927199937403202056884765625">
        <ele>594.4000244140625</ele>
        <time>2025-04-29T23:03:11.000Z</time>
        <extensions>
          <ns3:TrackPointExtension/>
        </extensions>
      </trkpt>
      <trkpt lat="50.3817449323832988739013671875" lon="6.27895197831094264984130859375">
        <ele>594.5999755859375</ele>
        <time>2025-04-29T23:03:16.000Z</time>
        <extensions>
          <ns3:TrackPointExtension/>
        </extensions>
      </trkpt>
      <trkpt lat="50.38155399262905120849609375" lon="6.27857998944818973541259765625">
        <ele>594.4000244140625</ele>
        <time>2025-04-29T23:03:22.000Z</time>
        <extensions>
          <ns3:TrackPointExtension/>
        </extensions>
      </trkpt>
      <trkpt lat="50.38132692687213420867919921875" lon="6.2779849581420421600341796875">
        <ele>593.20001220703125</ele>
        <time>2025-04-29T23:03:27.000Z</time>
        <extensions>
          <ns3:TrackPointExtension/>
        </extensions>
      </trkpt>
      <trkpt lat="50.38118292577564716339111328125" lon="6.27755798399448394775390625">
        <ele>593.5999755859375</ele>
        <time>2025-04-29T23:03:33.000Z</time>
        <extensions>
          <ns3:TrackPointExtension/>
        </extensions>
      </trkpt>
      <trkpt lat="50.38112592883408069610595703125" lon="6.2772949598729610443115234375">
        <ele>593.79998779296875</ele>
        <time>2025-04-29T23:03:38.000Z</time>
        <extensions>
          <ns3:TrackPointExtension/>
        </extensions>
      </trkpt>
      <trkpt lat="50.3811169601976871490478515625" lon="6.2770599313080310821533203125">
        <ele>593.5999755859375</ele>
        <time>2025-04-29T23:03:44.000Z</time>
        <extensions>
          <ns3:TrackPointExtension/>
        </extensions>
      </trkpt>
      <trkpt lat="50.38112693466246128082275390625" lon="6.276925988495349884033203125">
        <ele>593.20001220703125</ele>
        <time>2025-04-29T23:03:49.000Z</time>
        <extensions>
          <ns3:TrackPointExtension/>
        </extensions>
      </trkpt>
      <trkpt lat="50.38123891688883304595947265625" lon="6.27641896717250347137451171875">
        <ele>594.5999755859375</ele>
        <time>2025-04-29T23:03:55.000Z</time>
        <extensions>
          <ns3:TrackPointExtension/>
        </extensions>
      </trkpt>
      <trkpt lat="50.38124495185911655426025390625" lon="6.27618393860757350921630859375">
        <ele>594.5999755859375</ele>
        <time>2025-04-29T23:04:00.000Z</time>
        <extensions>
          <ns3:TrackPointExtension/>
        </extensions>
      </trkpt>
      <trkpt lat="50.38120798766613006591796875" lon="6.2759729661047458648681640625">
        <ele>594.4000244140625</ele>
        <time>2025-04-29T23:04:06.000Z</time>
        <extensions>
          <ns3:TrackPointExtension/>
        </extensions>
      </trkpt>
      <trkpt lat="50.38113699294626712799072265625" lon="6.27575696446001529693603515625">
        <ele>594</ele>
        <time>2025-04-29T23:04:12.000Z</time>
        <extensions>
          <ns3:TrackPointExtension/>
        </extensions>
      </trkpt>
      <trkpt lat="50.3807769902050495147705078125" lon="6.27512396313250064849853515625">
        <ele>593</ele>
        <time>2025-04-29T23:04:17.000Z</time>
        <extensions>
          <ns3:TrackPointExtension/>
        </extensions>
      </trkpt>
      <trkpt lat="50.38066995330154895782470703125" lon="6.27498499117791652679443359375">
        <ele>593</ele>
        <time>2025-04-29T23:04:23.000Z</time>
        <extensions>
          <ns3:TrackPointExtension/>
        </extensions>
      </trkpt>
      <trkpt lat="50.3805359266698360443115234375" lon="6.274737976491451263427734375">
        <ele>593</ele>
        <time>2025-04-29T23:04:28.000Z</time>
        <extensions>
          <ns3:TrackPointExtension/>
        </extensions>
      </trkpt>
      <trkpt lat="50.3804819472134113311767578125" lon="6.27443798817694187164306640625">
        <ele>592.79998779296875</ele>
        <time>2025-04-29T23:04:34.000Z</time>
        <extensions>
          <ns3:TrackPointExtension/>
        </extensions>
      </trkpt>
      <trkpt lat="50.380447916686534881591796875" lon="6.273986957967281341552734375">
        <ele>593.79998779296875</ele>
        <time>2025-04-29T23:04:39.000Z</time>
        <extensions>
          <ns3:TrackPointExtension/>
        </extensions>
      </trkpt>
      <trkpt lat="50.38047499023377895355224609375" lon="6.27360097132623195648193359375">
        <ele>594.5999755859375</ele>
        <time>2025-04-29T23:04:45.000Z</time>
        <extensions>
          <ns3:TrackPointExtension/>
        </extensions>
      </trkpt>
      <trkpt lat="50.3805469907820224761962890625" lon="6.2733219377696514129638671875">
        <ele>595.79998779296875</ele>
        <time>2025-04-29T23:04:50.000Z</time>
        <extensions>
          <ns3:TrackPointExtension/>
        </extensions>
      </trkpt>
      <trkpt lat="50.38102199323475360870361328125" lon="6.272034980356693267822265625">
        <ele>597</ele>
        <time>2025-04-29T23:04:56.000Z</time>
        <extensions>
          <ns3:TrackPointExtension/>
        </extensions>
      </trkpt>
      <trkpt lat="50.381090976297855377197265625" lon="6.27170196734368801116943359375">
        <ele>597</ele>
        <time>2025-04-29T23:05:01.000Z</time>
        <extensions>
          <ns3:TrackPointExtension/>
        </extensions>
      </trkpt>
      <trkpt lat="50.3810839354991912841796875" lon="6.2714879773557186126708984375">
        <ele>597.4000244140625</ele>
        <time>2025-04-29T23:05:07.000Z</time>
        <extensions>
          <ns3:TrackPointExtension/>
        </extensions>
      </trkpt>
      <trkpt lat="50.38086491636931896209716796875" lon="6.270886994898319244384765625">
        <ele>598</ele>
        <time>2025-04-29T23:05:12.000Z</time>
        <extensions>
          <ns3:TrackPointExtension/>
        </extensions>
      </trkpt>
      <trkpt lat="50.3805389441549777984619140625" lon="6.2696449644863605499267578125">
        <ele>598.20001220703125</ele>
        <time>2025-04-29T23:05:18.000Z</time>
        <extensions>
          <ns3:TrackPointExtension/>
        </extensions>
      </trkpt>
      <trkpt lat="50.3803649358451366424560546875" lon="6.2688349373638629913330078125">
        <ele>597.79998779296875</ele>
        <time>2025-04-29T23:05:23.000Z</time>
        <extensions>
          <ns3:TrackPointExtension/>
        </extensions>
      </trkpt>
      <trkpt lat="50.38034498691558837890625" lon="6.26834199763834476470947265625">
        <ele>600</ele>
        <time>2025-04-29T23:05:29.000Z</time>
        <extensions>
          <ns3:TrackPointExtension/>
        </extensions>
      </trkpt>
      <trkpt lat="50.38035194389522075653076171875" lon="6.2672919966280460357666015625">
        <ele>604</ele>
        <time>2025-04-29T23:05:35.000Z</time>
        <extensions>
          <ns3:TrackPointExtension/>
        </extensions>
      </trkpt>
      <trkpt lat="50.38029394112527370452880859375" lon="6.26615096814930438995361328125">
        <ele>606.79998779296875</ele>
        <time>2025-04-29T23:05:40.000Z</time>
        <extensions>
          <ns3:TrackPointExtension/>
        </extensions>
      </trkpt>
      <trkpt lat="50.38022898137569427490234375" lon="6.2652109377086162567138671875">
        <ele>608</ele>
        <time>2025-04-29T23:05:46.000Z</time>
        <extensions>
          <ns3:TrackPointExtension/>
        </extensions>
      </trkpt>
      <trkpt lat="50.3799139894545078277587890625" lon="6.26323699951171875">
        <ele>610.79998779296875</ele>
        <time>2025-04-29T23:05:51.000Z</time>
        <extensions>
          <ns3:TrackPointExtension/>
        </extensions>
      </trkpt>
      <trkpt lat="50.37986596114933490753173828125" lon="6.2626269645988941192626953125">
        <ele>614.20001220703125</ele>
        <time>2025-04-29T23:05:57.000Z</time>
        <extensions>
          <ns3:TrackPointExtension/>
        </extensions>
      </trkpt>
      <trkpt lat="50.37983092479407787322998046875" lon="6.26172297634184360504150390625">
        <ele>615</ele>
        <time>2025-04-29T23:06:02.000Z</time>
        <extensions>
          <ns3:TrackPointExtension/>
        </extensions>
      </trkpt>
      <trkpt lat="50.37977694533765316009521484375" lon="6.26140697859227657318115234375">
        <ele>613.5999755859375</ele>
        <time>2025-04-29T23:06:08.000Z</time>
        <extensions>
          <ns3:TrackPointExtension/>
        </extensions>
      </trkpt>
      <trkpt lat="50.3796159289777278900146484375" lon="6.26093893311917781829833984375">
        <ele>613.20001220703125</ele>
        <time>2025-04-29T23:06:13.000Z</time>
        <extensions>
          <ns3:TrackPointExtension/>
        </extensions>
      </trkpt>
      <trkpt lat="50.37925492040812969207763671875" lon="6.260182969272136688232421875">
        <ele>616.79998779296875</ele>
        <time>2025-04-29T23:06:19.000Z</time>
        <extensions>
          <ns3:TrackPointExtension/>
        </extensions>
      </trkpt>
      <trkpt lat="50.37913992069661617279052734375" lon="6.2598059512674808502197265625">
        <ele>619.79998779296875</ele>
        <time>2025-04-29T23:06:24.000Z</time>
        <extensions>
          <ns3:TrackPointExtension/>
        </extensions>
      </trkpt>
      <trkpt lat="50.37866097874939441680908203125" lon="6.25780594535171985626220703125">
        <ele>626</ele>
        <time>2025-04-29T23:06:30.000Z</time>
        <extensions>
          <ns3:TrackPointExtension/>
        </extensions>
      </trkpt>
      <trkpt lat="50.37849099375307559967041015625" lon="6.256724931299686431884765625">
        <ele>623.5999755859375</ele>
        <time>2025-04-29T23:06:35.000Z</time>
        <extensions>
          <ns3:TrackPointExtension/>
        </extensions>
      </trkpt>
      <trkpt lat="50.378033928573131561279296875" lon="6.255000941455364227294921875">
        <ele>624.5999755859375</ele>
        <time>2025-04-29T23:06:41.000Z</time>
        <extensions>
          <ns3:TrackPointExtension/>
        </extensions>
      </trkpt>
      <trkpt lat="50.378102995455265045166015625" lon="6.25476096756756305694580078125">
        <ele>626.5999755859375</ele>
        <time>2025-04-29T23:06:47.000Z</time>
        <extensions>
          <ns3:TrackPointExtension/>
        </extensions>
      </trkpt>
      <trkpt lat="50.37819192744791507720947265625" lon="6.2543399445712566375732421875">
        <ele>629.5999755859375</ele>
        <time>2025-04-29T23:06:52.000Z</time>
        <extensions>
          <ns3:TrackPointExtension/>
        </extensions>
      </trkpt>
      <trkpt lat="50.379529930651187896728515625" lon="6.2476149760186672210693359375">
        <ele>610.20001220703125</ele>
        <time>2025-04-29T23:06:58.000Z</time>
        <extensions>
          <ns3:TrackPointExtension/>
        </extensions>
      </trkpt>
      <trkpt lat="50.379655994474887847900390625" lon="6.2466979958117008209228515625">
        <ele>605.4000244140625</ele>
        <time>2025-04-29T23:07:03.000Z</time>
        <extensions>
          <ns3:TrackPointExtension/>
        </extensions>
      </trkpt>
      <trkpt lat="50.37966194562613964080810546875" lon="6.24650697223842144012451171875">
        <ele>604.5999755859375</ele>
        <time>2025-04-29T23:07:09.000Z</time>
        <extensions>
          <ns3:TrackPointExtension/>
        </extensions>
      </trkpt>
      <trkpt lat="50.379644930362701416015625" lon="6.24612391926348209381103515625">
        <ele>603.4000244140625</ele>
        <time>2025-04-29T23:07:15.000Z</time>
        <extensions>
          <ns3:TrackPointExtension/>
        </extensions>
      </trkpt>
      <trkpt lat="50.379585921764373779296875" lon="6.2454859726130962371826171875">
        <ele>606.4000244140625</ele>
        <time>2025-04-29T23:07:20.000Z</time>
        <extensions>
          <ns3:TrackPointExtension/>
        </extensions>
      </trkpt>
      <trkpt lat="50.37954594008624553680419921875" lon="6.2448549829423427581787109375">
        <ele>607.5999755859375</ele>
        <time>2025-04-29T23:07:26.000Z</time>
        <extensions>
          <ns3:TrackPointExtension/>
        </extensions>
      </trkpt>
      <trkpt lat="50.37952196784317493438720703125" lon="6.24354497529566287994384765625">
        <ele>609.20001220703125</ele>
        <time>2025-04-29T23:07:31.000Z</time>
        <extensions>
          <ns3:TrackPointExtension/>
        </extensions>
      </trkpt>
      <trkpt lat="50.379535965621471405029296875" lon="6.242460943758487701416015625">
        <ele>604.5999755859375</ele>
        <time>2025-04-29T23:07:37.000Z</time>
        <extensions>
          <ns3:TrackPointExtension/>
        </extensions>
      </trkpt>
      <trkpt lat="50.37957292981445789337158203125" lon="6.242177970707416534423828125">
        <ele>603</ele>
        <time>2025-04-29T23:07:43.000Z</time>
        <extensions>
          <ns3:TrackPointExtension/>
        </extensions>
      </trkpt>
      <trkpt lat="50.37961098365485668182373046875" lon="6.2420329637825489044189453125">
        <ele>602.5999755859375</ele>
        <time>2025-04-29T23:07:48.000Z</time>
        <extensions>
          <ns3:TrackPointExtension/>
        </extensions>
      </trkpt>
      <trkpt lat="50.3798469342291355133056640625" lon="6.24135595746338367462158203125">
        <ele>599.79998779296875</ele>
        <time>2025-04-29T23:07:54.000Z</time>
        <extensions>
          <ns3:TrackPointExtension/>
        </extensions>
      </trkpt>
      <trkpt lat="50.3799059428274631500244140625" lon="6.24100894667208194732666015625">
        <ele>596.79998779296875</ele>
        <time>2025-04-29T23:07:59.000Z</time>
        <extensions>
          <ns3:TrackPointExtension/>
        </extensions>
      </trkpt>
      <trkpt lat="50.3799139894545078277587890625" lon="6.2407099641859531402587890625">
        <ele>594.5999755859375</ele>
        <time>2025-04-29T23:08:05.000Z</time>
        <extensions>
          <ns3:TrackPointExtension/>
        </extensions>
      </trkpt>
      <trkpt lat="50.379879958927631378173828125" lon="6.240161955356597900390625">
        <ele>591.79998779296875</ele>
        <time>2025-04-29T23:08:11.000Z</time>
        <extensions>
          <ns3:TrackPointExtension/>
        </extensions>
      </trkpt>
      <trkpt lat="50.37964199669659137725830078125" lon="6.23864994384348392486572265625">
        <ele>587.20001220703125</ele>
        <time>2025-04-29T23:08:16.000Z</time>
        <extensions>
          <ns3:TrackPointExtension/>
        </extensions>
      </trkpt>
      <trkpt lat="50.37957393564283847808837890625" lon="6.23808793723583221435546875">
        <ele>582.20001220703125</ele>
        <time>2025-04-29T23:08:22.000Z</time>
        <extensions>
          <ns3:TrackPointExtension/>
        </extensions>
      </trkpt>
      <trkpt lat="50.3794489614665508270263671875" lon="6.23640191741287708282470703125">
        <ele>560.5999755859375</ele>
        <time>2025-04-29T23:08:27.000Z</time>
        <extensions>
          <ns3:TrackPointExtension/>
        </extensions>
      </trkpt>
      <trkpt lat="50.37940797396004199981689453125" lon="6.23606395907700061798095703125">
        <ele>555.5999755859375</ele>
        <time>2025-04-29T23:08:33.000Z</time>
        <extensions>
          <ns3:TrackPointExtension/>
        </extensions>
      </trkpt>
      <trkpt lat="50.3793359734117984771728515625" lon="6.23583597131073474884033203125">
        <ele>552.20001220703125</ele>
        <time>2025-04-29T23:08:39.000Z</time>
        <extensions>
          <ns3:TrackPointExtension/>
        </extensions>
      </trkpt>
      <trkpt lat="50.3792159445583820343017578125" lon="6.23559993691742420196533203125">
        <ele>548.5999755859375</ele>
        <time>2025-04-29T23:08:44.000Z</time>
        <extensions>
          <ns3:TrackPointExtension/>
        </extensions>
      </trkpt>
      <trkpt lat="50.378839932382106781005859375" lon="6.2350089289247989654541015625">
        <ele>540.79998779296875</ele>
        <time>2025-04-29T23:08:50.000Z</time>
        <extensions>
          <ns3:TrackPointExtension/>
        </extensions>
      </trkpt>
      <trkpt lat="50.3786949254572391510009765625" lon="6.23480893671512603759765625">
        <ele>539.79998779296875</ele>
        <time>2025-04-29T23:08:55.000Z</time>
        <extensions>
          <ns3:TrackPointExtension/>
        </extensions>
      </trkpt>
      <trkpt lat="50.37834095768630504608154296875" lon="6.2344419769942760467529296875">
        <ele>538.4000244140625</ele>
        <time>2025-04-29T23:09:01.000Z</time>
        <extensions>
          <ns3:TrackPointExtension/>
        </extensions>
      </trkpt>
      <trkpt lat="50.37825797684490680694580078125" lon="6.23433896340429782867431640625">
        <ele>538.20001220703125</ele>
        <time>2025-04-29T23:09:07.000Z</time>
        <extensions>
          <ns3:TrackPointExtension/>
        </extensions>
      </trkpt>
      <trkpt lat="50.37817097268998622894287109375" lon="6.23418892733752727508544921875">
        <ele>538</ele>
        <time>2025-04-29T23:09:12.000Z</time>
        <extensions>
          <ns3:TrackPointExtension/>
        </extensions>
      </trkpt>
      <trkpt lat="50.37788397632539272308349609375" lon="6.233549974858760833740234375">
        <ele>533.20001220703125</ele>
        <time>2025-04-29T23:09:18.000Z</time>
        <extensions>
          <ns3:TrackPointExtension/>
        </extensions>
      </trkpt>
      <trkpt lat="50.3777779452502727508544921875" lon="6.23324898071587085723876953125">
        <ele>529.20001220703125</ele>
        <time>2025-04-29T23:09:24.000Z</time>
        <extensions>
          <ns3:TrackPointExtension/>
        </extensions>
      </trkpt>
      <trkpt lat="50.377744920551776885986328125" lon="6.23304194770753383636474609375">
        <ele>525.20001220703125</ele>
        <time>2025-04-29T23:09:29.000Z</time>
        <extensions>
          <ns3:TrackPointExtension/>
        </extensions>
      </trkpt>
      <trkpt lat="50.377813987433910369873046875" lon="6.23125894926488399505615234375">
        <ele>524.4000244140625</ele>
        <time>2025-04-29T23:09:35.000Z</time>
        <extensions>
          <ns3:TrackPointExtension/>
        </extensions>
      </trkpt>
      <trkpt lat="50.37779998965561389923095703125" lon="6.23076793737709522247314453125">
        <ele>526.20001220703125</ele>
        <time>2025-04-29T23:09:40.000Z</time>
        <extensions>
          <ns3:TrackPointExtension/>
        </extensions>
      </trkpt>
      <trkpt lat="50.377748943865299224853515625" lon="6.230270974338054656982421875">
        <ele>527.5999755859375</ele>
        <time>2025-04-29T23:09:46.000Z</time>
        <extensions>
          <ns3:TrackPointExtension/>
        </extensions>
      </trkpt>
      <trkpt lat="50.37741391919553279876708984375" lon="6.22900195419788360595703125">
        <ele>528.79998779296875</ele>
        <time>2025-04-29T23:09:52.000Z</time>
        <extensions>
          <ns3:TrackPointExtension/>
        </extensions>
      </trkpt>
      <trkpt lat="50.37733194418251514434814453125" lon="6.228542961180210113525390625">
        <ele>532</ele>
        <time>2025-04-29T23:09:57.000Z</time>
        <extensions>
          <ns3:TrackPointExtension/>
        </extensions>
      </trkpt>
      <trkpt lat="50.3773179464042186737060546875" lon="6.2281429767608642578125">
        <ele>535.20001220703125</ele>
        <time>2025-04-29T23:10:03.000Z</time>
        <extensions>
          <ns3:TrackPointExtension/>
        </extensions>
      </trkpt>
      <trkpt lat="50.3773169405758380889892578125" lon="6.22786696068942546844482421875">
        <ele>538.20001220703125</ele>
        <time>2025-04-29T23:10:08.000Z</time>
        <extensions>
          <ns3:TrackPointExtension/>
        </extensions>
      </trkpt>
      <trkpt lat="50.37734292447566986083984375" lon="6.2278199382126331329345703125">
        <ele>539</ele>
        <time>2025-04-29T23:10:14.000Z</time>
        <extensions>
          <ns3:TrackPointExtension/>
        </extensions>
      </trkpt>
      <trkpt lat="50.37644497118890285491943359375" lon="6.22602897696197032928466796875">
        <ele>530</ele>
        <time>2025-04-29T23:10:23.000Z</time>
        <extensions>
          <ns3:TrackPointExtension/>
        </extensions>
      </trkpt>
      <trkpt lat="50.37633399479091167449951171875" lon="6.2257519550621509552001953125">
        <ele>529</ele>
        <time>2025-04-29T23:10:32.000Z</time>
        <extensions>
          <ns3:TrackPointExtension/>
        </extensions>
      </trkpt>
      <trkpt lat="50.3760489262640476226806640625" lon="6.22422695159912109375">
        <ele>533.4000244140625</ele>
        <time>2025-04-29T23:10:42.000Z</time>
        <extensions>
          <ns3:TrackPointExtension/>
        </extensions>
      </trkpt>
      <trkpt lat="50.376028977334499359130859375" lon="6.22380492277443408966064453125">
        <ele>534.79998779296875</ele>
        <time>2025-04-29T23:10:51.000Z</time>
        <extensions>
          <ns3:TrackPointExtension/>
        </extensions>
      </trkpt>
      <trkpt lat="50.37607499398291110992431640625" lon="6.22323595918715000152587890625">
        <ele>538.20001220703125</ele>
        <time>2025-04-29T23:10:58.000Z</time>
        <extensions>
          <ns3:TrackPointExtension/>
        </extensions>
      </trkpt>
      <trkpt lat="50.3760549612343311309814453125" lon="6.22273497283458709716796875">
        <ele>542.4000244140625</ele>
        <time>2025-04-29T23:11:05.000Z</time>
        <extensions>
          <ns3:TrackPointExtension/>
        </extensions>
      </trkpt>
      <trkpt lat="50.37598698399960994720458984375" lon="6.22226298786699771881103515625">
        <ele>546</ele>
        <time>2025-04-29T23:11:12.000Z</time>
        <extensions>
          <ns3:TrackPointExtension/>
        </extensions>
      </trkpt>
      <trkpt lat="50.37563695572316646575927734375" lon="6.2208669818937778472900390625">
        <ele>552.5999755859375</ele>
        <time>2025-04-29T23:11:19.000Z</time>
        <extensions>
          <ns3:TrackPointExtension/>
        </extensions>
      </trkpt>
      <trkpt lat="50.37563293240964412689208984375" lon="6.22067998163402080535888671875">
        <ele>554</ele>
        <time>2025-04-29T23:11:27.000Z</time>
        <extensions>
          <ns3:TrackPointExtension/>
        </extensions>
      </trkpt>
      <trkpt lat="50.37555992603302001953125" lon="6.22036297805607318878173828125">
        <ele>554.20001220703125</ele>
        <time>2025-04-29T23:11:34.000Z</time>
        <extensions>
          <ns3:TrackPointExtension/>
        </extensions>
      </trkpt>
      <trkpt lat="50.3754199482500553131103515625" lon="6.21957792900502681732177734375">
        <ele>555.4000244140625</ele>
        <time>2025-04-29T23:11:41.000Z</time>
        <extensions>
          <ns3:TrackPointExtension/>
        </extensions>
      </trkpt>
      <trkpt lat="50.37538298405706882476806640625" lon="6.218359954655170440673828125">
        <ele>556</ele>
        <time>2025-04-29T23:11:48.000Z</time>
        <extensions>
          <ns3:TrackPointExtension/>
        </extensions>
      </trkpt>
      <trkpt lat="50.37537896074354648590087890625" lon="6.2177539430558681488037109375">
        <ele>555</ele>
        <time>2025-04-29T23:11:55.000Z</time>
        <extensions>
          <ns3:TrackPointExtension/>
        </extensions>
      </trkpt>
      <trkpt lat="50.37528893910348415374755859375" lon="6.21623195707798004150390625">
        <ele>552.20001220703125</ele>
        <time>2025-04-29T23:12:02.000Z</time>
        <extensions>
          <ns3:TrackPointExtension/>
        </extensions>
      </trkpt>
      <trkpt lat="50.37568791769444942474365234375" lon="6.21593498624861240386962890625">
        <ele>552.5999755859375</ele>
        <time>2025-04-29T23:12:08.000Z</time>
        <extensions>
          <ns3:TrackPointExtension/>
        </extensions>
      </trkpt>
      <trkpt lat="50.37607197649776935577392578125" lon="6.2155969440937042236328125">
        <ele>554</ele>
        <time>2025-04-29T23:12:13.000Z</time>
        <extensions>
          <ns3:TrackPointExtension/>
        </extensions>
      </trkpt>
      <trkpt lat="50.3770379908382892608642578125" lon="6.2148219533264636993408203125">
        <ele>552.4000244140625</ele>
        <time>2025-04-29T23:12:19.000Z</time>
        <extensions>
          <ns3:TrackPointExtension/>
        </extensions>
      </trkpt>
      <trkpt lat="50.377632938325405120849609375" lon="6.21420999057590961456298828125">
        <ele>557.20001220703125</ele>
        <time>2025-04-29T23:12:24.000Z</time>
        <extensions>
          <ns3:TrackPointExtension/>
        </extensions>
      </trkpt>
      <trkpt lat="50.378158986568450927734375" lon="6.21346391737461090087890625">
        <ele>559.79998779296875</ele>
        <time>2025-04-29T23:12:30.000Z</time>
        <extensions>
          <ns3:TrackPointExtension/>
        </extensions>
      </trkpt>
      <trkpt lat="50.37947796285152435302734375" lon="6.21147899888455867767333984375">
        <ele>550.5999755859375</ele>
        <time>2025-04-29T23:12:35.000Z</time>
        <extensions>
          <ns3:TrackPointExtension/>
        </extensions>
      </trkpt>
      <trkpt lat="50.37980494089424610137939453125" lon="6.2113739736378192901611328125">
        <ele>548</ele>
        <time>2025-04-29T23:12:40.000Z</time>
        <extensions>
          <ns3:TrackPointExtension/>
        </extensions>
      </trkpt>
      <trkpt lat="50.38015295751392841339111328125" lon="6.21140792034566402435302734375">
        <ele>546.20001220703125</ele>
        <time>2025-04-29T23:12:46.000Z</time>
        <extensions>
          <ns3:TrackPointExtension/>
        </extensions>
      </trkpt>
      <trkpt lat="50.38061195053160190582275390625" lon="6.21153297834098339080810546875">
        <ele>543.20001220703125</ele>
        <time>2025-04-29T23:12:51.000Z</time>
        <extensions>
          <ns3:TrackPointExtension/>
        </extensions>
      </trkpt>
      <trkpt lat="50.38090598769485950469970703125" lon="6.2115419469773769378662109375">
        <ele>538.79998779296875</ele>
        <time>2025-04-29T23:12:57.000Z</time>
        <extensions>
          <ns3:TrackPointExtension/>
        </extensions>
      </trkpt>
      <trkpt lat="50.3811679221689701080322265625" lon="6.2114899791777133941650390625">
        <ele>536.5999755859375</ele>
        <time>2025-04-29T23:13:02.000Z</time>
        <extensions>
          <ns3:TrackPointExtension/>
        </extensions>
      </trkpt>
      <trkpt lat="50.38165499456226825714111328125" lon="6.211279928684234619140625">
        <ele>533.5999755859375</ele>
        <time>2025-04-29T23:13:08.000Z</time>
        <extensions>
          <ns3:TrackPointExtension/>
        </extensions>
      </trkpt>
      <trkpt lat="50.382403917610645294189453125" lon="6.21072999201714992523193359375">
        <ele>523</ele>
        <time>2025-04-29T23:13:13.000Z</time>
        <extensions>
          <ns3:TrackPointExtension/>
        </extensions>
      </trkpt>
      <trkpt lat="50.3825479187071323394775390625" lon="6.2104509584605693817138671875">
        <ele>520.79998779296875</ele>
        <time>2025-04-29T23:13:18.000Z</time>
        <extensions>
          <ns3:TrackPointExtension/>
        </extensions>
      </trkpt>
      <trkpt lat="50.38262997753918170928955078125" lon="6.21012993156909942626953125">
        <ele>521.20001220703125</ele>
        <time>2025-04-29T23:13:24.000Z</time>
        <extensions>
          <ns3:TrackPointExtension/>
        </extensions>
      </trkpt>
      <trkpt lat="50.38277096115052700042724609375" lon="6.2079189531505107879638671875">
        <ele>525.4000244140625</ele>
        <time>2025-04-29T23:13:29.000Z</time>
        <extensions>
          <ns3:TrackPointExtension/>
        </extensions>
      </trkpt>
      <trkpt lat="50.38286693394184112548828125" lon="6.20606395415961742401123046875">
        <ele>531</ele>
        <time>2025-04-29T23:13:35.000Z</time>
        <extensions>
          <ns3:TrackPointExtension/>
        </extensions>
      </trkpt>
      <trkpt lat="50.38294496946036815643310546875" lon="6.2051079981029033660888671875">
        <ele>531.79998779296875</ele>
        <time>2025-04-29T23:13:40.000Z</time>
        <extensions>
          <ns3:TrackPointExtension/>
        </extensions>
      </trkpt>
      <trkpt lat="50.382922925055027008056640625" lon="6.2046159803867340087890625">
        <ele>530.20001220703125</ele>
        <time>2025-04-29T23:13:45.000Z</time>
        <extensions>
          <ns3:TrackPointExtension/>
        </extensions>
      </trkpt>
      <trkpt lat="50.38268898613750934600830078125" lon="6.202941946685314178466796875">
        <ele>531.5999755859375</ele>
        <time>2025-04-29T23:13:51.000Z</time>
        <extensions>
          <ns3:TrackPointExtension/>
        </extensions>
      </trkpt>
      <trkpt lat="50.38259494118392467498779296875" lon="6.202200986444950103759765625">
        <ele>533.4000244140625</ele>
        <time>2025-04-29T23:13:56.000Z</time>
        <extensions>
          <ns3:TrackPointExtension/>
        </extensions>
      </trkpt>
      <trkpt lat="50.382472984492778778076171875" lon="6.2016509659588336944580078125">
        <ele>533.79998779296875</ele>
        <time>2025-04-29T23:14:02.000Z</time>
        <extensions>
          <ns3:TrackPointExtension/>
        </extensions>
      </trkpt>
      <trkpt lat="50.381255932152271270751953125" lon="6.19862996041774749755859375">
        <ele>532.79998779296875</ele>
        <time>2025-04-29T23:14:07.000Z</time>
        <extensions>
          <ns3:TrackPointExtension/>
        </extensions>
      </trkpt>
      <trkpt lat="50.3811159543693065643310546875" lon="6.19809192605316638946533203125">
        <ele>530.4000244140625</ele>
        <time>2025-04-29T23:14:13.000Z</time>
        <extensions>
          <ns3:TrackPointExtension/>
        </extensions>
      </trkpt>
      <trkpt lat="50.38101998157799243927001953125" lon="6.197537966072559356689453125">
        <ele>527.4000244140625</ele>
        <time>2025-04-29T23:14:18.000Z</time>
        <extensions>
          <ns3:TrackPointExtension/>
        </extensions>
      </trkpt>
      <trkpt lat="50.38086893968284130096435546875" lon="6.1970519833266735076904296875">
        <ele>524.4000244140625</ele>
        <time>2025-04-29T23:14:23.000Z</time>
        <extensions>
          <ns3:TrackPointExtension/>
        </extensions>
      </trkpt>
      <trkpt lat="50.380685962736606597900390625" lon="6.19668192230165004730224609375">
        <ele>522.4000244140625</ele>
        <time>2025-04-29T23:14:29.000Z</time>
        <extensions>
          <ns3:TrackPointExtension/>
        </extensions>
      </trkpt>
      <trkpt lat="50.380455963313579559326171875" lon="6.19634597562253475189208984375">
        <ele>521</ele>
        <time>2025-04-29T23:14:34.000Z</time>
        <extensions>
          <ns3:TrackPointExtension/>
        </extensions>
      </trkpt>
      <trkpt lat="50.38011892698705196380615234375" lon="6.19596996344625949859619140625">
        <ele>518.20001220703125</ele>
        <time>2025-04-29T23:14:40.000Z</time>
        <extensions>
          <ns3:TrackPointExtension/>
        </extensions>
      </trkpt>
      <trkpt lat="50.37970192730426788330078125" lon="6.19537199847400188446044921875">
        <ele>515.5999755859375</ele>
        <time>2025-04-29T23:14:45.000Z</time>
        <extensions>
          <ns3:TrackPointExtension/>
        </extensions>
      </trkpt>
      <trkpt lat="50.37929398007690906524658203125" lon="6.194665990769863128662109375">
        <ele>516.79998779296875</ele>
        <time>2025-04-29T23:14:51.000Z</time>
        <extensions>
          <ns3:TrackPointExtension/>
        </extensions>
      </trkpt>
      <trkpt lat="50.3791019506752490997314453125" lon="6.19437597692012786865234375">
        <ele>517.5999755859375</ele>
        <time>2025-04-29T23:14:56.000Z</time>
        <extensions>
          <ns3:TrackPointExtension/>
        </extensions>
      </trkpt>
      <trkpt lat="50.3790439479053020477294921875" lon="6.1940829455852508544921875">
        <ele>516.20001220703125</ele>
        <time>2025-04-29T23:15:01.000Z</time>
        <extensions>
          <ns3:TrackPointExtension/>
        </extensions>
      </trkpt>
      <trkpt lat="50.37907898426055908203125" lon="6.19381195865571498870849609375">
        <ele>514.5999755859375</ele>
        <time>2025-04-29T23:15:07.000Z</time>
        <extensions>
          <ns3:TrackPointExtension/>
        </extensions>
      </trkpt>
      <trkpt lat="50.37923798896372318267822265625" lon="6.193513981997966766357421875">
        <ele>511.79998779296875</ele>
        <time>2025-04-29T23:15:12.000Z</time>
        <extensions>
          <ns3:TrackPointExtension/>
        </extensions>
      </trkpt>
      <trkpt lat="50.3788739629089832305908203125" lon="6.19283194653689861297607421875">
        <ele>510.79998779296875</ele>
        <time>2025-04-29T23:15:16.000Z</time>
        <extensions>
          <ns3:TrackPointExtension/>
        </extensions>
      </trkpt>
      <trkpt lat="50.37877396680414676666259765625" lon="6.19268693961203098297119140625">
        <ele>510</ele>
        <time>2025-04-29T23:15:21.000Z</time>
        <extensions>
          <ns3:TrackPointExtension/>
        </extensions>
      </trkpt>
      <trkpt lat="50.3781219385564327239990234375" lon="6.19193893857300281524658203125">
        <ele>500.79998779296875</ele>
        <time>2025-04-29T23:15:25.000Z</time>
        <extensions>
          <ns3:TrackPointExtension/>
        </extensions>
      </trkpt>
      <trkpt lat="50.3779019974172115325927734375" lon="6.1914639361202716827392578125">
        <ele>499.20001220703125</ele>
        <time>2025-04-29T23:15:29.000Z</time>
        <extensions>
          <ns3:TrackPointExtension/>
        </extensions>
      </trkpt>
      <trkpt lat="50.377635955810546875" lon="6.19035492651164531707763671875">
        <ele>501.399993896484375</ele>
        <time>2025-04-29T23:15:33.000Z</time>
        <extensions>
          <ns3:TrackPointExtension/>
        </extensions>
      </trkpt>
      <trkpt lat="50.3774889372289180755615234375" lon="6.189937926828861236572265625">
        <ele>500</ele>
        <time>2025-04-29T23:15:37.000Z</time>
        <extensions>
          <ns3:TrackPointExtension/>
        </extensions>
      </trkpt>
      <trkpt lat="50.377286933362483978271484375" lon="6.18947692215442657470703125">
        <ele>497.600006103515625</ele>
        <time>2025-04-29T23:15:41.000Z</time>
        <extensions>
          <ns3:TrackPointExtension/>
        </extensions>
      </trkpt>
      <trkpt lat="50.37699298001825809478759765625" lon="6.18907392024993896484375">
        <ele>496</ele>
        <time>2025-04-29T23:15:45.000Z</time>
        <extensions>
          <ns3:TrackPointExtension/>
        </extensions>
      </trkpt>
      <trkpt lat="50.37666298449039459228515625" lon="6.1888149194419384002685546875">
        <ele>495</ele>
        <time>2025-04-29T23:15:49.000Z</time>
        <extensions>
          <ns3:TrackPointExtension/>
        </extensions>
      </trkpt>
      <trkpt lat="50.376313962042331695556640625" lon="6.18871492333710193634033203125">
        <ele>492.79998779296875</ele>
        <time>2025-04-29T23:15:54.000Z</time>
        <extensions>
          <ns3:TrackPointExtension/>
        </extensions>
      </trkpt>
      <trkpt lat="50.3759099543094635009765625" lon="6.18844091892242431640625">
        <ele>482.79998779296875</ele>
        <time>2025-04-29T23:15:58.000Z</time>
        <extensions>
          <ns3:TrackPointExtension/>
        </extensions>
      </trkpt>
      <trkpt lat="50.37529497407376766204833984375" lon="6.1874339170753955841064453125">
        <ele>470.79998779296875</ele>
        <time>2025-04-29T23:16:02.000Z</time>
        <extensions>
          <ns3:TrackPointExtension/>
        </extensions>
      </trkpt>
      <trkpt lat="50.3751389868557453155517578125" lon="6.18737599812448024749755859375">
        <ele>471.600006103515625</ele>
        <time>2025-04-29T23:16:06.000Z</time>
        <extensions>
          <ns3:TrackPointExtension/>
        </extensions>
      </trkpt>
      <trkpt lat="50.37471695803105831146240234375" lon="6.1874339170753955841064453125">
        <ele>473.79998779296875</ele>
        <time>2025-04-29T23:16:10.000Z</time>
        <extensions>
          <ns3:TrackPointExtension/>
        </extensions>
      </trkpt>
      <trkpt lat="50.37434094585478305816650390625" lon="6.1874479986727237701416015625">
        <ele>475</ele>
        <time>2025-04-29T23:16:14.000Z</time>
        <extensions>
          <ns3:TrackPointExtension/>
        </extensions>
      </trkpt>
      <trkpt lat="50.37389092147350311279296875" lon="6.1872749961912631988525390625">
        <ele>476.399993896484375</ele>
        <time>2025-04-29T23:16:18.000Z</time>
        <extensions>
          <ns3:TrackPointExtension/>
        </extensions>
      </trkpt>
      <trkpt lat="50.3734959661960601806640625" lon="6.18697299621999263763427734375">
        <ele>477.20001220703125</ele>
        <time>2025-04-29T23:16:22.000Z</time>
        <extensions>
          <ns3:TrackPointExtension/>
        </extensions>
      </trkpt>
      <trkpt lat="50.37322497926652431488037109375" lon="6.1866869218647480010986328125">
        <ele>477.399993896484375</ele>
        <time>2025-04-29T23:16:27.000Z</time>
        <extensions>
          <ns3:TrackPointExtension/>
        </extensions>
      </trkpt>
      <trkpt lat="50.37281594239175319671630859375" lon="6.18641995824873447418212890625">
        <ele>478</ele>
        <time>2025-04-29T23:16:31.000Z</time>
        <extensions>
          <ns3:TrackPointExtension/>
        </extensions>
      </trkpt>
      <trkpt lat="50.37215192802250385284423828125" lon="6.1859419383108615875244140625">
        <ele>478.79998779296875</ele>
        <time>2025-04-29T23:16:35.000Z</time>
        <extensions>
          <ns3:TrackPointExtension/>
        </extensions>
      </trkpt>
      <trkpt lat="50.37124492228031158447265625" lon="6.18573197163641452789306640625">
        <ele>492.399993896484375</ele>
        <time>2025-04-29T23:16:39.000Z</time>
        <extensions>
          <ns3:TrackPointExtension/>
        </extensions>
      </trkpt>
      <trkpt lat="50.369346924126148223876953125" lon="6.1838699318468570709228515625">
        <ele>484.20001220703125</ele>
        <time>2025-04-29T23:16:43.000Z</time>
        <extensions>
          <ns3:TrackPointExtension/>
        </extensions>
      </trkpt>
      <trkpt lat="50.36877997219562530517578125" lon="6.183448992669582366943359375">
        <ele>479</ele>
        <time>2025-04-29T23:16:47.000Z</time>
        <extensions>
          <ns3:TrackPointExtension/>
        </extensions>
      </trkpt>
      <trkpt lat="50.36769996397197246551513671875" lon="6.1831569671630859375">
        <ele>472.79998779296875</ele>
        <time>2025-04-29T23:16:51.000Z</time>
        <extensions>
          <ns3:TrackPointExtension/>
        </extensions>
      </trkpt>
      <trkpt lat="50.36668692715466022491455078125" lon="6.182987987995147705078125">
        <ele>467.20001220703125</ele>
        <time>2025-04-29T23:16:55.000Z</time>
        <extensions>
          <ns3:TrackPointExtension/>
        </extensions>
      </trkpt>
      <trkpt lat="50.3656949289143085479736328125" lon="6.18294297717511653900146484375">
        <ele>464.79998779296875</ele>
        <time>2025-04-29T23:16:59.000Z</time>
        <extensions>
          <ns3:TrackPointExtension/>
        </extensions>
      </trkpt>
      <trkpt lat="50.364634953439235687255859375" lon="6.18270694278180599212646484375">
        <ele>456.399993896484375</ele>
        <time>2025-04-29T23:17:04.000Z</time>
        <extensions>
          <ns3:TrackPointExtension/>
        </extensions>
      </trkpt>
      <trkpt lat="50.36427092738449573516845703125" lon="6.1823849938809871673583984375">
        <ele>453.600006103515625</ele>
        <time>2025-04-29T23:17:08.000Z</time>
        <extensions>
          <ns3:TrackPointExtension/>
        </extensions>
      </trkpt>
      <trkpt lat="50.36388494074344635009765625" lon="6.18153096176683902740478515625">
        <ele>454.79998779296875</ele>
        <time>2025-04-29T23:17:12.000Z</time>
        <extensions>
          <ns3:TrackPointExtension/>
        </extensions>
      </trkpt>
      <trkpt lat="50.36310098133981227874755859375" lon="6.18017493747174739837646484375">
        <ele>455.399993896484375</ele>
        <time>2025-04-29T23:17:16.000Z</time>
        <extensions>
          <ns3:TrackPointExtension/>
        </extensions>
      </trkpt>
      <trkpt lat="50.36248893477022647857666015625" lon="6.17939894087612628936767578125">
        <ele>455</ele>
        <time>2025-04-29T23:17:20.000Z</time>
        <extensions>
          <ns3:TrackPointExtension/>
        </extensions>
      </trkpt>
      <trkpt lat="50.361817963421344757080078125" lon="6.17865697480738162994384765625">
        <ele>452.79998779296875</ele>
        <time>2025-04-29T23:17:24.000Z</time>
        <extensions>
          <ns3:TrackPointExtension/>
        </extensions>
      </trkpt>
      <trkpt lat="50.36111899651587009429931640625" lon="6.1776079796254634857177734375">
        <ele>453</ele>
        <time>2025-04-29T23:17:28.000Z</time>
        <extensions>
          <ns3:TrackPointExtension/>
        </extensions>
      </trkpt>
      <trkpt lat="50.36010595969855785369873046875" lon="6.1766889877617359161376953125">
        <ele>453.600006103515625</ele>
        <time>2025-04-29T23:17:32.000Z</time>
        <extensions>
          <ns3:TrackPointExtension/>
        </extensions>
      </trkpt>
      <trkpt lat="50.35952593199908733367919921875" lon="6.17595397867262363433837890625">
        <ele>454.600006103515625</ele>
        <time>2025-04-29T23:17:37.000Z</time>
        <extensions>
          <ns3:TrackPointExtension/>
        </extensions>
      </trkpt>
      <trkpt lat="50.35912695340812206268310546875" lon="6.1753369867801666259765625">
        <ele>455.399993896484375</ele>
        <time>2025-04-29T23:17:41.000Z</time>
        <extensions>
          <ns3:TrackPointExtension/>
        </extensions>
      </trkpt>
      <trkpt lat="50.35881196148693561553955078125" lon="6.17491998709738254547119140625">
        <ele>457</ele>
        <time>2025-04-29T23:17:45.000Z</time>
        <extensions>
          <ns3:TrackPointExtension/>
        </extensions>
      </trkpt>
      <trkpt lat="50.35844299010932445526123046875" lon="6.174637936055660247802734375">
        <ele>458</ele>
        <time>2025-04-29T23:17:49.000Z</time>
        <extensions>
          <ns3:TrackPointExtension/>
        </extensions>
      </trkpt>
      <trkpt lat="50.3575299493968486785888671875" lon="6.17422998882830142974853515625">
        <ele>459.20001220703125</ele>
        <time>2025-04-29T23:17:53.000Z</time>
        <extensions>
          <ns3:TrackPointExtension/>
        </extensions>
      </trkpt>
      <trkpt lat="50.35657097585499286651611328125" lon="6.1732019484043121337890625">
        <ele>461.79998779296875</ele>
        <time>2025-04-29T23:17:57.000Z</time>
        <extensions>
          <ns3:TrackPointExtension/>
        </extensions>
      </trkpt>
      <trkpt lat="50.35648497752845287322998046875" lon="6.1730569414794445037841796875">
        <ele>461.399993896484375</ele>
        <time>2025-04-29T23:18:01.000Z</time>
        <extensions>
          <ns3:TrackPointExtension/>
        </extensions>
      </trkpt>
      <trkpt lat="50.3561579994857311248779296875" lon="6.17275292985141277313232421875">
        <ele>460.399993896484375</ele>
        <time>2025-04-29T23:18:05.000Z</time>
        <extensions>
          <ns3:TrackPointExtension/>
        </extensions>
      </trkpt>
      <trkpt lat="50.35583294928073883056640625" lon="6.17253198288381099700927734375">
        <ele>460.20001220703125</ele>
        <time>2025-04-29T23:18:10.000Z</time>
        <extensions>
          <ns3:TrackPointExtension/>
        </extensions>
      </trkpt>
      <trkpt lat="50.355665981769561767578125" lon="6.1723919212818145751953125">
        <ele>461.20001220703125</ele>
        <time>2025-04-29T23:18:14.000Z</time>
        <extensions>
          <ns3:TrackPointExtension/>
        </extensions>
      </trkpt>
      <trkpt lat="50.3555749543011188507080078125" lon="6.1722559668123722076416015625">
        <ele>462.20001220703125</ele>
        <time>2025-04-29T23:18:18.000Z</time>
        <extensions>
          <ns3:TrackPointExtension/>
        </extensions>
      </trkpt>
      <trkpt lat="50.3554929792881011962890625" lon="6.1717989854514598846435546875">
        <ele>465.399993896484375</ele>
        <time>2025-04-29T23:18:22.000Z</time>
        <extensions>
          <ns3:TrackPointExtension/>
        </extensions>
      </trkpt>
      <trkpt lat="50.35539197735488414764404296875" lon="6.1715589277446269989013671875">
        <ele>467</ele>
        <time>2025-04-29T23:18:26.000Z</time>
        <extensions>
          <ns3:TrackPointExtension/>
        </extensions>
      </trkpt>
      <trkpt lat="50.355261974036693572998046875" lon="6.1713929660618305206298828125">
        <ele>467.600006103515625</ele>
        <time>2025-04-29T23:18:30.000Z</time>
        <extensions>
          <ns3:TrackPointExtension/>
        </extensions>
      </trkpt>
      <trkpt lat="50.35501898266375064849853515625" lon="6.171138994395732879638671875">
        <ele>469.399993896484375</ele>
        <time>2025-04-29T23:18:34.000Z</time>
        <extensions>
          <ns3:TrackPointExtension/>
        </extensions>
      </trkpt>
      <trkpt lat="50.355196930468082427978515625" lon="6.17037096060812473297119140625">
        <ele>472.399993896484375</ele>
        <time>2025-04-29T23:18:41.000Z</time>
        <extensions>
          <ns3:TrackPointExtension/>
        </extensions>
      </trkpt>
      <trkpt lat="50.35504194907844066619873046875" lon="6.170151941478252410888671875">
        <ele>472.79998779296875</ele>
        <time>2025-04-29T23:18:44.000Z</time>
        <extensions>
          <ns3:TrackPointExtension/>
        </extensions>
      </trkpt>
      <trkpt lat="50.35475193522870540618896484375" lon="6.1698439903557300567626953125">
        <ele>471.20001220703125</ele>
        <time>2025-04-29T23:18:47.000Z</time>
        <extensions>
          <ns3:TrackPointExtension/>
        </extensions>
      </trkpt>
      <trkpt lat="50.35441699437797069549560546875" lon="6.1696319282054901123046875">
        <ele>470</ele>
        <time>2025-04-29T23:18:51.000Z</time>
        <extensions>
          <ns3:TrackPointExtension/>
        </extensions>
      </trkpt>
      <trkpt lat="50.3543449938297271728515625" lon="6.16956898011267185211181640625">
        <ele>470.20001220703125</ele>
        <time>2025-04-29T23:18:54.000Z</time>
        <extensions>
          <ns3:TrackPointExtension/>
        </extensions>
      </trkpt>
      <trkpt lat="50.3541999869048595428466796875" lon="6.1693789623677730560302734375">
        <ele>470.79998779296875</ele>
        <time>2025-04-29T23:18:57.000Z</time>
        <extensions>
          <ns3:TrackPointExtension/>
        </extensions>
      </trkpt>
      <trkpt lat="50.35422496497631072998046875" lon="6.16933395154774188995361328125">
        <ele>470.600006103515625</ele>
        <time>2025-04-29T23:19:02.000Z</time>
        <extensions>
          <ns3:TrackPointExtension/>
        </extensions>
      </trkpt>
      <trkpt lat="50.3543069399893283843994140625" lon="6.1688099987804889678955078125">
        <ele>471</ele>
        <time>2025-04-29T23:19:07.000Z</time>
        <extensions>
          <ns3:TrackPointExtension/>
        </extensions>
      </trkpt>
      <trkpt lat="50.35441498272120952606201171875" lon="6.16844999603927135467529296875">
        <ele>471</ele>
        <time>2025-04-29T23:19:12.000Z</time>
        <extensions>
          <ns3:TrackPointExtension/>
        </extensions>
      </trkpt>
      <trkpt lat="50.3547739796340465545654296875" lon="6.16777894087135791778564453125">
        <ele>470.600006103515625</ele>
        <time>2025-04-29T23:19:17.000Z</time>
        <extensions>
          <ns3:TrackPointExtension/>
        </extensions>
      </trkpt>
      <trkpt lat="50.3552919812500476837158203125" lon="6.16639894433319568634033203125">
        <ele>465.20001220703125</ele>
        <time>2025-04-29T23:19:22.000Z</time>
        <extensions>
          <ns3:TrackPointExtension/>
        </extensions>
      </trkpt>
      <trkpt lat="50.35590595565736293792724609375" lon="6.16484695114195346832275390625">
        <ele>469.79998779296875</ele>
        <time>2025-04-29T23:19:27.000Z</time>
        <extensions>
          <ns3:TrackPointExtension/>
        </extensions>
      </trkpt>
      <trkpt lat="50.35659897141158580780029296875" lon="6.163074932992458343505859375">
        <ele>476.20001220703125</ele>
        <time>2025-04-29T23:19:31.000Z</time>
        <extensions>
          <ns3:TrackPointExtension/>
        </extensions>
      </trkpt>
      <trkpt lat="50.35685696639120578765869140625" lon="6.1625339649617671966552734375">
        <ele>479.399993896484375</ele>
        <time>2025-04-29T23:19:36.000Z</time>
        <extensions>
          <ns3:TrackPointExtension/>
        </extensions>
      </trkpt>
      <trkpt lat="50.3571259416639804840087890625" lon="6.16203398443758487701416015625">
        <ele>478.600006103515625</ele>
        <time>2025-04-29T23:19:41.000Z</time>
        <extensions>
          <ns3:TrackPointExtension/>
        </extensions>
      </trkpt>
      <trkpt lat="50.35739399492740631103515625" lon="6.16142797283828258514404296875">
        <ele>476.20001220703125</ele>
        <time>2025-04-29T23:19:46.000Z</time>
        <extensions>
          <ns3:TrackPointExtension/>
        </extensions>
      </trkpt>
      <trkpt lat="50.35771493799984455108642578125" lon="6.16076194681227207183837890625">
        <ele>476</ele>
        <time>2025-04-29T23:19:51.000Z</time>
        <extensions>
          <ns3:TrackPointExtension/>
        </extensions>
      </trkpt>
      <trkpt lat="50.3579869307577610015869140625" lon="6.1602829210460186004638671875">
        <ele>475.399993896484375</ele>
        <time>2025-04-29T23:19:56.000Z</time>
        <extensions>
          <ns3:TrackPointExtension/>
        </extensions>
      </trkpt>
      <trkpt lat="50.358079969882965087890625" lon="6.16019792854785919189453125">
        <ele>475.20001220703125</ele>
        <time>2025-04-29T23:20:01.000Z</time>
        <extensions>
          <ns3:TrackPointExtension/>
        </extensions>
      </trkpt>
      <trkpt lat="50.3582209534943103790283203125" lon="6.1599719524383544921875">
        <ele>475</ele>
        <time>2025-04-29T23:20:07.000Z</time>
        <extensions>
          <ns3:TrackPointExtension/>
        </extensions>
      </trkpt>
      <trkpt lat="50.3584469296038150787353515625" lon="6.15977891720831394195556640625">
        <ele>475</ele>
        <time>2025-04-29T23:20:12.000Z</time>
        <extensions>
          <ns3:TrackPointExtension/>
        </extensions>
      </trkpt>
      <trkpt lat="50.35869293846189975738525390625" lon="6.15941396914422512054443359375">
        <ele>471.79998779296875</ele>
        <time>2025-04-29T23:20:18.000Z</time>
        <extensions>
          <ns3:TrackPointExtension/>
        </extensions>
      </trkpt>
      <trkpt lat="50.35904891788959503173828125" lon="6.15874894894659519195556640625">
        <ele>466.399993896484375</ele>
        <time>2025-04-29T23:20:23.000Z</time>
        <extensions>
          <ns3:TrackPointExtension/>
        </extensions>
      </trkpt>
      <trkpt lat="50.35974495112895965576171875" lon="6.157556958496570587158203125">
        <ele>467.79998779296875</ele>
        <time>2025-04-29T23:20:29.000Z</time>
        <extensions>
          <ns3:TrackPointExtension/>
        </extensions>
      </trkpt>
      <trkpt lat="50.3598829172551631927490234375" lon="6.1574139632284641265869140625">
        <ele>468.79998779296875</ele>
        <time>2025-04-29T23:20:35.000Z</time>
        <extensions>
          <ns3:TrackPointExtension/>
        </extensions>
      </trkpt>
      <trkpt lat="50.359855927526950836181640625" lon="6.15627092309296131134033203125">
        <ele>470.399993896484375</ele>
        <time>2025-04-29T23:20:44.000Z</time>
        <extensions>
          <ns3:TrackPointExtension/>
        </extensions>
      </trkpt>
      <trkpt lat="50.35992792807519435882568359375" lon="6.15615491755306720733642578125">
        <ele>471.20001220703125</ele>
        <time>2025-04-29T23:20:49.000Z</time>
        <extensions>
          <ns3:TrackPointExtension/>
        </extensions>
      </trkpt>
      <trkpt lat="50.36049596965312957763671875" lon="6.154560931026935577392578125">
        <ele>482</ele>
        <time>2025-04-29T23:20:54.000Z</time>
        <extensions>
          <ns3:TrackPointExtension/>
        </extensions>
      </trkpt>
      <trkpt lat="50.3609029948711395263671875" lon="6.1532759852707386016845703125">
        <ele>485.399993896484375</ele>
        <time>2025-04-29T23:20:58.000Z</time>
        <extensions>
          <ns3:TrackPointExtension/>
        </extensions>
      </trkpt>
      <trkpt lat="50.3611229360103607177734375" lon="6.15234198980033397674560546875">
        <ele>483.600006103515625</ele>
        <time>2025-04-29T23:21:03.000Z</time>
        <extensions>
          <ns3:TrackPointExtension/>
        </extensions>
      </trkpt>
      <trkpt lat="50.36134799011051654815673828125" lon="6.15128695964813232421875">
        <ele>478</ele>
        <time>2025-04-29T23:21:08.000Z</time>
        <extensions>
          <ns3:TrackPointExtension/>
        </extensions>
      </trkpt>
      <trkpt lat="50.3616219945251941680908203125" lon="6.15053392946720123291015625">
        <ele>472.600006103515625</ele>
        <time>2025-04-29T23:21:12.000Z</time>
        <extensions>
          <ns3:TrackPointExtension/>
        </extensions>
      </trkpt>
      <trkpt lat="50.36172299645841121673583984375" lon="6.1480629444122314453125">
        <ele>466</ele>
        <time>2025-04-29T23:21:17.000Z</time>
        <extensions>
          <ns3:TrackPointExtension/>
        </extensions>
      </trkpt>
      <trkpt lat="50.36183296702802181243896484375" lon="6.14623191766440868377685546875">
        <ele>455.600006103515625</ele>
        <time>2025-04-29T23:21:22.000Z</time>
        <extensions>
          <ns3:TrackPointExtension/>
        </extensions>
      </trkpt>
      <trkpt lat="50.3617829270660877227783203125" lon="6.14565096795558929443359375">
        <ele>453</ele>
        <time>2025-04-29T23:21:27.000Z</time>
        <extensions>
          <ns3:TrackPointExtension/>
        </extensions>
      </trkpt>
      <trkpt lat="50.36145796068012714385986328125" lon="6.14316598512232303619384765625">
        <ele>441.399993896484375</ele>
        <time>2025-04-29T23:21:31.000Z</time>
        <extensions>
          <ns3:TrackPointExtension/>
        </extensions>
      </trkpt>
      <trkpt lat="50.3613879717886447906494140625" lon="6.14275292493402957916259765625">
        <ele>441.79998779296875</ele>
        <time>2025-04-29T23:21:36.000Z</time>
        <extensions>
          <ns3:TrackPointExtension/>
        </extensions>
      </trkpt>
      <trkpt lat="50.36136098206043243408203125" lon="6.1424039863049983978271484375">
        <ele>443</ele>
        <time>2025-04-29T23:21:41.000Z</time>
        <extensions>
          <ns3:TrackPointExtension/>
        </extensions>
      </trkpt>
      <trkpt lat="50.36136098206043243408203125" lon="6.14181297831237316131591796875">
        <ele>445</ele>
        <time>2025-04-29T23:21:45.000Z</time>
        <extensions>
          <ns3:TrackPointExtension/>
        </extensions>
      </trkpt>
      <trkpt lat="50.36141596734523773193359375" lon="6.141275949776172637939453125">
        <ele>446.399993896484375</ele>
        <time>2025-04-29T23:21:50.000Z</time>
        <extensions>
          <ns3:TrackPointExtension/>
        </extensions>
      </trkpt>
      <trkpt lat="50.361410938203334808349609375" lon="6.1408169567584991455078125">
        <ele>450.399993896484375</ele>
        <time>2025-04-29T23:21:55.000Z</time>
        <extensions>
          <ns3:TrackPointExtension/>
        </extensions>
      </trkpt>
      <trkpt lat="50.36142191849648952484130859375" lon="6.14065996371209621429443359375">
        <ele>451.600006103515625</ele>
        <time>2025-04-29T23:22:00.000Z</time>
        <extensions>
          <ns3:TrackPointExtension/>
        </extensions>
      </trkpt>
      <trkpt lat="50.3615059889853000640869140625" lon="6.14013098180294036865234375">
        <ele>455.20001220703125</ele>
        <time>2025-04-29T23:22:04.000Z</time>
        <extensions>
          <ns3:TrackPointExtension/>
        </extensions>
      </trkpt>
      <trkpt lat="50.361530967056751251220703125" lon="6.1398459970951080322265625">
        <ele>456</ele>
        <time>2025-04-29T23:22:09.000Z</time>
        <extensions>
          <ns3:TrackPointExtension/>
        </extensions>
      </trkpt>
      <trkpt lat="50.36151898093521595001220703125" lon="6.13919598050415515899658203125">
        <ele>458.20001220703125</ele>
        <time>2025-04-29T23:22:14.000Z</time>
        <extensions>
          <ns3:TrackPointExtension/>
        </extensions>
      </trkpt>
      <trkpt lat="50.36188191734254360198974609375" lon="6.13753192126750946044921875">
        <ele>456.600006103515625</ele>
        <time>2025-04-29T23:22:18.000Z</time>
        <extensions>
          <ns3:TrackPointExtension/>
        </extensions>
      </trkpt>
      <trkpt lat="50.36194394342601299285888671875" lon="6.1369379796087741851806640625">
        <ele>454.20001220703125</ele>
        <time>2025-04-29T23:22:23.000Z</time>
        <extensions>
          <ns3:TrackPointExtension/>
        </extensions>
      </trkpt>
      <trkpt lat="50.36211694590747356414794921875" lon="6.136097945272922515869140625">
        <ele>451.600006103515625</ele>
        <time>2025-04-29T23:22:28.000Z</time>
        <extensions>
          <ns3:TrackPointExtension/>
        </extensions>
      </trkpt>
      <trkpt lat="50.36214494146406650543212890625" lon="6.1358399502933025360107421875">
        <ele>451.600006103515625</ele>
        <time>2025-04-29T23:22:32.000Z</time>
        <extensions>
          <ns3:TrackPointExtension/>
        </extensions>
      </trkpt>
      <trkpt lat="50.3621369786560535430908203125" lon="6.13525799475610256195068359375">
        <ele>453</ele>
        <time>2025-04-29T23:22:37.000Z</time>
        <extensions>
          <ns3:TrackPointExtension/>
        </extensions>
      </trkpt>
      <trkpt lat="50.36214997060596942901611328125" lon="6.13510292954742908477783203125">
        <ele>453.600006103515625</ele>
        <time>2025-04-29T23:22:42.000Z</time>
        <extensions>
          <ns3:TrackPointExtension/>
        </extensions>
      </trkpt>
      <trkpt lat="50.3623639605939388275146484375" lon="6.13496798090636730194091796875">
        <ele>456</ele>
        <time>2025-04-29T23:22:43.000Z</time>
        <extensions>
          <ns3:TrackPointExtension/>
        </extensions>
      </trkpt>
      <trkpt lat="50.3625329397618770599365234375" lon="6.1347479559481143951416015625">
        <ele>456.79998779296875</ele>
        <time>2025-04-29T23:22:44.000Z</time>
        <extensions>
          <ns3:TrackPointExtension/>
        </extensions>
      </trkpt>
      <trkpt lat="50.36261298693716526031494140625" lon="6.13438895903527736663818359375">
        <ele>457</ele>
        <time>2025-04-29T23:22:46.000Z</time>
        <extensions>
          <ns3:TrackPointExtension/>
        </extensions>
      </trkpt>
      <trkpt lat="50.3618439473211765289306640625" lon="6.13375696353614330291748046875">
        <ele>451</ele>
        <time>2025-04-29T23:22:51.000Z</time>
        <extensions>
          <ns3:TrackPointExtension/>
        </extensions>
      </trkpt>
      <trkpt lat="50.36169894039630889892578125" lon="6.13353299908339977264404296875">
        <ele>452</ele>
        <time>2025-04-29T23:22:57.000Z</time>
        <extensions>
          <ns3:TrackPointExtension/>
        </extensions>
      </trkpt>
      <trkpt lat="50.36170296370983123779296875" lon="6.133339963853359222412109375">
        <ele>453.20001220703125</ele>
        <time>2025-04-29T23:23:00.000Z</time>
        <extensions>
          <ns3:TrackPointExtension/>
        </extensions>
      </trkpt>
      <trkpt lat="50.36177496425807476043701171875" lon="6.132819950580596923828125">
        <ele>453.600006103515625</ele>
        <time>2025-04-29T23:23:04.000Z</time>
        <extensions>
          <ns3:TrackPointExtension/>
        </extensions>
      </trkpt>
      <trkpt lat="50.3617949970066547393798828125" lon="6.13208795897662639617919921875">
        <ele>449.79998779296875</ele>
        <time>2025-04-29T23:23:07.000Z</time>
        <extensions>
          <ns3:TrackPointExtension/>
        </extensions>
      </trkpt>
      <trkpt lat="50.361933968961238861083984375" lon="6.13047293387353420257568359375">
        <ele>452.20001220703125</ele>
        <time>2025-04-29T23:23:11.000Z</time>
        <extensions>
          <ns3:TrackPointExtension/>
        </extensions>
      </trkpt>
      <trkpt lat="50.36187194287776947021484375" lon="6.13013195805251598358154296875">
        <ele>450.79998779296875</ele>
        <time>2025-04-29T23:23:14.000Z</time>
        <extensions>
          <ns3:TrackPointExtension/>
        </extensions>
      </trkpt>
      <trkpt lat="50.36177194677293300628662109375" lon="6.12975996918976306915283203125">
        <ele>450.600006103515625</ele>
        <time>2025-04-29T23:23:18.000Z</time>
        <extensions>
          <ns3:TrackPointExtension/>
        </extensions>
      </trkpt>
      <trkpt lat="50.36164797842502593994140625" lon="6.12943491898477077484130859375">
        <ele>450</ele>
        <time>2025-04-29T23:23:21.000Z</time>
        <extensions>
          <ns3:TrackPointExtension/>
        </extensions>
      </trkpt>
      <trkpt lat="50.3614999540150165557861328125" lon="6.12912897951900959014892578125">
        <ele>449.600006103515625</ele>
        <time>2025-04-29T23:23:25.000Z</time>
        <extensions>
          <ns3:TrackPointExtension/>
        </extensions>
      </trkpt>
      <trkpt lat="50.36135695874691009521484375" lon="6.1286529712378978729248046875">
        <ele>450</ele>
        <time>2025-04-29T23:23:28.000Z</time>
        <extensions>
          <ns3:TrackPointExtension/>
        </extensions>
      </trkpt>
      <trkpt lat="50.361188985407352447509765625" lon="6.128499917685985565185546875">
        <ele>450</ele>
        <time>2025-04-29T23:23:32.000Z</time>
        <extensions>
          <ns3:TrackPointExtension/>
        </extensions>
      </trkpt>
      <trkpt lat="50.3610129654407501220703125" lon="6.12806397490203380584716796875">
        <ele>448.20001220703125</ele>
        <time>2025-04-29T23:23:35.000Z</time>
        <extensions>
          <ns3:TrackPointExtension/>
        </extensions>
      </trkpt>
      <trkpt lat="50.360722951591014862060546875" lon="6.12759492360055446624755859375">
        <ele>445.399993896484375</ele>
        <time>2025-04-29T23:23:39.000Z</time>
        <extensions>
          <ns3:TrackPointExtension/>
        </extensions>
      </trkpt>
      <trkpt lat="50.36067299544811248779296875" lon="6.12742795608937740325927734375">
        <ele>444.20001220703125</ele>
        <time>2025-04-29T23:23:43.000Z</time>
        <extensions>
          <ns3:TrackPointExtension/>
        </extensions>
      </trkpt>
      <trkpt lat="50.36065899766981601715087890625" lon="6.12718798220157623291015625">
        <ele>443.20001220703125</ele>
        <time>2025-04-29T23:23:46.000Z</time>
        <extensions>
          <ns3:TrackPointExtension/>
        </extensions>
      </trkpt>
      <trkpt lat="50.3606959618628025054931640625" lon="6.126441992819309234619140625">
        <ele>440.399993896484375</ele>
        <time>2025-04-29T23:23:50.000Z</time>
        <extensions>
          <ns3:TrackPointExtension/>
        </extensions>
      </trkpt>
      <trkpt lat="50.36067299544811248779296875" lon="6.12602499313652515411376953125">
        <ele>438</ele>
        <time>2025-04-29T23:23:53.000Z</time>
        <extensions>
          <ns3:TrackPointExtension/>
        </extensions>
      </trkpt>
      <trkpt lat="50.360549949109554290771484375" lon="6.12495395354926586151123046875">
        <ele>434</ele>
        <time>2025-04-29T23:23:57.000Z</time>
        <extensions>
          <ns3:TrackPointExtension/>
        </extensions>
      </trkpt>
      <trkpt lat="50.36044894717633724212646484375" lon="6.12467098049819469451904296875">
        <ele>433.20001220703125</ele>
        <time>2025-04-29T23:24:00.000Z</time>
        <extensions>
          <ns3:TrackPointExtension/>
        </extensions>
      </trkpt>
      <trkpt lat="50.36038993857800960540771484375" lon="6.12455497495830059051513671875">
        <ele>432.79998779296875</ele>
        <time>2025-04-29T23:24:04.000Z</time>
        <extensions>
          <ns3:TrackPointExtension/>
        </extensions>
      </trkpt>
      <trkpt lat="50.360032953321933746337890625" lon="6.12426697276532649993896484375">
        <ele>431.20001220703125</ele>
        <time>2025-04-29T23:24:07.000Z</time>
        <extensions>
          <ns3:TrackPointExtension/>
        </extensions>
      </trkpt>
      <trkpt lat="50.35976397804915904998779296875" lon="6.1239869333803653717041015625">
        <ele>429.600006103515625</ele>
        <time>2025-04-29T23:24:11.000Z</time>
        <extensions>
          <ns3:TrackPointExtension/>
        </extensions>
      </trkpt>
      <trkpt lat="50.35959198139607906341552734375" lon="6.1237039603292942047119140625">
        <ele>428.399993896484375</ele>
        <time>2025-04-29T23:24:14.000Z</time>
        <extensions>
          <ns3:TrackPointExtension/>
        </extensions>
      </trkpt>
      <trkpt lat="50.35941998474299907684326171875" lon="6.12348091788589954376220703125">
        <ele>427</ele>
        <time>2025-04-29T23:24:18.000Z</time>
        <extensions>
          <ns3:TrackPointExtension/>
        </extensions>
      </trkpt>
      <trkpt lat="50.35924999974668025970458984375" lon="6.12335099838674068450927734375">
        <ele>426.399993896484375</ele>
        <time>2025-04-29T23:24:21.000Z</time>
        <extensions>
          <ns3:TrackPointExtension/>
        </extensions>
      </trkpt>
      <trkpt lat="50.35874993540346622467041015625" lon="6.1230699531733989715576171875">
        <ele>423</ele>
        <time>2025-04-29T23:24:25.000Z</time>
        <extensions>
          <ns3:TrackPointExtension/>
        </extensions>
      </trkpt>
      <trkpt lat="50.35861599259078502655029296875" lon="6.12296291626989841461181640625">
        <ele>422.20001220703125</ele>
        <time>2025-04-29T23:24:28.000Z</time>
        <extensions>
          <ns3:TrackPointExtension/>
        </extensions>
      </trkpt>
      <trkpt lat="50.35852798260748386383056640625" lon="6.12281598150730133056640625">
        <ele>422.399993896484375</ele>
        <time>2025-04-29T23:24:32.000Z</time>
        <extensions>
          <ns3:TrackPointExtension/>
        </extensions>
      </trkpt>
      <trkpt lat="50.358479954302310943603515625" lon="6.1226449906826019287109375">
        <ele>423</ele>
        <time>2025-04-29T23:24:35.000Z</time>
        <extensions>
          <ns3:TrackPointExtension/>
        </extensions>
      </trkpt>
      <trkpt lat="50.3586499392986297607421875" lon="6.12239495851099491119384765625">
        <ele>423</ele>
        <time>2025-04-29T23:24:39.000Z</time>
        <extensions>
          <ns3:TrackPointExtension/>
        </extensions>
      </trkpt>
      <trkpt lat="50.35888396203517913818359375" lon="6.1220969818532466888427734375">
        <ele>421.79998779296875</ele>
        <time>2025-04-29T23:24:43.000Z</time>
        <extensions>
          <ns3:TrackPointExtension/>
        </extensions>
      </trkpt>
      <trkpt lat="50.35895797424018383026123046875" lon="6.12196697853505611419677734375">
        <ele>421</ele>
        <time>2025-04-29T23:24:47.000Z</time>
        <extensions>
          <ns3:TrackPointExtension/>
        </extensions>
      </trkpt>
      <trkpt lat="50.3590039908885955810546875" lon="6.12179297022521495819091796875">
        <ele>419.600006103515625</ele>
        <time>2025-04-29T23:24:51.000Z</time>
        <extensions>
          <ns3:TrackPointExtension/>
        </extensions>
      </trkpt>
      <trkpt lat="50.3590239398181438446044921875" lon="6.1209939233958721160888671875">
        <ele>418</ele>
        <time>2025-04-29T23:24:55.000Z</time>
        <extensions>
          <ns3:TrackPointExtension/>
        </extensions>
      </trkpt>
      <trkpt lat="50.3590789251029491424560546875" lon="6.1208859644830226898193359375">
        <ele>419</ele>
        <time>2025-04-29T23:24:59.000Z</time>
        <extensions>
          <ns3:TrackPointExtension/>
        </extensions>
      </trkpt>
      <trkpt lat="50.3591649234294891357421875" lon="6.12077993340790271759033203125">
        <ele>420.399993896484375</ele>
        <time>2025-04-29T23:25:03.000Z</time>
        <extensions>
          <ns3:TrackPointExtension/>
        </extensions>
      </trkpt>
      <trkpt lat="50.359344966709613800048828125" lon="6.1206789314746856689453125">
        <ele>419.600006103515625</ele>
        <time>2025-04-29T23:25:07.000Z</time>
        <extensions>
          <ns3:TrackPointExtension/>
        </extensions>
      </trkpt>
      <trkpt lat="50.359624922275543212890625" lon="6.1207059212028980255126953125">
        <ele>419.20001220703125</ele>
        <time>2025-04-29T23:25:11.000Z</time>
        <extensions>
          <ns3:TrackPointExtension/>
        </extensions>
      </trkpt>
      <trkpt lat="50.35996296443045139312744140625" lon="6.12078898586332798004150390625">
        <ele>420.600006103515625</ele>
        <time>2025-04-29T23:25:15.000Z</time>
        <extensions>
          <ns3:TrackPointExtension/>
        </extensions>
      </trkpt>
      <trkpt lat="50.36021593026816844940185546875" lon="6.12078194506466388702392578125">
        <ele>422.600006103515625</ele>
        <time>2025-04-29T23:25:19.000Z</time>
        <extensions>
          <ns3:TrackPointExtension/>
        </extensions>
      </trkpt>
      <trkpt lat="50.360488928854465484619140625" lon="6.120689995586872100830078125">
        <ele>424</ele>
        <time>2025-04-29T23:25:23.000Z</time>
        <extensions>
          <ns3:TrackPointExtension/>
        </extensions>
      </trkpt>
      <trkpt lat="50.36079696379601955413818359375" lon="6.12046292982995510101318359375">
        <ele>427</ele>
        <time>2025-04-29T23:25:27.000Z</time>
        <extensions>
          <ns3:TrackPointExtension/>
        </extensions>
      </trkpt>
      <trkpt lat="50.362212918698787689208984375" lon="6.11953698098659515380859375">
        <ele>435</ele>
        <time>2025-04-29T23:25:31.000Z</time>
        <extensions>
          <ns3:TrackPointExtension/>
        </extensions>
      </trkpt>
      <trkpt lat="50.36367195658385753631591796875" lon="6.120109967887401580810546875">
        <ele>434.79998779296875</ele>
        <time>2025-04-29T23:25:35.000Z</time>
        <extensions>
          <ns3:TrackPointExtension/>
        </extensions>
      </trkpt>
      <trkpt lat="50.36520995199680328369140625" lon="6.12017492763698101043701171875">
        <ele>430.399993896484375</ele>
        <time>2025-04-29T23:25:39.000Z</time>
        <extensions>
          <ns3:TrackPointExtension/>
        </extensions>
      </trkpt>
      <trkpt lat="50.36583297885954380035400390625" lon="6.1198479495942592620849609375">
        <ele>432.79998779296875</ele>
        <time>2025-04-29T23:25:43.000Z</time>
        <extensions>
          <ns3:TrackPointExtension/>
        </extensions>
      </trkpt>
      <trkpt lat="50.36596993915736675262451171875" lon="6.1197329498827457427978515625">
        <ele>432.20001220703125</ele>
        <time>2025-04-29T23:25:47.000Z</time>
        <extensions>
          <ns3:TrackPointExtension/>
        </extensions>
      </trkpt>
      <trkpt lat="50.3663309477269649505615234375" lon="6.11931796185672283172607421875">
        <ele>433.20001220703125</ele>
        <time>2025-04-29T23:25:51.000Z</time>
        <extensions>
          <ns3:TrackPointExtension/>
        </extensions>
      </trkpt>
      <trkpt lat="50.36663898266851902008056640625" lon="6.11900992691516876220703125">
        <ele>436.79998779296875</ele>
        <time>2025-04-29T23:25:55.000Z</time>
        <extensions>
          <ns3:TrackPointExtension/>
        </extensions>
      </trkpt>
      <trkpt lat="50.36697794683277606964111328125" lon="6.11876492388546466827392578125">
        <ele>437</ele>
        <time>2025-04-29T23:25:59.000Z</time>
        <extensions>
          <ns3:TrackPointExtension/>
        </extensions>
      </trkpt>
      <trkpt lat="50.3677729703485965728759765625" lon="6.11844993196427822113037109375">
        <ele>442.20001220703125</ele>
        <time>2025-04-29T23:26:02.000Z</time>
        <extensions>
          <ns3:TrackPointExtension/>
        </extensions>
      </trkpt>
      <trkpt lat="50.36813096143305301666259765625" lon="6.11842193640768527984619140625">
        <ele>444.600006103515625</ele>
        <time>2025-04-29T23:26:06.000Z</time>
        <extensions>
          <ns3:TrackPointExtension/>
        </extensions>
      </trkpt>
      <trkpt lat="50.36842499859631061553955078125" lon="6.11843995749950408935546875">
        <ele>445.600006103515625</ele>
        <time>2025-04-29T23:26:10.000Z</time>
        <extensions>
          <ns3:TrackPointExtension/>
        </extensions>
      </trkpt>
      <trkpt lat="50.37014395929872989654541015625" lon="6.1191039718687534332275390625">
        <ele>432.79998779296875</ele>
        <time>2025-04-29T23:26:14.000Z</time>
        <extensions>
          <ns3:TrackPointExtension/>
        </extensions>
      </trkpt>
      <trkpt lat="50.3710459358990192413330078125" lon="6.119250990450382232666015625">
        <ele>432.399993896484375</ele>
        <time>2025-04-29T23:26:18.000Z</time>
        <extensions>
          <ns3:TrackPointExtension/>
        </extensions>
      </trkpt>
      <trkpt lat="50.37138598971068859100341796875" lon="6.1192229948937892913818359375">
        <ele>431.20001220703125</ele>
        <time>2025-04-29T23:26:22.000Z</time>
        <extensions>
          <ns3:TrackPointExtension/>
        </extensions>
      </trkpt>
      <trkpt lat="50.3717389516532421112060546875" lon="6.119070947170257568359375">
        <ele>429.79998779296875</ele>
        <time>2025-04-29T23:26:26.000Z</time>
        <extensions>
          <ns3:TrackPointExtension/>
        </extensions>
      </trkpt>
      <trkpt lat="50.37233197130262851715087890625" lon="6.118444986641407012939453125">
        <ele>431.399993896484375</ele>
        <time>2025-04-29T23:26:30.000Z</time>
        <extensions>
          <ns3:TrackPointExtension/>
        </extensions>
      </trkpt>
      <trkpt lat="50.373380966484546661376953125" lon="6.1178089678287506103515625">
        <ele>428.20001220703125</ele>
        <time>2025-04-29T23:26:34.000Z</time>
        <extensions>
          <ns3:TrackPointExtension/>
        </extensions>
      </trkpt>
      <trkpt lat="50.37368196062743663787841796875" lon="6.11765197478234767913818359375">
        <ele>428.399993896484375</ele>
        <time>2025-04-29T23:26:38.000Z</time>
        <extensions>
          <ns3:TrackPointExtension/>
        </extensions>
      </trkpt>
      <trkpt lat="50.37385697476565837860107421875" lon="6.1176049523055553436279296875">
        <ele>428.79998779296875</ele>
        <time>2025-04-29T23:26:42.000Z</time>
        <extensions>
          <ns3:TrackPointExtension/>
        </extensions>
      </trkpt>
      <trkpt lat="50.37405093200504779815673828125" lon="6.11759799532592296600341796875">
        <ele>424</ele>
        <time>2025-04-29T23:26:46.000Z</time>
        <extensions>
          <ns3:TrackPointExtension/>
        </extensions>
      </trkpt>
      <trkpt lat="50.37462693639099597930908203125" lon="6.11762397922575473785400390625">
        <ele>418.79998779296875</ele>
        <time>2025-04-29T23:26:50.000Z</time>
        <extensions>
          <ns3:TrackPointExtension/>
        </extensions>
      </trkpt>
      <trkpt lat="50.3748969174921512603759765625" lon="6.11758299171924591064453125">
        <ele>419.399993896484375</ele>
        <time>2025-04-29T23:26:54.000Z</time>
        <extensions>
          <ns3:TrackPointExtension/>
        </extensions>
      </trkpt>
      <trkpt lat="50.37520897574722766876220703125" lon="6.1174869351089000701904296875">
        <ele>419.600006103515625</ele>
        <time>2025-04-29T23:26:58.000Z</time>
        <extensions>
          <ns3:TrackPointExtension/>
        </extensions>
      </trkpt>
      <trkpt lat="50.37566092796623706817626953125" lon="6.11724293790757656097412109375">
        <ele>422</ele>
        <time>2025-04-29T23:27:02.000Z</time>
        <extensions>
          <ns3:TrackPointExtension/>
        </extensions>
      </trkpt>
      <trkpt lat="50.375905930995941162109375" lon="6.117171943187713623046875">
        <ele>421</ele>
        <time>2025-04-29T23:27:06.000Z</time>
        <extensions>
          <ns3:TrackPointExtension/>
        </extensions>
      </trkpt>
      <trkpt lat="50.3764529339969158172607421875" lon="6.11678997986018657684326171875">
        <ele>421.399993896484375</ele>
        <time>2025-04-29T23:27:10.000Z</time>
        <extensions>
          <ns3:TrackPointExtension/>
        </extensions>
      </trkpt>
      <trkpt lat="50.3769759647548198699951171875" lon="6.11650499515235424041748046875">
        <ele>421.399993896484375</ele>
        <time>2025-04-29T23:27:14.000Z</time>
        <extensions>
          <ns3:TrackPointExtension/>
        </extensions>
      </trkpt>
      <trkpt lat="50.377345941960811614990234375" lon="6.1162559688091278076171875">
        <ele>418.79998779296875</ele>
        <time>2025-04-29T23:27:18.000Z</time>
        <extensions>
          <ns3:TrackPointExtension/>
        </extensions>
      </trkpt>
      <trkpt lat="50.3784199990332126617431640625" lon="6.115281991660594940185546875">
        <ele>415.79998779296875</ele>
        <time>2025-04-29T23:27:22.000Z</time>
        <extensions>
          <ns3:TrackPointExtension/>
        </extensions>
      </trkpt>
      <trkpt lat="50.378609932959079742431640625" lon="6.115043945610523223876953125">
        <ele>416.600006103515625</ele>
        <time>2025-04-29T23:27:26.000Z</time>
        <extensions>
          <ns3:TrackPointExtension/>
        </extensions>
      </trkpt>
      <trkpt lat="50.378732979297637939453125" lon="6.11474295146763324737548828125">
        <ele>417.20001220703125</ele>
        <time>2025-04-29T23:27:30.000Z</time>
        <extensions>
          <ns3:TrackPointExtension/>
        </extensions>
      </trkpt>
      <trkpt lat="50.37879399955272674560546875" lon="6.114524938166141510009765625">
        <ele>417.20001220703125</ele>
        <time>2025-04-29T23:27:34.000Z</time>
        <extensions>
          <ns3:TrackPointExtension/>
        </extensions>
      </trkpt>
      <trkpt lat="50.3792989253997802734375" lon="6.11244798637926578521728515625">
        <ele>406.79998779296875</ele>
        <time>2025-04-29T23:27:38.000Z</time>
        <extensions>
          <ns3:TrackPointExtension/>
        </extensions>
      </trkpt>
      <trkpt lat="50.37937092594802379608154296875" lon="6.111935935914516448974609375">
        <ele>405</ele>
        <time>2025-04-29T23:27:42.000Z</time>
        <extensions>
          <ns3:TrackPointExtension/>
        </extensions>
      </trkpt>
      <trkpt lat="50.37938098423182964324951171875" lon="6.111428998410701751708984375">
        <ele>407.20001220703125</ele>
        <time>2025-04-29T23:27:46.000Z</time>
        <extensions>
          <ns3:TrackPointExtension/>
        </extensions>
      </trkpt>
      <trkpt lat="50.37935097701847553253173828125" lon="6.1111669801175594329833984375">
        <ele>410.600006103515625</ele>
        <time>2025-04-29T23:27:49.000Z</time>
        <extensions>
          <ns3:TrackPointExtension/>
        </extensions>
      </trkpt>
      <trkpt lat="50.3791549243032932281494140625" lon="6.11023197881877422332763671875">
        <ele>415.600006103515625</ele>
        <time>2025-04-29T23:27:53.000Z</time>
        <extensions>
          <ns3:TrackPointExtension/>
        </extensions>
      </trkpt>
      <trkpt lat="50.37899893708527088165283203125" lon="6.10939496196806430816650390625">
        <ele>418.20001220703125</ele>
        <time>2025-04-29T23:27:57.000Z</time>
        <extensions>
          <ns3:TrackPointExtension/>
        </extensions>
      </trkpt>
      <trkpt lat="50.3788389265537261962890625" lon="6.10838997177779674530029296875">
        <ele>420.20001220703125</ele>
        <time>2025-04-29T23:28:01.000Z</time>
        <extensions>
          <ns3:TrackPointExtension/>
        </extensions>
      </trkpt>
      <trkpt lat="50.37880598567426204681396484375" lon="6.10821596346795558929443359375">
        <ele>420.79998779296875</ele>
        <time>2025-04-29T23:28:05.000Z</time>
        <extensions>
          <ns3:TrackPointExtension/>
        </extensions>
      </trkpt>
      <trkpt lat="50.377863943576812744140625" lon="6.1058679409325122833251953125">
        <ele>428.399993896484375</ele>
        <time>2025-04-29T23:28:09.000Z</time>
        <extensions>
          <ns3:TrackPointExtension/>
        </extensions>
      </trkpt>
      <trkpt lat="50.3774409927427768707275390625" lon="6.10435492359101772308349609375">
        <ele>417.600006103515625</ele>
        <time>2025-04-29T23:28:13.000Z</time>
        <extensions>
          <ns3:TrackPointExtension/>
        </extensions>
      </trkpt>
      <trkpt lat="50.377066992223262786865234375" lon="6.10378696583211421966552734375">
        <ele>420.20001220703125</ele>
        <time>2025-04-29T23:28:17.000Z</time>
        <extensions>
          <ns3:TrackPointExtension/>
        </extensions>
      </trkpt>
      <trkpt lat="50.37655091844499111175537109375" lon="6.1027619428932666778564453125">
        <ele>424.399993896484375</ele>
        <time>2025-04-29T23:28:21.000Z</time>
        <extensions>
          <ns3:TrackPointExtension/>
        </extensions>
      </trkpt>
      <trkpt lat="50.3761149756610393524169921875" lon="6.10159794799983501434326171875">
        <ele>430.399993896484375</ele>
        <time>2025-04-29T23:28:25.000Z</time>
        <extensions>
          <ns3:TrackPointExtension/>
        </extensions>
      </trkpt>
      <trkpt lat="50.37535498850047588348388671875" lon="6.09861399047076702117919921875">
        <ele>442.600006103515625</ele>
        <time>2025-04-29T23:28:29.000Z</time>
        <extensions>
          <ns3:TrackPointExtension/>
        </extensions>
      </trkpt>
      <trkpt lat="50.37458896636962890625" lon="6.0964349471032619476318359375">
        <ele>440.79998779296875</ele>
        <time>2025-04-29T23:28:33.000Z</time>
        <extensions>
          <ns3:TrackPointExtension/>
        </extensions>
      </trkpt>
      <trkpt lat="50.374478995800018310546875" lon="6.09585299156606197357177734375">
        <ele>446.20001220703125</ele>
        <time>2025-04-29T23:28:37.000Z</time>
        <extensions>
          <ns3:TrackPointExtension/>
        </extensions>
      </trkpt>
      <trkpt lat="50.37422896362841129302978515625" lon="6.09492695890367031097412109375">
        <ele>448.600006103515625</ele>
        <time>2025-04-29T23:28:41.000Z</time>
        <extensions>
          <ns3:TrackPointExtension/>
        </extensions>
      </trkpt>
      <trkpt lat="50.373614989221096038818359375" lon="6.09181693755090236663818359375">
        <ele>439.20001220703125</ele>
        <time>2025-04-29T23:28:45.000Z</time>
        <extensions>
          <ns3:TrackPointExtension/>
        </extensions>
      </trkpt>
      <trkpt lat="50.3733509592711925506591796875" lon="6.09086492098867893218994140625">
        <ele>441</ele>
        <time>2025-04-29T23:28:49.000Z</time>
        <extensions>
          <ns3:TrackPointExtension/>
        </extensions>
      </trkpt>
      <trkpt lat="50.37298693321645259857177734375" lon="6.08997392468154430389404296875">
        <ele>442.600006103515625</ele>
        <time>2025-04-29T23:28:53.000Z</time>
        <extensions>
          <ns3:TrackPointExtension/>
        </extensions>
      </trkpt>
      <trkpt lat="50.37126897834241390228271484375" lon="6.0879299975931644439697265625">
        <ele>446.20001220703125</ele>
        <time>2025-04-29T23:28:57.000Z</time>
        <extensions>
          <ns3:TrackPointExtension/>
        </extensions>
      </trkpt>
      <trkpt lat="50.3710449300706386566162109375" lon="6.08759698458015918731689453125">
        <ele>448</ele>
        <time>2025-04-29T23:29:01.000Z</time>
        <extensions>
          <ns3:TrackPointExtension/>
        </extensions>
      </trkpt>
      <trkpt lat="50.3709409944713115692138671875" lon="6.0871129296720027923583984375">
        <ele>447</ele>
        <time>2025-04-29T23:29:05.000Z</time>
        <extensions>
          <ns3:TrackPointExtension/>
        </extensions>
      </trkpt>
      <trkpt lat="50.370854996144771575927734375" lon="6.0864289663732051849365234375">
        <ele>447</ele>
        <time>2025-04-29T23:29:09.000Z</time>
        <extensions>
          <ns3:TrackPointExtension/>
        </extensions>
      </trkpt>
      <trkpt lat="50.370841920375823974609375" lon="6.086055971682071685791015625">
        <ele>445.399993896484375</ele>
        <time>2025-04-29T23:29:13.000Z</time>
        <extensions>
          <ns3:TrackPointExtension/>
        </extensions>
      </trkpt>
      <trkpt lat="50.37089598365128040313720703125" lon="6.08572698198258876800537109375">
        <ele>441</ele>
        <time>2025-04-29T23:29:17.000Z</time>
        <extensions>
          <ns3:TrackPointExtension/>
        </extensions>
      </trkpt>
      <trkpt lat="50.37099991925060749053955078125" lon="6.08534795232117176055908203125">
        <ele>436</ele>
        <time>2025-04-29T23:29:21.000Z</time>
        <extensions>
          <ns3:TrackPointExtension/>
        </extensions>
      </trkpt>
      <trkpt lat="50.371190942823886871337890625" lon="6.0848099179565906524658203125">
        <ele>431.79998779296875</ele>
        <time>2025-04-29T23:29:25.000Z</time>
        <extensions>
          <ns3:TrackPointExtension/>
        </extensions>
      </trkpt>
      <trkpt lat="50.37144198082387447357177734375" lon="6.083413995802402496337890625">
        <ele>428.600006103515625</ele>
        <time>2025-04-29T23:29:29.000Z</time>
        <extensions>
          <ns3:TrackPointExtension/>
        </extensions>
      </trkpt>
      <trkpt lat="50.37148296833038330078125" lon="6.0828919708728790283203125">
        <ele>429</ele>
        <time>2025-04-29T23:29:33.000Z</time>
        <extensions>
          <ns3:TrackPointExtension/>
        </extensions>
      </trkpt>
      <trkpt lat="50.371475927531719207763671875" lon="6.08226793818175792694091796875">
        <ele>427.399993896484375</ele>
        <time>2025-04-29T23:29:36.000Z</time>
        <extensions>
          <ns3:TrackPointExtension/>
        </extensions>
      </trkpt>
      <trkpt lat="50.37141297943890094757080078125" lon="6.08187298290431499481201171875">
        <ele>427</ele>
        <time>2025-04-29T23:29:40.000Z</time>
        <extensions>
          <ns3:TrackPointExtension/>
        </extensions>
      </trkpt>
      <trkpt lat="50.3713399730622768402099609375" lon="6.08155497349798679351806640625">
        <ele>426.20001220703125</ele>
        <time>2025-04-29T23:29:44.000Z</time>
        <extensions>
          <ns3:TrackPointExtension/>
        </extensions>
      </trkpt>
      <trkpt lat="50.3713349439203739166259765625" lon="6.081224977970123291015625">
        <ele>425</ele>
        <time>2025-04-29T23:29:48.000Z</time>
        <extensions>
          <ns3:TrackPointExtension/>
        </extensions>
      </trkpt>
      <trkpt lat="50.37137995474040508270263671875" lon="6.080649979412555694580078125">
        <ele>422.20001220703125</ele>
        <time>2025-04-29T23:29:52.000Z</time>
        <extensions>
          <ns3:TrackPointExtension/>
        </extensions>
      </trkpt>
      <trkpt lat="50.37132899276912212371826171875" lon="6.07892791740596294403076171875">
        <ele>417</ele>
        <time>2025-04-29T23:29:56.000Z</time>
        <extensions>
          <ns3:TrackPointExtension/>
        </extensions>
      </trkpt>
      <trkpt lat="50.37142597138881683349609375" lon="6.0780229233205318450927734375">
        <ele>405.79998779296875</ele>
        <time>2025-04-29T23:30:00.000Z</time>
        <extensions>
          <ns3:TrackPointExtension/>
        </extensions>
      </trkpt>
      <trkpt lat="50.37150098942220211029052734375" lon="6.07706696726381778717041015625">
        <ele>392.79998779296875</ele>
        <time>2025-04-29T23:30:04.000Z</time>
        <extensions>
          <ns3:TrackPointExtension/>
        </extensions>
      </trkpt>
      <trkpt lat="50.3714519552886486053466796875" lon="6.0751529596745967864990234375">
        <ele>396.399993896484375</ele>
        <time>2025-04-29T23:30:08.000Z</time>
        <extensions>
          <ns3:TrackPointExtension/>
        </extensions>
      </trkpt>
      <trkpt lat="50.3714529611170291900634765625" lon="6.07384395785629749298095703125">
        <ele>393.79998779296875</ele>
        <time>2025-04-29T23:30:12.000Z</time>
        <extensions>
          <ns3:TrackPointExtension/>
        </extensions>
      </trkpt>
      <trkpt lat="50.371532924473285675048828125" lon="6.07271592132747173309326171875">
        <ele>394.79998779296875</ele>
        <time>2025-04-29T23:30:16.000Z</time>
        <extensions>
          <ns3:TrackPointExtension/>
        </extensions>
      </trkpt>
      <trkpt lat="50.37205494940280914306640625" lon="6.0705509595572948455810546875">
        <ele>377.399993896484375</ele>
        <time>2025-04-29T23:30:20.000Z</time>
        <extensions>
          <ns3:TrackPointExtension/>
        </extensions>
      </trkpt>
      <trkpt lat="50.3720339946448802947998046875" lon="6.0701429285109043121337890625">
        <ele>376.600006103515625</ele>
        <time>2025-04-29T23:30:24.000Z</time>
        <extensions>
          <ns3:TrackPointExtension/>
        </extensions>
      </trkpt>
      <trkpt lat="50.37187096662819385528564453125" lon="6.06967295520007610321044921875">
        <ele>377.600006103515625</ele>
        <time>2025-04-29T23:30:28.000Z</time>
        <extensions>
          <ns3:TrackPointExtension/>
        </extensions>
      </trkpt>
      <trkpt lat="50.37149394862353801727294921875" lon="6.06913399882614612579345703125">
        <ele>378.20001220703125</ele>
        <time>2025-04-29T23:30:32.000Z</time>
        <extensions>
          <ns3:TrackPointExtension/>
        </extensions>
      </trkpt>
      <trkpt lat="50.3713959641754627227783203125" lon="6.06895093806087970733642578125">
        <ele>377</ele>
        <time>2025-04-29T23:30:36.000Z</time>
        <extensions>
          <ns3:TrackPointExtension/>
        </extensions>
      </trkpt>
      <trkpt lat="50.3713329322636127471923828125" lon="6.06872898526489734649658203125">
        <ele>375</ele>
        <time>2025-04-29T23:30:40.000Z</time>
        <extensions>
          <ns3:TrackPointExtension/>
        </extensions>
      </trkpt>
      <trkpt lat="50.371306948363780975341796875" lon="6.068225987255573272705078125">
        <ele>374.399993896484375</ele>
        <time>2025-04-29T23:30:44.000Z</time>
        <extensions>
          <ns3:TrackPointExtension/>
        </extensions>
      </trkpt>
      <trkpt lat="50.3713889233767986297607421875" lon="6.0677959956228733062744140625">
        <ele>374.79998779296875</ele>
        <time>2025-04-29T23:30:48.000Z</time>
        <extensions>
          <ns3:TrackPointExtension/>
        </extensions>
      </trkpt>
      <trkpt lat="50.371416918933391571044921875" lon="6.0674449615180492401123046875">
        <ele>377</ele>
        <time>2025-04-29T23:30:52.000Z</time>
        <extensions>
          <ns3:TrackPointExtension/>
        </extensions>
      </trkpt>
      <trkpt lat="50.37132396362721920013427734375" lon="6.06688496656715869903564453125">
        <ele>380.79998779296875</ele>
        <time>2025-04-29T23:30:56.000Z</time>
        <extensions>
          <ns3:TrackPointExtension/>
        </extensions>
      </trkpt>
      <trkpt lat="50.37137492559850215911865234375" lon="6.06641893275082111358642578125">
        <ele>382</ele>
        <time>2025-04-29T23:31:00.000Z</time>
        <extensions>
          <ns3:TrackPointExtension/>
        </extensions>
      </trkpt>
      <trkpt lat="50.3716889955103397369384765625" lon="6.06536096893250942230224609375">
        <ele>378.79998779296875</ele>
        <time>2025-04-29T23:31:04.000Z</time>
        <extensions>
          <ns3:TrackPointExtension/>
        </extensions>
      </trkpt>
      <trkpt lat="50.371829979121685028076171875" lon="6.0646249540150165557861328125">
        <ele>380.79998779296875</ele>
        <time>2025-04-29T23:31:08.000Z</time>
        <extensions>
          <ns3:TrackPointExtension/>
        </extensions>
      </trkpt>
      <trkpt lat="50.37203994579613208770751953125" lon="6.0641069523990154266357421875">
        <ele>384</ele>
        <time>2025-04-29T23:31:12.000Z</time>
        <extensions>
          <ns3:TrackPointExtension/>
        </extensions>
      </trkpt>
      <trkpt lat="50.372118987143039703369140625" lon="6.06394895352423191070556640625">
        <ele>384.79998779296875</ele>
        <time>2025-04-29T23:31:16.000Z</time>
        <extensions>
          <ns3:TrackPointExtension/>
        </extensions>
      </trkpt>
      <trkpt lat="50.3725999407470226287841796875" lon="6.06225094757974147796630859375">
        <ele>385.20001220703125</ele>
        <time>2025-04-29T23:31:20.000Z</time>
        <extensions>
          <ns3:TrackPointExtension/>
        </extensions>
      </trkpt>
      <trkpt lat="50.37275492213666439056396484375" lon="6.06179195456206798553466796875">
        <ele>381.79998779296875</ele>
        <time>2025-04-29T23:31:23.000Z</time>
        <extensions>
          <ns3:TrackPointExtension/>
        </extensions>
      </trkpt>
      <trkpt lat="50.3729429282248020172119140625" lon="6.0614009387791156768798828125">
        <ele>378.600006103515625</ele>
        <time>2025-04-29T23:31:27.000Z</time>
        <extensions>
          <ns3:TrackPointExtension/>
        </extensions>
      </trkpt>
      <trkpt lat="50.37308198399841785430908203125" lon="6.06101897545158863067626953125">
        <ele>375.399993896484375</ele>
        <time>2025-04-29T23:31:31.000Z</time>
        <extensions>
          <ns3:TrackPointExtension/>
        </extensions>
      </trkpt>
      <trkpt lat="50.373211987316608428955078125" lon="6.06053399853408336639404296875">
        <ele>373</ele>
        <time>2025-04-29T23:31:35.000Z</time>
        <extensions>
          <ns3:TrackPointExtension/>
        </extensions>
      </trkpt>
      <trkpt lat="50.3732939623296260833740234375" lon="6.05997492559254169464111328125">
        <ele>372</ele>
        <time>2025-04-29T23:31:39.000Z</time>
        <extensions>
          <ns3:TrackPointExtension/>
        </extensions>
      </trkpt>
      <trkpt lat="50.3732979856431484222412109375" lon="6.0590419359505176544189453125">
        <ele>376</ele>
        <time>2025-04-29T23:31:43.000Z</time>
        <extensions>
          <ns3:TrackPointExtension/>
        </extensions>
      </trkpt>
      <trkpt lat="50.37313696928322315216064453125" lon="6.0573219694197177886962890625">
        <ele>376</ele>
        <time>2025-04-29T23:31:47.000Z</time>
        <extensions>
          <ns3:TrackPointExtension/>
        </extensions>
      </trkpt>
      <trkpt lat="50.3735799528658390045166015625" lon="6.0573819838464260101318359375">
        <ele>367</ele>
        <time>2025-04-29T23:31:52.000Z</time>
        <extensions>
          <ns3:TrackPointExtension/>
        </extensions>
      </trkpt>
      <trkpt lat="50.37377298809587955474853515625" lon="6.05738592334091663360595703125">
        <ele>364.20001220703125</ele>
        <time>2025-04-29T23:31:56.000Z</time>
        <extensions>
          <ns3:TrackPointExtension/>
        </extensions>
      </trkpt>
      <trkpt lat="50.3739219345152378082275390625" lon="6.0573189519345760345458984375">
        <ele>361.79998779296875</ele>
        <time>2025-04-29T23:32:01.000Z</time>
        <extensions>
          <ns3:TrackPointExtension/>
        </extensions>
      </trkpt>
      <trkpt lat="50.3740949369966983795166015625" lon="6.057118959724903106689453125">
        <ele>358.600006103515625</ele>
        <time>2025-04-29T23:32:06.000Z</time>
        <extensions>
          <ns3:TrackPointExtension/>
        </extensions>
      </trkpt>
      <trkpt lat="50.3742179833352565765380859375" lon="6.05681796558201313018798828125">
        <ele>355</ele>
        <time>2025-04-29T23:32:10.000Z</time>
        <extensions>
          <ns3:TrackPointExtension/>
        </extensions>
      </trkpt>
      <trkpt lat="50.3742759861052036285400390625" lon="6.05661093257367610931396484375">
        <ele>353.600006103515625</ele>
        <time>2025-04-29T23:32:15.000Z</time>
        <extensions>
          <ns3:TrackPointExtension/>
        </extensions>
      </trkpt>
      <trkpt lat="50.37442895583808422088623046875" lon="6.0555879212915897369384765625">
        <ele>351</ele>
        <time>2025-04-29T23:32:19.000Z</time>
        <extensions>
          <ns3:TrackPointExtension/>
        </extensions>
      </trkpt>
      <trkpt lat="50.37442593835294246673583984375" lon="6.05541299097239971160888671875">
        <ele>351</ele>
        <time>2025-04-29T23:32:24.000Z</time>
        <extensions>
          <ns3:TrackPointExtension/>
        </extensions>
      </trkpt>
      <trkpt lat="50.3746759705245494842529296875" lon="6.05529698543250560760498046875">
        <ele>351</ele>
        <time>2025-04-29T23:32:27.000Z</time>
        <extensions>
          <ns3:TrackPointExtension/>
        </extensions>
      </trkpt>
      <trkpt lat="50.37477797828614711761474609375" lon="6.055217944085597991943359375">
        <ele>351.399993896484375</ele>
        <time>2025-04-29T23:32:29.000Z</time>
        <extensions>
          <ns3:TrackPointExtension/>
        </extensions>
      </trkpt>
      <trkpt lat="50.37491393275558948516845703125" lon="6.0550729371607303619384765625">
        <ele>351.600006103515625</ele>
        <time>2025-04-29T23:32:32.000Z</time>
        <extensions>
          <ns3:TrackPointExtension/>
        </extensions>
      </trkpt>
      <trkpt lat="50.3753699921071529388427734375" lon="6.0544399358332157135009765625">
        <ele>353</ele>
        <time>2025-04-29T23:32:35.000Z</time>
        <extensions>
          <ns3:TrackPointExtension/>
        </extensions>
      </trkpt>
      <trkpt lat="50.3755429945886135101318359375" lon="6.05431898497045040130615234375">
        <ele>354</ele>
        <time>2025-04-29T23:32:38.000Z</time>
        <extensions>
          <ns3:TrackPointExtension/>
        </extensions>
      </trkpt>
      <trkpt lat="50.37566696293652057647705078125" lon="6.0542689450085163116455078125">
        <ele>354.79998779296875</ele>
        <time>2025-04-29T23:32:41.000Z</time>
        <extensions>
          <ns3:TrackPointExtension/>
        </extensions>
      </trkpt>
      <trkpt lat="50.375847928225994110107421875" lon="6.0542719624936580657958984375">
        <ele>355.600006103515625</ele>
        <time>2025-04-29T23:32:43.000Z</time>
        <extensions>
          <ns3:TrackPointExtension/>
        </extensions>
      </trkpt>
      <trkpt lat="50.37595697678625583648681640625" lon="6.05430699884891510009765625">
        <ele>356.20001220703125</ele>
        <time>2025-04-29T23:32:46.000Z</time>
        <extensions>
          <ns3:TrackPointExtension/>
        </extensions>
      </trkpt>
      <trkpt lat="50.37608899176120758056640625" lon="6.05439995415508747100830078125">
        <ele>357</ele>
        <time>2025-04-29T23:32:49.000Z</time>
        <extensions>
          <ns3:TrackPointExtension/>
        </extensions>
      </trkpt>
      <trkpt lat="50.3761459887027740478515625" lon="6.05435393750667572021484375">
        <ele>357.600006103515625</ele>
        <time>2025-04-29T23:32:53.000Z</time>
        <extensions>
          <ns3:TrackPointExtension/>
        </extensions>
      </trkpt>
      <trkpt lat="50.37620591931045055389404296875" lon="6.054350920021533966064453125">
        <ele>358.20001220703125</ele>
        <time>2025-04-29T23:32:57.000Z</time>
        <extensions>
          <ns3:TrackPointExtension/>
        </extensions>
      </trkpt>
      <trkpt lat="50.376655943691730499267578125" lon="6.05468292720615863800048828125">
        <ele>362</ele>
        <time>2025-04-29T23:33:01.000Z</time>
        <extensions>
          <ns3:TrackPointExtension/>
        </extensions>
      </trkpt>
      <trkpt lat="50.37713999859988689422607421875" lon="6.05499096214771270751953125">
        <ele>367.79998779296875</ele>
        <time>2025-04-29T23:33:05.000Z</time>
        <extensions>
          <ns3:TrackPointExtension/>
        </extensions>
      </trkpt>
      <trkpt lat="50.37753998301923274993896484375" lon="6.05529799126088619232177734375">
        <ele>372.600006103515625</ele>
        <time>2025-04-29T23:33:09.000Z</time>
        <extensions>
          <ns3:TrackPointExtension/>
        </extensions>
      </trkpt>
      <trkpt lat="50.377807952463626861572265625" lon="6.05558096431195735931396484375">
        <ele>375.600006103515625</ele>
        <time>2025-04-29T23:33:13.000Z</time>
        <extensions>
          <ns3:TrackPointExtension/>
        </extensions>
      </trkpt>
      <trkpt lat="50.3782349266111850738525390625" lon="6.05621094815433025360107421875">
        <ele>383.20001220703125</ele>
        <time>2025-04-29T23:33:17.000Z</time>
        <extensions>
          <ns3:TrackPointExtension/>
        </extensions>
      </trkpt>
      <trkpt lat="50.378265939652919769287109375" lon="6.0562819428741931915283203125">
        <ele>383.79998779296875</ele>
        <time>2025-04-29T23:33:21.000Z</time>
        <extensions>
          <ns3:TrackPointExtension/>
        </extensions>
      </trkpt>
      <trkpt lat="50.3783019818365573883056640625" lon="6.0565459728240966796875">
        <ele>386</ele>
        <time>2025-04-29T23:33:25.000Z</time>
        <extensions>
          <ns3:TrackPointExtension/>
        </extensions>
      </trkpt>
      <trkpt lat="50.37850792519748210906982421875" lon="6.05644698254764080047607421875">
        <ele>387.600006103515625</ele>
        <time>2025-04-29T23:33:29.000Z</time>
        <extensions>
          <ns3:TrackPointExtension/>
        </extensions>
      </trkpt>
      <trkpt lat="50.37884496152400970458984375" lon="6.05609997175633907318115234375">
        <ele>392.79998779296875</ele>
        <time>2025-04-29T23:33:33.000Z</time>
        <extensions>
          <ns3:TrackPointExtension/>
        </extensions>
      </trkpt>
      <trkpt lat="50.37894194014370441436767578125" lon="6.0558299906551837921142578125">
        <ele>393.399993896484375</ele>
        <time>2025-04-29T23:33:37.000Z</time>
        <extensions>
          <ns3:TrackPointExtension/>
        </extensions>
      </trkpt>
      <trkpt lat="50.37909499369561672210693359375" lon="6.05485794134438037872314453125">
        <ele>394.600006103515625</ele>
        <time>2025-04-29T23:33:41.000Z</time>
        <extensions>
          <ns3:TrackPointExtension/>
        </extensions>
      </trkpt>
      <trkpt lat="50.3791099973022937774658203125" lon="6.05449399910867214202880859375">
        <ele>395.399993896484375</ele>
        <time>2025-04-29T23:33:45.000Z</time>
        <extensions>
          <ns3:TrackPointExtension/>
        </extensions>
      </trkpt>
      <trkpt lat="50.37907294929027557373046875" lon="6.0539769195020198822021484375">
        <ele>397.20001220703125</ele>
        <time>2025-04-29T23:33:49.000Z</time>
        <extensions>
          <ns3:TrackPointExtension/>
        </extensions>
      </trkpt>
      <trkpt lat="50.3789349831640720367431640625" lon="6.05293999426066875457763671875">
        <ele>395.79998779296875</ele>
        <time>2025-04-29T23:33:53.000Z</time>
        <extensions>
          <ns3:TrackPointExtension/>
        </extensions>
      </trkpt>
      <trkpt lat="50.37892299704253673553466796875" lon="6.0525999404489994049072265625">
        <ele>394.79998779296875</ele>
        <time>2025-04-29T23:33:57.000Z</time>
        <extensions>
          <ns3:TrackPointExtension/>
        </extensions>
      </trkpt>
      <trkpt lat="50.37895199842751026153564453125" lon="6.05196199379861354827880859375">
        <ele>393</ele>
        <time>2025-04-29T23:34:01.000Z</time>
        <extensions>
          <ns3:TrackPointExtension/>
        </extensions>
      </trkpt>
      <trkpt lat="50.37900991737842559814453125" lon="6.05158899910748004913330078125">
        <ele>392.399993896484375</ele>
        <time>2025-04-29T23:34:05.000Z</time>
        <extensions>
          <ns3:TrackPointExtension/>
        </extensions>
      </trkpt>
      <trkpt lat="50.379188954830169677734375" lon="6.0511709935963153839111328125">
        <ele>394.79998779296875</ele>
        <time>2025-04-29T23:34:09.000Z</time>
        <extensions>
          <ns3:TrackPointExtension/>
        </extensions>
      </trkpt>
      <trkpt lat="50.37935298867523670196533203125" lon="6.05060898698866367340087890625">
        <ele>397.399993896484375</ele>
        <time>2025-04-29T23:34:13.000Z</time>
        <extensions>
          <ns3:TrackPointExtension/>
        </extensions>
      </trkpt>
      <trkpt lat="50.37983695976436138153076171875" lon="6.04913896881043910980224609375">
        <ele>403.20001220703125</ele>
        <time>2025-04-29T23:34:18.000Z</time>
        <extensions>
          <ns3:TrackPointExtension/>
        </extensions>
      </trkpt>
      <trkpt lat="50.3803149797022342681884765625" lon="6.04770096950232982635498046875">
        <ele>407.600006103515625</ele>
        <time>2025-04-29T23:34:22.000Z</time>
        <extensions>
          <ns3:TrackPointExtension/>
        </extensions>
      </trkpt>
      <trkpt lat="50.38038094528019428253173828125" lon="6.04739494621753692626953125">
        <ele>408.600006103515625</ele>
        <time>2025-04-29T23:34:26.000Z</time>
        <extensions>
          <ns3:TrackPointExtension/>
        </extensions>
      </trkpt>
      <trkpt lat="50.38046694360673427581787109375" lon="6.04685791768133640289306640625">
        <ele>407.399993896484375</ele>
        <time>2025-04-29T23:34:30.000Z</time>
        <extensions>
          <ns3:TrackPointExtension/>
        </extensions>
      </trkpt>
      <trkpt lat="50.38058496080338954925537109375" lon="6.04573893360793590545654296875">
        <ele>410.600006103515625</ele>
        <time>2025-04-29T23:34:34.000Z</time>
        <extensions>
          <ns3:TrackPointExtension/>
        </extensions>
      </trkpt>
      <trkpt lat="50.38063894025981426239013671875" lon="6.0455299727618694305419921875">
        <ele>411.79998779296875</ele>
        <time>2025-04-29T23:34:38.000Z</time>
        <extensions>
          <ns3:TrackPointExtension/>
        </extensions>
      </trkpt>
      <trkpt lat="50.3811679221689701080322265625" lon="6.0438639856874942779541015625">
        <ele>418.600006103515625</ele>
        <time>2025-04-29T23:34:42.000Z</time>
        <extensions>
          <ns3:TrackPointExtension/>
        </extensions>
      </trkpt>
      <trkpt lat="50.38135793991386890411376953125" lon="6.04338495992124080657958984375">
        <ele>420</ele>
        <time>2025-04-29T23:34:46.000Z</time>
        <extensions>
          <ns3:TrackPointExtension/>
        </extensions>
      </trkpt>
      <trkpt lat="50.38184694014489650726318359375" lon="6.042500920593738555908203125">
        <ele>424.399993896484375</ele>
        <time>2025-04-29T23:34:50.000Z</time>
        <extensions>
          <ns3:TrackPointExtension/>
        </extensions>
      </trkpt>
      <trkpt lat="50.38193092681467533111572265625" lon="6.0422989167273044586181640625">
        <ele>425.399993896484375</ele>
        <time>2025-04-29T23:34:54.000Z</time>
        <extensions>
          <ns3:TrackPointExtension/>
        </extensions>
      </trkpt>
      <trkpt lat="50.382006950676441192626953125" lon="6.04203798808157444000244140625">
        <ele>426.600006103515625</ele>
        <time>2025-04-29T23:34:58.000Z</time>
        <extensions>
          <ns3:TrackPointExtension/>
        </extensions>
      </trkpt>
      <trkpt lat="50.38202195428311824798583984375" lon="6.0418479703366756439208984375">
        <ele>427</ele>
        <time>2025-04-29T23:35:02.000Z</time>
        <extensions>
          <ns3:TrackPointExtension/>
        </extensions>
      </trkpt>
      <trkpt lat="50.38200996816158294677734375" lon="6.0415649972856044769287109375">
        <ele>428</ele>
        <time>2025-04-29T23:35:06.000Z</time>
        <extensions>
          <ns3:TrackPointExtension/>
        </extensions>
      </trkpt>
      <trkpt lat="50.3813529945909976959228515625" lon="6.039398945868015289306640625">
        <ele>428</ele>
        <time>2025-04-29T23:35:10.000Z</time>
        <extensions>
          <ns3:TrackPointExtension/>
        </extensions>
      </trkpt>
      <trkpt lat="50.38123891688883304595947265625" lon="6.0389059223234653472900390625">
        <ele>428.20001220703125</ele>
        <time>2025-04-29T23:35:14.000Z</time>
        <extensions>
          <ns3:TrackPointExtension/>
        </extensions>
      </trkpt>
      <trkpt lat="50.380968935787677764892578125" lon="6.037560962140560150146484375">
        <ele>428.600006103515625</ele>
        <time>2025-04-29T23:35:18.000Z</time>
        <extensions>
          <ns3:TrackPointExtension/>
        </extensions>
      </trkpt>
      <trkpt lat="50.38062393665313720703125" lon="6.03547495789825916290283203125">
        <ele>428.20001220703125</ele>
        <time>2025-04-29T23:35:22.000Z</time>
        <extensions>
          <ns3:TrackPointExtension/>
        </extensions>
      </trkpt>
      <trkpt lat="50.38060893304646015167236328125" lon="6.0352599620819091796875">
        <ele>428</ele>
        <time>2025-04-29T23:35:26.000Z</time>
        <extensions>
          <ns3:TrackPointExtension/>
        </extensions>
      </trkpt>
      <trkpt lat="50.3812959976494312286376953125" lon="6.03499199263751506805419921875">
        <ele>427.79998779296875</ele>
        <time>2025-04-29T23:35:29.000Z</time>
        <extensions>
          <ns3:TrackPointExtension/>
        </extensions>
      </trkpt>
      <trkpt lat="50.3819839842617511749267578125" lon="6.034862995147705078125">
        <ele>428</ele>
        <time>2025-04-29T23:35:31.000Z</time>
        <extensions>
          <ns3:TrackPointExtension/>
        </extensions>
      </trkpt>
      <trkpt lat="50.3829039819538593292236328125" lon="6.03452495299279689788818359375">
        <ele>428.399993896484375</ele>
        <time>2025-04-29T23:35:34.000Z</time>
        <extensions>
          <ns3:TrackPointExtension/>
        </extensions>
      </trkpt>
      <trkpt lat="50.383796989917755126953125" lon="6.03426394052803516387939453125">
        <ele>428.600006103515625</ele>
        <time>2025-04-29T23:35:36.000Z</time>
        <extensions>
          <ns3:TrackPointExtension/>
        </extensions>
      </trkpt>
      <trkpt lat="50.38509794510900974273681640625" lon="6.03340496309101581573486328125">
        <ele>430.20001220703125</ele>
        <time>2025-04-29T23:35:39.000Z</time>
        <extensions>
          <ns3:TrackPointExtension/>
        </extensions>
      </trkpt>
      <trkpt lat="50.38553497754037380218505859375" lon="6.03305594064295291900634765625">
        <ele>432.399993896484375</ele>
        <time>2025-04-29T23:35:41.000Z</time>
        <extensions>
          <ns3:TrackPointExtension/>
        </extensions>
      </trkpt>
      <trkpt lat="50.385696999728679656982421875" lon="6.033009923994541168212890625">
        <ele>432.399993896484375</ele>
        <time>2025-04-29T23:35:44.000Z</time>
        <extensions>
          <ns3:TrackPointExtension/>
        </extensions>
      </trkpt>
      <trkpt lat="50.3861239738762378692626953125" lon="6.032964996993541717529296875">
        <ele>432.399993896484375</ele>
        <time>2025-04-29T23:35:47.000Z</time>
        <extensions>
          <ns3:TrackPointExtension/>
        </extensions>
      </trkpt>
      <trkpt lat="50.386496968567371368408203125" lon="6.0328719578683376312255859375">
        <ele>434.79998779296875</ele>
        <time>2025-04-29T23:35:49.000Z</time>
        <extensions>
          <ns3:TrackPointExtension/>
        </extensions>
      </trkpt>
      <trkpt lat="50.3866039216518402099609375" lon="6.03282392956316471099853515625">
        <ele>435.399993896484375</ele>
        <time>2025-04-29T23:35:52.000Z</time>
        <extensions>
          <ns3:TrackPointExtension/>
        </extensions>
      </trkpt>
      <trkpt lat="50.38768895901739597320556640625" lon="6.0321769304573535919189453125">
        <ele>438.600006103515625</ele>
        <time>2025-04-29T23:35:54.000Z</time>
        <extensions>
          <ns3:TrackPointExtension/>
        </extensions>
      </trkpt>
      <trkpt lat="50.388043932616710662841796875" lon="6.03205899707973003387451171875">
        <ele>441</ele>
        <time>2025-04-29T23:35:57.000Z</time>
        <extensions>
          <ns3:TrackPointExtension/>
        </extensions>
      </trkpt>
      <trkpt lat="50.38851893506944179534912109375" lon="6.03194299153983592987060546875">
        <ele>442.79998779296875</ele>
        <time>2025-04-29T23:35:59.000Z</time>
        <extensions>
          <ns3:TrackPointExtension/>
        </extensions>
      </trkpt>
      <trkpt lat="50.38915193639695644378662109375" lon="6.0316569171845912933349609375">
        <ele>440.399993896484375</ele>
        <time>2025-04-29T23:36:02.000Z</time>
        <extensions>
          <ns3:TrackPointExtension/>
        </extensions>
      </trkpt>
      <trkpt lat="50.38929794915020465850830078125" lon="6.03165096603333950042724609375">
        <ele>439.399993896484375</ele>
        <time>2025-04-29T23:36:04.000Z</time>
        <extensions>
          <ns3:TrackPointExtension/>
        </extensions>
      </trkpt>
      <trkpt lat="50.390174947679042816162109375" lon="6.031800918281078338623046875">
        <ele>434</ele>
        <time>2025-04-29T23:36:07.000Z</time>
        <extensions>
          <ns3:TrackPointExtension/>
        </extensions>
      </trkpt>
      <trkpt lat="50.3903269954025745391845703125" lon="6.031807959079742431640625">
        <ele>431.600006103515625</ele>
        <time>2025-04-29T23:36:09.000Z</time>
        <extensions>
          <ns3:TrackPointExtension/>
        </extensions>
      </trkpt>
      <trkpt lat="50.39079395122826099395751953125" lon="6.03173294104635715484619140625">
        <ele>421.79998779296875</ele>
        <time>2025-04-29T23:36:12.000Z</time>
        <extensions>
          <ns3:TrackPointExtension/>
        </extensions>
      </trkpt>
      <trkpt lat="50.3909289836883544921875" lon="6.031751967966556549072265625">
        <ele>420</ele>
        <time>2025-04-29T23:36:14.000Z</time>
        <extensions>
          <ns3:TrackPointExtension/>
        </extensions>
      </trkpt>
      <trkpt lat="50.3910729847848415374755859375" lon="6.03178792633116245269775390625">
        <ele>418</ele>
        <time>2025-04-29T23:36:17.000Z</time>
        <extensions>
          <ns3:TrackPointExtension/>
        </extensions>
      </trkpt>
      <trkpt lat="50.39133793674409389495849609375" lon="6.03196595795452594757080078125">
        <ele>417.20001220703125</ele>
        <time>2025-04-29T23:36:19.000Z</time>
        <extensions>
          <ns3:TrackPointExtension/>
        </extensions>
      </trkpt>
      <trkpt lat="50.3914199955761432647705078125" lon="6.0319479368627071380615234375">
        <ele>416.20001220703125</ele>
        <time>2025-04-29T23:36:22.000Z</time>
        <extensions>
          <ns3:TrackPointExtension/>
        </extensions>
      </trkpt>
      <trkpt lat="50.39194495417177677154541015625" lon="6.0321839712560176849365234375">
        <ele>411</ele>
        <time>2025-04-29T23:36:24.000Z</time>
        <extensions>
          <ns3:TrackPointExtension/>
        </extensions>
      </trkpt>
      <trkpt lat="50.39209499023854732513427734375" lon="6.0321879945695400238037109375">
        <ele>409.399993896484375</ele>
        <time>2025-04-29T23:36:27.000Z</time>
        <extensions>
          <ns3:TrackPointExtension/>
        </extensions>
      </trkpt>
      <trkpt lat="50.392240919172763824462890625" lon="6.0321259684860706329345703125">
        <ele>408</ele>
        <time>2025-04-29T23:36:30.000Z</time>
        <extensions>
          <ns3:TrackPointExtension/>
        </extensions>
      </trkpt>
      <trkpt lat="50.392299927771091461181640625" lon="6.03204893879592418670654296875">
        <ele>407.399993896484375</ele>
        <time>2025-04-29T23:36:32.000Z</time>
        <extensions>
          <ns3:TrackPointExtension/>
        </extensions>
      </trkpt>
      <trkpt lat="50.39236195385456085205078125" lon="6.03193595074117183685302734375">
        <ele>406.79998779296875</ele>
        <time>2025-04-29T23:36:35.000Z</time>
        <extensions>
          <ns3:TrackPointExtension/>
        </extensions>
      </trkpt>
      <trkpt lat="50.392480976879596710205078125" lon="6.031572930514812469482421875">
        <ele>404.20001220703125</ele>
        <time>2025-04-29T23:36:37.000Z</time>
        <extensions>
          <ns3:TrackPointExtension/>
        </extensions>
      </trkpt>
      <trkpt lat="50.39268993772566318511962890625" lon="6.0304499231278896331787109375">
        <ele>396.20001220703125</ele>
        <time>2025-04-29T23:36:40.000Z</time>
        <extensions>
          <ns3:TrackPointExtension/>
        </extensions>
      </trkpt>
      <trkpt lat="50.3926849924027919769287109375" lon="6.0299989767372608184814453125">
        <ele>395</ele>
        <time>2025-04-29T23:36:42.000Z</time>
        <extensions>
          <ns3:TrackPointExtension/>
        </extensions>
      </trkpt>
      <trkpt lat="50.39255197159945964813232421875" lon="6.0293599404394626617431640625">
        <ele>393.79998779296875</ele>
        <time>2025-04-29T23:36:45.000Z</time>
        <extensions>
          <ns3:TrackPointExtension/>
        </extensions>
      </trkpt>
      <trkpt lat="50.39248491637408733367919921875" lon="6.0287569463253021240234375">
        <ele>390.79998779296875</ele>
        <time>2025-04-29T23:36:47.000Z</time>
        <extensions>
          <ns3:TrackPointExtension/>
        </extensions>
      </trkpt>
      <trkpt lat="50.3925369679927825927734375" lon="6.02767794393002986907958984375">
        <ele>384.399993896484375</ele>
        <time>2025-04-29T23:36:50.000Z</time>
        <extensions>
          <ns3:TrackPointExtension/>
        </extensions>
      </trkpt>
      <trkpt lat="50.392470918595790863037109375" lon="6.026406995952129364013671875">
        <ele>380.600006103515625</ele>
        <time>2025-04-29T23:36:52.000Z</time>
        <extensions>
          <ns3:TrackPointExtension/>
        </extensions>
      </trkpt>
      <trkpt lat="50.392476953566074371337890625" lon="6.02589393965899944305419921875">
        <ele>377.399993896484375</ele>
        <time>2025-04-29T23:36:55.000Z</time>
        <extensions>
          <ns3:TrackPointExtension/>
        </extensions>
      </trkpt>
      <trkpt lat="50.39254392497241497039794921875" lon="6.02486598305404186248779296875">
        <ele>369</ele>
        <time>2025-04-29T23:36:57.000Z</time>
        <extensions>
          <ns3:TrackPointExtension/>
        </extensions>
      </trkpt>
      <trkpt lat="50.3926209546625614166259765625" lon="6.02419895119965076446533203125">
        <ele>367.79998779296875</ele>
        <time>2025-04-29T23:37:00.000Z</time>
        <extensions>
          <ns3:TrackPointExtension/>
        </extensions>
      </trkpt>
      <trkpt lat="50.39265699684619903564453125" lon="6.02388295345008373260498046875">
        <ele>366.79998779296875</ele>
        <time>2025-04-29T23:37:02.000Z</time>
        <extensions>
          <ns3:TrackPointExtension/>
        </extensions>
      </trkpt>
      <trkpt lat="50.3926249779760837554931640625" lon="6.02319697849452495574951171875">
        <ele>363.399993896484375</ele>
        <time>2025-04-29T23:37:05.000Z</time>
        <extensions>
          <ns3:TrackPointExtension/>
        </extensions>
      </trkpt>
      <trkpt lat="50.39248592220246791839599609375" lon="6.02252692915499210357666015625">
        <ele>359.399993896484375</ele>
        <time>2025-04-29T23:37:08.000Z</time>
        <extensions>
          <ns3:TrackPointExtension/>
        </extensions>
      </trkpt>
      <trkpt lat="50.39229892194271087646484375" lon="6.0221209935843944549560546875">
        <ele>357.20001220703125</ele>
        <time>2025-04-29T23:37:10.000Z</time>
        <extensions>
          <ns3:TrackPointExtension/>
        </extensions>
      </trkpt>
      <trkpt lat="50.39177798666059970855712890625" lon="6.0214239545166492462158203125">
        <ele>353.399993896484375</ele>
        <time>2025-04-29T23:37:13.000Z</time>
        <extensions>
          <ns3:TrackPointExtension/>
        </extensions>
      </trkpt>
      <trkpt lat="50.39160599000751972198486328125" lon="6.02117291651666164398193359375">
        <ele>351.399993896484375</ele>
        <time>2025-04-29T23:37:15.000Z</time>
        <extensions>
          <ns3:TrackPointExtension/>
        </extensions>
      </trkpt>
      <trkpt lat="50.39142695255577564239501953125" lon="6.02086999453604221343994140625">
        <ele>349.399993896484375</ele>
        <time>2025-04-29T23:37:18.000Z</time>
        <extensions>
          <ns3:TrackPointExtension/>
        </extensions>
      </trkpt>
      <trkpt lat="50.39122897200286388397216796875" lon="6.02046498097479343414306640625">
        <ele>347.20001220703125</ele>
        <time>2025-04-29T23:37:20.000Z</time>
        <extensions>
          <ns3:TrackPointExtension/>
        </extensions>
      </trkpt>
      <trkpt lat="50.3910939395427703857421875" lon="6.02013892494142055511474609375">
        <ele>345</ele>
        <time>2025-04-29T23:37:23.000Z</time>
        <extensions>
          <ns3:TrackPointExtension/>
        </extensions>
      </trkpt>
      <trkpt lat="50.3910049237310886383056640625" lon="6.01983793079853057861328125">
        <ele>343</ele>
        <time>2025-04-29T23:37:25.000Z</time>
        <extensions>
          <ns3:TrackPointExtension/>
        </extensions>
      </trkpt>
      <trkpt lat="50.391218997538089752197265625" lon="6.01959695108234882354736328125">
        <ele>341.600006103515625</ele>
        <time>2025-04-29T23:37:28.000Z</time>
        <extensions>
          <ns3:TrackPointExtension/>
        </extensions>
      </trkpt>
      <trkpt lat="50.39132595062255859375" lon="6.0193469189107418060302734375">
        <ele>340.79998779296875</ele>
        <time>2025-04-29T23:37:31.000Z</time>
        <extensions>
          <ns3:TrackPointExtension/>
        </extensions>
      </trkpt>
      <trkpt lat="50.391377918422222137451171875" lon="6.01903595030307769775390625">
        <ele>339.20001220703125</ele>
        <time>2025-04-29T23:37:34.000Z</time>
        <extensions>
          <ns3:TrackPointExtension/>
        </extensions>
      </trkpt>
      <trkpt lat="50.3914189897477626800537109375" lon="6.01865499280393123626708984375">
        <ele>339</ele>
        <time>2025-04-29T23:37:37.000Z</time>
        <extensions>
          <ns3:TrackPointExtension/>
        </extensions>
      </trkpt>
      <trkpt lat="50.39143793284893035888671875" lon="6.01807194761931896209716796875">
        <ele>340.79998779296875</ele>
        <time>2025-04-29T23:37:40.000Z</time>
        <extensions>
          <ns3:TrackPointExtension/>
        </extensions>
      </trkpt>
      <trkpt lat="50.3914179839193820953369140625" lon="6.01746895350515842437744140625">
        <ele>342</ele>
        <time>2025-04-29T23:37:43.000Z</time>
        <extensions>
          <ns3:TrackPointExtension/>
        </extensions>
      </trkpt>
      <trkpt lat="50.3913589753210544586181640625" lon="6.01684198714792728424072265625">
        <ele>342.79998779296875</ele>
        <time>2025-04-29T23:37:46.000Z</time>
        <extensions>
          <ns3:TrackPointExtension/>
        </extensions>
      </trkpt>
      <trkpt lat="50.39128596894443035125732421875" lon="6.01632096804678440093994140625">
        <ele>345.399993896484375</ele>
        <time>2025-04-29T23:37:49.000Z</time>
        <extensions>
          <ns3:TrackPointExtension/>
        </extensions>
      </trkpt>
      <trkpt lat="50.39116392843425273895263671875" lon="6.01574295200407505035400390625">
        <ele>346.20001220703125</ele>
        <time>2025-04-29T23:37:52.000Z</time>
        <extensions>
          <ns3:TrackPointExtension/>
        </extensions>
      </trkpt>
      <trkpt lat="50.39102596230804920196533203125" lon="6.01529292762279510498046875">
        <ele>345.79998779296875</ele>
        <time>2025-04-29T23:37:55.000Z</time>
        <extensions>
          <ns3:TrackPointExtension/>
        </extensions>
      </trkpt>
      <trkpt lat="50.39093191735446453094482421875" lon="6.01491498760879039764404296875">
        <ele>346.600006103515625</ele>
        <time>2025-04-29T23:37:58.000Z</time>
        <extensions>
          <ns3:TrackPointExtension/>
        </extensions>
      </trkpt>
      <trkpt lat="50.39079294539988040924072265625" lon="6.0141819901764392852783203125">
        <ele>347.399993896484375</ele>
        <time>2025-04-29T23:38:01.000Z</time>
        <extensions>
          <ns3:TrackPointExtension/>
        </extensions>
      </trkpt>
      <trkpt lat="50.39079898037016391754150390625" lon="6.0140069760382175445556640625">
        <ele>348</ele>
        <time>2025-04-29T23:38:04.000Z</time>
        <extensions>
          <ns3:TrackPointExtension/>
        </extensions>
      </trkpt>
      <trkpt lat="50.39090693928301334381103515625" lon="6.013976968824863433837890625">
        <ele>349.399993896484375</ele>
        <time>2025-04-29T23:38:08.000Z</time>
        <extensions>
          <ns3:TrackPointExtension/>
        </extensions>
      </trkpt>
      <trkpt lat="50.39102696813642978668212890625" lon="6.01387194357812404632568359375">
        <ele>351.20001220703125</ele>
        <time>2025-04-29T23:38:12.000Z</time>
        <extensions>
          <ns3:TrackPointExtension/>
        </extensions>
      </trkpt>
      <trkpt lat="50.39128697477281093597412109375" lon="6.01343994028866291046142578125">
        <ele>353.20001220703125</ele>
        <time>2025-04-29T23:38:16.000Z</time>
        <extensions>
          <ns3:TrackPointExtension/>
        </extensions>
      </trkpt>
      <trkpt lat="50.39169299416244029998779296875" lon="6.0130329988896846771240234375">
        <ele>357.20001220703125</ele>
        <time>2025-04-29T23:38:21.000Z</time>
        <extensions>
          <ns3:TrackPointExtension/>
        </extensions>
      </trkpt>
      <trkpt lat="50.39176994003355503082275390625" lon="6.01292294450104236602783203125">
        <ele>357</ele>
        <time>2025-04-29T23:38:25.000Z</time>
        <extensions>
          <ns3:TrackPointExtension/>
        </extensions>
      </trkpt>
      <trkpt lat="50.3918449580669403076171875" lon="6.01275899447500705718994140625">
        <ele>357.20001220703125</ele>
        <time>2025-04-29T23:38:29.000Z</time>
        <extensions>
          <ns3:TrackPointExtension/>
        </extensions>
      </trkpt>
      <trkpt lat="50.392079986631870269775390625" lon="6.01206497289240360260009765625">
        <ele>359</ele>
        <time>2025-04-29T23:38:33.000Z</time>
        <extensions>
          <ns3:TrackPointExtension/>
        </extensions>
      </trkpt>
      <trkpt lat="50.39222893305122852325439453125" lon="6.01185995154082775115966796875">
        <ele>360.79998779296875</ele>
        <time>2025-04-29T23:38:37.000Z</time>
        <extensions>
          <ns3:TrackPointExtension/>
        </extensions>
      </trkpt>
      <trkpt lat="50.3931919299066066741943359375" lon="6.01101991720497608184814453125">
        <ele>374</ele>
        <time>2025-04-29T23:38:41.000Z</time>
        <extensions>
          <ns3:TrackPointExtension/>
        </extensions>
      </trkpt>
      <trkpt lat="50.3936049900949001312255859375" lon="6.01053091697394847869873046875">
        <ele>380.399993896484375</ele>
        <time>2025-04-29T23:38:46.000Z</time>
        <extensions>
          <ns3:TrackPointExtension/>
        </extensions>
      </trkpt>
      <trkpt lat="50.39384496398270130157470703125" lon="6.01016999222338199615478515625">
        <ele>382</ele>
        <time>2025-04-29T23:38:50.000Z</time>
        <extensions>
          <ns3:TrackPointExtension/>
        </extensions>
      </trkpt>
      <trkpt lat="50.3948409855365753173828125" lon="6.00783395580947399139404296875">
        <ele>394.20001220703125</ele>
        <time>2025-04-29T23:38:54.000Z</time>
        <extensions>
          <ns3:TrackPointExtension/>
        </extensions>
      </trkpt>
      <trkpt lat="50.39494098164141178131103515625" lon="6.007479988038539886474609375">
        <ele>395.600006103515625</ele>
        <time>2025-04-29T23:38:58.000Z</time>
        <extensions>
          <ns3:TrackPointExtension/>
        </extensions>
      </trkpt>
      <trkpt lat="50.395126976072788238525390625" lon="6.00536297075450420379638671875">
        <ele>403.399993896484375</ele>
        <time>2025-04-29T23:39:02.000Z</time>
        <extensions>
          <ns3:TrackPointExtension/>
        </extensions>
      </trkpt>
      <trkpt lat="50.395238958299160003662109375" lon="6.00475997664034366607666015625">
        <ele>407.20001220703125</ele>
        <time>2025-04-29T23:39:06.000Z</time>
        <extensions>
          <ns3:TrackPointExtension/>
        </extensions>
      </trkpt>
      <trkpt lat="50.39533694274723529815673828125" lon="6.00455394946038722991943359375">
        <ele>409</ele>
        <time>2025-04-29T23:39:11.000Z</time>
        <extensions>
          <ns3:TrackPointExtension/>
        </extensions>
      </trkpt>
      <trkpt lat="50.39548396132886409759521484375" lon="6.0043729841709136962890625">
        <ele>410.600006103515625</ele>
        <time>2025-04-29T23:39:15.000Z</time>
        <extensions>
          <ns3:TrackPointExtension/>
        </extensions>
      </trkpt>
      <trkpt lat="50.39565998129546642303466796875" lon="6.00424499250948429107666015625">
        <ele>412.399993896484375</ele>
        <time>2025-04-29T23:39:19.000Z</time>
        <extensions>
          <ns3:TrackPointExtension/>
        </extensions>
      </trkpt>
      <trkpt lat="50.39594295434653759002685546875" lon="6.0041669569909572601318359375">
        <ele>415</ele>
        <time>2025-04-29T23:39:23.000Z</time>
        <extensions>
          <ns3:TrackPointExtension/>
        </extensions>
      </trkpt>
      <trkpt lat="50.39643497206270694732666015625" lon="6.00409998558461666107177734375">
        <ele>419.79998779296875</ele>
        <time>2025-04-29T23:39:27.000Z</time>
        <extensions>
          <ns3:TrackPointExtension/>
        </extensions>
      </trkpt>
      <trkpt lat="50.39714994840323925018310546875" lon="6.0039949603378772735595703125">
        <ele>424.600006103515625</ele>
        <time>2025-04-29T23:39:32.000Z</time>
        <extensions>
          <ns3:TrackPointExtension/>
        </extensions>
      </trkpt>
      <trkpt lat="50.39732093922793865203857421875" lon="6.00394492037594318389892578125">
        <ele>424.600006103515625</ele>
        <time>2025-04-29T23:39:36.000Z</time>
        <extensions>
          <ns3:TrackPointExtension/>
        </extensions>
      </trkpt>
      <trkpt lat="50.39833397604525089263916015625" lon="6.00349296815693378448486328125">
        <ele>422.79998779296875</ele>
        <time>2025-04-29T23:39:40.000Z</time>
        <extensions>
          <ns3:TrackPointExtension/>
        </extensions>
      </trkpt>
      <trkpt lat="50.39862692356109619140625" lon="6.00340998731553554534912109375">
        <ele>420.20001220703125</ele>
        <time>2025-04-29T23:39:44.000Z</time>
        <extensions>
          <ns3:TrackPointExtension/>
        </extensions>
      </trkpt>
      <trkpt lat="50.39896194823086261749267578125" lon="6.0033639706671237945556640625">
        <ele>417.79998779296875</ele>
        <time>2025-04-29T23:39:48.000Z</time>
        <extensions>
          <ns3:TrackPointExtension/>
        </extensions>
      </trkpt>
      <trkpt lat="50.40112196467816829681396484375" lon="6.00354694761335849761962890625">
        <ele>403.20001220703125</ele>
        <time>2025-04-29T23:39:52.000Z</time>
        <extensions>
          <ns3:TrackPointExtension/>
        </extensions>
      </trkpt>
      <trkpt lat="50.4023429565131664276123046875" lon="6.003626994788646697998046875">
        <ele>399.600006103515625</ele>
        <time>2025-04-29T23:39:57.000Z</time>
        <extensions>
          <ns3:TrackPointExtension/>
        </extensions>
      </trkpt>
      <trkpt lat="50.40267194621264934539794921875" lon="6.00363797508180141448974609375">
        <ele>398.79998779296875</ele>
        <time>2025-04-29T23:40:01.000Z</time>
        <extensions>
          <ns3:TrackPointExtension/>
        </extensions>
      </trkpt>
      <trkpt lat="50.40310596115887165069580078125" lon="6.0034739412367343902587890625">
        <ele>398.600006103515625</ele>
        <time>2025-04-29T23:40:05.000Z</time>
        <extensions>
          <ns3:TrackPointExtension/>
        </extensions>
      </trkpt>
      <trkpt lat="50.40367995388805866241455078125" lon="6.00302391685545444488525390625">
        <ele>399.399993896484375</ele>
        <time>2025-04-29T23:40:09.000Z</time>
        <extensions>
          <ns3:TrackPointExtension/>
        </extensions>
      </trkpt>
      <trkpt lat="50.4041889868676662445068359375" lon="6.00275695323944091796875">
        <ele>398.399993896484375</ele>
        <time>2025-04-29T23:40:13.000Z</time>
        <extensions>
          <ns3:TrackPointExtension/>
        </extensions>
      </trkpt>
      <trkpt lat="50.40462794713675975799560546875" lon="6.00258596241474151611328125">
        <ele>397.20001220703125</ele>
        <time>2025-04-29T23:40:17.000Z</time>
        <extensions>
          <ns3:TrackPointExtension/>
        </extensions>
      </trkpt>
      <trkpt lat="50.40566897951066493988037109375" lon="6.0024739801883697509765625">
        <ele>400.20001220703125</ele>
        <time>2025-04-29T23:40:22.000Z</time>
        <extensions>
          <ns3:TrackPointExtension/>
        </extensions>
      </trkpt>
      <trkpt lat="50.40591691620647907257080078125" lon="6.0024359263479709625244140625">
        <ele>399.600006103515625</ele>
        <time>2025-04-29T23:40:26.000Z</time>
        <extensions>
          <ns3:TrackPointExtension/>
        </extensions>
      </trkpt>
      <trkpt lat="50.40609394200146198272705078125" lon="6.0023839585483074188232421875">
        <ele>398.399993896484375</ele>
        <time>2025-04-29T23:40:30.000Z</time>
        <extensions>
          <ns3:TrackPointExtension/>
        </extensions>
      </trkpt>
      <trkpt lat="50.40713598020374774932861328125" lon="6.0017859935760498046875">
        <ele>393</ele>
        <time>2025-04-29T23:40:34.000Z</time>
        <extensions>
          <ns3:TrackPointExtension/>
        </extensions>
      </trkpt>
      <trkpt lat="50.40718593634665012359619140625" lon="6.00173193030059337615966796875">
        <ele>392.399993896484375</ele>
        <time>2025-04-29T23:40:38.000Z</time>
        <extensions>
          <ns3:TrackPointExtension/>
        </extensions>
      </trkpt>
      <trkpt lat="50.40748693048954010009765625" lon="6.001440994441509246826171875">
        <ele>390.79998779296875</ele>
        <time>2025-04-29T23:40:42.000Z</time>
        <extensions>
          <ns3:TrackPointExtension/>
        </extensions>
      </trkpt>
      <trkpt lat="50.4076109826564788818359375" lon="6.00136597640812397003173828125">
        <ele>391.399993896484375</ele>
        <time>2025-04-29T23:40:47.000Z</time>
        <extensions>
          <ns3:TrackPointExtension/>
        </extensions>
      </trkpt>
      <trkpt lat="50.40776395238935947418212890625" lon="6.00132691673934459686279296875">
        <ele>391.600006103515625</ele>
        <time>2025-04-29T23:40:51.000Z</time>
        <extensions>
          <ns3:TrackPointExtension/>
        </extensions>
      </trkpt>
      <trkpt lat="50.4081509448587894439697265625" lon="6.00133697502315044403076171875">
        <ele>390</ele>
        <time>2025-04-29T23:40:55.000Z</time>
        <extensions>
          <ns3:TrackPointExtension/>
        </extensions>
      </trkpt>
      <trkpt lat="50.40880599059164524078369140625" lon="6.00149991922080516815185546875">
        <ele>382.79998779296875</ele>
        <time>2025-04-29T23:40:59.000Z</time>
        <extensions>
          <ns3:TrackPointExtension/>
        </extensions>
      </trkpt>
      <trkpt lat="50.40900698862969875335693359375" lon="6.0015799663960933685302734375">
        <ele>380.79998779296875</ele>
        <time>2025-04-29T23:41:03.000Z</time>
        <extensions>
          <ns3:TrackPointExtension/>
        </extensions>
      </trkpt>
      <trkpt lat="50.4091909714043140411376953125" lon="6.00170393474400043487548828125">
        <ele>379.399993896484375</ele>
        <time>2025-04-29T23:41:07.000Z</time>
        <extensions>
          <ns3:TrackPointExtension/>
        </extensions>
      </trkpt>
      <trkpt lat="50.4095859266817569732666015625" lon="6.00216795690357685089111328125">
        <ele>374.600006103515625</ele>
        <time>2025-04-29T23:41:12.000Z</time>
        <extensions>
          <ns3:TrackPointExtension/>
        </extensions>
      </trkpt>
      <trkpt lat="50.4101029224693775177001953125" lon="6.0028509981930255889892578125">
        <ele>374.20001220703125</ele>
        <time>2025-04-29T23:41:16.000Z</time>
        <extensions>
          <ns3:TrackPointExtension/>
        </extensions>
      </trkpt>
      <trkpt lat="50.41058798320591449737548828125" lon="6.00326992571353912353515625">
        <ele>370.399993896484375</ele>
        <time>2025-04-29T23:41:20.000Z</time>
        <extensions>
          <ns3:TrackPointExtension/>
        </extensions>
      </trkpt>
      <trkpt lat="50.41075495071709156036376953125" lon="6.00345592014491558074951171875">
        <ele>371</ele>
        <time>2025-04-29T23:41:24.000Z</time>
        <extensions>
          <ns3:TrackPointExtension/>
        </extensions>
      </trkpt>
      <trkpt lat="50.4114299453794956207275390625" lon="6.00432696752250194549560546875">
        <ele>370.399993896484375</ele>
        <time>2025-04-29T23:41:28.000Z</time>
        <extensions>
          <ns3:TrackPointExtension/>
        </extensions>
      </trkpt>
      <trkpt lat="50.4123459197580814361572265625" lon="6.0056029446423053741455078125">
        <ele>362.79998779296875</ele>
        <time>2025-04-29T23:41:33.000Z</time>
        <extensions>
          <ns3:TrackPointExtension/>
        </extensions>
      </trkpt>
      <trkpt lat="50.4125209338963031768798828125" lon="6.0057819820940494537353515625">
        <ele>360.600006103515625</ele>
        <time>2025-04-29T23:41:37.000Z</time>
        <extensions>
          <ns3:TrackPointExtension/>
        </extensions>
      </trkpt>
      <trkpt lat="50.4128139652311801910400390625" lon="6.0060019232332706451416015625">
        <ele>357.79998779296875</ele>
        <time>2025-04-29T23:41:41.000Z</time>
        <extensions>
          <ns3:TrackPointExtension/>
        </extensions>
      </trkpt>
      <trkpt lat="50.41297799907624721527099609375" lon="6.00616796873509883880615234375">
        <ele>357.79998779296875</ele>
        <time>2025-04-29T23:41:45.000Z</time>
        <extensions>
          <ns3:TrackPointExtension/>
        </extensions>
      </trkpt>
      <trkpt lat="50.4130939207971096038818359375" lon="6.00665998645126819610595703125">
        <ele>358.399993896484375</ele>
        <time>2025-04-29T23:41:49.000Z</time>
        <extensions>
          <ns3:TrackPointExtension/>
        </extensions>
      </trkpt>
      <trkpt lat="50.413131974637508392333984375" lon="6.00672192871570587158203125">
        <ele>357.79998779296875</ele>
        <time>2025-04-29T23:41:53.000Z</time>
        <extensions>
          <ns3:TrackPointExtension/>
        </extensions>
      </trkpt>
      <trkpt lat="50.41320397518575191497802734375" lon="6.00674497894942760467529296875">
        <ele>356.600006103515625</ele>
        <time>2025-04-29T23:41:58.000Z</time>
        <extensions>
          <ns3:TrackPointExtension/>
        </extensions>
      </trkpt>
      <trkpt lat="50.41328997351229190826416015625" lon="6.00671597756445407867431640625">
        <ele>355.20001220703125</ele>
        <time>2025-04-29T23:42:02.000Z</time>
        <extensions>
          <ns3:TrackPointExtension/>
        </extensions>
      </trkpt>
      <trkpt lat="50.41334294714033603668212890625" lon="6.00662293843924999237060546875">
        <ele>354.20001220703125</ele>
        <time>2025-04-29T23:42:06.000Z</time>
        <extensions>
          <ns3:TrackPointExtension/>
        </extensions>
      </trkpt>
      <trkpt lat="50.413363985717296600341796875" lon="6.00616092793643474578857421875">
        <ele>352.20001220703125</ele>
        <time>2025-04-29T23:42:10.000Z</time>
        <extensions>
          <ns3:TrackPointExtension/>
        </extensions>
      </trkpt>
      <trkpt lat="50.41342492215335369110107421875" lon="6.006036959588527679443359375">
        <ele>350.399993896484375</ele>
        <time>2025-04-29T23:42:14.000Z</time>
        <extensions>
          <ns3:TrackPointExtension/>
        </extensions>
      </trkpt>
      <trkpt lat="50.4135079868137836456298828125" lon="6.00598792545497417449951171875">
        <ele>349.20001220703125</ele>
        <time>2025-04-29T23:42:18.000Z</time>
        <extensions>
          <ns3:TrackPointExtension/>
        </extensions>
      </trkpt>
      <trkpt lat="50.41359792463481426239013671875" lon="6.006038971245288848876953125">
        <ele>347.79998779296875</ele>
        <time>2025-04-29T23:42:23.000Z</time>
        <extensions>
          <ns3:TrackPointExtension/>
        </extensions>
      </trkpt>
      <trkpt lat="50.413708984851837158203125" lon="6.00622597150504589080810546875">
        <ele>346.600006103515625</ele>
        <time>2025-04-29T23:42:27.000Z</time>
        <extensions>
          <ns3:TrackPointExtension/>
        </extensions>
      </trkpt>
      <trkpt lat="50.413937978446483612060546875" lon="6.00685394369065761566162109375">
        <ele>341.79998779296875</ele>
        <time>2025-04-29T23:42:31.000Z</time>
        <extensions>
          <ns3:TrackPointExtension/>
        </extensions>
      </trkpt>
      <trkpt lat="50.4140749387443065643310546875" lon="6.00718192756175994873046875">
        <ele>338.399993896484375</ele>
        <time>2025-04-29T23:42:35.000Z</time>
        <extensions>
          <ns3:TrackPointExtension/>
        </extensions>
      </trkpt>
      <trkpt lat="50.4141099750995635986328125" lon="6.00732198916375637054443359375">
        <ele>337.600006103515625</ele>
        <time>2025-04-29T23:42:39.000Z</time>
        <extensions>
          <ns3:TrackPointExtension/>
        </extensions>
      </trkpt>
      <trkpt lat="50.41406999342143535614013671875" lon="6.00768693722784519195556640625">
        <ele>336.399993896484375</ele>
        <time>2025-04-29T23:42:43.000Z</time>
        <extensions>
          <ns3:TrackPointExtension/>
        </extensions>
      </trkpt>
      <trkpt lat="50.4140759445726871490478515625" lon="6.0077909566462039947509765625">
        <ele>336</ele>
        <time>2025-04-29T23:42:48.000Z</time>
        <extensions>
          <ns3:TrackPointExtension/>
        </extensions>
      </trkpt>
      <trkpt lat="50.41412699036300182342529296875" lon="6.00794794969260692596435546875">
        <ele>335.20001220703125</ele>
        <time>2025-04-29T23:42:52.000Z</time>
        <extensions>
          <ns3:TrackPointExtension/>
        </extensions>
      </trkpt>
      <trkpt lat="50.41426596231758594512939453125" lon="6.00811491720378398895263671875">
        <ele>334.20001220703125</ele>
        <time>2025-04-29T23:42:56.000Z</time>
        <extensions>
          <ns3:TrackPointExtension/>
        </extensions>
      </trkpt>
      <trkpt lat="50.41453099809587001800537109375" lon="6.00801299326121807098388671875">
        <ele>332.20001220703125</ele>
        <time>2025-04-29T23:43:02.000Z</time>
        <extensions>
          <ns3:TrackPointExtension/>
        </extensions>
      </trkpt>
      <trkpt lat="50.41478698141872882843017578125" lon="6.0078499652445316314697265625">
        <ele>329.399993896484375</ele>
        <time>2025-04-29T23:43:08.000Z</time>
        <extensions>
          <ns3:TrackPointExtension/>
        </extensions>
      </trkpt>
      <trkpt lat="50.41487599723041057586669921875" lon="6.007758937776088714599609375">
        <ele>328</ele>
        <time>2025-04-29T23:43:13.000Z</time>
        <extensions>
          <ns3:TrackPointExtension/>
        </extensions>
      </trkpt>
      <trkpt lat="50.41585399769246578216552734375" lon="6.0064719803631305694580078125">
        <ele>320.600006103515625</ele>
        <time>2025-04-29T23:43:19.000Z</time>
        <extensions>
          <ns3:TrackPointExtension/>
        </extensions>
      </trkpt>
      <trkpt lat="50.41803899221122264862060546875" lon="6.00458999164402484893798828125">
        <ele>319</ele>
        <time>2025-04-29T23:43:25.000Z</time>
        <extensions>
          <ns3:TrackPointExtension/>
        </extensions>
      </trkpt>
      <trkpt lat="50.41842992417514324188232421875" lon="6.0042199306190013885498046875">
        <ele>319.399993896484375</ele>
        <time>2025-04-29T23:43:31.000Z</time>
        <extensions>
          <ns3:TrackPointExtension/>
        </extensions>
      </trkpt>
      <trkpt lat="50.4180179536342620849609375" lon="6.00308191962540149688720703125">
        <ele>320</ele>
        <time>2025-04-29T23:43:33.000Z</time>
        <extensions>
          <ns3:TrackPointExtension/>
        </extensions>
      </trkpt>
      <trkpt lat="50.41743792593479156494140625" lon="6.0013999231159687042236328125">
        <ele>319.20001220703125</ele>
        <time>2025-04-29T23:43:35.000Z</time>
        <extensions>
          <ns3:TrackPointExtension/>
        </extensions>
      </trkpt>
      <trkpt lat="50.41737196035683155059814453125" lon="6.00110798142850399017333984375">
        <ele>319.79998779296875</ele>
        <time>2025-04-29T23:43:38.000Z</time>
        <extensions>
          <ns3:TrackPointExtension/>
        </extensions>
      </trkpt>
      <trkpt lat="50.41734698228538036346435546875" lon="6.00078494288027286529541015625">
        <ele>320.79998779296875</ele>
        <time>2025-04-29T23:43:40.000Z</time>
        <extensions>
          <ns3:TrackPointExtension/>
        </extensions>
      </trkpt>
      <trkpt lat="50.41739995591342449188232421875" lon="5.99963192827999591827392578125">
        <ele>319</ele>
        <time>2025-04-29T23:43:43.000Z</time>
        <extensions>
          <ns3:TrackPointExtension/>
        </extensions>
      </trkpt>
      <trkpt lat="50.4174179770052433013916015625" lon="5.99924795329570770263671875">
        <ele>319.79998779296875</ele>
        <time>2025-04-29T23:43:45.000Z</time>
        <extensions>
          <ns3:TrackPointExtension/>
        </extensions>
      </trkpt>
      <trkpt lat="50.41739392094314098358154296875" lon="5.99900093860924243927001953125">
        <ele>322</ele>
        <time>2025-04-29T23:43:47.000Z</time>
        <extensions>
          <ns3:TrackPointExtension/>
        </extensions>
      </trkpt>
      <trkpt lat="50.41729199700057506561279296875" lon="5.99862492643296718597412109375">
        <ele>323.600006103515625</ele>
        <time>2025-04-29T23:43:50.000Z</time>
        <extensions>
          <ns3:TrackPointExtension/>
        </extensions>
      </trkpt>
      <trkpt lat="50.4172079265117645263671875" lon="5.9984699450433254241943359375">
        <ele>324.20001220703125</ele>
        <time>2025-04-29T23:43:52.000Z</time>
        <extensions>
          <ns3:TrackPointExtension/>
        </extensions>
      </trkpt>
      <trkpt lat="50.41703693568706512451171875" lon="5.99823298864066600799560546875">
        <ele>325.20001220703125</ele>
        <time>2025-04-29T23:43:55.000Z</time>
        <extensions>
          <ns3:TrackPointExtension/>
        </extensions>
      </trkpt>
      <trkpt lat="50.41647995822131633758544921875" lon="5.99762194789946079254150390625">
        <ele>326.20001220703125</ele>
        <time>2025-04-29T23:43:57.000Z</time>
        <extensions>
          <ns3:TrackPointExtension/>
        </extensions>
      </trkpt>
      <trkpt lat="50.41627292521297931671142578125" lon="5.99734299816191196441650390625">
        <ele>325</ele>
        <time>2025-04-29T23:43:59.000Z</time>
        <extensions>
          <ns3:TrackPointExtension/>
        </extensions>
      </trkpt>
      <trkpt lat="50.41610394604504108428955078125" lon="5.9969759546220302581787109375">
        <ele>323.79998779296875</ele>
        <time>2025-04-29T23:44:02.000Z</time>
        <extensions>
          <ns3:TrackPointExtension/>
        </extensions>
      </trkpt>
      <trkpt lat="50.41571192443370819091796875" lon="5.99586292169988155364990234375">
        <ele>333.399993896484375</ele>
        <time>2025-04-29T23:44:04.000Z</time>
        <extensions>
          <ns3:TrackPointExtension/>
        </extensions>
      </trkpt>
      <trkpt lat="50.41544898413121700286865234375" lon="5.9953599236905574798583984375">
        <ele>334.79998779296875</ele>
        <time>2025-04-29T23:44:07.000Z</time>
        <extensions>
          <ns3:TrackPointExtension/>
        </extensions>
      </trkpt>
      <trkpt lat="50.41490399278700351715087890625" lon="5.99440497346222400665283203125">
        <ele>340.600006103515625</ele>
        <time>2025-04-29T23:44:09.000Z</time>
        <extensions>
          <ns3:TrackPointExtension/>
        </extensions>
      </trkpt>
      <trkpt lat="50.4148189164698123931884765625" lon="5.994184948503971099853515625">
        <ele>341.399993896484375</ele>
        <time>2025-04-29T23:44:11.000Z</time>
        <extensions>
          <ns3:TrackPointExtension/>
        </extensions>
      </trkpt>
      <trkpt lat="50.41481397114694118499755859375" lon="5.99402292631566524505615234375">
        <ele>342.600006103515625</ele>
        <time>2025-04-29T23:44:14.000Z</time>
        <extensions>
          <ns3:TrackPointExtension/>
        </extensions>
      </trkpt>
      <trkpt lat="50.41484599001705646514892578125" lon="5.99391295574605464935302734375">
        <ele>344.399993896484375</ele>
        <time>2025-04-29T23:44:16.000Z</time>
        <extensions>
          <ns3:TrackPointExtension/>
        </extensions>
      </trkpt>
      <trkpt lat="50.415024943649768829345703125" lon="5.99354691803455352783203125">
        <ele>350.79998779296875</ele>
        <time>2025-04-29T23:44:19.000Z</time>
        <extensions>
          <ns3:TrackPointExtension/>
        </extensions>
      </trkpt>
      <trkpt lat="50.41541797108948230743408203125" lon="5.9927129186689853668212890625">
        <ele>361.600006103515625</ele>
        <time>2025-04-29T23:44:21.000Z</time>
        <extensions>
          <ns3:TrackPointExtension/>
        </extensions>
      </trkpt>
      <trkpt lat="50.41556599549949169158935546875" lon="5.992399938404560089111328125">
        <ele>361</ele>
        <time>2025-04-29T23:44:23.000Z</time>
        <extensions>
          <ns3:TrackPointExtension/>
        </extensions>
      </trkpt>
      <trkpt lat="50.415655933320522308349609375" lon="5.99226792342960834503173828125">
        <ele>360.20001220703125</ele>
        <time>2025-04-29T23:44:26.000Z</time>
        <extensions>
          <ns3:TrackPointExtension/>
        </extensions>
      </trkpt>
      <trkpt lat="50.41576095856726169586181640625" lon="5.99218594841659069061279296875">
        <ele>359</ele>
        <time>2025-04-29T23:44:28.000Z</time>
        <extensions>
          <ns3:TrackPointExtension/>
        </extensions>
      </trkpt>
      <trkpt lat="50.41582591831684112548828125" lon="5.992177985608577728271484375">
        <ele>358.399993896484375</ele>
        <time>2025-04-29T23:44:29.000Z</time>
        <extensions>
          <ns3:TrackPointExtension/>
        </extensions>
      </trkpt>
      <trkpt lat="50.415886938571929931640625" lon="5.9921399317681789398193359375">
        <ele>358.399993896484375</ele>
        <time>2025-04-29T23:44:30.000Z</time>
        <extensions>
          <ns3:TrackPointExtension/>
        </extensions>
      </trkpt>
      <trkpt lat="50.41593798436224460601806640625" lon="5.99207597784698009490966796875">
        <ele>358.399993896484375</ele>
        <time>2025-04-29T23:44:30.000Z</time>
        <extensions>
          <ns3:TrackPointExtension/>
        </extensions>
      </trkpt>
      <trkpt lat="50.4159749485552310943603515625" lon="5.99199199117720127105712890625">
        <ele>358.600006103515625</ele>
        <time>2025-04-29T23:44:31.000Z</time>
        <extensions>
          <ns3:TrackPointExtension/>
        </extensions>
      </trkpt>
      <trkpt lat="50.41599699296057224273681640625" lon="5.99180993624031543731689453125">
        <ele>358</ele>
        <time>2025-04-29T23:44:32.000Z</time>
        <extensions>
          <ns3:TrackPointExtension/>
        </extensions>
      </trkpt>
      <trkpt lat="50.4160919599235057830810546875" lon="5.99166895262897014617919921875">
        <ele>358.399993896484375</ele>
        <time>2025-04-29T23:44:32.000Z</time>
        <extensions>
          <ns3:TrackPointExtension/>
        </extensions>
      </trkpt>
      <trkpt lat="50.41641793213784694671630859375" lon="5.99138095043599605560302734375">
        <ele>356.600006103515625</ele>
        <time>2025-04-29T23:44:33.000Z</time>
        <extensions>
          <ns3:TrackPointExtension/>
        </extensions>
      </trkpt>
      <trkpt lat="50.4164959676563739776611328125" lon="5.991245917975902557373046875">
        <ele>355.600006103515625</ele>
        <time>2025-04-29T23:44:37.000Z</time>
        <extensions>
          <ns3:TrackPointExtension/>
        </extensions>
      </trkpt>
      <trkpt lat="50.41653393767774105072021484375" lon="5.99112999625504016876220703125">
        <ele>354.79998779296875</ele>
        <time>2025-04-29T23:44:41.000Z</time>
        <extensions>
          <ns3:TrackPointExtension/>
        </extensions>
      </trkpt>
      <trkpt lat="50.41654399596154689788818359375" lon="5.991015918552875518798828125">
        <ele>354.20001220703125</ele>
        <time>2025-04-29T23:44:45.000Z</time>
        <extensions>
          <ns3:TrackPointExtension/>
        </extensions>
      </trkpt>
      <trkpt lat="50.41653594933450222015380859375" lon="5.990909971296787261962890625">
        <ele>354</ele>
        <time>2025-04-29T23:44:49.000Z</time>
        <extensions>
          <ns3:TrackPointExtension/>
        </extensions>
      </trkpt>
      <trkpt lat="50.41487096808850765228271484375" lon="5.9862829931080341339111328125">
        <ele>340.399993896484375</ele>
        <time>2025-04-29T23:44:53.000Z</time>
        <extensions>
          <ns3:TrackPointExtension/>
        </extensions>
      </trkpt>
      <trkpt lat="50.41452093981206417083740234375" lon="5.98537397570908069610595703125">
        <ele>342.20001220703125</ele>
        <time>2025-04-29T23:44:57.000Z</time>
        <extensions>
          <ns3:TrackPointExtension/>
        </extensions>
      </trkpt>
      <trkpt lat="50.414275936782360076904296875" lon="5.98463594913482666015625">
        <ele>340.399993896484375</ele>
        <time>2025-04-29T23:45:01.000Z</time>
        <extensions>
          <ns3:TrackPointExtension/>
        </extensions>
      </trkpt>
      <trkpt lat="50.41446092538535594940185546875" lon="5.984522961080074310302734375">
        <ele>337.399993896484375</ele>
        <time>2025-04-29T23:45:05.000Z</time>
        <extensions>
          <ns3:TrackPointExtension/>
        </extensions>
      </trkpt>
      <trkpt lat="50.41451691649854183197021484375" lon="5.984522961080074310302734375">
        <ele>337</ele>
        <time>2025-04-29T23:45:08.000Z</time>
        <extensions>
          <ns3:TrackPointExtension/>
        </extensions>
      </trkpt>
      <trkpt lat="50.4145659506320953369140625" lon="5.9845559857785701751708984375">
        <ele>336.79998779296875</ele>
        <time>2025-04-29T23:45:11.000Z</time>
        <extensions>
          <ns3:TrackPointExtension/>
        </extensions>
      </trkpt>
      <trkpt lat="50.414743982255458831787109375" lon="5.9850959479808807373046875">
        <ele>338.20001220703125</ele>
        <time>2025-04-29T23:45:14.000Z</time>
        <extensions>
          <ns3:TrackPointExtension/>
        </extensions>
      </trkpt>
      <trkpt lat="50.4148249514400959014892578125" lon="5.98519594408571720123291015625">
        <ele>337.600006103515625</ele>
        <time>2025-04-29T23:45:17.000Z</time>
        <extensions>
          <ns3:TrackPointExtension/>
        </extensions>
      </trkpt>
      <trkpt lat="50.41489695198833942413330078125" lon="5.98520793020725250244140625">
        <ele>336.79998779296875</ele>
        <time>2025-04-29T23:45:20.000Z</time>
        <extensions>
          <ns3:TrackPointExtension/>
        </extensions>
      </trkpt>
      <trkpt lat="50.41512996889650821685791015625" lon="5.98508195020258426666259765625">
        <ele>334.79998779296875</ele>
        <time>2025-04-29T23:45:23.000Z</time>
        <extensions>
          <ns3:TrackPointExtension/>
        </extensions>
      </trkpt>
      <trkpt lat="50.41538896970450878143310546875" lon="5.985033921897411346435546875">
        <ele>332.600006103515625</ele>
        <time>2025-04-29T23:45:26.000Z</time>
        <extensions>
          <ns3:TrackPointExtension/>
        </extensions>
      </trkpt>
      <trkpt lat="50.4155099205672740936279296875" lon="5.98504892550408840179443359375">
        <ele>332</ele>
        <time>2025-04-29T23:45:30.000Z</time>
        <extensions>
          <ns3:TrackPointExtension/>
        </extensions>
      </trkpt>
      <trkpt lat="50.41596296243369579315185546875" lon="5.9851819463074207305908203125">
        <ele>333.600006103515625</ele>
        <time>2025-04-29T23:45:33.000Z</time>
        <extensions>
          <ns3:TrackPointExtension/>
        </extensions>
      </trkpt>
      <trkpt lat="50.4160869307816028594970703125" lon="5.9851909987628459930419921875">
        <ele>334</ele>
        <time>2025-04-29T23:45:36.000Z</time>
        <extensions>
          <ns3:TrackPointExtension/>
        </extensions>
      </trkpt>
      <trkpt lat="50.41634199209511280059814453125" lon="5.985151939094066619873046875">
        <ele>336.600006103515625</ele>
        <time>2025-04-29T23:45:39.000Z</time>
        <extensions>
          <ns3:TrackPointExtension/>
        </extensions>
      </trkpt>
      <trkpt lat="50.41650895960628986358642578125" lon="5.98508899100124835968017578125">
        <ele>338</ele>
        <time>2025-04-29T23:45:42.000Z</time>
        <extensions>
          <ns3:TrackPointExtension/>
        </extensions>
      </trkpt>
      <trkpt lat="50.41699695400893688201904296875" lon="5.98482898436486721038818359375">
        <ele>342.600006103515625</ele>
        <time>2025-04-29T23:45:45.000Z</time>
        <extensions>
          <ns3:TrackPointExtension/>
        </extensions>
      </trkpt>
      <trkpt lat="50.41765292175114154815673828125" lon="5.98416999913752079010009765625">
        <ele>348.600006103515625</ele>
        <time>2025-04-29T23:45:48.000Z</time>
        <extensions>
          <ns3:TrackPointExtension/>
        </extensions>
      </trkpt>
      <trkpt lat="50.4178169555962085723876953125" lon="5.98399297334253787994384765625">
        <ele>349.399993896484375</ele>
        <time>2025-04-29T23:45:51.000Z</time>
        <extensions>
          <ns3:TrackPointExtension/>
        </extensions>
      </trkpt>
      <trkpt lat="50.41789297945797443389892578125" lon="5.98387998528778553009033203125">
        <ele>350</ele>
        <time>2025-04-29T23:45:55.000Z</time>
        <extensions>
          <ns3:TrackPointExtension/>
        </extensions>
      </trkpt>
      <trkpt lat="50.41799892671406269073486328125" lon="5.98361193202435970306396484375">
        <ele>351.79998779296875</ele>
        <time>2025-04-29T23:45:58.000Z</time>
        <extensions>
          <ns3:TrackPointExtension/>
        </extensions>
      </trkpt>
      <trkpt lat="50.418016947805881500244140625" lon="5.98338997922837734222412109375">
        <ele>352.20001220703125</ele>
        <time>2025-04-29T23:46:01.000Z</time>
        <extensions>
          <ns3:TrackPointExtension/>
        </extensions>
      </trkpt>
      <trkpt lat="50.417963974177837371826171875" lon="5.98278799094259738922119140625">
        <ele>354</ele>
        <time>2025-04-29T23:46:04.000Z</time>
        <extensions>
          <ns3:TrackPointExtension/>
        </extensions>
      </trkpt>
      <trkpt lat="50.4179959930479526519775390625" lon="5.9826529584825038909912109375">
        <ele>354.600006103515625</ele>
        <time>2025-04-29T23:46:07.000Z</time>
        <extensions>
          <ns3:TrackPointExtension/>
        </extensions>
      </trkpt>
      <trkpt lat="50.41806598193943500518798828125" lon="5.9825319238007068634033203125">
        <ele>355.600006103515625</ele>
        <time>2025-04-29T23:46:10.000Z</time>
        <extensions>
          <ns3:TrackPointExtension/>
        </extensions>
      </trkpt>
      <trkpt lat="50.418539978563785552978515625" lon="5.98198098130524158477783203125">
        <ele>363</ele>
        <time>2025-04-29T23:46:13.000Z</time>
        <extensions>
          <ns3:TrackPointExtension/>
        </extensions>
      </trkpt>
      <trkpt lat="50.4187889210879802703857421875" lon="5.98177495412528514862060546875">
        <ele>366.399993896484375</ele>
        <time>2025-04-29T23:46:16.000Z</time>
        <extensions>
          <ns3:TrackPointExtension/>
        </extensions>
      </trkpt>
      <trkpt lat="50.4190769232809543609619140625" lon="5.98162793554365634918212890625">
        <ele>368.79998779296875</ele>
        <time>2025-04-29T23:46:20.000Z</time>
        <extensions>
          <ns3:TrackPointExtension/>
        </extensions>
      </trkpt>
      <trkpt lat="50.41970296762883663177490234375" lon="5.9814959205687046051025390625">
        <ele>373</ele>
        <time>2025-04-29T23:46:23.000Z</time>
        <extensions>
          <ns3:TrackPointExtension/>
        </extensions>
      </trkpt>
      <trkpt lat="50.42026991955935955047607421875" lon="5.98151997663080692291259765625">
        <ele>379.20001220703125</ele>
        <time>2025-04-29T23:46:26.000Z</time>
        <extensions>
          <ns3:TrackPointExtension/>
        </extensions>
      </trkpt>
      <trkpt lat="50.42039698921144008636474609375" lon="5.9814969263970851898193359375">
        <ele>380.600006103515625</ele>
        <time>2025-04-29T23:46:29.000Z</time>
        <extensions>
          <ns3:TrackPointExtension/>
        </extensions>
      </trkpt>
      <trkpt lat="50.42134397663176059722900390625" lon="5.9811629913747310638427734375">
        <ele>388.79998779296875</ele>
        <time>2025-04-29T23:46:32.000Z</time>
        <extensions>
          <ns3:TrackPointExtension/>
        </extensions>
      </trkpt>
      <trkpt lat="50.421635918319225311279296875" lon="5.98114396445453166961669921875">
        <ele>392</ele>
        <time>2025-04-29T23:46:35.000Z</time>
        <extensions>
          <ns3:TrackPointExtension/>
        </extensions>
      </trkpt>
      <trkpt lat="50.421820990741252899169921875" lon="5.98117799498140811920166015625">
        <ele>393.20001220703125</ele>
        <time>2025-04-29T23:46:38.000Z</time>
        <extensions>
          <ns3:TrackPointExtension/>
        </extensions>
      </trkpt>
      <trkpt lat="50.42309696786105632781982421875" lon="5.98157898522913455963134765625">
        <ele>403.600006103515625</ele>
        <time>2025-04-29T23:46:41.000Z</time>
        <extensions>
          <ns3:TrackPointExtension/>
        </extensions>
      </trkpt>
      <trkpt lat="50.42349996976554393768310546875" lon="5.981646962463855743408203125">
        <ele>408</ele>
        <time>2025-04-29T23:46:45.000Z</time>
        <extensions>
          <ns3:TrackPointExtension/>
        </extensions>
      </trkpt>
      <trkpt lat="50.423766933381557464599609375" lon="5.98237493075430393218994140625">
        <ele>408.20001220703125</ele>
        <time>2025-04-29T23:46:49.000Z</time>
        <extensions>
          <ns3:TrackPointExtension/>
        </extensions>
      </trkpt>
      <trkpt lat="50.4239099286496639251708984375" lon="5.9829439781606197357177734375">
        <ele>408.79998779296875</ele>
        <time>2025-04-29T23:46:54.000Z</time>
        <extensions>
          <ns3:TrackPointExtension/>
        </extensions>
      </trkpt>
      <trkpt lat="50.42401595972478389739990234375" lon="5.98321597091853618621826171875">
        <ele>411.20001220703125</ele>
        <time>2025-04-29T23:46:59.000Z</time>
        <extensions>
          <ns3:TrackPointExtension/>
        </extensions>
      </trkpt>
      <trkpt lat="50.42424394749104976654052734375" lon="5.9835789911448955535888671875">
        <ele>413.399993896484375</ele>
        <time>2025-04-29T23:47:04.000Z</time>
        <extensions>
          <ns3:TrackPointExtension/>
        </extensions>
      </trkpt>
      <trkpt lat="50.42481592856347560882568359375" lon="5.9807319939136505126953125">
        <ele>421.20001220703125</ele>
        <time>2025-04-29T23:47:08.000Z</time>
        <extensions>
          <ns3:TrackPointExtension/>
        </extensions>
      </trkpt>
      <trkpt lat="50.4248869232833385467529296875" lon="5.9805239550769329071044921875">
        <ele>422.20001220703125</ele>
        <time>2025-04-29T23:47:12.000Z</time>
        <extensions>
          <ns3:TrackPointExtension/>
        </extensions>
      </trkpt>
      <trkpt lat="50.42496998794376850128173828125" lon="5.98034399561583995819091796875">
        <ele>424</ele>
        <time>2025-04-29T23:47:16.000Z</time>
        <extensions>
          <ns3:TrackPointExtension/>
        </extensions>
      </trkpt>
      <trkpt lat="50.4250669665634632110595703125" lon="5.9801849909126758575439453125">
        <ele>425</ele>
        <time>2025-04-29T23:47:21.000Z</time>
        <extensions>
          <ns3:TrackPointExtension/>
        </extensions>
      </trkpt>
      <trkpt lat="50.425322949886322021484375" lon="5.97981291823089122772216796875">
        <ele>428.79998779296875</ele>
        <time>2025-04-29T23:47:25.000Z</time>
        <extensions>
          <ns3:TrackPointExtension/>
        </extensions>
      </trkpt>
      <trkpt lat="50.425555966794490814208984375" lon="5.97955995239317417144775390625">
        <ele>432.20001220703125</ele>
        <time>2025-04-29T23:47:29.000Z</time>
        <extensions>
          <ns3:TrackPointExtension/>
        </extensions>
      </trkpt>
      <trkpt lat="50.4262149520218372344970703125" lon="5.97911395132541656494140625">
        <ele>442.600006103515625</ele>
        <time>2025-04-29T23:47:33.000Z</time>
        <extensions>
          <ns3:TrackPointExtension/>
        </extensions>
      </trkpt>
      <trkpt lat="50.426927916705608367919921875" lon="5.97849997691810131072998046875">
        <ele>453</ele>
        <time>2025-04-29T23:47:38.000Z</time>
        <extensions>
          <ns3:TrackPointExtension/>
        </extensions>
      </trkpt>
      <trkpt lat="50.42703093029558658599853515625" lon="5.9783889167010784149169921875">
        <ele>454</ele>
        <time>2025-04-29T23:47:42.000Z</time>
        <extensions>
          <ns3:TrackPointExtension/>
        </extensions>
      </trkpt>
      <trkpt lat="50.42720795609056949615478515625" lon="5.9782819636166095733642578125">
        <ele>454</ele>
        <time>2025-04-29T23:47:46.000Z</time>
        <extensions>
          <ns3:TrackPointExtension/>
        </extensions>
      </trkpt>
      <trkpt lat="50.42755697853863239288330078125" lon="5.9781589172780513763427734375">
        <ele>457.79998779296875</ele>
        <time>2025-04-29T23:47:51.000Z</time>
        <extensions>
          <ns3:TrackPointExtension/>
        </extensions>
      </trkpt>
      <trkpt lat="50.427857972681522369384765625" lon="5.97798499278724193572998046875">
        <ele>460.79998779296875</ele>
        <time>2025-04-29T23:47:55.000Z</time>
        <extensions>
          <ns3:TrackPointExtension/>
        </extensions>
      </trkpt>
      <trkpt lat="50.4283449612557888031005859375" lon="5.9776459448039531707763671875">
        <ele>465.399993896484375</ele>
        <time>2025-04-29T23:47:59.000Z</time>
        <extensions>
          <ns3:TrackPointExtension/>
        </extensions>
      </trkpt>
      <trkpt lat="50.4287499748170375823974609375" lon="5.97748694010078907012939453125">
        <ele>468</ele>
        <time>2025-04-29T23:48:03.000Z</time>
        <extensions>
          <ns3:TrackPointExtension/>
        </extensions>
      </trkpt>
      <trkpt lat="50.42890696786344051361083984375" lon="5.97740597091615200042724609375">
        <ele>468.20001220703125</ele>
        <time>2025-04-29T23:48:08.000Z</time>
        <extensions>
          <ns3:TrackPointExtension/>
        </extensions>
      </trkpt>
      <trkpt lat="50.42902397923171520233154296875" lon="5.97760093398392200469970703125">
        <ele>468.79998779296875</ele>
        <time>2025-04-29T23:48:09.000Z</time>
        <extensions>
          <ns3:TrackPointExtension/>
        </extensions>
      </trkpt>
      <trkpt lat="50.429349951446056365966796875" lon="5.97746598534286022186279296875">
        <ele>468.79998779296875</ele>
        <time>2025-04-29T23:48:16.000Z</time>
        <extensions>
          <ns3:TrackPointExtension/>
        </extensions>
      </trkpt>
      <trkpt lat="50.429349951446056365966796875" lon="5.97746598534286022186279296875">
        <ele>468.79998779296875</ele>
        <time>2025-04-29T23:48:23.000Z</time>
        <extensions>
          <ns3:TrackPointExtension/>
        </extensions>
      </trkpt>
      <trkpt lat="50.42950292117893695831298828125" lon="5.9774489700794219970703125">
        <ele>468.600006103515625</ele>
        <time>2025-04-29T23:48:31.000Z</time>
        <extensions>
          <ns3:TrackPointExtension/>
        </extensions>
      </trkpt>
      <trkpt lat="50.4293799586594104766845703125" lon="5.9773629717528820037841796875">
        <ele>468</ele>
        <time>2025-04-29T23:48:37.000Z</time>
        <extensions>
          <ns3:TrackPointExtension/>
        </extensions>
      </trkpt>
      <trkpt lat="50.42912992648780345916748046875" lon="5.97735299728810787200927734375">
        <ele>468</ele>
        <time>2025-04-29T23:48:43.000Z</time>
        <extensions>
          <ns3:TrackPointExtension/>
        </extensions>
      </trkpt>
      <trkpt lat="50.42907695285975933074951171875" lon="5.97731594927608966827392578125">
        <ele>467.79998779296875</ele>
        <time>2025-04-29T23:48:48.000Z</time>
        <extensions>
          <ns3:TrackPointExtension/>
        </extensions>
      </trkpt>
      <trkpt lat="50.4288669861853122711181640625" lon="5.97700498066842555999755859375">
        <ele>466.79998779296875</ele>
        <time>2025-04-29T23:48:54.000Z</time>
        <extensions>
          <ns3:TrackPointExtension/>
        </extensions>
      </trkpt>
      <trkpt lat="50.42861192487180233001708984375" lon="5.97653693519532680511474609375">
        <ele>465</ele>
        <time>2025-04-29T23:49:00.000Z</time>
        <extensions>
          <ns3:TrackPointExtension/>
        </extensions>
      </trkpt>
      <trkpt lat="50.42844294570386409759521484375" lon="5.97599496133625507354736328125">
        <ele>463.20001220703125</ele>
        <time>2025-04-29T23:49:06.000Z</time>
        <extensions>
          <ns3:TrackPointExtension/>
        </extensions>
      </trkpt>
      <trkpt lat="50.42867998592555522918701171875" lon="5.975721962749958038330078125">
        <ele>462.20001220703125</ele>
        <time>2025-04-29T23:49:14.000Z</time>
        <extensions>
          <ns3:TrackPointExtension/>
        </extensions>
      </trkpt>
      <trkpt lat="50.4289129190146923065185546875" lon="5.9754639677703380584716796875">
        <ele>459.399993896484375</ele>
        <time>2025-04-29T23:49:23.000Z</time>
        <extensions>
          <ns3:TrackPointExtension/>
        </extensions>
      </trkpt>
      <trkpt lat="50.4289819858968257904052734375" lon="5.975322984158992767333984375">
        <ele>456.20001220703125</ele>
        <time>2025-04-29T23:49:31.000Z</time>
        <extensions>
          <ns3:TrackPointExtension/>
        </extensions>
      </trkpt>
      <trkpt lat="50.42916999198496341705322265625" lon="5.975081920623779296875">
        <ele>446.600006103515625</ele>
        <time>2025-04-29T23:49:40.000Z</time>
        <extensions>
          <ns3:TrackPointExtension/>
        </extensions>
      </trkpt>
      <trkpt lat="50.429288931190967559814453125" lon="5.97513397224247455596923828125">
        <ele>447</ele>
        <time>2025-04-29T23:49:48.000Z</time>
        <extensions>
          <ns3:TrackPointExtension/>
        </extensions>
      </trkpt>
      <trkpt lat="50.42938892729580402374267578125" lon="5.9751239977777004241943359375">
        <ele>446</ele>
        <time>2025-04-29T23:49:57.000Z</time>
        <extensions>
          <ns3:TrackPointExtension/>
        </extensions>
      </trkpt>
      <trkpt lat="50.42948096059262752532958984375" lon="5.97506993450224399566650390625">
        <ele>444.600006103515625</ele>
        <time>2025-04-29T23:50:05.000Z</time>
        <extensions>
          <ns3:TrackPointExtension/>
        </extensions>
      </trkpt>
      <trkpt lat="50.43011195026338100433349609375" lon="5.974515974521636962890625">
        <ele>432.79998779296875</ele>
        <time>2025-04-29T23:50:13.000Z</time>
        <extensions>
          <ns3:TrackPointExtension/>
        </extensions>
      </trkpt>
      <trkpt lat="50.4303059913218021392822265625" lon="5.97438999451696872711181640625">
        <ele>431</ele>
        <time>2025-04-29T23:50:22.000Z</time>
        <extensions>
          <ns3:TrackPointExtension/>
        </extensions>
      </trkpt>
      <trkpt lat="50.4312759451568126678466796875" lon="5.97393192350864410400390625">
        <ele>421.399993896484375</ele>
        <time>2025-04-29T23:50:30.000Z</time>
        <extensions>
          <ns3:TrackPointExtension/>
        </extensions>
      </trkpt>
      <trkpt lat="50.43200491927564144134521484375" lon="5.9736819751560688018798828125">
        <ele>416.399993896484375</ele>
        <time>2025-04-29T23:50:39.000Z</time>
        <extensions>
          <ns3:TrackPointExtension/>
        </extensions>
      </trkpt>
      <trkpt lat="50.43230197392404079437255859375" lon="5.97360896877944469451904296875">
        <ele>414.79998779296875</ele>
        <time>2025-04-29T23:50:47.000Z</time>
        <extensions>
          <ns3:TrackPointExtension/>
        </extensions>
      </trkpt>
      <trkpt lat="50.4326539300382137298583984375" lon="5.9735599346458911895751953125">
        <ele>412</ele>
        <time>2025-04-29T23:50:56.000Z</time>
        <extensions>
          <ns3:TrackPointExtension/>
        </extensions>
      </trkpt>
      <trkpt lat="50.4335199482738971710205078125" lon="5.97355398349463939666748046875">
        <ele>410.600006103515625</ele>
        <time>2025-04-29T23:51:04.000Z</time>
        <extensions>
          <ns3:TrackPointExtension/>
        </extensions>
      </trkpt>
      <trkpt lat="50.43377299793064594268798828125" lon="5.9735329449176788330078125">
        <ele>411.600006103515625</ele>
        <time>2025-04-29T23:51:13.000Z</time>
        <extensions>
          <ns3:TrackPointExtension/>
        </extensions>
      </trkpt>
      <trkpt lat="50.434183962643146514892578125" lon="5.97346396185457706451416015625">
        <ele>411.79998779296875</ele>
        <time>2025-04-29T23:51:21.000Z</time>
        <extensions>
          <ns3:TrackPointExtension/>
        </extensions>
      </trkpt>
      <trkpt lat="50.4343309812247753143310546875" lon="5.973362959921360015869140625">
        <ele>408.79998779296875</ele>
        <time>2025-04-29T23:51:30.000Z</time>
        <extensions>
          <ns3:TrackPointExtension/>
        </extensions>
      </trkpt>
      <trkpt lat="50.4344369284808635711669921875" lon="5.973191969096660614013671875">
        <ele>405</ele>
        <time>2025-04-29T23:51:38.000Z</time>
        <extensions>
          <ns3:TrackPointExtension/>
        </extensions>
      </trkpt>
      <trkpt lat="50.434529967606067657470703125" lon="5.9729309566318988800048828125">
        <ele>400.600006103515625</ele>
        <time>2025-04-29T23:51:47.000Z</time>
        <extensions>
          <ns3:TrackPointExtension/>
        </extensions>
      </trkpt>
      <trkpt lat="50.43457799591124057769775390625" lon="5.972562991082668304443359375">
        <ele>396</ele>
        <time>2025-04-29T23:51:55.000Z</time>
        <extensions>
          <ns3:TrackPointExtension/>
        </extensions>
      </trkpt>
      <trkpt lat="50.43468997813761234283447265625" lon="5.97127796150743961334228515625">
        <ele>390</ele>
        <time>2025-04-29T23:52:04.000Z</time>
        <extensions>
          <ns3:TrackPointExtension/>
        </extensions>
      </trkpt>
      <trkpt lat="50.43474596925079822540283203125" lon="5.9701059199869632720947265625">
        <ele>381.79998779296875</ele>
        <time>2025-04-29T23:52:12.000Z</time>
        <extensions>
          <ns3:TrackPointExtension/>
        </extensions>
      </trkpt>
      <trkpt lat="50.434699952602386474609375" lon="5.96974994055926799774169921875">
        <ele>379.600006103515625</ele>
        <time>2025-04-29T23:52:21.000Z</time>
        <extensions>
          <ns3:TrackPointExtension/>
        </extensions>
      </trkpt>
      <trkpt lat="50.4345859587192535400390625" lon="5.969332940876483917236328125">
        <ele>378.20001220703125</ele>
        <time>2025-04-29T23:52:29.000Z</time>
        <extensions>
          <ns3:TrackPointExtension/>
        </extensions>
      </trkpt>
      <trkpt lat="50.4345269501209259033203125" lon="5.96917594783008098602294921875">
        <ele>378</ele>
        <time>2025-04-29T23:52:38.000Z</time>
        <extensions>
          <ns3:TrackPointExtension/>
        </extensions>
      </trkpt>
      <trkpt lat="50.43447196483612060546875" lon="5.9691309370100498199462890625">
        <ele>378</ele>
        <time>2025-04-29T23:52:46.000Z</time>
        <extensions>
          <ns3:TrackPointExtension/>
        </extensions>
      </trkpt>
      <trkpt lat="50.43420097790658473968505859375" lon="5.9687849320471286773681640625">
        <ele>377.20001220703125</ele>
        <time>2025-04-29T23:52:55.000Z</time>
        <extensions>
          <ns3:TrackPointExtension/>
        </extensions>
      </trkpt>
      <trkpt lat="50.4335169307887554168701171875" lon="5.96830992959439754486083984375">
        <ele>373.79998779296875</ele>
        <time>2025-04-29T23:53:03.000Z</time>
        <extensions>
          <ns3:TrackPointExtension/>
        </extensions>
      </trkpt>
      <trkpt lat="50.43354995548725128173828125" lon="5.96829199232161045074462890625">
        <ele>373.79998779296875</ele>
        <time>2025-04-29T23:53:06.000Z</time>
        <extensions>
          <ns3:TrackPointExtension/>
        </extensions>
      </trkpt>
      <trkpt lat="50.4338049329817295074462890625" lon="5.96833993680775165557861328125">
        <ele>374.79998779296875</ele>
        <time>2025-04-29T23:53:10.000Z</time>
        <extensions>
          <ns3:TrackPointExtension/>
        </extensions>
      </trkpt>
      <trkpt lat="50.433951951563358306884765625" lon="5.9682679362595081329345703125">
        <ele>375.600006103515625</ele>
        <time>2025-04-29T23:53:13.000Z</time>
        <extensions>
          <ns3:TrackPointExtension/>
        </extensions>
      </trkpt>
      <trkpt lat="50.4340349324047565460205078125" lon="5.9683859534561634063720703125">
        <ele>376.20001220703125</ele>
        <time>2025-04-29T23:53:20.000Z</time>
        <extensions>
          <ns3:TrackPointExtension/>
        </extensions>
      </trkpt>
      <trkpt lat="50.434706993401050567626953125" lon="5.968984924256801605224609375">
        <ele>378.20001220703125</ele>
        <time>2025-04-29T23:53:28.000Z</time>
        <extensions>
          <ns3:TrackPointExtension/>
        </extensions>
      </trkpt>
      <trkpt lat="50.43511996977031230926513671875" lon="5.9695889241993427276611328125">
        <ele>380</ele>
        <time>2025-04-29T23:53:35.000Z</time>
        <extensions>
          <ns3:TrackPointExtension/>
        </extensions>
      </trkpt>
      <trkpt lat="50.43526497669517993927001953125" lon="5.96968992613255977630615234375">
        <ele>381.399993896484375</ele>
        <time>2025-04-29T23:53:42.000Z</time>
        <extensions>
          <ns3:TrackPointExtension/>
        </extensions>
      </trkpt>
      <trkpt lat="50.4354239813983440399169921875" lon="5.969741977751255035400390625">
        <ele>381.600006103515625</ele>
        <time>2025-04-29T23:53:49.000Z</time>
        <extensions>
          <ns3:TrackPointExtension/>
        </extensions>
      </trkpt>
      <trkpt lat="50.43578398413956165313720703125" lon="5.96979595720767974853515625">
        <ele>381.79998779296875</ele>
        <time>2025-04-29T23:53:56.000Z</time>
        <extensions>
          <ns3:TrackPointExtension/>
        </extensions>
      </trkpt>
      <trkpt lat="50.43592496775090694427490234375" lon="5.96980894915759563446044921875">
        <ele>381.20001220703125</ele>
        <time>2025-04-29T23:54:03.000Z</time>
        <extensions>
          <ns3:TrackPointExtension/>
        </extensions>
      </trkpt>
      <trkpt lat="50.436193943023681640625" lon="5.96977994777262210845947265625">
        <ele>379.600006103515625</ele>
        <time>2025-04-29T23:54:10.000Z</time>
        <extensions>
          <ns3:TrackPointExtension/>
        </extensions>
      </trkpt>
      <trkpt lat="50.4364019818603992462158203125" lon="5.96981096081435680389404296875">
        <ele>378</ele>
        <time>2025-04-29T23:54:17.000Z</time>
        <extensions>
          <ns3:TrackPointExtension/>
        </extensions>
      </trkpt>
      <trkpt lat="50.43673197738826274871826171875" lon="5.96996099688112735748291015625">
        <ele>377</ele>
        <time>2025-04-29T23:54:25.000Z</time>
        <extensions>
          <ns3:TrackPointExtension/>
        </extensions>
      </trkpt>
      <trkpt lat="50.43673197738826274871826171875" lon="5.96996099688112735748291015625">
        <ele>377</ele>
        <time>2025-04-29T23:54:25.000Z</time>
        <extensions>
          <ns3:TrackPointExtension/>
        </extensions>
      </trkpt>
      <trkpt lat="50.437628924846649169921875" lon="5.97036994993686676025390625">
        <ele>381</ele>
        <time>2025-04-29T23:54:32.000Z</time>
        <extensions>
          <ns3:TrackPointExtension/>
        </extensions>
      </trkpt>
      <trkpt lat="50.43775892816483974456787109375" lon="5.97038394771516323089599609375">
        <ele>382</ele>
        <time>2025-04-29T23:54:39.000Z</time>
        <extensions>
          <ns3:TrackPointExtension/>
        </extensions>
      </trkpt>
      <trkpt lat="50.43792597949504852294921875" lon="5.97032695077359676361083984375">
        <ele>383.20001220703125</ele>
        <time>2025-04-29T23:54:47.000Z</time>
        <extensions>
          <ns3:TrackPointExtension/>
        </extensions>
      </trkpt>
      <trkpt lat="50.4382919333875179290771484375" lon="5.970026962459087371826171875">
        <ele>384.20001220703125</ele>
        <time>2025-04-29T23:54:54.000Z</time>
        <extensions>
          <ns3:TrackPointExtension/>
        </extensions>
      </trkpt>
      <trkpt lat="50.43837793171405792236328125" lon="5.9699339233338832855224609375">
        <ele>383.600006103515625</ele>
        <time>2025-04-29T23:55:01.000Z</time>
        <extensions>
          <ns3:TrackPointExtension/>
        </extensions>
      </trkpt>
      <trkpt lat="50.4384759999811649322509765625" lon="5.9697739966213703155517578125">
        <ele>381.600006103515625</ele>
        <time>2025-04-29T23:55:09.000Z</time>
        <extensions>
          <ns3:TrackPointExtension/>
        </extensions>
      </trkpt>
      <trkpt lat="50.4388209991157054901123046875" lon="5.9690789692103862762451171875">
        <ele>381.399993896484375</ele>
        <time>2025-04-29T23:55:16.000Z</time>
        <extensions>
          <ns3:TrackPointExtension/>
        </extensions>
      </trkpt>
      <trkpt lat="50.43891496025025844573974609375" lon="5.9689549170434474945068359375">
        <ele>383.20001220703125</ele>
        <time>2025-04-29T23:55:23.000Z</time>
        <extensions>
          <ns3:TrackPointExtension/>
        </extensions>
      </trkpt>
      <trkpt lat="50.439011938869953155517578125" lon="5.9689109958708286285400390625">
        <ele>384.600006103515625</ele>
        <time>2025-04-29T23:55:31.000Z</time>
        <extensions>
          <ns3:TrackPointExtension/>
        </extensions>
      </trkpt>
      <trkpt lat="50.4397289268672466278076171875" lon="5.9691279195249080657958984375">
        <ele>385</ele>
        <time>2025-04-29T23:55:38.000Z</time>
        <extensions>
          <ns3:TrackPointExtension/>
        </extensions>
      </trkpt>
      <trkpt lat="50.44033099897205829620361328125" lon="5.969444923102855682373046875">
        <ele>388</ele>
        <time>2025-04-29T23:55:45.000Z</time>
        <extensions>
          <ns3:TrackPointExtension/>
        </extensions>
      </trkpt>
      <trkpt lat="50.440401993691921234130859375" lon="5.969505943357944488525390625">
        <ele>388.20001220703125</ele>
        <time>2025-04-29T23:55:53.000Z</time>
        <extensions>
          <ns3:TrackPointExtension/>
        </extensions>
      </trkpt>
      <trkpt lat="50.4406519420444965362548828125" lon="5.96984599716961383819580078125">
        <ele>388.600006103515625</ele>
        <time>2025-04-29T23:56:00.000Z</time>
        <extensions>
          <ns3:TrackPointExtension/>
        </extensions>
      </trkpt>
      <trkpt lat="50.44098294340074062347412109375" lon="5.9701639227569103240966796875">
        <ele>387.399993896484375</ele>
        <time>2025-04-29T23:56:08.000Z</time>
        <extensions>
          <ns3:TrackPointExtension/>
        </extensions>
      </trkpt>
      <trkpt lat="50.4411079175770282745361328125" lon="5.970193929970264434814453125">
        <ele>386.399993896484375</ele>
        <time>2025-04-29T23:56:15.000Z</time>
        <extensions>
          <ns3:TrackPointExtension/>
        </extensions>
      </trkpt>
      <trkpt lat="50.44123892672359943389892578125" lon="5.97013793885707855224609375">
        <ele>385.600006103515625</ele>
        <time>2025-04-29T23:56:22.000Z</time>
        <extensions>
          <ns3:TrackPointExtension/>
        </extensions>
      </trkpt>
      <trkpt lat="50.442064963281154632568359375" lon="5.970773957669734954833984375">
        <ele>386.600006103515625</ele>
        <time>2025-04-29T23:56:43.000Z</time>
        <extensions>
          <ns3:TrackPointExtension/>
        </extensions>
      </trkpt>
      <trkpt lat="50.4421489499509334564208984375" lon="5.97065292298793792724609375">
        <ele>386.20001220703125</ele>
        <time>2025-04-29T23:56:47.000Z</time>
        <extensions>
          <ns3:TrackPointExtension/>
        </extensions>
      </trkpt>
      <trkpt lat="50.442184992134571075439453125" lon="5.97044798545539379119873046875">
        <ele>386.79998779296875</ele>
        <time>2025-04-29T23:56:50.000Z</time>
        <extensions>
          <ns3:TrackPointExtension/>
        </extensions>
      </trkpt>
      <trkpt lat="50.44230694882571697235107421875" lon="5.97049693576991558074951171875">
        <ele>387</ele>
        <time>2025-04-29T23:56:53.000Z</time>
        <extensions>
          <ns3:TrackPointExtension/>
        </extensions>
      </trkpt>
      <trkpt lat="50.4426079429686069488525390625" lon="5.97067396156489849090576171875">
        <ele>387</ele>
        <time>2025-04-29T23:56:57.000Z</time>
        <extensions>
          <ns3:TrackPointExtension/>
        </extensions>
      </trkpt>
      <trkpt lat="50.4427839629352092742919921875" lon="5.97093195654451847076416015625">
        <ele>387.79998779296875</ele>
        <time>2025-04-29T23:57:00.000Z</time>
        <extensions>
          <ns3:TrackPointExtension/>
        </extensions>
      </trkpt>
      <trkpt lat="50.44282394461333751678466796875" lon="5.97096296958625316619873046875">
        <ele>388</ele>
        <time>2025-04-29T23:57:04.000Z</time>
        <extensions>
          <ns3:TrackPointExtension/>
        </extensions>
      </trkpt>
      <trkpt lat="50.442813970148563385009765625" lon="5.97102097235620021820068359375">
        <ele>388.20001220703125</ele>
        <time>2025-04-29T23:57:07.000Z</time>
        <extensions>
          <ns3:TrackPointExtension/>
        </extensions>
      </trkpt>
      <trkpt lat="50.442813970148563385009765625" lon="5.97102097235620021820068359375">
        <ele>388.20001220703125</ele>
        <time>2025-04-29T23:57:10.000Z</time>
        <extensions>
          <ns3:TrackPointExtension/>
        </extensions>
      </trkpt>
      <trkpt lat="50.44274498708546161651611328125" lon="5.97119699232280254364013671875">
        <ele>388.79998779296875</ele>
        <time>2025-04-29T23:57:14.000Z</time>
        <extensions>
          <ns3:TrackPointExtension/>
        </extensions>
      </trkpt>
      <trkpt lat="50.4425469227135181427001953125" lon="5.9715559892356395721435546875">
        <ele>392.20001220703125</ele>
        <time>2025-04-29T23:57:17.000Z</time>
        <extensions>
          <ns3:TrackPointExtension/>
        </extensions>
      </trkpt>
      <trkpt lat="50.44260098598897457122802734375" lon="5.9717169217765331268310546875">
        <ele>393.79998779296875</ele>
        <time>2025-04-29T23:57:19.000Z</time>
        <extensions>
          <ns3:TrackPointExtension/>
        </extensions>
      </trkpt>
      <trkpt lat="50.4426639340817928314208984375" lon="5.9718329273164272308349609375">
        <ele>394.600006103515625</ele>
        <time>2025-04-29T23:57:22.000Z</time>
        <extensions>
          <ns3:TrackPointExtension/>
        </extensions>
      </trkpt>
      <trkpt lat="50.4425009898841381072998046875" lon="5.97259794361889362335205078125">
        <ele>400.600006103515625</ele>
        <time>2025-04-29T23:57:34.000Z</time>
        <extensions>
          <ns3:TrackPointExtension/>
        </extensions>
      </trkpt>
      <trkpt lat="50.44274096377193927764892578125" lon="5.97337192855775356292724609375">
        <ele>403.399993896484375</ele>
        <time>2025-04-29T23:57:46.000Z</time>
        <extensions>
          <ns3:TrackPointExtension/>
        </extensions>
      </trkpt>
      <trkpt lat="50.44281992129981517791748046875" lon="5.9736719168722629547119140625">
        <ele>406.600006103515625</ele>
        <time>2025-04-29T23:58:02.000Z</time>
        <extensions>
          <ns3:TrackPointExtension/>
        </extensions>
      </trkpt>
      <trkpt lat="50.44281992129981517791748046875" lon="5.9736719168722629547119140625">
        <ele>406.600006103515625</ele>
        <time>2025-04-29T23:58:18.000Z</time>
        <extensions>
          <ns3:TrackPointExtension/>
        </extensions>
      </trkpt>
      <trkpt lat="50.4428999684751033782958984375" lon="5.9741909243166446685791015625">
        <ele>414</ele>
        <time>2025-04-29T23:58:33.000Z</time>
        <extensions>
          <ns3:TrackPointExtension/>
        </extensions>
      </trkpt>
      <trkpt lat="50.4428419657051563262939453125" lon="5.97449895925819873809814453125">
        <ele>420</ele>
        <time>2025-04-29T23:58:49.000Z</time>
        <extensions>
          <ns3:TrackPointExtension/>
        </extensions>
      </trkpt>
      <trkpt lat="50.442404933273792266845703125" lon="5.97578591667115688323974609375">
        <ele>430.399993896484375</ele>
        <time>2025-04-29T23:59:05.000Z</time>
        <extensions>
          <ns3:TrackPointExtension/>
        </extensions>
      </trkpt>
      <trkpt lat="50.4422659613192081451416015625" lon="5.97532692365348339080810546875">
        <ele>430.600006103515625</ele>
        <time>2025-04-29T23:59:08.000Z</time>
        <extensions>
          <ns3:TrackPointExtension/>
        </extensions>
      </trkpt>
      <trkpt lat="50.442184992134571075439453125" lon="5.9751449525356292724609375">
        <ele>430.600006103515625</ele>
        <time>2025-04-29T23:59:11.000Z</time>
        <extensions>
          <ns3:TrackPointExtension/>
        </extensions>
      </trkpt>
      <trkpt lat="50.44210896827280521392822265625" lon="5.97501897253096103668212890625">
        <ele>432</ele>
        <time>2025-04-29T23:59:14.000Z</time>
        <extensions>
          <ns3:TrackPointExtension/>
        </extensions>
      </trkpt>
      <trkpt lat="50.4419809766113758087158203125" lon="5.97484395839273929595947265625">
        <ele>434.79998779296875</ele>
        <time>2025-04-29T23:59:17.000Z</time>
        <extensions>
          <ns3:TrackPointExtension/>
        </extensions>
      </trkpt>
      <trkpt lat="50.44182599522173404693603515625" lon="5.97469291649758815765380859375">
        <ele>437.399993896484375</ele>
        <time>2025-04-29T23:59:20.000Z</time>
        <extensions>
          <ns3:TrackPointExtension/>
        </extensions>
      </trkpt>
      <trkpt lat="50.44159398414194583892822265625" lon="5.97455092705786228179931640625">
        <ele>440.600006103515625</ele>
        <time>2025-04-29T23:59:23.000Z</time>
        <extensions>
          <ns3:TrackPointExtension/>
        </extensions>
      </trkpt>
      <trkpt lat="50.44135493226349353790283203125" lon="5.97449895925819873809814453125">
        <ele>442.79998779296875</ele>
        <time>2025-04-29T23:59:26.000Z</time>
        <extensions>
          <ns3:TrackPointExtension/>
        </extensions>
      </trkpt>
      <trkpt lat="50.441197939217090606689453125" lon="5.974506922066211700439453125">
        <ele>444</ele>
        <time>2025-04-29T23:59:29.000Z</time>
        <extensions>
          <ns3:TrackPointExtension/>
        </extensions>
      </trkpt>
      <trkpt lat="50.4410509206354618072509765625" lon="5.9745439700782299041748046875">
        <ele>445.20001220703125</ele>
        <time>2025-04-29T23:59:32.000Z</time>
        <extensions>
          <ns3:TrackPointExtension/>
        </extensions>
      </trkpt>
      <trkpt lat="50.44080893509089946746826171875" lon="5.974683947861194610595703125">
        <ele>446.399993896484375</ele>
        <time>2025-04-29T23:59:35.000Z</time>
        <extensions>
          <ns3:TrackPointExtension/>
        </extensions>
      </trkpt>
      <trkpt lat="50.4404519498348236083984375" lon="5.975025929510593414306640625">
        <ele>449.79998779296875</ele>
        <time>2025-04-29T23:59:38.000Z</time>
        <extensions>
          <ns3:TrackPointExtension/>
        </extensions>
      </trkpt>
      <trkpt lat="50.43908192776143550872802734375" lon="5.97636292688548564910888671875">
        <ele>460.600006103515625</ele>
        <time>2025-04-29T23:59:41.000Z</time>
        <extensions>
          <ns3:TrackPointExtension/>
        </extensions>
      </trkpt>
      <trkpt lat="50.438838936388492584228515625" lon="5.9764929302036762237548828125">
        <ele>463</ele>
        <time>2025-04-29T23:59:44.000Z</time>
        <extensions>
          <ns3:TrackPointExtension/>
        </extensions>
      </trkpt>
      <trkpt lat="50.43707697652280330657958984375" lon="5.9768979437649250030517578125">
        <ele>462</ele>
        <time>2025-04-29T23:59:47.000Z</time>
        <extensions>
          <ns3:TrackPointExtension/>
        </extensions>
      </trkpt>
      <trkpt lat="50.436941944062709808349609375" lon="5.9769509173929691314697265625">
        <ele>461.600006103515625</ele>
        <time>2025-04-29T23:59:50.000Z</time>
        <extensions>
          <ns3:TrackPointExtension/>
        </extensions>
      </trkpt>
      <trkpt lat="50.4366869665682315826416015625" lon="5.97714596427977085113525390625">
        <ele>460.600006103515625</ele>
        <time>2025-04-29T23:59:54.000Z</time>
        <extensions>
          <ns3:TrackPointExtension/>
        </extensions>
      </trkpt>
      <trkpt lat="50.4365759901702404022216796875" lon="5.977278985083103179931640625">
        <ele>460.20001220703125</ele>
        <time>2025-04-29T23:59:57.000Z</time>
        <extensions>
          <ns3:TrackPointExtension/>
        </extensions>
      </trkpt>
      <trkpt lat="50.4364029876887798309326171875" lon="5.9775589406490325927734375">
        <ele>461.600006103515625</ele>
        <time>2025-04-30T00:00:00.000Z</time>
        <extensions>
          <ns3:TrackPointExtension/>
        </extensions>
      </trkpt>
      <trkpt lat="50.4354149289429187774658203125" lon="5.97935996018350124359130859375">
        <ele>478.79998779296875</ele>
        <time>2025-04-30T00:00:03.000Z</time>
        <extensions>
          <ns3:TrackPointExtension/>
        </extensions>
      </trkpt>
      <trkpt lat="50.43534292839467525482177734375" lon="5.979460962116718292236328125">
        <ele>479.79998779296875</ele>
        <time>2025-04-30T00:00:06.000Z</time>
        <extensions>
          <ns3:TrackPointExtension/>
        </extensions>
      </trkpt>
      <trkpt lat="50.43515098281204700469970703125" lon="5.97964393906295299530029296875">
        <ele>481.399993896484375</ele>
        <time>2025-04-30T00:00:09.000Z</time>
        <extensions>
          <ns3:TrackPointExtension/>
        </extensions>
      </trkpt>
      <trkpt lat="50.4349829256534576416015625" lon="5.97972993738949298858642578125">
        <ele>482</ele>
        <time>2025-04-30T00:00:12.000Z</time>
        <extensions>
          <ns3:TrackPointExtension/>
        </extensions>
      </trkpt>
      <trkpt lat="50.434814952313899993896484375" lon="5.97976095043122768402099609375">
        <ele>481.79998779296875</ele>
        <time>2025-04-30T00:00:15.000Z</time>
        <extensions>
          <ns3:TrackPointExtension/>
        </extensions>
      </trkpt>
      <trkpt lat="50.43293598107993602752685546875" lon="5.9796679951250553131103515625">
        <ele>474.399993896484375</ele>
        <time>2025-04-30T00:00:18.000Z</time>
        <extensions>
          <ns3:TrackPointExtension/>
        </extensions>
      </trkpt>
      <trkpt lat="50.4303009621798992156982421875" lon="5.9793149493634700775146484375">
        <ele>479</ele>
        <time>2025-04-30T00:00:21.000Z</time>
        <extensions>
          <ns3:TrackPointExtension/>
        </extensions>
      </trkpt>
      <trkpt lat="50.43017498217523097991943359375" lon="5.9793209843337535858154296875">
        <ele>478.399993896484375</ele>
        <time>2025-04-30T00:00:24.000Z</time>
        <extensions>
          <ns3:TrackPointExtension/>
        </extensions>
      </trkpt>
      <trkpt lat="50.4299519397318363189697265625" lon="5.9793699346482753753662109375">
        <ele>476.79998779296875</ele>
        <time>2025-04-30T00:00:27.000Z</time>
        <extensions>
          <ns3:TrackPointExtension/>
        </extensions>
      </trkpt>
      <trkpt lat="50.4297229461371898651123046875" lon="5.9794879518449306488037109375">
        <ele>476</ele>
        <time>2025-04-30T00:00:30.000Z</time>
        <extensions>
          <ns3:TrackPointExtension/>
        </extensions>
      </trkpt>
      <trkpt lat="50.42953896336257457733154296875" lon="5.97964192740619182586669921875">
        <ele>474</ele>
        <time>2025-04-30T00:00:33.000Z</time>
        <extensions>
          <ns3:TrackPointExtension/>
        </extensions>
      </trkpt>
      <trkpt lat="50.42938892729580402374267578125" lon="5.97981694154441356658935546875">
        <ele>472.600006103515625</ele>
        <time>2025-04-30T00:00:36.000Z</time>
        <extensions>
          <ns3:TrackPointExtension/>
        </extensions>
      </trkpt>
      <trkpt lat="50.42928096838295459747314453125" lon="5.9799809753894805908203125">
        <ele>471.399993896484375</ele>
        <time>2025-04-30T00:00:39.000Z</time>
        <extensions>
          <ns3:TrackPointExtension/>
        </extensions>
      </trkpt>
      <trkpt lat="50.4282009601593017578125" lon="5.98209497518837451934814453125">
        <ele>452.79998779296875</ele>
        <time>2025-04-30T00:00:43.000Z</time>
        <extensions>
          <ns3:TrackPointExtension/>
        </extensions>
      </trkpt>
      <trkpt lat="50.42812895961105823516845703125" lon="5.98197896964848041534423828125">
        <ele>452.399993896484375</ele>
        <time>2025-04-30T00:00:45.000Z</time>
        <extensions>
          <ns3:TrackPointExtension/>
        </extensions>
      </trkpt>
      <trkpt lat="50.42812594212591648101806640625" lon="5.98183195106685161590576171875">
        <ele>452.79998779296875</ele>
        <time>2025-04-30T00:00:47.000Z</time>
        <extensions>
          <ns3:TrackPointExtension/>
        </extensions>
      </trkpt>
      <trkpt lat="50.42836599983274936676025390625" lon="5.9788499213755130767822265625">
        <ele>463.79998779296875</ele>
        <time>2025-04-30T00:00:49.000Z</time>
        <extensions>
          <ns3:TrackPointExtension/>
        </extensions>
      </trkpt>
      <trkpt lat="50.428431965410709381103515625" lon="5.97850299440324306488037109375">
        <ele>466.20001220703125</ele>
        <time>2025-04-30T00:00:52.000Z</time>
        <extensions>
          <ns3:TrackPointExtension/>
        </extensions>
      </trkpt>
      <trkpt lat="50.4285139404237270355224609375" lon="5.97826293669641017913818359375">
        <ele>467.20001220703125</ele>
        <time>2025-04-30T00:00:54.000Z</time>
        <extensions>
          <ns3:TrackPointExtension/>
        </extensions>
      </trkpt>
      <trkpt lat="50.42864092625677585601806640625" lon="5.97800997085869312286376953125">
        <ele>468.20001220703125</ele>
        <time>2025-04-30T00:00:56.000Z</time>
        <extensions>
          <ns3:TrackPointExtension/>
        </extensions>
      </trkpt>
      <trkpt lat="50.4288059659302234649658203125" lon="5.977789945900440216064453125">
        <ele>468.79998779296875</ele>
        <time>2025-04-30T00:00:59.000Z</time>
        <extensions>
          <ns3:TrackPointExtension/>
        </extensions>
      </trkpt>
      <trkpt lat="50.42902397923171520233154296875" lon="5.97760093398392200469970703125">
        <ele>468.79998779296875</ele>
        <time>2025-04-30T00:01:01.000Z</time>
        <extensions>
          <ns3:TrackPointExtension/>
        </extensions>
      </trkpt>
      <trkpt lat="50.4286959953606128692626953125" lon="5.9770949184894561767578125">
        <ele>466.399993896484375</ele>
        <time>2025-04-30T00:01:05.000Z</time>
        <extensions>
          <ns3:TrackPointExtension/>
        </extensions>
      </trkpt>
      <trkpt lat="50.4284599609673023223876953125" lon="5.97665193490684032440185546875">
        <ele>465</ele>
        <time>2025-04-30T00:01:10.000Z</time>
        <extensions>
          <ns3:TrackPointExtension/>
        </extensions>
      </trkpt>
      <trkpt lat="50.42775596491992473602294921875" lon="5.974404998123645782470703125">
        <ele>459</ele>
        <time>2025-04-30T00:01:15.000Z</time>
        <extensions>
          <ns3:TrackPointExtension/>
        </extensions>
      </trkpt>
      <trkpt lat="50.42729797773063182830810546875" lon="5.9730969183146953582763671875">
        <ele>454.399993896484375</ele>
        <time>2025-04-30T00:01:19.000Z</time>
        <extensions>
          <ns3:TrackPointExtension/>
        </extensions>
      </trkpt>
      <trkpt lat="50.42680495418608188629150390625" lon="5.9716009162366390228271484375">
        <ele>454.399993896484375</ele>
        <time>2025-04-30T00:01:24.000Z</time>
        <extensions>
          <ns3:TrackPointExtension/>
        </extensions>
      </trkpt>
      <trkpt lat="50.42662591673433780670166015625" lon="5.97113597206771373748779296875">
        <ele>455</ele>
        <time>2025-04-30T00:01:29.000Z</time>
        <extensions>
          <ns3:TrackPointExtension/>
        </extensions>
      </trkpt>
      <trkpt lat="50.42646498419344425201416015625" lon="5.970776975154876708984375">
        <ele>454.399993896484375</ele>
        <time>2025-04-30T00:01:33.000Z</time>
        <extensions>
          <ns3:TrackPointExtension/>
        </extensions>
      </trkpt>
      <trkpt lat="50.4260429553687572479248046875" lon="5.9699409641325473785400390625">
        <ele>450.79998779296875</ele>
        <time>2025-04-30T00:01:38.000Z</time>
        <extensions>
          <ns3:TrackPointExtension/>
        </extensions>
      </trkpt>
      <trkpt lat="50.42582997120916843414306640625" lon="5.9696019999682903289794921875">
        <ele>451</ele>
        <time>2025-04-30T00:01:42.000Z</time>
        <extensions>
          <ns3:TrackPointExtension/>
        </extensions>
      </trkpt>
      <trkpt lat="50.42485398240387439727783203125" lon="5.9685949981212615966796875">
        <ele>447.20001220703125</ele>
        <time>2025-04-30T00:01:47.000Z</time>
        <extensions>
          <ns3:TrackPointExtension/>
        </extensions>
      </trkpt>
      <trkpt lat="50.424401946365833282470703125" lon="5.9680939279496669769287109375">
        <ele>445.20001220703125</ele>
        <time>2025-04-30T00:01:52.000Z</time>
        <extensions>
          <ns3:TrackPointExtension/>
        </extensions>
      </trkpt>
      <trkpt lat="50.42402098886668682098388671875" lon="5.967323966324329376220703125">
        <ele>443.399993896484375</ele>
        <time>2025-04-30T00:01:56.000Z</time>
        <extensions>
          <ns3:TrackPointExtension/>
        </extensions>
      </trkpt>
      <trkpt lat="50.42386793531477451324462890625" lon="5.96713495440781116485595703125">
        <ele>441.79998779296875</ele>
        <time>2025-04-30T00:02:01.000Z</time>
        <extensions>
          <ns3:TrackPointExtension/>
        </extensions>
      </trkpt>
      <trkpt lat="50.422856993973255157470703125" lon="5.96672994084656238555908203125">
        <ele>433</ele>
        <time>2025-04-30T00:02:05.000Z</time>
        <extensions>
          <ns3:TrackPointExtension/>
        </extensions>
      </trkpt>
      <trkpt lat="50.42275096289813518524169921875" lon="5.9665389172732830047607421875">
        <ele>433</ele>
        <time>2025-04-30T00:02:10.000Z</time>
        <extensions>
          <ns3:TrackPointExtension/>
        </extensions>
      </trkpt>
      <trkpt lat="50.4226179420948028564453125" lon="5.96606592647731304168701171875">
        <ele>433.600006103515625</ele>
        <time>2025-04-30T00:02:15.000Z</time>
        <extensions>
          <ns3:TrackPointExtension/>
        </extensions>
      </trkpt>
      <trkpt lat="50.4225299321115016937255859375" lon="5.96584699116647243499755859375">
        <ele>433.399993896484375</ele>
        <time>2025-04-30T00:02:19.000Z</time>
        <extensions>
          <ns3:TrackPointExtension/>
        </extensions>
      </trkpt>
      <trkpt lat="50.42211594991385936737060546875" lon="5.96609794534742832183837890625">
        <ele>430</ele>
        <time>2025-04-30T00:02:25.000Z</time>
        <extensions>
          <ns3:TrackPointExtension/>
        </extensions>
      </trkpt>
      <trkpt lat="50.42192794382572174072265625" lon="5.96617095172405242919921875">
        <ele>428</ele>
        <time>2025-04-30T00:02:30.000Z</time>
        <extensions>
          <ns3:TrackPointExtension/>
        </extensions>
      </trkpt>
      <trkpt lat="50.42176793329417705535888671875" lon="5.9662049822509288787841796875">
        <ele>426.399993896484375</ele>
        <time>2025-04-30T00:02:35.000Z</time>
        <extensions>
          <ns3:TrackPointExtension/>
        </extensions>
      </trkpt>
      <trkpt lat="50.42153692804276943206787109375" lon="5.9663109295070171356201171875">
        <ele>423.399993896484375</ele>
        <time>2025-04-30T00:02:41.000Z</time>
        <extensions>
          <ns3:TrackPointExtension/>
        </extensions>
      </trkpt>
      <trkpt lat="50.4213219322264194488525390625" lon="5.966454930603504180908203125">
        <ele>419.399993896484375</ele>
        <time>2025-04-30T00:02:46.000Z</time>
        <extensions>
          <ns3:TrackPointExtension/>
        </extensions>
      </trkpt>
      <trkpt lat="50.4212129674851894378662109375" lon="5.96646792255342006683349609375">
        <ele>417.399993896484375</ele>
        <time>2025-04-30T00:02:52.000Z</time>
        <extensions>
          <ns3:TrackPointExtension/>
        </extensions>
      </trkpt>
      <trkpt lat="50.42113794945180416107177734375" lon="5.96644897945225238800048828125">
        <ele>416.20001220703125</ele>
        <time>2025-04-30T00:02:57.000Z</time>
        <extensions>
          <ns3:TrackPointExtension/>
        </extensions>
      </trkpt>
      <trkpt lat="50.42056093923747539520263671875" lon="5.96611194312572479248046875">
        <ele>408.79998779296875</ele>
        <time>2025-04-30T00:03:03.000Z</time>
        <extensions>
          <ns3:TrackPointExtension/>
        </extensions>
      </trkpt>
      <trkpt lat="50.42039397172629833221435546875" lon="5.96609895117580890655517578125">
        <ele>407</ele>
        <time>2025-04-30T00:03:08.000Z</time>
        <extensions>
          <ns3:TrackPointExtension/>
        </extensions>
      </trkpt>
      <trkpt lat="50.41973196901381015777587890625" lon="5.96619299612939357757568359375">
        <ele>398.600006103515625</ele>
        <time>2025-04-30T00:03:13.000Z</time>
        <extensions>
          <ns3:TrackPointExtension/>
        </extensions>
      </trkpt>
      <trkpt lat="50.4187949560582637786865234375" lon="5.96655593253672122955322265625">
        <ele>386</ele>
        <time>2025-04-30T00:03:19.000Z</time>
        <extensions>
          <ns3:TrackPointExtension/>
        </extensions>
      </trkpt>
      <trkpt lat="50.41871792636811733245849609375" lon="5.96655995585024356842041015625">
        <ele>384.79998779296875</ele>
        <time>2025-04-30T00:03:24.000Z</time>
        <extensions>
          <ns3:TrackPointExtension/>
        </extensions>
      </trkpt>
      <trkpt lat="50.41863293386995792388916015625" lon="5.96650698222219944000244140625">
        <ele>383.600006103515625</ele>
        <time>2025-04-30T00:03:30.000Z</time>
        <extensions>
          <ns3:TrackPointExtension/>
        </extensions>
      </trkpt>
      <trkpt lat="50.41857694275677204132080078125" lon="5.966399945318698883056640625">
        <ele>382.79998779296875</ele>
        <time>2025-04-30T00:03:35.000Z</time>
        <extensions>
          <ns3:TrackPointExtension/>
        </extensions>
      </trkpt>
      <trkpt lat="50.41855196468532085418701171875" lon="5.9662609733641147613525390625">
        <ele>382.399993896484375</ele>
        <time>2025-04-30T00:03:40.000Z</time>
        <extensions>
          <ns3:TrackPointExtension/>
        </extensions>
      </trkpt>
      <trkpt lat="50.418531931936740875244140625" lon="5.96595293842256069183349609375">
        <ele>382.399993896484375</ele>
        <time>2025-04-30T00:03:46.000Z</time>
        <extensions>
          <ns3:TrackPointExtension/>
        </extensions>
      </trkpt>
      <trkpt lat="50.41848993860185146331787109375" lon="5.96569192595779895782470703125">
        <ele>382.20001220703125</ele>
        <time>2025-04-30T00:03:51.000Z</time>
        <extensions>
          <ns3:TrackPointExtension/>
        </extensions>
      </trkpt>
      <trkpt lat="50.41857895441353321075439453125" lon="5.96515397541224956512451171875">
        <ele>384</ele>
        <time>2025-04-30T00:03:57.000Z</time>
        <extensions>
          <ns3:TrackPointExtension/>
        </extensions>
      </trkpt>
      <trkpt lat="50.41848398745059967041015625" lon="5.9649989940226078033447265625">
        <ele>384.20001220703125</ele>
        <time>2025-04-30T00:04:02.000Z</time>
        <extensions>
          <ns3:TrackPointExtension/>
        </extensions>
      </trkpt>
      <trkpt lat="50.41821098886430263519287109375" lon="5.96473194658756256103515625">
        <ele>384.20001220703125</ele>
        <time>2025-04-30T00:04:08.000Z</time>
        <extensions>
          <ns3:TrackPointExtension/>
        </extensions>
      </trkpt>
      <trkpt lat="50.41792298667132854461669921875" lon="5.96440597437322139739990234375">
        <ele>383.600006103515625</ele>
        <time>2025-04-30T00:04:13.000Z</time>
        <extensions>
          <ns3:TrackPointExtension/>
        </extensions>
      </trkpt>
      <trkpt lat="50.41742895729839801788330078125" lon="5.9638969413936138153076171875">
        <ele>380</ele>
        <time>2025-04-30T00:04:18.000Z</time>
        <extensions>
          <ns3:TrackPointExtension/>
        </extensions>
      </trkpt>
      <trkpt lat="50.41653695516288280487060546875" lon="5.9631509520113468170166015625">
        <ele>376.399993896484375</ele>
        <time>2025-04-30T00:04:24.000Z</time>
        <extensions>
          <ns3:TrackPointExtension/>
        </extensions>
      </trkpt>
      <trkpt lat="50.41458497755229473114013671875" lon="5.961742959916591644287109375">
        <ele>365</ele>
        <time>2025-04-30T00:04:29.000Z</time>
        <extensions>
          <ns3:TrackPointExtension/>
        </extensions>
      </trkpt>
      <trkpt lat="50.4113799892365932464599609375" lon="5.95933391712605953216552734375">
        <ele>345.20001220703125</ele>
        <time>2025-04-30T00:04:35.000Z</time>
        <extensions>
          <ns3:TrackPointExtension/>
        </extensions>
      </trkpt>
      <trkpt lat="50.4112529195845127105712890625" lon="5.959214977920055389404296875">
        <ele>343.79998779296875</ele>
        <time>2025-04-30T00:04:40.000Z</time>
        <extensions>
          <ns3:TrackPointExtension/>
        </extensions>
      </trkpt>
      <trkpt lat="50.41105099953711032867431640625" lon="5.95894097350537776947021484375">
        <ele>341.399993896484375</ele>
        <time>2025-04-30T00:04:46.000Z</time>
        <extensions>
          <ns3:TrackPointExtension/>
        </extensions>
      </trkpt>
      <trkpt lat="50.41040894575417041778564453125" lon="5.957661978900432586669921875">
        <ele>332.20001220703125</ele>
        <time>2025-04-30T00:04:51.000Z</time>
        <extensions>
          <ns3:TrackPointExtension/>
        </extensions>
      </trkpt>
      <trkpt lat="50.41003997437655925750732421875" lon="5.95703291706740856170654296875">
        <ele>328.399993896484375</ele>
        <time>2025-04-30T00:04:56.000Z</time>
        <extensions>
          <ns3:TrackPointExtension/>
        </extensions>
      </trkpt>
      <trkpt lat="50.409960933029651641845703125" lon="5.9569449909031391143798828125">
        <ele>327.399993896484375</ele>
        <time>2025-04-30T00:05:02.000Z</time>
        <extensions>
          <ns3:TrackPointExtension/>
        </extensions>
      </trkpt>
      <trkpt lat="50.40983394719660282135009765625" lon="5.95689495094120502471923828125">
        <ele>326.79998779296875</ele>
        <time>2025-04-30T00:05:07.000Z</time>
        <extensions>
          <ns3:TrackPointExtension/>
        </extensions>
      </trkpt>
      <trkpt lat="50.40913992561399936676025390625" lon="5.95700995065271854400634765625">
        <ele>321.79998779296875</ele>
        <time>2025-04-30T00:05:13.000Z</time>
        <extensions>
          <ns3:TrackPointExtension/>
        </extensions>
      </trkpt>
      <trkpt lat="50.4089589603245258331298828125" lon="5.9570019878447055816650390625">
        <ele>320.399993896484375</ele>
        <time>2025-04-30T00:05:18.000Z</time>
        <extensions>
          <ns3:TrackPointExtension/>
        </extensions>
      </trkpt>
      <trkpt lat="50.4082619212567806243896484375" lon="5.95678799785673618316650390625">
        <ele>312.79998779296875</ele>
        <time>2025-04-30T00:05:24.000Z</time>
        <extensions>
          <ns3:TrackPointExtension/>
        </extensions>
      </trkpt>
      <trkpt lat="50.4080959595739841461181640625" lon="5.95677693374454975128173828125">
        <ele>312.20001220703125</ele>
        <time>2025-04-30T00:05:29.000Z</time>
        <extensions>
          <ns3:TrackPointExtension/>
        </extensions>
      </trkpt>
      <trkpt lat="50.40799596346914768218994140625" lon="5.95663192681968212127685546875">
        <ele>311</ele>
        <time>2025-04-30T00:05:38.000Z</time>
        <extensions>
          <ns3:TrackPointExtension/>
        </extensions>
      </trkpt>
      <trkpt lat="50.40675393305718898773193359375" lon="5.95574093051254749298095703125">
        <ele>304.399993896484375</ele>
        <time>2025-04-30T00:05:47.000Z</time>
        <extensions>
          <ns3:TrackPointExtension/>
        </extensions>
      </trkpt>
      <trkpt lat="50.40506095625460147857666015625" lon="5.9544329345226287841796875">
        <ele>296.399993896484375</ele>
        <time>2025-04-30T00:05:57.000Z</time>
        <extensions>
          <ns3:TrackPointExtension/>
        </extensions>
      </trkpt>
      <trkpt lat="50.4043829441070556640625" lon="5.95419899560511112213134765625">
        <ele>293.79998779296875</ele>
        <time>2025-04-30T00:06:06.000Z</time>
        <extensions>
          <ns3:TrackPointExtension/>
        </extensions>
      </trkpt>
      <trkpt lat="50.40411598049104213714599609375" lon="5.95407393760979175567626953125">
        <ele>293.20001220703125</ele>
        <time>2025-04-30T00:06:15.000Z</time>
        <extensions>
          <ns3:TrackPointExtension/>
        </extensions>
      </trkpt>
      <trkpt lat="50.4041229374706745147705078125" lon="5.9546909295022487640380859375">
        <ele>295.600006103515625</ele>
        <time>2025-04-30T00:06:17.000Z</time>
        <extensions>
          <ns3:TrackPointExtension/>
        </extensions>
      </trkpt>
      <trkpt lat="50.4041839577257633209228515625" lon="5.955296941101551055908203125">
        <ele>298.20001220703125</ele>
        <time>2025-04-30T00:06:19.000Z</time>
        <extensions>
          <ns3:TrackPointExtension/>
        </extensions>
      </trkpt>
      <trkpt lat="50.4042439721524715423583984375" lon="5.95557698048651218414306640625">
        <ele>298.79998779296875</ele>
        <time>2025-04-30T00:06:21.000Z</time>
        <extensions>
          <ns3:TrackPointExtension/>
        </extensions>
      </trkpt>
      <trkpt lat="50.40434899739921092987060546875" lon="5.95594394020736217498779296875">
        <ele>298.20001220703125</ele>
        <time>2025-04-30T00:06:22.000Z</time>
        <extensions>
          <ns3:TrackPointExtension/>
        </extensions>
      </trkpt>
      <trkpt lat="50.404155962169170379638671875" lon="5.95629095099866390228271484375">
        <ele>302.79998779296875</ele>
        <time>2025-04-30T00:06:23.000Z</time>
        <extensions>
          <ns3:TrackPointExtension/>
        </extensions>
      </trkpt>
      <trkpt lat="50.40399293415248394012451171875" lon="5.95640997402369976043701171875">
        <ele>304.600006103515625</ele>
        <time>2025-04-30T00:06:25.000Z</time>
        <extensions>
          <ns3:TrackPointExtension/>
        </extensions>
      </trkpt>
      <trkpt lat="50.403872989118099212646484375" lon="5.95652698539197444915771484375">
        <ele>306</ele>
        <time>2025-04-30T00:06:26.000Z</time>
        <extensions>
          <ns3:TrackPointExtension/>
        </extensions>
      </trkpt>
      <trkpt lat="50.40378891862928867340087890625" lon="5.95672898925840854644775390625">
        <ele>306.20001220703125</ele>
        <time>2025-04-30T00:06:27.000Z</time>
        <extensions>
          <ns3:TrackPointExtension/>
        </extensions>
      </trkpt>
      <trkpt lat="50.40178094990551471710205078125" lon="5.954377949237823486328125">
        <ele>294.20001220703125</ele>
        <time>2025-04-30T00:06:31.000Z</time>
        <extensions>
          <ns3:TrackPointExtension/>
        </extensions>
      </trkpt>
      <trkpt lat="50.40137593634426593780517578125" lon="5.95397494733333587646484375">
        <ele>292.600006103515625</ele>
        <time>2025-04-30T00:06:36.000Z</time>
        <extensions>
          <ns3:TrackPointExtension/>
        </extensions>
      </trkpt>
      <trkpt lat="50.40074394084513187408447265625" lon="5.95363891683518886566162109375">
        <ele>290.79998779296875</ele>
        <time>2025-04-30T00:06:41.000Z</time>
        <extensions>
          <ns3:TrackPointExtension/>
        </extensions>
      </trkpt>
      <trkpt lat="50.40009099058806896209716796875" lon="5.9533689357340335845947265625">
        <ele>291.600006103515625</ele>
        <time>2025-04-30T00:06:45.000Z</time>
        <extensions>
          <ns3:TrackPointExtension/>
        </extensions>
      </trkpt>
      <trkpt lat="50.3994689695537090301513671875" lon="5.953052937984466552734375">
        <ele>291.20001220703125</ele>
        <time>2025-04-30T00:06:50.000Z</time>
        <extensions>
          <ns3:TrackPointExtension/>
        </extensions>
      </trkpt>
      <trkpt lat="50.39819299243390560150146484375" lon="5.95231692306697368621826171875">
        <ele>292.600006103515625</ele>
        <time>2025-04-30T00:06:55.000Z</time>
        <extensions>
          <ns3:TrackPointExtension/>
        </extensions>
      </trkpt>
      <trkpt lat="50.39787196554243564605712890625" lon="5.95200092531740665435791015625">
        <ele>291.79998779296875</ele>
        <time>2025-04-30T00:06:59.000Z</time>
        <extensions>
          <ns3:TrackPointExtension/>
        </extensions>
      </trkpt>
      <trkpt lat="50.39728992618620395660400390625" lon="5.95115192234516143798828125">
        <ele>288.600006103515625</ele>
        <time>2025-04-30T00:07:04.000Z</time>
        <extensions>
          <ns3:TrackPointExtension/>
        </extensions>
      </trkpt>
      <trkpt lat="50.39571798406541347503662109375" lon="5.9491099230945110321044921875">
        <ele>286.399993896484375</ele>
        <time>2025-04-30T00:07:09.000Z</time>
        <extensions>
          <ns3:TrackPointExtension/>
        </extensions>
      </trkpt>
      <trkpt lat="50.39525697939097881317138671875" lon="5.948342978954315185546875">
        <ele>283.600006103515625</ele>
        <time>2025-04-30T00:07:13.000Z</time>
        <extensions>
          <ns3:TrackPointExtension/>
        </extensions>
      </trkpt>
      <trkpt lat="50.3951489366590976715087890625" lon="5.94803594984114170074462890625">
        <ele>281.79998779296875</ele>
        <time>2025-04-30T00:07:18.000Z</time>
        <extensions>
          <ns3:TrackPointExtension/>
        </extensions>
      </trkpt>
      <trkpt lat="50.39512194693088531494140625" lon="5.9478569962084293365478515625">
        <ele>281</ele>
        <time>2025-04-30T00:07:22.000Z</time>
        <extensions>
          <ns3:TrackPointExtension/>
        </extensions>
      </trkpt>
      <trkpt lat="50.39513192139565944671630859375" lon="5.947592966258525848388671875">
        <ele>282</ele>
        <time>2025-04-30T00:07:27.000Z</time>
        <extensions>
          <ns3:TrackPointExtension/>
        </extensions>
      </trkpt>
      <trkpt lat="50.3953249566256999969482421875" lon="5.94696792773902416229248046875">
        <ele>287.399993896484375</ele>
        <time>2025-04-30T00:07:32.000Z</time>
        <extensions>
          <ns3:TrackPointExtension/>
        </extensions>
      </trkpt>
      <trkpt lat="50.3953269682824611663818359375" lon="5.94690196216106414794921875">
        <ele>288</ele>
        <time>2025-04-30T00:07:36.000Z</time>
        <extensions>
          <ns3:TrackPointExtension/>
        </extensions>
      </trkpt>
      <trkpt lat="50.395301990211009979248046875" lon="5.9468209929764270782470703125">
        <ele>288.79998779296875</ele>
        <time>2025-04-30T00:07:41.000Z</time>
        <extensions>
          <ns3:TrackPointExtension/>
        </extensions>
      </trkpt>
      <trkpt lat="50.39516695775091648101806640625" lon="5.94660599716007709503173828125">
        <ele>289.20001220703125</ele>
        <time>2025-04-30T00:07:46.000Z</time>
        <extensions>
          <ns3:TrackPointExtension/>
        </extensions>
      </trkpt>
      <trkpt lat="50.3950439952313899993896484375" lon="5.9463549591600894927978515625">
        <ele>288</ele>
        <time>2025-04-30T00:07:50.000Z</time>
        <extensions>
          <ns3:TrackPointExtension/>
        </extensions>
      </trkpt>
      <trkpt lat="50.39496797136962413787841796875" lon="5.9461249597370624542236328125">
        <ele>287.399993896484375</ele>
        <time>2025-04-30T00:07:55.000Z</time>
        <extensions>
          <ns3:TrackPointExtension/>
        </extensions>
      </trkpt>
      <trkpt lat="50.39494198746979236602783203125" lon="5.9458999894559383392333984375">
        <ele>287.600006103515625</ele>
        <time>2025-04-30T00:08:00.000Z</time>
        <extensions>
          <ns3:TrackPointExtension/>
        </extensions>
      </trkpt>
      <trkpt lat="50.3949179314076900482177734375" lon="5.94518995843827724456787109375">
        <ele>287.20001220703125</ele>
        <time>2025-04-30T00:08:04.000Z</time>
        <extensions>
          <ns3:TrackPointExtension/>
        </extensions>
      </trkpt>
      <trkpt lat="50.39493896998465061187744140625" lon="5.944654941558837890625">
        <ele>288.20001220703125</ele>
        <time>2025-04-30T00:08:09.000Z</time>
        <extensions>
          <ns3:TrackPointExtension/>
        </extensions>
      </trkpt>
      <trkpt lat="50.39499093778431415557861328125" lon="5.94424791634082794189453125">
        <ele>289.20001220703125</ele>
        <time>2025-04-30T00:08:13.000Z</time>
        <extensions>
          <ns3:TrackPointExtension/>
        </extensions>
      </trkpt>
      <trkpt lat="50.39501197636127471923828125" lon="5.94339991919696331024169921875">
        <ele>286.600006103515625</ele>
        <time>2025-04-30T00:08:18.000Z</time>
        <extensions>
          <ns3:TrackPointExtension/>
        </extensions>
      </trkpt>
      <trkpt lat="50.39501197636127471923828125" lon="5.94309096224606037139892578125">
        <ele>287</ele>
        <time>2025-04-30T00:08:23.000Z</time>
        <extensions>
          <ns3:TrackPointExtension/>
        </extensions>
      </trkpt>
      <trkpt lat="50.39490795694291591644287109375" lon="5.9417559765279293060302734375">
        <ele>289.79998779296875</ele>
        <time>2025-04-30T00:08:27.000Z</time>
        <extensions>
          <ns3:TrackPointExtension/>
        </extensions>
      </trkpt>
      <trkpt lat="50.394895970821380615234375" lon="5.94113194383680820465087890625">
        <ele>291</ele>
        <time>2025-04-30T00:08:32.000Z</time>
        <extensions>
          <ns3:TrackPointExtension/>
        </extensions>
      </trkpt>
      <trkpt lat="50.3949279896914958953857421875" lon="5.94076598994433879852294921875">
        <ele>290.399993896484375</ele>
        <time>2025-04-30T00:08:37.000Z</time>
        <extensions>
          <ns3:TrackPointExtension/>
        </extensions>
      </trkpt>
      <trkpt lat="50.3949759341776371002197265625" lon="5.94043892808258533477783203125">
        <ele>290.20001220703125</ele>
        <time>2025-04-30T00:08:41.000Z</time>
        <extensions>
          <ns3:TrackPointExtension/>
        </extensions>
      </trkpt>
      <trkpt lat="50.39504894055426120758056640625" lon="5.9401929192245006561279296875">
        <ele>291.20001220703125</ele>
        <time>2025-04-30T00:08:46.000Z</time>
        <extensions>
          <ns3:TrackPointExtension/>
        </extensions>
      </trkpt>
      <trkpt lat="50.39516394026577472686767578125" lon="5.9399749897420406341552734375">
        <ele>292.600006103515625</ele>
        <time>2025-04-30T00:08:51.000Z</time>
        <extensions>
          <ns3:TrackPointExtension/>
        </extensions>
      </trkpt>
      <trkpt lat="50.3954359330236911773681640625" lon="5.9396889992058277130126953125">
        <ele>295.600006103515625</ele>
        <time>2025-04-30T00:08:55.000Z</time>
        <extensions>
          <ns3:TrackPointExtension/>
        </extensions>
      </trkpt>
      <trkpt lat="50.39715698920190334320068359375" lon="5.93810498714447021484375">
        <ele>305.600006103515625</ele>
        <time>2025-04-30T00:09:00.000Z</time>
        <extensions>
          <ns3:TrackPointExtension/>
        </extensions>
      </trkpt>
      <trkpt lat="50.39712899364531040191650390625" lon="5.9379829466342926025390625">
        <ele>305.399993896484375</ele>
        <time>2025-04-30T00:09:07.000Z</time>
        <extensions>
          <ns3:TrackPointExtension/>
        </extensions>
      </trkpt>
      <trkpt lat="50.39656095206737518310546875" lon="5.9357689507305622100830078125">
        <ele>300.79998779296875</ele>
        <time>2025-04-30T00:09:15.000Z</time>
        <extensions>
          <ns3:TrackPointExtension/>
        </extensions>
      </trkpt>
      <trkpt lat="50.39640194736421108245849609375" lon="5.9349139966070652008056640625">
        <ele>301.399993896484375</ele>
        <time>2025-04-30T00:09:23.000Z</time>
        <extensions>
          <ns3:TrackPointExtension/>
        </extensions>
      </trkpt>
      <trkpt lat="50.39640194736421108245849609375" lon="5.93468793667852878570556640625">
        <ele>301.399993896484375</ele>
        <time>2025-04-30T00:09:30.000Z</time>
        <extensions>
          <ns3:TrackPointExtension/>
        </extensions>
      </trkpt>
      <trkpt lat="50.39642994292080402374267578125" lon="5.9346449375152587890625">
        <ele>301.79998779296875</ele>
        <time>2025-04-30T00:09:31.000Z</time>
        <extensions>
          <ns3:TrackPointExtension/>
        </extensions>
      </trkpt>
      <trkpt lat="50.39645492099225521087646484375" lon="5.934526920318603515625">
        <ele>302</ele>
        <time>2025-04-30T00:09:32.000Z</time>
        <extensions>
          <ns3:TrackPointExtension/>
        </extensions>
      </trkpt>
      <trkpt lat="50.39644896984100341796875" lon="5.93446598388254642486572265625">
        <ele>302</ele>
        <time>2025-04-30T00:09:33.000Z</time>
        <extensions>
          <ns3:TrackPointExtension/>
        </extensions>
      </trkpt>
      <trkpt lat="50.39640295319259166717529296875" lon="5.9343659877777099609375">
        <ele>301.399993896484375</ele>
        <time>2025-04-30T00:09:34.000Z</time>
        <extensions>
          <ns3:TrackPointExtension/>
        </extensions>
      </trkpt>
      <trkpt lat="50.3963669948279857635498046875" lon="5.9343379922211170196533203125">
        <ele>301</ele>
        <time>2025-04-30T00:09:35.000Z</time>
        <extensions>
          <ns3:TrackPointExtension/>
        </extensions>
      </trkpt>
      <trkpt lat="50.39628795348107814788818359375" lon="5.9343389980494976043701171875">
        <ele>300.399993896484375</ele>
        <time>2025-04-30T00:09:36.000Z</time>
        <extensions>
          <ns3:TrackPointExtension/>
        </extensions>
      </trkpt>
      <trkpt lat="50.39623497985303401947021484375" lon="5.9343939833343029022216796875">
        <ele>300</ele>
        <time>2025-04-30T00:09:37.000Z</time>
        <extensions>
          <ns3:TrackPointExtension/>
        </extensions>
      </trkpt>
      <trkpt lat="50.39611193351447582244873046875" lon="5.93437797389924526214599609375">
        <ele>299.20001220703125</ele>
        <time>2025-04-30T00:09:37.000Z</time>
        <extensions>
          <ns3:TrackPointExtension/>
        </extensions>
      </trkpt>
      <trkpt lat="50.39594999514520168304443359375" lon="5.9340389259159564971923828125">
        <ele>298.600006103515625</ele>
        <time>2025-04-30T00:09:45.000Z</time>
        <extensions>
          <ns3:TrackPointExtension/>
        </extensions>
      </trkpt>
      <trkpt lat="50.3956639207899570465087890625" lon="5.9333609975874423980712890625">
        <ele>297</ele>
        <time>2025-04-30T00:09:52.000Z</time>
        <extensions>
          <ns3:TrackPointExtension/>
        </extensions>
      </trkpt>
      <trkpt lat="50.39527893997728824615478515625" lon="5.93261391855776309967041015625">
        <ele>296.20001220703125</ele>
        <time>2025-04-30T00:10:00.000Z</time>
        <extensions>
          <ns3:TrackPointExtension/>
        </extensions>
      </trkpt>
      <trkpt lat="50.3950429894030094146728515625" lon="5.93219599686563014984130859375">
        <ele>294.600006103515625</ele>
        <time>2025-04-30T00:10:07.000Z</time>
        <extensions>
          <ns3:TrackPointExtension/>
        </extensions>
      </trkpt>
      <trkpt lat="50.3949189372360706329345703125" lon="5.93186893500387668609619140625">
        <ele>293.600006103515625</ele>
        <time>2025-04-30T00:10:14.000Z</time>
        <extensions>
          <ns3:TrackPointExtension/>
        </extensions>
      </trkpt>
      <trkpt lat="50.3948689810931682586669921875" lon="5.931832976639270782470703125">
        <ele>293.20001220703125</ele>
        <time>2025-04-30T00:10:22.000Z</time>
        <extensions>
          <ns3:TrackPointExtension/>
        </extensions>
      </trkpt>
      <trkpt lat="50.394717939198017120361328125" lon="5.9316529333591461181640625">
        <ele>292.20001220703125</ele>
        <time>2025-04-30T00:10:29.000Z</time>
        <extensions>
          <ns3:TrackPointExtension/>
        </extensions>
      </trkpt>
      <trkpt lat="50.39450596086680889129638671875" lon="5.9317979402840137481689453125">
        <ele>290.600006103515625</ele>
        <time>2025-04-30T00:15:34.000Z</time>
        <extensions>
          <ns3:TrackPointExtension/>
        </extensions>
      </trkpt>
      <trkpt lat="50.3943529911339282989501953125" lon="5.93149191699922084808349609375">
        <ele>289.399993896484375</ele>
        <time>2025-04-30T00:15:41.000Z</time>
        <extensions>
          <ns3:TrackPointExtension/>
        </extensions>
      </trkpt>
      <trkpt lat="50.39421494118869304656982421875" lon="5.9310539625585079193115234375">
        <ele>289.20001220703125</ele>
        <time>2025-04-30T00:15:47.000Z</time>
        <extensions>
          <ns3:TrackPointExtension/>
        </extensions>
      </trkpt>
      <trkpt lat="50.39421494118869304656982421875" lon="5.9310539625585079193115234375">
        <ele>289.20001220703125</ele>
        <time>2025-04-30T00:15:47.000Z</time>
        <extensions>
          <ns3:TrackPointExtension/>
        </extensions>
      </trkpt>
      <trkpt lat="50.3943529911339282989501953125" lon="5.93149191699922084808349609375">
        <ele>289.399993896484375</ele>
        <time>2025-04-30T00:15:54.000Z</time>
        <extensions>
          <ns3:TrackPointExtension/>
        </extensions>
      </trkpt>
      <trkpt lat="50.39450596086680889129638671875" lon="5.9317979402840137481689453125">
        <ele>290.600006103515625</ele>
        <time>2025-04-30T00:16:00.000Z</time>
        <extensions>
          <ns3:TrackPointExtension/>
        </extensions>
      </trkpt>
      <trkpt lat="50.394717939198017120361328125" lon="5.9316529333591461181640625">
        <ele>292.20001220703125</ele>
        <time>2025-04-30T00:16:06.000Z</time>
        <extensions>
          <ns3:TrackPointExtension/>
        </extensions>
      </trkpt>
      <trkpt lat="50.39409692399203777313232421875" lon="5.930509977042675018310546875">
        <ele>291</ele>
        <time>2025-04-30T00:16:18.000Z</time>
        <extensions>
          <ns3:TrackPointExtension/>
        </extensions>
      </trkpt>
      <trkpt lat="50.3938299603760242462158203125" lon="5.9298499859869480133056640625">
        <ele>292.79998779296875</ele>
        <time>2025-04-30T00:16:31.000Z</time>
        <extensions>
          <ns3:TrackPointExtension/>
        </extensions>
      </trkpt>
      <trkpt lat="50.39374195039272308349609375" lon="5.92957095243036746978759765625">
        <ele>293.20001220703125</ele>
        <time>2025-04-30T00:16:44.000Z</time>
        <extensions>
          <ns3:TrackPointExtension/>
        </extensions>
      </trkpt>
      <trkpt lat="50.39404696784913539886474609375" lon="5.9295019693672657012939453125">
        <ele>294.79998779296875</ele>
        <time>2025-04-30T00:19:19.000Z</time>
        <extensions>
          <ns3:TrackPointExtension/>
        </extensions>
      </trkpt>
      <trkpt lat="50.394203960895538330078125" lon="5.92936593107879161834716796875">
        <ele>296.20001220703125</ele>
        <time>2025-04-30T00:21:55.000Z</time>
        <extensions>
          <ns3:TrackPointExtension/>
        </extensions>
      </trkpt>
      <trkpt lat="50.3942269273102283477783203125" lon="5.9292739816009998321533203125">
        <ele>296.399993896484375</ele>
        <time>2025-04-30T00:21:57.000Z</time>
        <extensions>
          <ns3:TrackPointExtension/>
        </extensions>
      </trkpt>
      <trkpt lat="50.39409197866916656494140625" lon="5.92900098301470279693603515625">
        <ele>296.600006103515625</ele>
        <time>2025-04-30T00:22:00.000Z</time>
        <extensions>
          <ns3:TrackPointExtension/>
        </extensions>
      </trkpt>
      <trkpt lat="50.3942949883639812469482421875" lon="5.9286939539015293121337890625">
        <ele>297.79998779296875</ele>
        <time>2025-04-30T00:22:04.000Z</time>
        <extensions>
          <ns3:TrackPointExtension/>
        </extensions>
      </trkpt>
      <trkpt lat="50.394426919519901275634765625" lon="5.928547941148281097412109375">
        <ele>299.399993896484375</ele>
        <time>2025-04-30T00:22:08.000Z</time>
        <extensions>
          <ns3:TrackPointExtension/>
        </extensions>
      </trkpt>
      <trkpt lat="50.39456396363675594329833984375" lon="5.92853394336998462677001953125">
        <ele>300.20001220703125</ele>
        <time>2025-04-30T00:22:11.000Z</time>
        <extensions>
          <ns3:TrackPointExtension/>
        </extensions>
      </trkpt>
      <trkpt lat="50.39471098221838474273681640625" lon="5.9285549819469451904296875">
        <ele>300.79998779296875</ele>
        <time>2025-04-30T00:22:15.000Z</time>
        <extensions>
          <ns3:TrackPointExtension/>
        </extensions>
      </trkpt>
      <trkpt lat="50.3950309194624423980712890625" lon="5.928661935031414031982421875">
        <ele>302.399993896484375</ele>
        <time>2025-04-30T00:22:19.000Z</time>
        <extensions>
          <ns3:TrackPointExtension/>
        </extensions>
      </trkpt>
      <trkpt lat="50.3952039219439029693603515625" lon="5.928608961403369903564453125">
        <ele>303.600006103515625</ele>
        <time>2025-04-30T00:22:23.000Z</time>
        <extensions>
          <ns3:TrackPointExtension/>
        </extensions>
      </trkpt>
      <trkpt lat="50.39504894055426120758056640625" lon="5.92836999334394931793212890625">
        <ele>304.20001220703125</ele>
        <time>2025-04-30T00:22:26.000Z</time>
        <extensions>
          <ns3:TrackPointExtension/>
        </extensions>
      </trkpt>
      <trkpt lat="50.39502094499766826629638671875" lon="5.92809992842376232147216796875">
        <ele>305.79998779296875</ele>
        <time>2025-04-30T00:22:29.000Z</time>
        <extensions>
          <ns3:TrackPointExtension/>
        </extensions>
      </trkpt>
      <trkpt lat="50.39505698718130588531494140625" lon="5.92788099311292171478271484375">
        <ele>307.600006103515625</ele>
        <time>2025-04-30T00:22:33.000Z</time>
        <extensions>
          <ns3:TrackPointExtension/>
        </extensions>
      </trkpt>
      <trkpt lat="50.39477996528148651123046875" lon="5.9274829365313053131103515625">
        <ele>308.20001220703125</ele>
        <time>2025-04-30T00:22:39.000Z</time>
        <extensions>
          <ns3:TrackPointExtension/>
        </extensions>
      </trkpt>
      <trkpt lat="50.3942889533936977386474609375" lon="5.92695395462214946746826171875">
        <ele>311.79998779296875</ele>
        <time>2025-04-30T00:22:45.000Z</time>
        <extensions>
          <ns3:TrackPointExtension/>
        </extensions>
      </trkpt>
      <trkpt lat="50.3943489678204059600830078125" lon="5.92677894048392772674560546875">
        <ele>313.79998779296875</ele>
        <time>2025-04-30T00:22:51.000Z</time>
        <extensions>
          <ns3:TrackPointExtension/>
        </extensions>
      </trkpt>
      <trkpt lat="50.39438593201339244842529296875" lon="5.9265969693660736083984375">
        <ele>316.399993896484375</ele>
        <time>2025-04-30T00:22:57.000Z</time>
        <extensions>
          <ns3:TrackPointExtension/>
        </extensions>
      </trkpt>
      <trkpt lat="50.3943999297916889190673828125" lon="5.92637593857944011688232421875">
        <ele>319.20001220703125</ele>
        <time>2025-04-30T00:23:03.000Z</time>
        <extensions>
          <ns3:TrackPointExtension/>
        </extensions>
      </trkpt>
      <trkpt lat="50.394373945891857147216796875" lon="5.9261059574782848358154296875">
        <ele>321.79998779296875</ele>
        <time>2025-04-30T00:23:09.000Z</time>
        <extensions>
          <ns3:TrackPointExtension/>
        </extensions>
      </trkpt>
      <trkpt lat="50.39439397864043712615966796875" lon="5.92606999911367893218994140625">
        <ele>322.399993896484375</ele>
        <time>2025-04-30T00:23:15.000Z</time>
        <extensions>
          <ns3:TrackPointExtension/>
        </extensions>
      </trkpt>
      <trkpt lat="50.394430942833423614501953125" lon="5.92586095444858074188232421875">
        <ele>324.600006103515625</ele>
        <time>2025-04-30T00:23:20.000Z</time>
        <extensions>
          <ns3:TrackPointExtension/>
        </extensions>
      </trkpt>
      <trkpt lat="50.39456295780837535858154296875" lon="5.9253579564392566680908203125">
        <ele>328.20001220703125</ele>
        <time>2025-04-30T00:23:25.000Z</time>
        <extensions>
          <ns3:TrackPointExtension/>
        </extensions>
      </trkpt>
      <trkpt lat="50.3936609812080860137939453125" lon="5.924867950379848480224609375">
        <ele>326.399993896484375</ele>
        <time>2025-04-30T00:23:48.000Z</time>
        <extensions>
          <ns3:TrackPointExtension/>
        </extensions>
      </trkpt>
      <trkpt lat="50.3922229818999767303466796875" lon="5.92399497516453266143798828125">
        <ele>322.399993896484375</ele>
        <time>2025-04-30T00:24:11.000Z</time>
        <extensions>
          <ns3:TrackPointExtension/>
        </extensions>
      </trkpt>
      <trkpt lat="50.39228391833603382110595703125" lon="5.92381694354116916656494140625">
        <ele>325.79998779296875</ele>
        <time>2025-04-30T00:24:13.000Z</time>
        <extensions>
          <ns3:TrackPointExtension/>
        </extensions>
      </trkpt>
      <trkpt lat="50.392189957201480865478515625" lon="5.923721976578235626220703125">
        <ele>326</ele>
        <time>2025-04-30T00:24:19.000Z</time>
        <extensions>
          <ns3:TrackPointExtension/>
        </extensions>
      </trkpt>
      <trkpt lat="50.391621999442577362060546875" lon="5.923371948301792144775390625">
        <ele>322.600006103515625</ele>
        <time>2025-04-30T00:24:24.000Z</time>
        <extensions>
          <ns3:TrackPointExtension/>
        </extensions>
      </trkpt>
      <trkpt lat="50.39146098308265209197998046875" lon="5.9232299588620662689208984375">
        <ele>323</ele>
        <time>2025-04-30T00:24:30.000Z</time>
        <extensions>
          <ns3:TrackPointExtension/>
        </extensions>
      </trkpt>
      <trkpt lat="50.39134196005761623382568359375" lon="5.923090986907482147216796875">
        <ele>323.20001220703125</ele>
        <time>2025-04-30T00:24:36.000Z</time>
        <extensions>
          <ns3:TrackPointExtension/>
        </extensions>
      </trkpt>
      <trkpt lat="50.39124992676079273223876953125" lon="5.92293198220431804656982421875">
        <ele>323.79998779296875</ele>
        <time>2025-04-30T00:24:41.000Z</time>
        <extensions>
          <ns3:TrackPointExtension/>
        </extensions>
      </trkpt>
      <trkpt lat="50.39094499312341213226318359375" lon="5.92211692593991756439208984375">
        <ele>329.600006103515625</ele>
        <time>2025-04-30T00:24:47.000Z</time>
        <extensions>
          <ns3:TrackPointExtension/>
        </extensions>
      </trkpt>
      <trkpt lat="50.390861928462982177734375" lon="5.92197191901504993438720703125">
        <ele>330.600006103515625</ele>
        <time>2025-04-30T00:24:53.000Z</time>
        <extensions>
          <ns3:TrackPointExtension/>
        </extensions>
      </trkpt>
      <trkpt lat="50.3907279856503009796142578125" lon="5.92183093540370464324951171875">
        <ele>332</ele>
        <time>2025-04-30T00:24:58.000Z</time>
        <extensions>
          <ns3:TrackPointExtension/>
        </extensions>
      </trkpt>
      <trkpt lat="50.390573926270008087158203125" lon="5.92171995900571346282958984375">
        <ele>333.79998779296875</ele>
        <time>2025-04-30T00:25:04.000Z</time>
        <extensions>
          <ns3:TrackPointExtension/>
        </extensions>
      </trkpt>
      <trkpt lat="50.39041894488036632537841796875" lon="5.9215629659593105316162109375">
        <ele>336.600006103515625</ele>
        <time>2025-04-30T00:25:10.000Z</time>
        <extensions>
          <ns3:TrackPointExtension/>
        </extensions>
      </trkpt>
      <trkpt lat="50.3903169371187686920166015625" lon="5.92141292989253997802734375">
        <ele>338.79998779296875</ele>
        <time>2025-04-30T00:25:15.000Z</time>
        <extensions>
          <ns3:TrackPointExtension/>
        </extensions>
      </trkpt>
      <trkpt lat="50.3899209760129451751708984375" lon="5.920611955225467681884765625">
        <ele>346</ele>
        <time>2025-04-30T00:25:21.000Z</time>
        <extensions>
          <ns3:TrackPointExtension/>
        </extensions>
      </trkpt>
      <trkpt lat="50.38955795578658580780029296875" lon="5.91944192536175251007080078125">
        <ele>352.600006103515625</ele>
        <time>2025-04-30T00:25:27.000Z</time>
        <extensions>
          <ns3:TrackPointExtension/>
        </extensions>
      </trkpt>
      <trkpt lat="50.38942099548876285552978515625" lon="5.9190809167921543121337890625">
        <ele>352.600006103515625</ele>
        <time>2025-04-30T00:25:32.000Z</time>
        <extensions>
          <ns3:TrackPointExtension/>
        </extensions>
      </trkpt>
      <trkpt lat="50.38929996080696582794189453125" lon="5.9186869673430919647216796875">
        <ele>352.399993896484375</ele>
        <time>2025-04-30T00:25:38.000Z</time>
        <extensions>
          <ns3:TrackPointExtension/>
        </extensions>
      </trkpt>
      <trkpt lat="50.3892259486019611358642578125" lon="5.918370969593524932861328125">
        <ele>351.600006103515625</ele>
        <time>2025-04-30T00:25:44.000Z</time>
        <extensions>
          <ns3:TrackPointExtension/>
        </extensions>
      </trkpt>
      <trkpt lat="50.3891149722039699554443359375" lon="5.91758198104798793792724609375">
        <ele>352.79998779296875</ele>
        <time>2025-04-30T00:25:49.000Z</time>
        <extensions>
          <ns3:TrackPointExtension/>
        </extensions>
      </trkpt>
      <trkpt lat="50.38910499773919582366943359375" lon="5.917277969419956207275390625">
        <ele>353.399993896484375</ele>
        <time>2025-04-30T00:25:55.000Z</time>
        <extensions>
          <ns3:TrackPointExtension/>
        </extensions>
      </trkpt>
      <trkpt lat="50.38912997581064701080322265625" lon="5.9170239977538585662841796875">
        <ele>352.79998779296875</ele>
        <time>2025-04-30T00:26:01.000Z</time>
        <extensions>
          <ns3:TrackPointExtension/>
        </extensions>
      </trkpt>
      <trkpt lat="50.38921496830880641937255859375" lon="5.9166139550507068634033203125">
        <ele>352.600006103515625</ele>
        <time>2025-04-30T00:26:06.000Z</time>
        <extensions>
          <ns3:TrackPointExtension/>
        </extensions>
      </trkpt>
      <trkpt lat="50.3894519247114658355712890625" lon="5.91577299870550632476806640625">
        <ele>356.399993896484375</ele>
        <time>2025-04-30T00:26:12.000Z</time>
        <extensions>
          <ns3:TrackPointExtension/>
        </extensions>
      </trkpt>
      <trkpt lat="50.38955292664468288421630859375" lon="5.9153499640524387359619140625">
        <ele>355.600006103515625</ele>
        <time>2025-04-30T00:26:18.000Z</time>
        <extensions>
          <ns3:TrackPointExtension/>
        </extensions>
      </trkpt>
      <trkpt lat="50.3896249271929264068603515625" lon="5.914747975766658782958984375">
        <ele>353</ele>
        <time>2025-04-30T00:26:23.000Z</time>
        <extensions>
          <ns3:TrackPointExtension/>
        </extensions>
      </trkpt>
      <trkpt lat="50.3896879591047763824462890625" lon="5.91456399299204349517822265625">
        <ele>354</ele>
        <time>2025-04-30T00:26:29.000Z</time>
        <extensions>
          <ns3:TrackPointExtension/>
        </extensions>
      </trkpt>
      <trkpt lat="50.3896809183061122894287109375" lon="5.91443792916834354400634765625">
        <ele>353.79998779296875</ele>
        <time>2025-04-30T00:26:32.000Z</time>
        <extensions>
          <ns3:TrackPointExtension/>
        </extensions>
      </trkpt>
      <trkpt lat="50.38976096548140048980712890625" lon="5.9141959436237812042236328125">
        <ele>354.399993896484375</ele>
        <time>2025-04-30T00:26:34.000Z</time>
        <extensions>
          <ns3:TrackPointExtension/>
        </extensions>
      </trkpt>
      <trkpt lat="50.390005968511104583740234375" lon="5.91363091953098773956298828125">
        <ele>357.20001220703125</ele>
        <time>2025-04-30T00:26:37.000Z</time>
        <extensions>
          <ns3:TrackPointExtension/>
        </extensions>
      </trkpt>
      <trkpt lat="50.3900339640676975250244140625" lon="5.9135109744966030120849609375">
        <ele>358.20001220703125</ele>
        <time>2025-04-30T00:26:40.000Z</time>
        <extensions>
          <ns3:TrackPointExtension/>
        </extensions>
      </trkpt>
      <trkpt lat="50.39001694880425930023193359375" lon="5.91340695507824420928955078125">
        <ele>358.399993896484375</ele>
        <time>2025-04-30T00:26:42.000Z</time>
        <extensions>
          <ns3:TrackPointExtension/>
        </extensions>
      </trkpt>
      <trkpt lat="50.38996699266135692596435546875" lon="5.9133319370448589324951171875">
        <ele>357.79998779296875</ele>
        <time>2025-04-30T00:26:45.000Z</time>
        <extensions>
          <ns3:TrackPointExtension/>
        </extensions>
      </trkpt>
      <trkpt lat="50.38987093605101108551025390625" lon="5.9132729284465312957763671875">
        <ele>357.20001220703125</ele>
        <time>2025-04-30T00:26:48.000Z</time>
        <extensions>
          <ns3:TrackPointExtension/>
        </extensions>
      </trkpt>
      <trkpt lat="50.3897489793598651885986328125" lon="5.9131099842488765716552734375">
        <ele>356.79998779296875</ele>
        <time>2025-04-30T00:26:54.000Z</time>
        <extensions>
          <ns3:TrackPointExtension/>
        </extensions>
      </trkpt>
      <trkpt lat="50.38967899046838283538818359375" lon="5.91292398981750011444091796875">
        <ele>356.600006103515625</ele>
        <time>2025-04-30T00:27:00.000Z</time>
        <extensions>
          <ns3:TrackPointExtension/>
        </extensions>
      </trkpt>
      <trkpt lat="50.38958293385803699493408203125" lon="5.9125349856913089752197265625">
        <ele>355.399993896484375</ele>
        <time>2025-04-30T00:27:05.000Z</time>
        <extensions>
          <ns3:TrackPointExtension/>
        </extensions>
      </trkpt>
      <trkpt lat="50.38947899825870990753173828125" lon="5.91170199215412139892578125">
        <ele>358</ele>
        <time>2025-04-30T00:27:11.000Z</time>
        <extensions>
          <ns3:TrackPointExtension/>
        </extensions>
      </trkpt>
      <trkpt lat="50.389433987438678741455078125" lon="5.91118994168937206268310546875">
        <ele>359.600006103515625</ele>
        <time>2025-04-30T00:27:17.000Z</time>
        <extensions>
          <ns3:TrackPointExtension/>
        </extensions>
      </trkpt>
      <trkpt lat="50.38946491666138172149658203125" lon="5.91010699979960918426513671875">
        <ele>365.20001220703125</ele>
        <time>2025-04-30T00:27:23.000Z</time>
        <extensions>
          <ns3:TrackPointExtension/>
        </extensions>
      </trkpt>
      <trkpt lat="50.389435999095439910888671875" lon="5.90978396125137805938720703125">
        <ele>365.79998779296875</ele>
        <time>2025-04-30T00:27:29.000Z</time>
        <extensions>
          <ns3:TrackPointExtension/>
        </extensions>
      </trkpt>
      <trkpt lat="50.3893469832837581634521484375" lon="5.90922094881534576416015625">
        <ele>367</ele>
        <time>2025-04-30T00:27:35.000Z</time>
        <extensions>
          <ns3:TrackPointExtension/>
        </extensions>
      </trkpt>
      <trkpt lat="50.38894993253052234649658203125" lon="5.90742395259439945220947265625">
        <ele>371.399993896484375</ele>
        <time>2025-04-30T00:27:41.000Z</time>
        <extensions>
          <ns3:TrackPointExtension/>
        </extensions>
      </trkpt>
      <trkpt lat="50.3888199292123317718505859375" lon="5.90629692189395427703857421875">
        <ele>377.399993896484375</ele>
        <time>2025-04-30T00:27:47.000Z</time>
        <extensions>
          <ns3:TrackPointExtension/>
        </extensions>
      </trkpt>
      <trkpt lat="50.38869696669280529022216796875" lon="5.9055979549884796142578125">
        <ele>377.79998779296875</ele>
        <time>2025-04-30T00:27:53.000Z</time>
        <extensions>
          <ns3:TrackPointExtension/>
        </extensions>
      </trkpt>
      <trkpt lat="50.38855598308145999908447265625" lon="5.9049319289624691009521484375">
        <ele>380.600006103515625</ele>
        <time>2025-04-30T00:27:59.000Z</time>
        <extensions>
          <ns3:TrackPointExtension/>
        </extensions>
      </trkpt>
      <trkpt lat="50.3883039392530918121337890625" lon="5.903415977954864501953125">
        <ele>387.399993896484375</ele>
        <time>2025-04-30T00:28:05.000Z</time>
        <extensions>
          <ns3:TrackPointExtension/>
        </extensions>
      </trkpt>
      <trkpt lat="50.3882529772818088531494140625" lon="5.90318195521831512451171875">
        <ele>388.600006103515625</ele>
        <time>2025-04-30T00:28:11.000Z</time>
        <extensions>
          <ns3:TrackPointExtension/>
        </extensions>
      </trkpt>
      <trkpt lat="50.387878976762294769287109375" lon="5.9021169506013393402099609375">
        <ele>392.399993896484375</ele>
        <time>2025-04-30T00:28:17.000Z</time>
        <extensions>
          <ns3:TrackPointExtension/>
        </extensions>
      </trkpt>
      <trkpt lat="50.3874729573726654052734375" lon="5.90084197930991649627685546875">
        <ele>384.600006103515625</ele>
        <time>2025-04-30T00:28:23.000Z</time>
        <extensions>
          <ns3:TrackPointExtension/>
        </extensions>
      </trkpt>
      <trkpt lat="50.3870389424264430999755859375" lon="5.899382941424846649169921875">
        <ele>379.399993896484375</ele>
        <time>2025-04-30T00:28:29.000Z</time>
        <extensions>
          <ns3:TrackPointExtension/>
        </extensions>
      </trkpt>
      <trkpt lat="50.38677197881042957305908203125" lon="5.89859697036445140838623046875">
        <ele>378.79998779296875</ele>
        <time>2025-04-30T00:28:35.000Z</time>
        <extensions>
          <ns3:TrackPointExtension/>
        </extensions>
      </trkpt>
      <trkpt lat="50.3865839727222919464111328125" lon="5.89810998179018497467041015625">
        <ele>375.79998779296875</ele>
        <time>2025-04-30T00:28:41.000Z</time>
        <extensions>
          <ns3:TrackPointExtension/>
        </extensions>
      </trkpt>
      <trkpt lat="50.3864649496972560882568359375" lon="5.89795893989503383636474609375">
        <ele>375.79998779296875</ele>
        <time>2025-04-30T00:28:47.000Z</time>
        <extensions>
          <ns3:TrackPointExtension/>
        </extensions>
      </trkpt>
      <trkpt lat="50.38625598885118961334228515625" lon="5.897827930748462677001953125">
        <ele>374</ele>
        <time>2025-04-30T00:28:53.000Z</time>
        <extensions>
          <ns3:TrackPointExtension/>
        </extensions>
      </trkpt>
      <trkpt lat="50.385981984436511993408203125" lon="5.89752894826233386993408203125">
        <ele>373.399993896484375</ele>
        <time>2025-04-30T00:28:59.000Z</time>
        <extensions>
          <ns3:TrackPointExtension/>
        </extensions>
      </trkpt>
      <trkpt lat="50.38576698862016201019287109375" lon="5.89721295051276683807373046875">
        <ele>374</ele>
        <time>2025-04-30T00:29:05.000Z</time>
        <extensions>
          <ns3:TrackPointExtension/>
        </extensions>
      </trkpt>
      <trkpt lat="50.38527597673237323760986328125" lon="5.8963599242269992828369140625">
        <ele>379</ele>
        <time>2025-04-30T00:29:11.000Z</time>
        <extensions>
          <ns3:TrackPointExtension/>
        </extensions>
      </trkpt>
      <trkpt lat="50.38506994955241680145263671875" lon="5.89575299061834812164306640625">
        <ele>383.79998779296875</ele>
        <time>2025-04-30T00:29:16.000Z</time>
        <extensions>
          <ns3:TrackPointExtension/>
        </extensions>
      </trkpt>
      <trkpt lat="50.38429093547165393829345703125" lon="5.89393897913396358489990234375">
        <ele>394.399993896484375</ele>
        <time>2025-04-30T00:29:22.000Z</time>
        <extensions>
          <ns3:TrackPointExtension/>
        </extensions>
      </trkpt>
      <trkpt lat="50.3842199407517910003662109375" lon="5.89368098415434360504150390625">
        <ele>395.79998779296875</ele>
        <time>2025-04-30T00:29:28.000Z</time>
        <extensions>
          <ns3:TrackPointExtension/>
        </extensions>
      </trkpt>
      <trkpt lat="50.384135954082012176513671875" lon="5.89321897365152835845947265625">
        <ele>397.79998779296875</ele>
        <time>2025-04-30T00:29:34.000Z</time>
        <extensions>
          <ns3:TrackPointExtension/>
        </extensions>
      </trkpt>
      <trkpt lat="50.38411893881857395172119140625" lon="5.89300892315804958343505859375">
        <ele>398.600006103515625</ele>
        <time>2025-04-30T00:29:39.000Z</time>
        <extensions>
          <ns3:TrackPointExtension/>
        </extensions>
      </trkpt>
      <trkpt lat="50.3841079585254192352294921875" lon="5.892018936574459075927734375">
        <ele>402</ele>
        <time>2025-04-30T00:29:45.000Z</time>
        <extensions>
          <ns3:TrackPointExtension/>
        </extensions>
      </trkpt>
      <trkpt lat="50.384082980453968048095703125" lon="5.89137596078217029571533203125">
        <ele>405</ele>
        <time>2025-04-30T00:29:51.000Z</time>
        <extensions>
          <ns3:TrackPointExtension/>
        </extensions>
      </trkpt>
      <trkpt lat="50.38408197462558746337890625" lon="5.89057297445833683013916015625">
        <ele>406.399993896484375</ele>
        <time>2025-04-30T00:29:57.000Z</time>
        <extensions>
          <ns3:TrackPointExtension/>
        </extensions>
      </trkpt>
      <trkpt lat="50.38400997407734394073486328125" lon="5.89040097780525684356689453125">
        <ele>405.600006103515625</ele>
        <time>2025-04-30T00:30:01.000Z</time>
        <extensions>
          <ns3:TrackPointExtension/>
        </extensions>
      </trkpt>
      <trkpt lat="50.38346699438989162445068359375" lon="5.88883892633020877838134765625">
        <ele>393.20001220703125</ele>
        <time>2025-04-30T00:30:05.000Z</time>
        <extensions>
          <ns3:TrackPointExtension/>
        </extensions>
      </trkpt>
      <trkpt lat="50.3834109194576740264892578125" lon="5.88860993273556232452392578125">
        <ele>391</ele>
        <time>2025-04-30T00:30:09.000Z</time>
        <extensions>
          <ns3:TrackPointExtension/>
        </extensions>
      </trkpt>
      <trkpt lat="50.3834109194576740264892578125" lon="5.88838194496929645538330078125">
        <ele>388.20001220703125</ele>
        <time>2025-04-30T00:30:13.000Z</time>
        <extensions>
          <ns3:TrackPointExtension/>
        </extensions>
      </trkpt>
      <trkpt lat="50.38345299661159515380859375" lon="5.8881419710814952850341796875">
        <ele>384</ele>
        <time>2025-04-30T00:30:18.000Z</time>
        <extensions>
          <ns3:TrackPointExtension/>
        </extensions>
      </trkpt>
      <trkpt lat="50.3835259191691875457763671875" lon="5.88792898692190647125244140625">
        <ele>380</ele>
        <time>2025-04-30T00:30:22.000Z</time>
        <extensions>
          <ns3:TrackPointExtension/>
        </extensions>
      </trkpt>
      <trkpt lat="50.383618958294391632080078125" lon="5.88772497139871120452880859375">
        <ele>376.600006103515625</ele>
        <time>2025-04-30T00:30:26.000Z</time>
        <extensions>
          <ns3:TrackPointExtension/>
        </extensions>
      </trkpt>
      <trkpt lat="50.38374795578420162200927734375" lon="5.88755599223077297210693359375">
        <ele>374.20001220703125</ele>
        <time>2025-04-30T00:30:30.000Z</time>
        <extensions>
          <ns3:TrackPointExtension/>
        </extensions>
      </trkpt>
      <trkpt lat="50.38386697880923748016357421875" lon="5.88745792396366596221923828125">
        <ele>372.600006103515625</ele>
        <time>2025-04-30T00:30:34.000Z</time>
        <extensions>
          <ns3:TrackPointExtension/>
        </extensions>
      </trkpt>
      <trkpt lat="50.38397896103560924530029296875" lon="5.8873979933559894561767578125">
        <ele>370.399993896484375</ele>
        <time>2025-04-30T00:30:38.000Z</time>
        <extensions>
          <ns3:TrackPointExtension/>
        </extensions>
      </trkpt>
      <trkpt lat="50.3841069526970386505126953125" lon="5.88738399557769298553466796875">
        <ele>368.79998779296875</ele>
        <time>2025-04-30T00:30:43.000Z</time>
        <extensions>
          <ns3:TrackPointExtension/>
        </extensions>
      </trkpt>
      <trkpt lat="50.386033952236175537109375" lon="5.887713991105556488037109375">
        <ele>349.20001220703125</ele>
        <time>2025-04-30T00:30:47.000Z</time>
        <extensions>
          <ns3:TrackPointExtension/>
        </extensions>
      </trkpt>
      <trkpt lat="50.3861749358475208282470703125" lon="5.8877129852771759033203125">
        <ele>348.600006103515625</ele>
        <time>2025-04-30T00:30:51.000Z</time>
        <extensions>
          <ns3:TrackPointExtension/>
        </extensions>
      </trkpt>
      <trkpt lat="50.38641893304884433746337890625" lon="5.88760393671691417694091796875">
        <ele>347</ele>
        <time>2025-04-30T00:30:55.000Z</time>
        <extensions>
          <ns3:TrackPointExtension/>
        </extensions>
      </trkpt>
      <trkpt lat="50.3867539577186107635498046875" lon="5.88735298253595829010009765625">
        <ele>340.600006103515625</ele>
        <time>2025-04-30T00:30:59.000Z</time>
        <extensions>
          <ns3:TrackPointExtension/>
        </extensions>
      </trkpt>
      <trkpt lat="50.387180931866168975830078125" lon="5.8869379945099353790283203125">
        <ele>328.20001220703125</ele>
        <time>2025-04-30T00:31:03.000Z</time>
        <extensions>
          <ns3:TrackPointExtension/>
        </extensions>
      </trkpt>
      <trkpt lat="50.3873869590461254119873046875" lon="5.88677898980677127838134765625">
        <ele>323.79998779296875</ele>
        <time>2025-04-30T00:31:07.000Z</time>
        <extensions>
          <ns3:TrackPointExtension/>
        </extensions>
      </trkpt>
      <trkpt lat="50.38769298233091831207275390625" lon="5.88655896484851837158203125">
        <ele>316</ele>
        <time>2025-04-30T00:31:12.000Z</time>
        <extensions>
          <ns3:TrackPointExtension/>
        </extensions>
      </trkpt>
      <trkpt lat="50.38806497119367122650146484375" lon="5.8862959407269954681396484375">
        <ele>311</ele>
        <time>2025-04-30T00:31:17.000Z</time>
        <extensions>
          <ns3:TrackPointExtension/>
        </extensions>
      </trkpt>
      <trkpt lat="50.38832698948681354522705078125" lon="5.8860639296472072601318359375">
        <ele>309.399993896484375</ele>
        <time>2025-04-30T00:31:22.000Z</time>
        <extensions>
          <ns3:TrackPointExtension/>
        </extensions>
      </trkpt>
      <trkpt lat="50.38843997754156589508056640625" lon="5.88593292050063610076904296875">
        <ele>307.399993896484375</ele>
        <time>2025-04-30T00:31:27.000Z</time>
        <extensions>
          <ns3:TrackPointExtension/>
        </extensions>
      </trkpt>
      <trkpt lat="50.38920499384403228759765625" lon="5.88473196141421794891357421875">
        <ele>292.399993896484375</ele>
        <time>2025-04-30T00:31:32.000Z</time>
        <extensions>
          <ns3:TrackPointExtension/>
        </extensions>
      </trkpt>
      <trkpt lat="50.3896359913051128387451171875" lon="5.88427799753844738006591796875">
        <ele>280.600006103515625</ele>
        <time>2025-04-30T00:31:37.000Z</time>
        <extensions>
          <ns3:TrackPointExtension/>
        </extensions>
      </trkpt>
      <trkpt lat="50.3897399269044399261474609375" lon="5.884145982563495635986328125">
        <ele>278.79998779296875</ele>
        <time>2025-04-30T00:31:42.000Z</time>
        <extensions>
          <ns3:TrackPointExtension/>
        </extensions>
      </trkpt>
      <trkpt lat="50.39005299098789691925048828125" lon="5.883395969867706298828125">
        <ele>274.600006103515625</ele>
        <time>2025-04-30T00:31:47.000Z</time>
        <extensions>
          <ns3:TrackPointExtension/>
        </extensions>
      </trkpt>
      <trkpt lat="50.3902059607207775115966796875" lon="5.883168987929821014404296875">
        <ele>272</ele>
        <time>2025-04-30T00:31:52.000Z</time>
        <extensions>
          <ns3:TrackPointExtension/>
        </extensions>
      </trkpt>
      <trkpt lat="50.390402935445308685302734375" lon="5.8829659782350063323974609375">
        <ele>269.20001220703125</ele>
        <time>2025-04-30T00:31:57.000Z</time>
        <extensions>
          <ns3:TrackPointExtension/>
        </extensions>
      </trkpt>
      <trkpt lat="50.390691943466663360595703125" lon="5.88274897076189517974853515625">
        <ele>266.600006103515625</ele>
        <time>2025-04-30T00:32:02.000Z</time>
        <extensions>
          <ns3:TrackPointExtension/>
        </extensions>
      </trkpt>
      <trkpt lat="50.39091699756681919097900390625" lon="5.88241495192050933837890625">
        <ele>263.600006103515625</ele>
        <time>2025-04-30T00:32:07.000Z</time>
        <extensions>
          <ns3:TrackPointExtension/>
        </extensions>
      </trkpt>
      <trkpt lat="50.39119091816246509552001953125" lon="5.88213793002068996429443359375">
        <ele>261.20001220703125</ele>
        <time>2025-04-30T00:32:12.000Z</time>
        <extensions>
          <ns3:TrackPointExtension/>
        </extensions>
      </trkpt>
      <trkpt lat="50.39122394286096096038818359375" lon="5.88207699358463287353515625">
        <ele>260.79998779296875</ele>
        <time>2025-04-30T00:32:17.000Z</time>
        <extensions>
          <ns3:TrackPointExtension/>
        </extensions>
      </trkpt>
      <trkpt lat="50.39128093980252742767333984375" lon="5.88167198002338409423828125">
        <ele>256.79998779296875</ele>
        <time>2025-04-30T00:32:22.000Z</time>
        <extensions>
          <ns3:TrackPointExtension/>
        </extensions>
      </trkpt>
      <trkpt lat="50.39124892093241214752197265625" lon="5.88151498697698116302490234375">
        <ele>254.600006103515625</ele>
        <time>2025-04-30T00:32:27.000Z</time>
        <extensions>
          <ns3:TrackPointExtension/>
        </extensions>
      </trkpt>
      <trkpt lat="50.39108396507799625396728515625" lon="5.88154097087681293487548828125">
        <ele>252.600006103515625</ele>
        <time>2025-04-30T00:32:30.000Z</time>
        <extensions>
          <ns3:TrackPointExtension/>
        </extensions>
      </trkpt>
      <trkpt lat="50.39110399782657623291015625" lon="5.8813009969890117645263671875">
        <ele>248.1999969482421875</ele>
        <time>2025-04-30T00:32:32.000Z</time>
        <extensions>
          <ns3:TrackPointExtension/>
        </extensions>
      </trkpt>
      <trkpt lat="50.391094945371150970458984375" lon="5.88125095702707767486572265625">
        <ele>247</ele>
        <time>2025-04-30T00:32:34.000Z</time>
        <extensions>
          <ns3:TrackPointExtension/>
        </extensions>
      </trkpt>
      <trkpt lat="50.39128093980252742767333984375" lon="5.8811829797923564910888671875">
        <ele>249.1999969482421875</ele>
        <time>2025-04-30T00:32:38.000Z</time>
        <extensions>
          <ns3:TrackPointExtension/>
        </extensions>
      </trkpt>
      <trkpt lat="50.3915219195187091827392578125" lon="5.88105398230254650115966796875">
        <ele>249.8000030517578125</ele>
        <time>2025-04-30T00:32:43.000Z</time>
        <extensions>
          <ns3:TrackPointExtension/>
        </extensions>
      </trkpt>
      <trkpt lat="50.3916379250586032867431640625" lon="5.88094099424779415130615234375">
        <ele>249</ele>
        <time>2025-04-30T00:32:47.000Z</time>
        <extensions>
          <ns3:TrackPointExtension/>
        </extensions>
      </trkpt>
      <trkpt lat="50.39191997610032558441162109375" lon="5.8805449493229389190673828125">
        <ele>244.399993896484375</ele>
        <time>2025-04-30T00:32:52.000Z</time>
        <extensions>
          <ns3:TrackPointExtension/>
        </extensions>
      </trkpt>
      <trkpt lat="50.39239992387592792510986328125" lon="5.88015594519674777984619140625">
        <ele>245.399993896484375</ele>
        <time>2025-04-30T00:32:57.000Z</time>
        <extensions>
          <ns3:TrackPointExtension/>
        </extensions>
      </trkpt>
      <trkpt lat="50.39275799877941608428955078125" lon="5.879715979099273681640625">
        <ele>244.600006103515625</ele>
        <time>2025-04-30T00:33:01.000Z</time>
        <extensions>
          <ns3:TrackPointExtension/>
        </extensions>
      </trkpt>
      <trkpt lat="50.392944999039173126220703125" lon="5.8794499374926090240478515625">
        <ele>245.8000030517578125</ele>
        <time>2025-04-30T00:33:06.000Z</time>
        <extensions>
          <ns3:TrackPointExtension/>
        </extensions>
      </trkpt>
      <trkpt lat="50.3935989551246166229248046875" lon="5.87811595760285854339599609375">
        <ele>242.399993896484375</ele>
        <time>2025-04-30T00:33:10.000Z</time>
        <extensions>
          <ns3:TrackPointExtension/>
        </extensions>
      </trkpt>
      <trkpt lat="50.3937139548361301422119140625" lon="5.87804496288299560546875">
        <ele>241.8000030517578125</ele>
        <time>2025-04-30T00:33:15.000Z</time>
        <extensions>
          <ns3:TrackPointExtension/>
        </extensions>
      </trkpt>
      <trkpt lat="50.39377992041409015655517578125" lon="5.878045968711376190185546875">
        <ele>241.8000030517578125</ele>
        <time>2025-04-30T00:33:19.000Z</time>
        <extensions>
          <ns3:TrackPointExtension/>
        </extensions>
      </trkpt>
      <trkpt lat="50.39378394372761249542236328125" lon="5.87789098732173442840576171875">
        <ele>238.399993896484375</ele>
        <time>2025-04-30T00:34:23.000Z</time>
        <extensions>
          <ns3:TrackPointExtension/>
        </extensions>
      </trkpt>
      <trkpt lat="50.3937659226357936859130859375" lon="5.87771597318351268768310546875">
        <ele>236.600006103515625</ele>
        <time>2025-04-30T00:35:26.000Z</time>
        <extensions>
          <ns3:TrackPointExtension/>
        </extensions>
      </trkpt>
      <trkpt lat="50.39370498619973659515380859375" lon="5.877580940723419189453125">
        <ele>235.399993896484375</ele>
        <time>2025-04-30T00:36:30.000Z</time>
        <extensions>
          <ns3:TrackPointExtension/>
        </extensions>
      </trkpt>
      <trkpt lat="50.3935999609529972076416015625" lon="5.8772149868309497833251953125">
        <ele>233</ele>
        <time>2025-04-30T00:37:33.000Z</time>
        <extensions>
          <ns3:TrackPointExtension/>
        </extensions>
      </trkpt>
      <trkpt lat="50.39344196207821369171142578125" lon="5.87676898576319217681884765625">
        <ele>232</ele>
        <time>2025-04-30T00:38:36.000Z</time>
        <extensions>
          <ns3:TrackPointExtension/>
        </extensions>
      </trkpt>
      <trkpt lat="50.39344196207821369171142578125" lon="5.87676898576319217681884765625">
        <ele>232</ele>
        <time>2025-04-30T00:38:36.000Z</time>
        <extensions>
          <ns3:TrackPointExtension/>
        </extensions>
      </trkpt>
      <trkpt lat="50.3935999609529972076416015625" lon="5.8772149868309497833251953125">
        <ele>233</ele>
        <time>2025-04-30T00:38:42.000Z</time>
        <extensions>
          <ns3:TrackPointExtension/>
        </extensions>
      </trkpt>
      <trkpt lat="50.39370498619973659515380859375" lon="5.877580940723419189453125">
        <ele>235.399993896484375</ele>
        <time>2025-04-30T00:38:47.000Z</time>
        <extensions>
          <ns3:TrackPointExtension/>
        </extensions>
      </trkpt>
      <trkpt lat="50.3937139548361301422119140625" lon="5.87804496288299560546875">
        <ele>241.8000030517578125</ele>
        <time>2025-04-30T00:38:53.000Z</time>
        <extensions>
          <ns3:TrackPointExtension/>
        </extensions>
      </trkpt>
      <trkpt lat="50.39377992041409015655517578125" lon="5.878045968711376190185546875">
        <ele>241.8000030517578125</ele>
        <time>2025-04-30T00:38:55.000Z</time>
        <extensions>
          <ns3:TrackPointExtension/>
        </extensions>
      </trkpt>
      <trkpt lat="50.3938839398324489593505859375" lon="5.8780999481678009033203125">
        <ele>242.399993896484375</ele>
        <time>2025-04-30T00:38:58.000Z</time>
        <extensions>
          <ns3:TrackPointExtension/>
        </extensions>
      </trkpt>
      <trkpt lat="50.39477099664509296417236328125" lon="5.87885892949998378753662109375">
        <ele>246.399993896484375</ele>
        <time>2025-04-30T00:39:01.000Z</time>
        <extensions>
          <ns3:TrackPointExtension/>
        </extensions>
      </trkpt>
      <trkpt lat="50.3950909338891506195068359375" lon="5.87908691726624965667724609375">
        <ele>245.600006103515625</ele>
        <time>2025-04-30T00:39:04.000Z</time>
        <extensions>
          <ns3:TrackPointExtension/>
        </extensions>
      </trkpt>
      <trkpt lat="50.3954739868640899658203125" lon="5.87927198968827724456787109375">
        <ele>243</ele>
        <time>2025-04-30T00:39:07.000Z</time>
        <extensions>
          <ns3:TrackPointExtension/>
        </extensions>
      </trkpt>
      <trkpt lat="50.39571295492351055145263671875" lon="5.8793339319527149200439453125">
        <ele>241.600006103515625</ele>
        <time>2025-04-30T00:39:10.000Z</time>
        <extensions>
          <ns3:TrackPointExtension/>
        </extensions>
      </trkpt>
      <trkpt lat="50.39592392742633819580078125" lon="5.87935094721615314483642578125">
        <ele>239.8000030517578125</ele>
        <time>2025-04-30T00:39:13.000Z</time>
        <extensions>
          <ns3:TrackPointExtension/>
        </extensions>
      </trkpt>
      <trkpt lat="50.3961839340627193450927734375" lon="5.87932395748794078826904296875">
        <ele>238.399993896484375</ele>
        <time>2025-04-30T00:39:16.000Z</time>
        <extensions>
          <ns3:TrackPointExtension/>
        </extensions>
      </trkpt>
      <trkpt lat="50.39651392959058284759521484375" lon="5.87924592196941375732421875">
        <ele>237.8000030517578125</ele>
        <time>2025-04-30T00:39:19.000Z</time>
        <extensions>
          <ns3:TrackPointExtension/>
        </extensions>
      </trkpt>
      <trkpt lat="50.39706596173346042633056640625" lon="5.8790559880435466766357421875">
        <ele>233.8000030517578125</ele>
        <time>2025-04-30T00:39:22.000Z</time>
        <extensions>
          <ns3:TrackPointExtension/>
        </extensions>
      </trkpt>
      <trkpt lat="50.39749293588101863861083984375" lon="5.8787599392235279083251953125">
        <ele>230.1999969482421875</ele>
        <time>2025-04-30T00:39:25.000Z</time>
        <extensions>
          <ns3:TrackPointExtension/>
        </extensions>
      </trkpt>
      <trkpt lat="50.3978209197521209716796875" lon="5.87848492898046970367431640625">
        <ele>230.8000030517578125</ele>
        <time>2025-04-30T00:39:28.000Z</time>
        <extensions>
          <ns3:TrackPointExtension/>
        </extensions>
      </trkpt>
      <trkpt lat="50.39813197217881679534912109375" lon="5.87814495898783206939697265625">
        <ele>230.8000030517578125</ele>
        <time>2025-04-30T00:39:31.000Z</time>
        <extensions>
          <ns3:TrackPointExtension/>
        </extensions>
      </trkpt>
      <trkpt lat="50.398346967995166778564453125" lon="5.87786198593676090240478515625">
        <ele>231.600006103515625</ele>
        <time>2025-04-30T00:39:34.000Z</time>
        <extensions>
          <ns3:TrackPointExtension/>
        </extensions>
      </trkpt>
      <trkpt lat="50.39858392439782619476318359375" lon="5.877473987638950347900390625">
        <ele>232</ele>
        <time>2025-04-30T00:39:37.000Z</time>
        <extensions>
          <ns3:TrackPointExtension/>
        </extensions>
      </trkpt>
      <trkpt lat="50.3988079726696014404296875" lon="5.8770389668643474578857421875">
        <ele>233</ele>
        <time>2025-04-30T00:39:40.000Z</time>
        <extensions>
          <ns3:TrackPointExtension/>
        </extensions>
      </trkpt>
      <trkpt lat="50.39896395988762378692626953125" lon="5.87667795829474925994873046875">
        <ele>231.600006103515625</ele>
        <time>2025-04-30T00:39:42.000Z</time>
        <extensions>
          <ns3:TrackPointExtension/>
        </extensions>
      </trkpt>
      <trkpt lat="50.39907493628561496734619140625" lon="5.876368917524814605712890625">
        <ele>229.1999969482421875</ele>
        <time>2025-04-30T00:39:45.000Z</time>
        <extensions>
          <ns3:TrackPointExtension/>
        </extensions>
      </trkpt>
      <trkpt lat="50.399260930716991424560546875" lon="5.8757089264690876007080078125">
        <ele>230.399993896484375</ele>
        <time>2025-04-30T00:39:48.000Z</time>
        <extensions>
          <ns3:TrackPointExtension/>
        </extensions>
      </trkpt>
      <trkpt lat="50.3993589989840984344482421875" lon="5.87515898980200290679931640625">
        <ele>230.8000030517578125</ele>
        <time>2025-04-30T00:39:51.000Z</time>
        <extensions>
          <ns3:TrackPointExtension/>
        </extensions>
      </trkpt>
      <trkpt lat="50.39941691793501377105712890625" lon="5.87438098154962062835693359375">
        <ele>229.399993896484375</ele>
        <time>2025-04-30T00:39:54.000Z</time>
        <extensions>
          <ns3:TrackPointExtension/>
        </extensions>
      </trkpt>
      <trkpt lat="50.39942094124853610992431640625" lon="5.8740399219095706939697265625">
        <ele>228.399993896484375</ele>
        <time>2025-04-30T00:39:57.000Z</time>
        <extensions>
          <ns3:TrackPointExtension/>
        </extensions>
      </trkpt>
      <trkpt lat="50.3994059376418590545654296875" lon="5.87367899715900421142578125">
        <ele>227.8000030517578125</ele>
        <time>2025-04-30T00:40:00.000Z</time>
        <extensions>
          <ns3:TrackPointExtension/>
        </extensions>
      </trkpt>
      <trkpt lat="50.39910997264087200164794921875" lon="5.87042992003262042999267578125">
        <ele>221</ele>
        <time>2025-04-30T00:40:03.000Z</time>
        <extensions>
          <ns3:TrackPointExtension/>
        </extensions>
      </trkpt>
      <trkpt lat="50.3991179354488849639892578125" lon="5.87018399499356746673583984375">
        <ele>221.399993896484375</ele>
        <time>2025-04-30T00:40:06.000Z</time>
        <extensions>
          <ns3:TrackPointExtension/>
        </extensions>
      </trkpt>
      <trkpt lat="50.3991759382188320159912109375" lon="5.8697379939258098602294921875">
        <ele>223.1999969482421875</ele>
        <time>2025-04-30T00:40:09.000Z</time>
        <extensions>
          <ns3:TrackPointExtension/>
        </extensions>
      </trkpt>
      <trkpt lat="50.39927593432366847991943359375" lon="5.8693349920213222503662109375">
        <ele>224.1999969482421875</ele>
        <time>2025-04-30T00:40:12.000Z</time>
        <extensions>
          <ns3:TrackPointExtension/>
        </extensions>
      </trkpt>
      <trkpt lat="50.39950995706021785736083984375" lon="5.86882394738495349884033203125">
        <ele>223.8000030517578125</ele>
        <time>2025-04-30T00:40:15.000Z</time>
        <extensions>
          <ns3:TrackPointExtension/>
        </extensions>
      </trkpt>
      <trkpt lat="50.40091694332659244537353515625" lon="5.86623997427523136138916015625">
        <ele>223.8000030517578125</ele>
        <time>2025-04-30T00:40:18.000Z</time>
        <extensions>
          <ns3:TrackPointExtension/>
        </extensions>
      </trkpt>
      <trkpt lat="50.40134693495929241180419921875" lon="5.865625999867916107177734375">
        <ele>225.399993896484375</ele>
        <time>2025-04-30T00:40:21.000Z</time>
        <extensions>
          <ns3:TrackPointExtension/>
        </extensions>
      </trkpt>
      <trkpt lat="50.4021179862320423126220703125" lon="5.86462394334375858306884765625">
        <ele>224.8000030517578125</ele>
        <time>2025-04-30T00:40:24.000Z</time>
        <extensions>
          <ns3:TrackPointExtension/>
        </extensions>
      </trkpt>
      <trkpt lat="50.40230398066341876983642578125" lon="5.86431196890771389007568359375">
        <ele>223.8000030517578125</ele>
        <time>2025-04-30T00:40:26.000Z</time>
        <extensions>
          <ns3:TrackPointExtension/>
        </extensions>
      </trkpt>
      <trkpt lat="50.40281393565237522125244140625" lon="5.8633489720523357391357421875">
        <ele>222.600006103515625</ele>
        <time>2025-04-30T00:40:29.000Z</time>
        <extensions>
          <ns3:TrackPointExtension/>
        </extensions>
      </trkpt>
      <trkpt lat="50.40289096534252166748046875" lon="5.86324696429073810577392578125">
        <ele>223.1999969482421875</ele>
        <time>2025-04-30T00:40:32.000Z</time>
        <extensions>
          <ns3:TrackPointExtension/>
        </extensions>
      </trkpt>
      <trkpt lat="50.4029769636690616607666015625" lon="5.8631749637424945831298828125">
        <ele>223</ele>
        <time>2025-04-30T00:40:35.000Z</time>
        <extensions>
          <ns3:TrackPointExtension/>
        </extensions>
      </trkpt>
      <trkpt lat="50.4031719267368316650390625" lon="5.86310698650777339935302734375">
        <ele>223.399993896484375</ele>
        <time>2025-04-30T00:40:38.000Z</time>
        <extensions>
          <ns3:TrackPointExtension/>
        </extensions>
      </trkpt>
      <trkpt lat="50.40344894863665103912353515625" lon="5.86315392516553401947021484375">
        <ele>224</ele>
        <time>2025-04-30T00:40:41.000Z</time>
        <extensions>
          <ns3:TrackPointExtension/>
        </extensions>
      </trkpt>
      <trkpt lat="50.40368095971643924713134765625" lon="5.86315291933715343475341796875">
        <ele>224.399993896484375</ele>
        <time>2025-04-30T00:40:44.000Z</time>
        <extensions>
          <ns3:TrackPointExtension/>
        </extensions>
      </trkpt>
      <trkpt lat="50.40378891862928867340087890625" lon="5.86313699372112751007080078125">
        <ele>224.600006103515625</ele>
        <time>2025-04-30T00:40:47.000Z</time>
        <extensions>
          <ns3:TrackPointExtension/>
        </extensions>
      </trkpt>
      <trkpt lat="50.40404699742794036865234375" lon="5.86302199400961399078369140625">
        <ele>223.399993896484375</ele>
        <time>2025-04-30T00:40:50.000Z</time>
        <extensions>
          <ns3:TrackPointExtension/>
        </extensions>
      </trkpt>
      <trkpt lat="50.40652292780578136444091796875" lon="5.8609809167683124542236328125">
        <ele>218.600006103515625</ele>
        <time>2025-04-30T00:40:53.000Z</time>
        <extensions>
          <ns3:TrackPointExtension/>
        </extensions>
      </trkpt>
      <trkpt lat="50.4067139513790607452392578125" lon="5.86089198477566242218017578125">
        <ele>218.1999969482421875</ele>
        <time>2025-04-30T00:40:56.000Z</time>
        <extensions>
          <ns3:TrackPointExtension/>
        </extensions>
      </trkpt>
      <trkpt lat="50.4069509916007518768310546875" lon="5.86082492955029010772705078125">
        <ele>219.1999969482421875</ele>
        <time>2025-04-30T00:40:59.000Z</time>
        <extensions>
          <ns3:TrackPointExtension/>
        </extensions>
      </trkpt>
      <trkpt lat="50.4072939790785312652587890625" lon="5.86077899672091007232666015625">
        <ele>219.8000030517578125</ele>
        <time>2025-04-30T00:41:02.000Z</time>
        <extensions>
          <ns3:TrackPointExtension/>
        </extensions>
      </trkpt>
      <trkpt lat="50.407437980175018310546875" lon="5.86079693399369716644287109375">
        <ele>220</ele>
        <time>2025-04-30T00:41:05.000Z</time>
        <extensions>
          <ns3:TrackPointExtension/>
        </extensions>
      </trkpt>
      <trkpt lat="50.40842494927346706390380859375" lon="5.86109097115695476531982421875">
        <ele>222.1999969482421875</ele>
        <time>2025-04-30T00:41:08.000Z</time>
        <extensions>
          <ns3:TrackPointExtension/>
        </extensions>
      </trkpt>
      <trkpt lat="50.408930964767932891845703125" lon="5.86112198419868946075439453125">
        <ele>221.8000030517578125</ele>
        <time>2025-04-30T00:41:11.000Z</time>
        <extensions>
          <ns3:TrackPointExtension/>
        </extensions>
      </trkpt>
      <trkpt lat="50.4092479683458805084228515625" lon="5.861068926751613616943359375">
        <ele>222.8000030517578125</ele>
        <time>2025-04-30T00:41:13.000Z</time>
        <extensions>
          <ns3:TrackPointExtension/>
        </extensions>
      </trkpt>
      <trkpt lat="50.4102299921214580535888671875" lon="5.86065192706882953643798828125">
        <ele>222</ele>
        <time>2025-04-30T00:41:16.000Z</time>
        <extensions>
          <ns3:TrackPointExtension/>
        </extensions>
      </trkpt>
      <trkpt lat="50.41358292102813720703125" lon="5.86045595817267894744873046875">
        <ele>234.8000030517578125</ele>
        <time>2025-04-30T00:41:19.000Z</time>
        <extensions>
          <ns3:TrackPointExtension/>
        </extensions>
      </trkpt>
      <trkpt lat="50.41380998678505420684814453125" lon="5.8604179881513118743896484375">
        <ele>235</ele>
        <time>2025-04-30T00:41:22.000Z</time>
        <extensions>
          <ns3:TrackPointExtension/>
        </extensions>
      </trkpt>
      <trkpt lat="50.41402791626751422882080078125" lon="5.8602979592978954315185546875">
        <ele>235</ele>
        <time>2025-04-30T00:41:25.000Z</time>
        <extensions>
          <ns3:TrackPointExtension/>
        </extensions>
      </trkpt>
      <trkpt lat="50.41418096981942653656005859375" lon="5.86010299623012542724609375">
        <ele>235.399993896484375</ele>
        <time>2025-04-30T00:41:28.000Z</time>
        <extensions>
          <ns3:TrackPointExtension/>
        </extensions>
      </trkpt>
      <trkpt lat="50.414279960095882415771484375" lon="5.8598349429666996002197265625">
        <ele>237</ele>
        <time>2025-04-30T00:41:31.000Z</time>
        <extensions>
          <ns3:TrackPointExtension/>
        </extensions>
      </trkpt>
      <trkpt lat="50.41432094760239124298095703125" lon="5.8596639521420001983642578125">
        <ele>237.8000030517578125</ele>
        <time>2025-04-30T00:41:34.000Z</time>
        <extensions>
          <ns3:TrackPointExtension/>
        </extensions>
      </trkpt>
      <trkpt lat="50.41435799561440944671630859375" lon="5.8593819849193096160888671875">
        <ele>239.8000030517578125</ele>
        <time>2025-04-30T00:41:37.000Z</time>
        <extensions>
          <ns3:TrackPointExtension/>
        </extensions>
      </trkpt>
      <trkpt lat="50.41435095481574535369873046875" lon="5.85913396440446376800537109375">
        <ele>241.399993896484375</ele>
        <time>2025-04-30T00:41:40.000Z</time>
        <extensions>
          <ns3:TrackPointExtension/>
        </extensions>
      </trkpt>
      <trkpt lat="50.4143059439957141876220703125" lon="5.8588619716465473175048828125">
        <ele>243.399993896484375</ele>
        <time>2025-04-30T00:41:43.000Z</time>
        <extensions>
          <ns3:TrackPointExtension/>
        </extensions>
      </trkpt>
      <trkpt lat="50.41414995677769184112548828125" lon="5.858424939215183258056640625">
        <ele>246</ele>
        <time>2025-04-30T00:41:46.000Z</time>
        <extensions>
          <ns3:TrackPointExtension/>
        </extensions>
      </trkpt>
      <trkpt lat="50.413869917392730712890625" lon="5.8577699773013591766357421875">
        <ele>245.399993896484375</ele>
        <time>2025-04-30T00:41:49.000Z</time>
        <extensions>
          <ns3:TrackPointExtension/>
        </extensions>
      </trkpt>
      <trkpt lat="50.4137879423797130584716796875" lon="5.857514999806880950927734375">
        <ele>245.1999969482421875</ele>
        <time>2025-04-30T00:41:52.000Z</time>
        <extensions>
          <ns3:TrackPointExtension/>
        </extensions>
      </trkpt>
      <trkpt lat="50.413768999278545379638671875" lon="5.85728793404996395111083984375">
        <ele>245</ele>
        <time>2025-04-30T00:41:55.000Z</time>
        <extensions>
          <ns3:TrackPointExtension/>
        </extensions>
      </trkpt>
      <trkpt lat="50.413764975965023040771484375" lon="5.8570819906890392303466796875">
        <ele>245.8000030517578125</ele>
        <time>2025-04-30T00:41:58.000Z</time>
        <extensions>
          <ns3:TrackPointExtension/>
        </extensions>
      </trkpt>
      <trkpt lat="50.41380898095667362213134765625" lon="5.85599594749510288238525390625">
        <ele>250.8000030517578125</ele>
        <time>2025-04-30T00:42:00.000Z</time>
        <extensions>
          <ns3:TrackPointExtension/>
        </extensions>
      </trkpt>
      <trkpt lat="50.41407099924981594085693359375" lon="5.8506309427320957183837890625">
        <ele>274.79998779296875</ele>
        <time>2025-04-30T00:42:03.000Z</time>
        <extensions>
          <ns3:TrackPointExtension/>
        </extensions>
      </trkpt>
      <trkpt lat="50.414051972329616546630859375" lon="5.85032994858920574188232421875">
        <ele>277.600006103515625</ele>
        <time>2025-04-30T00:42:06.000Z</time>
        <extensions>
          <ns3:TrackPointExtension/>
        </extensions>
      </trkpt>
      <trkpt lat="50.41397896595299243927001953125" lon="5.850093998014926910400390625">
        <ele>281</ele>
        <time>2025-04-30T00:42:09.000Z</time>
        <extensions>
          <ns3:TrackPointExtension/>
        </extensions>
      </trkpt>
      <trkpt lat="50.41389095596969127655029296875" lon="5.84995192475616931915283203125">
        <ele>281.600006103515625</ele>
        <time>2025-04-30T00:42:12.000Z</time>
        <extensions>
          <ns3:TrackPointExtension/>
        </extensions>
      </trkpt>
      <trkpt lat="50.41380596347153186798095703125" lon="5.84986894391477108001708984375">
        <ele>281.399993896484375</ele>
        <time>2025-04-30T00:42:15.000Z</time>
        <extensions>
          <ns3:TrackPointExtension/>
        </extensions>
      </trkpt>
      <trkpt lat="50.4135599546134471893310546875" lon="5.8497769944369792938232421875">
        <ele>279.399993896484375</ele>
        <time>2025-04-30T00:42:18.000Z</time>
        <extensions>
          <ns3:TrackPointExtension/>
        </extensions>
      </trkpt>
      <trkpt lat="50.41334998793900012969970703125" lon="5.84983793087303638458251953125">
        <ele>277.79998779296875</ele>
        <time>2025-04-30T00:42:21.000Z</time>
        <extensions>
          <ns3:TrackPointExtension/>
        </extensions>
      </trkpt>
      <trkpt lat="50.41316592134535312652587890625" lon="5.849971957504749298095703125">
        <ele>279</ele>
        <time>2025-04-30T00:42:24.000Z</time>
        <extensions>
          <ns3:TrackPointExtension/>
        </extensions>
      </trkpt>
      <trkpt lat="50.41268999688327312469482421875" lon="5.85070696659386157989501953125">
        <ele>286</ele>
        <time>2025-04-30T00:42:27.000Z</time>
        <extensions>
          <ns3:TrackPointExtension/>
        </extensions>
      </trkpt>
      <trkpt lat="50.4125179164111614227294921875" lon="5.85084493272006511688232421875">
        <ele>286.399993896484375</ele>
        <time>2025-04-30T00:42:30.000Z</time>
        <extensions>
          <ns3:TrackPointExtension/>
        </extensions>
      </trkpt>
      <trkpt lat="50.4124139808118343353271484375" lon="5.85087493993341922760009765625">
        <ele>286.399993896484375</ele>
        <time>2025-04-30T00:42:33.000Z</time>
        <extensions>
          <ns3:TrackPointExtension/>
        </extensions>
      </trkpt>
      <trkpt lat="50.4122109711170196533203125" lon="5.850832946598529815673828125">
        <ele>286.79998779296875</ele>
        <time>2025-04-30T00:42:36.000Z</time>
        <extensions>
          <ns3:TrackPointExtension/>
        </extensions>
      </trkpt>
      <trkpt lat="50.41211097501218318939208984375" lon="5.85076999850571155548095703125">
        <ele>286.600006103515625</ele>
        <time>2025-04-30T00:42:39.000Z</time>
        <extensions>
          <ns3:TrackPointExtension/>
        </extensions>
      </trkpt>
      <trkpt lat="50.41201592423021793365478515625" lon="5.850659944117069244384765625">
        <ele>286.600006103515625</ele>
        <time>2025-04-30T00:42:42.000Z</time>
        <extensions>
          <ns3:TrackPointExtension/>
        </extensions>
      </trkpt>
      <trkpt lat="50.41167193092405796051025390625" lon="5.849971957504749298095703125">
        <ele>289.20001220703125</ele>
        <time>2025-04-30T00:42:45.000Z</time>
        <extensions>
          <ns3:TrackPointExtension/>
        </extensions>
      </trkpt>
      <trkpt lat="50.4113499820232391357421875" lon="5.8493059314787387847900390625">
        <ele>292.600006103515625</ele>
        <time>2025-04-30T00:42:47.000Z</time>
        <extensions>
          <ns3:TrackPointExtension/>
        </extensions>
      </trkpt>
      <trkpt lat="50.411053933203220367431640625" lon="5.84858399815857410430908203125">
        <ele>296.600006103515625</ele>
        <time>2025-04-30T00:42:50.000Z</time>
        <extensions>
          <ns3:TrackPointExtension/>
        </extensions>
      </trkpt>
      <trkpt lat="50.41099098511040210723876953125" lon="5.84834494628012180328369140625">
        <ele>297.20001220703125</ele>
        <time>2025-04-30T00:42:53.000Z</time>
        <extensions>
          <ns3:TrackPointExtension/>
        </extensions>
      </trkpt>
      <trkpt lat="50.4109699465334415435791015625" lon="5.84814897738397121429443359375">
        <ele>298.399993896484375</ele>
        <time>2025-04-30T00:42:56.000Z</time>
        <extensions>
          <ns3:TrackPointExtension/>
        </extensions>
      </trkpt>
      <trkpt lat="50.41097992099821567535400390625" lon="5.84794697351753711700439453125">
        <ele>299.20001220703125</ele>
        <time>2025-04-30T00:42:59.000Z</time>
        <extensions>
          <ns3:TrackPointExtension/>
        </extensions>
      </trkpt>
      <trkpt lat="50.41101093403995037078857421875" lon="5.84777095355093479156494140625">
        <ele>300.600006103515625</ele>
        <time>2025-04-30T00:43:02.000Z</time>
        <extensions>
          <ns3:TrackPointExtension/>
        </extensions>
      </trkpt>
      <trkpt lat="50.4112059809267520904541015625" lon="5.84720693528652191162109375">
        <ele>302.600006103515625</ele>
        <time>2025-04-30T00:43:05.000Z</time>
        <extensions>
          <ns3:TrackPointExtension/>
        </extensions>
      </trkpt>
      <trkpt lat="50.411294996738433837890625" lon="5.84707492031157016754150390625">
        <ele>302.20001220703125</ele>
        <time>2025-04-30T00:43:08.000Z</time>
        <extensions>
          <ns3:TrackPointExtension/>
        </extensions>
      </trkpt>
      <trkpt lat="50.41102099232375621795654296875" lon="5.84605894982814788818359375">
        <ele>296.20001220703125</ele>
        <time>2025-04-30T00:43:10.000Z</time>
        <extensions>
          <ns3:TrackPointExtension/>
        </extensions>
      </trkpt>
      <trkpt lat="50.41100791655480861663818359375" lon="5.84596297703683376312255859375">
        <ele>295.20001220703125</ele>
        <time>2025-04-30T00:43:12.000Z</time>
        <extensions>
          <ns3:TrackPointExtension/>
        </extensions>
      </trkpt>
      <trkpt lat="50.4110859520733356475830078125" lon="5.84582199342548847198486328125">
        <ele>293.600006103515625</ele>
        <time>2025-04-30T00:43:16.000Z</time>
        <extensions>
          <ns3:TrackPointExtension/>
        </extensions>
      </trkpt>
      <trkpt lat="50.41116499342024326324462890625" lon="5.84561194293200969696044921875">
        <ele>293</ele>
        <time>2025-04-30T00:43:19.000Z</time>
        <extensions>
          <ns3:TrackPointExtension/>
        </extensions>
      </trkpt>
      <trkpt lat="50.41172691620886325836181640625" lon="5.8432659320533275604248046875">
        <ele>282.600006103515625</ele>
        <time>2025-04-30T00:43:22.000Z</time>
        <extensions>
          <ns3:TrackPointExtension/>
        </extensions>
      </trkpt>
      <trkpt lat="50.41176999919116497039794921875" lon="5.84282697178423404693603515625">
        <ele>283.399993896484375</ele>
        <time>2025-04-30T00:43:25.000Z</time>
        <extensions>
          <ns3:TrackPointExtension/>
        </extensions>
      </trkpt>
      <trkpt lat="50.411751978099346160888671875" lon="5.8418269269168376922607421875">
        <ele>285.20001220703125</ele>
        <time>2025-04-30T00:43:28.000Z</time>
        <extensions>
          <ns3:TrackPointExtension/>
        </extensions>
      </trkpt>
      <trkpt lat="50.4115439392626285552978515625" lon="5.8398489654064178466796875">
        <ele>287.600006103515625</ele>
        <time>2025-04-30T00:43:31.000Z</time>
        <extensions>
          <ns3:TrackPointExtension/>
        </extensions>
      </trkpt>
      <trkpt lat="50.41145299561321735382080078125" lon="5.83949298597872257232666015625">
        <ele>288.600006103515625</ele>
        <time>2025-04-30T00:43:34.000Z</time>
        <extensions>
          <ns3:TrackPointExtension/>
        </extensions>
      </trkpt>
      <trkpt lat="50.41133196093142032623291015625" lon="5.83916793577373027801513671875">
        <ele>286.600006103515625</ele>
        <time>2025-04-30T00:43:38.000Z</time>
        <extensions>
          <ns3:TrackPointExtension/>
        </extensions>
      </trkpt>
      <trkpt lat="50.411173962056636810302734375" lon="5.83890692330896854400634765625">
        <ele>284.399993896484375</ele>
        <time>2025-04-30T00:43:41.000Z</time>
        <extensions>
          <ns3:TrackPointExtension/>
        </extensions>
      </trkpt>
      <trkpt lat="50.40985993109643459320068359375" lon="5.8369959332048892974853515625">
        <ele>285.20001220703125</ele>
        <time>2025-04-30T00:43:44.000Z</time>
        <extensions>
          <ns3:TrackPointExtension/>
        </extensions>
      </trkpt>
      <trkpt lat="50.408529974520206451416015625" lon="5.835072956979274749755859375">
        <ele>280.600006103515625</ele>
        <time>2025-04-30T00:43:47.000Z</time>
        <extensions>
          <ns3:TrackPointExtension/>
        </extensions>
      </trkpt>
      <trkpt lat="50.40834398008882999420166015625" lon="5.8347539417445659637451171875">
        <ele>278.399993896484375</ele>
        <time>2025-04-30T00:43:50.000Z</time>
        <extensions>
          <ns3:TrackPointExtension/>
        </extensions>
      </trkpt>
      <trkpt lat="50.4080969654023647308349609375" lon="5.8340679667890071868896484375">
        <ele>275.20001220703125</ele>
        <time>2025-04-30T00:43:53.000Z</time>
        <extensions>
          <ns3:TrackPointExtension/>
        </extensions>
      </trkpt>
      <trkpt lat="50.4074679873883724212646484375" lon="5.8320479281246662139892578125">
        <ele>276.79998779296875</ele>
        <time>2025-04-30T00:43:57.000Z</time>
        <extensions>
          <ns3:TrackPointExtension/>
        </extensions>
      </trkpt>
      <trkpt lat="50.40739397518336772918701171875" lon="5.83169597201049327850341796875">
        <ele>276.399993896484375</ele>
        <time>2025-04-30T00:44:00.000Z</time>
        <extensions>
          <ns3:TrackPointExtension/>
        </extensions>
      </trkpt>
      <trkpt lat="50.40733999572694301605224609375" lon="5.83132599480450153350830078125">
        <ele>274.399993896484375</ele>
        <time>2025-04-30T00:44:03.000Z</time>
        <extensions>
          <ns3:TrackPointExtension/>
        </extensions>
      </trkpt>
      <trkpt lat="50.40721996687352657318115234375" lon="5.82941592670977115631103515625">
        <ele>264.20001220703125</ele>
        <time>2025-04-30T00:44:06.000Z</time>
        <extensions>
          <ns3:TrackPointExtension/>
        </extensions>
      </trkpt>
      <trkpt lat="50.4071719385683536529541015625" lon="5.829035975039005279541015625">
        <ele>265.79998779296875</ele>
        <time>2025-04-30T00:44:09.000Z</time>
        <extensions>
          <ns3:TrackPointExtension/>
        </extensions>
      </trkpt>
      <trkpt lat="50.40710697881877422332763671875" lon="5.82881695590913295745849609375">
        <ele>268.20001220703125</ele>
        <time>2025-04-30T00:44:12.000Z</time>
        <extensions>
          <ns3:TrackPointExtension/>
        </extensions>
      </trkpt>
      <trkpt lat="50.4070079885423183441162109375" lon="5.82861092872917652130126953125">
        <ele>270.79998779296875</ele>
        <time>2025-04-30T00:44:15.000Z</time>
        <extensions>
          <ns3:TrackPointExtension/>
        </extensions>
      </trkpt>
      <trkpt lat="50.4068869538605213165283203125" lon="5.82844194956123828887939453125">
        <ele>273</ele>
        <time>2025-04-30T00:44:19.000Z</time>
        <extensions>
          <ns3:TrackPointExtension/>
        </extensions>
      </trkpt>
      <trkpt lat="50.4067199863493442535400390625" lon="5.8283209986984729766845703125">
        <ele>274.20001220703125</ele>
        <time>2025-04-30T00:44:22.000Z</time>
        <extensions>
          <ns3:TrackPointExtension/>
        </extensions>
      </trkpt>
      <trkpt lat="50.4060869850218296051025390625" lon="5.82804297097027301788330078125">
        <ele>269.600006103515625</ele>
        <time>2025-04-30T00:44:25.000Z</time>
        <extensions>
          <ns3:TrackPointExtension/>
        </extensions>
      </trkpt>
      <trkpt lat="50.4059129767119884490966796875" lon="5.82798597402870655059814453125">
        <ele>267.399993896484375</ele>
        <time>2025-04-30T00:44:28.000Z</time>
        <extensions>
          <ns3:TrackPointExtension/>
        </extensions>
      </trkpt>
      <trkpt lat="50.4057119786739349365234375" lon="5.82798396237194538116455078125">
        <ele>263.399993896484375</ele>
        <time>2025-04-30T00:44:31.000Z</time>
        <extensions>
          <ns3:TrackPointExtension/>
        </extensions>
      </trkpt>
      <trkpt lat="50.4053949750959873199462890625" lon="5.8280229382216930389404296875">
        <ele>256.79998779296875</ele>
        <time>2025-04-30T00:44:34.000Z</time>
        <extensions>
          <ns3:TrackPointExtension/>
        </extensions>
      </trkpt>
      <trkpt lat="50.4050709307193756103515625" lon="5.82811094820499420166015625">
        <ele>250</ele>
        <time>2025-04-30T00:44:37.000Z</time>
        <extensions>
          <ns3:TrackPointExtension/>
        </extensions>
      </trkpt>
      <trkpt lat="50.40483598597347736358642578125" lon="5.82814992405474185943603515625">
        <ele>246</ele>
        <time>2025-04-30T00:44:41.000Z</time>
        <extensions>
          <ns3:TrackPointExtension/>
        </extensions>
      </trkpt>
      <trkpt lat="50.4046429507434368133544921875" lon="5.82809493876993656158447265625">
        <ele>243.600006103515625</ele>
        <time>2025-04-30T00:44:44.000Z</time>
        <extensions>
          <ns3:TrackPointExtension/>
        </extensions>
      </trkpt>
      <trkpt lat="50.40443398989737033843994140625" lon="5.8279109559953212738037109375">
        <ele>241.600006103515625</ele>
        <time>2025-04-30T00:44:47.000Z</time>
        <extensions>
          <ns3:TrackPointExtension/>
        </extensions>
      </trkpt>
      <trkpt lat="50.40391397662460803985595703125" lon="5.8273329399526119232177734375">
        <ele>246.1999969482421875</ele>
        <time>2025-04-30T00:44:50.000Z</time>
        <extensions>
          <ns3:TrackPointExtension/>
        </extensions>
      </trkpt>
      <trkpt lat="50.40339798666536808013916015625" lon="5.82692197524011135101318359375">
        <ele>246.399993896484375</ele>
        <time>2025-04-30T00:44:53.000Z</time>
        <extensions>
          <ns3:TrackPointExtension/>
        </extensions>
      </trkpt>
      <trkpt lat="50.40322892367839813232421875" lon="5.82672198303043842315673828125">
        <ele>247.399993896484375</ele>
        <time>2025-04-30T00:44:56.000Z</time>
        <extensions>
          <ns3:TrackPointExtension/>
        </extensions>
      </trkpt>
      <trkpt lat="50.40302096866071224212646484375" lon="5.82662098109722137451171875">
        <ele>243.600006103515625</ele>
        <time>2025-04-30T00:45:00.000Z</time>
        <extensions>
          <ns3:TrackPointExtension/>
        </extensions>
      </trkpt>
      <trkpt lat="50.4020599834620952606201171875" lon="5.82577197812497615814208984375">
        <ele>241.600006103515625</ele>
        <time>2025-04-30T00:45:03.000Z</time>
        <extensions>
          <ns3:TrackPointExtension/>
        </extensions>
      </trkpt>
      <trkpt lat="50.40191992186009883880615234375" lon="5.825748927891254425048828125">
        <ele>239.8000030517578125</ele>
        <time>2025-04-30T00:45:06.000Z</time>
        <extensions>
          <ns3:TrackPointExtension/>
        </extensions>
      </trkpt>
      <trkpt lat="50.40166796185076236724853515625" lon="5.8257819525897502899169921875">
        <ele>234.1999969482421875</ele>
        <time>2025-04-30T00:45:09.000Z</time>
        <extensions>
          <ns3:TrackPointExtension/>
        </extensions>
      </trkpt>
      <trkpt lat="50.3990639559924602508544921875" lon="5.8254919387400150299072265625">
        <ele>215.399993896484375</ele>
        <time>2025-04-30T00:45:12.000Z</time>
        <extensions>
          <ns3:TrackPointExtension/>
        </extensions>
      </trkpt>
      <trkpt lat="50.3988389857113361358642578125" lon="5.8253869973123073577880859375">
        <ele>210.8000030517578125</ele>
        <time>2025-04-30T00:45:15.000Z</time>
        <extensions>
          <ns3:TrackPointExtension/>
        </extensions>
      </trkpt>
      <trkpt lat="50.3987229801714420318603515625" lon="5.82530192099511623382568359375">
        <ele>208.1999969482421875</ele>
        <time>2025-04-30T00:45:18.000Z</time>
        <extensions>
          <ns3:TrackPointExtension/>
        </extensions>
      </trkpt>
      <trkpt lat="50.39861493743956089019775390625" lon="5.825176946818828582763671875">
        <ele>205.8000030517578125</ele>
        <time>2025-04-30T00:45:22.000Z</time>
        <extensions>
          <ns3:TrackPointExtension/>
        </extensions>
      </trkpt>
      <trkpt lat="50.3984819166362285614013671875" lon="5.82490797154605388641357421875">
        <ele>203.399993896484375</ele>
        <time>2025-04-30T00:45:25.000Z</time>
        <extensions>
          <ns3:TrackPointExtension/>
        </extensions>
      </trkpt>
      <trkpt lat="50.39842399768531322479248046875" lon="5.82470395602285861968994140625">
        <ele>202.399993896484375</ele>
        <time>2025-04-30T00:45:28.000Z</time>
        <extensions>
          <ns3:TrackPointExtension/>
        </extensions>
      </trkpt>
      <trkpt lat="50.39838694967329502105712890625" lon="5.82447093911468982696533203125">
        <ele>201.8000030517578125</ele>
        <time>2025-04-30T00:45:31.000Z</time>
        <extensions>
          <ns3:TrackPointExtension/>
        </extensions>
      </trkpt>
      <trkpt lat="50.3982889652252197265625" lon="5.823276937007904052734375">
        <ele>202</ele>
        <time>2025-04-30T00:45:34.000Z</time>
        <extensions>
          <ns3:TrackPointExtension/>
        </extensions>
      </trkpt>
      <trkpt lat="50.398234985768795013427734375" lon="5.82303394563496112823486328125">
        <ele>202.1999969482421875</ele>
        <time>2025-04-30T00:45:37.000Z</time>
        <extensions>
          <ns3:TrackPointExtension/>
        </extensions>
      </trkpt>
      <trkpt lat="50.39810397662222385406494140625" lon="5.822761952877044677734375">
        <ele>202.399993896484375</ele>
        <time>2025-04-30T00:45:40.000Z</time>
        <extensions>
          <ns3:TrackPointExtension/>
        </extensions>
      </trkpt>
      <trkpt lat="50.39777792058885097503662109375" lon="5.82223598845303058624267578125">
        <ele>204.600006103515625</ele>
        <time>2025-04-30T00:45:44.000Z</time>
        <extensions>
          <ns3:TrackPointExtension/>
        </extensions>
      </trkpt>
      <trkpt lat="50.396791957318782806396484375" lon="5.8206679858267307281494140625">
        <ele>213.8000030517578125</ele>
        <time>2025-04-30T00:45:47.000Z</time>
        <extensions>
          <ns3:TrackPointExtension/>
        </extensions>
      </trkpt>
      <trkpt lat="50.39654192514717578887939453125" lon="5.82034595310688018798828125">
        <ele>215.1999969482421875</ele>
        <time>2025-04-30T00:45:50.000Z</time>
        <extensions>
          <ns3:TrackPointExtension/>
        </extensions>
      </trkpt>
      <trkpt lat="50.396153926849365234375" lon="5.819949992001056671142578125">
        <ele>219.1999969482421875</ele>
        <time>2025-04-30T00:45:53.000Z</time>
        <extensions>
          <ns3:TrackPointExtension/>
        </extensions>
      </trkpt>
      <trkpt lat="50.396102964878082275390625" lon="5.819833986461162567138671875">
        <ele>220.8000030517578125</ele>
        <time>2025-04-30T00:45:56.000Z</time>
        <extensions>
          <ns3:TrackPointExtension/>
        </extensions>
      </trkpt>
      <trkpt lat="50.3961299546062946319580078125" lon="5.81970892846584320068359375">
        <ele>223</ele>
        <time>2025-04-30T00:45:59.000Z</time>
        <extensions>
          <ns3:TrackPointExtension/>
        </extensions>
      </trkpt>
      <trkpt lat="50.3961809165775775909423828125" lon="5.81961396150290966033935546875">
        <ele>224.8000030517578125</ele>
        <time>2025-04-30T00:46:03.000Z</time>
        <extensions>
          <ns3:TrackPointExtension/>
        </extensions>
      </trkpt>
      <trkpt lat="50.396382920444011688232421875" lon="5.8195669390261173248291015625">
        <ele>225.600006103515625</ele>
        <time>2025-04-30T00:46:06.000Z</time>
        <extensions>
          <ns3:TrackPointExtension/>
        </extensions>
      </trkpt>
      <trkpt lat="50.39775093086063861846923828125" lon="5.8195749856531620025634765625">
        <ele>232.600006103515625</ele>
        <time>2025-04-30T00:46:09.000Z</time>
        <extensions>
          <ns3:TrackPointExtension/>
        </extensions>
      </trkpt>
      <trkpt lat="50.39790599606931209564208984375" lon="5.819544978439807891845703125">
        <ele>233</ele>
        <time>2025-04-30T00:46:12.000Z</time>
        <extensions>
          <ns3:TrackPointExtension/>
        </extensions>
      </trkpt>
      <trkpt lat="50.39803692139685153961181640625" lon="5.819478929042816162109375">
        <ele>233.600006103515625</ele>
        <time>2025-04-30T00:46:15.000Z</time>
        <extensions>
          <ns3:TrackPointExtension/>
        </extensions>
      </trkpt>
      <trkpt lat="50.39838192053139209747314453125" lon="5.8192299865186214447021484375">
        <ele>235</ele>
        <time>2025-04-30T00:46:19.000Z</time>
        <extensions>
          <ns3:TrackPointExtension/>
        </extensions>
      </trkpt>
      <trkpt lat="50.39853396825492382049560546875" lon="5.819082967936992645263671875">
        <ele>236.399993896484375</ele>
        <time>2025-04-30T00:46:22.000Z</time>
        <extensions>
          <ns3:TrackPointExtension/>
        </extensions>
      </trkpt>
      <trkpt lat="50.39867897517979145050048828125" lon="5.8187689818441867828369140625">
        <ele>239.1999969482421875</ele>
        <time>2025-04-30T00:46:25.000Z</time>
        <extensions>
          <ns3:TrackPointExtension/>
        </extensions>
      </trkpt>
      <trkpt lat="50.3987259976565837860107421875" lon="5.8185889385640621185302734375">
        <ele>239.399993896484375</ele>
        <time>2025-04-30T00:46:28.000Z</time>
        <extensions>
          <ns3:TrackPointExtension/>
        </extensions>
      </trkpt>
      <trkpt lat="50.39873898960649967193603515625" lon="5.81835499964654445648193359375">
        <ele>239.399993896484375</ele>
        <time>2025-04-30T00:46:31.000Z</time>
        <extensions>
          <ns3:TrackPointExtension/>
        </extensions>
      </trkpt>
      <trkpt lat="50.3987219743430614471435546875" lon="5.818156935274600982666015625">
        <ele>239</ele>
        <time>2025-04-30T00:46:35.000Z</time>
        <extensions>
          <ns3:TrackPointExtension/>
        </extensions>
      </trkpt>
      <trkpt lat="50.39867193438112735748291015625" lon="5.8179379999637603759765625">
        <ele>239.1999969482421875</ele>
        <time>2025-04-30T00:46:38.000Z</time>
        <extensions>
          <ns3:TrackPointExtension/>
        </extensions>
      </trkpt>
      <trkpt lat="50.39861996658146381378173828125" lon="5.8177829347550868988037109375">
        <ele>239.399993896484375</ele>
        <time>2025-04-30T00:46:41.000Z</time>
        <extensions>
          <ns3:TrackPointExtension/>
        </extensions>
      </trkpt>
      <trkpt lat="50.3984879516065120697021484375" lon="5.81754296086728572845458984375">
        <ele>240.1999969482421875</ele>
        <time>2025-04-30T00:46:44.000Z</time>
        <extensions>
          <ns3:TrackPointExtension/>
        </extensions>
      </trkpt>
      <trkpt lat="50.3982649929821491241455078125" lon="5.81731195561587810516357421875">
        <ele>243.1999969482421875</ele>
        <time>2025-04-30T00:46:47.000Z</time>
        <extensions>
          <ns3:TrackPointExtension/>
        </extensions>
      </trkpt>
      <trkpt lat="50.3969349525868892669677734375" lon="5.81616698764264583587646484375">
        <ele>252</ele>
        <time>2025-04-30T00:46:51.000Z</time>
        <extensions>
          <ns3:TrackPointExtension/>
        </extensions>
      </trkpt>
      <trkpt lat="50.39677293039858341217041015625" lon="5.81612692214548587799072265625">
        <ele>252.8000030517578125</ele>
        <time>2025-04-30T00:46:54.000Z</time>
        <extensions>
          <ns3:TrackPointExtension/>
        </extensions>
      </trkpt>
      <trkpt lat="50.39654091931879520416259765625" lon="5.8161219768226146697998046875">
        <ele>254.399993896484375</ele>
        <time>2025-04-30T00:46:57.000Z</time>
        <extensions>
          <ns3:TrackPointExtension/>
        </extensions>
      </trkpt>
      <trkpt lat="50.3957789205014705657958984375" lon="5.81633596681058406829833984375">
        <ele>257.600006103515625</ele>
        <time>2025-04-30T00:47:00.000Z</time>
        <extensions>
          <ns3:TrackPointExtension/>
        </extensions>
      </trkpt>
      <trkpt lat="50.395586974918842315673828125" lon="5.8163179457187652587890625">
        <ele>257.600006103515625</ele>
        <time>2025-04-30T00:47:03.000Z</time>
        <extensions>
          <ns3:TrackPointExtension/>
        </extensions>
      </trkpt>
      <trkpt lat="50.3954069316387176513671875" lon="5.816084928810596466064453125">
        <ele>258</ele>
        <time>2025-04-30T00:47:07.000Z</time>
        <extensions>
          <ns3:TrackPointExtension/>
        </extensions>
      </trkpt>
      <trkpt lat="50.3950999863445758819580078125" lon="5.81477793864905834197998046875">
        <ele>262</ele>
        <time>2025-04-30T00:47:10.000Z</time>
        <extensions>
          <ns3:TrackPointExtension/>
        </extensions>
      </trkpt>
      <trkpt lat="50.39504994638264179229736328125" lon="5.8143349550664424896240234375">
        <ele>261.600006103515625</ele>
        <time>2025-04-30T00:47:13.000Z</time>
        <extensions>
          <ns3:TrackPointExtension/>
        </extensions>
      </trkpt>
      <trkpt lat="50.39499395526945590972900390625" lon="5.8127199299633502960205078125">
        <ele>266.20001220703125</ele>
        <time>2025-04-30T00:47:16.000Z</time>
        <extensions>
          <ns3:TrackPointExtension/>
        </extensions>
      </trkpt>
      <trkpt lat="50.39493796415627002716064453125" lon="5.8122129924595355987548828125">
        <ele>270.20001220703125</ele>
        <time>2025-04-30T00:47:19.000Z</time>
        <extensions>
          <ns3:TrackPointExtension/>
        </extensions>
      </trkpt>
      <trkpt lat="50.39487895555794239044189453125" lon="5.81193999387323856353759765625">
        <ele>271</ele>
        <time>2025-04-30T00:47:23.000Z</time>
        <extensions>
          <ns3:TrackPointExtension/>
        </extensions>
      </trkpt>
      <trkpt lat="50.39479295723140239715576171875" lon="5.81164696253836154937744140625">
        <ele>271.79998779296875</ele>
        <time>2025-04-30T00:47:26.000Z</time>
        <extensions>
          <ns3:TrackPointExtension/>
        </extensions>
      </trkpt>
      <trkpt lat="50.3946929611265659332275390625" lon="5.8114039711654186248779296875">
        <ele>272.600006103515625</ele>
        <time>2025-04-30T00:47:29.000Z</time>
        <extensions>
          <ns3:TrackPointExtension/>
        </extensions>
      </trkpt>
      <trkpt lat="50.39410195313394069671630859375" lon="5.81038095988333225250244140625">
        <ele>280.79998779296875</ele>
        <time>2025-04-30T00:47:32.000Z</time>
        <extensions>
          <ns3:TrackPointExtension/>
        </extensions>
      </trkpt>
      <trkpt lat="50.39395493455231189727783203125" lon="5.8100469410419464111328125">
        <ele>282</ele>
        <time>2025-04-30T00:47:35.000Z</time>
        <extensions>
          <ns3:TrackPointExtension/>
        </extensions>
      </trkpt>
      <trkpt lat="50.393862985074520111083984375" lon="5.8097869344055652618408203125">
        <ele>283</ele>
        <time>2025-04-30T00:47:39.000Z</time>
        <extensions>
          <ns3:TrackPointExtension/>
        </extensions>
      </trkpt>
      <trkpt lat="50.393799953162670135498046875" lon="5.8095049671828746795654296875">
        <ele>284</ele>
        <time>2025-04-30T00:47:42.000Z</time>
        <extensions>
          <ns3:TrackPointExtension/>
        </extensions>
      </trkpt>
      <trkpt lat="50.39375795982778072357177734375" lon="5.80916893668472766876220703125">
        <ele>286.20001220703125</ele>
        <time>2025-04-30T00:47:45.000Z</time>
        <extensions>
          <ns3:TrackPointExtension/>
        </extensions>
      </trkpt>
      <trkpt lat="50.3937399387359619140625" lon="5.80871094949543476104736328125">
        <ele>288.79998779296875</ele>
        <time>2025-04-30T00:47:48.000Z</time>
        <extensions>
          <ns3:TrackPointExtension/>
        </extensions>
      </trkpt>
      <trkpt lat="50.39366492070257663726806640625" lon="5.80805297009646892547607421875">
        <ele>291.399993896484375</ele>
        <time>2025-04-30T00:47:51.000Z</time>
        <extensions>
          <ns3:TrackPointExtension/>
        </extensions>
      </trkpt>
      <trkpt lat="50.39347398094832897186279296875" lon="5.80724193714559078216552734375">
        <ele>291.79998779296875</ele>
        <time>2025-04-30T00:47:55.000Z</time>
        <extensions>
          <ns3:TrackPointExtension/>
        </extensions>
      </trkpt>
      <trkpt lat="50.3933179937303066253662109375" lon="5.806776992976665496826171875">
        <ele>293.79998779296875</ele>
        <time>2025-04-30T00:47:58.000Z</time>
        <extensions>
          <ns3:TrackPointExtension/>
        </extensions>
      </trkpt>
      <trkpt lat="50.3929719887673854827880859375" lon="5.805962942540645599365234375">
        <ele>296.600006103515625</ele>
        <time>2025-04-30T00:48:01.000Z</time>
        <extensions>
          <ns3:TrackPointExtension/>
        </extensions>
      </trkpt>
      <trkpt lat="50.39249497465789318084716796875" lon="5.8049589581787586212158203125">
        <ele>300</ele>
        <time>2025-04-30T00:48:04.000Z</time>
        <extensions>
          <ns3:TrackPointExtension/>
        </extensions>
      </trkpt>
      <trkpt lat="50.39208794943988323211669921875" lon="5.8041009865701198577880859375">
        <ele>298.79998779296875</ele>
        <time>2025-04-30T00:48:07.000Z</time>
        <extensions>
          <ns3:TrackPointExtension/>
        </extensions>
      </trkpt>
      <trkpt lat="50.3918449580669403076171875" lon="5.8035259880125522613525390625">
        <ele>299.20001220703125</ele>
        <time>2025-04-30T00:48:11.000Z</time>
        <extensions>
          <ns3:TrackPointExtension/>
        </extensions>
      </trkpt>
      <trkpt lat="50.39160297252237796783447265625" lon="5.80280891619622707366943359375">
        <ele>301</ele>
        <time>2025-04-30T00:48:14.000Z</time>
        <extensions>
          <ns3:TrackPointExtension/>
        </extensions>
      </trkpt>
      <trkpt lat="50.391328968107700347900390625" lon="5.8019169978797435760498046875">
        <ele>299.600006103515625</ele>
        <time>2025-04-30T00:48:17.000Z</time>
        <extensions>
          <ns3:TrackPointExtension/>
        </extensions>
      </trkpt>
      <trkpt lat="50.3910639323294162750244140625" lon="5.80120294354856014251708984375">
        <ele>300</ele>
        <time>2025-04-30T00:48:20.000Z</time>
        <extensions>
          <ns3:TrackPointExtension/>
        </extensions>
      </trkpt>
      <trkpt lat="50.39074994623661041259765625" lon="5.8004699461162090301513671875">
        <ele>299.399993896484375</ele>
        <time>2025-04-30T00:48:23.000Z</time>
        <extensions>
          <ns3:TrackPointExtension/>
        </extensions>
      </trkpt>
      <trkpt lat="50.389831960201263427734375" lon="5.7984249293804168701171875">
        <ele>291.600006103515625</ele>
        <time>2025-04-30T00:48:27.000Z</time>
        <extensions>
          <ns3:TrackPointExtension/>
        </extensions>
      </trkpt>
      <trkpt lat="50.38776598870754241943359375" lon="5.7947239838540554046630859375">
        <ele>295.79998779296875</ele>
        <time>2025-04-30T00:48:30.000Z</time>
        <extensions>
          <ns3:TrackPointExtension/>
        </extensions>
      </trkpt>
      <trkpt lat="50.386842973530292510986328125" lon="5.79300795681774616241455078125">
        <ele>281.20001220703125</ele>
        <time>2025-04-30T00:48:33.000Z</time>
        <extensions>
          <ns3:TrackPointExtension/>
        </extensions>
      </trkpt>
      <trkpt lat="50.3866369463503360748291015625" lon="5.79231494106352329254150390625">
        <ele>283</ele>
        <time>2025-04-30T00:48:36.000Z</time>
        <extensions>
          <ns3:TrackPointExtension/>
        </extensions>
      </trkpt>
      <trkpt lat="50.3864109702408313751220703125" lon="5.79121892340481281280517578125">
        <ele>287.399993896484375</ele>
        <time>2025-04-30T00:48:39.000Z</time>
        <extensions>
          <ns3:TrackPointExtension/>
        </extensions>
      </trkpt>
      <trkpt lat="50.3862939588725566864013671875" lon="5.79048299230635166168212890625">
        <ele>286</ele>
        <time>2025-04-30T00:48:43.000Z</time>
        <extensions>
          <ns3:TrackPointExtension/>
        </extensions>
      </trkpt>
      <trkpt lat="50.3862879239022731781005859375" lon="5.79000991769134998321533203125">
        <ele>282.399993896484375</ele>
        <time>2025-04-30T00:48:46.000Z</time>
        <extensions>
          <ns3:TrackPointExtension/>
        </extensions>
      </trkpt>
      <trkpt lat="50.3863169252872467041015625" lon="5.7895459793508052825927734375">
        <ele>280.399993896484375</ele>
        <time>2025-04-30T00:48:49.000Z</time>
        <extensions>
          <ns3:TrackPointExtension/>
        </extensions>
      </trkpt>
      <trkpt lat="50.38639697246253490447998046875" lon="5.78909494914114475250244140625">
        <ele>280.399993896484375</ele>
        <time>2025-04-30T00:48:52.000Z</time>
        <extensions>
          <ns3:TrackPointExtension/>
        </extensions>
      </trkpt>
      <trkpt lat="50.38654298521578311920166015625" lon="5.78861198388040065765380859375">
        <ele>282.20001220703125</ele>
        <time>2025-04-30T00:48:55.000Z</time>
        <extensions>
          <ns3:TrackPointExtension/>
        </extensions>
      </trkpt>
      <trkpt lat="50.38736893795430660247802734375" lon="5.78632892109453678131103515625">
        <ele>294.399993896484375</ele>
        <time>2025-04-30T00:48:59.000Z</time>
        <extensions>
          <ns3:TrackPointExtension/>
        </extensions>
      </trkpt>
      <trkpt lat="50.387469939887523651123046875" lon="5.78598392195999622344970703125">
        <ele>294.79998779296875</ele>
        <time>2025-04-30T00:49:02.000Z</time>
        <extensions>
          <ns3:TrackPointExtension/>
        </extensions>
      </trkpt>
      <trkpt lat="50.38748494349420070648193359375" lon="5.78573497943580150604248046875">
        <ele>295.600006103515625</ele>
        <time>2025-04-30T00:49:05.000Z</time>
        <extensions>
          <ns3:TrackPointExtension/>
        </extensions>
      </trkpt>
      <trkpt lat="50.38740699179470539093017578125" lon="5.78541596420109272003173828125">
        <ele>296.399993896484375</ele>
        <time>2025-04-30T00:49:08.000Z</time>
        <extensions>
          <ns3:TrackPointExtension/>
        </extensions>
      </trkpt>
      <trkpt lat="50.387248992919921875" lon="5.785022936761379241943359375">
        <ele>296.79998779296875</ele>
        <time>2025-04-30T00:49:11.000Z</time>
        <extensions>
          <ns3:TrackPointExtension/>
        </extensions>
      </trkpt>
      <trkpt lat="50.38665999658405780792236328125" lon="5.784045942127704620361328125">
        <ele>299.20001220703125</ele>
        <time>2025-04-30T00:49:15.000Z</time>
        <extensions>
          <ns3:TrackPointExtension/>
        </extensions>
      </trkpt>
      <trkpt lat="50.38582297973334789276123046875" lon="5.78225296922028064727783203125">
        <ele>301.79998779296875</ele>
        <time>2025-04-30T00:49:18.000Z</time>
        <extensions>
          <ns3:TrackPointExtension/>
        </extensions>
      </trkpt>
      <trkpt lat="50.38559096865355968475341796875" lon="5.78190495260059833526611328125">
        <ele>301</ele>
        <time>2025-04-30T00:49:21.000Z</time>
        <extensions>
          <ns3:TrackPointExtension/>
        </extensions>
      </trkpt>
      <trkpt lat="50.38513398729264736175537109375" lon="5.78135392628610134124755859375">
        <ele>301</ele>
        <time>2025-04-30T00:49:24.000Z</time>
        <extensions>
          <ns3:TrackPointExtension/>
        </extensions>
      </trkpt>
      <trkpt lat="50.38486895151436328887939453125" lon="5.78098093159496784210205078125">
        <ele>300.600006103515625</ele>
        <time>2025-04-30T00:49:27.000Z</time>
        <extensions>
          <ns3:TrackPointExtension/>
        </extensions>
      </trkpt>
      <trkpt lat="50.3847999684512615203857421875" lon="5.78081396408379077911376953125">
        <ele>300.600006103515625</ele>
        <time>2025-04-30T00:49:31.000Z</time>
        <extensions>
          <ns3:TrackPointExtension/>
        </extensions>
      </trkpt>
      <trkpt lat="50.38475093431770801544189453125" lon="5.780310966074466705322265625">
        <ele>301.600006103515625</ele>
        <time>2025-04-30T00:49:34.000Z</time>
        <extensions>
          <ns3:TrackPointExtension/>
        </extensions>
      </trkpt>
      <trkpt lat="50.3846899978816509246826171875" lon="5.77796596102416515350341796875">
        <ele>305</ele>
        <time>2025-04-30T00:49:37.000Z</time>
        <extensions>
          <ns3:TrackPointExtension/>
        </extensions>
      </trkpt>
      <trkpt lat="50.3846299834549427032470703125" lon="5.77765298075973987579345703125">
        <ele>305.79998779296875</ele>
        <time>2025-04-30T00:49:40.000Z</time>
        <extensions>
          <ns3:TrackPointExtension/>
        </extensions>
      </trkpt>
      <trkpt lat="50.3843429870903491973876953125" lon="5.776919983327388763427734375">
        <ele>308.79998779296875</ele>
        <time>2025-04-30T00:49:43.000Z</time>
        <extensions>
          <ns3:TrackPointExtension/>
        </extensions>
      </trkpt>
      <trkpt lat="50.3842759318649768829345703125" lon="5.77667196281254291534423828125">
        <ele>310.20001220703125</ele>
        <time>2025-04-30T00:49:47.000Z</time>
        <extensions>
          <ns3:TrackPointExtension/>
        </extensions>
      </trkpt>
      <trkpt lat="50.384249947965145111083984375" lon="5.77644397504627704620361328125">
        <ele>311.79998779296875</ele>
        <time>2025-04-30T00:49:50.000Z</time>
        <extensions>
          <ns3:TrackPointExtension/>
        </extensions>
      </trkpt>
      <trkpt lat="50.3843439929187297821044921875" lon="5.77554392628371715545654296875">
        <ele>316.79998779296875</ele>
        <time>2025-04-30T00:49:53.000Z</time>
        <extensions>
          <ns3:TrackPointExtension/>
        </extensions>
      </trkpt>
      <trkpt lat="50.38437793962657451629638671875" lon="5.77475099824368953704833984375">
        <ele>320.20001220703125</ele>
        <time>2025-04-30T00:49:56.000Z</time>
        <extensions>
          <ns3:TrackPointExtension/>
        </extensions>
      </trkpt>
      <trkpt lat="50.38510398007929325103759765625" lon="5.774383954703807830810546875">
        <ele>318.399993896484375</ele>
        <time>2025-04-30T00:50:01.000Z</time>
        <extensions>
          <ns3:TrackPointExtension/>
        </extensions>
      </trkpt>
      <trkpt lat="50.3855389170348644256591796875" lon="5.77429099939763545989990234375">
        <ele>316.79998779296875</ele>
        <time>2025-04-30T00:50:06.000Z</time>
        <extensions>
          <ns3:TrackPointExtension/>
        </extensions>
      </trkpt>
      <trkpt lat="50.3857689164578914642333984375" lon="5.774324946105480194091796875">
        <ele>315.79998779296875</ele>
        <time>2025-04-30T00:50:11.000Z</time>
        <extensions>
          <ns3:TrackPointExtension/>
        </extensions>
      </trkpt>
      <trkpt lat="50.38587494753301143646240234375" lon="5.7726609706878662109375">
        <ele>313</ele>
        <time>2025-04-30T00:50:16.000Z</time>
        <extensions>
          <ns3:TrackPointExtension/>
        </extensions>
      </trkpt>
      <trkpt lat="50.385916940867900848388671875" lon="5.77226894907653331756591796875">
        <ele>311.399993896484375</ele>
        <time>2025-04-30T00:50:22.000Z</time>
        <extensions>
          <ns3:TrackPointExtension/>
        </extensions>
      </trkpt>
      <trkpt lat="50.38601391948759555816650390625" lon="5.7719339244067668914794921875">
        <ele>309.600006103515625</ele>
        <time>2025-04-30T00:50:27.000Z</time>
        <extensions>
          <ns3:TrackPointExtension/>
        </extensions>
      </trkpt>
      <trkpt lat="50.3862889297306537628173828125" lon="5.77151893638074398040771484375">
        <ele>304.79998779296875</ele>
        <time>2025-04-30T00:50:33.000Z</time>
        <extensions>
          <ns3:TrackPointExtension/>
        </extensions>
      </trkpt>
      <trkpt lat="50.38638892583549022674560546875" lon="5.7712729275226593017578125">
        <ele>302.399993896484375</ele>
        <time>2025-04-30T00:50:38.000Z</time>
        <extensions>
          <ns3:TrackPointExtension/>
        </extensions>
      </trkpt>
      <trkpt lat="50.38639797829091548919677734375" lon="5.77097796835005283355712890625">
        <ele>300.399993896484375</ele>
        <time>2025-04-30T00:50:44.000Z</time>
        <extensions>
          <ns3:TrackPointExtension/>
        </extensions>
      </trkpt>
      <trkpt lat="50.38633796386420726776123046875" lon="5.77070295810699462890625">
        <ele>299.20001220703125</ele>
        <time>2025-04-30T00:50:49.000Z</time>
        <extensions>
          <ns3:TrackPointExtension/>
        </extensions>
      </trkpt>
      <trkpt lat="50.386205948889255523681640625" lon="5.770297944545745849609375">
        <ele>297.20001220703125</ele>
        <time>2025-04-30T00:50:55.000Z</time>
        <extensions>
          <ns3:TrackPointExtension/>
        </extensions>
      </trkpt>
      <trkpt lat="50.38613897748291492462158203125" lon="5.76991296373307704925537109375">
        <ele>295</ele>
        <time>2025-04-30T00:51:00.000Z</time>
        <extensions>
          <ns3:TrackPointExtension/>
        </extensions>
      </trkpt>
      <trkpt lat="50.38602791726589202880859375" lon="5.768975950777530670166015625">
        <ele>289.600006103515625</ele>
        <time>2025-04-30T00:51:06.000Z</time>
        <extensions>
          <ns3:TrackPointExtension/>
        </extensions>
      </trkpt>
      <trkpt lat="50.38601995445787906646728515625" lon="5.76853598468005657196044921875">
        <ele>285.600006103515625</ele>
        <time>2025-04-30T00:51:11.000Z</time>
        <extensions>
          <ns3:TrackPointExtension/>
        </extensions>
      </trkpt>
      <trkpt lat="50.386032946407794952392578125" lon="5.7682559452950954437255859375">
        <ele>283.20001220703125</ele>
        <time>2025-04-30T00:51:17.000Z</time>
        <extensions>
          <ns3:TrackPointExtension/>
        </extensions>
      </trkpt>
      <trkpt lat="50.38608097471296787261962890625" lon="5.76783693395555019378662109375">
        <ele>280</ele>
        <time>2025-04-30T00:51:22.000Z</time>
        <extensions>
          <ns3:TrackPointExtension/>
        </extensions>
      </trkpt>
      <trkpt lat="50.3862939588725566864013671875" lon="5.76659993268549442291259765625">
        <ele>279</ele>
        <time>2025-04-30T00:51:28.000Z</time>
        <extensions>
          <ns3:TrackPointExtension/>
        </extensions>
      </trkpt>
      <trkpt lat="50.386380963027477264404296875" lon="5.76597799547016620635986328125">
        <ele>277.600006103515625</ele>
        <time>2025-04-30T00:51:33.000Z</time>
        <extensions>
          <ns3:TrackPointExtension/>
        </extensions>
      </trkpt>
      <trkpt lat="50.386667959392070770263671875" lon="5.7641699351370334625244140625">
        <ele>269.79998779296875</ele>
        <time>2025-04-30T00:51:39.000Z</time>
        <extensions>
          <ns3:TrackPointExtension/>
        </extensions>
      </trkpt>
      <trkpt lat="50.38667692802846431732177734375" lon="5.763691999018192291259765625">
        <ele>268.399993896484375</ele>
        <time>2025-04-30T00:51:44.000Z</time>
        <extensions>
          <ns3:TrackPointExtension/>
        </extensions>
      </trkpt>
      <trkpt lat="50.3866629302501678466796875" lon="5.76352092437446117401123046875">
        <ele>268.20001220703125</ele>
        <time>2025-04-30T00:51:50.000Z</time>
        <extensions>
          <ns3:TrackPointExtension/>
        </extensions>
      </trkpt>
      <trkpt lat="50.3866939432919025421142578125" lon="5.76334993354976177215576171875">
        <ele>268.20001220703125</ele>
        <time>2025-04-30T00:51:55.000Z</time>
        <extensions>
          <ns3:TrackPointExtension/>
        </extensions>
      </trkpt>
      <trkpt lat="50.38682294078171253204345703125" lon="5.76306796632707118988037109375">
        <ele>266.600006103515625</ele>
        <time>2025-04-30T00:52:01.000Z</time>
        <extensions>
          <ns3:TrackPointExtension/>
        </extensions>
      </trkpt>
      <trkpt lat="50.38697398267686367034912109375" lon="5.76259195804595947265625">
        <ele>261.79998779296875</ele>
        <time>2025-04-30T00:52:06.000Z</time>
        <extensions>
          <ns3:TrackPointExtension/>
        </extensions>
      </trkpt>
      <trkpt lat="50.38714195601642131805419921875" lon="5.76153994537889957427978515625">
        <ele>251.1999969482421875</ele>
        <time>2025-04-30T00:52:12.000Z</time>
        <extensions>
          <ns3:TrackPointExtension/>
        </extensions>
      </trkpt>
      <trkpt lat="50.3872709535062313079833984375" lon="5.76116695068776607513427734375">
        <ele>245.399993896484375</ele>
        <time>2025-04-30T00:52:17.000Z</time>
        <extensions>
          <ns3:TrackPointExtension/>
        </extensions>
      </trkpt>
      <trkpt lat="50.387583933770656585693359375" lon="5.76039195992052555084228515625">
        <ele>236</ele>
        <time>2025-04-30T00:52:23.000Z</time>
        <extensions>
          <ns3:TrackPointExtension/>
        </extensions>
      </trkpt>
      <trkpt lat="50.3881989978253841400146484375" lon="5.75886293314397335052490234375">
        <ele>228</ele>
        <time>2025-04-30T00:52:28.000Z</time>
        <extensions>
          <ns3:TrackPointExtension/>
        </extensions>
      </trkpt>
      <trkpt lat="50.38786296732723712921142578125" lon="5.75800496153533458709716796875">
        <ele>235.1999969482421875</ele>
        <time>2025-04-30T00:52:31.000Z</time>
        <extensions>
          <ns3:TrackPointExtension/>
        </extensions>
      </trkpt>
      <trkpt lat="50.38798592984676361083984375" lon="5.75788392685353755950927734375">
        <ele>236.600006103515625</ele>
        <time>2025-04-30T00:52:47.000Z</time>
        <extensions>
          <ns3:TrackPointExtension/>
        </extensions>
      </trkpt>
      <trkpt lat="50.3881849162280559539794921875" lon="5.75801099650561809539794921875">
        <ele>237.600006103515625</ele>
        <time>2025-04-30T00:52:49.000Z</time>
        <extensions>
          <ns3:TrackPointExtension/>
        </extensions>
      </trkpt>
      <trkpt lat="50.38834392093122005462646484375" lon="5.7580209709703922271728515625">
        <ele>239.399993896484375</ele>
        <time>2025-04-30T00:52:51.000Z</time>
        <extensions>
          <ns3:TrackPointExtension/>
        </extensions>
      </trkpt>
      <trkpt lat="50.38898496888577938079833984375" lon="5.757756941020488739013671875">
        <ele>235.600006103515625</ele>
        <time>2025-04-30T00:52:53.000Z</time>
        <extensions>
          <ns3:TrackPointExtension/>
        </extensions>
      </trkpt>
      <trkpt lat="50.38904598914086818695068359375" lon="5.75769499875605106353759765625">
        <ele>235.1999969482421875</ele>
        <time>2025-04-30T00:52:55.000Z</time>
        <extensions>
          <ns3:TrackPointExtension/>
        </extensions>
      </trkpt>
      <trkpt lat="50.38906996138393878936767578125" lon="5.75765392743051052093505859375">
        <ele>235.1999969482421875</ele>
        <time>2025-04-30T00:52:57.000Z</time>
        <extensions>
          <ns3:TrackPointExtension/>
        </extensions>
      </trkpt>
      <trkpt lat="50.38907297886908054351806640625" lon="5.75760799460113048553466796875">
        <ele>235.8000030517578125</ele>
        <time>2025-04-30T00:52:58.000Z</time>
        <extensions>
          <ns3:TrackPointExtension/>
        </extensions>
      </trkpt>
      <trkpt lat="50.3890609927475452423095703125" lon="5.75754496268928050994873046875">
        <ele>236.8000030517578125</ele>
        <time>2025-04-30T00:53:00.000Z</time>
        <extensions>
          <ns3:TrackPointExtension/>
        </extensions>
      </trkpt>
      <trkpt lat="50.38903894834220409393310546875" lon="5.75751294381916522979736328125">
        <ele>237.399993896484375</ele>
        <time>2025-04-30T00:53:02.000Z</time>
        <extensions>
          <ns3:TrackPointExtension/>
        </extensions>
      </trkpt>
      <trkpt lat="50.388342998921871185302734375" lon="5.75745292939245700836181640625">
        <ele>248.600006103515625</ele>
        <time>2025-04-30T00:53:04.000Z</time>
        <extensions>
          <ns3:TrackPointExtension/>
        </extensions>
      </trkpt>
      <trkpt lat="50.38826798088848590850830078125" lon="5.75742191635072231292724609375">
        <ele>249.600006103515625</ele>
        <time>2025-04-30T00:53:06.000Z</time>
        <extensions>
          <ns3:TrackPointExtension/>
        </extensions>
      </trkpt>
      <trkpt lat="50.38822598755359649658203125" lon="5.7573289610445499420166015625">
        <ele>252</ele>
        <time>2025-04-30T00:53:08.000Z</time>
        <extensions>
          <ns3:TrackPointExtension/>
        </extensions>
      </trkpt>
      <trkpt lat="50.38826697506010532379150390625" lon="5.75716492719948291778564453125">
        <ele>257.399993896484375</ele>
        <time>2025-04-30T00:53:10.000Z</time>
        <extensions>
          <ns3:TrackPointExtension/>
        </extensions>
      </trkpt>
      <trkpt lat="50.3885109722614288330078125" lon="5.756545923650264739990234375">
        <ele>267.79998779296875</ele>
        <time>2025-04-30T00:53:11.000Z</time>
        <extensions>
          <ns3:TrackPointExtension/>
        </extensions>
      </trkpt>
      <trkpt lat="50.3885929472744464874267578125" lon="5.7564069516956806182861328125">
        <ele>267</ele>
        <time>2025-04-30T00:53:13.000Z</time>
        <extensions>
          <ns3:TrackPointExtension/>
        </extensions>
      </trkpt>
      <trkpt lat="50.389195941388607025146484375" lon="5.75538796372711658477783203125">
        <ele>260.600006103515625</ele>
        <time>2025-04-30T00:53:15.000Z</time>
        <extensions>
          <ns3:TrackPointExtension/>
        </extensions>
      </trkpt>
      <trkpt lat="50.38909594528377056121826171875" lon="5.75512393377721309661865234375">
        <ele>267.20001220703125</ele>
        <time>2025-04-30T00:53:18.000Z</time>
        <extensions>
          <ns3:TrackPointExtension/>
        </extensions>
      </trkpt>
      <trkpt lat="50.389083959162235260009765625" lon="5.7550319842994213104248046875">
        <ele>269.399993896484375</ele>
        <time>2025-04-30T00:53:21.000Z</time>
        <extensions>
          <ns3:TrackPointExtension/>
        </extensions>
      </trkpt>
      <trkpt lat="50.38913399912416934967041015625" lon="5.7549079321324825286865234375">
        <ele>272.399993896484375</ele>
        <time>2025-04-30T00:53:24.000Z</time>
        <extensions>
          <ns3:TrackPointExtension/>
        </extensions>
      </trkpt>
      <trkpt lat="50.38947992026805877685546875" lon="5.75457693077623844146728515625">
        <ele>276.399993896484375</ele>
        <time>2025-04-30T00:53:27.000Z</time>
        <extensions>
          <ns3:TrackPointExtension/>
        </extensions>
      </trkpt>
      <trkpt lat="50.3897959180176258087158203125" lon="5.754428990185260772705078125">
        <ele>275.20001220703125</ele>
        <time>2025-04-30T00:53:30.000Z</time>
        <extensions>
          <ns3:TrackPointExtension/>
        </extensions>
      </trkpt>
      <trkpt lat="50.390058942139148712158203125" lon="5.75426998548209667205810546875">
        <ele>275.399993896484375</ele>
        <time>2025-04-30T00:53:33.000Z</time>
        <extensions>
          <ns3:TrackPointExtension/>
        </extensions>
      </trkpt>
      <trkpt lat="50.390459932386875152587890625" lon="5.75417292304337024688720703125">
        <ele>275.20001220703125</ele>
        <time>2025-04-30T00:53:36.000Z</time>
        <extensions>
          <ns3:TrackPointExtension/>
        </extensions>
      </trkpt>
      <trkpt lat="50.39062296040356159210205078125" lon="5.75409597717225551605224609375">
        <ele>278</ele>
        <time>2025-04-30T00:53:39.000Z</time>
        <extensions>
          <ns3:TrackPointExtension/>
        </extensions>
      </trkpt>
      <trkpt lat="50.390815995633602142333984375" lon="5.753898918628692626953125">
        <ele>281.79998779296875</ele>
        <time>2025-04-30T00:53:42.000Z</time>
        <extensions>
          <ns3:TrackPointExtension/>
        </extensions>
      </trkpt>
      <trkpt lat="50.391100980341434478759765625" lon="5.75342492200434207916259765625">
        <ele>289.600006103515625</ele>
        <time>2025-04-30T00:53:45.000Z</time>
        <extensions>
          <ns3:TrackPointExtension/>
        </extensions>
      </trkpt>
      <trkpt lat="50.39128596894443035125732421875" lon="5.75308294035494327545166015625">
        <ele>292.600006103515625</ele>
        <time>2025-04-30T00:53:48.000Z</time>
        <extensions>
          <ns3:TrackPointExtension/>
        </extensions>
      </trkpt>
      <trkpt lat="50.39148998446762561798095703125" lon="5.75262696482241153717041015625">
        <ele>295</ele>
        <time>2025-04-30T00:53:50.000Z</time>
        <extensions>
          <ns3:TrackPointExtension/>
        </extensions>
      </trkpt>
      <trkpt lat="50.391556955873966217041015625" lon="5.7523499429225921630859375">
        <ele>296</ele>
        <time>2025-04-30T00:53:53.000Z</time>
        <extensions>
          <ns3:TrackPointExtension/>
        </extensions>
      </trkpt>
      <trkpt lat="50.39157698862254619598388671875" lon="5.75219999067485332489013671875">
        <ele>296.79998779296875</ele>
        <time>2025-04-30T00:53:56.000Z</time>
        <extensions>
          <ns3:TrackPointExtension/>
        </extensions>
      </trkpt>
      <trkpt lat="50.3915929980576038360595703125" lon="5.75191098265349864959716796875">
        <ele>298.20001220703125</ele>
        <time>2025-04-30T00:53:59.000Z</time>
        <extensions>
          <ns3:TrackPointExtension/>
        </extensions>
      </trkpt>
      <trkpt lat="50.3915839456021785736083984375" lon="5.7517499662935733795166015625">
        <ele>300</ele>
        <time>2025-04-30T00:54:02.000Z</time>
        <extensions>
          <ns3:TrackPointExtension/>
        </extensions>
      </trkpt>
      <trkpt lat="50.39156399667263031005859375" lon="5.751597918570041656494140625">
        <ele>301.600006103515625</ele>
        <time>2025-04-30T00:54:05.000Z</time>
        <extensions>
          <ns3:TrackPointExtension/>
        </extensions>
      </trkpt>
      <trkpt lat="50.3915229253470897674560546875" lon="5.751379989087581634521484375">
        <ele>303.20001220703125</ele>
        <time>2025-04-30T00:54:08.000Z</time>
        <extensions>
          <ns3:TrackPointExtension/>
        </extensions>
      </trkpt>
      <trkpt lat="50.3913489170372486114501953125" lon="5.75084991753101348876953125">
        <ele>306.20001220703125</ele>
        <time>2025-04-30T00:54:11.000Z</time>
        <extensions>
          <ns3:TrackPointExtension/>
        </extensions>
      </trkpt>
      <trkpt lat="50.391218997538089752197265625" lon="5.7505909167230129241943359375">
        <ele>308.600006103515625</ele>
        <time>2025-04-30T00:54:14.000Z</time>
        <extensions>
          <ns3:TrackPointExtension/>
        </extensions>
      </trkpt>
      <trkpt lat="50.39099092595279216766357421875" lon="5.750336945056915283203125">
        <ele>313.399993896484375</ele>
        <time>2025-04-30T00:54:17.000Z</time>
        <extensions>
          <ns3:TrackPointExtension/>
        </extensions>
      </trkpt>
      <trkpt lat="50.39088799618184566497802734375" lon="5.75015296228229999542236328125">
        <ele>316.20001220703125</ele>
        <time>2025-04-30T00:54:20.000Z</time>
        <extensions>
          <ns3:TrackPointExtension/>
        </extensions>
      </trkpt>
      <trkpt lat="50.3906609304249286651611328125" lon="5.74963093735277652740478515625">
        <ele>321</ele>
        <time>2025-04-30T00:54:23.000Z</time>
        <extensions>
          <ns3:TrackPointExtension/>
        </extensions>
      </trkpt>
      <trkpt lat="50.39053897373378276824951171875" lon="5.7492679171264171600341796875">
        <ele>322.79998779296875</ele>
        <time>2025-04-30T00:54:26.000Z</time>
        <extensions>
          <ns3:TrackPointExtension/>
        </extensions>
      </trkpt>
      <trkpt lat="50.3904879279434680938720703125" lon="5.74901998043060302734375">
        <ele>324.600006103515625</ele>
        <time>2025-04-30T00:54:29.000Z</time>
        <extensions>
          <ns3:TrackPointExtension/>
        </extensions>
      </trkpt>
      <trkpt lat="50.390404947102069854736328125" lon="5.74837692081928253173828125">
        <ele>328.79998779296875</ele>
        <time>2025-04-30T00:54:32.000Z</time>
        <extensions>
          <ns3:TrackPointExtension/>
        </extensions>
      </trkpt>
      <trkpt lat="50.390292964875698089599609375" lon="5.7479859888553619384765625">
        <ele>333.399993896484375</ele>
        <time>2025-04-30T00:54:35.000Z</time>
        <extensions>
          <ns3:TrackPointExtension/>
        </extensions>
      </trkpt>
      <trkpt lat="50.39011292159557342529296875" lon="5.74759195558726787567138671875">
        <ele>337.20001220703125</ele>
        <time>2025-04-30T00:54:37.000Z</time>
        <extensions>
          <ns3:TrackPointExtension/>
        </extensions>
      </trkpt>
      <trkpt lat="50.38985299877822399139404296875" lon="5.74713095091283321380615234375">
        <ele>339.20001220703125</ele>
        <time>2025-04-30T00:54:40.000Z</time>
        <extensions>
          <ns3:TrackPointExtension/>
        </extensions>
      </trkpt>
      <trkpt lat="50.3892879746854305267333984375" lon="5.74626996181905269622802734375">
        <ele>338.600006103515625</ele>
        <time>2025-04-30T00:54:43.000Z</time>
        <extensions>
          <ns3:TrackPointExtension/>
        </extensions>
      </trkpt>
      <trkpt lat="50.3886019997298717498779296875" lon="5.74543495662510395050048828125">
        <ele>340</ele>
        <time>2025-04-30T00:54:46.000Z</time>
        <extensions>
          <ns3:TrackPointExtension/>
        </extensions>
      </trkpt>
      <trkpt lat="50.388110987842082977294921875" lon="5.74460799805819988250732421875">
        <ele>341</ele>
        <time>2025-04-30T00:54:49.000Z</time>
        <extensions>
          <ns3:TrackPointExtension/>
        </extensions>
      </trkpt>
      <trkpt lat="50.387868918478488922119140625" lon="5.74408094398677349090576171875">
        <ele>342.20001220703125</ele>
        <time>2025-04-30T00:54:52.000Z</time>
        <extensions>
          <ns3:TrackPointExtension/>
        </extensions>
      </trkpt>
      <trkpt lat="50.38769398815929889678955078125" lon="5.7437569834291934967041015625">
        <ele>343.79998779296875</ele>
        <time>2025-04-30T00:54:55.000Z</time>
        <extensions>
          <ns3:TrackPointExtension/>
        </extensions>
      </trkpt>
      <trkpt lat="50.3874479793012142181396484375" lon="5.7434069551527500152587890625">
        <ele>347.20001220703125</ele>
        <time>2025-04-30T00:54:58.000Z</time>
        <extensions>
          <ns3:TrackPointExtension/>
        </extensions>
      </trkpt>
      <trkpt lat="50.38711396045982837677001953125" lon="5.742865987122058868408203125">
        <ele>344.79998779296875</ele>
        <time>2025-04-30T00:55:01.000Z</time>
        <extensions>
          <ns3:TrackPointExtension/>
        </extensions>
      </trkpt>
      <trkpt lat="50.386551953852176666259765625" lon="5.74181196279823780059814453125">
        <ele>343.20001220703125</ele>
        <time>2025-04-30T00:55:04.000Z</time>
        <extensions>
          <ns3:TrackPointExtension/>
        </extensions>
      </trkpt>
      <trkpt lat="50.386325977742671966552734375" lon="5.741418935358524322509765625">
        <ele>344.20001220703125</ele>
        <time>2025-04-30T00:55:07.000Z</time>
        <extensions>
          <ns3:TrackPointExtension/>
        </extensions>
      </trkpt>
      <trkpt lat="50.386146940290927886962890625" lon="5.74118793010711669921875">
        <ele>345.600006103515625</ele>
        <time>2025-04-30T00:55:10.000Z</time>
        <extensions>
          <ns3:TrackPointExtension/>
        </extensions>
      </trkpt>
      <trkpt lat="50.38541394285857677459716796875" lon="5.74054394848644733428955078125">
        <ele>348.79998779296875</ele>
        <time>2025-04-30T00:55:13.000Z</time>
        <extensions>
          <ns3:TrackPointExtension/>
        </extensions>
      </trkpt>
      <trkpt lat="50.38524094037711620330810546875" lon="5.74019693769514560699462890625">
        <ele>349</ele>
        <time>2025-04-30T00:55:16.000Z</time>
        <extensions>
          <ns3:TrackPointExtension/>
        </extensions>
      </trkpt>
      <trkpt lat="50.3850309737026691436767578125" lon="5.73953694663941860198974609375">
        <ele>351</ele>
        <time>2025-04-30T00:55:19.000Z</time>
        <extensions>
          <ns3:TrackPointExtension/>
        </extensions>
      </trkpt>
      <trkpt lat="50.384819917380809783935546875" lon="5.73906697332859039306640625">
        <ele>352</ele>
        <time>2025-04-30T00:55:22.000Z</time>
        <extensions>
          <ns3:TrackPointExtension/>
        </extensions>
      </trkpt>
      <trkpt lat="50.38413293659687042236328125" lon="5.73764096014201641082763671875">
        <ele>355</ele>
        <time>2025-04-30T00:55:24.000Z</time>
        <extensions>
          <ns3:TrackPointExtension/>
        </extensions>
      </trkpt>
      <trkpt lat="50.38340496830642223358154296875" lon="5.73640295304358005523681640625">
        <ele>351.399993896484375</ele>
        <time>2025-04-30T00:55:27.000Z</time>
        <extensions>
          <ns3:TrackPointExtension/>
        </extensions>
      </trkpt>
      <trkpt lat="50.3828469850122928619384765625" lon="5.735552944242954254150390625">
        <ele>350</ele>
        <time>2025-04-30T00:55:30.000Z</time>
        <extensions>
          <ns3:TrackPointExtension/>
        </extensions>
      </trkpt>
      <trkpt lat="50.382176935672760009765625" lon="5.7342549227178096771240234375">
        <ele>347.79998779296875</ele>
        <time>2025-04-30T00:55:33.000Z</time>
        <extensions>
          <ns3:TrackPointExtension/>
        </extensions>
      </trkpt>
      <trkpt lat="50.38246594369411468505859375" lon="5.73359199799597263336181640625">
        <ele>345.399993896484375</ele>
        <time>2025-04-30T00:55:39.000Z</time>
        <extensions>
          <ns3:TrackPointExtension/>
        </extensions>
      </trkpt>
      <trkpt lat="50.382865928113460540771484375" lon="5.73286294005811214447021484375">
        <ele>341.79998779296875</ele>
        <time>2025-04-30T00:55:44.000Z</time>
        <extensions>
          <ns3:TrackPointExtension/>
        </extensions>
      </trkpt>
      <trkpt lat="50.38296994753181934356689453125" lon="5.73263193480670452117919921875">
        <ele>342.600006103515625</ele>
        <time>2025-04-30T00:55:50.000Z</time>
        <extensions>
          <ns3:TrackPointExtension/>
        </extensions>
      </trkpt>
      <trkpt lat="50.3830099292099475860595703125" lon="5.7323689945042133331298828125">
        <ele>343</ele>
        <time>2025-04-30T00:55:55.000Z</time>
        <extensions>
          <ns3:TrackPointExtension/>
        </extensions>
      </trkpt>
      <trkpt lat="50.3830099292099475860595703125" lon="5.7315279543399810791015625">
        <ele>347.600006103515625</ele>
        <time>2025-04-30T00:56:01.000Z</time>
        <extensions>
          <ns3:TrackPointExtension/>
        </extensions>
      </trkpt>
      <trkpt lat="50.38303993642330169677734375" lon="5.73102495633065700531005859375">
        <ele>348</ele>
        <time>2025-04-30T00:56:06.000Z</time>
        <extensions>
          <ns3:TrackPointExtension/>
        </extensions>
      </trkpt>
      <trkpt lat="50.38311193697154521942138671875" lon="5.73056193999946117401123046875">
        <ele>349</ele>
        <time>2025-04-30T00:56:12.000Z</time>
        <extensions>
          <ns3:TrackPointExtension/>
        </extensions>
      </trkpt>
      <trkpt lat="50.38310992531478404998779296875" lon="5.7303469441831111907958984375">
        <ele>349.20001220703125</ele>
        <time>2025-04-30T00:56:17.000Z</time>
        <extensions>
          <ns3:TrackPointExtension/>
        </extensions>
      </trkpt>
      <trkpt lat="50.3833029605448246002197265625" lon="5.73013194836676120758056640625">
        <ele>350</ele>
        <time>2025-04-30T00:56:24.000Z</time>
        <extensions>
          <ns3:TrackPointExtension/>
        </extensions>
      </trkpt>
      <trkpt lat="50.38349197246134281158447265625" lon="5.7299239933490753173828125">
        <ele>350</ele>
        <time>2025-04-30T00:56:30.000Z</time>
        <extensions>
          <ns3:TrackPointExtension/>
        </extensions>
      </trkpt>
      <trkpt lat="50.3836499713361263275146484375" lon="5.729801952838897705078125">
        <ele>350</ele>
        <time>2025-04-30T00:56:37.000Z</time>
        <extensions>
          <ns3:TrackPointExtension/>
        </extensions>
      </trkpt>
      <trkpt lat="50.3840569965541362762451171875" lon="5.7296519167721271514892578125">
        <ele>351.20001220703125</ele>
        <time>2025-04-30T00:56:43.000Z</time>
        <extensions>
          <ns3:TrackPointExtension/>
        </extensions>
      </trkpt>
      <trkpt lat="50.384941957890987396240234375" lon="5.729163922369480133056640625">
        <ele>350.600006103515625</ele>
        <time>2025-04-30T00:56:50.000Z</time>
        <extensions>
          <ns3:TrackPointExtension/>
        </extensions>
      </trkpt>
      <trkpt lat="50.38517992012202739715576171875" lon="5.7289749942719936370849609375">
        <ele>351</ele>
        <time>2025-04-30T00:56:56.000Z</time>
        <extensions>
          <ns3:TrackPointExtension/>
        </extensions>
      </trkpt>
      <trkpt lat="50.38602196611464023590087890625" lon="5.72800193913280963897705078125">
        <ele>354.600006103515625</ele>
        <time>2025-04-30T00:57:02.000Z</time>
        <extensions>
          <ns3:TrackPointExtension/>
        </extensions>
      </trkpt>
      <trkpt lat="50.386260934174060821533203125" lon="5.72748393751680850982666015625">
        <ele>359</ele>
        <time>2025-04-30T00:57:09.000Z</time>
        <extensions>
          <ns3:TrackPointExtension/>
        </extensions>
      </trkpt>
      <trkpt lat="50.3863519616425037384033203125" lon="5.72722694836556911468505859375">
        <ele>361.20001220703125</ele>
        <time>2025-04-30T00:57:15.000Z</time>
        <extensions>
          <ns3:TrackPointExtension/>
        </extensions>
      </trkpt>
      <trkpt lat="50.3864629380404949188232421875" lon="5.7267769239842891693115234375">
        <ele>363.399993896484375</ele>
        <time>2025-04-30T00:57:22.000Z</time>
        <extensions>
          <ns3:TrackPointExtension/>
        </extensions>
      </trkpt>
      <trkpt lat="50.386616997420787811279296875" lon="5.72592993266880512237548828125">
        <ele>366.600006103515625</ele>
        <time>2025-04-30T00:57:28.000Z</time>
        <extensions>
          <ns3:TrackPointExtension/>
        </extensions>
      </trkpt>
      <trkpt lat="50.3868119604885578155517578125" lon="5.725540928542613983154296875">
        <ele>372.20001220703125</ele>
        <time>2025-04-30T00:57:35.000Z</time>
        <extensions>
          <ns3:TrackPointExtension/>
        </extensions>
      </trkpt>
      <trkpt lat="50.38688496686518192291259765625" lon="5.72518394328653812408447265625">
        <ele>375.20001220703125</ele>
        <time>2025-04-30T00:57:41.000Z</time>
        <extensions>
          <ns3:TrackPointExtension/>
        </extensions>
      </trkpt>
      <trkpt lat="50.38688899017870426177978515625" lon="5.72466694749891757965087890625">
        <ele>377.20001220703125</ele>
        <time>2025-04-30T00:57:48.000Z</time>
        <extensions>
          <ns3:TrackPointExtension/>
        </extensions>
      </trkpt>
      <trkpt lat="50.386665947735309600830078125" lon="5.72276693768799304962158203125">
        <ele>385.20001220703125</ele>
        <time>2025-04-30T00:57:54.000Z</time>
        <extensions>
          <ns3:TrackPointExtension/>
        </extensions>
      </trkpt>
      <trkpt lat="50.3868089430034160614013671875" lon="5.72280197404325008392333984375">
        <ele>385.20001220703125</ele>
        <time>2025-04-30T00:57:56.000Z</time>
        <extensions>
          <ns3:TrackPointExtension/>
        </extensions>
      </trkpt>
      <trkpt lat="50.3868729807436466217041015625" lon="5.722721926867961883544921875">
        <ele>385.79998779296875</ele>
        <time>2025-04-30T00:58:07.000Z</time>
        <extensions>
          <ns3:TrackPointExtension/>
        </extensions>
      </trkpt>
      <trkpt lat="50.38701094686985015869140625" lon="5.7226409576833248138427734375">
        <ele>386.79998779296875</ele>
        <time>2025-04-30T00:58:18.000Z</time>
        <extensions>
          <ns3:TrackPointExtension/>
        </extensions>
      </trkpt>
      <trkpt lat="50.38713994435966014862060546875" lon="5.722493939101696014404296875">
        <ele>389.20001220703125</ele>
        <time>2025-04-30T00:58:29.000Z</time>
        <extensions>
          <ns3:TrackPointExtension/>
        </extensions>
      </trkpt>
      <trkpt lat="50.38722594268620014190673828125" lon="5.7223199307918548583984375">
        <ele>392.20001220703125</ele>
        <time>2025-04-30T00:58:40.000Z</time>
        <extensions>
          <ns3:TrackPointExtension/>
        </extensions>
      </trkpt>
      <trkpt lat="50.3872779943048954010009765625" lon="5.72202597744762897491455078125">
        <ele>395.79998779296875</ele>
        <time>2025-04-30T00:58:51.000Z</time>
        <extensions>
          <ns3:TrackPointExtension/>
        </extensions>
      </trkpt>
      <trkpt lat="50.38729199208319187164306640625" lon="5.7216669805347919464111328125">
        <ele>398.600006103515625</ele>
        <time>2025-04-30T00:59:01.000Z</time>
        <extensions>
          <ns3:TrackPointExtension/>
        </extensions>
      </trkpt>
      <trkpt lat="50.38728293962776660919189453125" lon="5.72101696394383907318115234375">
        <ele>401.79998779296875</ele>
        <time>2025-04-30T00:59:12.000Z</time>
        <extensions>
          <ns3:TrackPointExtension/>
        </extensions>
      </trkpt>
      <trkpt lat="50.38725092075765132904052734375" lon="5.72035093791782855987548828125">
        <ele>408.600006103515625</ele>
        <time>2025-04-30T00:59:23.000Z</time>
        <extensions>
          <ns3:TrackPointExtension/>
        </extensions>
      </trkpt>
      <trkpt lat="50.38725192658603191375732421875" lon="5.71973897516727447509765625">
        <ele>414.399993896484375</ele>
        <time>2025-04-30T00:59:34.000Z</time>
        <extensions>
          <ns3:TrackPointExtension/>
        </extensions>
      </trkpt>
      <trkpt lat="50.38717397488653659820556640625" lon="5.7191869430243968963623046875">
        <ele>421.20001220703125</ele>
        <time>2025-04-30T00:59:45.000Z</time>
        <extensions>
          <ns3:TrackPointExtension/>
        </extensions>
      </trkpt>
      <trkpt lat="50.3871569596230983734130859375" lon="5.71880598552525043487548828125">
        <ele>425.600006103515625</ele>
        <time>2025-04-30T00:59:56.000Z</time>
        <extensions>
          <ns3:TrackPointExtension/>
        </extensions>
      </trkpt>
      <trkpt lat="50.387178920209407806396484375" lon="5.71842595003545284271240234375">
        <ele>428.600006103515625</ele>
        <time>2025-04-30T01:00:07.000Z</time>
        <extensions>
          <ns3:TrackPointExtension/>
        </extensions>
      </trkpt>
      <trkpt lat="50.38717498071491718292236328125" lon="5.718176923692226409912109375">
        <ele>428.79998779296875</ele>
        <time>2025-04-30T01:00:17.000Z</time>
        <extensions>
          <ns3:TrackPointExtension/>
        </extensions>
      </trkpt>
      <trkpt lat="50.38717498071491718292236328125" lon="5.718176923692226409912109375">
        <ele>428.79998779296875</ele>
        <time>2025-04-30T01:00:28.000Z</time>
        <extensions>
          <ns3:TrackPointExtension/>
        </extensions>
      </trkpt>
      <trkpt lat="50.38679293356835842132568359375" lon="5.7157329283654689788818359375">
        <ele>441.600006103515625</ele>
        <time>2025-04-30T01:00:39.000Z</time>
        <extensions>
          <ns3:TrackPointExtension/>
        </extensions>
      </trkpt>
      <trkpt lat="50.38650895468890666961669921875" lon="5.71367491967976093292236328125">
        <ele>452.79998779296875</ele>
        <time>2025-04-30T01:00:50.000Z</time>
        <extensions>
          <ns3:TrackPointExtension/>
        </extensions>
      </trkpt>
      <trkpt lat="50.38648095913231372833251953125" lon="5.7133149169385433197021484375">
        <ele>454.79998779296875</ele>
        <time>2025-04-30T01:01:01.000Z</time>
        <extensions>
          <ns3:TrackPointExtension/>
        </extensions>
      </trkpt>
      <trkpt lat="50.38654692471027374267578125" lon="5.712254941463470458984375">
        <ele>463</ele>
        <time>2025-04-30T01:01:12.000Z</time>
        <extensions>
          <ns3:TrackPointExtension/>
        </extensions>
      </trkpt>
      <trkpt lat="50.38639194332063198089599609375" lon="5.7113599218428134918212890625">
        <ele>468.79998779296875</ele>
        <time>2025-04-30T01:01:23.000Z</time>
        <extensions>
          <ns3:TrackPointExtension/>
        </extensions>
      </trkpt>
      <trkpt lat="50.3861809708178043365478515625" lon="5.710411928594112396240234375">
        <ele>471.79998779296875</ele>
        <time>2025-04-30T01:01:33.000Z</time>
        <extensions>
          <ns3:TrackPointExtension/>
        </extensions>
      </trkpt>
      <trkpt lat="50.38613093085587024688720703125" lon="5.71024395525455474853515625">
        <ele>471.399993896484375</ele>
        <time>2025-04-30T01:01:44.000Z</time>
        <extensions>
          <ns3:TrackPointExtension/>
        </extensions>
      </trkpt>
      <trkpt lat="50.38590696640312671661376953125" lon="5.70942596532404422760009765625">
        <ele>471</ele>
        <time>2025-04-30T01:01:57.000Z</time>
        <extensions>
          <ns3:TrackPointExtension/>
        </extensions>
      </trkpt>
      <trkpt lat="50.3856669925153255462646484375" lon="5.70844494737684726715087890625">
        <ele>474.600006103515625</ele>
        <time>2025-04-30T01:02:09.000Z</time>
        <extensions>
          <ns3:TrackPointExtension/>
        </extensions>
      </trkpt>
      <trkpt lat="50.3856059722602367401123046875" lon="5.70780993439257144927978515625">
        <ele>478.20001220703125</ele>
        <time>2025-04-30T01:02:21.000Z</time>
        <extensions>
          <ns3:TrackPointExtension/>
        </extensions>
      </trkpt>
      <trkpt lat="50.385629944503307342529296875" lon="5.70732898078858852386474609375">
        <ele>480.20001220703125</ele>
        <time>2025-04-30T01:02:34.000Z</time>
        <extensions>
          <ns3:TrackPointExtension/>
        </extensions>
      </trkpt>
      <trkpt lat="50.38569892756640911102294921875" lon="5.70695196278393268585205078125">
        <ele>481.600006103515625</ele>
        <time>2025-04-30T01:02:46.000Z</time>
        <extensions>
          <ns3:TrackPointExtension/>
        </extensions>
      </trkpt>
      <trkpt lat="50.3858919627964496612548828125" lon="5.70545294322073459625244140625">
        <ele>486.20001220703125</ele>
        <time>2025-04-30T01:02:58.000Z</time>
        <extensions>
          <ns3:TrackPointExtension/>
        </extensions>
      </trkpt>
      <trkpt lat="50.38587997667491436004638671875" lon="5.70523492991924285888671875">
        <ele>486.600006103515625</ele>
        <time>2025-04-30T01:03:11.000Z</time>
        <extensions>
          <ns3:TrackPointExtension/>
        </extensions>
      </trkpt>
      <trkpt lat="50.38569892756640911102294921875" lon="5.70454099215567111968994140625">
        <ele>484.20001220703125</ele>
        <time>2025-04-30T01:03:23.000Z</time>
        <extensions>
          <ns3:TrackPointExtension/>
        </extensions>
      </trkpt>
      <trkpt lat="50.3862299211323261260986328125" lon="5.70381193421781063079833984375">
        <ele>480.399993896484375</ele>
        <time>2025-04-30T01:03:35.000Z</time>
        <extensions>
          <ns3:TrackPointExtension/>
        </extensions>
      </trkpt>
      <trkpt lat="50.386382974684238433837890625" lon="5.7035399414598941802978515625">
        <ele>476</ele>
        <time>2025-04-30T01:03:48.000Z</time>
        <extensions>
          <ns3:TrackPointExtension/>
        </extensions>
      </trkpt>
      <trkpt lat="50.38651398383080959320068359375" lon="5.7032509334385395050048828125">
        <ele>472.399993896484375</ele>
        <time>2025-04-30T01:04:00.000Z</time>
        <extensions>
          <ns3:TrackPointExtension/>
        </extensions>
      </trkpt>
      <trkpt lat="50.386840961873531341552734375" lon="5.70243897847831249237060546875">
        <ele>466.20001220703125</ele>
        <time>2025-04-30T01:04:12.000Z</time>
        <extensions>
          <ns3:TrackPointExtension/>
        </extensions>
      </trkpt>
      <trkpt lat="50.38693693466484546661376953125" lon="5.70211996324360370635986328125">
        <ele>466</ele>
        <time>2025-04-30T01:04:25.000Z</time>
        <extensions>
          <ns3:TrackPointExtension/>
        </extensions>
      </trkpt>
      <trkpt lat="50.3870379365980625152587890625" lon="5.7015879638493061065673828125">
        <ele>464.20001220703125</ele>
        <time>2025-04-30T01:04:37.000Z</time>
        <extensions>
          <ns3:TrackPointExtension/>
        </extensions>
      </trkpt>
      <trkpt lat="50.3870379365980625152587890625" lon="5.7015879638493061065673828125">
        <ele>464.20001220703125</ele>
        <time>2025-04-30T01:04:49.000Z</time>
        <extensions>
          <ns3:TrackPointExtension/>
        </extensions>
      </trkpt>
      <trkpt lat="50.38710792548954486846923828125" lon="5.70119694806635379791259765625">
        <ele>463.600006103515625</ele>
        <time>2025-04-30T01:05:02.000Z</time>
        <extensions>
          <ns3:TrackPointExtension/>
        </extensions>
      </trkpt>
      <trkpt lat="50.3871009685099124908447265625" lon="5.7010069303214550018310546875">
        <ele>463.600006103515625</ele>
        <time>2025-04-30T01:05:08.000Z</time>
        <extensions>
          <ns3:TrackPointExtension/>
        </extensions>
      </trkpt>
      <trkpt lat="50.38716592825949192047119140625" lon="5.70076092146337032318115234375">
        <ele>463.600006103515625</ele>
        <time>2025-04-30T01:05:15.000Z</time>
        <extensions>
          <ns3:TrackPointExtension/>
        </extensions>
      </trkpt>
      <trkpt lat="50.3874099254608154296875" lon="5.700344927608966827392578125">
        <ele>460.79998779296875</ele>
        <time>2025-04-30T01:05:21.000Z</time>
        <extensions>
          <ns3:TrackPointExtension/>
        </extensions>
      </trkpt>
      <trkpt lat="50.38748494349420070648193359375" lon="5.700171925127506256103515625">
        <ele>459.20001220703125</ele>
        <time>2025-04-30T01:05:28.000Z</time>
        <extensions>
          <ns3:TrackPointExtension/>
        </extensions>
      </trkpt>
      <trkpt lat="50.38775098510086536407470703125" lon="5.69947698153555393218994140625">
        <ele>452.79998779296875</ele>
        <time>2025-04-30T01:05:34.000Z</time>
        <extensions>
          <ns3:TrackPointExtension/>
        </extensions>
      </trkpt>
      <trkpt lat="50.3887609206140041351318359375" lon="5.6970969401299953460693359375">
        <ele>445.79998779296875</ele>
        <time>2025-04-30T01:05:41.000Z</time>
        <extensions>
          <ns3:TrackPointExtension/>
        </extensions>
      </trkpt>
      <trkpt lat="50.38886996917426586151123046875" lon="5.6967029906809329986572265625">
        <ele>445</ele>
        <time>2025-04-30T01:05:47.000Z</time>
        <extensions>
          <ns3:TrackPointExtension/>
        </extensions>
      </trkpt>
      <trkpt lat="50.3891129605472087860107421875" lon="5.6954319588840007781982421875">
        <ele>442.600006103515625</ele>
        <time>2025-04-30T01:05:54.000Z</time>
        <extensions>
          <ns3:TrackPointExtension/>
        </extensions>
      </trkpt>
      <trkpt lat="50.3894309699535369873046875" lon="5.694421939551830291748046875">
        <ele>436.600006103515625</ele>
        <time>2025-04-30T01:06:00.000Z</time>
        <extensions>
          <ns3:TrackPointExtension/>
        </extensions>
      </trkpt>
      <trkpt lat="50.3895119391381740570068359375" lon="5.69345198571681976318359375">
        <ele>433.79998779296875</ele>
        <time>2025-04-30T01:06:07.000Z</time>
        <extensions>
          <ns3:TrackPointExtension/>
        </extensions>
      </trkpt>
      <trkpt lat="50.3895159624516963958740234375" lon="5.6931919790804386138916015625">
        <ele>433</ele>
        <time>2025-04-30T01:06:13.000Z</time>
        <extensions>
          <ns3:TrackPointExtension/>
        </extensions>
      </trkpt>
      <trkpt lat="50.38950498215854167938232421875" lon="5.69295099936425685882568359375">
        <ele>431.600006103515625</ele>
        <time>2025-04-30T01:06:20.000Z</time>
        <extensions>
          <ns3:TrackPointExtension/>
        </extensions>
      </trkpt>
      <trkpt lat="50.38946491666138172149658203125" lon="5.69279794581234455108642578125">
        <ele>430.600006103515625</ele>
        <time>2025-04-30T01:06:26.000Z</time>
        <extensions>
          <ns3:TrackPointExtension/>
        </extensions>
      </trkpt>
      <trkpt lat="50.3894049860537052154541015625" lon="5.69267892278730869293212890625">
        <ele>430.399993896484375</ele>
        <time>2025-04-30T01:06:33.000Z</time>
        <extensions>
          <ns3:TrackPointExtension/>
        </extensions>
      </trkpt>
      <trkpt lat="50.38865991868078708648681640625" lon="5.6915149278938770294189453125">
        <ele>429</ele>
        <time>2025-04-30T01:06:39.000Z</time>
        <extensions>
          <ns3:TrackPointExtension/>
        </extensions>
      </trkpt>
      <trkpt lat="50.3885109722614288330078125" lon="5.69121393375098705291748046875">
        <ele>428.399993896484375</ele>
        <time>2025-04-30T01:06:46.000Z</time>
        <extensions>
          <ns3:TrackPointExtension/>
        </extensions>
      </trkpt>
      <trkpt lat="50.388332940638065338134765625" lon="5.6907679326832294464111328125">
        <ele>427.399993896484375</ele>
        <time>2025-04-30T01:06:52.000Z</time>
        <extensions>
          <ns3:TrackPointExtension/>
        </extensions>
      </trkpt>
      <trkpt lat="50.3877289406955242156982421875" lon="5.689482986927032470703125">
        <ele>422.20001220703125</ele>
        <time>2025-04-30T01:06:59.000Z</time>
        <extensions>
          <ns3:TrackPointExtension/>
        </extensions>
      </trkpt>
      <trkpt lat="50.3869319893419742584228515625" lon="5.687580965459346771240234375">
        <ele>417</ele>
        <time>2025-04-30T01:07:05.000Z</time>
        <extensions>
          <ns3:TrackPointExtension/>
        </extensions>
      </trkpt>
      <trkpt lat="50.38684791885316371917724609375" lon="5.6872609443962574005126953125">
        <ele>415.20001220703125</ele>
        <time>2025-04-30T01:07:12.000Z</time>
        <extensions>
          <ns3:TrackPointExtension/>
        </extensions>
      </trkpt>
      <trkpt lat="50.3867809474468231201171875" lon="5.68690395914018154144287109375">
        <ele>414.399993896484375</ele>
        <time>2025-04-30T01:07:18.000Z</time>
        <extensions>
          <ns3:TrackPointExtension/>
        </extensions>
      </trkpt>
      <trkpt lat="50.3867529518902301788330078125" lon="5.68660992197692394256591796875">
        <ele>414.600006103515625</ele>
        <time>2025-04-30T01:07:25.000Z</time>
        <extensions>
          <ns3:TrackPointExtension/>
        </extensions>
      </trkpt>
      <trkpt lat="50.3867589868605136871337890625" lon="5.68643792532384395599365234375">
        <ele>414.600006103515625</ele>
        <time>2025-04-30T01:07:31.000Z</time>
        <extensions>
          <ns3:TrackPointExtension/>
        </extensions>
      </trkpt>
      <trkpt lat="50.3868069313466548919677734375" lon="5.6862549483776092529296875">
        <ele>414.600006103515625</ele>
        <time>2025-04-30T01:07:38.000Z</time>
        <extensions>
          <ns3:TrackPointExtension/>
        </extensions>
      </trkpt>
      <trkpt lat="50.386902987957000732421875" lon="5.68600491620600223541259765625">
        <ele>415</ele>
        <time>2025-04-30T01:07:44.000Z</time>
        <extensions>
          <ns3:TrackPointExtension/>
        </extensions>
      </trkpt>
      <trkpt lat="50.38756893016397953033447265625" lon="5.6847309507429599761962890625">
        <ele>418</ele>
        <time>2025-04-30T01:07:51.000Z</time>
        <extensions>
          <ns3:TrackPointExtension/>
        </extensions>
      </trkpt>
      <trkpt lat="50.387593992054462432861328125" lon="5.6845609657466411590576171875">
        <ele>419</ele>
        <time>2025-04-30T01:07:57.000Z</time>
        <extensions>
          <ns3:TrackPointExtension/>
        </extensions>
      </trkpt>
      <trkpt lat="50.38782893680036067962646484375" lon="5.68434395827353000640869140625">
        <ele>419.20001220703125</ele>
        <time>2025-04-30T01:08:04.000Z</time>
        <extensions>
          <ns3:TrackPointExtension/>
        </extensions>
      </trkpt>
      <trkpt lat="50.388216935098171234130859375" lon="5.68384791724383831024169921875">
        <ele>415.600006103515625</ele>
        <time>2025-04-30T01:08:12.000Z</time>
        <extensions>
          <ns3:TrackPointExtension/>
        </extensions>
      </trkpt>
      <trkpt lat="50.3887069411575794219970703125" lon="5.68319396115839481353759765625">
        <ele>415.20001220703125</ele>
        <time>2025-04-30T01:08:19.000Z</time>
        <extensions>
          <ns3:TrackPointExtension/>
        </extensions>
      </trkpt>
      <trkpt lat="50.38975392468273639678955078125" lon="5.6817999668419361114501953125">
        <ele>415</ele>
        <time>2025-04-30T01:08:26.000Z</time>
        <extensions>
          <ns3:TrackPointExtension/>
        </extensions>
      </trkpt>
      <trkpt lat="50.38995391689240932464599609375" lon="5.68201093934476375579833984375">
        <ele>412.20001220703125</ele>
        <time>2025-04-30T01:08:45.000Z</time>
        <extensions>
          <ns3:TrackPointExtension/>
        </extensions>
      </trkpt>
      <trkpt lat="50.39047795347869396209716796875" lon="5.68152797408401966094970703125">
        <ele>407.79998779296875</ele>
        <time>2025-04-30T01:08:49.000Z</time>
        <extensions>
          <ns3:TrackPointExtension/>
        </extensions>
      </trkpt>
      <trkpt lat="50.3906049393117427825927734375" lon="5.6813399679958820343017578125">
        <ele>406.399993896484375</ele>
        <time>2025-04-30T01:08:54.000Z</time>
        <extensions>
          <ns3:TrackPointExtension/>
        </extensions>
      </trkpt>
      <trkpt lat="50.391041971743106842041015625" lon="5.6805949844419956207275390625">
        <ele>404.399993896484375</ele>
        <time>2025-04-30T01:08:58.000Z</time>
        <extensions>
          <ns3:TrackPointExtension/>
        </extensions>
      </trkpt>
      <trkpt lat="50.39114196784794330596923828125" lon="5.68046196363866329193115234375">
        <ele>404</ele>
        <time>2025-04-30T01:09:03.000Z</time>
        <extensions>
          <ns3:TrackPointExtension/>
        </extensions>
      </trkpt>
      <trkpt lat="50.39145695976912975311279296875" lon="5.6801919825375080108642578125">
        <ele>404</ele>
        <time>2025-04-30T01:09:08.000Z</time>
        <extensions>
          <ns3:TrackPointExtension/>
        </extensions>
      </trkpt>
      <trkpt lat="50.3916369192302227020263671875" lon="5.68000799976289272308349609375">
        <ele>404.20001220703125</ele>
        <time>2025-04-30T01:09:12.000Z</time>
        <extensions>
          <ns3:TrackPointExtension/>
        </extensions>
      </trkpt>
      <trkpt lat="50.39168092422187328338623046875" lon="5.67985695786774158477783203125">
        <ele>404.600006103515625</ele>
        <time>2025-04-30T01:09:17.000Z</time>
        <extensions>
          <ns3:TrackPointExtension/>
        </extensions>
      </trkpt>
      <trkpt lat="50.39174898527562618255615234375" lon="5.679351948201656341552734375">
        <ele>406.20001220703125</ele>
        <time>2025-04-30T01:09:21.000Z</time>
        <extensions>
          <ns3:TrackPointExtension/>
        </extensions>
      </trkpt>
      <trkpt lat="50.39173892699182033538818359375" lon="5.67914097569882869720458984375">
        <ele>406.600006103515625</ele>
        <time>2025-04-30T01:09:26.000Z</time>
        <extensions>
          <ns3:TrackPointExtension/>
        </extensions>
      </trkpt>
      <trkpt lat="50.3920969180762767791748046875" lon="5.678661949932575225830078125">
        <ele>405.399993896484375</ele>
        <time>2025-04-30T01:09:31.000Z</time>
        <extensions>
          <ns3:TrackPointExtension/>
        </extensions>
      </trkpt>
      <trkpt lat="50.3920729458332061767578125" lon="5.67850898019969463348388671875">
        <ele>406</ele>
        <time>2025-04-30T01:09:39.000Z</time>
        <extensions>
          <ns3:TrackPointExtension/>
        </extensions>
      </trkpt>
      <trkpt lat="50.39225198328495025634765625" lon="5.6770819611847400665283203125">
        <ele>408.399993896484375</ele>
        <time>2025-04-30T01:09:48.000Z</time>
        <extensions>
          <ns3:TrackPointExtension/>
        </extensions>
      </trkpt>
      <trkpt lat="50.3922769613564014434814453125" lon="5.676823966205120086669921875">
        <ele>408</ele>
        <time>2025-04-30T01:09:56.000Z</time>
        <extensions>
          <ns3:TrackPointExtension/>
        </extensions>
      </trkpt>
      <trkpt lat="50.39226598106324672698974609375" lon="5.676656998693943023681640625">
        <ele>408.20001220703125</ele>
        <time>2025-04-30T01:10:05.000Z</time>
        <extensions>
          <ns3:TrackPointExtension/>
        </extensions>
      </trkpt>
      <trkpt lat="50.39223496802151203155517578125" lon="5.6765059567987918853759765625">
        <ele>408</ele>
        <time>2025-04-30T01:10:13.000Z</time>
        <extensions>
          <ns3:TrackPointExtension/>
        </extensions>
      </trkpt>
      <trkpt lat="50.39162292145192623138427734375" lon="5.675390996038913726806640625">
        <ele>409.20001220703125</ele>
        <time>2025-04-30T01:10:22.000Z</time>
        <extensions>
          <ns3:TrackPointExtension/>
        </extensions>
      </trkpt>
      <trkpt lat="50.391505993902683258056640625" lon="5.67513694055378437042236328125">
        <ele>410</ele>
        <time>2025-04-30T01:10:30.000Z</time>
        <extensions>
          <ns3:TrackPointExtension/>
        </extensions>
      </trkpt>
      <trkpt lat="50.39142695255577564239501953125" lon="5.67479194141924381256103515625">
        <ele>410.600006103515625</ele>
        <time>2025-04-30T01:10:39.000Z</time>
        <extensions>
          <ns3:TrackPointExtension/>
        </extensions>
      </trkpt>
      <trkpt lat="50.39061994291841983795166015625" lon="5.66967395134270191192626953125">
        <ele>417.600006103515625</ele>
        <time>2025-04-30T01:10:47.000Z</time>
        <extensions>
          <ns3:TrackPointExtension/>
        </extensions>
      </trkpt>
      <trkpt lat="50.39035993628203868865966796875" lon="5.66811894066631793975830078125">
        <ele>417.600006103515625</ele>
        <time>2025-04-30T01:10:55.000Z</time>
        <extensions>
          <ns3:TrackPointExtension/>
        </extensions>
      </trkpt>
      <trkpt lat="50.39027092047035694122314453125" lon="5.6674209795892238616943359375">
        <ele>415.399993896484375</ele>
        <time>2025-04-30T01:11:04.000Z</time>
        <extensions>
          <ns3:TrackPointExtension/>
        </extensions>
      </trkpt>
      <trkpt lat="50.39027092047035694122314453125" lon="5.66720698960125446319580078125">
        <ele>414.399993896484375</ele>
        <time>2025-04-30T01:11:12.000Z</time>
        <extensions>
          <ns3:TrackPointExtension/>
        </extensions>
      </trkpt>
      <trkpt lat="50.39030495099723339080810546875" lon="5.66697095520794391632080078125">
        <ele>413</ele>
        <time>2025-04-30T01:11:21.000Z</time>
        <extensions>
          <ns3:TrackPointExtension/>
        </extensions>
      </trkpt>
      <trkpt lat="50.38961294107139110565185546875" lon="5.666066966950893402099609375">
        <ele>409</ele>
        <time>2025-04-30T01:11:28.000Z</time>
        <extensions>
          <ns3:TrackPointExtension/>
        </extensions>
      </trkpt>
      <trkpt lat="50.38921195082366466522216796875" lon="5.66541896201670169830322265625">
        <ele>408</ele>
        <time>2025-04-30T01:11:35.000Z</time>
        <extensions>
          <ns3:TrackPointExtension/>
        </extensions>
      </trkpt>
      <trkpt lat="50.38898094557225704193115234375" lon="5.6650049798190593719482421875">
        <ele>407</ele>
        <time>2025-04-30T01:11:42.000Z</time>
        <extensions>
          <ns3:TrackPointExtension/>
        </extensions>
      </trkpt>
      <trkpt lat="50.38831693120300769805908203125" lon="5.663703940808773040771484375">
        <ele>403</ele>
        <time>2025-04-30T01:11:49.000Z</time>
        <extensions>
          <ns3:TrackPointExtension/>
        </extensions>
      </trkpt>
      <trkpt lat="50.3882449306547641754150390625" lon="5.663528926670551300048828125">
        <ele>403</ele>
        <time>2025-04-30T01:11:56.000Z</time>
        <extensions>
          <ns3:TrackPointExtension/>
        </extensions>
      </trkpt>
      <trkpt lat="50.3878429345786571502685546875" lon="5.662673972547054290771484375">
        <ele>402.20001220703125</ele>
        <time>2025-04-30T01:12:04.000Z</time>
        <extensions>
          <ns3:TrackPointExtension/>
        </extensions>
      </trkpt>
      <trkpt lat="50.38757798261940479278564453125" lon="5.66210794262588024139404296875">
        <ele>401</ele>
        <time>2025-04-30T01:12:12.000Z</time>
        <extensions>
          <ns3:TrackPointExtension/>
        </extensions>
      </trkpt>
      <trkpt lat="50.38728897459805011749267578125" lon="5.66142397932708263397216796875">
        <ele>399.600006103515625</ele>
        <time>2025-04-30T01:12:20.000Z</time>
        <extensions>
          <ns3:TrackPointExtension/>
        </extensions>
      </trkpt>
      <trkpt lat="50.38685797713696956634521484375" lon="5.6599129736423492431640625">
        <ele>396.79998779296875</ele>
        <time>2025-04-30T01:12:28.000Z</time>
        <extensions>
          <ns3:TrackPointExtension/>
        </extensions>
      </trkpt>
      <trkpt lat="50.3866899199783802032470703125" lon="5.659225992858409881591796875">
        <ele>399.600006103515625</ele>
        <time>2025-04-30T01:12:36.000Z</time>
        <extensions>
          <ns3:TrackPointExtension/>
        </extensions>
      </trkpt>
      <trkpt lat="50.38660199381411075592041015625" lon="5.65860397182404994964599609375">
        <ele>399.600006103515625</ele>
        <time>2025-04-30T01:12:44.000Z</time>
        <extensions>
          <ns3:TrackPointExtension/>
        </extensions>
      </trkpt>
      <trkpt lat="50.386380963027477264404296875" lon="5.65590097568929195404052734375">
        <ele>381.79998779296875</ele>
        <time>2025-04-30T01:12:52.000Z</time>
        <extensions>
          <ns3:TrackPointExtension/>
        </extensions>
      </trkpt>
      <trkpt lat="50.38633796386420726776123046875" lon="5.655651949346065521240234375">
        <ele>379.20001220703125</ele>
        <time>2025-04-30T01:13:00.000Z</time>
        <extensions>
          <ns3:TrackPointExtension/>
        </extensions>
      </trkpt>
      <trkpt lat="50.3862379677593708038330078125" lon="5.65552798099815845489501953125">
        <ele>379.600006103515625</ele>
        <time>2025-04-30T01:13:08.000Z</time>
        <extensions>
          <ns3:TrackPointExtension/>
        </extensions>
      </trkpt>
      <trkpt lat="50.3861189447343349456787109375" lon="5.65543795935809612274169921875">
        <ele>380.79998779296875</ele>
        <time>2025-04-30T01:13:16.000Z</time>
        <extensions>
          <ns3:TrackPointExtension/>
        </extensions>
      </trkpt>
      <trkpt lat="50.38573396392166614532470703125" lon="5.6555089540779590606689453125">
        <ele>385.399993896484375</ele>
        <time>2025-04-30T01:13:24.000Z</time>
        <extensions>
          <ns3:TrackPointExtension/>
        </extensions>
      </trkpt>
      <trkpt lat="50.38563991896808147430419921875" lon="5.65546494908630847930908203125">
        <ele>384.600006103515625</ele>
        <time>2025-04-30T01:13:32.000Z</time>
        <extensions>
          <ns3:TrackPointExtension/>
        </extensions>
      </trkpt>
      <trkpt lat="50.38555593229830265045166015625" lon="5.6553639471530914306640625">
        <ele>382.79998779296875</ele>
        <time>2025-04-30T01:13:40.000Z</time>
        <extensions>
          <ns3:TrackPointExtension/>
        </extensions>
      </trkpt>
      <trkpt lat="50.3854919783771038055419921875" lon="5.65518599934875965118408203125">
        <ele>381.20001220703125</ele>
        <time>2025-04-30T01:13:48.000Z</time>
        <extensions>
          <ns3:TrackPointExtension/>
        </extensions>
      </trkpt>
      <trkpt lat="50.3854309581220149993896484375" lon="5.65450496971607208251953125">
        <ele>378</ele>
        <time>2025-04-30T01:13:56.000Z</time>
        <extensions>
          <ns3:TrackPointExtension/>
        </extensions>
      </trkpt>
      <trkpt lat="50.38535292260348796844482421875" lon="5.65293797291815280914306640625">
        <ele>375.600006103515625</ele>
        <time>2025-04-30T01:14:04.000Z</time>
        <extensions>
          <ns3:TrackPointExtension/>
        </extensions>
      </trkpt>
      <trkpt lat="50.3852029703557491302490234375" lon="5.65089899115264415740966796875">
        <ele>371.399993896484375</ele>
        <time>2025-04-30T01:14:12.000Z</time>
        <extensions>
          <ns3:TrackPointExtension/>
        </extensions>
      </trkpt>
      <trkpt lat="50.3850789181888103485107421875" lon="5.65002995543181896209716796875">
        <ele>369.20001220703125</ele>
        <time>2025-04-30T01:14:20.000Z</time>
        <extensions>
          <ns3:TrackPointExtension/>
        </extensions>
      </trkpt>
      <trkpt lat="50.38470298983156681060791015625" lon="5.64835692755877971649169921875">
        <ele>368.79998779296875</ele>
        <time>2025-04-30T01:14:28.000Z</time>
        <extensions>
          <ns3:TrackPointExtension/>
        </extensions>
      </trkpt>
      <trkpt lat="50.38430593907833099365234375" lon="5.646736957132816314697265625">
        <ele>365.399993896484375</ele>
        <time>2025-04-30T01:14:36.000Z</time>
        <extensions>
          <ns3:TrackPointExtension/>
        </extensions>
      </trkpt>
      <trkpt lat="50.3840459324419498443603515625" lon="5.6461899541318416595458984375">
        <ele>363.79998779296875</ele>
        <time>2025-04-30T01:14:44.000Z</time>
        <extensions>
          <ns3:TrackPointExtension/>
        </extensions>
      </trkpt>
      <trkpt lat="50.38291697390377521514892578125" lon="5.64428198151290416717529296875">
        <ele>362.20001220703125</ele>
        <time>2025-04-30T01:14:52.000Z</time>
        <extensions>
          <ns3:TrackPointExtension/>
        </extensions>
      </trkpt>
      <trkpt lat="50.38282192312180995941162109375" lon="5.644029937684535980224609375">
        <ele>362</ele>
        <time>2025-04-30T01:15:00.000Z</time>
        <extensions>
          <ns3:TrackPointExtension/>
        </extensions>
      </trkpt>
      <trkpt lat="50.3827809356153011322021484375" lon="5.64376196824014186859130859375">
        <ele>362.600006103515625</ele>
        <time>2025-04-30T01:15:08.000Z</time>
        <extensions>
          <ns3:TrackPointExtension/>
        </extensions>
      </trkpt>
      <trkpt lat="50.3828379325568675994873046875" lon="5.643231980502605438232421875">
        <ele>364.600006103515625</ele>
        <time>2025-04-30T01:15:16.000Z</time>
        <extensions>
          <ns3:TrackPointExtension/>
        </extensions>
      </trkpt>
      <trkpt lat="50.38290792144834995269775390625" lon="5.64114497043192386627197265625">
        <ele>366.79998779296875</ele>
        <time>2025-04-30T01:15:24.000Z</time>
        <extensions>
          <ns3:TrackPointExtension/>
        </extensions>
      </trkpt>
      <trkpt lat="50.38288495503365993499755859375" lon="5.6389469839632511138916015625">
        <ele>368.399993896484375</ele>
        <time>2025-04-30T01:15:32.000Z</time>
        <extensions>
          <ns3:TrackPointExtension/>
        </extensions>
      </trkpt>
      <trkpt lat="50.38287699222564697265625" lon="5.63817299902439117431640625">
        <ele>371</ele>
        <time>2025-04-30T01:15:38.000Z</time>
        <extensions>
          <ns3:TrackPointExtension/>
        </extensions>
      </trkpt>
      <trkpt lat="50.38281597197055816650390625" lon="5.63771794550120830535888671875">
        <ele>374.600006103515625</ele>
        <time>2025-04-30T01:15:44.000Z</time>
        <extensions>
          <ns3:TrackPointExtension/>
        </extensions>
      </trkpt>
      <trkpt lat="50.38236293010413646697998046875" lon="5.636500976979732513427734375">
        <ele>380.600006103515625</ele>
        <time>2025-04-30T01:15:50.000Z</time>
        <extensions>
          <ns3:TrackPointExtension/>
        </extensions>
      </trkpt>
      <trkpt lat="50.38223795592784881591796875" lon="5.63599194400012493133544921875">
        <ele>381</ele>
        <time>2025-04-30T01:15:56.000Z</time>
        <extensions>
          <ns3:TrackPointExtension/>
        </extensions>
      </trkpt>
      <trkpt lat="50.38176094181835651397705078125" lon="5.63362598419189453125">
        <ele>375.399993896484375</ele>
        <time>2025-04-30T01:16:05.000Z</time>
        <extensions>
          <ns3:TrackPointExtension/>
        </extensions>
      </trkpt>
      <trkpt lat="50.38135894574224948883056640625" lon="5.6313509680330753326416015625">
        <ele>366.79998779296875</ele>
        <time>2025-04-30T01:16:15.000Z</time>
        <extensions>
          <ns3:TrackPointExtension/>
        </extensions>
      </trkpt>
      <trkpt lat="50.3809399344027042388916015625" lon="5.62874696217477321624755859375">
        <ele>364.79998779296875</ele>
        <time>2025-04-30T01:16:24.000Z</time>
        <extensions>
          <ns3:TrackPointExtension/>
        </extensions>
      </trkpt>
      <trkpt lat="50.38092099130153656005859375" lon="5.6283619813621044158935546875">
        <ele>365.79998779296875</ele>
        <time>2025-04-30T01:16:34.000Z</time>
        <extensions>
          <ns3:TrackPointExtension/>
        </extensions>
      </trkpt>
      <trkpt lat="50.3809149563312530517578125" lon="5.62702598981559276580810546875">
        <ele>367.79998779296875</ele>
        <time>2025-04-30T01:16:44.000Z</time>
        <extensions>
          <ns3:TrackPointExtension/>
        </extensions>
      </trkpt>
      <trkpt lat="50.38093398325145244598388671875" lon="5.6264589540660381317138671875">
        <ele>368.20001220703125</ele>
        <time>2025-04-30T01:16:53.000Z</time>
        <extensions>
          <ns3:TrackPointExtension/>
        </extensions>
      </trkpt>
      <trkpt lat="50.380970947444438934326171875" lon="5.62630397267639636993408203125">
        <ele>368.399993896484375</ele>
        <time>2025-04-30T01:17:03.000Z</time>
        <extensions>
          <ns3:TrackPointExtension/>
        </extensions>
      </trkpt>
      <trkpt lat="50.38102693855762481689453125" lon="5.62616198323667049407958984375">
        <ele>368.20001220703125</ele>
        <time>2025-04-30T01:17:12.000Z</time>
        <extensions>
          <ns3:TrackPointExtension/>
        </extensions>
      </trkpt>
      <trkpt lat="50.3812339715659618377685546875" lon="5.625918991863727569580078125">
        <ele>367.399993896484375</ele>
        <time>2025-04-30T01:17:22.000Z</time>
        <extensions>
          <ns3:TrackPointExtension/>
        </extensions>
      </trkpt>
      <trkpt lat="50.38185096345841884613037109375" lon="5.62532898969948291778564453125">
        <ele>363.399993896484375</ele>
        <time>2025-04-30T01:17:32.000Z</time>
        <extensions>
          <ns3:TrackPointExtension/>
        </extensions>
      </trkpt>
      <trkpt lat="50.38194299675524234771728515625" lon="5.62514492310583591461181640625">
        <ele>361.79998779296875</ele>
        <time>2025-04-30T01:17:41.000Z</time>
        <extensions>
          <ns3:TrackPointExtension/>
        </extensions>
      </trkpt>
      <trkpt lat="50.38199597038328647613525390625" lon="5.62493495643138885498046875">
        <ele>360.79998779296875</ele>
        <time>2025-04-30T01:17:51.000Z</time>
        <extensions>
          <ns3:TrackPointExtension/>
        </extensions>
      </trkpt>
      <trkpt lat="50.3820959664881229400634765625" lon="5.620384924113750457763671875">
        <ele>350.20001220703125</ele>
        <time>2025-04-30T01:18:00.000Z</time>
        <extensions>
          <ns3:TrackPointExtension/>
        </extensions>
      </trkpt>
      <trkpt lat="50.38207492791116237640380859375" lon="5.61917499639093875885009765625">
        <ele>346.20001220703125</ele>
        <time>2025-04-30T01:18:10.000Z</time>
        <extensions>
          <ns3:TrackPointExtension/>
        </extensions>
      </trkpt>
      <trkpt lat="50.38202094845473766326904296875" lon="5.61787596903741359710693359375">
        <ele>340.600006103515625</ele>
        <time>2025-04-30T01:18:20.000Z</time>
        <extensions>
          <ns3:TrackPointExtension/>
        </extensions>
      </trkpt>
      <trkpt lat="50.382299982011318206787109375" lon="5.61623998917639255523681640625">
        <ele>337.600006103515625</ele>
        <time>2025-04-30T01:18:29.000Z</time>
        <extensions>
          <ns3:TrackPointExtension/>
        </extensions>
      </trkpt>
      <trkpt lat="50.3825819492340087890625" lon="5.6146129779517650604248046875">
        <ele>339</ele>
        <time>2025-04-30T01:18:38.000Z</time>
        <extensions>
          <ns3:TrackPointExtension/>
        </extensions>
      </trkpt>
      <trkpt lat="50.3827549517154693603515625" lon="5.6137989275157451629638671875">
        <ele>339</ele>
        <time>2025-04-30T01:18:48.000Z</time>
        <extensions>
          <ns3:TrackPointExtension/>
        </extensions>
      </trkpt>
      <trkpt lat="50.38256895728409290313720703125" lon="5.61399196274578571319580078125">
        <ele>339.600006103515625</ele>
        <time>2025-04-30T01:18:52.000Z</time>
        <extensions>
          <ns3:TrackPointExtension/>
        </extensions>
      </trkpt>
      <trkpt lat="50.38206897675991058349609375" lon="5.61458892188966274261474609375">
        <ele>340.399993896484375</ele>
        <time>2025-04-30T01:18:57.000Z</time>
        <extensions>
          <ns3:TrackPointExtension/>
        </extensions>
      </trkpt>
      <trkpt lat="50.38189195096492767333984375" lon="5.6146639399230480194091796875">
        <ele>341</ele>
        <time>2025-04-30T01:19:02.000Z</time>
        <extensions>
          <ns3:TrackPointExtension/>
        </extensions>
      </trkpt>
      <trkpt lat="50.38160093128681182861328125" lon="5.61468598432838916778564453125">
        <ele>340.600006103515625</ele>
        <time>2025-04-30T01:19:06.000Z</time>
        <extensions>
          <ns3:TrackPointExtension/>
        </extensions>
      </trkpt>
      <trkpt lat="50.3812309540808200836181640625" lon="5.61465899460017681121826171875">
        <ele>340.20001220703125</ele>
        <time>2025-04-30T01:19:11.000Z</time>
        <extensions>
          <ns3:TrackPointExtension/>
        </extensions>
      </trkpt>
      <trkpt lat="50.38086893968284130096435546875" lon="5.61468799598515033721923828125">
        <ele>341</ele>
        <time>2025-04-30T01:19:15.000Z</time>
        <extensions>
          <ns3:TrackPointExtension/>
        </extensions>
      </trkpt>
      <trkpt lat="50.37997593171894550323486328125" lon="5.61508295126259326934814453125">
        <ele>342.399993896484375</ele>
        <time>2025-04-30T01:19:20.000Z</time>
        <extensions>
          <ns3:TrackPointExtension/>
        </extensions>
      </trkpt>
      <trkpt lat="50.37957896478474140167236328125" lon="5.615216977894306182861328125">
        <ele>343.79998779296875</ele>
        <time>2025-04-30T01:19:24.000Z</time>
        <extensions>
          <ns3:TrackPointExtension/>
        </extensions>
      </trkpt>
      <trkpt lat="50.3793619573116302490234375" lon="5.61522896401584148406982421875">
        <ele>345.399993896484375</ele>
        <time>2025-04-30T01:19:29.000Z</time>
        <extensions>
          <ns3:TrackPointExtension/>
        </extensions>
      </trkpt>
      <trkpt lat="50.37903196178376674652099609375" lon="5.61515696346759796142578125">
        <ele>348.79998779296875</ele>
        <time>2025-04-30T01:19:34.000Z</time>
        <extensions>
          <ns3:TrackPointExtension/>
        </extensions>
      </trkpt>
      <trkpt lat="50.3788119368255138397216796875" lon="5.61516392044723033905029296875">
        <ele>351.399993896484375</ele>
        <time>2025-04-30T01:19:38.000Z</time>
        <extensions>
          <ns3:TrackPointExtension/>
        </extensions>
      </trkpt>
      <trkpt lat="50.37850993685424327850341796875" lon="5.6152689456939697265625">
        <ele>355.600006103515625</ele>
        <time>2025-04-30T01:19:43.000Z</time>
        <extensions>
          <ns3:TrackPointExtension/>
        </extensions>
      </trkpt>
      <trkpt lat="50.37824791856110095977783203125" lon="5.615267939865589141845703125">
        <ele>356.600006103515625</ele>
        <time>2025-04-30T01:19:47.000Z</time>
        <extensions>
          <ns3:TrackPointExtension/>
        </extensions>
      </trkpt>
      <trkpt lat="50.3777159191668033599853515625" lon="5.6151829473674297332763671875">
        <ele>360.600006103515625</ele>
        <time>2025-04-30T01:19:52.000Z</time>
        <extensions>
          <ns3:TrackPointExtension/>
        </extensions>
      </trkpt>
      <trkpt lat="50.3774319402873516082763671875" lon="5.61522896401584148406982421875">
        <ele>364</ele>
        <time>2025-04-30T01:19:57.000Z</time>
        <extensions>
          <ns3:TrackPointExtension/>
        </extensions>
      </trkpt>
      <trkpt lat="50.37719196639955043792724609375" lon="5.61536592431366443634033203125">
        <ele>367.399993896484375</ele>
        <time>2025-04-30T01:20:01.000Z</time>
        <extensions>
          <ns3:TrackPointExtension/>
        </extensions>
      </trkpt>
      <trkpt lat="50.37701896391808986663818359375" lon="5.61540096066892147064208984375">
        <ele>367</ele>
        <time>2025-04-30T01:20:06.000Z</time>
        <extensions>
          <ns3:TrackPointExtension/>
        </extensions>
      </trkpt>
      <trkpt lat="50.3766309656202793121337890625" lon="5.615554936230182647705078125">
        <ele>367.600006103515625</ele>
        <time>2025-04-30T01:20:10.000Z</time>
        <extensions>
          <ns3:TrackPointExtension/>
        </extensions>
      </trkpt>
      <trkpt lat="50.37601799704134464263916015625" lon="5.61585894785821437835693359375">
        <ele>368.600006103515625</ele>
        <time>2025-04-30T01:20:15.000Z</time>
        <extensions>
          <ns3:TrackPointExtension/>
        </extensions>
      </trkpt>
      <trkpt lat="50.3758259676396846771240234375" lon="5.615963973104953765869140625">
        <ele>367</ele>
        <time>2025-04-30T01:20:20.000Z</time>
        <extensions>
          <ns3:TrackPointExtension/>
        </extensions>
      </trkpt>
      <trkpt lat="50.37541299127042293548583984375" lon="5.61611694283783435821533203125">
        <ele>361</ele>
        <time>2025-04-30T01:20:24.000Z</time>
        <extensions>
          <ns3:TrackPointExtension/>
        </extensions>
      </trkpt>
      <trkpt lat="50.37505491636693477630615234375" lon="5.6159959919750690460205078125">
        <ele>356.79998779296875</ele>
        <time>2025-04-30T01:20:29.000Z</time>
        <extensions>
          <ns3:TrackPointExtension/>
        </extensions>
      </trkpt>
      <trkpt lat="50.37405394949018955230712890625" lon="5.61551696620881557464599609375">
        <ele>345.600006103515625</ele>
        <time>2025-04-30T01:20:33.000Z</time>
        <extensions>
          <ns3:TrackPointExtension/>
        </extensions>
      </trkpt>
      <trkpt lat="50.37361993454396724700927734375" lon="5.61543398536741733551025390625">
        <ele>342.79998779296875</ele>
        <time>2025-04-30T01:20:38.000Z</time>
        <extensions>
          <ns3:TrackPointExtension/>
        </extensions>
      </trkpt>
      <trkpt lat="50.37299095652997493743896484375" lon="5.61548394151031970977783203125">
        <ele>338.399993896484375</ele>
        <time>2025-04-30T01:20:42.000Z</time>
        <extensions>
          <ns3:TrackPointExtension/>
        </extensions>
      </trkpt>
      <trkpt lat="50.3724279440939426422119140625" lon="5.6154759787023067474365234375">
        <ele>332</ele>
        <time>2025-04-30T01:20:47.000Z</time>
        <extensions>
          <ns3:TrackPointExtension/>
        </extensions>
      </trkpt>
      <trkpt lat="50.3719769977033138275146484375" lon="5.61560899950563907623291015625">
        <ele>329.79998779296875</ele>
        <time>2025-04-30T01:20:52.000Z</time>
        <extensions>
          <ns3:TrackPointExtension/>
        </extensions>
      </trkpt>
      <trkpt lat="50.37100595422089099884033203125" lon="5.61611694283783435821533203125">
        <ele>321.20001220703125</ele>
        <time>2025-04-30T01:20:56.000Z</time>
        <extensions>
          <ns3:TrackPointExtension/>
        </extensions>
      </trkpt>
      <trkpt lat="50.3705269284546375274658203125" lon="5.6165029294788837432861328125">
        <ele>317.79998779296875</ele>
        <time>2025-04-30T01:21:01.000Z</time>
        <extensions>
          <ns3:TrackPointExtension/>
        </extensions>
      </trkpt>
      <trkpt lat="50.3697879798710346221923828125" lon="5.617231987416744232177734375">
        <ele>305.600006103515625</ele>
        <time>2025-04-30T01:21:05.000Z</time>
        <extensions>
          <ns3:TrackPointExtension/>
        </extensions>
      </trkpt>
      <trkpt lat="50.36858593113720417022705078125" lon="5.6178909726440906524658203125">
        <ele>294.399993896484375</ele>
        <time>2025-04-30T01:21:10.000Z</time>
        <extensions>
          <ns3:TrackPointExtension/>
        </extensions>
      </trkpt>
      <trkpt lat="50.3678799234330654144287109375" lon="5.6180649809539318084716796875">
        <ele>292.20001220703125</ele>
        <time>2025-04-30T01:21:15.000Z</time>
        <extensions>
          <ns3:TrackPointExtension/>
        </extensions>
      </trkpt>
      <trkpt lat="50.36761195398867130279541015625" lon="5.618197917938232421875">
        <ele>289.399993896484375</ele>
        <time>2025-04-30T01:21:19.000Z</time>
        <extensions>
          <ns3:TrackPointExtension/>
        </extensions>
      </trkpt>
      <trkpt lat="50.3674819506704807281494140625" lon="5.61830696649849414825439453125">
        <ele>288.399993896484375</ele>
        <time>2025-04-30T01:21:24.000Z</time>
        <extensions>
          <ns3:TrackPointExtension/>
        </extensions>
      </trkpt>
      <trkpt lat="50.3673689626157283782958984375" lon="5.61843395233154296875">
        <ele>286.600006103515625</ele>
        <time>2025-04-30T01:21:28.000Z</time>
        <extensions>
          <ns3:TrackPointExtension/>
        </extensions>
      </trkpt>
      <trkpt lat="50.3673099540174007415771484375" lon="5.6185779534280300140380859375">
        <ele>285</ele>
        <time>2025-04-30T01:21:33.000Z</time>
        <extensions>
          <ns3:TrackPointExtension/>
        </extensions>
      </trkpt>
      <trkpt lat="50.36729696206748485565185546875" lon="5.61872296035289764404296875">
        <ele>283.79998779296875</ele>
        <time>2025-04-30T01:21:38.000Z</time>
        <extensions>
          <ns3:TrackPointExtension/>
        </extensions>
      </trkpt>
      <trkpt lat="50.36734993569552898406982421875" lon="5.6190329231321811676025390625">
        <ele>281.399993896484375</ele>
        <time>2025-04-30T01:21:42.000Z</time>
        <extensions>
          <ns3:TrackPointExtension/>
        </extensions>
      </trkpt>
      <trkpt lat="50.3673679567873477935791015625" lon="5.61924599111080169677734375">
        <ele>280.79998779296875</ele>
        <time>2025-04-30T01:21:47.000Z</time>
        <extensions>
          <ns3:TrackPointExtension/>
        </extensions>
      </trkpt>
      <trkpt lat="50.36733099259436130523681640625" lon="5.61939996667206287384033203125">
        <ele>280.79998779296875</ele>
        <time>2025-04-30T01:21:51.000Z</time>
        <extensions>
          <ns3:TrackPointExtension/>
        </extensions>
      </trkpt>
      <trkpt lat="50.36689396016299724578857421875" lon="5.61953793279826641082763671875">
        <ele>276.399993896484375</ele>
        <time>2025-04-30T01:21:56.000Z</time>
        <extensions>
          <ns3:TrackPointExtension/>
        </extensions>
      </trkpt>
      <trkpt lat="50.3667859174311161041259765625" lon="5.619529969990253448486328125">
        <ele>275.600006103515625</ele>
        <time>2025-04-30T01:22:02.000Z</time>
        <extensions>
          <ns3:TrackPointExtension/>
        </extensions>
      </trkpt>
      <trkpt lat="50.36666295491158962249755859375" lon="5.619471967220306396484375">
        <ele>274.20001220703125</ele>
        <time>2025-04-30T01:22:07.000Z</time>
        <extensions>
          <ns3:TrackPointExtension/>
        </extensions>
      </trkpt>
      <trkpt lat="50.36610991694033145904541015625" lon="5.6189249642193317413330078125">
        <ele>272.79998779296875</ele>
        <time>2025-04-30T01:22:12.000Z</time>
        <extensions>
          <ns3:TrackPointExtension/>
        </extensions>
      </trkpt>
      <trkpt lat="50.366010926663875579833984375" lon="5.61876193620264530181884765625">
        <ele>274</ele>
        <time>2025-04-30T01:22:17.000Z</time>
        <extensions>
          <ns3:TrackPointExtension/>
        </extensions>
      </trkpt>
      <trkpt lat="50.3659309633076190948486328125" lon="5.61856697313487529754638671875">
        <ele>275</ele>
        <time>2025-04-30T01:22:22.000Z</time>
        <extensions>
          <ns3:TrackPointExtension/>
        </extensions>
      </trkpt>
      <trkpt lat="50.36574396304786205291748046875" lon="5.61793296597898006439208984375">
        <ele>277</ele>
        <time>2025-04-30T01:22:27.000Z</time>
        <extensions>
          <ns3:TrackPointExtension/>
        </extensions>
      </trkpt>
      <trkpt lat="50.365664921700954437255859375" lon="5.61775493435561656951904296875">
        <ele>277</ele>
        <time>2025-04-30T01:22:32.000Z</time>
        <extensions>
          <ns3:TrackPointExtension/>
        </extensions>
      </trkpt>
      <trkpt lat="50.36554598249495029449462890625" lon="5.617572963237762451171875">
        <ele>277</ele>
        <time>2025-04-30T01:22:37.000Z</time>
        <extensions>
          <ns3:TrackPointExtension/>
        </extensions>
      </trkpt>
      <trkpt lat="50.365261919796466827392578125" lon="5.617225952446460723876953125">
        <ele>275.79998779296875</ele>
        <time>2025-04-30T01:22:43.000Z</time>
        <extensions>
          <ns3:TrackPointExtension/>
        </extensions>
      </trkpt>
      <trkpt lat="50.365157984197139739990234375" lon="5.6170309893786907196044921875">
        <ele>275</ele>
        <time>2025-04-30T01:22:48.000Z</time>
        <extensions>
          <ns3:TrackPointExtension/>
        </extensions>
      </trkpt>
      <trkpt lat="50.3650659509003162384033203125" lon="5.61675497330725193023681640625">
        <ele>274.600006103515625</ele>
        <time>2025-04-30T01:22:53.000Z</time>
        <extensions>
          <ns3:TrackPointExtension/>
        </extensions>
      </trkpt>
      <trkpt lat="50.3648619353771209716796875" lon="5.6158699281513690948486328125">
        <ele>273.79998779296875</ele>
        <time>2025-04-30T01:22:58.000Z</time>
        <extensions>
          <ns3:TrackPointExtension/>
        </extensions>
      </trkpt>
      <trkpt lat="50.36467996425926685333251953125" lon="5.6148959510028362274169921875">
        <ele>272.600006103515625</ele>
        <time>2025-04-30T01:23:03.000Z</time>
        <extensions>
          <ns3:TrackPointExtension/>
        </extensions>
      </trkpt>
      <trkpt lat="50.36433999426662921905517578125" lon="5.61407796107232570648193359375">
        <ele>274.600006103515625</ele>
        <time>2025-04-30T01:23:08.000Z</time>
        <extensions>
          <ns3:TrackPointExtension/>
        </extensions>
      </trkpt>
      <trkpt lat="50.36422499455511569976806640625" lon="5.61346893198788166046142578125">
        <ele>274.20001220703125</ele>
        <time>2025-04-30T01:23:13.000Z</time>
        <extensions>
          <ns3:TrackPointExtension/>
        </extensions>
      </trkpt>
      <trkpt lat="50.3640919737517833709716796875" lon="5.61298194341361522674560546875">
        <ele>276.20001220703125</ele>
        <time>2025-04-30T01:23:18.000Z</time>
        <extensions>
          <ns3:TrackPointExtension/>
        </extensions>
      </trkpt>
      <trkpt lat="50.363769941031932830810546875" lon="5.61220192350447177886962890625">
        <ele>277.600006103515625</ele>
        <time>2025-04-30T01:23:24.000Z</time>
        <extensions>
          <ns3:TrackPointExtension/>
        </extensions>
      </trkpt>
      <trkpt lat="50.3636279515922069549560546875" lon="5.61171795241534709930419921875">
        <ele>276.79998779296875</ele>
        <time>2025-04-30T01:23:29.000Z</time>
        <extensions>
          <ns3:TrackPointExtension/>
        </extensions>
      </trkpt>
      <trkpt lat="50.36318094469606876373291015625" lon="5.60952591709792613983154296875">
        <ele>277.399993896484375</ele>
        <time>2025-04-30T01:23:34.000Z</time>
        <extensions>
          <ns3:TrackPointExtension/>
        </extensions>
      </trkpt>
      <trkpt lat="50.36307097412645816802978515625" lon="5.60910497792065143585205078125">
        <ele>275.79998779296875</ele>
        <time>2025-04-30T01:23:39.000Z</time>
        <extensions>
          <ns3:TrackPointExtension/>
        </extensions>
      </trkpt>
      <trkpt lat="50.36292797885835170745849609375" lon="5.6087959371507167816162109375">
        <ele>274.79998779296875</ele>
        <time>2025-04-30T01:23:44.000Z</time>
        <extensions>
          <ns3:TrackPointExtension/>
        </extensions>
      </trkpt>
      <trkpt lat="50.3624259866774082183837890625" lon="5.6081109680235385894775390625">
        <ele>275.399993896484375</ele>
        <time>2025-04-30T01:23:49.000Z</time>
        <extensions>
          <ns3:TrackPointExtension/>
        </extensions>
      </trkpt>
      <trkpt lat="50.36232397891581058502197265625" lon="5.60791793279349803924560546875">
        <ele>276</ele>
        <time>2025-04-30T01:23:54.000Z</time>
        <extensions>
          <ns3:TrackPointExtension/>
        </extensions>
      </trkpt>
      <trkpt lat="50.362277962267398834228515625" lon="5.6077069602906703948974609375">
        <ele>276.399993896484375</ele>
        <time>2025-04-30T01:23:59.000Z</time>
        <extensions>
          <ns3:TrackPointExtension/>
        </extensions>
      </trkpt>
      <trkpt lat="50.36225792951881885528564453125" lon="5.6063819490373134613037109375">
        <ele>279.600006103515625</ele>
        <time>2025-04-30T01:24:05.000Z</time>
        <extensions>
          <ns3:TrackPointExtension/>
        </extensions>
      </trkpt>
      <trkpt lat="50.362159945070743560791015625" lon="5.605841986835002899169921875">
        <ele>282.20001220703125</ele>
        <time>2025-04-30T01:24:10.000Z</time>
        <extensions>
          <ns3:TrackPointExtension/>
        </extensions>
      </trkpt>
      <trkpt lat="50.3616179712116718292236328125" lon="5.60377492569386959075927734375">
        <ele>281.20001220703125</ele>
        <time>2025-04-30T01:24:15.000Z</time>
        <extensions>
          <ns3:TrackPointExtension/>
        </extensions>
      </trkpt>
      <trkpt lat="50.36134094931185245513916015625" lon="5.60257497243583202362060546875">
        <ele>281.399993896484375</ele>
        <time>2025-04-30T01:24:20.000Z</time>
        <extensions>
          <ns3:TrackPointExtension/>
        </extensions>
      </trkpt>
      <trkpt lat="50.3610909171402454376220703125" lon="5.60133797116577625274658203125">
        <ele>281.79998779296875</ele>
        <time>2025-04-30T01:24:25.000Z</time>
        <extensions>
          <ns3:TrackPointExtension/>
        </extensions>
      </trkpt>
      <trkpt lat="50.3609879873692989349365234375" lon="5.600944943726062774658203125">
        <ele>282.20001220703125</ele>
        <time>2025-04-30T01:24:30.000Z</time>
        <extensions>
          <ns3:TrackPointExtension/>
        </extensions>
      </trkpt>
      <trkpt lat="50.36068095825612545013427734375" lon="5.60030096210539340972900390625">
        <ele>281.399993896484375</ele>
        <time>2025-04-30T01:24:35.000Z</time>
        <extensions>
          <ns3:TrackPointExtension/>
        </extensions>
      </trkpt>
      <trkpt lat="50.3606959618628025054931640625" lon="5.600202977657318115234375">
        <ele>280.79998779296875</ele>
        <time>2025-04-30T01:24:38.000Z</time>
        <extensions>
          <ns3:TrackPointExtension/>
        </extensions>
      </trkpt>
      <trkpt lat="50.36067894659936428070068359375" lon="5.6000049971044063568115234375">
        <ele>280.399993896484375</ele>
        <time>2025-04-30T01:24:42.000Z</time>
        <extensions>
          <ns3:TrackPointExtension/>
        </extensions>
      </trkpt>
      <trkpt lat="50.3606989793479442596435546875" lon="5.5997979640960693359375">
        <ele>279.600006103515625</ele>
        <time>2025-04-30T01:24:45.000Z</time>
        <extensions>
          <ns3:TrackPointExtension/>
        </extensions>
      </trkpt>
      <trkpt lat="50.3607849776744842529296875" lon="5.5996479280292987823486328125">
        <ele>277.20001220703125</ele>
        <time>2025-04-30T01:24:48.000Z</time>
        <extensions>
          <ns3:TrackPointExtension/>
        </extensions>
      </trkpt>
      <trkpt lat="50.36090592853724956512451171875" lon="5.59957793913781642913818359375">
        <ele>275.399993896484375</ele>
        <time>2025-04-30T01:24:51.000Z</time>
        <extensions>
          <ns3:TrackPointExtension/>
        </extensions>
      </trkpt>
      <trkpt lat="50.36108194850385189056396484375" lon="5.59952999465167522430419921875">
        <ele>273</ele>
        <time>2025-04-30T01:24:54.000Z</time>
        <extensions>
          <ns3:TrackPointExtension/>
        </extensions>
      </trkpt>
      <trkpt lat="50.3613229282200336456298828125" lon="5.59940594248473644256591796875">
        <ele>270.20001220703125</ele>
        <time>2025-04-30T01:24:57.000Z</time>
        <extensions>
          <ns3:TrackPointExtension/>
        </extensions>
      </trkpt>
      <trkpt lat="50.36153398454189300537109375" lon="5.59922891668975353240966796875">
        <ele>267.20001220703125</ele>
        <time>2025-04-30T01:25:00.000Z</time>
        <extensions>
          <ns3:TrackPointExtension/>
        </extensions>
      </trkpt>
      <trkpt lat="50.36202994175255298614501953125" lon="5.5985669977962970733642578125">
        <ele>267</ele>
        <time>2025-04-30T01:25:03.000Z</time>
        <extensions>
          <ns3:TrackPointExtension/>
        </extensions>
      </trkpt>
      <trkpt lat="50.3621389903128147125244140625" lon="5.5985079891979694366455078125">
        <ele>267.399993896484375</ele>
        <time>2025-04-30T01:25:06.000Z</time>
        <extensions>
          <ns3:TrackPointExtension/>
        </extensions>
      </trkpt>
      <trkpt lat="50.36254693754017353057861328125" lon="5.5983839370310306549072265625">
        <ele>265</ele>
        <time>2025-04-30T01:25:10.000Z</time>
        <extensions>
          <ns3:TrackPointExtension/>
        </extensions>
      </trkpt>
      <trkpt lat="50.363423936069011688232421875" lon="5.59776895679533481597900390625">
        <ele>257.600006103515625</ele>
        <time>2025-04-30T01:25:13.000Z</time>
        <extensions>
          <ns3:TrackPointExtension/>
        </extensions>
      </trkpt>
      <trkpt lat="50.3638609685003757476806640625" lon="5.5972979776561260223388671875">
        <ele>252.1999969482421875</ele>
        <time>2025-04-30T01:25:16.000Z</time>
        <extensions>
          <ns3:TrackPointExtension/>
        </extensions>
      </trkpt>
      <trkpt lat="50.36440193653106689453125" lon="5.59627898968756198883056640625">
        <ele>250.600006103515625</ele>
        <time>2025-04-30T01:25:19.000Z</time>
        <extensions>
          <ns3:TrackPointExtension/>
        </extensions>
      </trkpt>
      <trkpt lat="50.3646929562091827392578125" lon="5.5957949347794055938720703125">
        <ele>249.399993896484375</ele>
        <time>2025-04-30T01:25:22.000Z</time>
        <extensions>
          <ns3:TrackPointExtension/>
        </extensions>
      </trkpt>
      <trkpt lat="50.36514096893370151519775390625" lon="5.59521197341382503509521484375">
        <ele>248.600006103515625</ele>
        <time>2025-04-30T01:25:25.000Z</time>
        <extensions>
          <ns3:TrackPointExtension/>
        </extensions>
      </trkpt>
      <trkpt lat="50.3656489960849285125732421875" lon="5.5944249965250492095947265625">
        <ele>249</ele>
        <time>2025-04-30T01:25:28.000Z</time>
        <extensions>
          <ns3:TrackPointExtension/>
        </extensions>
      </trkpt>
      <trkpt lat="50.36617496050894260406494140625" lon="5.59373692609369754791259765625">
        <ele>248.399993896484375</ele>
        <time>2025-04-30T01:25:31.000Z</time>
        <extensions>
          <ns3:TrackPointExtension/>
        </extensions>
      </trkpt>
      <trkpt lat="50.36625693552196025848388671875" lon="5.5935539491474628448486328125">
        <ele>247.399993896484375</ele>
        <time>2025-04-30T01:25:34.000Z</time>
        <extensions>
          <ns3:TrackPointExtension/>
        </extensions>
      </trkpt>
      <trkpt lat="50.36631493829190731048583984375" lon="5.593301989138126373291015625">
        <ele>247.8000030517578125</ele>
        <time>2025-04-30T01:25:38.000Z</time>
        <extensions>
          <ns3:TrackPointExtension/>
        </extensions>
      </trkpt>
      <trkpt lat="50.36640495993196964263916015625" lon="5.59265398420393466949462890625">
        <ele>246</ele>
        <time>2025-04-30T01:25:41.000Z</time>
        <extensions>
          <ns3:TrackPointExtension/>
        </extensions>
      </trkpt>
      <trkpt lat="50.3663559257984161376953125" lon="5.59230999089777469635009765625">
        <ele>246.1999969482421875</ele>
        <time>2025-04-30T01:25:44.000Z</time>
        <extensions>
          <ns3:TrackPointExtension/>
        </extensions>
      </trkpt>
      <trkpt lat="50.36605895496904850006103515625" lon="5.59126392938196659088134765625">
        <ele>243.399993896484375</ele>
        <time>2025-04-30T01:25:47.000Z</time>
        <extensions>
          <ns3:TrackPointExtension/>
        </extensions>
      </trkpt>
      <trkpt lat="50.36539996974170207977294921875" lon="5.589442960917949676513671875">
        <ele>242.600006103515625</ele>
        <time>2025-04-30T01:25:50.000Z</time>
        <extensions>
          <ns3:TrackPointExtension/>
        </extensions>
      </trkpt>
      <trkpt lat="50.36511096172034740447998046875" lon="5.5890139751136302947998046875">
        <ele>242.1999969482421875</ele>
        <time>2025-04-30T01:25:53.000Z</time>
        <extensions>
          <ns3:TrackPointExtension/>
        </extensions>
      </trkpt>
      <trkpt lat="50.36473394371569156646728515625" lon="5.588632933795452117919921875">
        <ele>243.399993896484375</ele>
        <time>2025-04-30T01:25:56.000Z</time>
        <extensions>
          <ns3:TrackPointExtension/>
        </extensions>
      </trkpt>
      <trkpt lat="50.36427092738449573516845703125" lon="5.58810898102819919586181640625">
        <ele>247.1999969482421875</ele>
        <time>2025-04-30T01:25:59.000Z</time>
        <extensions>
          <ns3:TrackPointExtension/>
        </extensions>
      </trkpt>
      <trkpt lat="50.3639679215848445892333984375" lon="5.5876839347183704376220703125">
        <ele>252</ele>
        <time>2025-04-30T01:26:03.000Z</time>
        <extensions>
          <ns3:TrackPointExtension/>
        </extensions>
      </trkpt>
      <trkpt lat="50.36366692744195461273193359375" lon="5.5869329161942005157470703125">
        <ele>259</ele>
        <time>2025-04-30T01:26:06.000Z</time>
        <extensions>
          <ns3:TrackPointExtension/>
        </extensions>
      </trkpt>
      <trkpt lat="50.363488979637622833251953125" lon="5.58609598316252231597900390625">
        <ele>264</ele>
        <time>2025-04-30T01:26:09.000Z</time>
        <extensions>
          <ns3:TrackPointExtension/>
        </extensions>
      </trkpt>
      <trkpt lat="50.36340692080557346343994140625" lon="5.58548293076455593109130859375">
        <ele>261.399993896484375</ele>
        <time>2025-04-30T01:26:12.000Z</time>
        <extensions>
          <ns3:TrackPointExtension/>
        </extensions>
      </trkpt>
      <trkpt lat="50.36338194273412227630615234375" lon="5.5853899754583835601806640625">
        <ele>261.399993896484375</ele>
        <time>2025-04-30T01:26:15.000Z</time>
        <extensions>
          <ns3:TrackPointExtension/>
        </extensions>
      </trkpt>
      <trkpt lat="50.36335797049105167388916015625" lon="5.58528193272650241851806640625">
        <ele>261.20001220703125</ele>
        <time>2025-04-30T01:26:18.000Z</time>
        <extensions>
          <ns3:TrackPointExtension/>
        </extensions>
      </trkpt>
      <trkpt lat="50.36324095912277698516845703125" lon="5.5849869735538959503173828125">
        <ele>261.399993896484375</ele>
        <time>2025-04-30T01:26:21.000Z</time>
        <extensions>
          <ns3:TrackPointExtension/>
        </extensions>
      </trkpt>
      <trkpt lat="50.36298095248639583587646484375" lon="5.58456796221435070037841796875">
        <ele>262.79998779296875</ele>
        <time>2025-04-30T01:26:24.000Z</time>
        <extensions>
          <ns3:TrackPointExtension/>
        </extensions>
      </trkpt>
      <trkpt lat="50.3626459278166294097900390625" lon="5.58412891812622547149658203125">
        <ele>264.600006103515625</ele>
        <time>2025-04-30T01:26:27.000Z</time>
        <extensions>
          <ns3:TrackPointExtension/>
        </extensions>
      </trkpt>
      <trkpt lat="50.36226497031748294830322265625" lon="5.5837829969823360443115234375">
        <ele>266</ele>
        <time>2025-04-30T01:26:31.000Z</time>
        <extensions>
          <ns3:TrackPointExtension/>
        </extensions>
      </trkpt>
      <trkpt lat="50.3619649820029735565185546875" lon="5.5836079828441143035888671875">
        <ele>267.399993896484375</ele>
        <time>2025-04-30T01:26:34.000Z</time>
        <extensions>
          <ns3:TrackPointExtension/>
        </extensions>
      </trkpt>
      <trkpt lat="50.36169491708278656005859375" lon="5.5834849365055561065673828125">
        <ele>268.79998779296875</ele>
        <time>2025-04-30T01:26:37.000Z</time>
        <extensions>
          <ns3:TrackPointExtension/>
        </extensions>
      </trkpt>
      <trkpt lat="50.36149199120700359344482421875" lon="5.58321998454630374908447265625">
        <ele>270.399993896484375</ele>
        <time>2025-04-30T01:26:40.000Z</time>
        <extensions>
          <ns3:TrackPointExtension/>
        </extensions>
      </trkpt>
      <trkpt lat="50.3616169653832912445068359375" lon="5.5821959674358367919921875">
        <ele>267</ele>
        <time>2025-04-30T01:26:43.000Z</time>
        <extensions>
          <ns3:TrackPointExtension/>
        </extensions>
      </trkpt>
      <trkpt lat="50.3617559373378753662109375" lon="5.58157998137176036834716796875">
        <ele>264.600006103515625</ele>
        <time>2025-04-30T01:26:46.000Z</time>
        <extensions>
          <ns3:TrackPointExtension/>
        </extensions>
      </trkpt>
      <trkpt lat="50.36193899810314178466796875" lon="5.58097497560083866119384765625">
        <ele>264.20001220703125</ele>
        <time>2025-04-30T01:26:48.000Z</time>
        <extensions>
          <ns3:TrackPointExtension/>
        </extensions>
      </trkpt>
      <trkpt lat="50.3619249165058135986328125" lon="5.58079794980585575103759765625">
        <ele>265</ele>
        <time>2025-04-30T01:26:51.000Z</time>
        <extensions>
          <ns3:TrackPointExtension/>
        </extensions>
      </trkpt>
      <trkpt lat="50.36185492761433124542236328125" lon="5.58054397813975811004638671875">
        <ele>266.20001220703125</ele>
        <time>2025-04-30T01:26:54.000Z</time>
        <extensions>
          <ns3:TrackPointExtension/>
        </extensions>
      </trkpt>
      <trkpt lat="50.3616149537265300750732421875" lon="5.58008498512208461761474609375">
        <ele>266.20001220703125</ele>
        <time>2025-04-30T01:26:57.000Z</time>
        <extensions>
          <ns3:TrackPointExtension/>
        </extensions>
      </trkpt>
      <trkpt lat="50.36111698485910892486572265625" lon="5.57948299683630466461181640625">
        <ele>267</ele>
        <time>2025-04-30T01:26:59.000Z</time>
        <extensions>
          <ns3:TrackPointExtension/>
        </extensions>
      </trkpt>
      <trkpt lat="50.36095194518566131591796875" lon="5.579253919422626495361328125">
        <ele>266.600006103515625</ele>
        <time>2025-04-30T01:27:02.000Z</time>
        <extensions>
          <ns3:TrackPointExtension/>
        </extensions>
      </trkpt>
      <trkpt lat="50.36088597960770130157470703125" lon="5.57912693358957767486572265625">
        <ele>266.20001220703125</ele>
        <time>2025-04-30T01:27:05.000Z</time>
        <extensions>
          <ns3:TrackPointExtension/>
        </extensions>
      </trkpt>
      <trkpt lat="50.36084599792957305908203125" lon="5.57896994054317474365234375">
        <ele>265.399993896484375</ele>
        <time>2025-04-30T01:27:08.000Z</time>
        <extensions>
          <ns3:TrackPointExtension/>
        </extensions>
      </trkpt>
      <trkpt lat="50.36082596518099308013916015625" lon="5.57879199273884296417236328125">
        <ele>264.20001220703125</ele>
        <time>2025-04-30T01:27:11.000Z</time>
        <extensions>
          <ns3:TrackPointExtension/>
        </extensions>
      </trkpt>
      <trkpt lat="50.36084691993892192840576171875" lon="5.578516982495784759521484375">
        <ele>262</ele>
        <time>2025-04-30T01:27:13.000Z</time>
        <extensions>
          <ns3:TrackPointExtension/>
        </extensions>
      </trkpt>
      <trkpt lat="50.36094096489250659942626953125" lon="5.57794793508946895599365234375">
        <ele>258.20001220703125</ele>
        <time>2025-04-30T01:27:16.000Z</time>
        <extensions>
          <ns3:TrackPointExtension/>
        </extensions>
      </trkpt>
      <trkpt lat="50.36101891659200191497802734375" lon="5.57772497646510601043701171875">
        <ele>257.20001220703125</ele>
        <time>2025-04-30T01:27:19.000Z</time>
        <extensions>
          <ns3:TrackPointExtension/>
        </extensions>
      </trkpt>
      <trkpt lat="50.361177921295166015625" lon="5.57740696705877780914306640625">
        <ele>256.79998779296875</ele>
        <time>2025-04-30T01:27:22.000Z</time>
        <extensions>
          <ns3:TrackPointExtension/>
        </extensions>
      </trkpt>
      <trkpt lat="50.361241959035396575927734375" lon="5.57723698206245899200439453125">
        <ele>256.20001220703125</ele>
        <time>2025-04-30T01:27:24.000Z</time>
        <extensions>
          <ns3:TrackPointExtension/>
        </extensions>
      </trkpt>
      <trkpt lat="50.3612739779055118560791015625" lon="5.57708694599568843841552734375">
        <ele>256.399993896484375</ele>
        <time>2025-04-30T01:27:27.000Z</time>
        <extensions>
          <ns3:TrackPointExtension/>
        </extensions>
      </trkpt>
      <trkpt lat="50.36122695542871952056884765625" lon="5.576560981571674346923828125">
        <ele>257</ele>
        <time>2025-04-30T01:27:30.000Z</time>
        <extensions>
          <ns3:TrackPointExtension/>
        </extensions>
      </trkpt>
      <trkpt lat="50.36111195571720600128173828125" lon="5.5765339918434619903564453125">
        <ele>256.600006103515625</ele>
        <time>2025-04-30T01:27:34.000Z</time>
        <extensions>
          <ns3:TrackPointExtension/>
        </extensions>
      </trkpt>
      <trkpt lat="50.360203944146633148193359375" lon="5.5761889927089214324951171875">
        <ele>249.8000030517578125</ele>
        <time>2025-04-30T01:27:38.000Z</time>
        <extensions>
          <ns3:TrackPointExtension/>
        </extensions>
      </trkpt>
      <trkpt lat="50.359739921987056732177734375" lon="5.57602093555033206939697265625">
        <ele>246.399993896484375</ele>
        <time>2025-04-30T01:27:42.000Z</time>
        <extensions>
          <ns3:TrackPointExtension/>
        </extensions>
      </trkpt>
      <trkpt lat="50.3595779836177825927734375" lon="5.57592093944549560546875">
        <ele>244.8000030517578125</ele>
        <time>2025-04-30T01:27:46.000Z</time>
        <extensions>
          <ns3:TrackPointExtension/>
        </extensions>
      </trkpt>
      <trkpt lat="50.35945594310760498046875" lon="5.57582094334065914154052734375">
        <ele>243.600006103515625</ele>
        <time>2025-04-30T01:27:50.000Z</time>
        <extensions>
          <ns3:TrackPointExtension/>
        </extensions>
      </trkpt>
      <trkpt lat="50.3592549450695514678955078125" lon="5.57556395418941974639892578125">
        <ele>242</ele>
        <time>2025-04-30T01:27:54.000Z</time>
        <extensions>
          <ns3:TrackPointExtension/>
        </extensions>
      </trkpt>
      <trkpt lat="50.35819999873638153076171875" lon="5.57314795441925525665283203125">
        <ele>228.600006103515625</ele>
        <time>2025-04-30T01:27:58.000Z</time>
        <extensions>
          <ns3:TrackPointExtension/>
        </extensions>
      </trkpt>
      <trkpt lat="50.358015932142734527587890625" lon="5.5726199783384799957275390625">
        <ele>227.399993896484375</ele>
        <time>2025-04-30T01:28:02.000Z</time>
        <extensions>
          <ns3:TrackPointExtension/>
        </extensions>
      </trkpt>
      <trkpt lat="50.357961952686309814453125" lon="5.57220096699893474578857421875">
        <ele>225.8000030517578125</ele>
        <time>2025-04-30T01:28:06.000Z</time>
        <extensions>
          <ns3:TrackPointExtension/>
        </extensions>
      </trkpt>
      <trkpt lat="50.3579979948699474334716796875" lon="5.57182797230780124664306640625">
        <ele>225.399993896484375</ele>
        <time>2025-04-30T01:28:10.000Z</time>
        <extensions>
          <ns3:TrackPointExtension/>
        </extensions>
      </trkpt>
      <trkpt lat="50.35841591656208038330078125" lon="5.570399947464466094970703125">
        <ele>216.399993896484375</ele>
        <time>2025-04-30T01:28:14.000Z</time>
        <extensions>
          <ns3:TrackPointExtension/>
        </extensions>
      </trkpt>
      <trkpt lat="50.3584219515323638916015625" lon="5.57026592083275318145751953125">
        <ele>216.1999969482421875</ele>
        <time>2025-04-30T01:28:18.000Z</time>
        <extensions>
          <ns3:TrackPointExtension/>
        </extensions>
      </trkpt>
      <trkpt lat="50.35841398872435092926025390625" lon="5.5701409466564655303955078125">
        <ele>215.8000030517578125</ele>
        <time>2025-04-30T01:28:22.000Z</time>
        <extensions>
          <ns3:TrackPointExtension/>
        </extensions>
      </trkpt>
      <trkpt lat="50.35837492905557155609130859375" lon="5.5700259469449520111083984375">
        <ele>215.1999969482421875</ele>
        <time>2025-04-30T01:28:26.000Z</time>
        <extensions>
          <ns3:TrackPointExtension/>
        </extensions>
      </trkpt>
      <trkpt lat="50.3578989207744598388671875" lon="5.56931792758405208587646484375">
        <ele>213.1999969482421875</ele>
        <time>2025-04-30T01:28:30.000Z</time>
        <extensions>
          <ns3:TrackPointExtension/>
        </extensions>
      </trkpt>
      <trkpt lat="50.357559956610202789306640625" lon="5.56845895014703273773193359375">
        <ele>209.8000030517578125</ele>
        <time>2025-04-30T01:28:34.000Z</time>
        <extensions>
          <ns3:TrackPointExtension/>
        </extensions>
      </trkpt>
      <trkpt lat="50.357278995215892791748046875" lon="5.56710694916546344757080078125">
        <ele>199.600006103515625</ele>
        <time>2025-04-30T01:28:38.000Z</time>
        <extensions>
          <ns3:TrackPointExtension/>
        </extensions>
      </trkpt>
      <trkpt lat="50.35728695802390575408935546875" lon="5.56669992394745349884033203125">
        <ele>196.399993896484375</ele>
        <time>2025-04-30T01:28:42.000Z</time>
        <extensions>
          <ns3:TrackPointExtension/>
        </extensions>
      </trkpt>
      <trkpt lat="50.3579329513013362884521484375" lon="5.56439791806042194366455078125">
        <ele>188.399993896484375</ele>
        <time>2025-04-30T01:28:46.000Z</time>
        <extensions>
          <ns3:TrackPointExtension/>
        </extensions>
      </trkpt>
      <trkpt lat="50.35820393823087215423583984375" lon="5.56380297057330608367919921875">
        <ele>183.8000030517578125</ele>
        <time>2025-04-30T01:28:50.000Z</time>
        <extensions>
          <ns3:TrackPointExtension/>
        </extensions>
      </trkpt>
      <trkpt lat="50.35887499339878559112548828125" lon="5.56276696734130382537841796875">
        <ele>183</ele>
        <time>2025-04-30T01:28:54.000Z</time>
        <extensions>
          <ns3:TrackPointExtension/>
        </extensions>
      </trkpt>
      <trkpt lat="50.3595379181206226348876953125" lon="5.56136199273169040679931640625">
        <ele>179.8000030517578125</ele>
        <time>2025-04-30T01:28:58.000Z</time>
        <extensions>
          <ns3:TrackPointExtension/>
        </extensions>
      </trkpt>
      <trkpt lat="50.3596879541873931884765625" lon="5.56041399948298931121826171875">
        <ele>170.1999969482421875</ele>
        <time>2025-04-30T01:29:02.000Z</time>
        <extensions>
          <ns3:TrackPointExtension/>
        </extensions>
      </trkpt>
      <trkpt lat="50.3596569411456584930419921875" lon="5.56016899645328521728515625">
        <ele>166.600006103515625</ele>
        <time>2025-04-30T01:29:06.000Z</time>
        <extensions>
          <ns3:TrackPointExtension/>
        </extensions>
      </trkpt>
      <trkpt lat="50.35955996252596378326416015625" lon="5.55994293652474880218505859375">
        <ele>164.1999969482421875</ele>
        <time>2025-04-30T01:29:10.000Z</time>
        <extensions>
          <ns3:TrackPointExtension/>
        </extensions>
      </trkpt>
      <trkpt lat="50.3587369434535503387451171875" lon="5.558718927204608917236328125">
        <ele>166.1999969482421875</ele>
        <time>2025-04-30T01:29:15.000Z</time>
        <extensions>
          <ns3:TrackPointExtension/>
        </extensions>
      </trkpt>
      <trkpt lat="50.35840594209730625152587890625" lon="5.55896493606269359588623046875">
        <ele>167.600006103515625</ele>
        <time>2025-04-30T01:29:18.000Z</time>
        <extensions>
          <ns3:TrackPointExtension/>
        </extensions>
      </trkpt>
      <trkpt lat="50.358017943799495697021484375" lon="5.55916895158588886260986328125">
        <ele>172</ele>
        <time>2025-04-30T01:29:22.000Z</time>
        <extensions>
          <ns3:TrackPointExtension/>
        </extensions>
      </trkpt>
      <trkpt lat="50.35726399160921573638916015625" lon="5.55908798240125179290771484375">
        <ele>181</ele>
        <time>2025-04-30T01:29:26.000Z</time>
        <extensions>
          <ns3:TrackPointExtension/>
        </extensions>
      </trkpt>
      <trkpt lat="50.35633192397654056549072265625" lon="5.5594459734857082366943359375">
        <ele>204.399993896484375</ele>
        <time>2025-04-30T01:29:29.000Z</time>
        <extensions>
          <ns3:TrackPointExtension/>
        </extensions>
      </trkpt>
      <trkpt lat="50.35533196292817592620849609375" lon="5.5601329542696475982666015625">
        <ele>212.8000030517578125</ele>
        <time>2025-04-30T01:29:33.000Z</time>
        <extensions>
          <ns3:TrackPointExtension/>
        </extensions>
      </trkpt>
      <trkpt lat="50.35409999080002307891845703125" lon="5.5610559694468975067138671875">
        <ele>217</ele>
        <time>2025-04-30T01:29:37.000Z</time>
        <extensions>
          <ns3:TrackPointExtension/>
        </extensions>
      </trkpt>
      <trkpt lat="50.35312794148921966552734375" lon="5.561664998531341552734375">
        <ele>218</ele>
        <time>2025-04-30T01:29:41.000Z</time>
        <extensions>
          <ns3:TrackPointExtension/>
        </extensions>
      </trkpt>
      <trkpt lat="50.35251698456704616546630859375" lon="5.56227394379675388336181640625">
        <ele>219</ele>
        <time>2025-04-30T01:29:44.000Z</time>
        <extensions>
          <ns3:TrackPointExtension/>
        </extensions>
      </trkpt>
      <trkpt lat="50.35223199985921382904052734375" lon="5.56246697902679443359375">
        <ele>222.399993896484375</ele>
        <time>2025-04-30T01:29:48.000Z</time>
        <extensions>
          <ns3:TrackPointExtension/>
        </extensions>
      </trkpt>
      <trkpt lat="50.35205195657908916473388671875" lon="5.56253998540341854095458984375">
        <ele>224.8000030517578125</ele>
        <time>2025-04-30T01:29:52.000Z</time>
        <extensions>
          <ns3:TrackPointExtension/>
        </extensions>
      </trkpt>
      <trkpt lat="50.35181097686290740966796875" lon="5.56250595487654209136962890625">
        <ele>227.600006103515625</ele>
        <time>2025-04-30T01:29:56.000Z</time>
        <extensions>
          <ns3:TrackPointExtension/>
        </extensions>
      </trkpt>
      <trkpt lat="50.35156597383320331573486328125" lon="5.56232792325317859649658203125">
        <ele>229.1999969482421875</ele>
        <time>2025-04-30T01:29:59.000Z</time>
        <extensions>
          <ns3:TrackPointExtension/>
        </extensions>
      </trkpt>
      <trkpt lat="50.351410992443561553955078125" lon="5.56215693242847919464111328125">
        <ele>229.8000030517578125</ele>
        <time>2025-04-30T01:30:03.000Z</time>
        <extensions>
          <ns3:TrackPointExtension/>
        </extensions>
      </trkpt>
      <trkpt lat="50.35110195167362689971923828125" lon="5.5617419444024562835693359375">
        <ele>231.8000030517578125</ele>
        <time>2025-04-30T01:30:07.000Z</time>
        <extensions>
          <ns3:TrackPointExtension/>
        </extensions>
      </trkpt>
      <trkpt lat="50.35060993395745754241943359375" lon="5.56118899025022983551025390625">
        <ele>231.1999969482421875</ele>
        <time>2025-04-30T01:30:11.000Z</time>
        <extensions>
          <ns3:TrackPointExtension/>
        </extensions>
      </trkpt>
      <trkpt lat="50.3504009731113910675048828125" lon="5.5610519461333751678466796875">
        <ele>230.399993896484375</ele>
        <time>2025-04-30T01:30:14.000Z</time>
        <extensions>
          <ns3:TrackPointExtension/>
        </extensions>
      </trkpt>
      <trkpt lat="50.35021397285163402557373046875" lon="5.56098598055541515350341796875">
        <ele>230</ele>
        <time>2025-04-30T01:30:18.000Z</time>
        <extensions>
          <ns3:TrackPointExtension/>
        </extensions>
      </trkpt>
      <trkpt lat="50.349098928272724151611328125" lon="5.5609959550201892852783203125">
        <ele>241</ele>
        <time>2025-04-30T01:30:22.000Z</time>
        <extensions>
          <ns3:TrackPointExtension/>
        </extensions>
      </trkpt>
      <trkpt lat="50.348880998790264129638671875" lon="5.5609419755637645721435546875">
        <ele>242</ele>
        <time>2025-04-30T01:30:26.000Z</time>
        <extensions>
          <ns3:TrackPointExtension/>
        </extensions>
      </trkpt>
      <trkpt lat="50.3487279452383518218994140625" lon="5.56086896918714046478271484375">
        <ele>243</ele>
        <time>2025-04-30T01:30:29.000Z</time>
        <extensions>
          <ns3:TrackPointExtension/>
        </extensions>
      </trkpt>
      <trkpt lat="50.34854798577725887298583984375" lon="5.56097692809998989105224609375">
        <ele>244.1999969482421875</ele>
        <time>2025-04-30T01:30:33.000Z</time>
        <extensions>
          <ns3:TrackPointExtension/>
        </extensions>
      </trkpt>
      <trkpt lat="50.34825193695724010467529296875" lon="5.56121296249330043792724609375">
        <ele>246.8000030517578125</ele>
        <time>2025-04-30T01:30:37.000Z</time>
        <extensions>
          <ns3:TrackPointExtension/>
        </extensions>
      </trkpt>
      <trkpt lat="50.34776092506945133209228515625" lon="5.56158696301281452178955078125">
        <ele>253.399993896484375</ele>
        <time>2025-04-30T01:30:40.000Z</time>
        <extensions>
          <ns3:TrackPointExtension/>
        </extensions>
      </trkpt>
      <trkpt lat="50.34767895005643367767333984375" lon="5.56170598603785037994384765625">
        <ele>254.399993896484375</ele>
        <time>2025-04-30T01:30:44.000Z</time>
        <extensions>
          <ns3:TrackPointExtension/>
        </extensions>
      </trkpt>
      <trkpt lat="50.3475799597799777984619140625" lon="5.56192592717707157135009765625">
        <ele>256</ele>
        <time>2025-04-30T01:30:47.000Z</time>
        <extensions>
          <ns3:TrackPointExtension/>
        </extensions>
      </trkpt>
      <trkpt lat="50.34744693897664546966552734375" lon="5.56189499795436859130859375">
        <ele>256.79998779296875</ele>
        <time>2025-04-30T01:30:52.000Z</time>
        <extensions>
          <ns3:TrackPointExtension/>
        </extensions>
      </trkpt>
      <trkpt lat="50.347380973398685455322265625" lon="5.5619109235703945159912109375">
        <ele>257.600006103515625</ele>
        <time>2025-04-30T01:30:57.000Z</time>
        <extensions>
          <ns3:TrackPointExtension/>
        </extensions>
      </trkpt>
      <trkpt lat="50.34727192483842372894287109375" lon="5.56198795326054096221923828125">
        <ele>259</ele>
        <time>2025-04-30T01:31:02.000Z</time>
        <extensions>
          <ns3:TrackPointExtension/>
        </extensions>
      </trkpt>
      <trkpt lat="50.347203947603702545166015625" lon="5.56198996491730213165283203125">
        <ele>259.79998779296875</ele>
        <time>2025-04-30T01:31:07.000Z</time>
        <extensions>
          <ns3:TrackPointExtension/>
        </extensions>
      </trkpt>
      <trkpt lat="50.3468379937112331390380859375" lon="5.56135193444788455963134765625">
        <ele>263.399993896484375</ele>
        <time>2025-04-30T01:31:13.000Z</time>
        <extensions>
          <ns3:TrackPointExtension/>
        </extensions>
      </trkpt>
      <trkpt lat="50.346808992326259613037109375" lon="5.56043696589767932891845703125">
        <ele>261.399993896484375</ele>
        <time>2025-04-30T01:31:20.000Z</time>
        <extensions>
          <ns3:TrackPointExtension/>
        </extensions>
      </trkpt>
      <trkpt lat="50.3464029729366302490234375" lon="5.559068955481052398681640625">
        <ele>264</ele>
        <time>2025-04-30T01:31:27.000Z</time>
        <extensions>
          <ns3:TrackPointExtension/>
        </extensions>
      </trkpt>
      <trkpt lat="50.34644396044313907623291015625" lon="5.55871599353849887847900390625">
        <ele>262.20001220703125</ele>
        <time>2025-04-30T01:31:34.000Z</time>
        <extensions>
          <ns3:TrackPointExtension/>
        </extensions>
      </trkpt>
      <trkpt lat="50.3464339859783649444580078125" lon="5.55853595025837421417236328125">
        <ele>262</ele>
        <time>2025-04-30T01:31:40.000Z</time>
        <extensions>
          <ns3:TrackPointExtension/>
        </extensions>
      </trkpt>
      <trkpt lat="50.346288979053497314453125" lon="5.5581719242036342620849609375">
        <ele>263</ele>
        <time>2025-04-30T01:31:47.000Z</time>
        <extensions>
          <ns3:TrackPointExtension/>
        </extensions>
      </trkpt>
      <trkpt lat="50.34586393274366855621337890625" lon="5.5567069351673126220703125">
        <ele>266.20001220703125</ele>
        <time>2025-04-30T01:31:54.000Z</time>
        <extensions>
          <ns3:TrackPointExtension/>
        </extensions>
      </trkpt>
      <trkpt lat="50.34583694301545619964599609375" lon="5.554698966443538665771484375">
        <ele>270.399993896484375</ele>
        <time>2025-04-30T01:32:01.000Z</time>
        <extensions>
          <ns3:TrackPointExtension/>
        </extensions>
      </trkpt>
      <trkpt lat="50.34552899189293384552001953125" lon="5.552795939147472381591796875">
        <ele>269.79998779296875</ele>
        <time>2025-04-30T01:32:08.000Z</time>
        <extensions>
          <ns3:TrackPointExtension/>
        </extensions>
      </trkpt>
      <trkpt lat="50.3449299372732639312744140625" lon="5.54992496967315673828125">
        <ele>271.79998779296875</ele>
        <time>2025-04-30T01:32:14.000Z</time>
        <extensions>
          <ns3:TrackPointExtension/>
        </extensions>
      </trkpt>
      <trkpt lat="50.34446096979081630706787109375" lon="5.54824096150696277618408203125">
        <ele>271.20001220703125</ele>
        <time>2025-04-30T01:32:21.000Z</time>
        <extensions>
          <ns3:TrackPointExtension/>
        </extensions>
      </trkpt>
      <trkpt lat="50.34368497319519519805908203125" lon="5.54551499895751476287841796875">
        <ele>269.600006103515625</ele>
        <time>2025-04-30T01:32:28.000Z</time>
        <extensions>
          <ns3:TrackPointExtension/>
        </extensions>
      </trkpt>
      <trkpt lat="50.34145496785640716552734375" lon="5.53974892012774944305419921875">
        <ele>268.79998779296875</ele>
        <time>2025-04-30T01:32:35.000Z</time>
        <extensions>
          <ns3:TrackPointExtension/>
        </extensions>
      </trkpt>
      <trkpt lat="50.3412509523332118988037109375" lon="5.539278946816921234130859375">
        <ele>266.79998779296875</ele>
        <time>2025-04-30T01:32:42.000Z</time>
        <extensions>
          <ns3:TrackPointExtension/>
        </extensions>
      </trkpt>
      <trkpt lat="50.34100594930350780487060546875" lon="5.53889798931777477264404296875">
        <ele>266.20001220703125</ele>
        <time>2025-04-30T01:32:48.000Z</time>
        <extensions>
          <ns3:TrackPointExtension/>
        </extensions>
      </trkpt>
      <trkpt lat="50.3401039727032184600830078125" lon="5.537721924483776092529296875">
        <ele>266.600006103515625</ele>
        <time>2025-04-30T01:32:55.000Z</time>
        <extensions>
          <ns3:TrackPointExtension/>
        </extensions>
      </trkpt>
      <trkpt lat="50.33953492529690265655517578125" lon="5.53704692982137203216552734375">
        <ele>267.20001220703125</ele>
        <time>2025-04-30T01:33:02.000Z</time>
        <extensions>
          <ns3:TrackPointExtension/>
        </extensions>
      </trkpt>
      <trkpt lat="50.33867091871798038482666015625" lon="5.536339916288852691650390625">
        <ele>267.79998779296875</ele>
        <time>2025-04-30T01:33:09.000Z</time>
        <extensions>
          <ns3:TrackPointExtension/>
        </extensions>
      </trkpt>
      <trkpt lat="50.33838895149528980255126953125" lon="5.536176972091197967529296875">
        <ele>266.600006103515625</ele>
        <time>2025-04-30T01:33:16.000Z</time>
        <extensions>
          <ns3:TrackPointExtension/>
        </extensions>
      </trkpt>
      <trkpt lat="50.3380909748375415802001953125" lon="5.53604294545948505401611328125">
        <ele>266.399993896484375</ele>
        <time>2025-04-30T01:33:23.000Z</time>
        <extensions>
          <ns3:TrackPointExtension/>
        </extensions>
      </trkpt>
      <trkpt lat="50.33781093545258045196533203125" lon="5.5359679274260997772216796875">
        <ele>267</ele>
        <time>2025-04-30T01:33:29.000Z</time>
        <extensions>
          <ns3:TrackPointExtension/>
        </extensions>
      </trkpt>
      <trkpt lat="50.33767296932637691497802734375" lon="5.53583792410790920257568359375">
        <ele>267.20001220703125</ele>
        <time>2025-04-30T01:33:36.000Z</time>
        <extensions>
          <ns3:TrackPointExtension/>
        </extensions>
      </trkpt>
      <trkpt lat="50.33750298433005809783935546875" lon="5.53547197021543979644775390625">
        <ele>266.399993896484375</ele>
        <time>2025-04-30T01:33:43.000Z</time>
        <extensions>
          <ns3:TrackPointExtension/>
        </extensions>
      </trkpt>
      <trkpt lat="50.33692295663058757781982421875" lon="5.53446094505488872528076171875">
        <ele>266</ele>
        <time>2025-04-30T01:33:50.000Z</time>
        <extensions>
          <ns3:TrackPointExtension/>
        </extensions>
      </trkpt>
      <trkpt lat="50.336275957524776458740234375" lon="5.533760972321033477783203125">
        <ele>267</ele>
        <time>2025-04-30T01:33:57.000Z</time>
        <extensions>
          <ns3:TrackPointExtension/>
        </extensions>
      </trkpt>
      <trkpt lat="50.33600195311009883880615234375" lon="5.5335619859397411346435546875">
        <ele>268</ele>
        <time>2025-04-30T01:34:03.000Z</time>
        <extensions>
          <ns3:TrackPointExtension/>
        </extensions>
      </trkpt>
      <trkpt lat="50.33490593545138835906982421875" lon="5.53327892906963825225830078125">
        <ele>271.20001220703125</ele>
        <time>2025-04-30T01:34:10.000Z</time>
        <extensions>
          <ns3:TrackPointExtension/>
        </extensions>
      </trkpt>
      <trkpt lat="50.334717929363250732421875" lon="5.53300199098885059356689453125">
        <ele>271.600006103515625</ele>
        <time>2025-04-30T01:34:17.000Z</time>
        <extensions>
          <ns3:TrackPointExtension/>
        </extensions>
      </trkpt>
      <trkpt lat="50.33441995270550251007080078125" lon="5.5324629507958889007568359375">
        <ele>273.600006103515625</ele>
        <time>2025-04-30T01:34:24.000Z</time>
        <extensions>
          <ns3:TrackPointExtension/>
        </extensions>
      </trkpt>
      <trkpt lat="50.33381092362105846405029296875" lon="5.53164999000728130340576171875">
        <ele>274.20001220703125</ele>
        <time>2025-04-30T01:34:31.000Z</time>
        <extensions>
          <ns3:TrackPointExtension/>
        </extensions>
      </trkpt>
      <trkpt lat="50.333511941134929656982421875" lon="5.53101799450814723968505859375">
        <ele>274.20001220703125</ele>
        <time>2025-04-30T01:34:37.000Z</time>
        <extensions>
          <ns3:TrackPointExtension/>
        </extensions>
      </trkpt>
      <trkpt lat="50.333232991397380828857421875" lon="5.53065991960465908050537109375">
        <ele>276.399993896484375</ele>
        <time>2025-04-30T01:34:44.000Z</time>
        <extensions>
          <ns3:TrackPointExtension/>
        </extensions>
      </trkpt>
      <trkpt lat="50.33231894485652446746826171875" lon="5.52997092716395854949951171875">
        <ele>274.79998779296875</ele>
        <time>2025-04-30T01:34:51.000Z</time>
        <extensions>
          <ns3:TrackPointExtension/>
        </extensions>
      </trkpt>
      <trkpt lat="50.330926962196826934814453125" lon="5.52920498885214328765869140625">
        <ele>274</ele>
        <time>2025-04-30T01:34:58.000Z</time>
        <extensions>
          <ns3:TrackPointExtension/>
        </extensions>
      </trkpt>
      <trkpt lat="50.330584980547428131103515625" lon="5.5289519391953945159912109375">
        <ele>271.600006103515625</ele>
        <time>2025-04-30T01:35:05.000Z</time>
        <extensions>
          <ns3:TrackPointExtension/>
        </extensions>
      </trkpt>
      <trkpt lat="50.33045095391571521759033203125" lon="5.52873996086418628692626953125">
        <ele>269.600006103515625</ele>
        <time>2025-04-30T01:35:12.000Z</time>
        <extensions>
          <ns3:TrackPointExtension/>
        </extensions>
      </trkpt>
      <trkpt lat="50.32967898063361644744873046875" lon="5.52776397205889225006103515625">
        <ele>268</ele>
        <time>2025-04-30T01:35:18.000Z</time>
        <extensions>
          <ns3:TrackPointExtension/>
        </extensions>
      </trkpt>
      <trkpt lat="50.32915896736085414886474609375" lon="5.52721294574439525604248046875">
        <ele>267.79998779296875</ele>
        <time>2025-04-30T01:35:25.000Z</time>
        <extensions>
          <ns3:TrackPointExtension/>
        </extensions>
      </trkpt>
      <trkpt lat="50.329031981527805328369140625" lon="5.52712795324623584747314453125">
        <ele>267.20001220703125</ele>
        <time>2025-04-30T01:35:32.000Z</time>
        <extensions>
          <ns3:TrackPointExtension/>
        </extensions>
      </trkpt>
      <trkpt lat="50.32774494029581546783447265625" lon="5.52523791790008544921875">
        <ele>262.79998779296875</ele>
        <time>2025-04-30T01:35:39.000Z</time>
        <extensions>
          <ns3:TrackPointExtension/>
        </extensions>
      </trkpt>
      <trkpt lat="50.32725292257964611053466796875" lon="5.52444599568843841552734375">
        <ele>265</ele>
        <time>2025-04-30T01:35:46.000Z</time>
        <extensions>
          <ns3:TrackPointExtension/>
        </extensions>
      </trkpt>
      <trkpt lat="50.326731987297534942626953125" lon="5.52370595745742321014404296875">
        <ele>262</ele>
        <time>2025-04-30T01:35:52.000Z</time>
        <extensions>
          <ns3:TrackPointExtension/>
        </extensions>
      </trkpt>
      <trkpt lat="50.325746946036815643310546875" lon="5.5225749872624874114990234375">
        <ele>263.20001220703125</ele>
        <time>2025-04-30T01:35:59.000Z</time>
        <extensions>
          <ns3:TrackPointExtension/>
        </extensions>
      </trkpt>
      <trkpt lat="50.32550093717873096466064453125" lon="5.522193945944309234619140625">
        <ele>265.20001220703125</ele>
        <time>2025-04-30T01:36:06.000Z</time>
        <extensions>
          <ns3:TrackPointExtension/>
        </extensions>
      </trkpt>
      <trkpt lat="50.3251419402658939361572265625" lon="5.52180192433297634124755859375">
        <ele>266.399993896484375</ele>
        <time>2025-04-30T01:36:13.000Z</time>
        <extensions>
          <ns3:TrackPointExtension/>
        </extensions>
      </trkpt>
      <trkpt lat="50.32470096834003925323486328125" lon="5.52105593495070934295654296875">
        <ele>267</ele>
        <time>2025-04-30T01:36:20.000Z</time>
        <extensions>
          <ns3:TrackPointExtension/>
        </extensions>
      </trkpt>
      <trkpt lat="50.324315987527370452880859375" lon="5.52021891809999942779541015625">
        <ele>268.20001220703125</ele>
        <time>2025-04-30T01:36:27.000Z</time>
        <extensions>
          <ns3:TrackPointExtension/>
        </extensions>
      </trkpt>
      <trkpt lat="50.32274295575916767120361328125" lon="5.5179709754884243011474609375">
        <ele>273.79998779296875</ele>
        <time>2025-04-30T01:36:42.000Z</time>
        <extensions>
          <ns3:TrackPointExtension/>
        </extensions>
      </trkpt>
      <trkpt lat="50.32262795604765415191650390625" lon="5.51763695664703845977783203125">
        <ele>274</ele>
        <time>2025-04-30T01:36:57.000Z</time>
        <extensions>
          <ns3:TrackPointExtension/>
        </extensions>
      </trkpt>
      <trkpt lat="50.32251697964966297149658203125" lon="5.51740695722401142120361328125">
        <ele>274</ele>
        <time>2025-04-30T01:37:12.000Z</time>
        <extensions>
          <ns3:TrackPointExtension/>
        </extensions>
      </trkpt>
      <trkpt lat="50.32182496972382068634033203125" lon="5.51657999865710735321044921875">
        <ele>278.600006103515625</ele>
        <time>2025-04-30T01:37:27.000Z</time>
        <extensions>
          <ns3:TrackPointExtension/>
        </extensions>
      </trkpt>
      <trkpt lat="50.3212309442460536956787109375" lon="5.5158339254558086395263671875">
        <ele>280.399993896484375</ele>
        <time>2025-04-30T01:37:42.000Z</time>
        <extensions>
          <ns3:TrackPointExtension/>
        </extensions>
      </trkpt>
      <trkpt lat="50.32098996452987194061279296875" lon="5.5156739987432956695556640625">
        <ele>281</ele>
        <time>2025-04-30T01:37:57.000Z</time>
        <extensions>
          <ns3:TrackPointExtension/>
        </extensions>
      </trkpt>
      <trkpt lat="50.3207119368016719818115234375" lon="5.5155539698898792266845703125">
        <ele>282.600006103515625</ele>
        <time>2025-04-30T01:38:13.000Z</time>
        <extensions>
          <ns3:TrackPointExtension/>
        </extensions>
      </trkpt>
      <trkpt lat="50.32041496597230434417724609375" lon="5.51548498682677745819091796875">
        <ele>285.399993896484375</ele>
        <time>2025-04-30T01:38:28.000Z</time>
        <extensions>
          <ns3:TrackPointExtension/>
        </extensions>
      </trkpt>
      <trkpt lat="50.31963092274963855743408203125" lon="5.51506698131561279296875">
        <ele>293.600006103515625</ele>
        <time>2025-04-30T01:38:43.000Z</time>
        <extensions>
          <ns3:TrackPointExtension/>
        </extensions>
      </trkpt>
      <trkpt lat="50.31855292618274688720703125" lon="5.5131379701197147369384765625">
        <ele>293.399993896484375</ele>
        <time>2025-04-30T01:38:58.000Z</time>
        <extensions>
          <ns3:TrackPointExtension/>
        </extensions>
      </trkpt>
      <trkpt lat="50.31833591870963573455810546875" lon="5.512824989855289459228515625">
        <ele>293</ele>
        <time>2025-04-30T01:39:13.000Z</time>
        <extensions>
          <ns3:TrackPointExtension/>
        </extensions>
      </trkpt>
      <trkpt lat="50.31820298172533512115478515625" lon="5.5126699246466159820556640625">
        <ele>293.20001220703125</ele>
        <time>2025-04-30T01:39:28.000Z</time>
        <extensions>
          <ns3:TrackPointExtension/>
        </extensions>
      </trkpt>
      <trkpt lat="50.31805294565856456756591796875" lon="5.5125579424202442169189453125">
        <ele>293.79998779296875</ele>
        <time>2025-04-30T01:39:44.000Z</time>
        <extensions>
          <ns3:TrackPointExtension/>
        </extensions>
      </trkpt>
      <trkpt lat="50.31780593097209930419921875" lon="5.51245895214378833770751953125">
        <ele>295.20001220703125</ele>
        <time>2025-04-30T01:39:59.000Z</time>
        <extensions>
          <ns3:TrackPointExtension/>
        </extensions>
      </trkpt>
      <trkpt lat="50.3176079504191875457763671875" lon="5.51188596524298191070556640625">
        <ele>294.20001220703125</ele>
        <time>2025-04-30T01:40:08.000Z</time>
        <extensions>
          <ns3:TrackPointExtension/>
        </extensions>
      </trkpt>
      <trkpt lat="50.3175009973347187042236328125" lon="5.5117039941251277923583984375">
        <ele>293.79998779296875</ele>
        <time>2025-04-30T01:40:18.000Z</time>
        <extensions>
          <ns3:TrackPointExtension/>
        </extensions>
      </trkpt>
      <trkpt lat="50.31698492355644702911376953125" lon="5.51102497614920139312744140625">
        <ele>290.399993896484375</ele>
        <time>2025-04-30T01:40:27.000Z</time>
        <extensions>
          <ns3:TrackPointExtension/>
        </extensions>
      </trkpt>
      <trkpt lat="50.31722498126327991485595703125" lon="5.5106059648096561431884765625">
        <ele>288</ele>
        <time>2025-04-30T01:40:33.000Z</time>
        <extensions>
          <ns3:TrackPointExtension/>
        </extensions>
      </trkpt>
      <trkpt lat="50.31764994375407695770263671875" lon="5.510056950151920318603515625">
        <ele>285.20001220703125</ele>
        <time>2025-04-30T01:40:38.000Z</time>
        <extensions>
          <ns3:TrackPointExtension/>
        </extensions>
      </trkpt>
      <trkpt lat="50.31785496510565280914306640625" lon="5.50975495018064975738525390625">
        <ele>284.399993896484375</ele>
        <time>2025-04-30T01:40:43.000Z</time>
        <extensions>
          <ns3:TrackPointExtension/>
        </extensions>
      </trkpt>
      <trkpt lat="50.31825796701014041900634765625" lon="5.508965961635112762451171875">
        <ele>284</ele>
        <time>2025-04-30T01:40:48.000Z</time>
        <extensions>
          <ns3:TrackPointExtension/>
        </extensions>
      </trkpt>
      <trkpt lat="50.318500958383083343505859375" lon="5.508452989161014556884765625">
        <ele>283</ele>
        <time>2025-04-30T01:40:53.000Z</time>
        <extensions>
          <ns3:TrackPointExtension/>
        </extensions>
      </trkpt>
      <trkpt lat="50.31953193247318267822265625" lon="5.5059979297220706939697265625">
        <ele>279</ele>
        <time>2025-04-30T01:40:59.000Z</time>
        <extensions>
          <ns3:TrackPointExtension/>
        </extensions>
      </trkpt>
      <trkpt lat="50.31967199407517910003662109375" lon="5.5055369250476360321044921875">
        <ele>278</ele>
        <time>2025-04-30T01:41:04.000Z</time>
        <extensions>
          <ns3:TrackPointExtension/>
        </extensions>
      </trkpt>
      <trkpt lat="50.31977492384612560272216796875" lon="5.5050779320299625396728515625">
        <ele>278</ele>
        <time>2025-04-30T01:41:09.000Z</time>
        <extensions>
          <ns3:TrackPointExtension/>
        </extensions>
      </trkpt>
      <trkpt lat="50.3199049271643161773681640625" lon="5.5043299309909343719482421875">
        <ele>277.600006103515625</ele>
        <time>2025-04-30T01:41:14.000Z</time>
        <extensions>
          <ns3:TrackPointExtension/>
        </extensions>
      </trkpt>
      <trkpt lat="50.32010994851589202880859375" lon="5.5028909258544445037841796875">
        <ele>274.600006103515625</ele>
        <time>2025-04-30T01:41:19.000Z</time>
        <extensions>
          <ns3:TrackPointExtension/>
        </extensions>
      </trkpt>
      <trkpt lat="50.3201409615576267242431640625" lon="5.50253192894160747528076171875">
        <ele>274.79998779296875</ele>
        <time>2025-04-30T01:41:25.000Z</time>
        <extensions>
          <ns3:TrackPointExtension/>
        </extensions>
      </trkpt>
      <trkpt lat="50.3201459906995296478271484375" lon="5.5021479539573192596435546875">
        <ele>274.79998779296875</ele>
        <time>2025-04-30T01:41:30.000Z</time>
        <extensions>
          <ns3:TrackPointExtension/>
        </extensions>
      </trkpt>
      <trkpt lat="50.32013098709285259246826171875" lon="5.5018089897930622100830078125">
        <ele>274</ele>
        <time>2025-04-30T01:41:35.000Z</time>
        <extensions>
          <ns3:TrackPointExtension/>
        </extensions>
      </trkpt>
      <trkpt lat="50.3200849704444408416748046875" lon="5.50153599120676517486572265625">
        <ele>273.600006103515625</ele>
        <time>2025-04-30T01:41:40.000Z</time>
        <extensions>
          <ns3:TrackPointExtension/>
        </extensions>
      </trkpt>
      <trkpt lat="50.3200189210474491119384765625" lon="5.50127095542848110198974609375">
        <ele>274.20001220703125</ele>
        <time>2025-04-30T01:41:45.000Z</time>
        <extensions>
          <ns3:TrackPointExtension/>
        </extensions>
      </trkpt>
      <trkpt lat="50.31995194964110851287841796875" lon="5.50109292380511760711669921875">
        <ele>275</ele>
        <time>2025-04-30T01:41:51.000Z</time>
        <extensions>
          <ns3:TrackPointExtension/>
        </extensions>
      </trkpt>
      <trkpt lat="50.3193279169499874114990234375" lon="5.49985491670668125152587890625">
        <ele>274.399993896484375</ele>
        <time>2025-04-30T01:41:56.000Z</time>
        <extensions>
          <ns3:TrackPointExtension/>
        </extensions>
      </trkpt>
      <trkpt lat="50.31923294998705387115478515625" lon="5.499476976692676544189453125">
        <ele>273.399993896484375</ele>
        <time>2025-04-30T01:42:01.000Z</time>
        <extensions>
          <ns3:TrackPointExtension/>
        </extensions>
      </trkpt>
      <trkpt lat="50.3188169561326503753662109375" lon="5.4963899217545986175537109375">
        <ele>263</ele>
        <time>2025-04-30T01:42:06.000Z</time>
        <extensions>
          <ns3:TrackPointExtension/>
        </extensions>
      </trkpt>
      <trkpt lat="50.31862995587289333343505859375" lon="5.49563496373593807220458984375">
        <ele>263.20001220703125</ele>
        <time>2025-04-30T01:42:11.000Z</time>
        <extensions>
          <ns3:TrackPointExtension/>
        </extensions>
      </trkpt>
      <trkpt lat="50.3184129483997821807861328125" lon="5.49517194740474224090576171875">
        <ele>262.399993896484375</ele>
        <time>2025-04-30T01:42:16.000Z</time>
        <extensions>
          <ns3:TrackPointExtension/>
        </extensions>
      </trkpt>
      <trkpt lat="50.3176689706742763519287109375" lon="5.4940129816532135009765625">
        <ele>261.399993896484375</ele>
        <time>2025-04-30T01:42:22.000Z</time>
        <extensions>
          <ns3:TrackPointExtension/>
        </extensions>
      </trkpt>
      <trkpt lat="50.3173199482262134552001953125" lon="5.49333496950566768646240234375">
        <ele>262</ele>
        <time>2025-04-30T01:42:27.000Z</time>
        <extensions>
          <ns3:TrackPointExtension/>
        </extensions>
      </trkpt>
      <trkpt lat="50.317173935472965240478515625" lon="5.49287295900285243988037109375">
        <ele>260.600006103515625</ele>
        <time>2025-04-30T01:42:32.000Z</time>
        <extensions>
          <ns3:TrackPointExtension/>
        </extensions>
      </trkpt>
      <trkpt lat="50.31667093746364116668701171875" lon="5.4914529807865619659423828125">
        <ele>254.1999969482421875</ele>
        <time>2025-04-30T01:42:37.000Z</time>
        <extensions>
          <ns3:TrackPointExtension/>
        </extensions>
      </trkpt>
      <trkpt lat="50.3166369907557964324951171875" lon="5.49120596610009670257568359375">
        <ele>254</ele>
        <time>2025-04-30T01:42:42.000Z</time>
        <extensions>
          <ns3:TrackPointExtension/>
        </extensions>
      </trkpt>
      <trkpt lat="50.31664998270571231842041015625" lon="5.49093891866505146026611328125">
        <ele>254</ele>
        <time>2025-04-30T01:42:48.000Z</time>
        <extensions>
          <ns3:TrackPointExtension/>
        </extensions>
      </trkpt>
      <trkpt lat="50.31673296354711055755615234375" lon="5.4906969331204891204833984375">
        <ele>255</ele>
        <time>2025-04-30T01:42:53.000Z</time>
        <extensions>
          <ns3:TrackPointExtension/>
        </extensions>
      </trkpt>
      <trkpt lat="50.316894985735416412353515625" lon="5.49049593508243560791015625">
        <ele>255</ele>
        <time>2025-04-30T01:42:58.000Z</time>
        <extensions>
          <ns3:TrackPointExtension/>
        </extensions>
      </trkpt>
      <trkpt lat="50.31797197647392749786376953125" lon="5.48974198289215564727783203125">
        <ele>250.1999969482421875</ele>
        <time>2025-04-30T01:43:03.000Z</time>
        <extensions>
          <ns3:TrackPointExtension/>
        </extensions>
      </trkpt>
      <trkpt lat="50.31879298388957977294921875" lon="5.48919699154794216156005859375">
        <ele>242.399993896484375</ele>
        <time>2025-04-30T01:43:08.000Z</time>
        <extensions>
          <ns3:TrackPointExtension/>
        </extensions>
      </trkpt>
      <trkpt lat="50.3198479302227497100830078125" lon="5.4886319674551486968994140625">
        <ele>237.1999969482421875</ele>
        <time>2025-04-30T01:43:14.000Z</time>
        <extensions>
          <ns3:TrackPointExtension/>
        </extensions>
      </trkpt>
      <trkpt lat="50.3202299773693084716796875" lon="5.48860095441341400146484375">
        <ele>237</ele>
        <time>2025-04-30T01:43:19.000Z</time>
        <extensions>
          <ns3:TrackPointExtension/>
        </extensions>
      </trkpt>
      <trkpt lat="50.32110295258462429046630859375" lon="5.48872492276132106781005859375">
        <ele>233.8000030517578125</ele>
        <time>2025-04-30T01:43:24.000Z</time>
        <extensions>
          <ns3:TrackPointExtension/>
        </extensions>
      </trkpt>
      <trkpt lat="50.32147393561899662017822265625" lon="5.48870195634663105010986328125">
        <ele>234.399993896484375</ele>
        <time>2025-04-30T01:43:29.000Z</time>
        <extensions>
          <ns3:TrackPointExtension/>
        </extensions>
      </trkpt>
      <trkpt lat="50.32170192338526248931884765625" lon="5.48849995248019695281982421875">
        <ele>235.600006103515625</ele>
        <time>2025-04-30T01:43:34.000Z</time>
        <extensions>
          <ns3:TrackPointExtension/>
        </extensions>
      </trkpt>
      <trkpt lat="50.3219199366867542266845703125" lon="5.48814296722412109375">
        <ele>236.399993896484375</ele>
        <time>2025-04-30T01:43:40.000Z</time>
        <extensions>
          <ns3:TrackPointExtension/>
        </extensions>
      </trkpt>
      <trkpt lat="50.32208397053182125091552734375" lon="5.48792495392262935638427734375">
        <ele>236.600006103515625</ele>
        <time>2025-04-30T01:43:45.000Z</time>
        <extensions>
          <ns3:TrackPointExtension/>
        </extensions>
      </trkpt>
      <trkpt lat="50.32273692078888416290283203125" lon="5.4874249733984470367431640625">
        <ele>238</ele>
        <time>2025-04-30T01:43:50.000Z</time>
        <extensions>
          <ns3:TrackPointExtension/>
        </extensions>
      </trkpt>
      <trkpt lat="50.32282895408570766448974609375" lon="5.48728692345321178436279296875">
        <ele>238.1999969482421875</ele>
        <time>2025-04-30T01:43:55.000Z</time>
        <extensions>
          <ns3:TrackPointExtension/>
        </extensions>
      </trkpt>
      <trkpt lat="50.322935990989208221435546875" lon="5.4870149306952953338623046875">
        <ele>238</ele>
        <time>2025-04-30T01:44:00.000Z</time>
        <extensions>
          <ns3:TrackPointExtension/>
        </extensions>
      </trkpt>
      <trkpt lat="50.32294194214046001434326171875" lon="5.4867839254438877105712890625">
        <ele>238.600006103515625</ele>
        <time>2025-04-30T01:44:05.000Z</time>
        <extensions>
          <ns3:TrackPointExtension/>
        </extensions>
      </trkpt>
      <trkpt lat="50.3228989429771900177001953125" lon="5.4865269362926483154296875">
        <ele>240</ele>
        <time>2025-04-30T01:44:11.000Z</time>
        <extensions>
          <ns3:TrackPointExtension/>
        </extensions>
      </trkpt>
      <trkpt lat="50.322418995201587677001953125" lon="5.48499397002160549163818359375">
        <ele>241.600006103515625</ele>
        <time>2025-04-30T01:44:16.000Z</time>
        <extensions>
          <ns3:TrackPointExtension/>
        </extensions>
      </trkpt>
      <trkpt lat="50.32170997001230716705322265625" lon="5.48297099769115447998046875">
        <ele>239.8000030517578125</ele>
        <time>2025-04-30T01:44:21.000Z</time>
        <extensions>
          <ns3:TrackPointExtension/>
        </extensions>
      </trkpt>
      <trkpt lat="50.321612991392612457275390625" lon="5.4825329594314098358154296875">
        <ele>238.1999969482421875</ele>
        <time>2025-04-30T01:44:26.000Z</time>
        <extensions>
          <ns3:TrackPointExtension/>
        </extensions>
      </trkpt>
      <trkpt lat="50.32159899361431598663330078125" lon="5.48225694335997104644775390625">
        <ele>237.1999969482421875</ele>
        <time>2025-04-30T01:44:31.000Z</time>
        <extensions>
          <ns3:TrackPointExtension/>
        </extensions>
      </trkpt>
      <trkpt lat="50.321609973907470703125" lon="5.4820199869573116302490234375">
        <ele>235.600006103515625</ele>
        <time>2025-04-30T01:44:37.000Z</time>
        <extensions>
          <ns3:TrackPointExtension/>
        </extensions>
      </trkpt>
      <trkpt lat="50.32164392061531543731689453125" lon="5.48180599696934223175048828125">
        <ele>234.600006103515625</ele>
        <time>2025-04-30T01:44:42.000Z</time>
        <extensions>
          <ns3:TrackPointExtension/>
        </extensions>
      </trkpt>
      <trkpt lat="50.32170192338526248931884765625" lon="5.4816479980945587158203125">
        <ele>234.399993896484375</ele>
        <time>2025-04-30T01:44:47.000Z</time>
        <extensions>
          <ns3:TrackPointExtension/>
        </extensions>
      </trkpt>
      <trkpt lat="50.32179697416722774505615234375" lon="5.4814959503710269927978515625">
        <ele>234.600006103515625</ele>
        <time>2025-04-30T01:44:52.000Z</time>
        <extensions>
          <ns3:TrackPointExtension/>
        </extensions>
      </trkpt>
      <trkpt lat="50.3226739726960659027099609375" lon="5.4805149324238300323486328125">
        <ele>229.1999969482421875</ele>
        <time>2025-04-30T01:44:57.000Z</time>
        <extensions>
          <ns3:TrackPointExtension/>
        </extensions>
      </trkpt>
      <trkpt lat="50.32427198253571987152099609375" lon="5.47877199947834014892578125">
        <ele>218.399993896484375</ele>
        <time>2025-04-30T01:45:03.000Z</time>
        <extensions>
          <ns3:TrackPointExtension/>
        </extensions>
      </trkpt>
      <trkpt lat="50.3251459635794162750244140625" lon="5.477783940732479095458984375">
        <ele>210.1999969482421875</ele>
        <time>2025-04-30T01:45:08.000Z</time>
        <extensions>
          <ns3:TrackPointExtension/>
        </extensions>
      </trkpt>
      <trkpt lat="50.32529692165553569793701171875" lon="5.47765293158590793609619140625">
        <ele>209.600006103515625</ele>
        <time>2025-04-30T01:45:13.000Z</time>
        <extensions>
          <ns3:TrackPointExtension/>
        </extensions>
      </trkpt>
      <trkpt lat="50.3256649710237979888916015625" lon="5.47751295380294322967529296875">
        <ele>206.399993896484375</ele>
        <time>2025-04-30T01:45:18.000Z</time>
        <extensions>
          <ns3:TrackPointExtension/>
        </extensions>
      </trkpt>
      <trkpt lat="50.325754992663860321044921875" lon="5.4773819446563720703125">
        <ele>205.399993896484375</ele>
        <time>2025-04-30T01:45:23.000Z</time>
        <extensions>
          <ns3:TrackPointExtension/>
        </extensions>
      </trkpt>
      <trkpt lat="50.3259459324181079864501953125" lon="5.47693996690213680267333984375">
        <ele>206</ele>
        <time>2025-04-30T01:45:29.000Z</time>
        <extensions>
          <ns3:TrackPointExtension/>
        </extensions>
      </trkpt>
      <trkpt lat="50.32620795071125030517578125" lon="5.47658893279731273651123046875">
        <ele>209.600006103515625</ele>
        <time>2025-04-30T01:45:34.000Z</time>
        <extensions>
          <ns3:TrackPointExtension/>
        </extensions>
      </trkpt>
      <trkpt lat="50.32673592679202556610107421875" lon="5.47604494728147983551025390625">
        <ele>209.600006103515625</ele>
        <time>2025-04-30T01:45:39.000Z</time>
        <extensions>
          <ns3:TrackPointExtension/>
        </extensions>
      </trkpt>
      <trkpt lat="50.32839596271514892578125" lon="5.4741939716041088104248046875">
        <ele>204.1999969482421875</ele>
        <time>2025-04-30T01:45:44.000Z</time>
        <extensions>
          <ns3:TrackPointExtension/>
        </extensions>
      </trkpt>
      <trkpt lat="50.3301499597728252410888671875" lon="5.4723479412496089935302734375">
        <ele>200.8000030517578125</ele>
        <time>2025-04-30T01:45:49.000Z</time>
        <extensions>
          <ns3:TrackPointExtension/>
        </extensions>
      </trkpt>
      <trkpt lat="50.33168393187224864959716796875" lon="5.470545999705791473388671875">
        <ele>196.8000030517578125</ele>
        <time>2025-04-30T01:45:54.000Z</time>
        <extensions>
          <ns3:TrackPointExtension/>
        </extensions>
      </trkpt>
      <trkpt lat="50.33495597541332244873046875" lon="5.4669369198381900787353515625">
        <ele>187</ele>
        <time>2025-04-30T01:46:00.000Z</time>
        <extensions>
          <ns3:TrackPointExtension/>
        </extensions>
      </trkpt>
      <trkpt lat="50.33573691733181476593017578125" lon="5.46883198432624340057373046875">
        <ele>193</ele>
        <time>2025-04-30T01:46:54.000Z</time>
        <extensions>
          <ns3:TrackPointExtension/>
        </extensions>
      </trkpt>
      <trkpt lat="50.336155928671360015869140625" lon="5.47001299448311328887939453125">
        <ele>193.399993896484375</ele>
        <time>2025-04-30T01:47:48.000Z</time>
        <extensions>
          <ns3:TrackPointExtension/>
        </extensions>
      </trkpt>
      <trkpt lat="50.33680192194879055023193359375" lon="5.4716539196670055389404296875">
        <ele>192</ele>
        <time>2025-04-30T01:48:42.000Z</time>
        <extensions>
          <ns3:TrackPointExtension/>
        </extensions>
      </trkpt>
      <trkpt lat="50.3389449231326580047607421875" lon="5.47080994583666324615478515625">
        <ele>188</ele>
        <time>2025-04-30T01:49:15.000Z</time>
        <extensions>
          <ns3:TrackPointExtension/>
        </extensions>
      </trkpt>
      <trkpt lat="50.339271984994411468505859375" lon="5.470716990530490875244140625">
        <ele>187.600006103515625</ele>
        <time>2025-04-30T01:49:48.000Z</time>
        <extensions>
          <ns3:TrackPointExtension/>
        </extensions>
      </trkpt>
      <trkpt lat="50.3395819477736949920654296875" lon="5.47057491727173328399658203125">
        <ele>187.1999969482421875</ele>
        <time>2025-04-30T01:50:20.000Z</time>
        <extensions>
          <ns3:TrackPointExtension/>
        </extensions>
      </trkpt>
      <trkpt lat="50.3395819477736949920654296875" lon="5.47057491727173328399658203125">
        <ele>187.1999969482421875</ele>
        <time>2025-04-30T01:50:20.000Z</time>
        <extensions>
          <ns3:TrackPointExtension/>
        </extensions>
      </trkpt>
      <trkpt lat="50.339271984994411468505859375" lon="5.470716990530490875244140625">
        <ele>187.600006103515625</ele>
        <time>2025-04-30T01:51:23.000Z</time>
        <extensions>
          <ns3:TrackPointExtension/>
        </extensions>
      </trkpt>
      <trkpt lat="50.3389449231326580047607421875" lon="5.47080994583666324615478515625">
        <ele>188</ele>
        <time>2025-04-30T01:52:26.000Z</time>
        <extensions>
          <ns3:TrackPointExtension/>
        </extensions>
      </trkpt>
      <trkpt lat="50.3339489735662937164306640625" lon="5.4727519489824771881103515625">
        <ele>192.600006103515625</ele>
        <time>2025-04-30T01:53:29.000Z</time>
        <extensions>
          <ns3:TrackPointExtension/>
        </extensions>
      </trkpt>
      <trkpt lat="50.3346909396350383758544921875" lon="5.47506292350590229034423828125">
        <ele>199.600006103515625</ele>
        <time>2025-04-30T01:54:06.000Z</time>
        <extensions>
          <ns3:TrackPointExtension/>
        </extensions>
      </trkpt>
      <trkpt lat="50.3350969590246677398681640625" lon="5.476122982800006866455078125">
        <ele>200</ele>
        <time>2025-04-30T01:54:44.000Z</time>
        <extensions>
          <ns3:TrackPointExtension/>
        </extensions>
      </trkpt>
      <trkpt lat="50.33795795403420925140380859375" lon="5.4748499393463134765625">
        <ele>187.8000030517578125</ele>
        <time>2025-04-30T01:55:15.000Z</time>
        <extensions>
          <ns3:TrackPointExtension/>
        </extensions>
      </trkpt>
      <trkpt lat="50.337999947369098663330078125" lon="5.474857985973358154296875">
        <ele>187.600006103515625</ele>
        <time>2025-04-30T01:55:47.000Z</time>
        <extensions>
          <ns3:TrackPointExtension/>
        </extensions>
      </trkpt>
      <trkpt lat="50.33807798288762569427490234375" lon="5.47492395155131816864013671875">
        <ele>187.1999969482421875</ele>
        <time>2025-04-30T01:56:19.000Z</time>
        <extensions>
          <ns3:TrackPointExtension/>
        </extensions>
      </trkpt>
      <trkpt lat="50.33806993626058101654052734375" lon="5.47500592656433582305908203125">
        <ele>187</ele>
        <time>2025-04-30T01:56:24.000Z</time>
        <extensions>
          <ns3:TrackPointExtension/>
        </extensions>
      </trkpt>
      <trkpt lat="50.3380909748375415802001953125" lon="5.4751079343259334564208984375">
        <ele>187</ele>
        <time>2025-04-30T01:56:29.000Z</time>
        <extensions>
          <ns3:TrackPointExtension/>
        </extensions>
      </trkpt>
      <trkpt lat="50.33822198398411273956298828125" lon="5.47564395703375339508056640625">
        <ele>187.399993896484375</ele>
        <time>2025-04-30T01:56:34.000Z</time>
        <extensions>
          <ns3:TrackPointExtension/>
        </extensions>
      </trkpt>
      <trkpt lat="50.33826992847025394439697265625" lon="5.4759739525616168975830078125">
        <ele>187</ele>
        <time>2025-04-30T01:56:39.000Z</time>
        <extensions>
          <ns3:TrackPointExtension/>
        </extensions>
      </trkpt>
      <trkpt lat="50.33827898092567920684814453125" lon="5.4762649722397327423095703125">
        <ele>186.399993896484375</ele>
        <time>2025-04-30T01:56:44.000Z</time>
        <extensions>
          <ns3:TrackPointExtension/>
        </extensions>
      </trkpt>
      <trkpt lat="50.3383149392902851104736328125" lon="5.47641693614423274993896484375">
        <ele>185.8000030517578125</ele>
        <time>2025-04-30T01:56:50.000Z</time>
        <extensions>
          <ns3:TrackPointExtension/>
        </extensions>
      </trkpt>
      <trkpt lat="50.33847595565021038055419921875" lon="5.47628198750317096710205078125">
        <ele>186.399993896484375</ele>
        <time>2025-04-30T01:56:53.000Z</time>
        <extensions>
          <ns3:TrackPointExtension/>
        </extensions>
      </trkpt>
      <trkpt lat="50.3391819633543491363525390625" lon="5.47590698115527629852294921875">
        <ele>186.8000030517578125</ele>
        <time>2025-04-30T01:56:57.000Z</time>
        <extensions>
          <ns3:TrackPointExtension/>
        </extensions>
      </trkpt>
      <trkpt lat="50.33925698138773441314697265625" lon="5.47590698115527629852294921875">
        <ele>186.8000030517578125</ele>
        <time>2025-04-30T01:57:01.000Z</time>
        <extensions>
          <ns3:TrackPointExtension/>
        </extensions>
      </trkpt>
      <trkpt lat="50.33936292864382266998291015625" lon="5.47596598975360393524169921875">
        <ele>186.399993896484375</ele>
        <time>2025-04-30T01:57:05.000Z</time>
        <extensions>
          <ns3:TrackPointExtension/>
        </extensions>
      </trkpt>
      <trkpt lat="50.3394109569489955902099609375" lon="5.4760359786450862884521484375">
        <ele>186.1999969482421875</ele>
        <time>2025-04-30T01:57:09.000Z</time>
        <extensions>
          <ns3:TrackPointExtension/>
        </extensions>
      </trkpt>
      <trkpt lat="50.34008192829787731170654296875" lon="5.477445982396602630615234375">
        <ele>182.399993896484375</ele>
        <time>2025-04-30T01:57:13.000Z</time>
        <extensions>
          <ns3:TrackPointExtension/>
        </extensions>
      </trkpt>
      <trkpt lat="50.34011998213827610015869140625" lon="5.47776793129742145538330078125">
        <ele>180.399993896484375</ele>
        <time>2025-04-30T01:57:17.000Z</time>
        <extensions>
          <ns3:TrackPointExtension/>
        </extensions>
      </trkpt>
      <trkpt lat="50.3401059843599796295166015625" lon="5.47808493487536907196044921875">
        <ele>178.8000030517578125</ele>
        <time>2025-04-30T01:57:21.000Z</time>
        <extensions>
          <ns3:TrackPointExtension/>
        </extensions>
      </trkpt>
      <trkpt lat="50.3400479815900325775146484375" lon="5.47829397954046726226806640625">
        <ele>178.600006103515625</ele>
        <time>2025-04-30T01:57:25.000Z</time>
        <extensions>
          <ns3:TrackPointExtension/>
        </extensions>
      </trkpt>
      <trkpt lat="50.33996097743511199951171875" lon="5.4785069637000560760498046875">
        <ele>178.399993896484375</ele>
        <time>2025-04-30T01:57:29.000Z</time>
        <extensions>
          <ns3:TrackPointExtension/>
        </extensions>
      </trkpt>
      <trkpt lat="50.33930995501577854156494140625" lon="5.47914692200720310211181640625">
        <ele>179.399993896484375</ele>
        <time>2025-04-30T01:57:33.000Z</time>
        <extensions>
          <ns3:TrackPointExtension/>
        </extensions>
      </trkpt>
      <trkpt lat="50.3399849496781826019287109375" lon="5.48093193210661411285400390625">
        <ele>171.8000030517578125</ele>
        <time>2025-04-30T01:57:44.000Z</time>
        <extensions>
          <ns3:TrackPointExtension/>
        </extensions>
      </trkpt>
      <trkpt lat="50.34047596156597137451171875" lon="5.4814909212291240692138671875">
        <ele>169.1999969482421875</ele>
        <time>2025-04-30T01:57:55.000Z</time>
        <extensions>
          <ns3:TrackPointExtension/>
        </extensions>
      </trkpt>
      <trkpt lat="50.34133099950850009918212890625" lon="5.4820369184017181396484375">
        <ele>166</ele>
        <time>2025-04-30T01:58:06.000Z</time>
        <extensions>
          <ns3:TrackPointExtension/>
        </extensions>
      </trkpt>
      <trkpt lat="50.34176199696958065032958984375" lon="5.48237496055662631988525390625">
        <ele>164</ele>
        <time>2025-04-30T01:58:16.000Z</time>
        <extensions>
          <ns3:TrackPointExtension/>
        </extensions>
      </trkpt>
      <trkpt lat="50.3423469699919223785400390625" lon="5.48302992247045040130615234375">
        <ele>162</ele>
        <time>2025-04-30T01:58:27.000Z</time>
        <extensions>
          <ns3:TrackPointExtension/>
        </extensions>
      </trkpt>
      <trkpt lat="50.34140492789447307586669921875" lon="5.4850079677999019622802734375">
        <ele>159.8000030517578125</ele>
        <time>2025-04-30T01:58:38.000Z</time>
        <extensions>
          <ns3:TrackPointExtension/>
        </extensions>
      </trkpt>
      <trkpt lat="50.34134893678128719329833984375" lon="5.48513294197618961334228515625">
        <ele>160</ele>
        <time>2025-04-30T01:58:49.000Z</time>
        <extensions>
          <ns3:TrackPointExtension/>
        </extensions>
      </trkpt>
      <trkpt lat="50.3412539698183536529541015625" lon="5.48548498190939426422119140625">
        <ele>158.1999969482421875</ele>
        <time>2025-04-30T01:59:00.000Z</time>
        <extensions>
          <ns3:TrackPointExtension/>
        </extensions>
      </trkpt>
      <trkpt lat="50.34164599142968654632568359375" lon="5.4856379516422748565673828125">
        <ele>157.600006103515625</ele>
        <time>2025-04-30T01:59:04.000Z</time>
        <extensions>
          <ns3:TrackPointExtension/>
        </extensions>
      </trkpt>
      <trkpt lat="50.3417179919779300689697265625" lon="5.48579293303191661834716796875">
        <ele>157.1999969482421875</ele>
        <time>2025-04-30T01:59:26.000Z</time>
        <extensions>
          <ns3:TrackPointExtension/>
        </extensions>
      </trkpt>
      <trkpt lat="50.34278894774615764617919921875" lon="5.4871879331767559051513671875">
        <ele>152.399993896484375</ele>
        <time>2025-04-30T01:59:48.000Z</time>
        <extensions>
          <ns3:TrackPointExtension/>
        </extensions>
      </trkpt>
      <trkpt lat="50.34425091929733753204345703125" lon="5.48883992247283458709716796875">
        <ele>146.600006103515625</ele>
        <time>2025-04-30T02:00:10.000Z</time>
        <extensions>
          <ns3:TrackPointExtension/>
        </extensions>
      </trkpt>
      <trkpt lat="50.34398294985294342041015625" lon="5.4890079796314239501953125">
        <ele>147</ele>
        <time>2025-04-30T02:00:14.000Z</time>
        <extensions>
          <ns3:TrackPointExtension/>
        </extensions>
      </trkpt>
      <trkpt lat="50.3434389643371105194091796875" lon="5.48918693326413631439208984375">
        <ele>148.399993896484375</ele>
        <time>2025-04-30T02:00:19.000Z</time>
        <extensions>
          <ns3:TrackPointExtension/>
        </extensions>
      </trkpt>
      <trkpt lat="50.34290696494281291961669921875" lon="5.4894949682056903839111328125">
        <ele>152</ele>
        <time>2025-04-30T02:00:24.000Z</time>
        <extensions>
          <ns3:TrackPointExtension/>
        </extensions>
      </trkpt>
      <trkpt lat="50.34281694330275058746337890625" lon="5.48951692879199981689453125">
        <ele>152.600006103515625</ele>
        <time>2025-04-30T02:00:28.000Z</time>
        <extensions>
          <ns3:TrackPointExtension/>
        </extensions>
      </trkpt>
      <trkpt lat="50.34273396246135234832763671875" lon="5.48950091935694217681884765625">
        <ele>153.399993896484375</ele>
        <time>2025-04-30T02:00:33.000Z</time>
        <extensions>
          <ns3:TrackPointExtension/>
        </extensions>
      </trkpt>
      <trkpt lat="50.34203591756522655487060546875" lon="5.48907998017966747283935546875">
        <ele>154.1999969482421875</ele>
        <time>2025-04-30T02:00:38.000Z</time>
        <extensions>
          <ns3:TrackPointExtension/>
        </extensions>
      </trkpt>
      <trkpt lat="50.341970957815647125244140625" lon="5.48909791745245456695556640625">
        <ele>155</ele>
        <time>2025-04-30T02:00:42.000Z</time>
        <extensions>
          <ns3:TrackPointExtension/>
        </extensions>
      </trkpt>
      <trkpt lat="50.34189895726740360260009765625" lon="5.48921492882072925567626953125">
        <ele>156.399993896484375</ele>
        <time>2025-04-30T02:00:47.000Z</time>
        <extensions>
          <ns3:TrackPointExtension/>
        </extensions>
      </trkpt>
      <trkpt lat="50.3415429778397083282470703125" lon="5.48993392847478389739990234375">
        <ele>163</ele>
        <time>2025-04-30T02:00:52.000Z</time>
        <extensions>
          <ns3:TrackPointExtension/>
        </extensions>
      </trkpt>
      <trkpt lat="50.34147097729146480560302734375" lon="5.49003099091351032257080078125">
        <ele>163.1999969482421875</ele>
        <time>2025-04-30T02:00:56.000Z</time>
        <extensions>
          <ns3:TrackPointExtension/>
        </extensions>
      </trkpt>
      <trkpt lat="50.34137994982302188873291015625" lon="5.490092933177947998046875">
        <ele>163.1999969482421875</ele>
        <time>2025-04-30T02:01:01.000Z</time>
        <extensions>
          <ns3:TrackPointExtension/>
        </extensions>
      </trkpt>
      <trkpt lat="50.34109898842871189117431640625" lon="5.4894889332354068756103515625">
        <ele>164.600006103515625</ele>
        <time>2025-04-30T02:01:06.000Z</time>
        <extensions>
          <ns3:TrackPointExtension/>
        </extensions>
      </trkpt>
      <trkpt lat="50.3407969884574413299560546875" lon="5.4890949837863445281982421875">
        <ele>166.1999969482421875</ele>
        <time>2025-04-30T02:01:10.000Z</time>
        <extensions>
          <ns3:TrackPointExtension/>
        </extensions>
      </trkpt>
      <trkpt lat="50.33977992832660675048828125" lon="5.48809996806085109710693359375">
        <ele>171</ele>
        <time>2025-04-30T02:01:15.000Z</time>
        <extensions>
          <ns3:TrackPointExtension/>
        </extensions>
      </trkpt>
      <trkpt lat="50.33902195282280445098876953125" lon="5.48726697452366352081298828125">
        <ele>173.8000030517578125</ele>
        <time>2025-04-30T02:01:20.000Z</time>
        <extensions>
          <ns3:TrackPointExtension/>
        </extensions>
      </trkpt>
      <trkpt lat="50.33841795288026332855224609375" lon="5.486700944602489471435546875">
        <ele>179.399993896484375</ele>
        <time>2025-04-30T02:01:24.000Z</time>
        <extensions>
          <ns3:TrackPointExtension/>
        </extensions>
      </trkpt>
      <trkpt lat="50.338059961795806884765625" lon="5.4862709529697895050048828125">
        <ele>181</ele>
        <time>2025-04-30T02:01:29.000Z</time>
        <extensions>
          <ns3:TrackPointExtension/>
        </extensions>
      </trkpt>
      <trkpt lat="50.33746895380318164825439453125" lon="5.485660918056964874267578125">
        <ele>183.600006103515625</ele>
        <time>2025-04-30T02:01:34.000Z</time>
        <extensions>
          <ns3:TrackPointExtension/>
        </extensions>
      </trkpt>
      <trkpt lat="50.337316989898681640625" lon="5.48557399772107601165771484375">
        <ele>183.600006103515625</ele>
        <time>2025-04-30T02:01:38.000Z</time>
        <extensions>
          <ns3:TrackPointExtension/>
        </extensions>
      </trkpt>
      <trkpt lat="50.33703795634210109710693359375" lon="5.48551297746598720550537109375">
        <ele>184.600006103515625</ele>
        <time>2025-04-30T02:01:43.000Z</time>
        <extensions>
          <ns3:TrackPointExtension/>
        </extensions>
      </trkpt>
      <trkpt lat="50.336852967739105224609375" lon="5.485436953604221343994140625">
        <ele>185.399993896484375</ele>
        <time>2025-04-30T02:01:48.000Z</time>
        <extensions>
          <ns3:TrackPointExtension/>
        </extensions>
      </trkpt>
      <trkpt lat="50.33635198138654232025146484375" lon="5.48513897694647312164306640625">
        <ele>190</ele>
        <time>2025-04-30T02:01:52.000Z</time>
        <extensions>
          <ns3:TrackPointExtension/>
        </extensions>
      </trkpt>
      <trkpt lat="50.33597395755350589752197265625" lon="5.4850079677999019622802734375">
        <ele>193.8000030517578125</ele>
        <time>2025-04-30T02:01:57.000Z</time>
        <extensions>
          <ns3:TrackPointExtension/>
        </extensions>
      </trkpt>
      <trkpt lat="50.3356179781258106231689453125" lon="5.484913922846317291259765625">
        <ele>196.600006103515625</ele>
        <time>2025-04-30T02:02:02.000Z</time>
        <extensions>
          <ns3:TrackPointExtension/>
        </extensions>
      </trkpt>
      <trkpt lat="50.3352369368076324462890625" lon="5.4848859272897243499755859375">
        <ele>198</ele>
        <time>2025-04-30T02:02:06.000Z</time>
        <extensions>
          <ns3:TrackPointExtension/>
        </extensions>
      </trkpt>
      <trkpt lat="50.33460795879364013671875" lon="5.48489992506802082061767578125">
        <ele>199</ele>
        <time>2025-04-30T02:02:11.000Z</time>
        <extensions>
          <ns3:TrackPointExtension/>
        </extensions>
      </trkpt>
      <trkpt lat="50.3342069685459136962890625" lon="5.48486195504665374755859375">
        <ele>195.8000030517578125</ele>
        <time>2025-04-30T02:02:16.000Z</time>
        <extensions>
          <ns3:TrackPointExtension/>
        </extensions>
      </trkpt>
      <trkpt lat="50.3331359289586544036865234375" lon="5.48496999777853488922119140625">
        <ele>193.600006103515625</ele>
        <time>2025-04-30T02:02:20.000Z</time>
        <extensions>
          <ns3:TrackPointExtension/>
        </extensions>
      </trkpt>
      <trkpt lat="50.33264097757637500762939453125" lon="5.4848399944603443145751953125">
        <ele>194.8000030517578125</ele>
        <time>2025-04-30T02:02:25.000Z</time>
        <extensions>
          <ns3:TrackPointExtension/>
        </extensions>
      </trkpt>
      <trkpt lat="50.33206497319042682647705078125" lon="5.4846539162099361419677734375">
        <ele>196.8000030517578125</ele>
        <time>2025-04-30T02:02:30.000Z</time>
        <extensions>
          <ns3:TrackPointExtension/>
        </extensions>
      </trkpt>
      <trkpt lat="50.33182793296873569488525390625" lon="5.4845519922673702239990234375">
        <ele>196.1999969482421875</ele>
        <time>2025-04-30T02:02:34.000Z</time>
        <extensions>
          <ns3:TrackPointExtension/>
        </extensions>
      </trkpt>
      <trkpt lat="50.3317019529640674591064453125" lon="5.48445291817188262939453125">
        <ele>195.399993896484375</ele>
        <time>2025-04-30T02:02:39.000Z</time>
        <extensions>
          <ns3:TrackPointExtension/>
        </extensions>
      </trkpt>
      <trkpt lat="50.33120297826826572418212890625" lon="5.48393298871815204620361328125">
        <ele>193.399993896484375</ele>
        <time>2025-04-30T02:02:44.000Z</time>
        <extensions>
          <ns3:TrackPointExtension/>
        </extensions>
      </trkpt>
      <trkpt lat="50.33078991807997226715087890625" lon="5.4833909310400485992431640625">
        <ele>194.8000030517578125</ele>
        <time>2025-04-30T02:02:48.000Z</time>
        <extensions>
          <ns3:TrackPointExtension/>
        </extensions>
      </trkpt>
      <trkpt lat="50.33034794032573699951171875" lon="5.48309194855391979217529296875">
        <ele>196.1999969482421875</ele>
        <time>2025-04-30T02:02:53.000Z</time>
        <extensions>
          <ns3:TrackPointExtension/>
        </extensions>
      </trkpt>
      <trkpt lat="50.33013495616614818572998046875" lon="5.4829869233071804046630859375">
        <ele>197.399993896484375</ele>
        <time>2025-04-30T02:02:58.000Z</time>
        <extensions>
          <ns3:TrackPointExtension/>
        </extensions>
      </trkpt>
      <trkpt lat="50.32930799759924411773681640625" lon="5.48274099826812744140625">
        <ele>200.600006103515625</ele>
        <time>2025-04-30T02:03:02.000Z</time>
        <extensions>
          <ns3:TrackPointExtension/>
        </extensions>
      </trkpt>
      <trkpt lat="50.3289369307458400726318359375" lon="5.4825949855148792266845703125">
        <ele>202.1999969482421875</ele>
        <time>2025-04-30T02:03:07.000Z</time>
        <extensions>
          <ns3:TrackPointExtension/>
        </extensions>
      </trkpt>
      <trkpt lat="50.3288269601762294769287109375" lon="5.48257193528115749359130859375">
        <ele>202.8000030517578125</ele>
        <time>2025-04-30T02:03:12.000Z</time>
        <extensions>
          <ns3:TrackPointExtension/>
        </extensions>
      </trkpt>
      <trkpt lat="50.3287129662930965423583984375" lon="5.4825909622013568878173828125">
        <ele>202.600006103515625</ele>
        <time>2025-04-30T02:03:16.000Z</time>
        <extensions>
          <ns3:TrackPointExtension/>
        </extensions>
      </trkpt>
      <trkpt lat="50.3284269757568836212158203125" lon="5.482732951641082763671875">
        <ele>202.1999969482421875</ele>
        <time>2025-04-30T02:03:21.000Z</time>
        <extensions>
          <ns3:TrackPointExtension/>
        </extensions>
      </trkpt>
      <trkpt lat="50.32833896577358245849609375" lon="5.48275197856128215789794921875">
        <ele>202</ele>
        <time>2025-04-30T02:03:26.000Z</time>
        <extensions>
          <ns3:TrackPointExtension/>
        </extensions>
      </trkpt>
      <trkpt lat="50.3281969763338565826416015625" lon="5.48271291889250278472900390625">
        <ele>202.399993896484375</ele>
        <time>2025-04-30T02:03:30.000Z</time>
        <extensions>
          <ns3:TrackPointExtension/>
        </extensions>
      </trkpt>
      <trkpt lat="50.32800394110381603240966796875" lon="5.482617951929569244384765625">
        <ele>203</ele>
        <time>2025-04-30T02:03:35.000Z</time>
        <extensions>
          <ns3:TrackPointExtension/>
        </extensions>
      </trkpt>
      <trkpt lat="50.3277369774878025054931640625" lon="5.4824229888617992401123046875">
        <ele>205</ele>
        <time>2025-04-30T02:03:40.000Z</time>
        <extensions>
          <ns3:TrackPointExtension/>
        </extensions>
      </trkpt>
      <trkpt lat="50.327594988048076629638671875" lon="5.48239993862807750701904296875">
        <ele>206</ele>
        <time>2025-04-30T02:03:44.000Z</time>
        <extensions>
          <ns3:TrackPointExtension/>
        </extensions>
      </trkpt>
      <trkpt lat="50.3272769786417484283447265625" lon="5.48240195028483867645263671875">
        <ele>209.600006103515625</ele>
        <time>2025-04-30T02:03:49.000Z</time>
        <extensions>
          <ns3:TrackPointExtension/>
        </extensions>
      </trkpt>
      <trkpt lat="50.3268159739673137664794921875" lon="5.48228292725980281829833984375">
        <ele>214.1999969482421875</ele>
        <time>2025-04-30T02:03:54.000Z</time>
        <extensions>
          <ns3:TrackPointExtension/>
        </extensions>
      </trkpt>
      <trkpt lat="50.326668955385684967041015625" lon="5.48226498998701572418212890625">
        <ele>214.8000030517578125</ele>
        <time>2025-04-30T02:03:58.000Z</time>
        <extensions>
          <ns3:TrackPointExtension/>
        </extensions>
      </trkpt>
      <trkpt lat="50.32656594179570674896240234375" lon="5.48229499720036983489990234375">
        <ele>215</ele>
        <time>2025-04-30T02:04:03.000Z</time>
        <extensions>
          <ns3:TrackPointExtension/>
        </extensions>
      </trkpt>
      <trkpt lat="50.32619797624647617340087890625" lon="5.482499934732913970947265625">
        <ele>214</ele>
        <time>2025-04-30T02:04:08.000Z</time>
        <extensions>
          <ns3:TrackPointExtension/>
        </extensions>
      </trkpt>
      <trkpt lat="50.32530899159610271453857421875" lon="5.48263798467814922332763671875">
        <ele>221.1999969482421875</ele>
        <time>2025-04-30T02:04:12.000Z</time>
        <extensions>
          <ns3:TrackPointExtension/>
        </extensions>
      </trkpt>
      <trkpt lat="50.32522198744118213653564453125" lon="5.482676960527896881103515625">
        <ele>221.8000030517578125</ele>
        <time>2025-04-30T02:04:17.000Z</time>
        <extensions>
          <ns3:TrackPointExtension/>
        </extensions>
      </trkpt>
      <trkpt lat="50.32500992529094219207763671875" lon="5.48283898271620273590087890625">
        <ele>223.399993896484375</ele>
        <time>2025-04-30T02:04:22.000Z</time>
        <extensions>
          <ns3:TrackPointExtension/>
        </extensions>
      </trkpt>
      <trkpt lat="50.3248599730432033538818359375" lon="5.4830569960176944732666015625">
        <ele>224</ele>
        <time>2025-04-30T02:04:26.000Z</time>
        <extensions>
          <ns3:TrackPointExtension/>
        </extensions>
      </trkpt>
      <trkpt lat="50.32395196147263050079345703125" lon="5.4851749353110790252685546875">
        <ele>239.1999969482421875</ele>
        <time>2025-04-30T02:04:31.000Z</time>
        <extensions>
          <ns3:TrackPointExtension/>
        </extensions>
      </trkpt>
      <trkpt lat="50.3237659670412540435791015625" lon="5.48570592887699604034423828125">
        <ele>241.8000030517578125</ele>
        <time>2025-04-30T02:04:36.000Z</time>
        <extensions>
          <ns3:TrackPointExtension/>
        </extensions>
      </trkpt>
      <trkpt lat="50.32360193319618701934814453125" lon="5.48625594936311244964599609375">
        <ele>242.399993896484375</ele>
        <time>2025-04-30T02:04:40.000Z</time>
        <extensions>
          <ns3:TrackPointExtension/>
        </extensions>
      </trkpt>
      <trkpt lat="50.32344795763492584228515625" lon="5.48651193268597126007080078125">
        <ele>241.1999969482421875</ele>
        <time>2025-04-30T02:04:45.000Z</time>
        <extensions>
          <ns3:TrackPointExtension/>
        </extensions>
      </trkpt>
      <trkpt lat="50.322935990989208221435546875" lon="5.4870149306952953338623046875">
        <ele>238</ele>
        <time>2025-04-30T02:04:50.000Z</time>
        <extensions>
          <ns3:TrackPointExtension/>
        </extensions>
      </trkpt>
      <trkpt lat="50.32282895408570766448974609375" lon="5.48728692345321178436279296875">
        <ele>238.1999969482421875</ele>
        <time>2025-04-30T02:04:54.000Z</time>
        <extensions>
          <ns3:TrackPointExtension/>
        </extensions>
      </trkpt>
      <trkpt lat="50.32273692078888416290283203125" lon="5.4874249733984470367431640625">
        <ele>238</ele>
        <time>2025-04-30T02:04:59.000Z</time>
        <extensions>
          <ns3:TrackPointExtension/>
        </extensions>
      </trkpt>
      <trkpt lat="50.32208397053182125091552734375" lon="5.48792495392262935638427734375">
        <ele>236.600006103515625</ele>
        <time>2025-04-30T02:05:04.000Z</time>
        <extensions>
          <ns3:TrackPointExtension/>
        </extensions>
      </trkpt>
      <trkpt lat="50.3219199366867542266845703125" lon="5.48814296722412109375">
        <ele>236.399993896484375</ele>
        <time>2025-04-30T02:05:08.000Z</time>
        <extensions>
          <ns3:TrackPointExtension/>
        </extensions>
      </trkpt>
      <trkpt lat="50.32170192338526248931884765625" lon="5.48849995248019695281982421875">
        <ele>235.600006103515625</ele>
        <time>2025-04-30T02:05:13.000Z</time>
        <extensions>
          <ns3:TrackPointExtension/>
        </extensions>
      </trkpt>
      <trkpt lat="50.32147393561899662017822265625" lon="5.48870195634663105010986328125">
        <ele>234.399993896484375</ele>
        <time>2025-04-30T02:05:18.000Z</time>
        <extensions>
          <ns3:TrackPointExtension/>
        </extensions>
      </trkpt>
      <trkpt lat="50.32110295258462429046630859375" lon="5.48872492276132106781005859375">
        <ele>233.8000030517578125</ele>
        <time>2025-04-30T02:05:22.000Z</time>
        <extensions>
          <ns3:TrackPointExtension/>
        </extensions>
      </trkpt>
      <trkpt lat="50.3202299773693084716796875" lon="5.48860095441341400146484375">
        <ele>237</ele>
        <time>2025-04-30T02:05:27.000Z</time>
        <extensions>
          <ns3:TrackPointExtension/>
        </extensions>
      </trkpt>
      <trkpt lat="50.3198479302227497100830078125" lon="5.4886319674551486968994140625">
        <ele>237.1999969482421875</ele>
        <time>2025-04-30T02:05:32.000Z</time>
        <extensions>
          <ns3:TrackPointExtension/>
        </extensions>
      </trkpt>
      <trkpt lat="50.31879298388957977294921875" lon="5.48919699154794216156005859375">
        <ele>242.399993896484375</ele>
        <time>2025-04-30T02:05:36.000Z</time>
        <extensions>
          <ns3:TrackPointExtension/>
        </extensions>
      </trkpt>
      <trkpt lat="50.31730393879115581512451171875" lon="5.48854596912860870361328125">
        <ele>253.1999969482421875</ele>
        <time>2025-04-30T02:05:45.000Z</time>
        <extensions>
          <ns3:TrackPointExtension/>
        </extensions>
      </trkpt>
      <trkpt lat="50.3170369751751422882080078125" lon="5.48826693557202816009521484375">
        <ele>253.600006103515625</ele>
        <time>2025-04-30T02:05:54.000Z</time>
        <extensions>
          <ns3:TrackPointExtension/>
        </extensions>
      </trkpt>
      <trkpt lat="50.31587197445333003997802734375" lon="5.4867279343307018280029296875">
        <ele>248.600006103515625</ele>
        <time>2025-04-30T02:06:03.000Z</time>
        <extensions>
          <ns3:TrackPointExtension/>
        </extensions>
      </trkpt>
      <trkpt lat="50.3155409730970859527587890625" lon="5.48643599264323711395263671875">
        <ele>247.1999969482421875</ele>
        <time>2025-04-30T02:06:12.000Z</time>
        <extensions>
          <ns3:TrackPointExtension/>
        </extensions>
      </trkpt>
      <trkpt lat="50.3133769333362579345703125" lon="5.4850129969418048858642578125">
        <ele>243.399993896484375</ele>
        <time>2025-04-30T02:06:21.000Z</time>
        <extensions>
          <ns3:TrackPointExtension/>
        </extensions>
      </trkpt>
      <trkpt lat="50.31238594092428684234619140625" lon="5.484223924577236175537109375">
        <ele>238</ele>
        <time>2025-04-30T02:06:30.000Z</time>
        <extensions>
          <ns3:TrackPointExtension/>
        </extensions>
      </trkpt>
      <trkpt lat="50.31074694357812404632568359375" lon="5.48323695547878742218017578125">
        <ele>230.399993896484375</ele>
        <time>2025-04-30T02:06:39.000Z</time>
        <extensions>
          <ns3:TrackPointExtension/>
        </extensions>
      </trkpt>
      <trkpt lat="50.3101839311420917510986328125" lon="5.483024977147579193115234375">
        <ele>227.600006103515625</ele>
        <time>2025-04-30T02:06:47.000Z</time>
        <extensions>
          <ns3:TrackPointExtension/>
        </extensions>
      </trkpt>
      <trkpt lat="50.3100099228322505950927734375" lon="5.4829399846494197845458984375">
        <ele>226</ele>
        <time>2025-04-30T02:06:56.000Z</time>
        <extensions>
          <ns3:TrackPointExtension/>
        </extensions>
      </trkpt>
      <trkpt lat="50.3099009580910205841064453125" lon="5.4827609471976757049560546875">
        <ele>224.8000030517578125</ele>
        <time>2025-04-30T02:07:05.000Z</time>
        <extensions>
          <ns3:TrackPointExtension/>
        </extensions>
      </trkpt>
      <trkpt lat="50.3097849525511264801025390625" lon="5.48243899829685688018798828125">
        <ele>222.8000030517578125</ele>
        <time>2025-04-30T02:07:14.000Z</time>
        <extensions>
          <ns3:TrackPointExtension/>
        </extensions>
      </trkpt>
      <trkpt lat="50.30973692424595355987548828125" lon="5.48236993141472339630126953125">
        <ele>222.600006103515625</ele>
        <time>2025-04-30T02:07:23.000Z</time>
        <extensions>
          <ns3:TrackPointExtension/>
        </extensions>
      </trkpt>
      <trkpt lat="50.30859497375786304473876953125" lon="5.48139997757971286773681640625">
        <ele>218</ele>
        <time>2025-04-30T02:07:32.000Z</time>
        <extensions>
          <ns3:TrackPointExtension/>
        </extensions>
      </trkpt>
      <trkpt lat="50.30847796238958835601806640625" lon="5.4813249595463275909423828125">
        <ele>217.399993896484375</ele>
        <time>2025-04-30T02:07:41.000Z</time>
        <extensions>
          <ns3:TrackPointExtension/>
        </extensions>
      </trkpt>
      <trkpt lat="50.30836991965770721435546875" lon="5.4813239537179470062255859375">
        <ele>216.600006103515625</ele>
        <time>2025-04-30T02:07:50.000Z</time>
        <extensions>
          <ns3:TrackPointExtension/>
        </extensions>
      </trkpt>
      <trkpt lat="50.308265984058380126953125" lon="5.4813809506595134735107421875">
        <ele>216</ele>
        <time>2025-04-30T02:07:59.000Z</time>
        <extensions>
          <ns3:TrackPointExtension/>
        </extensions>
      </trkpt>
      <trkpt lat="50.30820898711681365966796875" lon="5.4814959503710269927978515625">
        <ele>216.1999969482421875</ele>
        <time>2025-04-30T02:08:08.000Z</time>
        <extensions>
          <ns3:TrackPointExtension/>
        </extensions>
      </trkpt>
      <trkpt lat="50.30797697603702545166015625" lon="5.48211495392024517059326171875">
        <ele>214.8000030517578125</ele>
        <time>2025-04-30T02:08:17.000Z</time>
        <extensions>
          <ns3:TrackPointExtension/>
        </extensions>
      </trkpt>
      <trkpt lat="50.30770297162234783172607421875" lon="5.482440926134586334228515625">
        <ele>211.8000030517578125</ele>
        <time>2025-04-30T02:08:25.000Z</time>
        <extensions>
          <ns3:TrackPointExtension/>
        </extensions>
      </trkpt>
      <trkpt lat="50.3074309788644313812255859375" lon="5.4828779585659503936767578125">
        <ele>210.1999969482421875</ele>
        <time>2025-04-30T02:08:34.000Z</time>
        <extensions>
          <ns3:TrackPointExtension/>
        </extensions>
      </trkpt>
      <trkpt lat="50.30697994865477085113525390625" lon="5.4828799702227115631103515625">
        <ele>206.600006103515625</ele>
        <time>2025-04-30T02:08:38.000Z</time>
        <extensions>
          <ns3:TrackPointExtension/>
        </extensions>
      </trkpt>
      <trkpt lat="50.30661097727715969085693359375" lon="5.482967980206012725830078125">
        <ele>205.8000030517578125</ele>
        <time>2025-04-30T02:08:42.000Z</time>
        <extensions>
          <ns3:TrackPointExtension/>
        </extensions>
      </trkpt>
      <trkpt lat="50.30580195598304271697998046875" lon="5.48335799016058444976806640625">
        <ele>207.1999969482421875</ele>
        <time>2025-04-30T02:08:46.000Z</time>
        <extensions>
          <ns3:TrackPointExtension/>
        </extensions>
      </trkpt>
      <trkpt lat="50.305616967380046844482421875" lon="5.48341498710215091705322265625">
        <ele>207.8000030517578125</ele>
        <time>2025-04-30T02:08:50.000Z</time>
        <extensions>
          <ns3:TrackPointExtension/>
        </extensions>
      </trkpt>
      <trkpt lat="50.3054179809987545013427734375" lon="5.48342294991016387939453125">
        <ele>209</ele>
        <time>2025-04-30T02:08:54.000Z</time>
        <extensions>
          <ns3:TrackPointExtension/>
        </extensions>
      </trkpt>
      <trkpt lat="50.3052069246768951416015625" lon="5.48338799737393856048583984375">
        <ele>211.1999969482421875</ele>
        <time>2025-04-30T02:08:58.000Z</time>
        <extensions>
          <ns3:TrackPointExtension/>
        </extensions>
      </trkpt>
      <trkpt lat="50.30504791997373104095458984375" lon="5.48329696990549564361572265625">
        <ele>212.1999969482421875</ele>
        <time>2025-04-30T02:09:02.000Z</time>
        <extensions>
          <ns3:TrackPointExtension/>
        </extensions>
      </trkpt>
      <trkpt lat="50.30482395552098751068115234375" lon="5.4832819662988185882568359375">
        <ele>213.1999969482421875</ele>
        <time>2025-04-30T02:09:20.000Z</time>
        <extensions>
          <ns3:TrackPointExtension/>
        </extensions>
      </trkpt>
      <trkpt lat="50.3020219691097736358642578125" lon="5.4824709333479404449462890625">
        <ele>218.399993896484375</ele>
        <time>2025-04-30T02:09:38.000Z</time>
        <extensions>
          <ns3:TrackPointExtension/>
        </extensions>
      </trkpt>
      <trkpt lat="50.2988609857857227325439453125" lon="5.48157499171793460845947265625">
        <ele>221.1999969482421875</ele>
        <time>2025-04-30T02:09:53.000Z</time>
        <extensions>
          <ns3:TrackPointExtension/>
        </extensions>
      </trkpt>
      <trkpt lat="50.29559799470007419586181640625" lon="5.48007999546825885772705078125">
        <ele>222</ele>
        <time>2025-04-30T02:10:08.000Z</time>
        <extensions>
          <ns3:TrackPointExtension/>
        </extensions>
      </trkpt>
      <trkpt lat="50.2940299920737743377685546875" lon="5.4799509979784488677978515625">
        <ele>219.8000030517578125</ele>
        <time>2025-04-30T02:10:23.000Z</time>
        <extensions>
          <ns3:TrackPointExtension/>
        </extensions>
      </trkpt>
      <trkpt lat="50.293182916939258575439453125" lon="5.48021192662417888641357421875">
        <ele>218.399993896484375</ele>
        <time>2025-04-30T02:10:38.000Z</time>
        <extensions>
          <ns3:TrackPointExtension/>
        </extensions>
      </trkpt>
      <trkpt lat="50.29240398667752742767333984375" lon="5.4803459532558917999267578125">
        <ele>211.8000030517578125</ele>
        <time>2025-04-30T02:10:53.000Z</time>
        <extensions>
          <ns3:TrackPointExtension/>
        </extensions>
      </trkpt>
      <trkpt lat="50.2918439917266368865966796875" lon="5.480310916900634765625">
        <ele>209.8000030517578125</ele>
        <time>2025-04-30T02:11:08.000Z</time>
        <extensions>
          <ns3:TrackPointExtension/>
        </extensions>
      </trkpt>
      <trkpt lat="50.29101192019879817962646484375" lon="5.48013498075306415557861328125">
        <ele>207.8000030517578125</ele>
        <time>2025-04-30T02:11:24.000Z</time>
        <extensions>
          <ns3:TrackPointExtension/>
        </extensions>
      </trkpt>
      <trkpt lat="50.290597938001155853271484375" lon="5.47998796217143535614013671875">
        <ele>206.399993896484375</ele>
        <time>2025-04-30T02:11:39.000Z</time>
        <extensions>
          <ns3:TrackPointExtension/>
        </extensions>
      </trkpt>
      <trkpt lat="50.28980593197047710418701171875" lon="5.47947498969733715057373046875">
        <ele>203.8000030517578125</ele>
        <time>2025-04-30T02:11:54.000Z</time>
        <extensions>
          <ns3:TrackPointExtension/>
        </extensions>
      </trkpt>
      <trkpt lat="50.28925691731274127960205078125" lon="5.479049943387508392333984375">
        <ele>202.600006103515625</ele>
        <time>2025-04-30T02:12:09.000Z</time>
        <extensions>
          <ns3:TrackPointExtension/>
        </extensions>
      </trkpt>
      <trkpt lat="50.28874796815216541290283203125" lon="5.480203963816165924072265625">
        <ele>201</ele>
        <time>2025-04-30T02:12:13.000Z</time>
        <extensions>
          <ns3:TrackPointExtension/>
        </extensions>
      </trkpt>
      <trkpt lat="50.28854898177087306976318359375" lon="5.4804679937660694122314453125">
        <ele>200</ele>
        <time>2025-04-30T02:12:17.000Z</time>
        <extensions>
          <ns3:TrackPointExtension/>
        </extensions>
      </trkpt>
      <trkpt lat="50.2881529368460178375244140625" lon="5.48085096292197704315185546875">
        <ele>197.1999969482421875</ele>
        <time>2025-04-30T02:12:21.000Z</time>
        <extensions>
          <ns3:TrackPointExtension/>
        </extensions>
      </trkpt>
      <trkpt lat="50.2878149785101413726806640625" lon="5.48095892183482646942138671875">
        <ele>195.399993896484375</ele>
        <time>2025-04-30T02:12:25.000Z</time>
        <extensions>
          <ns3:TrackPointExtension/>
        </extensions>
      </trkpt>
      <trkpt lat="50.2876169979572296142578125" lon="5.48104592598974704742431640625">
        <ele>195.399993896484375</ele>
        <time>2025-04-30T02:12:29.000Z</time>
        <extensions>
          <ns3:TrackPointExtension/>
        </extensions>
      </trkpt>
      <trkpt lat="50.2871279977262020111083984375" lon="5.4814039170742034912109375">
        <ele>197</ele>
        <time>2025-04-30T02:12:33.000Z</time>
        <extensions>
          <ns3:TrackPointExtension/>
        </extensions>
      </trkpt>
      <trkpt lat="50.28690294362604618072509765625" lon="5.4816119559109210968017578125">
        <ele>197.8000030517578125</ele>
        <time>2025-04-30T02:12:36.000Z</time>
        <extensions>
          <ns3:TrackPointExtension/>
        </extensions>
      </trkpt>
      <trkpt lat="50.2868329547345638275146484375" lon="5.48173894174396991729736328125">
        <ele>198</ele>
        <time>2025-04-30T02:12:40.000Z</time>
        <extensions>
          <ns3:TrackPointExtension/>
        </extensions>
      </trkpt>
      <trkpt lat="50.28673396445810794830322265625" lon="5.48173994757235050201416015625">
        <ele>197.8000030517578125</ele>
        <time>2025-04-30T02:12:45.000Z</time>
        <extensions>
          <ns3:TrackPointExtension/>
        </extensions>
      </trkpt>
      <trkpt lat="50.28629894368350505828857421875" lon="5.4814989678561687469482421875">
        <ele>197</ele>
        <time>2025-04-30T02:12:50.000Z</time>
        <extensions>
          <ns3:TrackPointExtension/>
        </extensions>
      </trkpt>
      <trkpt lat="50.285478942096233367919921875" lon="5.48089094460010528564453125">
        <ele>195.1999969482421875</ele>
        <time>2025-04-30T02:12:55.000Z</time>
        <extensions>
          <ns3:TrackPointExtension/>
        </extensions>
      </trkpt>
      <trkpt lat="50.28523796238005161285400390625" lon="5.4817239381372928619384765625">
        <ele>197</ele>
        <time>2025-04-30T02:12:57.000Z</time>
        <extensions>
          <ns3:TrackPointExtension/>
        </extensions>
      </trkpt>
      <trkpt lat="50.28523796238005161285400390625" lon="5.48189199529588222503662109375">
        <ele>197</ele>
        <time>2025-04-30T02:12:59.000Z</time>
        <extensions>
          <ns3:TrackPointExtension/>
        </extensions>
      </trkpt>
      <trkpt lat="50.28526294045150279998779296875" lon="5.48214093782007694244384765625">
        <ele>197.8000030517578125</ele>
        <time>2025-04-30T02:13:00.000Z</time>
        <extensions>
          <ns3:TrackPointExtension/>
        </extensions>
      </trkpt>
      <trkpt lat="50.285257995128631591796875" lon="5.48228795640170574188232421875">
        <ele>198.399993896484375</ele>
        <time>2025-04-30T02:13:02.000Z</time>
        <extensions>
          <ns3:TrackPointExtension/>
        </extensions>
      </trkpt>
      <trkpt lat="50.285139977931976318359375" lon="5.48284099437296390533447265625">
        <ele>201.399993896484375</ele>
        <time>2025-04-30T02:13:03.000Z</time>
        <extensions>
          <ns3:TrackPointExtension/>
        </extensions>
      </trkpt>
      <trkpt lat="50.28509597294032573699951171875" lon="5.48314995132386684417724609375">
        <ele>203.8000030517578125</ele>
        <time>2025-04-30T02:13:05.000Z</time>
        <extensions>
          <ns3:TrackPointExtension/>
        </extensions>
      </trkpt>
      <trkpt lat="50.28509597294032573699951171875" lon="5.48332597129046916961669921875">
        <ele>204.600006103515625</ele>
        <time>2025-04-30T02:13:07.000Z</time>
        <extensions>
          <ns3:TrackPointExtension/>
        </extensions>
      </trkpt>
      <trkpt lat="50.28511893935501575469970703125" lon="5.4835119657218456268310546875">
        <ele>205.399993896484375</ele>
        <time>2025-04-30T02:13:08.000Z</time>
        <extensions>
          <ns3:TrackPointExtension/>
        </extensions>
      </trkpt>
      <trkpt lat="50.285303927958011627197265625" lon="5.4836799390614032745361328125">
        <ele>207.1999969482421875</ele>
        <time>2025-04-30T02:13:14.000Z</time>
        <extensions>
          <ns3:TrackPointExtension/>
        </extensions>
      </trkpt>
      <trkpt lat="50.2860329858958721160888671875" lon="5.4841459728777408599853515625">
        <ele>211.8000030517578125</ele>
        <time>2025-04-30T02:13:19.000Z</time>
        <extensions>
          <ns3:TrackPointExtension/>
        </extensions>
      </trkpt>
      <trkpt lat="50.2862069942057132720947265625" lon="5.48429592512547969818115234375">
        <ele>214.399993896484375</ele>
        <time>2025-04-30T02:13:24.000Z</time>
        <extensions>
          <ns3:TrackPointExtension/>
        </extensions>
      </trkpt>
      <trkpt lat="50.28651796281337738037109375" lon="5.48461896367371082305908203125">
        <ele>219.600006103515625</ele>
        <time>2025-04-30T02:13:30.000Z</time>
        <extensions>
          <ns3:TrackPointExtension/>
        </extensions>
      </trkpt>
      <trkpt lat="50.2875239588320255279541015625" lon="5.4857539571821689605712890625">
        <ele>234.8000030517578125</ele>
        <time>2025-04-30T02:13:35.000Z</time>
        <extensions>
          <ns3:TrackPointExtension/>
        </extensions>
      </trkpt>
      <trkpt lat="50.287663936614990234375" lon="5.4859799332916736602783203125">
        <ele>234.8000030517578125</ele>
        <time>2025-04-30T02:13:41.000Z</time>
        <extensions>
          <ns3:TrackPointExtension/>
        </extensions>
      </trkpt>
      <trkpt lat="50.28774197213351726531982421875" lon="5.48620699904859066009521484375">
        <ele>235</ele>
        <time>2025-04-30T02:13:46.000Z</time>
        <extensions>
          <ns3:TrackPointExtension/>
        </extensions>
      </trkpt>
      <trkpt lat="50.287729986011981964111328125" lon="5.48642492853105068206787109375">
        <ele>236.1999969482421875</ele>
        <time>2025-04-30T02:13:51.000Z</time>
        <extensions>
          <ns3:TrackPointExtension/>
        </extensions>
      </trkpt>
      <trkpt lat="50.28750493191182613372802734375" lon="5.487278960645198822021484375">
        <ele>246.399993896484375</ele>
        <time>2025-04-30T02:13:57.000Z</time>
        <extensions>
          <ns3:TrackPointExtension/>
        </extensions>
      </trkpt>
      <trkpt lat="50.28742396272718906402587890625" lon="5.4877659492194652557373046875">
        <ele>251.1999969482421875</ele>
        <time>2025-04-30T02:14:02.000Z</time>
        <extensions>
          <ns3:TrackPointExtension/>
        </extensions>
      </trkpt>
      <trkpt lat="50.2874099649488925933837890625" lon="5.4881389439105987548828125">
        <ele>252.600006103515625</ele>
        <time>2025-04-30T02:14:08.000Z</time>
        <extensions>
          <ns3:TrackPointExtension/>
        </extensions>
      </trkpt>
      <trkpt lat="50.28748498298227787017822265625" lon="5.48885299824178218841552734375">
        <ele>253.8000030517578125</ele>
        <time>2025-04-30T02:14:13.000Z</time>
        <extensions>
          <ns3:TrackPointExtension/>
        </extensions>
      </trkpt>
      <trkpt lat="50.287440977990627288818359375" lon="5.48922699876129627227783203125">
        <ele>254.1999969482421875</ele>
        <time>2025-04-30T02:14:19.000Z</time>
        <extensions>
          <ns3:TrackPointExtension/>
        </extensions>
      </trkpt>
      <trkpt lat="50.28731399215757846832275390625" lon="5.48999595455825328826904296875">
        <ele>258</ele>
        <time>2025-04-30T02:14:24.000Z</time>
        <extensions>
          <ns3:TrackPointExtension/>
        </extensions>
      </trkpt>
      <trkpt lat="50.287212990224361419677734375" lon="5.49077798612415790557861328125">
        <ele>259.600006103515625</ele>
        <time>2025-04-30T02:14:29.000Z</time>
        <extensions>
          <ns3:TrackPointExtension/>
        </extensions>
      </trkpt>
      <trkpt lat="50.28720997273921966552734375" lon="5.49108794890344142913818359375">
        <ele>260.399993896484375</ele>
        <time>2025-04-30T02:14:35.000Z</time>
        <extensions>
          <ns3:TrackPointExtension/>
        </extensions>
      </trkpt>
      <trkpt lat="50.2872319333255290985107421875" lon="5.49134795553982257843017578125">
        <ele>260.399993896484375</ele>
        <time>2025-04-30T02:14:40.000Z</time>
        <extensions>
          <ns3:TrackPointExtension/>
        </extensions>
      </trkpt>
      <trkpt lat="50.28785898350179195404052734375" lon="5.49523497931659221649169921875">
        <ele>268.79998779296875</ele>
        <time>2025-04-30T02:14:46.000Z</time>
        <extensions>
          <ns3:TrackPointExtension/>
        </extensions>
      </trkpt>
      <trkpt lat="50.2880479954183101654052734375" lon="5.496431998908519744873046875">
        <ele>271.600006103515625</ele>
        <time>2025-04-30T02:14:51.000Z</time>
        <extensions>
          <ns3:TrackPointExtension/>
        </extensions>
      </trkpt>
      <trkpt lat="50.28807993046939373016357421875" lon="5.4970349930226802825927734375">
        <ele>273.399993896484375</ele>
        <time>2025-04-30T02:14:56.000Z</time>
        <extensions>
          <ns3:TrackPointExtension/>
        </extensions>
      </trkpt>
      <trkpt lat="50.288063921034336090087890625" lon="5.49733598716557025909423828125">
        <ele>275</ele>
        <time>2025-04-30T02:15:02.000Z</time>
        <extensions>
          <ns3:TrackPointExtension/>
        </extensions>
      </trkpt>
      <trkpt lat="50.28767491690814495086669921875" lon="5.50152794457972049713134765625">
        <ele>288.600006103515625</ele>
        <time>2025-04-30T02:15:07.000Z</time>
        <extensions>
          <ns3:TrackPointExtension/>
        </extensions>
      </trkpt>
      <trkpt lat="50.28762697242200374603271484375" lon="5.50178392790257930755615234375">
        <ele>289</ele>
        <time>2025-04-30T02:15:13.000Z</time>
        <extensions>
          <ns3:TrackPointExtension/>
        </extensions>
      </trkpt>
      <trkpt lat="50.28753896243870258331298828125" lon="5.502067990601062774658203125">
        <ele>290.600006103515625</ele>
        <time>2025-04-30T02:15:18.000Z</time>
        <extensions>
          <ns3:TrackPointExtension/>
        </extensions>
      </trkpt>
      <trkpt lat="50.287316925823688507080078125" lon="5.50245498307049274444580078125">
        <ele>292.79998779296875</ele>
        <time>2025-04-30T02:15:23.000Z</time>
        <extensions>
          <ns3:TrackPointExtension/>
        </extensions>
      </trkpt>
      <trkpt lat="50.28469095937907695770263671875" lon="5.506602935492992401123046875">
        <ele>307</ele>
        <time>2025-04-30T02:15:29.000Z</time>
        <extensions>
          <ns3:TrackPointExtension/>
        </extensions>
      </trkpt>
      <trkpt lat="50.28479397296905517578125" lon="5.507237948477268218994140625">
        <ele>308.600006103515625</ele>
        <time>2025-04-30T02:15:33.000Z</time>
        <extensions>
          <ns3:TrackPointExtension/>
        </extensions>
      </trkpt>
      <trkpt lat="50.2847639657557010650634765625" lon="5.5072389543056488037109375">
        <ele>308.600006103515625</ele>
        <time>2025-04-30T02:15:36.000Z</time>
        <extensions>
          <ns3:TrackPointExtension/>
        </extensions>
      </trkpt>
      <trkpt lat="50.28462993912398815155029296875" lon="5.50711096264421939849853515625">
        <ele>308.399993896484375</ele>
        <time>2025-04-30T02:15:38.000Z</time>
        <extensions>
          <ns3:TrackPointExtension/>
        </extensions>
      </trkpt>
      <trkpt lat="50.28454695828258991241455078125" lon="5.5069289915263652801513671875">
        <ele>307.600006103515625</ele>
        <time>2025-04-30T02:15:41.000Z</time>
        <extensions>
          <ns3:TrackPointExtension/>
        </extensions>
      </trkpt>
      <trkpt lat="50.28411193750798702239990234375" lon="5.50549292005598545074462890625">
        <ele>297.399993896484375</ele>
        <time>2025-04-30T02:15:43.000Z</time>
        <extensions>
          <ns3:TrackPointExtension/>
        </extensions>
      </trkpt>
      <trkpt lat="50.28371195308864116668701171875" lon="5.504021979868412017822265625">
        <ele>291.20001220703125</ele>
        <time>2025-04-30T02:15:46.000Z</time>
        <extensions>
          <ns3:TrackPointExtension/>
        </extensions>
      </trkpt>
      <trkpt lat="50.28364598751068115234375" lon="5.50371997989714145660400390625">
        <ele>291.600006103515625</ele>
        <time>2025-04-30T02:15:48.000Z</time>
        <extensions>
          <ns3:TrackPointExtension/>
        </extensions>
      </trkpt>
      <trkpt lat="50.2834929339587688446044921875" lon="5.50279998220503330230712890625">
        <ele>293.20001220703125</ele>
        <time>2025-04-30T02:15:51.000Z</time>
        <extensions>
          <ns3:TrackPointExtension/>
        </extensions>
      </trkpt>
      <trkpt lat="50.283404923975467681884765625" lon="5.50244593061506748199462890625">
        <ele>290.79998779296875</ele>
        <time>2025-04-30T02:15:53.000Z</time>
        <extensions>
          <ns3:TrackPointExtension/>
        </extensions>
      </trkpt>
      <trkpt lat="50.2832719869911670684814453125" lon="5.5020869337022304534912109375">
        <ele>288</ele>
        <time>2025-04-30T02:15:56.000Z</time>
        <extensions>
          <ns3:TrackPointExtension/>
        </extensions>
      </trkpt>
      <trkpt lat="50.28318397700786590576171875" lon="5.50193798728287220001220703125">
        <ele>284.399993896484375</ele>
        <time>2025-04-30T02:15:58.000Z</time>
        <extensions>
          <ns3:TrackPointExtension/>
        </extensions>
      </trkpt>
      <trkpt lat="50.28284593485295772552490234375" lon="5.5015149526298046112060546875">
        <ele>272.79998779296875</ele>
        <time>2025-04-30T02:16:01.000Z</time>
        <extensions>
          <ns3:TrackPointExtension/>
        </extensions>
      </trkpt>
      <trkpt lat="50.2826339565217494964599609375" lon="5.5011129565536975860595703125">
        <ele>271.399993896484375</ele>
        <time>2025-04-30T02:16:03.000Z</time>
        <extensions>
          <ns3:TrackPointExtension/>
        </extensions>
      </trkpt>
      <trkpt lat="50.282543934881687164306640625" lon="5.5009949393570423126220703125">
        <ele>272</ele>
        <time>2025-04-30T02:16:06.000Z</time>
        <extensions>
          <ns3:TrackPointExtension/>
        </extensions>
      </trkpt>
      <trkpt lat="50.28246992267668247222900390625" lon="5.5009379424154758453369140625">
        <ele>271.600006103515625</ele>
        <time>2025-04-30T02:16:08.000Z</time>
        <extensions>
          <ns3:TrackPointExtension/>
        </extensions>
      </trkpt>
      <trkpt lat="50.2822879515588283538818359375" lon="5.50084792077541351318359375">
        <ele>270.600006103515625</ele>
        <time>2025-04-30T02:16:11.000Z</time>
        <extensions>
          <ns3:TrackPointExtension/>
        </extensions>
      </trkpt>
      <trkpt lat="50.28219298459589481353759765625" lon="5.50077692605555057525634765625">
        <ele>269.79998779296875</ele>
        <time>2025-04-30T02:16:13.000Z</time>
        <extensions>
          <ns3:TrackPointExtension/>
        </extensions>
      </trkpt>
      <trkpt lat="50.281914956867694854736328125" lon="5.500508956611156463623046875">
        <ele>266.79998779296875</ele>
        <time>2025-04-30T02:16:16.000Z</time>
        <extensions>
          <ns3:TrackPointExtension/>
        </extensions>
      </trkpt>
      <trkpt lat="50.2816919982433319091796875" lon="5.50033293664455413818359375">
        <ele>262</ele>
        <time>2025-04-30T02:16:18.000Z</time>
        <extensions>
          <ns3:TrackPointExtension/>
        </extensions>
      </trkpt>
      <trkpt lat="50.2814229391515254974365234375" lon="5.500051975250244140625">
        <ele>257.79998779296875</ele>
        <time>2025-04-30T02:16:21.000Z</time>
        <extensions>
          <ns3:TrackPointExtension/>
        </extensions>
      </trkpt>
      <trkpt lat="50.281054973602294921875" lon="5.49942794255912303924560546875">
        <ele>256.20001220703125</ele>
        <time>2025-04-30T02:16:23.000Z</time>
        <extensions>
          <ns3:TrackPointExtension/>
        </extensions>
      </trkpt>
      <trkpt lat="50.28089898638427257537841796875" lon="5.49902695231139659881591796875">
        <ele>253.1999969482421875</ele>
        <time>2025-04-30T02:16:26.000Z</time>
        <extensions>
          <ns3:TrackPointExtension/>
        </extensions>
      </trkpt>
      <trkpt lat="50.28075196780264377593994140625" lon="5.49853191711008548736572265625">
        <ele>247.1999969482421875</ele>
        <time>2025-04-30T02:16:28.000Z</time>
        <extensions>
          <ns3:TrackPointExtension/>
        </extensions>
      </trkpt>
      <trkpt lat="50.28066596947610378265380859375" lon="5.49815791659057140350341796875">
        <ele>244.399993896484375</ele>
        <time>2025-04-30T02:16:31.000Z</time>
        <extensions>
          <ns3:TrackPointExtension/>
        </extensions>
      </trkpt>
      <trkpt lat="50.28054996393620967864990234375" lon="5.4977719299495220184326171875">
        <ele>241.399993896484375</ele>
        <time>2025-04-30T02:16:33.000Z</time>
        <extensions>
          <ns3:TrackPointExtension/>
        </extensions>
      </trkpt>
      <trkpt lat="50.28002492152154445648193359375" lon="5.49701697193086147308349609375">
        <ele>235</ele>
        <time>2025-04-30T02:16:36.000Z</time>
        <extensions>
          <ns3:TrackPointExtension/>
        </extensions>
      </trkpt>
      <trkpt lat="50.2795829437673091888427734375" lon="5.496427975594997406005859375">
        <ele>231.1999969482421875</ele>
        <time>2025-04-30T02:16:38.000Z</time>
        <extensions>
          <ns3:TrackPointExtension/>
        </extensions>
      </trkpt>
      <trkpt lat="50.27945595793426036834716796875" lon="5.49635396338999271392822265625">
        <ele>230</ele>
        <time>2025-04-30T02:16:41.000Z</time>
        <extensions>
          <ns3:TrackPointExtension/>
        </extensions>
      </trkpt>
      <trkpt lat="50.27936392463743686676025390625" lon="5.49632999114692211151123046875">
        <ele>229.600006103515625</ele>
        <time>2025-04-30T02:16:43.000Z</time>
        <extensions>
          <ns3:TrackPointExtension/>
        </extensions>
      </trkpt>
      <trkpt lat="50.27930994518101215362548828125" lon="5.49635798670351505279541015625">
        <ele>229.8000030517578125</ele>
        <time>2025-04-30T02:16:46.000Z</time>
        <extensions>
          <ns3:TrackPointExtension/>
        </extensions>
      </trkpt>
      <trkpt lat="50.2790139801800251007080078125" lon="5.4966859705746173858642578125">
        <ele>231.399993896484375</ele>
        <time>2025-04-30T02:16:48.000Z</time>
        <extensions>
          <ns3:TrackPointExtension/>
        </extensions>
      </trkpt>
      <trkpt lat="50.27798795141279697418212890625" lon="5.49747998826205730438232421875">
        <ele>239.1999969482421875</ele>
        <time>2025-04-30T02:16:51.000Z</time>
        <extensions>
          <ns3:TrackPointExtension/>
        </extensions>
      </trkpt>
      <trkpt lat="50.2777089178562164306640625" lon="5.49773094244301319122314453125">
        <ele>239.399993896484375</ele>
        <time>2025-04-30T02:16:53.000Z</time>
        <extensions>
          <ns3:TrackPointExtension/>
        </extensions>
      </trkpt>
      <trkpt lat="50.277422927320003509521484375" lon="5.497864969074726104736328125">
        <ele>239.8000030517578125</ele>
        <time>2025-04-30T02:16:56.000Z</time>
        <extensions>
          <ns3:TrackPointExtension/>
        </extensions>
      </trkpt>
      <trkpt lat="50.27701799757778644561767578125" lon="5.49793998710811138153076171875">
        <ele>242</ele>
        <time>2025-04-30T02:16:58.000Z</time>
        <extensions>
          <ns3:TrackPointExtension/>
        </extensions>
      </trkpt>
      <trkpt lat="50.2768289856612682342529296875" lon="5.4979509674012660980224609375">
        <ele>242.600006103515625</ele>
        <time>2025-04-30T02:17:01.000Z</time>
        <extensions>
          <ns3:TrackPointExtension/>
        </extensions>
      </trkpt>
      <trkpt lat="50.276561938226222991943359375" lon="5.49788399599492549896240234375">
        <ele>244.1999969482421875</ele>
        <time>2025-04-30T02:17:03.000Z</time>
        <extensions>
          <ns3:TrackPointExtension/>
        </extensions>
      </trkpt>
      <trkpt lat="50.27635398320853710174560546875" lon="5.49773496575653553009033203125">
        <ele>245</ele>
        <time>2025-04-30T02:17:06.000Z</time>
        <extensions>
          <ns3:TrackPointExtension/>
        </extensions>
      </trkpt>
      <trkpt lat="50.27605491690337657928466796875" lon="5.49738191999495029449462890625">
        <ele>245</ele>
        <time>2025-04-30T02:17:08.000Z</time>
        <extensions>
          <ns3:TrackPointExtension/>
        </extensions>
      </trkpt>
      <trkpt lat="50.2758459560573101043701171875" lon="5.49706399440765380859375">
        <ele>246.1999969482421875</ele>
        <time>2025-04-30T02:17:11.000Z</time>
        <extensions>
          <ns3:TrackPointExtension/>
        </extensions>
      </trkpt>
      <trkpt lat="50.27565996162593364715576171875" lon="5.496712960302829742431640625">
        <ele>248.1999969482421875</ele>
        <time>2025-04-30T02:17:13.000Z</time>
        <extensions>
          <ns3:TrackPointExtension/>
        </extensions>
      </trkpt>
      <trkpt lat="50.27551495470106601715087890625" lon="5.49649394117295742034912109375">
        <ele>249</ele>
        <time>2025-04-30T02:17:16.000Z</time>
        <extensions>
          <ns3:TrackPointExtension/>
        </extensions>
      </trkpt>
      <trkpt lat="50.27533893473446369171142578125" lon="5.4965709708631038665771484375">
        <ele>249</ele>
        <time>2025-04-30T02:17:22.000Z</time>
        <extensions>
          <ns3:TrackPointExtension/>
        </extensions>
      </trkpt>
      <trkpt lat="50.2750969491899013519287109375" lon="5.4966269619762897491455078125">
        <ele>249.399993896484375</ele>
        <time>2025-04-30T02:17:28.000Z</time>
        <extensions>
          <ns3:TrackPointExtension/>
        </extensions>
      </trkpt>
      <trkpt lat="50.27491296641528606414794921875" lon="5.496706925332546234130859375">
        <ele>250.1999969482421875</ele>
        <time>2025-04-30T02:17:34.000Z</time>
        <extensions>
          <ns3:TrackPointExtension/>
        </extensions>
      </trkpt>
      <trkpt lat="50.27473191730678081512451171875" lon="5.49681496806442737579345703125">
        <ele>251.399993896484375</ele>
        <time>2025-04-30T02:17:40.000Z</time>
        <extensions>
          <ns3:TrackPointExtension/>
        </extensions>
      </trkpt>
      <trkpt lat="50.27393798343837261199951171875" lon="5.497524999082088470458984375">
        <ele>254.1999969482421875</ele>
        <time>2025-04-30T02:17:46.000Z</time>
        <extensions>
          <ns3:TrackPointExtension/>
        </extensions>
      </trkpt>
      <trkpt lat="50.273695997893810272216796875" lon="5.49767595715820789337158203125">
        <ele>256</ele>
        <time>2025-04-30T02:17:52.000Z</time>
        <extensions>
          <ns3:TrackPointExtension/>
        </extensions>
      </trkpt>
      <trkpt lat="50.27351595461368560791015625" lon="5.49774996936321258544921875">
        <ele>257.20001220703125</ele>
        <time>2025-04-30T02:17:59.000Z</time>
        <extensions>
          <ns3:TrackPointExtension/>
        </extensions>
      </trkpt>
      <trkpt lat="50.27277993969619274139404296875" lon="5.49796597100794315338134765625">
        <ele>264.79998779296875</ele>
        <time>2025-04-30T02:18:05.000Z</time>
        <extensions>
          <ns3:TrackPointExtension/>
        </extensions>
      </trkpt>
      <trkpt lat="50.27224299497902393341064453125" lon="5.49816898070275783538818359375">
        <ele>270.399993896484375</ele>
        <time>2025-04-30T02:18:11.000Z</time>
        <extensions>
          <ns3:TrackPointExtension/>
        </extensions>
      </trkpt>
      <trkpt lat="50.2708959393203258514404296875" lon="5.49865697510540485382080078125">
        <ele>284</ele>
        <time>2025-04-30T02:18:16.000Z</time>
        <extensions>
          <ns3:TrackPointExtension/>
        </extensions>
      </trkpt>
      <trkpt lat="50.270125977694988250732421875" lon="5.4989889822900295257568359375">
        <ele>297.20001220703125</ele>
        <time>2025-04-30T02:18:21.000Z</time>
        <extensions>
          <ns3:TrackPointExtension/>
        </extensions>
      </trkpt>
      <trkpt lat="50.26953798718750476837158203125" lon="5.49934395588934421539306640625">
        <ele>300</ele>
        <time>2025-04-30T02:18:26.000Z</time>
        <extensions>
          <ns3:TrackPointExtension/>
        </extensions>
      </trkpt>
      <trkpt lat="50.26910598389804363250732421875" lon="5.49974595196545124053955078125">
        <ele>298.399993896484375</ele>
        <time>2025-04-30T02:18:31.000Z</time>
        <extensions>
          <ns3:TrackPointExtension/>
        </extensions>
      </trkpt>
      <trkpt lat="50.26878898032009601593017578125" lon="5.50009095109999179840087890625">
        <ele>302.399993896484375</ele>
        <time>2025-04-30T02:18:37.000Z</time>
        <extensions>
          <ns3:TrackPointExtension/>
        </extensions>
      </trkpt>
      <trkpt lat="50.26866291649639606475830078125" lon="5.5003709904849529266357421875">
        <ele>303</ele>
        <time>2025-04-30T02:18:42.000Z</time>
        <extensions>
          <ns3:TrackPointExtension/>
        </extensions>
      </trkpt>
      <trkpt lat="50.2685679495334625244140625" lon="5.50068698823451995849609375">
        <ele>303</ele>
        <time>2025-04-30T02:18:47.000Z</time>
        <extensions>
          <ns3:TrackPointExtension/>
        </extensions>
      </trkpt>
      <trkpt lat="50.2685429714620113372802734375" lon="5.501309931278228759765625">
        <ele>300.79998779296875</ele>
        <time>2025-04-30T02:18:52.000Z</time>
        <extensions>
          <ns3:TrackPointExtension/>
        </extensions>
      </trkpt>
      <trkpt lat="50.26849695481359958648681640625" lon="5.50153699703514575958251953125">
        <ele>300.79998779296875</ele>
        <time>2025-04-30T02:18:57.000Z</time>
        <extensions>
          <ns3:TrackPointExtension/>
        </extensions>
      </trkpt>
      <trkpt lat="50.26835194788873195648193359375" lon="5.50190999172627925872802734375">
        <ele>303.399993896484375</ele>
        <time>2025-04-30T02:19:02.000Z</time>
        <extensions>
          <ns3:TrackPointExtension/>
        </extensions>
      </trkpt>
      <trkpt lat="50.268048942089080810546875" lon="5.5025569908320903778076171875">
        <ele>301.79998779296875</ele>
        <time>2025-04-30T02:19:08.000Z</time>
        <extensions>
          <ns3:TrackPointExtension/>
        </extensions>
      </trkpt>
      <trkpt lat="50.26785993017256259918212890625" lon="5.50292193889617919921875">
        <ele>301.600006103515625</ele>
        <time>2025-04-30T02:19:13.000Z</time>
        <extensions>
          <ns3:TrackPointExtension/>
        </extensions>
      </trkpt>
      <trkpt lat="50.26771592907607555389404296875" lon="5.50331597216427326202392578125">
        <ele>304</ele>
        <time>2025-04-30T02:19:18.000Z</time>
        <extensions>
          <ns3:TrackPointExtension/>
        </extensions>
      </trkpt>
      <trkpt lat="50.2671599574387073516845703125" lon="5.50447292625904083251953125">
        <ele>302.399993896484375</ele>
        <time>2025-04-30T02:19:23.000Z</time>
        <extensions>
          <ns3:TrackPointExtension/>
        </extensions>
      </trkpt>
      <trkpt lat="50.2670959196984767913818359375" lon="5.50458096899092197418212890625">
        <ele>300.79998779296875</ele>
        <time>2025-04-30T02:19:28.000Z</time>
        <extensions>
          <ns3:TrackPointExtension/>
        </extensions>
      </trkpt>
      <trkpt lat="50.26697698049247264862060546875" lon="5.50463494844734668731689453125">
        <ele>300</ele>
        <time>2025-04-30T02:19:33.000Z</time>
        <extensions>
          <ns3:TrackPointExtension/>
        </extensions>
      </trkpt>
      <trkpt lat="50.26679593138396739959716796875" lon="5.504593960940837860107421875">
        <ele>300.399993896484375</ele>
        <time>2025-04-30T02:19:39.000Z</time>
        <extensions>
          <ns3:TrackPointExtension/>
        </extensions>
      </trkpt>
      <trkpt lat="50.26651195250451564788818359375" lon="5.50443797372281551361083984375">
        <ele>302.600006103515625</ele>
        <time>2025-04-30T02:19:44.000Z</time>
        <extensions>
          <ns3:TrackPointExtension/>
        </extensions>
      </trkpt>
      <trkpt lat="50.266264937818050384521484375" lon="5.5042429268360137939453125">
        <ele>305.600006103515625</ele>
        <time>2025-04-30T02:19:49.000Z</time>
        <extensions>
          <ns3:TrackPointExtension/>
        </extensions>
      </trkpt>
      <trkpt lat="50.2660659514367580413818359375" lon="5.50394595600664615631103515625">
        <ele>311</ele>
        <time>2025-04-30T02:19:54.000Z</time>
        <extensions>
          <ns3:TrackPointExtension/>
        </extensions>
      </trkpt>
      <trkpt lat="50.2659549750387668609619140625" lon="5.5038459599018096923828125">
        <ele>313.20001220703125</ele>
        <time>2025-04-30T02:19:59.000Z</time>
        <extensions>
          <ns3:TrackPointExtension/>
        </extensions>
      </trkpt>
      <trkpt lat="50.2658969722688198089599609375" lon="5.503840930759906768798828125">
        <ele>313.399993896484375</ele>
        <time>2025-04-30T02:20:04.000Z</time>
        <extensions>
          <ns3:TrackPointExtension/>
        </extensions>
      </trkpt>
      <trkpt lat="50.2658369578421115875244140625" lon="5.5038709379732608795166015625">
        <ele>312.600006103515625</ele>
        <time>2025-04-30T02:20:10.000Z</time>
        <extensions>
          <ns3:TrackPointExtension/>
        </extensions>
      </trkpt>
      <trkpt lat="50.26571097783744335174560546875" lon="5.5040819942951202392578125">
        <ele>306.79998779296875</ele>
        <time>2025-04-30T02:20:15.000Z</time>
        <extensions>
          <ns3:TrackPointExtension/>
        </extensions>
      </trkpt>
      <trkpt lat="50.26561793871223926544189453125" lon="5.504186935722827911376953125">
        <ele>304</ele>
        <time>2025-04-30T02:20:20.000Z</time>
        <extensions>
          <ns3:TrackPointExtension/>
        </extensions>
      </trkpt>
      <trkpt lat="50.265234969556331634521484375" lon="5.5042729340493679046630859375">
        <ele>303.600006103515625</ele>
        <time>2025-04-30T02:20:25.000Z</time>
        <extensions>
          <ns3:TrackPointExtension/>
        </extensions>
      </trkpt>
      <trkpt lat="50.26502198539674282073974609375" lon="5.5043969862163066864013671875">
        <ele>302.399993896484375</ele>
        <time>2025-04-30T02:20:30.000Z</time>
        <extensions>
          <ns3:TrackPointExtension/>
        </extensions>
      </trkpt>
      <trkpt lat="50.2646809257566928863525390625" lon="5.50463595427572727203369140625">
        <ele>300.79998779296875</ele>
        <time>2025-04-30T02:20:35.000Z</time>
        <extensions>
          <ns3:TrackPointExtension/>
        </extensions>
      </trkpt>
      <trkpt lat="50.2643949352204799652099609375" lon="5.50494499504566192626953125">
        <ele>300</ele>
        <time>2025-04-30T02:20:41.000Z</time>
        <extensions>
          <ns3:TrackPointExtension/>
        </extensions>
      </trkpt>
      <trkpt lat="50.26421296410262584686279296875" lon="5.50520994700491428375244140625">
        <ele>300.20001220703125</ele>
        <time>2025-04-30T02:20:46.000Z</time>
        <extensions>
          <ns3:TrackPointExtension/>
        </extensions>
      </trkpt>
      <trkpt lat="50.264082960784435272216796875" lon="5.5054779164493083953857421875">
        <ele>297.399993896484375</ele>
        <time>2025-04-30T02:20:51.000Z</time>
        <extensions>
          <ns3:TrackPointExtension/>
        </extensions>
      </trkpt>
      <trkpt lat="50.2639449946582317352294921875" lon="5.50585694611072540283203125">
        <ele>291.399993896484375</ele>
        <time>2025-04-30T02:20:56.000Z</time>
        <extensions>
          <ns3:TrackPointExtension/>
        </extensions>
      </trkpt>
      <trkpt lat="50.26384793221950531005859375" lon="5.50606791861355304718017578125">
        <ele>289.399993896484375</ele>
        <time>2025-04-30T02:21:01.000Z</time>
        <extensions>
          <ns3:TrackPointExtension/>
        </extensions>
      </trkpt>
      <trkpt lat="50.26331895031034946441650390625" lon="5.506722964346408843994140625">
        <ele>287</ele>
        <time>2025-04-30T02:21:06.000Z</time>
        <extensions>
          <ns3:TrackPointExtension/>
        </extensions>
      </trkpt>
      <trkpt lat="50.26323697529733180999755859375" lon="5.50690191797912120819091796875">
        <ele>286.20001220703125</ele>
        <time>2025-04-30T02:21:12.000Z</time>
        <extensions>
          <ns3:TrackPointExtension/>
        </extensions>
      </trkpt>
      <trkpt lat="50.26320395059883594512939453125" lon="5.50710995681583881378173828125">
        <ele>284.399993896484375</ele>
        <time>2025-04-30T02:21:17.000Z</time>
        <extensions>
          <ns3:TrackPointExtension/>
        </extensions>
      </trkpt>
      <trkpt lat="50.2631869353353977203369140625" lon="5.5079059861600399017333984375">
        <ele>279.600006103515625</ele>
        <time>2025-04-30T02:21:22.000Z</time>
        <extensions>
          <ns3:TrackPointExtension/>
        </extensions>
      </trkpt>
      <trkpt lat="50.26315399445593357086181640625" lon="5.50819591619074344635009765625">
        <ele>279</ele>
        <time>2025-04-30T02:21:27.000Z</time>
        <extensions>
          <ns3:TrackPointExtension/>
        </extensions>
      </trkpt>
      <trkpt lat="50.26277194730937480926513671875" lon="5.50996298901736736297607421875">
        <ele>279.600006103515625</ele>
        <time>2025-04-30T02:21:32.000Z</time>
        <extensions>
          <ns3:TrackPointExtension/>
        </extensions>
      </trkpt>
      <trkpt lat="50.26237196289002895355224609375" lon="5.51099195145070552825927734375">
        <ele>282.20001220703125</ele>
        <time>2025-04-30T02:21:37.000Z</time>
        <extensions>
          <ns3:TrackPointExtension/>
        </extensions>
      </trkpt>
      <trkpt lat="50.26190592907369136810302734375" lon="5.51176995970308780670166015625">
        <ele>281</ele>
        <time>2025-04-30T02:21:43.000Z</time>
        <extensions>
          <ns3:TrackPointExtension/>
        </extensions>
      </trkpt>
      <trkpt lat="50.26139396242797374725341796875" lon="5.5125669948756694793701171875">
        <ele>282.79998779296875</ele>
        <time>2025-04-30T02:21:48.000Z</time>
        <extensions>
          <ns3:TrackPointExtension/>
        </extensions>
      </trkpt>
      <trkpt lat="50.26122397743165493011474609375" lon="5.51272398792207241058349609375">
        <ele>283.79998779296875</ele>
        <time>2025-04-30T02:21:53.000Z</time>
        <extensions>
          <ns3:TrackPointExtension/>
        </extensions>
      </trkpt>
      <trkpt lat="50.26102197356522083282470703125" lon="5.512645952403545379638671875">
        <ele>285.20001220703125</ele>
        <time>2025-04-30T02:21:58.000Z</time>
        <extensions>
          <ns3:TrackPointExtension/>
        </extensions>
      </trkpt>
      <trkpt lat="50.26067194528877735137939453125" lon="5.51218695938587188720703125">
        <ele>287.79998779296875</ele>
        <time>2025-04-30T02:22:03.000Z</time>
        <extensions>
          <ns3:TrackPointExtension/>
        </extensions>
      </trkpt>
      <trkpt lat="50.26033197529613971710205078125" lon="5.511837936937808990478515625">
        <ele>290.399993896484375</ele>
        <time>2025-04-30T02:22:08.000Z</time>
        <extensions>
          <ns3:TrackPointExtension/>
        </extensions>
      </trkpt>
      <trkpt lat="50.2601419575512409210205078125" lon="5.51168295554816722869873046875">
        <ele>291.79998779296875</ele>
        <time>2025-04-30T02:22:14.000Z</time>
        <extensions>
          <ns3:TrackPointExtension/>
        </extensions>
      </trkpt>
      <trkpt lat="50.25992796756327152252197265625" lon="5.51160894334316253662109375">
        <ele>294</ele>
        <time>2025-04-30T02:22:19.000Z</time>
        <extensions>
          <ns3:TrackPointExtension/>
        </extensions>
      </trkpt>
      <trkpt lat="50.25976695120334625244140625" lon="5.51167893223464488983154296875">
        <ele>295.20001220703125</ele>
        <time>2025-04-30T02:22:24.000Z</time>
        <extensions>
          <ns3:TrackPointExtension/>
        </extensions>
      </trkpt>
      <trkpt lat="50.25960392318665981292724609375" lon="5.51190398633480072021484375">
        <ele>297.20001220703125</ele>
        <time>2025-04-30T02:22:29.000Z</time>
        <extensions>
          <ns3:TrackPointExtension/>
        </extensions>
      </trkpt>
      <trkpt lat="50.2593969739973545074462890625" lon="5.51230992190539836883544921875">
        <ele>297.600006103515625</ele>
        <time>2025-04-30T02:22:34.000Z</time>
        <extensions>
          <ns3:TrackPointExtension/>
        </extensions>
      </trkpt>
      <trkpt lat="50.259244926273822784423828125" lon="5.5124969221651554107666015625">
        <ele>297.600006103515625</ele>
        <time>2025-04-30T02:22:39.000Z</time>
        <extensions>
          <ns3:TrackPointExtension/>
        </extensions>
      </trkpt>
      <trkpt lat="50.2570339478552341461181640625" lon="5.5146839283406734466552734375">
        <ele>297.600006103515625</ele>
        <time>2025-04-30T02:22:45.000Z</time>
        <extensions>
          <ns3:TrackPointExtension/>
        </extensions>
      </trkpt>
      <trkpt lat="50.2568279206752777099609375" lon="5.51492792554199695587158203125">
        <ele>298.20001220703125</ele>
        <time>2025-04-30T02:22:50.000Z</time>
        <extensions>
          <ns3:TrackPointExtension/>
        </extensions>
      </trkpt>
      <trkpt lat="50.25668098591268062591552734375" lon="5.51525096409022808074951171875">
        <ele>298.399993896484375</ele>
        <time>2025-04-30T02:22:55.000Z</time>
        <extensions>
          <ns3:TrackPointExtension/>
        </extensions>
      </trkpt>
      <trkpt lat="50.25633598677814006805419921875" lon="5.5164769850671291351318359375">
        <ele>300.20001220703125</ele>
        <time>2025-04-30T02:23:00.000Z</time>
        <extensions>
          <ns3:TrackPointExtension/>
        </extensions>
      </trkpt>
      <trkpt lat="50.2561219967901706695556640625" lon="5.51712499000132083892822265625">
        <ele>302.79998779296875</ele>
        <time>2025-04-30T02:23:05.000Z</time>
        <extensions>
          <ns3:TrackPointExtension/>
        </extensions>
      </trkpt>
      <trkpt lat="50.25535295717418193817138671875" lon="5.51913899369537830352783203125">
        <ele>304.399993896484375</ele>
        <time>2025-04-30T02:23:10.000Z</time>
        <extensions>
          <ns3:TrackPointExtension/>
        </extensions>
      </trkpt>
      <trkpt lat="50.2551909349858760833740234375" lon="5.51944694481790065765380859375">
        <ele>304.20001220703125</ele>
        <time>2025-04-30T02:23:16.000Z</time>
        <extensions>
          <ns3:TrackPointExtension/>
        </extensions>
      </trkpt>
      <trkpt lat="50.2550169266760349273681640625" lon="5.51970996893942356109619140625">
        <ele>305.20001220703125</ele>
        <time>2025-04-30T02:23:21.000Z</time>
        <extensions>
          <ns3:TrackPointExtension/>
        </extensions>
      </trkpt>
      <trkpt lat="50.2549009211361408233642578125" lon="5.51983796060085296630859375">
        <ele>305.399993896484375</ele>
        <time>2025-04-30T02:23:26.000Z</time>
        <extensions>
          <ns3:TrackPointExtension/>
        </extensions>
      </trkpt>
      <trkpt lat="50.25468592531979084014892578125" lon="5.5199869908392429351806640625">
        <ele>306</ele>
        <time>2025-04-30T02:23:31.000Z</time>
        <extensions>
          <ns3:TrackPointExtension/>
        </extensions>
      </trkpt>
      <trkpt lat="50.253494940698146820068359375" lon="5.52060599438846111297607421875">
        <ele>302.20001220703125</ele>
        <time>2025-04-30T02:23:36.000Z</time>
        <extensions>
          <ns3:TrackPointExtension/>
        </extensions>
      </trkpt>
      <trkpt lat="50.25232692249119281768798828125" lon="5.52103095687925815582275390625">
        <ele>304.79998779296875</ele>
        <time>2025-04-30T02:23:41.000Z</time>
        <extensions>
          <ns3:TrackPointExtension/>
        </extensions>
      </trkpt>
      <trkpt lat="50.250850953161716461181640625" lon="5.52119893021881580352783203125">
        <ele>317.79998779296875</ele>
        <time>2025-04-30T02:23:47.000Z</time>
        <extensions>
          <ns3:TrackPointExtension/>
        </extensions>
      </trkpt>
      <trkpt lat="50.24922394193708896636962890625" lon="5.52168692462146282196044921875">
        <ele>327</ele>
        <time>2025-04-30T02:23:52.000Z</time>
        <extensions>
          <ns3:TrackPointExtension/>
        </extensions>
      </trkpt>
      <trkpt lat="50.2485149167478084564208984375" lon="5.521845929324626922607421875">
        <ele>329.399993896484375</ele>
        <time>2025-04-30T02:23:57.000Z</time>
        <extensions>
          <ns3:TrackPointExtension/>
        </extensions>
      </trkpt>
      <trkpt lat="50.2482849173247814178466796875" lon="5.521963946521282196044921875">
        <ele>329</ele>
        <time>2025-04-30T02:24:02.000Z</time>
        <extensions>
          <ns3:TrackPointExtension/>
        </extensions>
      </trkpt>
      <trkpt lat="50.2478929795324802398681640625" lon="5.52226091735064983367919921875">
        <ele>329.20001220703125</ele>
        <time>2025-04-30T02:24:07.000Z</time>
        <extensions>
          <ns3:TrackPointExtension/>
        </extensions>
      </trkpt>
      <trkpt lat="50.2477689273655414581298828125" lon="5.522313974797725677490234375">
        <ele>329.399993896484375</ele>
        <time>2025-04-30T02:24:12.000Z</time>
        <extensions>
          <ns3:TrackPointExtension/>
        </extensions>
      </trkpt>
      <trkpt lat="50.24710197933018207550048828125" lon="5.52219294011592864990234375">
        <ele>329.79998779296875</ele>
        <time>2025-04-30T02:24:18.000Z</time>
        <extensions>
          <ns3:TrackPointExtension/>
        </extensions>
      </trkpt>
      <trkpt lat="50.2467079460620880126953125" lon="5.52232998423278331756591796875">
        <ele>330</ele>
        <time>2025-04-30T02:24:23.000Z</time>
        <extensions>
          <ns3:TrackPointExtension/>
        </extensions>
      </trkpt>
      <trkpt lat="50.24589599110186100006103515625" lon="5.5229459702968597412109375">
        <ele>327</ele>
        <time>2025-04-30T02:24:28.000Z</time>
        <extensions>
          <ns3:TrackPointExtension/>
        </extensions>
      </trkpt>
      <trkpt lat="50.24499292485415935516357421875" lon="5.52356597967445850372314453125">
        <ele>328.79998779296875</ele>
        <time>2025-04-30T02:24:33.000Z</time>
        <extensions>
          <ns3:TrackPointExtension/>
        </extensions>
      </trkpt>
      <trkpt lat="50.24451599456369876861572265625" lon="5.52407392300665378570556640625">
        <ele>330.79998779296875</ele>
        <time>2025-04-30T02:24:38.000Z</time>
        <extensions>
          <ns3:TrackPointExtension/>
        </extensions>
      </trkpt>
      <trkpt lat="50.24424592964351177215576171875" lon="5.5244639329612255096435546875">
        <ele>331.399993896484375</ele>
        <time>2025-04-30T02:24:43.000Z</time>
        <extensions>
          <ns3:TrackPointExtension/>
        </extensions>
      </trkpt>
      <trkpt lat="50.2441759407520294189453125" lon="5.5246459878981113433837890625">
        <ele>331.399993896484375</ele>
        <time>2025-04-30T02:24:49.000Z</time>
        <extensions>
          <ns3:TrackPointExtension/>
        </extensions>
      </trkpt>
      <trkpt lat="50.2438659779727458953857421875" lon="5.525193996727466583251953125">
        <ele>333.399993896484375</ele>
        <time>2025-04-30T02:24:54.000Z</time>
        <extensions>
          <ns3:TrackPointExtension/>
        </extensions>
      </trkpt>
      <trkpt lat="50.243547968566417694091796875" lon="5.5255679972469806671142578125">
        <ele>335</ele>
        <time>2025-04-30T02:24:59.000Z</time>
        <extensions>
          <ns3:TrackPointExtension/>
        </extensions>
      </trkpt>
      <trkpt lat="50.24321897886693477630615234375" lon="5.52606194280087947845458984375">
        <ele>338.399993896484375</ele>
        <time>2025-04-30T02:25:04.000Z</time>
        <extensions>
          <ns3:TrackPointExtension/>
        </extensions>
      </trkpt>
      <trkpt lat="50.24264398030936717987060546875" lon="5.52710599265992641448974609375">
        <ele>344.399993896484375</ele>
        <time>2025-04-30T02:25:09.000Z</time>
        <extensions>
          <ns3:TrackPointExtension/>
        </extensions>
      </trkpt>
      <trkpt lat="50.24232094176113605499267578125" lon="5.5277989245951175689697265625">
        <ele>346.20001220703125</ele>
        <time>2025-04-30T02:25:14.000Z</time>
        <extensions>
          <ns3:TrackPointExtension/>
        </extensions>
      </trkpt>
      <trkpt lat="50.24181199260056018829345703125" lon="5.5292469821870326995849609375">
        <ele>352.20001220703125</ele>
        <time>2025-04-30T02:25:19.000Z</time>
        <extensions>
          <ns3:TrackPointExtension/>
        </extensions>
      </trkpt>
      <trkpt lat="50.241469927132129669189453125" lon="5.53014493547379970550537109375">
        <ele>353.79998779296875</ele>
        <time>2025-04-30T02:25:25.000Z</time>
        <extensions>
          <ns3:TrackPointExtension/>
        </extensions>
      </trkpt>
      <trkpt lat="50.24030492641031742095947265625" lon="5.5317229963839054107666015625">
        <ele>349.79998779296875</ele>
        <time>2025-04-30T02:25:30.000Z</time>
        <extensions>
          <ns3:TrackPointExtension/>
        </extensions>
      </trkpt>
      <trkpt lat="50.23999999277293682098388671875" lon="5.53219397552311420440673828125">
        <ele>349.79998779296875</ele>
        <time>2025-04-30T02:25:35.000Z</time>
        <extensions>
          <ns3:TrackPointExtension/>
        </extensions>
      </trkpt>
      <trkpt lat="50.23918996565043926239013671875" lon="5.533870942890644073486328125">
        <ele>347.399993896484375</ele>
        <time>2025-04-30T02:25:40.000Z</time>
        <extensions>
          <ns3:TrackPointExtension/>
        </extensions>
      </trkpt>
      <trkpt lat="50.23848898708820343017578125" lon="5.53524699993431568145751953125">
        <ele>348.20001220703125</ele>
        <time>2025-04-30T02:25:45.000Z</time>
        <extensions>
          <ns3:TrackPointExtension/>
        </extensions>
      </trkpt>
      <trkpt lat="50.238137952983379364013671875" lon="5.5356609821319580078125">
        <ele>349.399993896484375</ele>
        <time>2025-04-30T02:25:50.000Z</time>
        <extensions>
          <ns3:TrackPointExtension/>
        </extensions>
      </trkpt>
      <trkpt lat="50.23717495612800121307373046875" lon="5.53653496317565441131591796875">
        <ele>351.600006103515625</ele>
        <time>2025-04-30T02:25:56.000Z</time>
        <extensions>
          <ns3:TrackPointExtension/>
        </extensions>
      </trkpt>
      <trkpt lat="50.2364429645240306854248046875" lon="5.537261925637722015380859375">
        <ele>355.20001220703125</ele>
        <time>2025-04-30T02:26:01.000Z</time>
        <extensions>
          <ns3:TrackPointExtension/>
        </extensions>
      </trkpt>
      <trkpt lat="50.23582899011671543121337890625" lon="5.5378149636089801788330078125">
        <ele>358</ele>
        <time>2025-04-30T02:26:06.000Z</time>
        <extensions>
          <ns3:TrackPointExtension/>
        </extensions>
      </trkpt>
      <trkpt lat="50.23555993102490901947021484375" lon="5.5381079949438571929931640625">
        <ele>359.20001220703125</ele>
        <time>2025-04-30T02:26:11.000Z</time>
        <extensions>
          <ns3:TrackPointExtension/>
        </extensions>
      </trkpt>
      <trkpt lat="50.23441697470843791961669921875" lon="5.539160929620265960693359375">
        <ele>359.399993896484375</ele>
        <time>2025-04-30T02:26:16.000Z</time>
        <extensions>
          <ns3:TrackPointExtension/>
        </extensions>
      </trkpt>
      <trkpt lat="50.23413299582898616790771484375" lon="5.539455972611904144287109375">
        <ele>356.399993896484375</ele>
        <time>2025-04-30T02:26:21.000Z</time>
        <extensions>
          <ns3:TrackPointExtension/>
        </extensions>
      </trkpt>
      <trkpt lat="50.2339639328420162200927734375" lon="5.53958195261657238006591796875">
        <ele>354.600006103515625</ele>
        <time>2025-04-30T02:26:27.000Z</time>
        <extensions>
          <ns3:TrackPointExtension/>
        </extensions>
      </trkpt>
      <trkpt lat="50.23378095589578151702880859375" lon="5.5396559648215770721435546875">
        <ele>352.399993896484375</ele>
        <time>2025-04-30T02:26:32.000Z</time>
        <extensions>
          <ns3:TrackPointExtension/>
        </extensions>
      </trkpt>
      <trkpt lat="50.232498943805694580078125" lon="5.53979694843292236328125">
        <ele>344.600006103515625</ele>
        <time>2025-04-30T02:26:37.000Z</time>
        <extensions>
          <ns3:TrackPointExtension/>
        </extensions>
      </trkpt>
      <trkpt lat="50.23228595964610576629638671875" lon="5.53986391983926296234130859375">
        <ele>343</ele>
        <time>2025-04-30T02:26:42.000Z</time>
        <extensions>
          <ns3:TrackPointExtension/>
        </extensions>
      </trkpt>
      <trkpt lat="50.23203399963676929473876953125" lon="5.54002099670469760894775390625">
        <ele>340.399993896484375</ele>
        <time>2025-04-30T02:26:47.000Z</time>
        <extensions>
          <ns3:TrackPointExtension/>
        </extensions>
      </trkpt>
      <trkpt lat="50.2317199297249317169189453125" lon="5.54033196531236171722412109375">
        <ele>337.600006103515625</ele>
        <time>2025-04-30T02:26:52.000Z</time>
        <extensions>
          <ns3:TrackPointExtension/>
        </extensions>
      </trkpt>
      <trkpt lat="50.2310679852962493896484375" lon="5.54110595025122165679931640625">
        <ele>342.20001220703125</ele>
        <time>2025-04-30T02:26:58.000Z</time>
        <extensions>
          <ns3:TrackPointExtension/>
        </extensions>
      </trkpt>
      <trkpt lat="50.23072399199008941650390625" lon="5.54144893772900104522705078125">
        <ele>343.399993896484375</ele>
        <time>2025-04-30T02:27:03.000Z</time>
        <extensions>
          <ns3:TrackPointExtension/>
        </extensions>
      </trkpt>
      <trkpt lat="50.2300529368221759796142578125" lon="5.5417769216001033782958984375">
        <ele>342.399993896484375</ele>
        <time>2025-04-30T02:27:08.000Z</time>
        <extensions>
          <ns3:TrackPointExtension/>
        </extensions>
      </trkpt>
      <trkpt lat="50.22985897958278656005859375" lon="5.54203198291361331939697265625">
        <ele>340.600006103515625</ele>
        <time>2025-04-30T02:27:13.000Z</time>
        <extensions>
          <ns3:TrackPointExtension/>
        </extensions>
      </trkpt>
      <trkpt lat="50.22969896905124187469482421875" lon="5.5425239168107509613037109375">
        <ele>338.79998779296875</ele>
        <time>2025-04-30T02:27:18.000Z</time>
        <extensions>
          <ns3:TrackPointExtension/>
        </extensions>
      </trkpt>
      <trkpt lat="50.22961598820984363555908203125" lon="5.5434499494731426239013671875">
        <ele>325.600006103515625</ele>
        <time>2025-04-30T02:27:23.000Z</time>
        <extensions>
          <ns3:TrackPointExtension/>
        </extensions>
      </trkpt>
      <trkpt lat="50.229570977389812469482421875" lon="5.5435729958117008209228515625">
        <ele>322.600006103515625</ele>
        <time>2025-04-30T02:27:29.000Z</time>
        <extensions>
          <ns3:TrackPointExtension/>
        </extensions>
      </trkpt>
      <trkpt lat="50.22946997545659542083740234375" lon="5.54363192059099674224853515625">
        <ele>320</ele>
        <time>2025-04-30T02:27:34.000Z</time>
        <extensions>
          <ns3:TrackPointExtension/>
        </extensions>
      </trkpt>
      <trkpt lat="50.2293709851801395416259765625" lon="5.54361297748982906341552734375">
        <ele>319.399993896484375</ele>
        <time>2025-04-30T02:27:39.000Z</time>
        <extensions>
          <ns3:TrackPointExtension/>
        </extensions>
      </trkpt>
      <trkpt lat="50.2289919555187225341796875" lon="5.54341499693691730499267578125">
        <ele>322.20001220703125</ele>
        <time>2025-04-30T02:27:44.000Z</time>
        <extensions>
          <ns3:TrackPointExtension/>
        </extensions>
      </trkpt>
      <trkpt lat="50.2282109297811985015869140625" lon="5.54306396283209323883056640625">
        <ele>326.399993896484375</ele>
        <time>2025-04-30T02:27:49.000Z</time>
        <extensions>
          <ns3:TrackPointExtension/>
        </extensions>
      </trkpt>
      <trkpt lat="50.22771094925701618194580078125" lon="5.54303596727550029754638671875">
        <ele>317.399993896484375</ele>
        <time>2025-04-30T02:27:54.000Z</time>
        <extensions>
          <ns3:TrackPointExtension/>
        </extensions>
      </trkpt>
      <trkpt lat="50.2264279313385486602783203125" lon="5.54332296364009380340576171875">
        <ele>302.79998779296875</ele>
        <time>2025-04-30T02:28:00.000Z</time>
        <extensions>
          <ns3:TrackPointExtension/>
        </extensions>
      </trkpt>
      <trkpt lat="50.22628493607044219970703125" lon="5.54337593726813793182373046875">
        <ele>301.20001220703125</ele>
        <time>2025-04-30T02:28:05.000Z</time>
        <extensions>
          <ns3:TrackPointExtension/>
        </extensions>
      </trkpt>
      <trkpt lat="50.2261459641158580780029296875" lon="5.543361939489841461181640625">
        <ele>299.79998779296875</ele>
        <time>2025-04-30T02:28:10.000Z</time>
        <extensions>
          <ns3:TrackPointExtension/>
        </extensions>
      </trkpt>
      <trkpt lat="50.22605694830417633056640625" lon="5.54331592284142971038818359375">
        <ele>299.399993896484375</ele>
        <time>2025-04-30T02:28:15.000Z</time>
        <extensions>
          <ns3:TrackPointExtension/>
        </extensions>
      </trkpt>
      <trkpt lat="50.225948989391326904296875" lon="5.54315096698701381683349609375">
        <ele>298.20001220703125</ele>
        <time>2025-04-30T02:28:20.000Z</time>
        <extensions>
          <ns3:TrackPointExtension/>
        </extensions>
      </trkpt>
      <trkpt lat="50.22590599022805690765380859375" lon="5.54296195507049560546875">
        <ele>297.600006103515625</ele>
        <time>2025-04-30T02:28:25.000Z</time>
        <extensions>
          <ns3:TrackPointExtension/>
        </extensions>
      </trkpt>
      <trkpt lat="50.22584496997296810150146484375" lon="5.54246298037469387054443359375">
        <ele>298.20001220703125</ele>
        <time>2025-04-30T02:28:31.000Z</time>
        <extensions>
          <ns3:TrackPointExtension/>
        </extensions>
      </trkpt>
      <trkpt lat="50.2258039824664592742919921875" lon="5.54229098372161388397216796875">
        <ele>299.20001220703125</ele>
        <time>2025-04-30T02:28:36.000Z</time>
        <extensions>
          <ns3:TrackPointExtension/>
        </extensions>
      </trkpt>
      <trkpt lat="50.2257409505546092987060546875" lon="5.542217977344989776611328125">
        <ele>299.20001220703125</ele>
        <time>2025-04-30T02:28:41.000Z</time>
        <extensions>
          <ns3:TrackPointExtension/>
        </extensions>
      </trkpt>
      <trkpt lat="50.2256279624998569488525390625" lon="5.542268939316272735595703125">
        <ele>298.600006103515625</ele>
        <time>2025-04-30T02:28:46.000Z</time>
        <extensions>
          <ns3:TrackPointExtension/>
        </extensions>
      </trkpt>
      <trkpt lat="50.2255739830434322357177734375" lon="5.54240397177636623382568359375">
        <ele>296.79998779296875</ele>
        <time>2025-04-30T02:28:51.000Z</time>
        <extensions>
          <ns3:TrackPointExtension/>
        </extensions>
      </trkpt>
      <trkpt lat="50.22532797418534755706787109375" lon="5.5437399633228778839111328125">
        <ele>286.20001220703125</ele>
        <time>2025-04-30T02:28:56.000Z</time>
        <extensions>
          <ns3:TrackPointExtension/>
        </extensions>
      </trkpt>
      <trkpt lat="50.2252799458801746368408203125" lon="5.543819926679134368896484375">
        <ele>283.399993896484375</ele>
        <time>2025-04-30T02:29:02.000Z</time>
        <extensions>
          <ns3:TrackPointExtension/>
        </extensions>
      </trkpt>
      <trkpt lat="50.22521297447383403778076171875" lon="5.5438779294490814208984375">
        <ele>280.79998779296875</ele>
        <time>2025-04-30T02:29:07.000Z</time>
        <extensions>
          <ns3:TrackPointExtension/>
        </extensions>
      </trkpt>
      <trkpt lat="50.2250579930841922760009765625" lon="5.543886981904506683349609375">
        <ele>278.79998779296875</ele>
        <time>2025-04-30T02:29:12.000Z</time>
        <extensions>
          <ns3:TrackPointExtension/>
        </extensions>
      </trkpt>
      <trkpt lat="50.2240969240665435791015625" lon="5.5436869896948337554931640625">
        <ele>273.79998779296875</ele>
        <time>2025-04-30T02:29:17.000Z</time>
        <extensions>
          <ns3:TrackPointExtension/>
        </extensions>
      </trkpt>
      <trkpt lat="50.223466940224170684814453125" lon="5.54380894638597965240478515625">
        <ele>275.20001220703125</ele>
        <time>2025-04-30T02:29:22.000Z</time>
        <extensions>
          <ns3:TrackPointExtension/>
        </extensions>
      </trkpt>
      <trkpt lat="50.2231539599597454071044921875" lon="5.5439449846744537353515625">
        <ele>270</ele>
        <time>2025-04-30T02:29:27.000Z</time>
        <extensions>
          <ns3:TrackPointExtension/>
        </extensions>
      </trkpt>
      <trkpt lat="50.22305899299681186676025390625" lon="5.54394699633121490478515625">
        <ele>268.20001220703125</ele>
        <time>2025-04-30T02:29:33.000Z</time>
        <extensions>
          <ns3:TrackPointExtension/>
        </extensions>
      </trkpt>
      <trkpt lat="50.22293393500149250030517578125" lon="5.54386996664106845855712890625">
        <ele>266.20001220703125</ele>
        <time>2025-04-30T02:29:38.000Z</time>
        <extensions>
          <ns3:TrackPointExtension/>
        </extensions>
      </trkpt>
      <trkpt lat="50.22283494472503662109375" lon="5.54377893917262554168701171875">
        <ele>264.399993896484375</ele>
        <time>2025-04-30T02:29:43.000Z</time>
        <extensions>
          <ns3:TrackPointExtension/>
        </extensions>
      </trkpt>
      <trkpt lat="50.22241492755711078643798828125" lon="5.54303596727550029754638671875">
        <ele>266.20001220703125</ele>
        <time>2025-04-30T02:29:48.000Z</time>
        <extensions>
          <ns3:TrackPointExtension/>
        </extensions>
      </trkpt>
      <trkpt lat="50.222267992794513702392578125" lon="5.54294594563543796539306640625">
        <ele>265</ele>
        <time>2025-04-30T02:29:53.000Z</time>
        <extensions>
          <ns3:TrackPointExtension/>
        </extensions>
      </trkpt>
      <trkpt lat="50.22169391624629497528076171875" lon="5.542677976191043853759765625">
        <ele>259.399993896484375</ele>
        <time>2025-04-30T02:29:58.000Z</time>
        <extensions>
          <ns3:TrackPointExtension/>
        </extensions>
      </trkpt>
      <trkpt lat="50.22112998180091381072998046875" lon="5.5421889759600162506103515625">
        <ele>257.600006103515625</ele>
        <time>2025-04-30T02:30:04.000Z</time>
        <extensions>
          <ns3:TrackPointExtension/>
        </extensions>
      </trkpt>
      <trkpt lat="50.22078498266637325286865234375" lon="5.54177097044885158538818359375">
        <ele>253.399993896484375</ele>
        <time>2025-04-30T02:30:09.000Z</time>
        <extensions>
          <ns3:TrackPointExtension/>
        </extensions>
      </trkpt>
      <trkpt lat="50.22064198739826679229736328125" lon="5.5415459163486957550048828125">
        <ele>250.8000030517578125</ele>
        <time>2025-04-30T02:30:14.000Z</time>
        <extensions>
          <ns3:TrackPointExtension/>
        </extensions>
      </trkpt>
      <trkpt lat="50.22046294994652271270751953125" lon="5.5414349399507045745849609375">
        <ele>248.399993896484375</ele>
        <time>2025-04-30T02:30:19.000Z</time>
        <extensions>
          <ns3:TrackPointExtension/>
        </extensions>
      </trkpt>
      <trkpt lat="50.22023194469511508941650390625" lon="5.54144592024385929107666015625">
        <ele>248.399993896484375</ele>
        <time>2025-04-30T02:30:24.000Z</time>
        <extensions>
          <ns3:TrackPointExtension/>
        </extensions>
      </trkpt>
      <trkpt lat="50.2200489677488803863525390625" lon="5.54154398851096630096435546875">
        <ele>248.399993896484375</ele>
        <time>2025-04-30T02:30:29.000Z</time>
        <extensions>
          <ns3:TrackPointExtension/>
        </extensions>
      </trkpt>
      <trkpt lat="50.21979893557727336883544921875" lon="5.54174699820578098297119140625">
        <ele>246</ele>
        <time>2025-04-30T02:30:35.000Z</time>
        <extensions>
          <ns3:TrackPointExtension/>
        </extensions>
      </trkpt>
      <trkpt lat="50.21948092617094516754150390625" lon="5.5418419651687145233154296875">
        <ele>241.8000030517578125</ele>
        <time>2025-04-30T02:30:40.000Z</time>
        <extensions>
          <ns3:TrackPointExtension/>
        </extensions>
      </trkpt>
      <trkpt lat="50.21926098503172397613525390625" lon="5.5418179929256439208984375">
        <ele>240.600006103515625</ele>
        <time>2025-04-30T02:30:45.000Z</time>
        <extensions>
          <ns3:TrackPointExtension/>
        </extensions>
      </trkpt>
      <trkpt lat="50.21904892288148403167724609375" lon="5.54168991744518280029296875">
        <ele>240.600006103515625</ele>
        <time>2025-04-30T02:30:50.000Z</time>
        <extensions>
          <ns3:TrackPointExtension/>
        </extensions>
      </trkpt>
      <trkpt lat="50.21867592819035053253173828125" lon="5.54104694165289402008056640625">
        <ele>242.399993896484375</ele>
        <time>2025-04-30T02:30:54.000Z</time>
        <extensions>
          <ns3:TrackPointExtension/>
        </extensions>
      </trkpt>
      <trkpt lat="50.2180409990251064300537109375" lon="5.54029592312872409820556640625">
        <ele>239.600006103515625</ele>
        <time>2025-04-30T02:30:59.000Z</time>
        <extensions>
          <ns3:TrackPointExtension/>
        </extensions>
      </trkpt>
      <trkpt lat="50.2176909707486629486083984375" lon="5.5400059930980205535888671875">
        <ele>241</ele>
        <time>2025-04-30T02:31:03.000Z</time>
        <extensions>
          <ns3:TrackPointExtension/>
        </extensions>
      </trkpt>
      <trkpt lat="50.21725796163082122802734375" lon="5.5397649295628070831298828125">
        <ele>244.600006103515625</ele>
        <time>2025-04-30T02:31:08.000Z</time>
        <extensions>
          <ns3:TrackPointExtension/>
        </extensions>
      </trkpt>
      <trkpt lat="50.21692897193133831024169921875" lon="5.539506934583187103271484375">
        <ele>245.8000030517578125</ele>
        <time>2025-04-30T02:31:12.000Z</time>
        <extensions>
          <ns3:TrackPointExtension/>
        </extensions>
      </trkpt>
      <trkpt lat="50.216794945299625396728515625" lon="5.53930099122226238250732421875">
        <ele>244.1999969482421875</ele>
        <time>2025-04-30T02:31:16.000Z</time>
        <extensions>
          <ns3:TrackPointExtension/>
        </extensions>
      </trkpt>
      <trkpt lat="50.216617919504642486572265625" lon="5.5389599315822124481201171875">
        <ele>240.600006103515625</ele>
        <time>2025-04-30T02:31:21.000Z</time>
        <extensions>
          <ns3:TrackPointExtension/>
        </extensions>
      </trkpt>
      <trkpt lat="50.21650291979312896728515625" lon="5.53881299681961536407470703125">
        <ele>239.399993896484375</ele>
        <time>2025-04-30T02:31:25.000Z</time>
        <extensions>
          <ns3:TrackPointExtension/>
        </extensions>
      </trkpt>
      <trkpt lat="50.2162459306418895721435546875" lon="5.5385689996182918548583984375">
        <ele>238</ele>
        <time>2025-04-30T02:31:30.000Z</time>
        <extensions>
          <ns3:TrackPointExtension/>
        </extensions>
      </trkpt>
      <trkpt lat="50.21614593453705310821533203125" lon="5.538420975208282470703125">
        <ele>236.8000030517578125</ele>
        <time>2025-04-30T02:31:34.000Z</time>
        <extensions>
          <ns3:TrackPointExtension/>
        </extensions>
      </trkpt>
      <trkpt lat="50.21569197066128253936767578125" lon="5.53745797835290431976318359375">
        <ele>235</ele>
        <time>2025-04-30T02:31:38.000Z</time>
        <extensions>
          <ns3:TrackPointExtension/>
        </extensions>
      </trkpt>
      <trkpt lat="50.21536298096179962158203125" lon="5.5364919640123844146728515625">
        <ele>232.1999969482421875</ele>
        <time>2025-04-30T02:31:43.000Z</time>
        <extensions>
          <ns3:TrackPointExtension/>
        </extensions>
      </trkpt>
      <trkpt lat="50.21512694656848907470703125" lon="5.5353929288685321807861328125">
        <ele>236.399993896484375</ele>
        <time>2025-04-30T02:31:47.000Z</time>
        <extensions>
          <ns3:TrackPointExtension/>
        </extensions>
      </trkpt>
      <trkpt lat="50.21496492438018321990966796875" lon="5.53415399976074695587158203125">
        <ele>240.600006103515625</ele>
        <time>2025-04-30T02:31:51.000Z</time>
        <extensions>
          <ns3:TrackPointExtension/>
        </extensions>
      </trkpt>
      <trkpt lat="50.21496199071407318115234375" lon="5.5336439609527587890625">
        <ele>237.8000030517578125</ele>
        <time>2025-04-30T02:31:56.000Z</time>
        <extensions>
          <ns3:TrackPointExtension/>
        </extensions>
      </trkpt>
      <trkpt lat="50.2148719690740108489990234375" lon="5.53291398100554943084716796875">
        <ele>236.600006103515625</ele>
        <time>2025-04-30T02:32:00.000Z</time>
        <extensions>
          <ns3:TrackPointExtension/>
        </extensions>
      </trkpt>
      <trkpt lat="50.2147599868476390838623046875" lon="5.5324089713394641876220703125">
        <ele>237</ele>
        <time>2025-04-30T02:32:05.000Z</time>
        <extensions>
          <ns3:TrackPointExtension/>
        </extensions>
      </trkpt>
      <trkpt lat="50.21448598243296146392822265625" lon="5.53173095919191837310791015625">
        <ele>239.600006103515625</ele>
        <time>2025-04-30T02:32:09.000Z</time>
        <extensions>
          <ns3:TrackPointExtension/>
        </extensions>
      </trkpt>
      <trkpt lat="50.21445999853312969207763671875" lon="5.53158494643867015838623046875">
        <ele>239.399993896484375</ele>
        <time>2025-04-30T02:32:13.000Z</time>
        <extensions>
          <ns3:TrackPointExtension/>
        </extensions>
      </trkpt>
      <trkpt lat="50.21422094665467739105224609375" lon="5.53063997067511081695556640625">
        <ele>238.600006103515625</ele>
        <time>2025-04-30T02:32:18.000Z</time>
        <extensions>
          <ns3:TrackPointExtension/>
        </extensions>
      </trkpt>
      <trkpt lat="50.21419295109808444976806640625" lon="5.53034995682537555694580078125">
        <ele>237.399993896484375</ele>
        <time>2025-04-30T02:32:22.000Z</time>
        <extensions>
          <ns3:TrackPointExtension/>
        </extensions>
      </trkpt>
      <trkpt lat="50.21419194526970386505126953125" lon="5.53008793853223323822021484375">
        <ele>236.600006103515625</ele>
        <time>2025-04-30T02:32:27.000Z</time>
        <extensions>
          <ns3:TrackPointExtension/>
        </extensions>
      </trkpt>
      <trkpt lat="50.21421591751277446746826171875" lon="5.52979691885411739349365234375">
        <ele>234.8000030517578125</ele>
        <time>2025-04-30T02:32:31.000Z</time>
        <extensions>
          <ns3:TrackPointExtension/>
        </extensions>
      </trkpt>
      <trkpt lat="50.214384980499744415283203125" lon="5.528861917555332183837890625">
        <ele>232.600006103515625</ele>
        <time>2025-04-30T02:32:35.000Z</time>
        <extensions>
          <ns3:TrackPointExtension/>
        </extensions>
      </trkpt>
      <trkpt lat="50.21445496939122676849365234375" lon="5.5280389823019504547119140625">
        <ele>228.600006103515625</ele>
        <time>2025-04-30T02:32:40.000Z</time>
        <extensions>
          <ns3:TrackPointExtension/>
        </extensions>
      </trkpt>
      <trkpt lat="50.21456896327435970306396484375" lon="5.527654923498630523681640625">
        <ele>225.600006103515625</ele>
        <time>2025-04-30T02:32:44.000Z</time>
        <extensions>
          <ns3:TrackPointExtension/>
        </extensions>
      </trkpt>
      <trkpt lat="50.214836932718753814697265625" lon="5.52695293910801410675048828125">
        <ele>219.399993896484375</ele>
        <time>2025-04-30T02:32:48.000Z</time>
        <extensions>
          <ns3:TrackPointExtension/>
        </extensions>
      </trkpt>
      <trkpt lat="50.2149239368736743927001953125" lon="5.52666694857180118560791015625">
        <ele>218</ele>
        <time>2025-04-30T02:32:53.000Z</time>
        <extensions>
          <ns3:TrackPointExtension/>
        </extensions>
      </trkpt>
      <trkpt lat="50.2149869687855243682861328125" lon="5.52641398273408412933349609375">
        <ele>216.8000030517578125</ele>
        <time>2025-04-30T02:32:57.000Z</time>
        <extensions>
          <ns3:TrackPointExtension/>
        </extensions>
      </trkpt>
      <trkpt lat="50.2151069976389408111572265625" lon="5.525478981435298919677734375">
        <ele>211.399993896484375</ele>
        <time>2025-04-30T02:33:02.000Z</time>
        <extensions>
          <ns3:TrackPointExtension/>
        </extensions>
      </trkpt>
      <trkpt lat="50.2153269387781620025634765625" lon="5.52493792958557605743408203125">
        <ele>207</ele>
        <time>2025-04-30T02:33:06.000Z</time>
        <extensions>
          <ns3:TrackPointExtension/>
        </extensions>
      </trkpt>
      <trkpt lat="50.2154199779033660888671875" lon="5.52479392848908901214599609375">
        <ele>206.1999969482421875</ele>
        <time>2025-04-30T02:33:10.000Z</time>
        <extensions>
          <ns3:TrackPointExtension/>
        </extensions>
      </trkpt>
      <trkpt lat="50.21553598344326019287109375" lon="5.52454498596489429473876953125">
        <ele>205.399993896484375</ele>
        <time>2025-04-30T02:33:15.000Z</time>
        <extensions>
          <ns3:TrackPointExtension/>
        </extensions>
      </trkpt>
      <trkpt lat="50.2156179584562778472900390625" lon="5.524259917438030242919921875">
        <ele>205</ele>
        <time>2025-04-30T02:33:19.000Z</time>
        <extensions>
          <ns3:TrackPointExtension/>
        </extensions>
      </trkpt>
      <trkpt lat="50.21560496650636196136474609375" lon="5.52393293939530849456787109375">
        <ele>205</ele>
        <time>2025-04-30T02:33:23.000Z</time>
        <extensions>
          <ns3:TrackPointExtension/>
        </extensions>
      </trkpt>
      <trkpt lat="50.2156119234859943389892578125" lon="5.5236049555242061614990234375">
        <ele>204.399993896484375</ele>
        <time>2025-04-30T02:33:28.000Z</time>
        <extensions>
          <ns3:TrackPointExtension/>
        </extensions>
      </trkpt>
      <trkpt lat="50.21564997732639312744140625" lon="5.52346296608448028564453125">
        <ele>204.399993896484375</ele>
        <time>2025-04-30T02:33:32.000Z</time>
        <extensions>
          <ns3:TrackPointExtension/>
        </extensions>
      </trkpt>
      <trkpt lat="50.2160769514739513397216796875" lon="5.5231739580631256103515625">
        <ele>199.600006103515625</ele>
        <time>2025-04-30T02:33:37.000Z</time>
        <extensions>
          <ns3:TrackPointExtension/>
        </extensions>
      </trkpt>
      <trkpt lat="50.2158499695360660552978515625" lon="5.51985698752105236053466796875">
        <ele>204.1999969482421875</ele>
        <time>2025-04-30T02:33:50.000Z</time>
        <extensions>
          <ns3:TrackPointExtension/>
        </extensions>
      </trkpt>
      <trkpt lat="50.2158429287374019622802734375" lon="5.51951198838651180267333984375">
        <ele>209.399993896484375</ele>
        <time>2025-04-30T02:34:04.000Z</time>
        <extensions>
          <ns3:TrackPointExtension/>
        </extensions>
      </trkpt>
      <trkpt lat="50.2155539207160472869873046875" lon="5.5194859206676483154296875">
        <ele>211.8000030517578125</ele>
        <time>2025-04-30T02:34:07.000Z</time>
        <extensions>
          <ns3:TrackPointExtension/>
        </extensions>
      </trkpt>
      <trkpt lat="50.21292292512953281402587890625" lon="5.51904092542827129364013671875">
        <ele>226.399993896484375</ele>
        <time>2025-04-30T02:34:10.000Z</time>
        <extensions>
          <ns3:TrackPointExtension/>
        </extensions>
      </trkpt>
      <trkpt lat="50.2125049196183681488037109375" lon="5.519036985933780670166015625">
        <ele>224.399993896484375</ele>
        <time>2025-04-30T02:34:13.000Z</time>
        <extensions>
          <ns3:TrackPointExtension/>
        </extensions>
      </trkpt>
      <trkpt lat="50.21203494630753993988037109375" lon="5.51912792958319187164306640625">
        <ele>217.600006103515625</ele>
        <time>2025-04-30T02:34:16.000Z</time>
        <extensions>
          <ns3:TrackPointExtension/>
        </extensions>
      </trkpt>
      <trkpt lat="50.210757963359355926513671875" lon="5.5197469331324100494384765625">
        <ele>221</ele>
        <time>2025-04-30T02:34:19.000Z</time>
        <extensions>
          <ns3:TrackPointExtension/>
        </extensions>
      </trkpt>
      <trkpt lat="50.210242979228496551513671875" lon="5.52001792006194591522216796875">
        <ele>216.8000030517578125</ele>
        <time>2025-04-30T02:34:22.000Z</time>
        <extensions>
          <ns3:TrackPointExtension/>
        </extensions>
      </trkpt>
      <trkpt lat="50.20999797619879245758056640625" lon="5.52017591893672943115234375">
        <ele>219.600006103515625</ele>
        <time>2025-04-30T02:34:25.000Z</time>
        <extensions>
          <ns3:TrackPointExtension/>
        </extensions>
      </trkpt>
      <trkpt lat="50.20967493765056133270263671875" lon="5.52043299190700054168701171875">
        <ele>225.399993896484375</ele>
        <time>2025-04-30T02:34:28.000Z</time>
        <extensions>
          <ns3:TrackPointExtension/>
        </extensions>
      </trkpt>
      <trkpt lat="50.2094559185206890106201171875" lon="5.5206779949367046356201171875">
        <ele>223.1999969482421875</ele>
        <time>2025-04-30T02:34:31.000Z</time>
        <extensions>
          <ns3:TrackPointExtension/>
        </extensions>
      </trkpt>
      <trkpt lat="50.208113975822925567626953125" lon="5.52243492566049098968505859375">
        <ele>212.600006103515625</ele>
        <time>2025-04-30T02:34:34.000Z</time>
        <extensions>
          <ns3:TrackPointExtension/>
        </extensions>
      </trkpt>
      <trkpt lat="50.20792999304831027984619140625" lon="5.52270792424678802490234375">
        <ele>212</ele>
        <time>2025-04-30T02:34:38.000Z</time>
        <extensions>
          <ns3:TrackPointExtension/>
        </extensions>
      </trkpt>
      <trkpt lat="50.20778297446668148040771484375" lon="5.5229779891669750213623046875">
        <ele>211.600006103515625</ele>
        <time>2025-04-30T02:34:41.000Z</time>
        <extensions>
          <ns3:TrackPointExtension/>
        </extensions>
      </trkpt>
      <trkpt lat="50.20766696892678737640380859375" lon="5.52324294112622737884521484375">
        <ele>209.8000030517578125</ele>
        <time>2025-04-30T02:34:44.000Z</time>
        <extensions>
          <ns3:TrackPointExtension/>
        </extensions>
      </trkpt>
      <trkpt lat="50.2075579203665256500244140625" lon="5.5235509760677814483642578125">
        <ele>212.600006103515625</ele>
        <time>2025-04-30T02:34:47.000Z</time>
        <extensions>
          <ns3:TrackPointExtension/>
        </extensions>
      </trkpt>
      <trkpt lat="50.207425989210605621337890625" lon="5.5240939557552337646484375">
        <ele>213</ele>
        <time>2025-04-30T02:34:50.000Z</time>
        <extensions>
          <ns3:TrackPointExtension/>
        </extensions>
      </trkpt>
      <trkpt lat="50.207356922328472137451171875" lon="5.5246969498693943023681640625">
        <ele>215</ele>
        <time>2025-04-30T02:34:53.000Z</time>
        <extensions>
          <ns3:TrackPointExtension/>
        </extensions>
      </trkpt>
      <trkpt lat="50.20734795369207859039306640625" lon="5.5250499956309795379638671875">
        <ele>211.1999969482421875</ele>
        <time>2025-04-30T02:34:56.000Z</time>
        <extensions>
          <ns3:TrackPointExtension/>
        </extensions>
      </trkpt>
      <trkpt lat="50.20740495063364505767822265625" lon="5.527141951024532318115234375">
        <ele>209.8000030517578125</ele>
        <time>2025-04-30T02:34:59.000Z</time>
        <extensions>
          <ns3:TrackPointExtension/>
        </extensions>
      </trkpt>
      <trkpt lat="50.20746999420225620269775390625" lon="5.5280289240181446075439453125">
        <ele>208.600006103515625</ele>
        <time>2025-04-30T02:35:02.000Z</time>
        <extensions>
          <ns3:TrackPointExtension/>
        </extensions>
      </trkpt>
      <trkpt lat="50.207769982516765594482421875" lon="5.5310769192874431610107421875">
        <ele>209.1999969482421875</ele>
        <time>2025-04-30T02:35:05.000Z</time>
        <extensions>
          <ns3:TrackPointExtension/>
        </extensions>
      </trkpt>
      <trkpt lat="50.2077939547598361968994140625" lon="5.5314279533922672271728515625">
        <ele>209.1999969482421875</ele>
        <time>2025-04-30T02:35:08.000Z</time>
        <extensions>
          <ns3:TrackPointExtension/>
        </extensions>
      </trkpt>
      <trkpt lat="50.20775891840457916259765625" lon="5.53294993937015533447265625">
        <ele>211.399993896484375</ele>
        <time>2025-04-30T02:35:11.000Z</time>
        <extensions>
          <ns3:TrackPointExtension/>
        </extensions>
      </trkpt>
      <trkpt lat="50.20776093006134033203125" lon="5.53327993489801883697509765625">
        <ele>213.399993896484375</ele>
        <time>2025-04-30T02:35:14.000Z</time>
        <extensions>
          <ns3:TrackPointExtension/>
        </extensions>
      </trkpt>
      <trkpt lat="50.20778398029506206512451171875" lon="5.53360599093139171600341796875">
        <ele>213.399993896484375</ele>
        <time>2025-04-30T02:35:18.000Z</time>
        <extensions>
          <ns3:TrackPointExtension/>
        </extensions>
      </trkpt>
      <trkpt lat="50.20786997862160205841064453125" lon="5.53420797921717166900634765625">
        <ele>209.8000030517578125</ele>
        <time>2025-04-30T02:35:21.000Z</time>
        <extensions>
          <ns3:TrackPointExtension/>
        </extensions>
      </trkpt>
      <trkpt lat="50.20810894668102264404296875" lon="5.53530491888523101806640625">
        <ele>210.600006103515625</ele>
        <time>2025-04-30T02:35:24.000Z</time>
        <extensions>
          <ns3:TrackPointExtension/>
        </extensions>
      </trkpt>
      <trkpt lat="50.20834498107433319091796875" lon="5.536406971514225006103515625">
        <ele>207.600006103515625</ele>
        <time>2025-04-30T02:35:27.000Z</time>
        <extensions>
          <ns3:TrackPointExtension/>
        </extensions>
      </trkpt>
      <trkpt lat="50.20835596136748790740966796875" lon="5.5366069637238979339599609375">
        <ele>207.600006103515625</ele>
        <time>2025-04-30T02:35:30.000Z</time>
        <extensions>
          <ns3:TrackPointExtension/>
        </extensions>
      </trkpt>
      <trkpt lat="50.20832293666899204254150390625" lon="5.53691399283707141876220703125">
        <ele>208.600006103515625</ele>
        <time>2025-04-30T02:35:33.000Z</time>
        <extensions>
          <ns3:TrackPointExtension/>
        </extensions>
      </trkpt>
      <trkpt lat="50.20820894278585910797119140625" lon="5.53725597448647022247314453125">
        <ele>210</ele>
        <time>2025-04-30T02:35:36.000Z</time>
        <extensions>
          <ns3:TrackPointExtension/>
        </extensions>
      </trkpt>
      <trkpt lat="50.208113975822925567626953125" lon="5.53739796392619609832763671875">
        <ele>209.399993896484375</ele>
        <time>2025-04-30T02:35:39.000Z</time>
        <extensions>
          <ns3:TrackPointExtension/>
        </extensions>
      </trkpt>
      <trkpt lat="50.207999981939792633056640625" lon="5.5375229381024837493896484375">
        <ele>209.8000030517578125</ele>
        <time>2025-04-30T02:35:42.000Z</time>
        <extensions>
          <ns3:TrackPointExtension/>
        </extensions>
      </trkpt>
      <trkpt lat="50.20792496390640735626220703125" lon="5.5375769175589084625244140625">
        <ele>209.600006103515625</ele>
        <time>2025-04-30T02:35:45.000Z</time>
        <extensions>
          <ns3:TrackPointExtension/>
        </extensions>
      </trkpt>
      <trkpt lat="50.2077319286763668060302734375" lon="5.5376439727842807769775390625">
        <ele>210</ele>
        <time>2025-04-30T02:35:48.000Z</time>
        <extensions>
          <ns3:TrackPointExtension/>
        </extensions>
      </trkpt>
      <trkpt lat="50.20757392980158329010009765625" lon="5.5376459844410419464111328125">
        <ele>210.399993896484375</ele>
        <time>2025-04-30T02:35:51.000Z</time>
        <extensions>
          <ns3:TrackPointExtension/>
        </extensions>
      </trkpt>
      <trkpt lat="50.20728492178022861480712890625" lon="5.53760197944939136505126953125">
        <ele>211.8000030517578125</ele>
        <time>2025-04-30T02:35:54.000Z</time>
        <extensions>
          <ns3:TrackPointExtension/>
        </extensions>
      </trkpt>
      <trkpt lat="50.2069859392940998077392578125" lon="5.537493936717510223388671875">
        <ele>212.600006103515625</ele>
        <time>2025-04-30T02:35:57.000Z</time>
        <extensions>
          <ns3:TrackPointExtension/>
        </extensions>
      </trkpt>
      <trkpt lat="50.20632795989513397216796875" lon="5.53702094592154026031494140625">
        <ele>216.8000030517578125</ele>
        <time>2025-04-30T02:36:01.000Z</time>
        <extensions>
          <ns3:TrackPointExtension/>
        </extensions>
      </trkpt>
      <trkpt lat="50.20614297129213809967041015625" lon="5.53685297258198261260986328125">
        <ele>218.399993896484375</ele>
        <time>2025-04-30T02:36:04.000Z</time>
        <extensions>
          <ns3:TrackPointExtension/>
        </extensions>
      </trkpt>
      <trkpt lat="50.20545699633657932281494140625" lon="5.53611896932125091552734375">
        <ele>222.8000030517578125</ele>
        <time>2025-04-30T02:36:07.000Z</time>
        <extensions>
          <ns3:TrackPointExtension/>
        </extensions>
      </trkpt>
      <trkpt lat="50.2052629552781581878662109375" lon="5.53595795296132564544677734375">
        <ele>221.8000030517578125</ele>
        <time>2025-04-30T02:36:10.000Z</time>
        <extensions>
          <ns3:TrackPointExtension/>
        </extensions>
      </trkpt>
      <trkpt lat="50.20426592789590358734130859375" lon="5.53530491888523101806640625">
        <ele>217.600006103515625</ele>
        <time>2025-04-30T02:36:13.000Z</time>
        <extensions>
          <ns3:TrackPointExtension/>
        </extensions>
      </trkpt>
      <trkpt lat="50.20409594289958477020263671875" lon="5.5351669527590274810791015625">
        <ele>218.1999969482421875</ele>
        <time>2025-04-30T02:36:16.000Z</time>
        <extensions>
          <ns3:TrackPointExtension/>
        </extensions>
      </trkpt>
      <trkpt lat="50.20357995294034481048583984375" lon="5.53459991700947284698486328125">
        <ele>217.399993896484375</ele>
        <time>2025-04-30T02:36:19.000Z</time>
        <extensions>
          <ns3:TrackPointExtension/>
        </extensions>
      </trkpt>
      <trkpt lat="50.20345397293567657470703125" lon="5.5344829894602298736572265625">
        <ele>218.1999969482421875</ele>
        <time>2025-04-30T02:36:22.000Z</time>
        <extensions>
          <ns3:TrackPointExtension/>
        </extensions>
      </trkpt>
      <trkpt lat="50.20320695824921131134033203125" lon="5.53429096005856990814208984375">
        <ele>221.8000030517578125</ele>
        <time>2025-04-30T02:36:25.000Z</time>
        <extensions>
          <ns3:TrackPointExtension/>
        </extensions>
      </trkpt>
      <trkpt lat="50.20294896326959133148193359375" lon="5.53414092399179935455322265625">
        <ele>224.1999969482421875</ele>
        <time>2025-04-30T02:36:28.000Z</time>
        <extensions>
          <ns3:TrackPointExtension/>
        </extensions>
      </trkpt>
      <trkpt lat="50.20272097550332546234130859375" lon="5.53406096063554286956787109375">
        <ele>224.8000030517578125</ele>
        <time>2025-04-30T02:36:31.000Z</time>
        <extensions>
          <ns3:TrackPointExtension/>
        </extensions>
      </trkpt>
      <trkpt lat="50.202409923076629638671875" lon="5.53399792872369289398193359375">
        <ele>222.600006103515625</ele>
        <time>2025-04-30T02:36:34.000Z</time>
        <extensions>
          <ns3:TrackPointExtension/>
        </extensions>
      </trkpt>
      <trkpt lat="50.20018494687974452972412109375" lon="5.53403296507894992828369140625">
        <ele>215.399993896484375</ele>
        <time>2025-04-30T02:36:37.000Z</time>
        <extensions>
          <ns3:TrackPointExtension/>
        </extensions>
      </trkpt>
      <trkpt lat="50.19983894191682338714599609375" lon="5.53406598977744579315185546875">
        <ele>221.1999969482421875</ele>
        <time>2025-04-30T02:36:40.000Z</time>
        <extensions>
          <ns3:TrackPointExtension/>
        </extensions>
      </trkpt>
      <trkpt lat="50.1994849741458892822265625" lon="5.5341299436986446380615234375">
        <ele>225.1999969482421875</ele>
        <time>2025-04-30T02:36:44.000Z</time>
        <extensions>
          <ns3:TrackPointExtension/>
        </extensions>
      </trkpt>
      <trkpt lat="50.19926193170249462127685546875" lon="5.53419892676174640655517578125">
        <ele>223.8000030517578125</ele>
        <time>2025-04-30T02:36:47.000Z</time>
        <extensions>
          <ns3:TrackPointExtension/>
        </extensions>
      </trkpt>
      <trkpt lat="50.19885792396962642669677734375" lon="5.53440093062818050384521484375">
        <ele>215</ele>
        <time>2025-04-30T02:36:50.000Z</time>
        <extensions>
          <ns3:TrackPointExtension/>
        </extensions>
      </trkpt>
      <trkpt lat="50.1966989971697330474853515625" lon="5.535888969898223876953125">
        <ele>212</ele>
        <time>2025-04-30T02:36:53.000Z</time>
        <extensions>
          <ns3:TrackPointExtension/>
        </extensions>
      </trkpt>
      <trkpt lat="50.19607898779213428497314453125" lon="5.53661492653191089630126953125">
        <ele>211</ele>
        <time>2025-04-30T02:36:56.000Z</time>
        <extensions>
          <ns3:TrackPointExtension/>
        </extensions>
      </trkpt>
      <trkpt lat="50.194368995726108551025390625" lon="5.53917995654046535491943359375">
        <ele>219.8000030517578125</ele>
        <time>2025-04-30T02:36:59.000Z</time>
        <extensions>
          <ns3:TrackPointExtension/>
        </extensions>
      </trkpt>
      <trkpt lat="50.19397797994315624237060546875" lon="5.53963995538651943206787109375">
        <ele>219.399993896484375</ele>
        <time>2025-04-30T02:37:02.000Z</time>
        <extensions>
          <ns3:TrackPointExtension/>
        </extensions>
      </trkpt>
      <trkpt lat="50.193504989147186279296875" lon="5.5399109423160552978515625">
        <ele>217.399993896484375</ele>
        <time>2025-04-30T02:37:05.000Z</time>
        <extensions>
          <ns3:TrackPointExtension/>
        </extensions>
      </trkpt>
      <trkpt lat="50.19279998727142810821533203125" lon="5.5400019697844982147216796875">
        <ele>221.399993896484375</ele>
        <time>2025-04-30T02:37:08.000Z</time>
        <extensions>
          <ns3:TrackPointExtension/>
        </extensions>
      </trkpt>
      <trkpt lat="50.1917389221489429473876953125" lon="5.53990499116480350494384765625">
        <ele>222.8000030517578125</ele>
        <time>2025-04-30T02:37:11.000Z</time>
        <extensions>
          <ns3:TrackPointExtension/>
        </extensions>
      </trkpt>
      <trkpt lat="50.190623961389064788818359375" lon="5.539850927889347076416015625">
        <ele>213.600006103515625</ele>
        <time>2025-04-30T02:37:14.000Z</time>
        <extensions>
          <ns3:TrackPointExtension/>
        </extensions>
      </trkpt>
      <trkpt lat="50.190159939229488372802734375" lon="5.53983793593943119049072265625">
        <ele>210.600006103515625</ele>
        <time>2025-04-30T02:37:17.000Z</time>
        <extensions>
          <ns3:TrackPointExtension/>
        </extensions>
      </trkpt>
      <trkpt lat="50.18989196978509426116943359375" lon="5.5398829467594623565673828125">
        <ele>209.600006103515625</ele>
        <time>2025-04-30T02:37:20.000Z</time>
        <extensions>
          <ns3:TrackPointExtension/>
        </extensions>
      </trkpt>
      <trkpt lat="50.18981896340847015380859375" lon="5.538411922752857208251953125">
        <ele>216.1999969482421875</ele>
        <time>2025-04-30T02:37:23.000Z</time>
        <extensions>
          <ns3:TrackPointExtension/>
        </extensions>
      </trkpt>
      <trkpt lat="50.18977998755872249603271484375" lon="5.53803197108209133148193359375">
        <ele>219.399993896484375</ele>
        <time>2025-04-30T02:37:25.000Z</time>
        <extensions>
          <ns3:TrackPointExtension/>
        </extensions>
      </trkpt>
      <trkpt lat="50.18973891623318195343017578125" lon="5.53785997442901134490966796875">
        <ele>220</ele>
        <time>2025-04-30T02:37:27.000Z</time>
        <extensions>
          <ns3:TrackPointExtension/>
        </extensions>
      </trkpt>
      <trkpt lat="50.18959499895572662353515625" lon="5.53750894032418727874755859375">
        <ele>222</ele>
        <time>2025-04-30T02:37:29.000Z</time>
        <extensions>
          <ns3:TrackPointExtension/>
        </extensions>
      </trkpt>
      <trkpt lat="50.188498981297016143798828125" lon="5.53556299768388271331787109375">
        <ele>224.600006103515625</ele>
        <time>2025-04-30T02:37:32.000Z</time>
        <extensions>
          <ns3:TrackPointExtension/>
        </extensions>
      </trkpt>
      <trkpt lat="50.18821793608367443084716796875" lon="5.53503594361245632171630859375">
        <ele>222.399993896484375</ele>
        <time>2025-04-30T02:37:34.000Z</time>
        <extensions>
          <ns3:TrackPointExtension/>
        </extensions>
      </trkpt>
      <trkpt lat="50.1881269924342632293701171875" lon="5.534790940582752227783203125">
        <ele>222.8000030517578125</ele>
        <time>2025-04-30T02:37:36.000Z</time>
        <extensions>
          <ns3:TrackPointExtension/>
        </extensions>
      </trkpt>
      <trkpt lat="50.1880619488656520843505859375" lon="5.53452498279511928558349609375">
        <ele>223</ele>
        <time>2025-04-30T02:37:38.000Z</time>
        <extensions>
          <ns3:TrackPointExtension/>
        </extensions>
      </trkpt>
      <trkpt lat="50.18790696747601032257080078125" lon="5.5334379337728023529052734375">
        <ele>225.1999969482421875</ele>
        <time>2025-04-30T02:37:41.000Z</time>
        <extensions>
          <ns3:TrackPointExtension/>
        </extensions>
      </trkpt>
      <trkpt lat="50.187806971371173858642578125" lon="5.53297399543225765228271484375">
        <ele>223.600006103515625</ele>
        <time>2025-04-30T02:37:43.000Z</time>
        <extensions>
          <ns3:TrackPointExtension/>
        </extensions>
      </trkpt>
      <trkpt lat="50.187694989144802093505859375" lon="5.532669983804225921630859375">
        <ele>223.399993896484375</ele>
        <time>2025-04-30T02:37:45.000Z</time>
        <extensions>
          <ns3:TrackPointExtension/>
        </extensions>
      </trkpt>
      <trkpt lat="50.1871479861438274383544921875" lon="5.5316599644720554351806640625">
        <ele>220.1999969482421875</ele>
        <time>2025-04-30T02:37:47.000Z</time>
        <extensions>
          <ns3:TrackPointExtension/>
        </extensions>
      </trkpt>
      <trkpt lat="50.18704094924032688140869140625" lon="5.531399957835674285888671875">
        <ele>220.600006103515625</ele>
        <time>2025-04-30T02:37:50.000Z</time>
        <extensions>
          <ns3:TrackPointExtension/>
        </extensions>
      </trkpt>
      <trkpt lat="50.18695193342864513397216796875" lon="5.531114973127841949462890625">
        <ele>221</ele>
        <time>2025-04-30T02:37:52.000Z</time>
        <extensions>
          <ns3:TrackPointExtension/>
        </extensions>
      </trkpt>
      <trkpt lat="50.18655295483767986297607421875" lon="5.52960698492825031280517578125">
        <ele>227.399993896484375</ele>
        <time>2025-04-30T02:37:54.000Z</time>
        <extensions>
          <ns3:TrackPointExtension/>
        </extensions>
      </trkpt>
      <trkpt lat="50.186418928205966949462890625" lon="5.52915394306182861328125">
        <ele>229.8000030517578125</ele>
        <time>2025-04-30T02:37:56.000Z</time>
        <extensions>
          <ns3:TrackPointExtension/>
        </extensions>
      </trkpt>
      <trkpt lat="50.18623192794620990753173828125" lon="5.528643988072872161865234375">
        <ele>233</ele>
        <time>2025-04-30T02:37:59.000Z</time>
        <extensions>
          <ns3:TrackPointExtension/>
        </extensions>
      </trkpt>
      <trkpt lat="50.18595197238028049468994140625" lon="5.5280339531600475311279296875">
        <ele>233.600006103515625</ele>
        <time>2025-04-30T02:38:01.000Z</time>
        <extensions>
          <ns3:TrackPointExtension/>
        </extensions>
      </trkpt>
      <trkpt lat="50.185731947422027587890625" lon="5.52755492739379405975341796875">
        <ele>235.1999969482421875</ele>
        <time>2025-04-30T02:38:03.000Z</time>
        <extensions>
          <ns3:TrackPointExtension/>
        </extensions>
      </trkpt>
      <trkpt lat="50.18565692938864231109619140625" lon="5.52732794545590877532958984375">
        <ele>234</ele>
        <time>2025-04-30T02:38:05.000Z</time>
        <extensions>
          <ns3:TrackPointExtension/>
        </extensions>
      </trkpt>
      <trkpt lat="50.18551996909081935882568359375" lon="5.52672796882688999176025390625">
        <ele>227.8000030517578125</ele>
        <time>2025-04-30T02:38:08.000Z</time>
        <extensions>
          <ns3:TrackPointExtension/>
        </extensions>
      </trkpt>
      <trkpt lat="50.185392983257770538330078125" lon="5.525997988879680633544921875">
        <ele>228.8000030517578125</ele>
        <time>2025-04-30T02:38:10.000Z</time>
        <extensions>
          <ns3:TrackPointExtension/>
        </extensions>
      </trkpt>
      <trkpt lat="50.18522894941270351409912109375" lon="5.52476593293249607086181640625">
        <ele>234.399993896484375</ele>
        <time>2025-04-30T02:38:12.000Z</time>
        <extensions>
          <ns3:TrackPointExtension/>
        </extensions>
      </trkpt>
      <trkpt lat="50.18510498106479644775390625" lon="5.523638986051082611083984375">
        <ele>245.8000030517578125</ele>
        <time>2025-04-30T02:38:14.000Z</time>
        <extensions>
          <ns3:TrackPointExtension/>
        </extensions>
      </trkpt>
      <trkpt lat="50.18511093221604824066162109375" lon="5.52333396859467029571533203125">
        <ele>247.8000030517578125</ele>
        <time>2025-04-30T02:38:17.000Z</time>
        <extensions>
          <ns3:TrackPointExtension/>
        </extensions>
      </trkpt>
      <trkpt lat="50.18519693054258823394775390625" lon="5.52271194756031036376953125">
        <ele>242.8000030517578125</ele>
        <time>2025-04-30T02:38:19.000Z</time>
        <extensions>
          <ns3:TrackPointExtension/>
        </extensions>
      </trkpt>
      <trkpt lat="50.18534696660935878753662109375" lon="5.52186696790158748626708984375">
        <ele>244.1999969482421875</ele>
        <time>2025-04-30T02:38:21.000Z</time>
        <extensions>
          <ns3:TrackPointExtension/>
        </extensions>
      </trkpt>
      <trkpt lat="50.185726918280124664306640625" lon="5.52008396945893764495849609375">
        <ele>249.600006103515625</ele>
        <time>2025-04-30T02:38:23.000Z</time>
        <extensions>
          <ns3:TrackPointExtension/>
        </extensions>
      </trkpt>
      <trkpt lat="50.185734964907169342041015625" lon="5.51990794949233531951904296875">
        <ele>249.600006103515625</ele>
        <time>2025-04-30T02:38:26.000Z</time>
        <extensions>
          <ns3:TrackPointExtension/>
        </extensions>
      </trkpt>
      <trkpt lat="50.18572499044239521026611328125" lon="5.51954291760921478271484375">
        <ele>248.399993896484375</ele>
        <time>2025-04-30T02:38:28.000Z</time>
        <extensions>
          <ns3:TrackPointExtension/>
        </extensions>
      </trkpt>
      <trkpt lat="50.1857039518654346466064453125" lon="5.51932892762124538421630859375">
        <ele>247.8000030517578125</ele>
        <time>2025-04-30T02:38:30.000Z</time>
        <extensions>
          <ns3:TrackPointExtension/>
        </extensions>
      </trkpt>
      <trkpt lat="50.18559892661869525909423828125" lon="5.5188869498670101165771484375">
        <ele>246.600006103515625</ele>
        <time>2025-04-30T02:38:32.000Z</time>
        <extensions>
          <ns3:TrackPointExtension/>
        </extensions>
      </trkpt>
      <trkpt lat="50.18553991802036762237548828125" lon="5.51872995682060718536376953125">
        <ele>246</ele>
        <time>2025-04-30T02:38:35.000Z</time>
        <extensions>
          <ns3:TrackPointExtension/>
        </extensions>
      </trkpt>
      <trkpt lat="50.18531595356762409210205078125" lon="5.51827297545969486236572265625">
        <ele>243.600006103515625</ele>
        <time>2025-04-30T02:38:37.000Z</time>
        <extensions>
          <ns3:TrackPointExtension/>
        </extensions>
      </trkpt>
      <trkpt lat="50.1851339824497699737548828125" lon="5.5177969671785831451416015625">
        <ele>240.8000030517578125</ele>
        <time>2025-04-30T02:38:39.000Z</time>
        <extensions>
          <ns3:TrackPointExtension/>
        </extensions>
      </trkpt>
      <trkpt lat="50.185038931667804718017578125" lon="5.5174439214169979095458984375">
        <ele>241.1999969482421875</ele>
        <time>2025-04-30T02:38:41.000Z</time>
        <extensions>
          <ns3:TrackPointExtension/>
        </extensions>
      </trkpt>
      <trkpt lat="50.18499894998967647552490234375" lon="5.51706698723137378692626953125">
        <ele>240.8000030517578125</ele>
        <time>2025-04-30T02:38:44.000Z</time>
        <extensions>
          <ns3:TrackPointExtension/>
        </extensions>
      </trkpt>
      <trkpt lat="50.18487992696464061737060546875" lon="5.51706396974623203277587890625">
        <ele>241.8000030517578125</ele>
        <time>2025-04-30T02:38:47.000Z</time>
        <extensions>
          <ns3:TrackPointExtension/>
        </extensions>
      </trkpt>
      <trkpt lat="50.18476995639503002166748046875" lon="5.5169879458844661712646484375">
        <ele>242.600006103515625</ele>
        <time>2025-04-30T02:38:50.000Z</time>
        <extensions>
          <ns3:TrackPointExtension/>
        </extensions>
      </trkpt>
      <trkpt lat="50.18447893671691417694091796875" lon="5.51648796536028385162353515625">
        <ele>246</ele>
        <time>2025-04-30T02:38:53.000Z</time>
        <extensions>
          <ns3:TrackPointExtension/>
        </extensions>
      </trkpt>
      <trkpt lat="50.18402698449790477752685546875" lon="5.515576936304569244384765625">
        <ele>259.600006103515625</ele>
        <time>2025-04-30T02:38:56.000Z</time>
        <extensions>
          <ns3:TrackPointExtension/>
        </extensions>
      </trkpt>
      <trkpt lat="50.183320976793766021728515625" lon="5.513738952577114105224609375">
        <ele>271</ele>
        <time>2025-04-30T02:38:59.000Z</time>
        <extensions>
          <ns3:TrackPointExtension/>
        </extensions>
      </trkpt>
      <trkpt lat="50.18310598097741603851318359375" lon="5.51357097923755645751953125">
        <ele>272</ele>
        <time>2025-04-30T02:39:02.000Z</time>
        <extensions>
          <ns3:TrackPointExtension/>
        </extensions>
      </trkpt>
      <trkpt lat="50.1827779971063137054443359375" lon="5.5135379545390605926513671875">
        <ele>275.600006103515625</ele>
        <time>2025-04-30T02:39:05.000Z</time>
        <extensions>
          <ns3:TrackPointExtension/>
        </extensions>
      </trkpt>
      <trkpt lat="50.1821409724652767181396484375" lon="5.51333896815776824951171875">
        <ele>284</ele>
        <time>2025-04-30T02:39:08.000Z</time>
        <extensions>
          <ns3:TrackPointExtension/>
        </extensions>
      </trkpt>
      <trkpt lat="50.18180695362389087677001953125" lon="5.513508953154087066650390625">
        <ele>286</ele>
        <time>2025-04-30T02:39:12.000Z</time>
        <extensions>
          <ns3:TrackPointExtension/>
        </extensions>
      </trkpt>
      <trkpt lat="50.181417949497699737548828125" lon="5.5137459933757781982421875">
        <ele>291.20001220703125</ele>
        <time>2025-04-30T02:39:15.000Z</time>
        <extensions>
          <ns3:TrackPointExtension/>
        </extensions>
      </trkpt>
      <trkpt lat="50.1808179728686809539794921875" lon="5.51361297257244586944580078125">
        <ele>304.399993896484375</ele>
        <time>2025-04-30T02:39:18.000Z</time>
        <extensions>
          <ns3:TrackPointExtension/>
        </extensions>
      </trkpt>
      <trkpt lat="50.18071998842060565948486328125" lon="5.51346193067729473114013671875">
        <ele>306.600006103515625</ele>
        <time>2025-04-30T02:39:21.000Z</time>
        <extensions>
          <ns3:TrackPointExtension/>
        </extensions>
      </trkpt>
      <trkpt lat="50.1808719523251056671142578125" lon="5.51312095485627651214599609375">
        <ele>305</ele>
        <time>2025-04-30T02:39:24.000Z</time>
        <extensions>
          <ns3:TrackPointExtension/>
        </extensions>
      </trkpt>
      <trkpt lat="50.1815089769661426544189453125" lon="5.5123249255120754241943359375">
        <ele>312.600006103515625</ele>
        <time>2025-04-30T02:39:27.000Z</time>
        <extensions>
          <ns3:TrackPointExtension/>
        </extensions>
      </trkpt>
      <trkpt lat="50.18175196833908557891845703125" lon="5.51193592138588428497314453125">
        <ele>311</ele>
        <time>2025-04-30T02:39:30.000Z</time>
        <extensions>
          <ns3:TrackPointExtension/>
        </extensions>
      </trkpt>
      <trkpt lat="50.1817099750041961669921875" lon="5.511328987777233123779296875">
        <ele>305.600006103515625</ele>
        <time>2025-04-30T02:39:33.000Z</time>
        <extensions>
          <ns3:TrackPointExtension/>
        </extensions>
      </trkpt>
      <trkpt lat="50.1815579272806644439697265625" lon="5.51063798367977142333984375">
        <ele>302</ele>
        <time>2025-04-30T02:39:37.000Z</time>
        <extensions>
          <ns3:TrackPointExtension/>
        </extensions>
      </trkpt>
      <trkpt lat="50.18149598501622676849365234375" lon="5.5104339681565761566162109375">
        <ele>301.399993896484375</ele>
        <time>2025-04-30T02:39:40.000Z</time>
        <extensions>
          <ns3:TrackPointExtension/>
        </extensions>
      </trkpt>
      <trkpt lat="50.1812689192593097686767578125" lon="5.50989291630685329437255859375">
        <ele>299.399993896484375</ele>
        <time>2025-04-30T02:39:43.000Z</time>
        <extensions>
          <ns3:TrackPointExtension/>
        </extensions>
      </trkpt>
      <trkpt lat="50.18102995119988918304443359375" lon="5.50941498018801212310791015625">
        <ele>306.600006103515625</ele>
        <time>2025-04-30T02:39:46.000Z</time>
        <extensions>
          <ns3:TrackPointExtension/>
        </extensions>
      </trkpt>
      <trkpt lat="50.17948198132216930389404296875" lon="5.50722596235573291778564453125">
        <ele>324.20001220703125</ele>
        <time>2025-04-30T02:39:49.000Z</time>
        <extensions>
          <ns3:TrackPointExtension/>
        </extensions>
      </trkpt>
      <trkpt lat="50.179009996354579925537109375" lon="5.50652992911636829376220703125">
        <ele>329</ele>
        <time>2025-04-30T02:39:52.000Z</time>
        <extensions>
          <ns3:TrackPointExtension/>
        </extensions>
      </trkpt>
      <trkpt lat="50.17890497110784053802490234375" lon="5.50633194856345653533935546875">
        <ele>330.20001220703125</ele>
        <time>2025-04-30T02:39:55.000Z</time>
        <extensions>
          <ns3:TrackPointExtension/>
        </extensions>
      </trkpt>
      <trkpt lat="50.17853893339633941650390625" lon="5.50518195144832134246826171875">
        <ele>334.600006103515625</ele>
        <time>2025-04-30T02:39:58.000Z</time>
        <extensions>
          <ns3:TrackPointExtension/>
        </extensions>
      </trkpt>
      <trkpt lat="50.178425945341587066650390625" lon="5.50488598644733428955078125">
        <ele>336</ele>
        <time>2025-04-30T02:40:01.000Z</time>
        <extensions>
          <ns3:TrackPointExtension/>
        </extensions>
      </trkpt>
      <trkpt lat="50.17830499447882175445556640625" lon="5.5046279914677143096923828125">
        <ele>337.20001220703125</ele>
        <time>2025-04-30T02:40:05.000Z</time>
        <extensions>
          <ns3:TrackPointExtension/>
        </extensions>
      </trkpt>
      <trkpt lat="50.177218951284885406494140625" lon="5.50268699415028095245361328125">
        <ele>350.20001220703125</ele>
        <time>2025-04-30T02:40:08.000Z</time>
        <extensions>
          <ns3:TrackPointExtension/>
        </extensions>
      </trkpt>
      <trkpt lat="50.1770169474184513092041015625" lon="5.5023809708654880523681640625">
        <ele>353.600006103515625</ele>
        <time>2025-04-30T02:40:11.000Z</time>
        <extensions>
          <ns3:TrackPointExtension/>
        </extensions>
      </trkpt>
      <trkpt lat="50.17612494528293609619140625" lon="5.50137899816036224365234375">
        <ele>363.20001220703125</ele>
        <time>2025-04-30T02:40:14.000Z</time>
        <extensions>
          <ns3:TrackPointExtension/>
        </extensions>
      </trkpt>
      <trkpt lat="50.17505298368632793426513671875" lon="5.50044693052768707275390625">
        <ele>370.399993896484375</ele>
        <time>2025-04-30T02:40:17.000Z</time>
        <extensions>
          <ns3:TrackPointExtension/>
        </extensions>
      </trkpt>
      <trkpt lat="50.1748569309711456298828125" lon="5.500392951071262359619140625">
        <ele>372.600006103515625</ele>
        <time>2025-04-30T02:40:20.000Z</time>
        <extensions>
          <ns3:TrackPointExtension/>
        </extensions>
      </trkpt>
      <trkpt lat="50.17396199516952037811279296875" lon="5.5005979724228382110595703125">
        <ele>386.20001220703125</ele>
        <time>2025-04-30T02:40:23.000Z</time>
        <extensions>
          <ns3:TrackPointExtension/>
        </extensions>
      </trkpt>
      <trkpt lat="50.173599980771541595458984375" lon="5.500622950494289398193359375">
        <ele>387.20001220703125</ele>
        <time>2025-04-30T02:40:26.000Z</time>
        <extensions>
          <ns3:TrackPointExtension/>
        </extensions>
      </trkpt>
      <trkpt lat="50.17347492277622222900390625" lon="5.5005969665944576263427734375">
        <ele>387.399993896484375</ele>
        <time>2025-04-30T02:40:29.000Z</time>
        <extensions>
          <ns3:TrackPointExtension/>
        </extensions>
      </trkpt>
      <trkpt lat="50.173359923064708709716796875" lon="5.5005329288542270660400390625">
        <ele>387.600006103515625</ele>
        <time>2025-04-30T02:40:33.000Z</time>
        <extensions>
          <ns3:TrackPointExtension/>
        </extensions>
      </trkpt>
      <trkpt lat="50.17329798080027103424072265625" lon="5.50061197020113468170166015625">
        <ele>388</ele>
        <time>2025-04-30T02:40:35.000Z</time>
        <extensions>
          <ns3:TrackPointExtension/>
        </extensions>
      </trkpt>
      <trkpt lat="50.17323092557489871978759765625" lon="5.50066092051565647125244140625">
        <ele>388.399993896484375</ele>
        <time>2025-04-30T02:40:37.000Z</time>
        <extensions>
          <ns3:TrackPointExtension/>
        </extensions>
      </trkpt>
      <trkpt lat="50.1730529777705669403076171875" lon="5.50075697712600231170654296875">
        <ele>389.600006103515625</ele>
        <time>2025-04-30T02:40:39.000Z</time>
        <extensions>
          <ns3:TrackPointExtension/>
        </extensions>
      </trkpt>
      <trkpt lat="50.17279095947742462158203125" lon="5.5008249543607234954833984375">
        <ele>390</ele>
        <time>2025-04-30T02:40:41.000Z</time>
        <extensions>
          <ns3:TrackPointExtension/>
        </extensions>
      </trkpt>
      <trkpt lat="50.1724809966981410980224609375" lon="5.5008189193904399871826171875">
        <ele>390</ele>
        <time>2025-04-30T02:40:43.000Z</time>
        <extensions>
          <ns3:TrackPointExtension/>
        </extensions>
      </trkpt>
      <trkpt lat="50.171864926815032958984375" lon="5.50118696875870227813720703125">
        <ele>385.79998779296875</ele>
        <time>2025-04-30T02:40:45.000Z</time>
        <extensions>
          <ns3:TrackPointExtension/>
        </extensions>
      </trkpt>
      <trkpt lat="50.17171598039567470550537109375" lon="5.50124698318541049957275390625">
        <ele>384</ele>
        <time>2025-04-30T02:40:47.000Z</time>
        <extensions>
          <ns3:TrackPointExtension/>
        </extensions>
      </trkpt>
      <trkpt lat="50.171354971826076507568359375" lon="5.5011959373950958251953125">
        <ele>381</ele>
        <time>2025-04-30T02:40:49.000Z</time>
        <extensions>
          <ns3:TrackPointExtension/>
        </extensions>
      </trkpt>
      <trkpt lat="50.17087292857468128204345703125" lon="5.5009989626705646514892578125">
        <ele>377.399993896484375</ele>
        <time>2025-04-30T02:40:51.000Z</time>
        <extensions>
          <ns3:TrackPointExtension/>
        </extensions>
      </trkpt>
      <trkpt lat="50.17070193774998188018798828125" lon="5.50085596740245819091796875">
        <ele>376.79998779296875</ele>
        <time>2025-04-30T02:40:54.000Z</time>
        <extensions>
          <ns3:TrackPointExtension/>
        </extensions>
      </trkpt>
      <trkpt lat="50.17060697078704833984375" lon="5.50072294659912586212158203125">
        <ele>376.79998779296875</ele>
        <time>2025-04-30T02:40:56.000Z</time>
        <extensions>
          <ns3:TrackPointExtension/>
        </extensions>
      </trkpt>
      <trkpt lat="50.17025291919708251953125" lon="5.49988592974841594696044921875">
        <ele>381</ele>
        <time>2025-04-30T02:40:58.000Z</time>
        <extensions>
          <ns3:TrackPointExtension/>
        </extensions>
      </trkpt>
      <trkpt lat="50.170082934200763702392578125" lon="5.4996429383754730224609375">
        <ele>379.79998779296875</ele>
        <time>2025-04-30T02:41:00.000Z</time>
        <extensions>
          <ns3:TrackPointExtension/>
        </extensions>
      </trkpt>
      <trkpt lat="50.1698829419910907745361328125" lon="5.49948493950068950653076171875">
        <ele>378</ele>
        <time>2025-04-30T02:41:02.000Z</time>
        <extensions>
          <ns3:TrackPointExtension/>
        </extensions>
      </trkpt>
      <trkpt lat="50.16957499086856842041015625" lon="5.4993839375674724578857421875">
        <ele>379.20001220703125</ele>
        <time>2025-04-30T02:41:04.000Z</time>
        <extensions>
          <ns3:TrackPointExtension/>
        </extensions>
      </trkpt>
      <trkpt lat="50.16894492320716381072998046875" lon="5.499536991119384765625">
        <ele>380.600006103515625</ele>
        <time>2025-04-30T02:41:06.000Z</time>
        <extensions>
          <ns3:TrackPointExtension/>
        </extensions>
      </trkpt>
      <trkpt lat="50.16854493878781795501708984375" lon="5.4995569400489330291748046875">
        <ele>376.79998779296875</ele>
        <time>2025-04-30T02:41:08.000Z</time>
        <extensions>
          <ns3:TrackPointExtension/>
        </extensions>
      </trkpt>
      <trkpt lat="50.168010927736759185791015625" lon="5.4995089955627918243408203125">
        <ele>375</ele>
        <time>2025-04-30T02:41:10.000Z</time>
        <extensions>
          <ns3:TrackPointExtension/>
        </extensions>
      </trkpt>
      <trkpt lat="50.16728497110307216644287109375" lon="5.49931294284760951995849609375">
        <ele>373.79998779296875</ele>
        <time>2025-04-30T02:41:12.000Z</time>
        <extensions>
          <ns3:TrackPointExtension/>
        </extensions>
      </trkpt>
      <trkpt lat="50.167155973613262176513671875" lon="5.49931897781789302825927734375">
        <ele>374</ele>
        <time>2025-04-30T02:41:15.000Z</time>
        <extensions>
          <ns3:TrackPointExtension/>
        </extensions>
      </trkpt>
      <trkpt lat="50.1670129783451557159423828125" lon="5.4993849433958530426025390625">
        <ele>373.600006103515625</ele>
        <time>2025-04-30T02:41:17.000Z</time>
        <extensions>
          <ns3:TrackPointExtension/>
        </extensions>
      </trkpt>
      <trkpt lat="50.16684894450008869171142578125" lon="5.49951494671404361724853515625">
        <ele>369.79998779296875</ele>
        <time>2025-04-30T02:41:19.000Z</time>
        <extensions>
          <ns3:TrackPointExtension/>
        </extensions>
      </trkpt>
      <trkpt lat="50.1666589267551898956298828125" lon="5.49971493892371654510498046875">
        <ele>366.79998779296875</ele>
        <time>2025-04-30T02:41:21.000Z</time>
        <extensions>
          <ns3:TrackPointExtension/>
        </extensions>
      </trkpt>
      <trkpt lat="50.1663129217922687530517578125" lon="5.5001309327781200408935546875">
        <ele>363</ele>
        <time>2025-04-30T02:41:23.000Z</time>
        <extensions>
          <ns3:TrackPointExtension/>
        </extensions>
      </trkpt>
      <trkpt lat="50.16599399037659168243408203125" lon="5.5005929432809352874755859375">
        <ele>359</ele>
        <time>2025-04-30T02:41:25.000Z</time>
        <extensions>
          <ns3:TrackPointExtension/>
        </extensions>
      </trkpt>
      <trkpt lat="50.1653369329869747161865234375" lon="5.50173397175967693328857421875">
        <ele>353</ele>
        <time>2025-04-30T02:41:27.000Z</time>
        <extensions>
          <ns3:TrackPointExtension/>
        </extensions>
      </trkpt>
      <trkpt lat="50.165199972689151763916015625" lon="5.5019139312207698822021484375">
        <ele>352.20001220703125</ele>
        <time>2025-04-30T02:41:29.000Z</time>
        <extensions>
          <ns3:TrackPointExtension/>
        </extensions>
      </trkpt>
      <trkpt lat="50.16504297964274883270263671875" lon="5.50207092426717281341552734375">
        <ele>351.600006103515625</ele>
        <time>2025-04-30T02:41:31.000Z</time>
        <extensions>
          <ns3:TrackPointExtension/>
        </extensions>
      </trkpt>
      <trkpt lat="50.1648779399693012237548828125" lon="5.5022129975259304046630859375">
        <ele>353.20001220703125</ele>
        <time>2025-04-30T02:41:33.000Z</time>
        <extensions>
          <ns3:TrackPointExtension/>
        </extensions>
      </trkpt>
      <trkpt lat="50.16451491974294185638427734375" lon="5.50239496864378452301025390625">
        <ele>354.600006103515625</ele>
        <time>2025-04-30T02:41:36.000Z</time>
        <extensions>
          <ns3:TrackPointExtension/>
        </extensions>
      </trkpt>
      <trkpt lat="50.16388996504247188568115234375" lon="5.5025559850037097930908203125">
        <ele>350.399993896484375</ele>
        <time>2025-04-30T02:41:38.000Z</time>
        <extensions>
          <ns3:TrackPointExtension/>
        </extensions>
      </trkpt>
      <trkpt lat="50.16356592066586017608642578125" lon="5.502692945301532745361328125">
        <ele>347</ele>
        <time>2025-04-30T02:41:40.000Z</time>
        <extensions>
          <ns3:TrackPointExtension/>
        </extensions>
      </trkpt>
      <trkpt lat="50.1632689498364925384521484375" lon="5.5028949491679668426513671875">
        <ele>347.399993896484375</ele>
        <time>2025-04-30T02:41:42.000Z</time>
        <extensions>
          <ns3:TrackPointExtension/>
        </extensions>
      </trkpt>
      <trkpt lat="50.16249597072601318359375" lon="5.50360296852886676788330078125">
        <ele>341.399993896484375</ele>
        <time>2025-04-30T02:41:44.000Z</time>
        <extensions>
          <ns3:TrackPointExtension/>
        </extensions>
      </trkpt>
      <trkpt lat="50.16236395575106143951416015625" lon="5.5037659965455532073974609375">
        <ele>341.20001220703125</ele>
        <time>2025-04-30T02:41:46.000Z</time>
        <extensions>
          <ns3:TrackPointExtension/>
        </extensions>
      </trkpt>
      <trkpt lat="50.1621709205210208892822265625" lon="5.504127927124500274658203125">
        <ele>340.79998779296875</ele>
        <time>2025-04-30T02:41:48.000Z</time>
        <extensions>
          <ns3:TrackPointExtension/>
        </extensions>
      </trkpt>
      <trkpt lat="50.16209891997277736663818359375" lon="5.50436295568943023681640625">
        <ele>342</ele>
        <time>2025-04-30T02:41:50.000Z</time>
        <extensions>
          <ns3:TrackPointExtension/>
        </extensions>
      </trkpt>
      <trkpt lat="50.16193899326026439666748046875" lon="5.5051329173147678375244140625">
        <ele>350.600006103515625</ele>
        <time>2025-04-30T02:41:52.000Z</time>
        <extensions>
          <ns3:TrackPointExtension/>
        </extensions>
      </trkpt>
      <trkpt lat="50.1618919707834720611572265625" lon="5.50527599640190601348876953125">
        <ele>350.600006103515625</ele>
        <time>2025-04-30T02:41:54.000Z</time>
        <extensions>
          <ns3:TrackPointExtension/>
        </extensions>
      </trkpt>
      <trkpt lat="50.16181695275008678436279296875" lon="5.50543592311441898345947265625">
        <ele>350.79998779296875</ele>
        <time>2025-04-30T02:41:56.000Z</time>
        <extensions>
          <ns3:TrackPointExtension/>
        </extensions>
      </trkpt>
      <trkpt lat="50.16170899383723735809326171875" lon="5.50558998249471187591552734375">
        <ele>350.399993896484375</ele>
        <time>2025-04-30T02:41:59.000Z</time>
        <extensions>
          <ns3:TrackPointExtension/>
        </extensions>
      </trkpt>
      <trkpt lat="50.16159198246896266937255859375" lon="5.5057109333574771881103515625">
        <ele>349</ele>
        <time>2025-04-30T02:42:01.000Z</time>
        <extensions>
          <ns3:TrackPointExtension/>
        </extensions>
      </trkpt>
      <trkpt lat="50.16144295223057270050048828125" lon="5.50578092224895954132080078125">
        <ele>347</ele>
        <time>2025-04-30T02:42:03.000Z</time>
        <extensions>
          <ns3:TrackPointExtension/>
        </extensions>
      </trkpt>
      <trkpt lat="50.16126894392073154449462890625" lon="5.50580891780555248260498046875">
        <ele>344</ele>
        <time>2025-04-30T02:42:05.000Z</time>
        <extensions>
          <ns3:TrackPointExtension/>
        </extensions>
      </trkpt>
      <trkpt lat="50.1607979647815227508544921875" lon="5.5057789944112300872802734375">
        <ele>337.399993896484375</ele>
        <time>2025-04-30T02:42:07.000Z</time>
        <extensions>
          <ns3:TrackPointExtension/>
        </extensions>
      </trkpt>
      <trkpt lat="50.1603349484503269195556640625" lon="5.5055999569594860076904296875">
        <ele>337.600006103515625</ele>
        <time>2025-04-30T02:42:09.000Z</time>
        <extensions>
          <ns3:TrackPointExtension/>
        </extensions>
      </trkpt>
      <trkpt lat="50.15928796492516994476318359375" lon="5.50495195202529430389404296875">
        <ele>340</ele>
        <time>2025-04-30T02:42:11.000Z</time>
        <extensions>
          <ns3:TrackPointExtension/>
        </extensions>
      </trkpt>
      <trkpt lat="50.15902594663202762603759765625" lon="5.5049069412052631378173828125">
        <ele>337</ele>
        <time>2025-04-30T02:42:13.000Z</time>
        <extensions>
          <ns3:TrackPointExtension/>
        </extensions>
      </trkpt>
      <trkpt lat="50.1588439755141735076904296875" lon="5.50497491843998432159423828125">
        <ele>334</ele>
        <time>2025-04-30T02:42:15.000Z</time>
        <extensions>
          <ns3:TrackPointExtension/>
        </extensions>
      </trkpt>
      <trkpt lat="50.1587779261171817779541015625" lon="5.5050199292600154876708984375">
        <ele>332.79998779296875</ele>
        <time>2025-04-30T02:42:17.000Z</time>
        <extensions>
          <ns3:TrackPointExtension/>
        </extensions>
      </trkpt>
      <trkpt lat="50.158645994961261749267578125" lon="5.50516099669039249420166015625">
        <ele>331.399993896484375</ele>
        <time>2025-04-30T02:42:20.000Z</time>
        <extensions>
          <ns3:TrackPointExtension/>
        </extensions>
      </trkpt>
      <trkpt lat="50.15857097692787647247314453125" lon="5.50527197308838367462158203125">
        <ele>330.20001220703125</ele>
        <time>2025-04-30T02:42:22.000Z</time>
        <extensions>
          <ns3:TrackPointExtension/>
        </extensions>
      </trkpt>
      <trkpt lat="50.15850693918764591217041015625" lon="5.505391918122768402099609375">
        <ele>329.600006103515625</ele>
        <time>2025-04-30T02:42:24.000Z</time>
        <extensions>
          <ns3:TrackPointExtension/>
        </extensions>
      </trkpt>
      <trkpt lat="50.15840895473957061767578125" lon="5.50567799247801303863525390625">
        <ele>330.20001220703125</ele>
        <time>2025-04-30T02:42:26.000Z</time>
        <extensions>
          <ns3:TrackPointExtension/>
        </extensions>
      </trkpt>
      <trkpt lat="50.15708394348621368408203125" lon="5.5101679265499114990234375">
        <ele>353.399993896484375</ele>
        <time>2025-04-30T02:42:28.000Z</time>
        <extensions>
          <ns3:TrackPointExtension/>
        </extensions>
      </trkpt>
      <trkpt lat="50.156852938234806060791015625" lon="5.51076195202767848968505859375">
        <ele>356.600006103515625</ele>
        <time>2025-04-30T02:42:30.000Z</time>
        <extensions>
          <ns3:TrackPointExtension/>
        </extensions>
      </trkpt>
      <trkpt lat="50.156567953526973724365234375" lon="5.5112439952790737152099609375">
        <ele>358</ele>
        <time>2025-04-30T02:42:32.000Z</time>
        <extensions>
          <ns3:TrackPointExtension/>
        </extensions>
      </trkpt>
      <trkpt lat="50.15612899325788021087646484375" lon="5.51173693500459194183349609375">
        <ele>360.399993896484375</ele>
        <time>2025-04-30T02:42:34.000Z</time>
        <extensions>
          <ns3:TrackPointExtension/>
        </extensions>
      </trkpt>
      <trkpt lat="50.15587292611598968505859375" lon="5.5119869671761989593505859375">
        <ele>360.399993896484375</ele>
        <time>2025-04-30T02:42:36.000Z</time>
        <extensions>
          <ns3:TrackPointExtension/>
        </extensions>
      </trkpt>
      <trkpt lat="50.15545793808996677398681640625" lon="5.51234495826065540313720703125">
        <ele>363</ele>
        <time>2025-04-30T02:42:38.000Z</time>
        <extensions>
          <ns3:TrackPointExtension/>
        </extensions>
      </trkpt>
      <trkpt lat="50.1551549322903156280517578125" lon="5.51254495047032833099365234375">
        <ele>364.399993896484375</ele>
        <time>2025-04-30T02:42:40.000Z</time>
        <extensions>
          <ns3:TrackPointExtension/>
        </extensions>
      </trkpt>
      <trkpt lat="50.153227932751178741455078125" lon="5.51367499865591526031494140625">
        <ele>375</ele>
        <time>2025-04-30T02:42:43.000Z</time>
        <extensions>
          <ns3:TrackPointExtension/>
        </extensions>
      </trkpt>
      <trkpt lat="50.15309692360460758209228515625" lon="5.5138239450752735137939453125">
        <ele>376.20001220703125</ele>
        <time>2025-04-30T02:42:45.000Z</time>
        <extensions>
          <ns3:TrackPointExtension/>
        </extensions>
      </trkpt>
      <trkpt lat="50.15301796607673168182373046875" lon="5.5139449797570705413818359375">
        <ele>377.399993896484375</ele>
        <time>2025-04-30T02:42:47.000Z</time>
        <extensions>
          <ns3:TrackPointExtension/>
        </extensions>
      </trkpt>
      <trkpt lat="50.15292593277990818023681640625" lon="5.51414991728961467742919921875">
        <ele>379.20001220703125</ele>
        <time>2025-04-30T02:42:49.000Z</time>
        <extensions>
          <ns3:TrackPointExtension/>
        </extensions>
      </trkpt>
      <trkpt lat="50.1527469791471958160400390625" lon="5.5148589424788951873779296875">
        <ele>383</ele>
        <time>2025-04-30T02:42:51.000Z</time>
        <extensions>
          <ns3:TrackPointExtension/>
        </extensions>
      </trkpt>
      <trkpt lat="50.15264497138559818267822265625" lon="5.51516094245016574859619140625">
        <ele>384.20001220703125</ele>
        <time>2025-04-30T02:42:53.000Z</time>
        <extensions>
          <ns3:TrackPointExtension/>
        </extensions>
      </trkpt>
      <trkpt lat="50.15246392227709293365478515625" lon="5.51556595601141452789306640625">
        <ele>385.399993896484375</ele>
        <time>2025-04-30T02:42:55.000Z</time>
        <extensions>
          <ns3:TrackPointExtension/>
        </extensions>
      </trkpt>
      <trkpt lat="50.1523429714143276214599609375" lon="5.51611798815429210662841796875">
        <ele>384.20001220703125</ele>
        <time>2025-04-30T02:42:57.000Z</time>
        <extensions>
          <ns3:TrackPointExtension/>
        </extensions>
      </trkpt>
      <trkpt lat="50.15230692923069000244140625" lon="5.51646499894559383392333984375">
        <ele>385</ele>
        <time>2025-04-30T02:42:59.000Z</time>
        <extensions>
          <ns3:TrackPointExtension/>
        </extensions>
      </trkpt>
      <trkpt lat="50.1523129642009735107421875" lon="5.5168179608881473541259765625">
        <ele>386.20001220703125</ele>
        <time>2025-04-30T02:43:01.000Z</time>
        <extensions>
          <ns3:TrackPointExtension/>
        </extensions>
      </trkpt>
      <trkpt lat="50.15235294587910175323486328125" lon="5.51713295280933380126953125">
        <ele>386.79998779296875</ele>
        <time>2025-04-30T02:43:04.000Z</time>
        <extensions>
          <ns3:TrackPointExtension/>
        </extensions>
      </trkpt>
      <trkpt lat="50.152197964489459991455078125" lon="5.517481975257396697998046875">
        <ele>388.600006103515625</ele>
        <time>2025-04-30T02:43:16.000Z</time>
        <extensions>
          <ns3:TrackPointExtension/>
        </extensions>
      </trkpt>
      <trkpt lat="50.1515349559485912322998046875" lon="5.518690980970859527587890625">
        <ele>396.20001220703125</ele>
        <time>2025-04-30T02:43:28.000Z</time>
        <extensions>
          <ns3:TrackPointExtension/>
        </extensions>
      </trkpt>
      <trkpt lat="50.151450969278812408447265625" lon="5.51881897263228893280029296875">
        <ele>396.20001220703125</ele>
        <time>2025-04-30T02:43:40.000Z</time>
        <extensions>
          <ns3:TrackPointExtension/>
        </extensions>
      </trkpt>
      <trkpt lat="50.15151995234191417694091796875" lon="5.51892592571675777435302734375">
        <ele>396</ele>
        <time>2025-04-30T02:43:41.000Z</time>
        <extensions>
          <ns3:TrackPointExtension/>
        </extensions>
      </trkpt>
      <trkpt lat="50.15091997571289539337158203125" lon="5.51985598169267177581787109375">
        <ele>398.79998779296875</ele>
        <time>2025-04-30T02:44:09.000Z</time>
        <extensions>
          <ns3:TrackPointExtension/>
        </extensions>
      </trkpt>
      <trkpt lat="50.1507919840514659881591796875" lon="5.51971298642456531524658203125">
        <ele>398.79998779296875</ele>
        <time>2025-04-30T02:44:15.000Z</time>
        <extensions>
          <ns3:TrackPointExtension/>
        </extensions>
      </trkpt>
      <trkpt lat="50.15002596192061901092529296875" lon="5.51840993575751781463623046875">
        <ele>401</ele>
        <time>2025-04-30T02:44:22.000Z</time>
        <extensions>
          <ns3:TrackPointExtension/>
        </extensions>
      </trkpt>
      <trkpt lat="50.14991096220910549163818359375" lon="5.51817792467772960662841796875">
        <ele>401.600006103515625</ele>
        <time>2025-04-30T02:44:28.000Z</time>
        <extensions>
          <ns3:TrackPointExtension/>
        </extensions>
      </trkpt>
      <trkpt lat="50.1498099602758884429931640625" lon="5.51791892386972904205322265625">
        <ele>402.600006103515625</ele>
        <time>2025-04-30T02:44:34.000Z</time>
        <extensions>
          <ns3:TrackPointExtension/>
        </extensions>
      </trkpt>
      <trkpt lat="50.14950896613299846649169921875" lon="5.516844950616359710693359375">
        <ele>403.79998779296875</ele>
        <time>2025-04-30T02:44:40.000Z</time>
        <extensions>
          <ns3:TrackPointExtension/>
        </extensions>
      </trkpt>
      <trkpt lat="50.149378962814807891845703125" lon="5.516442954540252685546875">
        <ele>404.79998779296875</ele>
        <time>2025-04-30T02:44:47.000Z</time>
        <extensions>
          <ns3:TrackPointExtension/>
        </extensions>
      </trkpt>
      <trkpt lat="50.1488309539854526519775390625" lon="5.5150389857590198516845703125">
        <ele>405.79998779296875</ele>
        <time>2025-04-30T02:44:53.000Z</time>
        <extensions>
          <ns3:TrackPointExtension/>
        </extensions>
      </trkpt>
      <trkpt lat="50.14878594316542148590087890625" lon="5.51482398994266986846923828125">
        <ele>406.600006103515625</ele>
        <time>2025-04-30T02:44:59.000Z</time>
        <extensions>
          <ns3:TrackPointExtension/>
        </extensions>
      </trkpt>
      <trkpt lat="50.1481409557163715362548828125" lon="5.5149699188768863677978515625">
        <ele>406.399993896484375</ele>
        <time>2025-04-30T02:45:02.000Z</time>
        <extensions>
          <ns3:TrackPointExtension/>
        </extensions>
      </trkpt>
      <trkpt lat="50.14703798107802867889404296875" lon="5.515286922454833984375">
        <ele>400.600006103515625</ele>
        <time>2025-04-30T02:45:04.000Z</time>
        <extensions>
          <ns3:TrackPointExtension/>
        </extensions>
      </trkpt>
      <trkpt lat="50.14685592614114284515380859375" lon="5.51530092023313045501708984375">
        <ele>400</ele>
        <time>2025-04-30T02:45:07.000Z</time>
        <extensions>
          <ns3:TrackPointExtension/>
        </extensions>
      </trkpt>
      <trkpt lat="50.14671896584331989288330078125" lon="5.51528398878872394561767578125">
        <ele>399.600006103515625</ele>
        <time>2025-04-30T02:45:09.000Z</time>
        <extensions>
          <ns3:TrackPointExtension/>
        </extensions>
      </trkpt>
      <trkpt lat="50.14657898806035518646240234375" lon="5.51523797214031219482421875">
        <ele>398.79998779296875</ele>
        <time>2025-04-30T02:45:12.000Z</time>
        <extensions>
          <ns3:TrackPointExtension/>
        </extensions>
      </trkpt>
      <trkpt lat="50.14620297588407993316650390625" lon="5.51504292525351047515869140625">
        <ele>399</ele>
        <time>2025-04-30T02:45:15.000Z</time>
        <extensions>
          <ns3:TrackPointExtension/>
        </extensions>
      </trkpt>
      <trkpt lat="50.14552496373653411865234375" lon="5.5146329663693904876708984375">
        <ele>396.20001220703125</ele>
        <time>2025-04-30T02:45:17.000Z</time>
        <extensions>
          <ns3:TrackPointExtension/>
        </extensions>
      </trkpt>
      <trkpt lat="50.1448069699108600616455078125" lon="5.5139479972422122955322265625">
        <ele>394.20001220703125</ele>
        <time>2025-04-30T02:45:20.000Z</time>
        <extensions>
          <ns3:TrackPointExtension/>
        </extensions>
      </trkpt>
      <trkpt lat="50.14441997744143009185791015625" lon="5.51354792900383472442626953125">
        <ele>391.79998779296875</ele>
        <time>2025-04-30T02:45:22.000Z</time>
        <extensions>
          <ns3:TrackPointExtension/>
        </extensions>
      </trkpt>
      <trkpt lat="50.14425694942474365234375" lon="5.5133039318025112152099609375">
        <ele>391.20001220703125</ele>
        <time>2025-04-30T02:45:25.000Z</time>
        <extensions>
          <ns3:TrackPointExtension/>
        </extensions>
      </trkpt>
      <trkpt lat="50.1439959369599819183349609375" lon="5.5127889476716518402099609375">
        <ele>391.20001220703125</ele>
        <time>2025-04-30T02:45:27.000Z</time>
        <extensions>
          <ns3:TrackPointExtension/>
        </extensions>
      </trkpt>
      <trkpt lat="50.14361699111759662628173828125" lon="5.512352921068668365478515625">
        <ele>393.399993896484375</ele>
        <time>2025-04-30T02:45:30.000Z</time>
        <extensions>
          <ns3:TrackPointExtension/>
        </extensions>
      </trkpt>
      <trkpt lat="50.143508948385715484619140625" lon="5.51229399628937244415283203125">
        <ele>393.399993896484375</ele>
        <time>2025-04-30T02:45:33.000Z</time>
        <extensions>
          <ns3:TrackPointExtension/>
        </extensions>
      </trkpt>
      <trkpt lat="50.14334893785417079925537109375" lon="5.51226298324763774871826171875">
        <ele>393.20001220703125</ele>
        <time>2025-04-30T02:45:35.000Z</time>
        <extensions>
          <ns3:TrackPointExtension/>
        </extensions>
      </trkpt>
      <trkpt lat="50.14315699227154254913330078125" lon="5.51231394521892070770263671875">
        <ele>393.20001220703125</ele>
        <time>2025-04-30T02:45:38.000Z</time>
        <extensions>
          <ns3:TrackPointExtension/>
        </extensions>
      </trkpt>
      <trkpt lat="50.141379944980144500732421875" lon="5.513227991759777069091796875">
        <ele>381.20001220703125</ele>
        <time>2025-04-30T02:45:40.000Z</time>
        <extensions>
          <ns3:TrackPointExtension/>
        </extensions>
      </trkpt>
      <trkpt lat="50.1412419788539409637451171875" lon="5.513339973986148834228515625">
        <ele>380.399993896484375</ele>
        <time>2025-04-30T02:45:43.000Z</time>
        <extensions>
          <ns3:TrackPointExtension/>
        </extensions>
      </trkpt>
      <trkpt lat="50.14111298136413097381591796875" lon="5.51349696703255176544189453125">
        <ele>381.399993896484375</ele>
        <time>2025-04-30T02:45:45.000Z</time>
        <extensions>
          <ns3:TrackPointExtension/>
        </extensions>
      </trkpt>
      <trkpt lat="50.1409469358623027801513671875" lon="5.5138789303600788116455078125">
        <ele>382.20001220703125</ele>
        <time>2025-04-30T02:45:48.000Z</time>
        <extensions>
          <ns3:TrackPointExtension/>
        </extensions>
      </trkpt>
      <trkpt lat="50.14062196947634220123291015625" lon="5.5148569308221340179443359375">
        <ele>377</ele>
        <time>2025-04-30T02:45:51.000Z</time>
        <extensions>
          <ns3:TrackPointExtension/>
        </extensions>
      </trkpt>
      <trkpt lat="50.14004797674715518951416015625" lon="5.51775899715721607208251953125">
        <ele>350.20001220703125</ele>
        <time>2025-04-30T02:45:53.000Z</time>
        <extensions>
          <ns3:TrackPointExtension/>
        </extensions>
      </trkpt>
      <trkpt lat="50.14001495204865932464599609375" lon="5.51805697381496429443359375">
        <ele>351.600006103515625</ele>
        <time>2025-04-30T02:45:56.000Z</time>
        <extensions>
          <ns3:TrackPointExtension/>
        </extensions>
      </trkpt>
      <trkpt lat="50.1400269381701946258544921875" lon="5.518167950212955474853515625">
        <ele>352</ele>
        <time>2025-04-30T02:45:58.000Z</time>
        <extensions>
          <ns3:TrackPointExtension/>
        </extensions>
      </trkpt>
      <trkpt lat="50.1401509903371334075927734375" lon="5.51852493546903133392333984375">
        <ele>353.600006103515625</ele>
        <time>2025-04-30T02:46:01.000Z</time>
        <extensions>
          <ns3:TrackPointExtension/>
        </extensions>
      </trkpt>
      <trkpt lat="50.14051593840122222900390625" lon="5.5191239900887012481689453125">
        <ele>355</ele>
        <time>2025-04-30T02:46:03.000Z</time>
        <extensions>
          <ns3:TrackPointExtension/>
        </extensions>
      </trkpt>
      <trkpt lat="50.1406069658696651458740234375" lon="5.51933798007667064666748046875">
        <ele>355.600006103515625</ele>
        <time>2025-04-30T02:46:06.000Z</time>
        <extensions>
          <ns3:TrackPointExtension/>
        </extensions>
      </trkpt>
      <trkpt lat="50.14070897363126277923583984375" lon="5.51979898475110530853271484375">
        <ele>359.399993896484375</ele>
        <time>2025-04-30T02:46:09.000Z</time>
        <extensions>
          <ns3:TrackPointExtension/>
        </extensions>
      </trkpt>
      <trkpt lat="50.1407749392092227935791015625" lon="5.5199209414422512054443359375">
        <ele>360.399993896484375</ele>
        <time>2025-04-30T02:46:11.000Z</time>
        <extensions>
          <ns3:TrackPointExtension/>
        </extensions>
      </trkpt>
      <trkpt lat="50.14087191782891750335693359375" lon="5.5199819616973400115966796875">
        <ele>360.20001220703125</ele>
        <time>2025-04-30T02:46:14.000Z</time>
        <extensions>
          <ns3:TrackPointExtension/>
        </extensions>
      </trkpt>
      <trkpt lat="50.14096294529736042022705078125" lon="5.51999696530401706695556640625">
        <ele>359.399993896484375</ele>
        <time>2025-04-30T02:46:16.000Z</time>
        <extensions>
          <ns3:TrackPointExtension/>
        </extensions>
      </trkpt>
      <trkpt lat="50.14111499302089214324951171875" lon="5.51996695809066295623779296875">
        <ele>358.399993896484375</ele>
        <time>2025-04-30T02:46:19.000Z</time>
        <extensions>
          <ns3:TrackPointExtension/>
        </extensions>
      </trkpt>
      <trkpt lat="50.14127491973340511322021484375" lon="5.5199839733541011810302734375">
        <ele>358.600006103515625</ele>
        <time>2025-04-30T02:46:21.000Z</time>
        <extensions>
          <ns3:TrackPointExtension/>
        </extensions>
      </trkpt>
      <trkpt lat="50.14142797328531742095947265625" lon="5.52007894031703472137451171875">
        <ele>359.600006103515625</ele>
        <time>2025-04-30T02:46:24.000Z</time>
        <extensions>
          <ns3:TrackPointExtension/>
        </extensions>
      </trkpt>
      <trkpt lat="50.1416479982435703277587890625" lon="5.52028094418346881866455078125">
        <ele>362.600006103515625</ele>
        <time>2025-04-30T02:46:27.000Z</time>
        <extensions>
          <ns3:TrackPointExtension/>
        </extensions>
      </trkpt>
      <trkpt lat="50.14183499850332736968994140625" lon="5.52048998884856700897216796875">
        <ele>364</ele>
        <time>2025-04-30T02:46:29.000Z</time>
        <extensions>
          <ns3:TrackPointExtension/>
        </extensions>
      </trkpt>
      <trkpt lat="50.14202895574271678924560546875" lon="5.52076198160648345947265625">
        <ele>365.20001220703125</ele>
        <time>2025-04-30T02:46:32.000Z</time>
        <extensions>
          <ns3:TrackPointExtension/>
        </extensions>
      </trkpt>
      <trkpt lat="50.14252399094402790069580078125" lon="5.52172699011862277984619140625">
        <ele>371.399993896484375</ele>
        <time>2025-04-30T02:46:34.000Z</time>
        <extensions>
          <ns3:TrackPointExtension/>
        </extensions>
      </trkpt>
      <trkpt lat="50.14257193543016910552978515625" lon="5.52188691683113574981689453125">
        <ele>372.399993896484375</ele>
        <time>2025-04-30T02:46:37.000Z</time>
        <extensions>
          <ns3:TrackPointExtension/>
        </extensions>
      </trkpt>
      <trkpt lat="50.14257193543016910552978515625" lon="5.5233429372310638427734375">
        <ele>383.399993896484375</ele>
        <time>2025-04-30T02:46:39.000Z</time>
        <extensions>
          <ns3:TrackPointExtension/>
        </extensions>
      </trkpt>
      <trkpt lat="50.14252097345888614654541015625" lon="5.523636974394321441650390625">
        <ele>385</ele>
        <time>2025-04-30T02:46:42.000Z</time>
        <extensions>
          <ns3:TrackPointExtension/>
        </extensions>
      </trkpt>
      <trkpt lat="50.14243296347558498382568359375" lon="5.523980967700481414794921875">
        <ele>387.399993896484375</ele>
        <time>2025-04-30T02:46:45.000Z</time>
        <extensions>
          <ns3:TrackPointExtension/>
        </extensions>
      </trkpt>
      <trkpt lat="50.1424209773540496826171875" lon="5.524204932153224945068359375">
        <ele>388.20001220703125</ele>
        <time>2025-04-30T02:46:47.000Z</time>
        <extensions>
          <ns3:TrackPointExtension/>
        </extensions>
      </trkpt>
      <trkpt lat="50.1424519903957843780517578125" lon="5.52440199069678783416748046875">
        <ele>389.20001220703125</ele>
        <time>2025-04-30T02:46:50.000Z</time>
        <extensions>
          <ns3:TrackPointExtension/>
        </extensions>
      </trkpt>
      <trkpt lat="50.14251493848860263824462890625" lon="5.52462897263467311859130859375">
        <ele>389.79998779296875</ele>
        <time>2025-04-30T02:46:52.000Z</time>
        <extensions>
          <ns3:TrackPointExtension/>
        </extensions>
      </trkpt>
      <trkpt lat="50.14263094402849674224853515625" lon="5.524841956794261932373046875">
        <ele>391</ele>
        <time>2025-04-30T02:46:55.000Z</time>
        <extensions>
          <ns3:TrackPointExtension/>
        </extensions>
      </trkpt>
      <trkpt lat="50.14294995926320552825927734375" lon="5.52528996951878070831298828125">
        <ele>395</ele>
        <time>2025-04-30T02:46:58.000Z</time>
        <extensions>
          <ns3:TrackPointExtension/>
        </extensions>
      </trkpt>
      <trkpt lat="50.14303495176136493682861328125" lon="5.5254449509084224700927734375">
        <ele>395.600006103515625</ele>
        <time>2025-04-30T02:47:00.000Z</time>
        <extensions>
          <ns3:TrackPointExtension/>
        </extensions>
      </trkpt>
      <trkpt lat="50.143107958137989044189453125" lon="5.52571895532310009002685546875">
        <ele>396.600006103515625</ele>
        <time>2025-04-30T02:47:03.000Z</time>
        <extensions>
          <ns3:TrackPointExtension/>
        </extensions>
      </trkpt>
      <trkpt lat="50.1431369595229625701904296875" lon="5.52623595111072063446044921875">
        <ele>396</ele>
        <time>2025-04-30T02:47:05.000Z</time>
        <extensions>
          <ns3:TrackPointExtension/>
        </extensions>
      </trkpt>
      <trkpt lat="50.143056996166706085205078125" lon="5.52781694568693637847900390625">
        <ele>402.79998779296875</ele>
        <time>2025-04-30T02:47:08.000Z</time>
        <extensions>
          <ns3:TrackPointExtension/>
        </extensions>
      </trkpt>
      <trkpt lat="50.14297594316303730010986328125" lon="5.52850694395601749420166015625">
        <ele>404.600006103515625</ele>
        <time>2025-04-30T02:47:10.000Z</time>
        <extensions>
          <ns3:TrackPointExtension/>
        </extensions>
      </trkpt>
      <trkpt lat="50.14286295510828495025634765625" lon="5.52900399081408977508544921875">
        <ele>407.399993896484375</ele>
        <time>2025-04-30T02:47:13.000Z</time>
        <extensions>
          <ns3:TrackPointExtension/>
        </extensions>
      </trkpt>
      <trkpt lat="50.1427289284765720367431640625" lon="5.52934194914996623992919921875">
        <ele>408.600006103515625</ele>
        <time>2025-04-30T02:47:16.000Z</time>
        <extensions>
          <ns3:TrackPointExtension/>
        </extensions>
      </trkpt>
      <trkpt lat="50.14254595153033733367919921875" lon="5.529732964932918548583984375">
        <ele>409</ele>
        <time>2025-04-30T02:47:18.000Z</time>
        <extensions>
          <ns3:TrackPointExtension/>
        </extensions>
      </trkpt>
      <trkpt lat="50.142360962927341461181640625" lon="5.53008894436061382293701171875">
        <ele>407.20001220703125</ele>
        <time>2025-04-30T02:47:21.000Z</time>
        <extensions>
          <ns3:TrackPointExtension/>
        </extensions>
      </trkpt>
      <trkpt lat="50.14219491742551326751708984375" lon="5.530357919633388519287109375">
        <ele>403.79998779296875</ele>
        <time>2025-04-30T02:47:23.000Z</time>
        <extensions>
          <ns3:TrackPointExtension/>
        </extensions>
      </trkpt>
      <trkpt lat="50.14205594547092914581298828125" lon="5.53052899427711963653564453125">
        <ele>402.79998779296875</ele>
        <time>2025-04-30T02:47:26.000Z</time>
        <extensions>
          <ns3:TrackPointExtension/>
        </extensions>
      </trkpt>
      <trkpt lat="50.14012995176017284393310546875" lon="5.532262958586215972900390625">
        <ele>396.600006103515625</ele>
        <time>2025-04-30T02:47:28.000Z</time>
        <extensions>
          <ns3:TrackPointExtension/>
        </extensions>
      </trkpt>
      <trkpt lat="50.13992995955049991607666015625" lon="5.5325269885361194610595703125">
        <ele>394</ele>
        <time>2025-04-30T02:47:31.000Z</time>
        <extensions>
          <ns3:TrackPointExtension/>
        </extensions>
      </trkpt>
      <trkpt lat="50.1397399418056011199951171875" lon="5.53285396657884120941162109375">
        <ele>391</ele>
        <time>2025-04-30T02:47:34.000Z</time>
        <extensions>
          <ns3:TrackPointExtension/>
        </extensions>
      </trkpt>
      <trkpt lat="50.139706917107105255126953125" lon="5.5329789407551288604736328125">
        <ele>390.20001220703125</ele>
        <time>2025-04-30T02:47:36.000Z</time>
        <extensions>
          <ns3:TrackPointExtension/>
        </extensions>
      </trkpt>
      <trkpt lat="50.13969493098556995391845703125" lon="5.533178932964801788330078125">
        <ele>389.399993896484375</ele>
        <time>2025-04-30T02:47:39.000Z</time>
        <extensions>
          <ns3:TrackPointExtension/>
        </extensions>
      </trkpt>
      <trkpt lat="50.13981697149574756622314453125" lon="5.53400899283587932586669921875">
        <ele>388</ele>
        <time>2025-04-30T02:47:41.000Z</time>
        <extensions>
          <ns3:TrackPointExtension/>
        </extensions>
      </trkpt>
      <trkpt lat="50.1398219168186187744140625" lon="5.53416992537677288055419921875">
        <ele>387.399993896484375</ele>
        <time>2025-04-30T02:47:44.000Z</time>
        <extensions>
          <ns3:TrackPointExtension/>
        </extensions>
      </trkpt>
      <trkpt lat="50.1397999562323093414306640625" lon="5.53432297892868518829345703125">
        <ele>386.79998779296875</ele>
        <time>2025-04-30T02:47:46.000Z</time>
        <extensions>
          <ns3:TrackPointExtension/>
        </extensions>
      </trkpt>
      <trkpt lat="50.13969593681395053863525390625" lon="5.5345419980585575103759765625">
        <ele>385.20001220703125</ele>
        <time>2025-04-30T02:47:49.000Z</time>
        <extensions>
          <ns3:TrackPointExtension/>
        </extensions>
      </trkpt>
      <trkpt lat="50.13957892544567584991455078125" lon="5.534965954720973968505859375">
        <ele>382.79998779296875</ele>
        <time>2025-04-30T02:47:52.000Z</time>
        <extensions>
          <ns3:TrackPointExtension/>
        </extensions>
      </trkpt>
      <trkpt lat="50.13949996791779994964599609375" lon="5.5353399552404880523681640625">
        <ele>381.20001220703125</ele>
        <time>2025-04-30T02:47:54.000Z</time>
        <extensions>
          <ns3:TrackPointExtension/>
        </extensions>
      </trkpt>
      <trkpt lat="50.139478929340839385986328125" lon="5.5358609743416309356689453125">
        <ele>380</ele>
        <time>2025-04-30T02:47:57.000Z</time>
        <extensions>
          <ns3:TrackPointExtension/>
        </extensions>
      </trkpt>
      <trkpt lat="50.1394489221274852752685546875" lon="5.53609793074429035186767578125">
        <ele>379.79998779296875</ele>
        <time>2025-04-30T02:47:59.000Z</time>
        <extensions>
          <ns3:TrackPointExtension/>
        </extensions>
      </trkpt>
      <trkpt lat="50.13938899151980876922607421875" lon="5.53624696098268032073974609375">
        <ele>379.399993896484375</ele>
        <time>2025-04-30T02:48:02.000Z</time>
        <extensions>
          <ns3:TrackPointExtension/>
        </extensions>
      </trkpt>
      <trkpt lat="50.13835399411618709564208984375" lon="5.53727994672954082489013671875">
        <ele>370.399993896484375</ele>
        <time>2025-04-30T02:48:04.000Z</time>
        <extensions>
          <ns3:TrackPointExtension/>
        </extensions>
      </trkpt>
      <trkpt lat="50.1380489766597747802734375" lon="5.537497960031032562255859375">
        <ele>368</ele>
        <time>2025-04-30T02:48:07.000Z</time>
        <extensions>
          <ns3:TrackPointExtension/>
        </extensions>
      </trkpt>
      <trkpt lat="50.13780397363007068634033203125" lon="5.5377049930393695831298828125">
        <ele>367</ele>
        <time>2025-04-30T02:48:10.000Z</time>
        <extensions>
          <ns3:TrackPointExtension/>
        </extensions>
      </trkpt>
      <trkpt lat="50.137011967599391937255859375" lon="5.5386759527027606964111328125">
        <ele>367.600006103515625</ele>
        <time>2025-04-30T02:48:12.000Z</time>
        <extensions>
          <ns3:TrackPointExtension/>
        </extensions>
      </trkpt>
      <trkpt lat="50.13685899786651134490966796875" lon="5.5387879349291324615478515625">
        <ele>367.399993896484375</ele>
        <time>2025-04-30T02:48:15.000Z</time>
        <extensions>
          <ns3:TrackPointExtension/>
        </extensions>
      </trkpt>
      <trkpt lat="50.1367199420928955078125" lon="5.53883395157754421234130859375">
        <ele>366.600006103515625</ele>
        <time>2025-04-30T02:48:17.000Z</time>
        <extensions>
          <ns3:TrackPointExtension/>
        </extensions>
      </trkpt>
      <trkpt lat="50.13625198043882846832275390625" lon="5.53889798931777477264404296875">
        <ele>363.79998779296875</ele>
        <time>2025-04-30T02:48:20.000Z</time>
        <extensions>
          <ns3:TrackPointExtension/>
        </extensions>
      </trkpt>
      <trkpt lat="50.13581092469394207000732421875" lon="5.53918096236884593963623046875">
        <ele>361.399993896484375</ele>
        <time>2025-04-30T02:48:22.000Z</time>
        <extensions>
          <ns3:TrackPointExtension/>
        </extensions>
      </trkpt>
      <trkpt lat="50.135631971061229705810546875" lon="5.5393649451434612274169921875">
        <ele>361.600006103515625</ele>
        <time>2025-04-30T02:48:25.000Z</time>
        <extensions>
          <ns3:TrackPointExtension/>
        </extensions>
      </trkpt>
      <trkpt lat="50.1347349397838115692138671875" lon="5.54070697166025638580322265625">
        <ele>357.600006103515625</ele>
        <time>2025-04-30T02:48:28.000Z</time>
        <extensions>
          <ns3:TrackPointExtension/>
        </extensions>
      </trkpt>
      <trkpt lat="50.13440092094242572784423828125" lon="5.54113193415105342864990234375">
        <ele>359.20001220703125</ele>
        <time>2025-04-30T02:48:30.000Z</time>
        <extensions>
          <ns3:TrackPointExtension/>
        </extensions>
      </trkpt>
      <trkpt lat="50.13196094892919063568115234375" lon="5.54309195838868618011474609375">
        <ele>358.600006103515625</ele>
        <time>2025-04-30T02:48:33.000Z</time>
        <extensions>
          <ns3:TrackPointExtension/>
        </extensions>
      </trkpt>
      <trkpt lat="50.13108797371387481689453125" lon="5.54375295527279376983642578125">
        <ele>364.399993896484375</ele>
        <time>2025-04-30T02:48:35.000Z</time>
        <extensions>
          <ns3:TrackPointExtension/>
        </extensions>
      </trkpt>
      <trkpt lat="50.13046192936599254608154296875" lon="5.54427397437393665313720703125">
        <ele>365.600006103515625</ele>
        <time>2025-04-30T02:48:38.000Z</time>
        <extensions>
          <ns3:TrackPointExtension/>
        </extensions>
      </trkpt>
      <trkpt lat="50.13037693686783313751220703125" lon="5.54441395215690135955810546875">
        <ele>367.79998779296875</ele>
        <time>2025-04-30T02:48:40.000Z</time>
        <extensions>
          <ns3:TrackPointExtension/>
        </extensions>
      </trkpt>
      <trkpt lat="50.13029295019805431365966796875" lon="5.54461092688143253326416015625">
        <ele>370.600006103515625</ele>
        <time>2025-04-30T02:48:43.000Z</time>
        <extensions>
          <ns3:TrackPointExtension/>
        </extensions>
      </trkpt>
      <trkpt lat="50.13012095354497432708740234375" lon="5.54516497068107128143310546875">
        <ele>374.20001220703125</ele>
        <time>2025-04-30T02:48:46.000Z</time>
        <extensions>
          <ns3:TrackPointExtension/>
        </extensions>
      </trkpt>
      <trkpt lat="50.12997292913496494293212890625" lon="5.54556394927203655242919921875">
        <ele>376.600006103515625</ele>
        <time>2025-04-30T02:48:48.000Z</time>
        <extensions>
          <ns3:TrackPointExtension/>
        </extensions>
      </trkpt>
      <trkpt lat="50.12982691638171672821044921875" lon="5.5458109639585018157958984375">
        <ele>375.600006103515625</ele>
        <time>2025-04-30T02:48:51.000Z</time>
        <extensions>
          <ns3:TrackPointExtension/>
        </extensions>
      </trkpt>
      <trkpt lat="50.12963798828423023223876953125" lon="5.5459879897534847259521484375">
        <ele>377.600006103515625</ele>
        <time>2025-04-30T02:48:53.000Z</time>
        <extensions>
          <ns3:TrackPointExtension/>
        </extensions>
      </trkpt>
      <trkpt lat="50.12942592613399028778076171875" lon="5.54611598141491413116455078125">
        <ele>378.600006103515625</ele>
        <time>2025-04-30T02:48:56.000Z</time>
        <extensions>
          <ns3:TrackPointExtension/>
        </extensions>
      </trkpt>
      <trkpt lat="50.12922794558107852935791015625" lon="5.54618798196315765380859375">
        <ele>379.399993896484375</ele>
        <time>2025-04-30T02:48:58.000Z</time>
        <extensions>
          <ns3:TrackPointExtension/>
        </extensions>
      </trkpt>
      <trkpt lat="50.1289839483797550201416015625" lon="5.546235926449298858642578125">
        <ele>379.600006103515625</ele>
        <time>2025-04-30T02:49:01.000Z</time>
        <extensions>
          <ns3:TrackPointExtension/>
        </extensions>
      </trkpt>
      <trkpt lat="50.12874498032033443450927734375" lon="5.54620298556983470916748046875">
        <ele>381.20001220703125</ele>
        <time>2025-04-30T02:49:04.000Z</time>
        <extensions>
          <ns3:TrackPointExtension/>
        </extensions>
      </trkpt>
      <trkpt lat="50.1282079517841339111328125" lon="5.5459819547832012176513671875">
        <ele>382.20001220703125</ele>
        <time>2025-04-30T02:49:06.000Z</time>
        <extensions>
          <ns3:TrackPointExtension/>
        </extensions>
      </trkpt>
      <trkpt lat="50.12805095873773097991943359375" lon="5.54593895561993122100830078125">
        <ele>380.399993896484375</ele>
        <time>2025-04-30T02:49:09.000Z</time>
        <extensions>
          <ns3:TrackPointExtension/>
        </extensions>
      </trkpt>
      <trkpt lat="50.12768098153173923492431640625" lon="5.5459879897534847259521484375">
        <ele>376.600006103515625</ele>
        <time>2025-04-30T02:49:11.000Z</time>
        <extensions>
          <ns3:TrackPointExtension/>
        </extensions>
      </trkpt>
      <trkpt lat="50.12745399959385395050048828125" lon="5.546119920909404754638671875">
        <ele>377.600006103515625</ele>
        <time>2025-04-30T02:49:14.000Z</time>
        <extensions>
          <ns3:TrackPointExtension/>
        </extensions>
      </trkpt>
      <trkpt lat="50.12711696326732635498046875" lon="5.5463839508593082427978515625">
        <ele>381</ele>
        <time>2025-04-30T02:49:16.000Z</time>
        <extensions>
          <ns3:TrackPointExtension/>
        </extensions>
      </trkpt>
      <trkpt lat="50.12638195417821407318115234375" lon="5.54685995914041996002197265625">
        <ele>385.600006103515625</ele>
        <time>2025-04-30T02:49:19.000Z</time>
        <extensions>
          <ns3:TrackPointExtension/>
        </extensions>
      </trkpt>
      <trkpt lat="50.1261669583618640899658203125" lon="5.54696892388164997100830078125">
        <ele>387.20001220703125</ele>
        <time>2025-04-30T02:49:22.000Z</time>
        <extensions>
          <ns3:TrackPointExtension/>
        </extensions>
      </trkpt>
      <trkpt lat="50.125965960323810577392578125" lon="5.5470429360866546630859375">
        <ele>389.399993896484375</ele>
        <time>2025-04-30T02:49:24.000Z</time>
        <extensions>
          <ns3:TrackPointExtension/>
        </extensions>
      </trkpt>
      <trkpt lat="50.12574694119393825531005859375" lon="5.5470749549567699432373046875">
        <ele>390.79998779296875</ele>
        <time>2025-04-30T02:49:27.000Z</time>
        <extensions>
          <ns3:TrackPointExtension/>
        </extensions>
      </trkpt>
      <trkpt lat="50.12543094344437122344970703125" lon="5.547046959400177001953125">
        <ele>394.600006103515625</ele>
        <time>2025-04-30T02:49:29.000Z</time>
        <extensions>
          <ns3:TrackPointExtension/>
        </extensions>
      </trkpt>
      <trkpt lat="50.1247299648821353912353515625" lon="5.5467929877340793609619140625">
        <ele>396.600006103515625</ele>
        <time>2025-04-30T02:49:32.000Z</time>
        <extensions>
          <ns3:TrackPointExtension/>
        </extensions>
      </trkpt>
      <trkpt lat="50.12437096796929836273193359375" lon="5.54662995971739292144775390625">
        <ele>395.600006103515625</ele>
        <time>2025-04-30T02:49:34.000Z</time>
        <extensions>
          <ns3:TrackPointExtension/>
        </extensions>
      </trkpt>
      <trkpt lat="50.123547948896884918212890625" lon="5.54602093063294887542724609375">
        <ele>388.79998779296875</ele>
        <time>2025-04-30T02:49:37.000Z</time>
        <extensions>
          <ns3:TrackPointExtension/>
        </extensions>
      </trkpt>
      <trkpt lat="50.123370923101902008056640625" lon="5.54593392647802829742431640625">
        <ele>389.79998779296875</ele>
        <time>2025-04-30T02:49:40.000Z</time>
        <extensions>
          <ns3:TrackPointExtension/>
        </extensions>
      </trkpt>
      <trkpt lat="50.123198926448822021484375" lon="5.5459259636700153350830078125">
        <ele>390.79998779296875</ele>
        <time>2025-04-30T02:49:42.000Z</time>
        <extensions>
          <ns3:TrackPointExtension/>
        </extensions>
      </trkpt>
      <trkpt lat="50.12301796115934848785400390625" lon="5.5459879897534847259521484375">
        <ele>391</ele>
        <time>2025-04-30T02:49:45.000Z</time>
        <extensions>
          <ns3:TrackPointExtension/>
        </extensions>
      </trkpt>
      <trkpt lat="50.12123295105993747711181640625" lon="5.5473049543797969818115234375">
        <ele>406.79998779296875</ele>
        <time>2025-04-30T02:49:47.000Z</time>
        <extensions>
          <ns3:TrackPointExtension/>
        </extensions>
      </trkpt>
      <trkpt lat="50.1209869422018527984619140625" lon="5.54743797518312931060791015625">
        <ele>407</ele>
        <time>2025-04-30T02:49:50.000Z</time>
        <extensions>
          <ns3:TrackPointExtension/>
        </extensions>
      </trkpt>
      <trkpt lat="50.12059592641890048980712890625" lon="5.54750896990299224853515625">
        <ele>408</ele>
        <time>2025-04-30T02:49:52.000Z</time>
        <extensions>
          <ns3:TrackPointExtension/>
        </extensions>
      </trkpt>
      <trkpt lat="50.12039291672408580780029296875" lon="5.5474759452044963836669921875">
        <ele>410.20001220703125</ele>
        <time>2025-04-30T02:49:55.000Z</time>
        <extensions>
          <ns3:TrackPointExtension/>
        </extensions>
      </trkpt>
      <trkpt lat="50.11786694638431072235107421875" lon="5.54659299552440643310546875">
        <ele>427</ele>
        <time>2025-04-30T02:49:58.000Z</time>
        <extensions>
          <ns3:TrackPointExtension/>
        </extensions>
      </trkpt>
      <trkpt lat="50.11732195504009723663330078125" lon="5.546420998871326446533203125">
        <ele>429.20001220703125</ele>
        <time>2025-04-30T02:50:00.000Z</time>
        <extensions>
          <ns3:TrackPointExtension/>
        </extensions>
      </trkpt>
      <trkpt lat="50.11674595065414905548095703125" lon="5.54620399139821529388427734375">
        <ele>432.399993896484375</ele>
        <time>2025-04-30T02:50:03.000Z</time>
        <extensions>
          <ns3:TrackPointExtension/>
        </extensions>
      </trkpt>
      <trkpt lat="50.11657495982944965362548828125" lon="5.54619493894279003143310546875">
        <ele>432.20001220703125</ele>
        <time>2025-04-30T02:50:05.000Z</time>
        <extensions>
          <ns3:TrackPointExtension/>
        </extensions>
      </trkpt>
      <trkpt lat="50.1165589503943920135498046875" lon="5.54594096727669239044189453125">
        <ele>432</ele>
        <time>2025-04-30T02:50:22.000Z</time>
        <extensions>
          <ns3:TrackPointExtension/>
        </extensions>
      </trkpt>
      <trkpt lat="50.116069950163364410400390625" lon="5.54397792555391788482666015625">
        <ele>429</ele>
        <time>2025-04-30T02:50:30.000Z</time>
        <extensions>
          <ns3:TrackPointExtension/>
        </extensions>
      </trkpt>
      <trkpt lat="50.11600792407989501953125" lon="5.54360099136829376220703125">
        <ele>428.20001220703125</ele>
        <time>2025-04-30T02:50:39.000Z</time>
        <extensions>
          <ns3:TrackPointExtension/>
        </extensions>
      </trkpt>
      <trkpt lat="50.11596391908824443817138671875" lon="5.54309799335896968841552734375">
        <ele>428.399993896484375</ele>
        <time>2025-04-30T02:50:47.000Z</time>
        <extensions>
          <ns3:TrackPointExtension/>
        </extensions>
      </trkpt>
      <trkpt lat="50.115898959338665008544921875" lon="5.54177398793399333953857421875">
        <ele>423.79998779296875</ele>
        <time>2025-04-30T02:50:55.000Z</time>
        <extensions>
          <ns3:TrackPointExtension/>
        </extensions>
      </trkpt>
      <trkpt lat="50.11585495434701442718505859375" lon="5.5413289926946163177490234375">
        <ele>425.20001220703125</ele>
        <time>2025-04-30T02:51:03.000Z</time>
        <extensions>
          <ns3:TrackPointExtension/>
        </extensions>
      </trkpt>
      <trkpt lat="50.11579695157706737518310546875" lon="5.54096194915473461151123046875">
        <ele>425.600006103515625</ele>
        <time>2025-04-30T02:51:12.000Z</time>
        <extensions>
          <ns3:TrackPointExtension/>
        </extensions>
      </trkpt>
      <trkpt lat="50.11573391966521739959716796875" lon="5.54070898331701755523681640625">
        <ele>425.600006103515625</ele>
        <time>2025-04-30T02:51:20.000Z</time>
        <extensions>
          <ns3:TrackPointExtension/>
        </extensions>
      </trkpt>
      <trkpt lat="50.11510494165122509002685546875" lon="5.53875692188739776611328125">
        <ele>424.79998779296875</ele>
        <time>2025-04-30T02:51:28.000Z</time>
        <extensions>
          <ns3:TrackPointExtension/>
        </extensions>
      </trkpt>
      <trkpt lat="50.11499195359647274017333984375" lon="5.53822492249310016632080078125">
        <ele>422.600006103515625</ele>
        <time>2025-04-30T02:51:36.000Z</time>
        <extensions>
          <ns3:TrackPointExtension/>
        </extensions>
      </trkpt>
      <trkpt lat="50.1147709228098392486572265625" lon="5.53685196675360202789306640625">
        <ele>420.399993896484375</ele>
        <time>2025-04-30T02:51:44.000Z</time>
        <extensions>
          <ns3:TrackPointExtension/>
        </extensions>
      </trkpt>
      <trkpt lat="50.1145449467003345489501953125" lon="5.53584194742143154144287109375">
        <ele>424.20001220703125</ele>
        <time>2025-04-30T02:51:53.000Z</time>
        <extensions>
          <ns3:TrackPointExtension/>
        </extensions>
      </trkpt>
      <trkpt lat="50.11447898112237453460693359375" lon="5.53478398360311985015869140625">
        <ele>427</ele>
        <time>2025-04-30T02:52:01.000Z</time>
        <extensions>
          <ns3:TrackPointExtension/>
        </extensions>
      </trkpt>
      <trkpt lat="50.11442097835242748260498046875" lon="5.53440394811332225799560546875">
        <ele>427</ele>
        <time>2025-04-30T02:52:09.000Z</time>
        <extensions>
          <ns3:TrackPointExtension/>
        </extensions>
      </trkpt>
      <trkpt lat="50.114178992807865142822265625" lon="5.53329099901020526885986328125">
        <ele>426.399993896484375</ele>
        <time>2025-04-30T02:52:17.000Z</time>
        <extensions>
          <ns3:TrackPointExtension/>
        </extensions>
      </trkpt>
      <trkpt lat="50.1132859848439693450927734375" lon="5.5298819951713085174560546875">
        <ele>420</ele>
        <time>2025-04-30T02:52:26.000Z</time>
        <extensions>
          <ns3:TrackPointExtension/>
        </extensions>
      </trkpt>
      <trkpt lat="50.1130159199237823486328125" lon="5.52913793362677097320556640625">
        <ele>426.600006103515625</ele>
        <time>2025-04-30T02:52:34.000Z</time>
        <extensions>
          <ns3:TrackPointExtension/>
        </extensions>
      </trkpt>
      <trkpt lat="50.111351944506168365478515625" lon="5.53100894205272197723388671875">
        <ele>433.600006103515625</ele>
        <time>2025-04-30T02:52:47.000Z</time>
        <extensions>
          <ns3:TrackPointExtension/>
        </extensions>
      </trkpt>
      <trkpt lat="50.11120299808681011199951171875" lon="5.531060993671417236328125">
        <ele>435.20001220703125</ele>
        <time>2025-04-30T02:52:59.000Z</time>
        <extensions>
          <ns3:TrackPointExtension/>
        </extensions>
      </trkpt>
      <trkpt lat="50.11150592006742954254150390625" lon="5.529791973531246185302734375">
        <ele>452</ele>
        <time>2025-04-30T02:53:02.000Z</time>
        <extensions>
          <ns3:TrackPointExtension/>
        </extensions>
      </trkpt>
      <trkpt lat="50.111584961414337158203125" lon="5.52931395359337329864501953125">
        <ele>456</ele>
        <time>2025-04-30T02:53:04.000Z</time>
        <extensions>
          <ns3:TrackPointExtension/>
        </extensions>
      </trkpt>
      <trkpt lat="50.111634917557239532470703125" lon="5.528814978897571563720703125">
        <ele>458.399993896484375</ele>
        <time>2025-04-30T02:53:07.000Z</time>
        <extensions>
          <ns3:TrackPointExtension/>
        </extensions>
      </trkpt>
      <trkpt lat="50.11171999387443065643310546875" lon="5.52750899456441402435302734375">
        <ele>459</ele>
        <time>2025-04-30T02:53:09.000Z</time>
        <extensions>
          <ns3:TrackPointExtension/>
        </extensions>
      </trkpt>
      <trkpt lat="50.11170993559062480926513671875" lon="5.5272819288074970245361328125">
        <ele>457.79998779296875</ele>
        <time>2025-04-30T02:53:12.000Z</time>
        <extensions>
          <ns3:TrackPointExtension/>
        </extensions>
      </trkpt>
      <trkpt lat="50.111648999154567718505859375" lon="5.5267099477350711822509765625">
        <ele>452.600006103515625</ele>
        <time>2025-04-30T02:53:14.000Z</time>
        <extensions>
          <ns3:TrackPointExtension/>
        </extensions>
      </trkpt>
      <trkpt lat="50.1115519367158412933349609375" lon="5.526388920843601226806640625">
        <ele>448.79998779296875</ele>
        <time>2025-04-30T02:53:17.000Z</time>
        <extensions>
          <ns3:TrackPointExtension/>
        </extensions>
      </trkpt>
      <trkpt lat="50.11142394505441188812255859375" lon="5.52609597332775592803955078125">
        <ele>444.600006103515625</ele>
        <time>2025-04-30T02:53:20.000Z</time>
        <extensions>
          <ns3:TrackPointExtension/>
        </extensions>
      </trkpt>
      <trkpt lat="50.1081679947674274444580078125" lon="5.52067891694605350494384765625">
        <ele>427</ele>
        <time>2025-04-30T02:53:22.000Z</time>
        <extensions>
          <ns3:TrackPointExtension/>
        </extensions>
      </trkpt>
      <trkpt lat="50.107956938445568084716796875" lon="5.520302988588809967041015625">
        <ele>426</ele>
        <time>2025-04-30T02:53:25.000Z</time>
        <extensions>
          <ns3:TrackPointExtension/>
        </extensions>
      </trkpt>
      <trkpt lat="50.107789970934391021728515625" lon="5.51988397724926471710205078125">
        <ele>426.399993896484375</ele>
        <time>2025-04-30T02:53:27.000Z</time>
        <extensions>
          <ns3:TrackPointExtension/>
        </extensions>
      </trkpt>
      <trkpt lat="50.107676982879638671875" lon="5.51938894204795360565185546875">
        <ele>427</ele>
        <time>2025-04-30T02:53:30.000Z</time>
        <extensions>
          <ns3:TrackPointExtension/>
        </extensions>
      </trkpt>
      <trkpt lat="50.10763297788798809051513671875" lon="5.51884294487535953521728515625">
        <ele>426.600006103515625</ele>
        <time>2025-04-30T02:53:32.000Z</time>
        <extensions>
          <ns3:TrackPointExtension/>
        </extensions>
      </trkpt>
      <trkpt lat="50.1076469756662845611572265625" lon="5.51835796795785427093505859375">
        <ele>426.79998779296875</ele>
        <time>2025-04-30T02:53:35.000Z</time>
        <extensions>
          <ns3:TrackPointExtension/>
        </extensions>
      </trkpt>
      <trkpt lat="50.10772593319416046142578125" lon="5.5178509466350078582763671875">
        <ele>425.600006103515625</ele>
        <time>2025-04-30T02:53:37.000Z</time>
        <extensions>
          <ns3:TrackPointExtension/>
        </extensions>
      </trkpt>
      <trkpt lat="50.1090199314057826995849609375" lon="5.51249499432742595672607421875">
        <ele>424.600006103515625</ele>
        <time>2025-04-30T02:53:40.000Z</time>
        <extensions>
          <ns3:TrackPointExtension/>
        </extensions>
      </trkpt>
      <trkpt lat="50.10907298885285854339599609375" lon="5.5122189782559871673583984375">
        <ele>425.20001220703125</ele>
        <time>2025-04-30T02:53:42.000Z</time>
        <extensions>
          <ns3:TrackPointExtension/>
        </extensions>
      </trkpt>
      <trkpt lat="50.10908992029726505279541015625" lon="5.51202191971242427825927734375">
        <ele>425.20001220703125</ele>
        <time>2025-04-30T02:53:45.000Z</time>
        <extensions>
          <ns3:TrackPointExtension/>
        </extensions>
      </trkpt>
      <trkpt lat="50.1090839691460132598876953125" lon="5.51180197857320308685302734375">
        <ele>425.79998779296875</ele>
        <time>2025-04-30T02:53:47.000Z</time>
        <extensions>
          <ns3:TrackPointExtension/>
        </extensions>
      </trkpt>
      <trkpt lat="50.10904298163950443267822265625" lon="5.5115829594433307647705078125">
        <ele>426.20001220703125</ele>
        <time>2025-04-30T02:53:50.000Z</time>
        <extensions>
          <ns3:TrackPointExtension/>
        </extensions>
      </trkpt>
      <trkpt lat="50.10895798914134502410888671875" lon="5.5113539658486843109130859375">
        <ele>426.399993896484375</ele>
        <time>2025-04-30T02:53:52.000Z</time>
        <extensions>
          <ns3:TrackPointExtension/>
        </extensions>
      </trkpt>
      <trkpt lat="50.10843998752534389495849609375" lon="5.5102059803903102874755859375">
        <ele>427.79998779296875</ele>
        <time>2025-04-30T02:53:55.000Z</time>
        <extensions>
          <ns3:TrackPointExtension/>
        </extensions>
      </trkpt>
      <trkpt lat="50.108243934810161590576171875" lon="5.5096609890460968017578125">
        <ele>429.600006103515625</ele>
        <time>2025-04-30T02:53:58.000Z</time>
        <extensions>
          <ns3:TrackPointExtension/>
        </extensions>
      </trkpt>
      <trkpt lat="50.1081629656255245208740234375" lon="5.50935898907482624053955078125">
        <ele>431</ele>
        <time>2025-04-30T02:54:00.000Z</time>
        <extensions>
          <ns3:TrackPointExtension/>
        </extensions>
      </trkpt>
      <trkpt lat="50.10802097618579864501953125" lon="5.5087049491703510284423828125">
        <ele>433.20001220703125</ele>
        <time>2025-04-30T02:54:03.000Z</time>
        <extensions>
          <ns3:TrackPointExtension/>
        </extensions>
      </trkpt>
      <trkpt lat="50.10789399035274982452392578125" lon="5.5083039589226245880126953125">
        <ele>432.600006103515625</ele>
        <time>2025-04-30T02:54:05.000Z</time>
        <extensions>
          <ns3:TrackPointExtension/>
        </extensions>
      </trkpt>
      <trkpt lat="50.1077569462358951568603515625" lon="5.50797698087990283966064453125">
        <ele>432.20001220703125</ele>
        <time>2025-04-30T02:54:08.000Z</time>
        <extensions>
          <ns3:TrackPointExtension/>
        </extensions>
      </trkpt>
      <trkpt lat="50.10751496069133281707763671875" lon="5.50747297704219818115234375">
        <ele>434.20001220703125</ele>
        <time>2025-04-30T02:54:10.000Z</time>
        <extensions>
          <ns3:TrackPointExtension/>
        </extensions>
      </trkpt>
      <trkpt lat="50.10677198879420757293701171875" lon="5.505967922508716583251953125">
        <ele>438.600006103515625</ele>
        <time>2025-04-30T02:54:13.000Z</time>
        <extensions>
          <ns3:TrackPointExtension/>
        </extensions>
      </trkpt>
      <trkpt lat="50.10667693801224231719970703125" lon="5.505737923085689544677734375">
        <ele>439.20001220703125</ele>
        <time>2025-04-30T02:54:15.000Z</time>
        <extensions>
          <ns3:TrackPointExtension/>
        </extensions>
      </trkpt>
      <trkpt lat="50.10662295855581760406494140625" lon="5.5055389367043972015380859375">
        <ele>439.79998779296875</ele>
        <time>2025-04-30T02:54:18.000Z</time>
        <extensions>
          <ns3:TrackPointExtension/>
        </extensions>
      </trkpt>
      <trkpt lat="50.1066119782626628875732421875" lon="5.5053639225661754608154296875">
        <ele>440.20001220703125</ele>
        <time>2025-04-30T02:54:20.000Z</time>
        <extensions>
          <ns3:TrackPointExtension/>
        </extensions>
      </trkpt>
      <trkpt lat="50.1066429913043975830078125" lon="5.50492898561060428619384765625">
        <ele>440.79998779296875</ele>
        <time>2025-04-30T02:54:23.000Z</time>
        <extensions>
          <ns3:TrackPointExtension/>
        </extensions>
      </trkpt>
      <trkpt lat="50.10668096132576465606689453125" lon="5.5047149956226348876953125">
        <ele>441.399993896484375</ele>
        <time>2025-04-30T02:54:25.000Z</time>
        <extensions>
          <ns3:TrackPointExtension/>
        </extensions>
      </trkpt>
      <trkpt lat="50.10685094632208347320556640625" lon="5.50416992045938968658447265625">
        <ele>443</ele>
        <time>2025-04-30T02:54:28.000Z</time>
        <extensions>
          <ns3:TrackPointExtension/>
        </extensions>
      </trkpt>
      <trkpt lat="50.10685195215046405792236328125" lon="5.50405492074787616729736328125">
        <ele>443.399993896484375</ele>
        <time>2025-04-30T02:54:30.000Z</time>
        <extensions>
          <ns3:TrackPointExtension/>
        </extensions>
      </trkpt>
      <trkpt lat="50.106804929673671722412109375" lon="5.5039349757134914398193359375">
        <ele>443.79998779296875</ele>
        <time>2025-04-30T02:54:33.000Z</time>
        <extensions>
          <ns3:TrackPointExtension/>
        </extensions>
      </trkpt>
      <trkpt lat="50.10650494135916233062744140625" lon="5.50345896743237972259521484375">
        <ele>442.20001220703125</ele>
        <time>2025-04-30T02:54:36.000Z</time>
        <extensions>
          <ns3:TrackPointExtension/>
        </extensions>
      </trkpt>
      <trkpt lat="50.106470994651317596435546875" lon="5.5033509247004985809326171875">
        <ele>441.79998779296875</ele>
        <time>2025-04-30T02:54:38.000Z</time>
        <extensions>
          <ns3:TrackPointExtension/>
        </extensions>
      </trkpt>
      <trkpt lat="50.1064869202673435211181640625" lon="5.503098964691162109375">
        <ele>441.20001220703125</ele>
        <time>2025-04-30T02:54:41.000Z</time>
        <extensions>
          <ns3:TrackPointExtension/>
        </extensions>
      </trkpt>
      <trkpt lat="50.10653193108737468719482421875" lon="5.50299796275794506072998046875">
        <ele>440.79998779296875</ele>
        <time>2025-04-30T02:54:43.000Z</time>
        <extensions>
          <ns3:TrackPointExtension/>
        </extensions>
      </trkpt>
      <trkpt lat="50.10668096132576465606689453125" lon="5.50282596610486507415771484375">
        <ele>439.79998779296875</ele>
        <time>2025-04-30T02:54:46.000Z</time>
        <extensions>
          <ns3:TrackPointExtension/>
        </extensions>
      </trkpt>
      <trkpt lat="50.10733793489634990692138671875" lon="5.5022129975259304046630859375">
        <ele>436.20001220703125</ele>
        <time>2025-04-30T02:54:48.000Z</time>
        <extensions>
          <ns3:TrackPointExtension/>
        </extensions>
      </trkpt>
      <trkpt lat="50.1074669323861598968505859375" lon="5.5020649731159210205078125">
        <ele>436.20001220703125</ele>
        <time>2025-04-30T02:54:51.000Z</time>
        <extensions>
          <ns3:TrackPointExtension/>
        </extensions>
      </trkpt>
      <trkpt lat="50.10755695402622222900390625" lon="5.5019209720194339752197265625">
        <ele>436.600006103515625</ele>
        <time>2025-04-30T02:54:53.000Z</time>
        <extensions>
          <ns3:TrackPointExtension/>
        </extensions>
      </trkpt>
      <trkpt lat="50.10763599537312984466552734375" lon="5.5017419345676898956298828125">
        <ele>437.399993896484375</ele>
        <time>2025-04-30T02:54:56.000Z</time>
        <extensions>
          <ns3:TrackPointExtension/>
        </extensions>
      </trkpt>
      <trkpt lat="50.107675977051258087158203125" lon="5.50155292265117168426513671875">
        <ele>438.600006103515625</ele>
        <time>2025-04-30T02:54:58.000Z</time>
        <extensions>
          <ns3:TrackPointExtension/>
        </extensions>
      </trkpt>
      <trkpt lat="50.107667930424213409423828125" lon="5.501369945704936981201171875">
        <ele>439</ele>
        <time>2025-04-30T02:55:01.000Z</time>
        <extensions>
          <ns3:TrackPointExtension/>
        </extensions>
      </trkpt>
      <trkpt lat="50.10760397650301456451416015625" lon="5.5012319795787334442138671875">
        <ele>438</ele>
        <time>2025-04-30T02:55:03.000Z</time>
        <extensions>
          <ns3:TrackPointExtension/>
        </extensions>
      </trkpt>
      <trkpt lat="50.10738395154476165771484375" lon="5.50095194019377231597900390625">
        <ele>435</ele>
        <time>2025-04-30T02:55:06.000Z</time>
        <extensions>
          <ns3:TrackPointExtension/>
        </extensions>
      </trkpt>
      <trkpt lat="50.10731597431004047393798828125" lon="5.50083995796740055084228515625">
        <ele>434.79998779296875</ele>
        <time>2025-04-30T02:55:08.000Z</time>
        <extensions>
          <ns3:TrackPointExtension/>
        </extensions>
      </trkpt>
      <trkpt lat="50.10728496126830577850341796875" lon="5.50070299766957759857177734375">
        <ele>435</ele>
        <time>2025-04-30T02:55:11.000Z</time>
        <extensions>
          <ns3:TrackPointExtension/>
        </extensions>
      </trkpt>
      <trkpt lat="50.10728496126830577850341796875" lon="5.50054793246090412139892578125">
        <ele>435</ele>
        <time>2025-04-30T02:55:14.000Z</time>
        <extensions>
          <ns3:TrackPointExtension/>
        </extensions>
      </trkpt>
      <trkpt lat="50.1070619188249111175537109375" lon="5.50037895329296588897705078125">
        <ele>434.79998779296875</ele>
        <time>2025-04-30T02:55:17.000Z</time>
        <extensions>
          <ns3:TrackPointExtension/>
        </extensions>
      </trkpt>
      <trkpt lat="50.10685597546398639678955078125" lon="5.50026093609631061553955078125">
        <ele>434</ele>
        <time>2025-04-30T02:55:21.000Z</time>
        <extensions>
          <ns3:TrackPointExtension/>
        </extensions>
      </trkpt>
      <trkpt lat="50.10676695965230464935302734375" lon="5.500158928334712982177734375">
        <ele>432.600006103515625</ele>
        <time>2025-04-30T02:55:25.000Z</time>
        <extensions>
          <ns3:TrackPointExtension/>
        </extensions>
      </trkpt>
      <trkpt lat="50.10673494078218936920166015625" lon="5.50005893222987651824951171875">
        <ele>431.79998779296875</ele>
        <time>2025-04-30T02:55:29.000Z</time>
        <extensions>
          <ns3:TrackPointExtension/>
        </extensions>
      </trkpt>
      <trkpt lat="50.10673393495380878448486328125" lon="5.4999339580535888671875">
        <ele>431</ele>
        <time>2025-04-30T02:55:33.000Z</time>
        <extensions>
          <ns3:TrackPointExtension/>
        </extensions>
      </trkpt>
      <trkpt lat="50.10679596103727817535400390625" lon="5.49941696226596832275390625">
        <ele>428.399993896484375</ele>
        <time>2025-04-30T02:55:36.000Z</time>
        <extensions>
          <ns3:TrackPointExtension/>
        </extensions>
      </trkpt>
      <trkpt lat="50.10691096074879169464111328125" lon="5.49896299839019775390625">
        <ele>428</ele>
        <time>2025-04-30T02:55:40.000Z</time>
        <extensions>
          <ns3:TrackPointExtension/>
        </extensions>
      </trkpt>
      <trkpt lat="50.10692797601222991943359375" lon="5.498613975942134857177734375">
        <ele>428.600006103515625</ele>
        <time>2025-04-30T02:55:44.000Z</time>
        <extensions>
          <ns3:TrackPointExtension/>
        </extensions>
      </trkpt>
      <trkpt lat="50.10682697407901287078857421875" lon="5.4976579360663890838623046875">
        <ele>428</ele>
        <time>2025-04-30T02:55:48.000Z</time>
        <extensions>
          <ns3:TrackPointExtension/>
        </extensions>
      </trkpt>
      <trkpt lat="50.10679596103727817535400390625" lon="5.4970299638807773590087890625">
        <ele>428.600006103515625</ele>
        <time>2025-04-30T02:55:51.000Z</time>
        <extensions>
          <ns3:TrackPointExtension/>
        </extensions>
      </trkpt>
      <trkpt lat="50.10676997713744640350341796875" lon="5.49678998999297618865966796875">
        <ele>428.79998779296875</ele>
        <time>2025-04-30T02:55:55.000Z</time>
        <extensions>
          <ns3:TrackPointExtension/>
        </extensions>
      </trkpt>
      <trkpt lat="50.10670593939721584320068359375" lon="5.49651891924440860748291015625">
        <ele>429.20001220703125</ele>
        <time>2025-04-30T02:55:59.000Z</time>
        <extensions>
          <ns3:TrackPointExtension/>
        </extensions>
      </trkpt>
      <trkpt lat="50.1064429990947246551513671875" lon="5.49586798064410686492919921875">
        <ele>427.399993896484375</ele>
        <time>2025-04-30T02:56:03.000Z</time>
        <extensions>
          <ns3:TrackPointExtension/>
        </extensions>
      </trkpt>
      <trkpt lat="50.10630494914948940277099609375" lon="5.4955889470875263214111328125">
        <ele>426.20001220703125</ele>
        <time>2025-04-30T02:56:07.000Z</time>
        <extensions>
          <ns3:TrackPointExtension/>
        </extensions>
      </trkpt>
      <trkpt lat="50.1061199605464935302734375" lon="5.4953049682080745697021484375">
        <ele>426.600006103515625</ele>
        <time>2025-04-30T02:56:10.000Z</time>
        <extensions>
          <ns3:TrackPointExtension/>
        </extensions>
      </trkpt>
      <trkpt lat="50.10581293143332004547119140625" lon="5.49492895603179931640625">
        <ele>426.79998779296875</ele>
        <time>2025-04-30T02:56:14.000Z</time>
        <extensions>
          <ns3:TrackPointExtension/>
        </extensions>
      </trkpt>
      <trkpt lat="50.10575492866337299346923828125" lon="5.494815967977046966552734375">
        <ele>426.79998779296875</ele>
        <time>2025-04-30T02:56:18.000Z</time>
        <extensions>
          <ns3:TrackPointExtension/>
        </extensions>
      </trkpt>
      <trkpt lat="50.1056289486587047576904296875" lon="5.49440198577940464019775390625">
        <ele>427.20001220703125</ele>
        <time>2025-04-30T02:56:22.000Z</time>
        <extensions>
          <ns3:TrackPointExtension/>
        </extensions>
      </trkpt>
      <trkpt lat="50.10555594228208065032958984375" lon="5.49424792639911174774169921875">
        <ele>427.79998779296875</ele>
        <time>2025-04-30T02:56:26.000Z</time>
        <extensions>
          <ns3:TrackPointExtension/>
        </extensions>
      </trkpt>
      <trkpt lat="50.10548293590545654296875" lon="5.494129993021488189697265625">
        <ele>428.20001220703125</ele>
        <time>2025-04-30T02:56:29.000Z</time>
        <extensions>
          <ns3:TrackPointExtension/>
        </extensions>
      </trkpt>
      <trkpt lat="50.105314962565898895263671875" lon="5.49396495334804058074951171875">
        <ele>429.399993896484375</ele>
        <time>2025-04-30T02:56:33.000Z</time>
        <extensions>
          <ns3:TrackPointExtension/>
        </extensions>
      </trkpt>
      <trkpt lat="50.105195939540863037109375" lon="5.49379396252334117889404296875">
        <ele>430.600006103515625</ele>
        <time>2025-04-30T02:56:37.000Z</time>
        <extensions>
          <ns3:TrackPointExtension/>
        </extensions>
      </trkpt>
      <trkpt lat="50.1044759340584278106689453125" lon="5.49244699068367481231689453125">
        <ele>435.600006103515625</ele>
        <time>2025-04-30T02:56:41.000Z</time>
        <extensions>
          <ns3:TrackPointExtension/>
        </extensions>
      </trkpt>
      <trkpt lat="50.10441399179399013519287109375" lon="5.4922239482402801513671875">
        <ele>437</ele>
        <time>2025-04-30T02:56:45.000Z</time>
        <extensions>
          <ns3:TrackPointExtension/>
        </extensions>
      </trkpt>
      <trkpt lat="50.10470199398696422576904296875" lon="5.4920269735157489776611328125">
        <ele>437.79998779296875</ele>
        <time>2025-04-30T02:56:48.000Z</time>
        <extensions>
          <ns3:TrackPointExtension/>
        </extensions>
      </trkpt>
      <trkpt lat="50.10475697927176952362060546875" lon="5.4919679649174213409423828125">
        <ele>438.399993896484375</ele>
        <time>2025-04-30T02:56:51.000Z</time>
        <extensions>
          <ns3:TrackPointExtension/>
        </extensions>
      </trkpt>
      <trkpt lat="50.1048189215362071990966796875" lon="5.4918449185788631439208984375">
        <ele>439.600006103515625</ele>
        <time>2025-04-30T02:56:54.000Z</time>
        <extensions>
          <ns3:TrackPointExtension/>
        </extensions>
      </trkpt>
      <trkpt lat="50.1048809476196765899658203125" lon="5.4916189424693584442138671875">
        <ele>441.20001220703125</ele>
        <time>2025-04-30T02:56:57.000Z</time>
        <extensions>
          <ns3:TrackPointExtension/>
        </extensions>
      </trkpt>
      <trkpt lat="50.10492193512618541717529296875" lon="5.49137796275317668914794921875">
        <ele>442</ele>
        <time>2025-04-30T02:57:00.000Z</time>
        <extensions>
          <ns3:TrackPointExtension/>
        </extensions>
      </trkpt>
      <trkpt lat="50.1049429737031459808349609375" lon="5.49111996777355670928955078125">
        <ele>443.600006103515625</ele>
        <time>2025-04-30T02:57:04.000Z</time>
        <extensions>
          <ns3:TrackPointExtension/>
        </extensions>
      </trkpt>
      <trkpt lat="50.10494993068277835845947265625" lon="5.490384958684444427490234375">
        <ele>442</ele>
        <time>2025-04-30T02:57:07.000Z</time>
        <extensions>
          <ns3:TrackPointExtension/>
        </extensions>
      </trkpt>
      <trkpt lat="50.1048779301345348358154296875" lon="5.49005798064172267913818359375">
        <ele>441.399993896484375</ele>
        <time>2025-04-30T02:57:10.000Z</time>
        <extensions>
          <ns3:TrackPointExtension/>
        </extensions>
      </trkpt>
      <trkpt lat="50.10423394851386547088623046875" lon="5.48823994584381580352783203125">
        <ele>446.399993896484375</ele>
        <time>2025-04-30T02:57:13.000Z</time>
        <extensions>
          <ns3:TrackPointExtension/>
        </extensions>
      </trkpt>
      <trkpt lat="50.104164965450763702392578125" lon="5.48796594142913818359375">
        <ele>447</ele>
        <time>2025-04-30T02:57:16.000Z</time>
        <extensions>
          <ns3:TrackPointExtension/>
        </extensions>
      </trkpt>
      <trkpt lat="50.10417594574391841888427734375" lon="5.4877619259059429168701171875">
        <ele>447.600006103515625</ele>
        <time>2025-04-30T02:57:20.000Z</time>
        <extensions>
          <ns3:TrackPointExtension/>
        </extensions>
      </trkpt>
      <trkpt lat="50.10419991798698902130126953125" lon="5.48769797198474407196044921875">
        <ele>447.79998779296875</ele>
        <time>2025-04-30T02:57:23.000Z</time>
        <extensions>
          <ns3:TrackPointExtension/>
        </extensions>
      </trkpt>
      <trkpt lat="50.1042509637773036956787109375" lon="5.48763292841613292694091796875">
        <ele>447.79998779296875</ele>
        <time>2025-04-30T02:57:26.000Z</time>
        <extensions>
          <ns3:TrackPointExtension/>
        </extensions>
      </trkpt>
      <trkpt lat="50.10433696210384368896484375" lon="5.48758498392999172210693359375">
        <ele>447.600006103515625</ele>
        <time>2025-04-30T02:57:29.000Z</time>
        <extensions>
          <ns3:TrackPointExtension/>
        </extensions>
      </trkpt>
      <trkpt lat="50.1051079295575618743896484375" lon="5.48732195980846881866455078125">
        <ele>443.79998779296875</ele>
        <time>2025-04-30T02:57:32.000Z</time>
        <extensions>
          <ns3:TrackPointExtension/>
        </extensions>
      </trkpt>
      <trkpt lat="50.10521597228944301605224609375" lon="5.4872529767453670501708984375">
        <ele>444</ele>
        <time>2025-04-30T02:57:35.000Z</time>
        <extensions>
          <ns3:TrackPointExtension/>
        </extensions>
      </trkpt>
      <trkpt lat="50.10513299144804477691650390625" lon="5.48568497411906719207763671875">
        <ele>449.20001220703125</ele>
        <time>2025-04-30T02:57:57.000Z</time>
        <extensions>
          <ns3:TrackPointExtension/>
        </extensions>
      </trkpt>
      <trkpt lat="50.10501095093786716461181640625" lon="5.48383198678493499755859375">
        <ele>456</ele>
        <time>2025-04-30T02:58:18.000Z</time>
        <extensions>
          <ns3:TrackPointExtension/>
        </extensions>
      </trkpt>
      <trkpt lat="50.10496594011783599853515625" lon="5.48353099264204502105712890625">
        <ele>457.399993896484375</ele>
        <time>2025-04-30T02:58:39.000Z</time>
        <extensions>
          <ns3:TrackPointExtension/>
        </extensions>
      </trkpt>
      <trkpt lat="50.104223974049091339111328125" lon="5.48029993660748004913330078125">
        <ele>464</ele>
        <time>2025-04-30T02:59:00.000Z</time>
        <extensions>
          <ns3:TrackPointExtension/>
        </extensions>
      </trkpt>
      <trkpt lat="50.1050549559295177459716796875" lon="5.47955394722521305084228515625">
        <ele>466.20001220703125</ele>
        <time>2025-04-30T02:59:14.000Z</time>
        <extensions>
          <ns3:TrackPointExtension/>
        </extensions>
      </trkpt>
      <trkpt lat="50.1062679849565029144287109375" lon="5.478532947599887847900390625">
        <ele>470.20001220703125</ele>
        <time>2025-04-30T02:59:28.000Z</time>
        <extensions>
          <ns3:TrackPointExtension/>
        </extensions>
      </trkpt>
      <trkpt lat="50.1068079471588134765625" lon="5.4781009443104267120361328125">
        <ele>471.600006103515625</ele>
        <time>2025-04-30T02:59:42.000Z</time>
        <extensions>
          <ns3:TrackPointExtension/>
        </extensions>
      </trkpt>
      <trkpt lat="50.10688296519219875335693359375" lon="5.478076972067356109619140625">
        <ele>472</ele>
        <time>2025-04-30T02:59:56.000Z</time>
        <extensions>
          <ns3:TrackPointExtension/>
        </extensions>
      </trkpt>
      <trkpt lat="50.10685999877750873565673828125" lon="5.47785594128072261810302734375">
        <ele>473.399993896484375</ele>
        <time>2025-04-30T02:59:59.000Z</time>
        <extensions>
          <ns3:TrackPointExtension/>
        </extensions>
      </trkpt>
      <trkpt lat="50.10684994049370288848876953125" lon="5.4773859679698944091796875">
        <ele>477.79998779296875</ele>
        <time>2025-04-30T03:00:03.000Z</time>
        <extensions>
          <ns3:TrackPointExtension/>
        </extensions>
      </trkpt>
      <trkpt lat="50.106869973242282867431640625" lon="5.47693393193185329437255859375">
        <ele>481.20001220703125</ele>
        <time>2025-04-30T03:00:06.000Z</time>
        <extensions>
          <ns3:TrackPointExtension/>
        </extensions>
      </trkpt>
      <trkpt lat="50.10690794326364994049072265625" lon="5.47658792696893215179443359375">
        <ele>483.79998779296875</ele>
        <time>2025-04-30T03:00:10.000Z</time>
        <extensions>
          <ns3:TrackPointExtension/>
        </extensions>
      </trkpt>
      <trkpt lat="50.1070699654519557952880859375" lon="5.475544966757297515869140625">
        <ele>491.600006103515625</ele>
        <time>2025-04-30T03:00:13.000Z</time>
        <extensions>
          <ns3:TrackPointExtension/>
        </extensions>
      </trkpt>
      <trkpt lat="50.10694096796214580535888671875" lon="5.4755179770290851593017578125">
        <ele>490.20001220703125</ele>
        <time>2025-04-30T03:01:59.000Z</time>
        <extensions>
          <ns3:TrackPointExtension/>
        </extensions>
      </trkpt>
      <trkpt lat="50.10665799491107463836669921875" lon="5.4755769856274127960205078125">
        <ele>488.20001220703125</ele>
        <time>2025-04-30T03:03:45.000Z</time>
        <extensions>
          <ns3:TrackPointExtension/>
        </extensions>
      </trkpt>
      <trkpt lat="50.106470994651317596435546875" lon="5.4756819270551204681396484375">
        <ele>486.79998779296875</ele>
        <time>2025-04-30T03:05:32.000Z</time>
        <extensions>
          <ns3:TrackPointExtension/>
        </extensions>
      </trkpt>
    </trkseg>
  </trk>
</gpx>
